<?xml version='1.0' encoding='UTF-8'?><gpx version="1.1" creator="JPX - https://github.com/jenetics/jpx" xmlns="http://www.topografix.com/GPX/1/1"><trk><trkseg><trkpt lat="45.055892152295414" lon="8.511851127784512"><ele>106.99999999999999</ele><time>2026-04-18T09:36:59Z</time></trkpt><trkpt lat="45.0558998889128" lon="8.511958612027511"><ele>107.0</ele><time>2026-04-18T09:40:35.999Z</time></trkpt><trkpt lat="45.055862479388104" lon="8.512038706565777"><ele>107.0</ele><time>2026-04-18T09:40:38.999Z</time></trkpt><trkpt lat="45.05577771949105" lon="8.512128236548389"><ele>107.0</ele><time>2026-04-18T09:40:40.999Z</time></trkpt><trkpt lat="45.055676991254266" lon="8.512189439459469"><ele>106.99999999999999</ele><time>2026-04-18T09:40:42.999Z</time></trkpt><trkpt lat="45.055611783026606" lon="8.512225857991"><ele>107.0</ele><time>2026-04-18T09:40:45Z</time></trkpt><trkpt lat="45.05561586348092" lon="8.51232292431702"><ele>106.99999999999999</ele><time>2026-04-18T09:40:48Z</time></trkpt><trkpt lat="45.05568396678494" lon="8.512378167628137"><ele>107.0</ele><time>2026-04-18T09:41:02Z</time></trkpt><trkpt lat="45.05574335292065" lon="8.51234483805123"><ele>107.0</ele><time>2026-04-18T09:41:03Z</time></trkpt><trkpt lat="45.055828701627505" lon="8.512274292030487"><ele>107.0</ele><time>2026-04-18T09:41:04Z</time></trkpt><trkpt lat="45.055918884332016" lon="8.512206711595775"><ele>106.99999999999999</ele><time>2026-04-18T09:41:05Z</time></trkpt><trkpt lat="45.056008134748765" lon="8.512139339192924"><ele>107.0</ele><time>2026-04-18T09:41:06Z</time></trkpt><trkpt lat="45.056095562012985" lon="8.512071252916952"><ele>107.0</ele><time>2026-04-18T09:41:07Z</time></trkpt><trkpt lat="45.05619829895053" lon="8.511995876483486"><ele>107.0</ele><time>2026-04-18T09:41:08Z</time></trkpt><trkpt lat="45.056322144466506" lon="8.511908605972481"><ele>107.0</ele><time>2026-04-18T09:41:09Z</time></trkpt><trkpt lat="45.05642925240708" lon="8.511823232942794"><ele>107.0</ele><time>2026-04-18T09:41:10Z</time></trkpt><trkpt lat="45.056543222374174" lon="8.511740515239696"><ele>107.0</ele><time>2026-04-18T09:41:11Z</time></trkpt><trkpt lat="45.05666708001245" lon="8.511647518710895"><ele>107.0</ele><time>2026-04-18T09:41:12Z</time></trkpt><trkpt lat="45.05678991176848" lon="8.51155253269611"><ele>107.0</ele><time>2026-04-18T09:41:13Z</time></trkpt><trkpt lat="45.05692435135662" lon="8.511451212689295"><ele>107.0</ele><time>2026-04-18T09:41:14Z</time></trkpt><trkpt lat="45.05705860516393" lon="8.511346380395246"><ele>107.0</ele><time>2026-04-18T09:41:15Z</time></trkpt><trkpt lat="45.05719228927042" lon="8.51124529796626"><ele>107.0</ele><time>2026-04-18T09:41:16Z</time></trkpt><trkpt lat="45.057328871764916" lon="8.511146646997762"><ele>107.0</ele><time>2026-04-18T09:41:17Z</time></trkpt><trkpt lat="45.05746242214826" lon="8.511046018700391"><ele>107.75</ele><time>2026-04-18T09:41:18Z</time></trkpt><trkpt lat="45.0575898465351" lon="8.510948806587162"><ele>108.5</ele><time>2026-04-18T09:41:19Z</time></trkpt><trkpt lat="45.05772107254267" lon="8.510850542945493"><ele>109.25</ele><time>2026-04-18T09:41:20Z</time></trkpt><trkpt lat="45.057854653287045" lon="8.510749143892404"><ele>110.0</ele><time>2026-04-18T09:41:21Z</time></trkpt><trkpt lat="45.05798913862562" lon="8.51065118977776"><ele>110.0</ele><time>2026-04-18T09:41:22Z</time></trkpt><trkpt lat="45.05812357554742" lon="8.510553992966585"><ele>110.0</ele><time>2026-04-18T09:41:23Z</time></trkpt><trkpt lat="45.058259423562255" lon="8.510453109059876"><ele>110.0</ele><time>2026-04-18T09:41:24.001Z</time></trkpt><trkpt lat="45.05839396914067" lon="8.510350247380982"><ele>110.0</ele><time>2026-04-18T09:41:25.001Z</time></trkpt><trkpt lat="45.05852737451168" lon="8.510245146750508"><ele>110.0</ele><time>2026-04-18T09:41:26.001Z</time></trkpt><trkpt lat="45.05865122476059" lon="8.510147293241912"><ele>110.0</ele><time>2026-04-18T09:41:27.001Z</time></trkpt><trkpt lat="45.05876405824871" lon="8.510051386533275"><ele>110.0</ele><time>2026-04-18T09:41:28.001Z</time></trkpt><trkpt lat="45.05887109662951" lon="8.509948560672191"><ele>110.0</ele><time>2026-04-18T09:41:29.001Z</time></trkpt><trkpt lat="45.058963244412595" lon="8.50982720332988"><ele>110.0</ele><time>2026-04-18T09:41:30.001Z</time></trkpt><trkpt lat="45.05903611674782" lon="8.50969091480308"><ele>110.0</ele><time>2026-04-18T09:41:31.001Z</time></trkpt><trkpt lat="45.059099721273675" lon="8.509532810885911"><ele>110.0</ele><time>2026-04-18T09:41:32.001Z</time></trkpt><trkpt lat="45.059158865575" lon="8.509364928963574"><ele>110.25</ele><time>2026-04-18T09:41:33.001Z</time></trkpt><trkpt lat="45.05921622742738" lon="8.509196486514279"><ele>110.5</ele><time>2026-04-18T09:41:34.001Z</time></trkpt><trkpt lat="45.05927594275404" lon="8.509022804175993"><ele>110.75</ele><time>2026-04-18T09:41:35.001Z</time></trkpt><trkpt lat="45.05933361070773" lon="8.508844496060815"><ele>111.0</ele><time>2026-04-18T09:41:36.001Z</time></trkpt><trkpt lat="45.0593916850841" lon="8.508665823729508"><ele>111.0</ele><time>2026-04-18T09:41:37.001Z</time></trkpt><trkpt lat="45.059450202221825" lon="8.50848491576473"><ele>111.0</ele><time>2026-04-18T09:41:38.001Z</time></trkpt><trkpt lat="45.05950770443173" lon="8.508300419581563"><ele>111.0</ele><time>2026-04-18T09:41:39.001Z</time></trkpt><trkpt lat="45.059561431956645" lon="8.508129929322562"><ele>111.0</ele><time>2026-04-18T09:41:40.001Z</time></trkpt><trkpt lat="45.05960735342635" lon="8.507974542538072"><ele>111.25</ele><time>2026-04-18T09:41:41.001Z</time></trkpt><trkpt lat="45.05965669137243" lon="8.507824231734839"><ele>111.5</ele><time>2026-04-18T09:41:42.001Z</time></trkpt><trkpt lat="45.059701751908776" lon="8.507671005169753"><ele>111.75</ele><time>2026-04-18T09:41:43.001Z</time></trkpt><trkpt lat="45.059748858828925" lon="8.507514713672588"><ele>112.0</ele><time>2026-04-18T09:41:44.001Z</time></trkpt><trkpt lat="45.059799116779345" lon="8.507369625388918"><ele>112.0</ele><time>2026-04-18T09:41:45.001Z</time></trkpt><trkpt lat="45.05984901373093" lon="8.507209136811532"><ele>112.0</ele><time>2026-04-18T09:41:46.001Z</time></trkpt><trkpt lat="45.05989679662659" lon="8.507040403599014"><ele>112.0</ele><time>2026-04-18T09:41:47.001Z</time></trkpt><trkpt lat="45.05994637862536" lon="8.506867030612053"><ele>112.0</ele><time>2026-04-18T09:41:48.001Z</time></trkpt><trkpt lat="45.05999457966631" lon="8.506689262491204"><ele>112.75</ele><time>2026-04-18T09:41:49.001Z</time></trkpt><trkpt lat="45.060045039229855" lon="8.50651497070985"><ele>113.5</ele><time>2026-04-18T09:41:50.001Z</time></trkpt><trkpt lat="45.06010053574797" lon="8.506344882292856"><ele>114.25</ele><time>2026-04-18T09:41:51.001Z</time></trkpt><trkpt lat="45.06015636603394" lon="8.50616877566576"><ele>115.0</ele><time>2026-04-18T09:41:52.001Z</time></trkpt><trkpt lat="45.06021266139219" lon="8.505992990587233"><ele>115.0</ele><time>2026-04-18T09:41:53.001Z</time></trkpt><trkpt lat="45.06027363465118" lon="8.50582830757179"><ele>115.0</ele><time>2026-04-18T09:41:54.001Z</time></trkpt><trkpt lat="45.06031549197823" lon="8.50567708101719"><ele>115.0</ele><time>2026-04-18T09:41:55.001Z</time></trkpt><trkpt lat="45.06036285029545" lon="8.505524730394011"><ele>115.0</ele><time>2026-04-18T09:41:56.001Z</time></trkpt><trkpt lat="45.06041111827266" lon="8.505370353474063"><ele>115.0</ele><time>2026-04-18T09:41:57.001Z</time></trkpt><trkpt lat="45.06045290601043" lon="8.505212485797383"><ele>115.0</ele><time>2026-04-18T09:41:58.001Z</time></trkpt><trkpt lat="45.06049695843578" lon="8.50505890204781"><ele>115.0</ele><time>2026-04-18T09:41:59.001Z</time></trkpt><trkpt lat="45.06054320345976" lon="8.504919345834951"><ele>115.0</ele><time>2026-04-18T09:42:00.001Z</time></trkpt><trkpt lat="45.06057810437312" lon="8.50479223902908"><ele>115.0</ele><time>2026-04-18T09:42:01.001Z</time></trkpt><trkpt lat="45.06061491783371" lon="8.504680086351442"><ele>115.00000000000001</ele><time>2026-04-18T09:42:02.001Z</time></trkpt><trkpt lat="45.06065389566062" lon="8.504587842012796"><ele>115.0</ele><time>2026-04-18T09:42:03.001Z</time></trkpt><trkpt lat="45.06069343799163" lon="8.504515996508484"><ele>115.0</ele><time>2026-04-18T09:42:04.001Z</time></trkpt><trkpt lat="45.060736098898744" lon="8.504427759959874"><ele>115.0</ele><time>2026-04-18T09:42:06.001Z</time></trkpt><trkpt lat="45.06077209881628" lon="8.504352150434212"><ele>115.00000000000001</ele><time>2026-04-18T09:42:09.001Z</time></trkpt><trkpt lat="45.06069493745871" lon="8.504206559495286"><ele>115.0</ele><time>2026-04-18T09:42:11.001Z</time></trkpt><trkpt lat="45.06063319114882" lon="8.50416970085278"><ele>114.83333333333334</ele><time>2026-04-18T09:42:12.001Z</time></trkpt><trkpt lat="45.06056411414968" lon="8.504111866778052"><ele>114.66666666666667</ele><time>2026-04-18T09:42:13.001Z</time></trkpt><trkpt lat="45.06049178317412" lon="8.504053619830097"><ele>114.5</ele><time>2026-04-18T09:42:14.001Z</time></trkpt><trkpt lat="45.06042687343712" lon="8.504006183184698"><ele>114.33333333333334</ele><time>2026-04-18T09:42:15.001Z</time></trkpt><trkpt lat="45.06035377335491" lon="8.503960504616684"><ele>114.16666666666667</ele><time>2026-04-18T09:42:16.002Z</time></trkpt><trkpt lat="45.060273829496026" lon="8.503910635697629"><ele>114.0</ele><time>2026-04-18T09:42:17.002Z</time></trkpt><trkpt lat="45.0602010425035" lon="8.503863433506387"><ele>114.0</ele><time>2026-04-18T09:42:18.002Z</time></trkpt><trkpt lat="45.060080528435556" lon="8.503734300995859"><ele>114.0</ele><time>2026-04-18T09:42:19.002Z</time></trkpt><trkpt lat="45.05997502490522" lon="8.503647424229124"><ele>114.0</ele><time>2026-04-18T09:42:20.002Z</time></trkpt><trkpt lat="45.05988151908497" lon="8.503584195208235"><ele>114.0</ele><time>2026-04-18T09:42:21.002Z</time></trkpt><trkpt lat="45.05978620841969" lon="8.503518289506871"><ele>114.0</ele><time>2026-04-18T09:42:22.002Z</time></trkpt><trkpt lat="45.05968812661978" lon="8.503451783799537"><ele>114.0</ele><time>2026-04-18T09:42:23.002Z</time></trkpt><trkpt lat="45.05959006651759" lon="8.503388091511146"><ele>114.0</ele><time>2026-04-18T09:42:23.999Z</time></trkpt><trkpt lat="45.05949151895933" lon="8.503321182697324"><ele>114.0</ele><time>2026-04-18T09:42:24.999Z</time></trkpt><trkpt lat="45.059389207536164" lon="8.503263436410142"><ele>114.0</ele><time>2026-04-18T09:42:25.999Z</time></trkpt><trkpt lat="45.05929298668067" lon="8.50320045456478"><ele>114.0</ele><time>2026-04-18T09:42:26.999Z</time></trkpt><trkpt lat="45.05921905590197" lon="8.503147986275142"><ele>114.0</ele><time>2026-04-18T09:42:27.999Z</time></trkpt><trkpt lat="45.05914907797976" lon="8.503100378609266"><ele>114.0</ele><time>2026-04-18T09:42:28.999Z</time></trkpt><trkpt lat="45.05906639572426" lon="8.50304547260872"><ele>114.0</ele><time>2026-04-18T09:42:29.999Z</time></trkpt><trkpt lat="45.058981667352796" lon="8.502989934063237"><ele>114.0</ele><time>2026-04-18T09:42:30.999Z</time></trkpt><trkpt lat="45.05890341080123" lon="8.502934569434103"><ele>114.0</ele><time>2026-04-18T09:42:31.999Z</time></trkpt><trkpt lat="45.05884810593393" lon="8.502886872552912"><ele>114.16666666666667</ele><time>2026-04-18T09:42:32.999Z</time></trkpt><trkpt lat="45.05874766988248" lon="8.502863697657807"><ele>114.33333333333334</ele><time>2026-04-18T09:42:34.999Z</time></trkpt><trkpt lat="45.05869121322013" lon="8.502934737077512"><ele>114.5</ele><time>2026-04-18T09:42:35.999Z</time></trkpt><trkpt lat="45.05866497496567" lon="8.503048839104489"><ele>114.66666666666667</ele><time>2026-04-18T09:42:36.999Z</time></trkpt><trkpt lat="45.05862794526778" lon="8.503145362193068"><ele>114.83333333333334</ele><time>2026-04-18T09:42:37.999Z</time></trkpt><trkpt lat="45.05859436240731" lon="8.503273247028352"><ele>115.0</ele><time>2026-04-18T09:42:38.999Z</time></trkpt><trkpt lat="45.05856237390401" lon="8.50340728913121"><ele>114.6</ele><time>2026-04-18T09:42:39.999Z</time></trkpt><trkpt lat="45.058522265522875" lon="8.50354207628493"><ele>114.2</ele><time>2026-04-18T09:42:40.999Z</time></trkpt><trkpt lat="45.05848430699404" lon="8.50368744246343"><ele>113.80000000000001</ele><time>2026-04-18T09:42:41.999Z</time></trkpt><trkpt lat="45.05845012254964" lon="8.503799861588393"><ele>113.4</ele><time>2026-04-18T09:42:42.999Z</time></trkpt><trkpt lat="45.05841151953402" lon="8.503890196091385"><ele>113.0</ele><time>2026-04-18T09:42:43.999Z</time></trkpt><trkpt lat="45.05836227268003" lon="8.504021818039636"><ele>113.2</ele><time>2026-04-18T09:42:45.999Z</time></trkpt><trkpt lat="45.0582589037397" lon="8.5039413187526"><ele>113.4</ele><time>2026-04-18T09:42:47.999Z</time></trkpt><trkpt lat="45.05819608343994" lon="8.503890595355664"><ele>113.60000000000001</ele><time>2026-04-18T09:42:48.999Z</time></trkpt><trkpt lat="45.05813728740824" lon="8.503801503592497"><ele>113.80000000000001</ele><time>2026-04-18T09:42:50Z</time></trkpt><trkpt lat="45.05806925779625" lon="8.503711625929164"><ele>114.0</ele><time>2026-04-18T09:42:51Z</time></trkpt><trkpt lat="45.05799123315593" lon="8.503610703539522"><ele>113.6</ele><time>2026-04-18T09:42:52Z</time></trkpt><trkpt lat="45.057912424556335" lon="8.503501243721004"><ele>113.2</ele><time>2026-04-18T09:42:53Z</time></trkpt><trkpt lat="45.057850364555065" lon="8.5034073438686"><ele>112.79999999999998</ele><time>2026-04-18T09:42:54Z</time></trkpt><trkpt lat="45.05780203017259" lon="8.503326101352084"><ele>112.39999999999999</ele><time>2026-04-18T09:42:55Z</time></trkpt><trkpt lat="45.05775804514853" lon="8.503245480608436"><ele>112.0</ele><time>2026-04-18T09:42:56Z</time></trkpt><trkpt lat="45.05767862214243" lon="8.503118715413638"><ele>112.0</ele><time>2026-04-18T09:42:58Z</time></trkpt><trkpt lat="45.05758260093245" lon="8.50313425068975"><ele>111.99999999999999</ele><time>2026-04-18T09:42:59Z</time></trkpt><trkpt lat="45.057493268377804" lon="8.50314905342135"><ele>111.99999999999999</ele><time>2026-04-18T09:43:00Z</time></trkpt><trkpt lat="45.05739766088196" lon="8.503152116179338"><ele>112.0</ele><time>2026-04-18T09:43:01Z</time></trkpt><trkpt lat="45.05728677106973" lon="8.503144926627346"><ele>112.0</ele><time>2026-04-18T09:43:02Z</time></trkpt><trkpt lat="45.057177319548636" lon="8.503125440620838"><ele>112.25</ele><time>2026-04-18T09:43:03Z</time></trkpt><trkpt lat="45.057066199645256" lon="8.503122500831473"><ele>112.5</ele><time>2026-04-18T09:43:04Z</time></trkpt><trkpt lat="45.0569551872197" lon="8.503118150335128"><ele>112.75</ele><time>2026-04-18T09:43:05Z</time></trkpt><trkpt lat="45.05684144855959" lon="8.503111693781127"><ele>113.0</ele><time>2026-04-18T09:43:06Z</time></trkpt><trkpt lat="45.05672659173543" lon="8.503097856945368"><ele>112.60000000000001</ele><time>2026-04-18T09:43:07Z</time></trkpt><trkpt lat="45.05661922276691" lon="8.503082770965696"><ele>112.20000000000002</ele><time>2026-04-18T09:43:08Z</time></trkpt><trkpt lat="45.05652310546093" lon="8.50307402310611"><ele>111.8</ele><time>2026-04-18T09:43:09Z</time></trkpt><trkpt lat="45.05643942958893" lon="8.50306299597084"><ele>111.4</ele><time>2026-04-18T09:43:10Z</time></trkpt><trkpt lat="45.056372487761685" lon="8.503049319175295"><ele>111.0</ele><time>2026-04-18T09:43:11Z</time></trkpt><trkpt lat="45.05626789344103" lon="8.503012843197913"><ele>111.0</ele><time>2026-04-18T09:43:13Z</time></trkpt><trkpt lat="45.056176016562546" lon="8.502974998826694"><ele>111.0</ele><time>2026-04-18T09:43:15Z</time></trkpt><trkpt lat="45.05610770402086" lon="8.502943755158823"><ele>111.0</ele><time>2026-04-18T09:43:17Z</time></trkpt><trkpt lat="45.0560403660479" lon="8.502927552842337"><ele>111.0</ele><time>2026-04-18T09:43:59.001Z</time></trkpt><trkpt lat="45.05594574720588" lon="8.502897402432003"><ele>111.0</ele><time>2026-04-18T09:44:01.001Z</time></trkpt><trkpt lat="45.055817725468415" lon="8.502848997206554"><ele>111.0</ele><time>2026-04-18T09:44:03.001Z</time></trkpt><trkpt lat="45.05574476593687" lon="8.50282386540643"><ele>111.0</ele><time>2026-04-18T09:44:04.002Z</time></trkpt><trkpt lat="45.05567672144103" lon="8.502799026496135"><ele>111.0</ele><time>2026-04-18T09:44:05.002Z</time></trkpt><trkpt lat="45.05560826494044" lon="8.502772535566743"><ele>111.0</ele><time>2026-04-18T09:44:06.002Z</time></trkpt><trkpt lat="45.05553926229302" lon="8.50274817922992"><ele>111.0</ele><time>2026-04-18T09:44:07.002Z</time></trkpt><trkpt lat="45.05539344925832" lon="8.502694875573466"><ele>111.0</ele><time>2026-04-18T09:44:09.002Z</time></trkpt><trkpt lat="45.05531840842832" lon="8.502666473349016"><ele>111.0</ele><time>2026-04-18T09:44:10.002Z</time></trkpt><trkpt lat="45.05523879078891" lon="8.502638957951488"><ele>111.0</ele><time>2026-04-18T09:44:11.002Z</time></trkpt><trkpt lat="45.0551578709771" lon="8.502606320990033"><ele>111.0</ele><time>2026-04-18T09:44:12.002Z</time></trkpt><trkpt lat="45.055076408386164" lon="8.502576257591008"><ele>111.0</ele><time>2026-04-18T09:44:13.002Z</time></trkpt><trkpt lat="45.05499448062883" lon="8.502548207289863"><ele>111.0</ele><time>2026-04-18T09:44:14.002Z</time></trkpt><trkpt lat="45.054909405468734" lon="8.50251608150258"><ele>111.0</ele><time>2026-04-18T09:44:15.002Z</time></trkpt><trkpt lat="45.05481812782341" lon="8.502484466797872"><ele>111.0</ele><time>2026-04-18T09:44:16.002Z</time></trkpt><trkpt lat="45.05472674200079" lon="8.502452894152444"><ele>111.0</ele><time>2026-04-18T09:44:17.002Z</time></trkpt><trkpt lat="45.0546335139625" lon="8.502415179756277"><ele>111.0</ele><time>2026-04-18T09:44:18.002Z</time></trkpt><trkpt lat="45.05453564562169" lon="8.502380554735309"><ele>111.0</ele><time>2026-04-18T09:44:19.002Z</time></trkpt><trkpt lat="45.05443934416814" lon="8.502349748336194"><ele>111.0</ele><time>2026-04-18T09:44:20.002Z</time></trkpt><trkpt lat="45.05434306443406" lon="8.502316179303875"><ele>111.0</ele><time>2026-04-18T09:44:21.002Z</time></trkpt><trkpt lat="45.054241804598" lon="8.502279018678218"><ele>111.0</ele><time>2026-04-18T09:44:22.002Z</time></trkpt><trkpt lat="45.05413773274616" lon="8.50224024075868"><ele>111.0</ele><time>2026-04-18T09:44:23.002Z</time></trkpt><trkpt lat="45.0540352066555" lon="8.502202366844008"><ele>111.0</ele><time>2026-04-18T09:44:24.002Z</time></trkpt><trkpt lat="45.053931070196064" lon="8.502173002169322"><ele>111.0</ele><time>2026-04-18T09:44:25.002Z</time></trkpt><trkpt lat="45.05382568109684" lon="8.502133377570336"><ele>111.0</ele><time>2026-04-18T09:44:26.002Z</time></trkpt><trkpt lat="45.053716206785566" lon="8.502090289623636"><ele>111.0</ele><time>2026-04-18T09:44:27.002Z</time></trkpt><trkpt lat="45.05360509577902" lon="8.502051396325465"><ele>111.0</ele><time>2026-04-18T09:44:28.002Z</time></trkpt><trkpt lat="45.05349464446226" lon="8.502011996241723"><ele>111.0</ele><time>2026-04-18T09:44:29.002Z</time></trkpt><trkpt lat="45.05337902968931" lon="8.501966069379531"><ele>111.25</ele><time>2026-04-18T09:44:29.999Z</time></trkpt><trkpt lat="45.05326348082438" lon="8.501921182772499"><ele>111.5</ele><time>2026-04-18T09:44:30.999Z</time></trkpt><trkpt lat="45.05315292885149" lon="8.501878758687239"><ele>111.75</ele><time>2026-04-18T09:44:31.999Z</time></trkpt><trkpt lat="45.05304293642261" lon="8.50184293319675"><ele>112.0</ele><time>2026-04-18T09:44:32.999Z</time></trkpt><trkpt lat="45.05293247211313" lon="8.501800987924723"><ele>112.0</ele><time>2026-04-18T09:44:33.999Z</time></trkpt><trkpt lat="45.052827471708326" lon="8.501765334172038"><ele>112.0</ele><time>2026-04-18T09:44:34.999Z</time></trkpt><trkpt lat="45.052715380659926" lon="8.501724842098428"><ele>112.0</ele><time>2026-04-18T09:44:35.999Z</time></trkpt><trkpt lat="45.0526065671911" lon="8.501678840441725"><ele>112.0</ele><time>2026-04-18T09:44:36.999Z</time></trkpt><trkpt lat="45.05249561942105" lon="8.501631192899625"><ele>112.0</ele><time>2026-04-18T09:44:37.999Z</time></trkpt><trkpt lat="45.05238561097158" lon="8.501584805649646"><ele>112.0</ele><time>2026-04-18T09:44:38.999Z</time></trkpt><trkpt lat="45.05227080360352" lon="8.501541093965908"><ele>112.0</ele><time>2026-04-18T09:44:39.999Z</time></trkpt><trkpt lat="45.05215676266984" lon="8.501493228304154"><ele>112.0</ele><time>2026-04-18T09:44:40.999Z</time></trkpt><trkpt lat="45.05204453321906" lon="8.501446369854886"><ele>112.0</ele><time>2026-04-18T09:44:41.999Z</time></trkpt><trkpt lat="45.051925329490196" lon="8.501394426195978"><ele>112.0</ele><time>2026-04-18T09:44:42.999Z</time></trkpt><trkpt lat="45.05180672978117" lon="8.501341944540998"><ele>112.0</ele><time>2026-04-18T09:44:43.999Z</time></trkpt><trkpt lat="45.05168645189722" lon="8.5012889593663"><ele>112.0</ele><time>2026-04-18T09:44:44.999Z</time></trkpt><trkpt lat="45.05157105594873" lon="8.501243271961142"><ele>112.0</ele><time>2026-04-18T09:44:45.999Z</time></trkpt><trkpt lat="45.05145954050428" lon="8.501196448617414"><ele>112.0</ele><time>2026-04-18T09:44:46.999Z</time></trkpt><trkpt lat="45.05134719433208" lon="8.501144412842406"><ele>112.0</ele><time>2026-04-18T09:44:47.999Z</time></trkpt><trkpt lat="45.05123636224145" lon="8.501096709742583"><ele>112.0</ele><time>2026-04-18T09:44:49Z</time></trkpt><trkpt lat="45.05112923593373" lon="8.50104931290968"><ele>112.0</ele><time>2026-04-18T09:44:50Z</time></trkpt><trkpt lat="45.051027431360076" lon="8.5010065809592"><ele>111.99999999999999</ele><time>2026-04-18T09:44:51Z</time></trkpt><trkpt lat="45.05092082301493" lon="8.500965340860663"><ele>111.99999999999999</ele><time>2026-04-18T09:44:52Z</time></trkpt><trkpt lat="45.05081649915844" lon="8.50092288762349"><ele>112.0</ele><time>2026-04-18T09:44:53Z</time></trkpt><trkpt lat="45.05071203782716" lon="8.500890485330123"><ele>112.0</ele><time>2026-04-18T09:44:54Z</time></trkpt><trkpt lat="45.05060720465602" lon="8.500857298710564"><ele>112.0</ele><time>2026-04-18T09:44:55Z</time></trkpt><trkpt lat="45.050498355127466" lon="8.500874152078632"><ele>111.99999999999999</ele><time>2026-04-18T09:44:56Z</time></trkpt><trkpt lat="45.05039118453617" lon="8.50090174468141"><ele>111.99999999999999</ele><time>2026-04-18T09:44:57Z</time></trkpt><trkpt lat="45.05028614785094" lon="8.500946245256738"><ele>112.0</ele><time>2026-04-18T09:44:58Z</time></trkpt><trkpt lat="45.050174955421994" lon="8.500989081311976"><ele>112.0</ele><time>2026-04-18T09:44:59Z</time></trkpt><trkpt lat="45.050060170829184" lon="8.501032314912557"><ele>112.0</ele><time>2026-04-18T09:45:00Z</time></trkpt><trkpt lat="45.049947425537866" lon="8.501082145111932"><ele>112.0</ele><time>2026-04-18T09:45:01Z</time></trkpt><trkpt lat="45.04983129606467" lon="8.501125142014905"><ele>112.0</ele><time>2026-04-18T09:45:02Z</time></trkpt><trkpt lat="45.04971114526651" lon="8.50116860379172"><ele>112.0</ele><time>2026-04-18T09:45:03Z</time></trkpt><trkpt lat="45.04959148969362" lon="8.501217333677035"><ele>112.19999999999999</ele><time>2026-04-18T09:45:04Z</time></trkpt><trkpt lat="45.04947870144025" lon="8.501257239226153"><ele>112.39999999999999</ele><time>2026-04-18T09:45:05Z</time></trkpt><trkpt lat="45.049375645449274" lon="8.501306330142539"><ele>112.60000000000001</ele><time>2026-04-18T09:45:06Z</time></trkpt><trkpt lat="45.049279402833974" lon="8.50136254010472"><ele>112.80000000000001</ele><time>2026-04-18T09:45:07Z</time></trkpt><trkpt lat="45.049181834594144" lon="8.501428424660924"><ele>113.0</ele><time>2026-04-18T09:45:08Z</time></trkpt><trkpt lat="45.04909059401255" lon="8.501500833157166"><ele>114.80000000000001</ele><time>2026-04-18T09:45:09Z</time></trkpt><trkpt lat="45.04900417081767" lon="8.501581810828256"><ele>116.60000000000001</ele><time>2026-04-18T09:45:10Z</time></trkpt><trkpt lat="45.048909726493875" lon="8.501647461912569"><ele>118.39999999999999</ele><time>2026-04-18T09:45:11Z</time></trkpt><trkpt lat="45.048803257014946" lon="8.501680025570439"><ele>120.19999999999999</ele><time>2026-04-18T09:45:12Z</time></trkpt><trkpt lat="45.048697151483395" lon="8.5017078044455"><ele>122.0</ele><time>2026-04-18T09:45:13Z</time></trkpt><trkpt lat="45.04858682768836" lon="8.501733584894993"><ele>122.0</ele><time>2026-04-18T09:45:14Z</time></trkpt><trkpt lat="45.048476788709934" lon="8.501758809791196"><ele>122.0</ele><time>2026-04-18T09:45:15Z</time></trkpt><trkpt lat="45.048364239566965" lon="8.501792652058086"><ele>122.0</ele><time>2026-04-18T09:45:16Z</time></trkpt><trkpt lat="45.04824854730652" lon="8.50184031648094"><ele>122.0</ele><time>2026-04-18T09:45:17Z</time></trkpt><trkpt lat="45.0481295749304" lon="8.501873017770157"><ele>122.8</ele><time>2026-04-18T09:45:18Z</time></trkpt><trkpt lat="45.04802285627449" lon="8.501902105918134"><ele>123.6</ele><time>2026-04-18T09:45:19.001Z</time></trkpt><trkpt lat="45.04792563787098" lon="8.501926071356085"><ele>124.39999999999999</ele><time>2026-04-18T09:45:20.001Z</time></trkpt><trkpt lat="45.047837907253665" lon="8.501919376747322"><ele>125.19999999999999</ele><time>2026-04-18T09:45:21.001Z</time></trkpt><trkpt lat="45.04776326759335" lon="8.501895563986785"><ele>126.0</ele><time>2026-04-18T09:45:22.001Z</time></trkpt><trkpt lat="45.04768424366216" lon="8.501771074780423"><ele>126.0</ele><time>2026-04-18T09:45:24.001Z</time></trkpt><trkpt lat="45.04762283658092" lon="8.501689481008881"><ele>126.0</ele><time>2026-04-18T09:45:25.001Z</time></trkpt><trkpt lat="45.04758051002103" lon="8.50157424583886"><ele>126.0</ele><time>2026-04-18T09:45:26.001Z</time></trkpt><trkpt lat="45.04752327687568" lon="8.501459918878556"><ele>126.0</ele><time>2026-04-18T09:45:27.001Z</time></trkpt><trkpt lat="45.04747716876515" lon="8.501345962491328"><ele>126.0</ele><time>2026-04-18T09:45:28.001Z</time></trkpt><trkpt lat="45.04740799993425" lon="8.501232232618218"><ele>125.75</ele><time>2026-04-18T09:45:29.001Z</time></trkpt><trkpt lat="45.047326210225044" lon="8.501107986612526"><ele>125.5</ele><time>2026-04-18T09:45:30.001Z</time></trkpt><trkpt lat="45.04724968642643" lon="8.50097754347954"><ele>125.25</ele><time>2026-04-18T09:45:31.001Z</time></trkpt><trkpt lat="45.04717925012689" lon="8.500835670011023"><ele>125.0</ele><time>2026-04-18T09:45:32.001Z</time></trkpt><trkpt lat="45.04709476465027" lon="8.50071636553221"><ele>125.0</ele><time>2026-04-18T09:45:33.001Z</time></trkpt><trkpt lat="45.047026716855825" lon="8.500582491011865"><ele>125.0</ele><time>2026-04-18T09:45:34.001Z</time></trkpt><trkpt lat="45.04697619407369" lon="8.500450890094884"><ele>125.0</ele><time>2026-04-18T09:45:35.001Z</time></trkpt><trkpt lat="45.04692692446633" lon="8.500320559475245"><ele>125.0</ele><time>2026-04-18T09:45:36.001Z</time></trkpt><trkpt lat="45.04686711450227" lon="8.500214694116607"><ele>125.0</ele><time>2026-04-18T09:45:37.001Z</time></trkpt><trkpt lat="45.04679394881563" lon="8.500108788459816"><ele>125.0</ele><time>2026-04-18T09:45:38.001Z</time></trkpt><trkpt lat="45.04671021018161" lon="8.500013196038383"><ele>125.0</ele><time>2026-04-18T09:45:39.001Z</time></trkpt><trkpt lat="45.04662217150505" lon="8.499921650370974"><ele>125.0</ele><time>2026-04-18T09:45:40.001Z</time></trkpt><trkpt lat="45.046536194827056" lon="8.499823445408579"><ele>125.0</ele><time>2026-04-18T09:45:41.001Z</time></trkpt><trkpt lat="45.04644697448766" lon="8.499721865611923"><ele>125.0</ele><time>2026-04-18T09:45:42.001Z</time></trkpt><trkpt lat="45.046357931652196" lon="8.499617957537499"><ele>125.75</ele><time>2026-04-18T09:45:43.001Z</time></trkpt><trkpt lat="45.046269153539185" lon="8.499512643998397"><ele>126.5</ele><time>2026-04-18T09:45:44.001Z</time></trkpt><trkpt lat="45.046178862825414" lon="8.499405682505358"><ele>127.25</ele><time>2026-04-18T09:45:45.001Z</time></trkpt><trkpt lat="45.046088658797466" lon="8.499299559898988"><ele>128.0</ele><time>2026-04-18T09:45:46.001Z</time></trkpt><trkpt lat="45.045995289073716" lon="8.499197234913167"><ele>128.0</ele><time>2026-04-18T09:45:47.001Z</time></trkpt><trkpt lat="45.04590091482054" lon="8.499102144285324"><ele>128.0</ele><time>2026-04-18T09:45:48.001Z</time></trkpt><trkpt lat="45.045805330521084" lon="8.499008551191695"><ele>128.0</ele><time>2026-04-18T09:45:49.001Z</time></trkpt><trkpt lat="45.04570732879423" lon="8.498923204840347"><ele>128.0</ele><time>2026-04-18T09:45:50.001Z</time></trkpt><trkpt lat="45.045605140829224" lon="8.498844944566962"><ele>127.75</ele><time>2026-04-18T09:45:51.001Z</time></trkpt><trkpt lat="45.04550282719681" lon="8.498771473826602"><ele>127.5</ele><time>2026-04-18T09:45:52.001Z</time></trkpt><trkpt lat="45.04539579527397" lon="8.498712690584641"><ele>127.25</ele><time>2026-04-18T09:45:53.001Z</time></trkpt><trkpt lat="45.0452870845026" lon="8.498658960729088"><ele>127.0</ele><time>2026-04-18T09:45:54.001Z</time></trkpt><trkpt lat="45.045177638847804" lon="8.498607056938267"><ele>127.5</ele><time>2026-04-18T09:45:55.001Z</time></trkpt><trkpt lat="45.045065072769525" lon="8.498554030582904"><ele>128.0</ele><time>2026-04-18T09:45:56.002Z</time></trkpt><trkpt lat="45.04495567884418" lon="8.498502341298758"><ele>128.5</ele><time>2026-04-18T09:45:57.002Z</time></trkpt><trkpt lat="45.04484721847007" lon="8.498457434105882"><ele>129.0</ele><time>2026-04-18T09:45:58.002Z</time></trkpt><trkpt lat="45.04473898633071" lon="8.498417048199666"><ele>129.0</ele><time>2026-04-18T09:45:59.002Z</time></trkpt><trkpt lat="45.044634292342735" lon="8.49837552692383"><ele>129.0</ele><time>2026-04-18T09:46:00.002Z</time></trkpt><trkpt lat="45.04453171604136" lon="8.49833182423947"><ele>129.0</ele><time>2026-04-18T09:46:01.002Z</time></trkpt><trkpt lat="45.044428126418694" lon="8.498300448926019"><ele>129.0</ele><time>2026-04-18T09:46:02.002Z</time></trkpt><trkpt lat="45.04432050604707" lon="8.49825926882886"><ele>129.0</ele><time>2026-04-18T09:46:03.002Z</time></trkpt><trkpt lat="45.04421875375059" lon="8.49822111614625"><ele>129.0</ele><time>2026-04-18T09:46:04.002Z</time></trkpt><trkpt lat="45.04411280492734" lon="8.498180496039492"><ele>129.0</ele><time>2026-04-18T09:46:05.002Z</time></trkpt><trkpt lat="45.044000760281264" lon="8.498141615566345"><ele>129.0</ele><time>2026-04-18T09:46:06.002Z</time></trkpt><trkpt lat="45.04389239777709" lon="8.498087323256975"><ele>129.0</ele><time>2026-04-18T09:46:07.002Z</time></trkpt><trkpt lat="45.043785990008814" lon="8.49804258454483"><ele>129.0</ele><time>2026-04-18T09:46:08.002Z</time></trkpt><trkpt lat="45.04368323501991" lon="8.497994491904125"><ele>129.0</ele><time>2026-04-18T09:46:09.002Z</time></trkpt><trkpt lat="45.04359829074894" lon="8.497958516293583"><ele>129.0</ele><time>2026-04-18T09:46:10.002Z</time></trkpt><trkpt lat="45.04353067060572" lon="8.497904614867961"><ele>129.0</ele><time>2026-04-18T09:46:11.002Z</time></trkpt><trkpt lat="45.043469620499295" lon="8.497828457461644"><ele>129.0</ele><time>2026-04-18T09:46:12.002Z</time></trkpt><trkpt lat="45.043448179901034" lon="8.497719107788939"><ele>129.0</ele><time>2026-04-18T09:46:13.002Z</time></trkpt><trkpt lat="45.0434427186816" lon="8.497605562690026"><ele>129.33333333333334</ele><time>2026-04-18T09:46:14.002Z</time></trkpt><trkpt lat="45.04339850660524" lon="8.497521849144203"><ele>129.66666666666666</ele><time>2026-04-18T09:46:15.002Z</time></trkpt><trkpt lat="45.043328879901104" lon="8.49740958200665"><ele>130.0</ele><time>2026-04-18T09:46:17.002Z</time></trkpt><trkpt lat="45.04325369736701" lon="8.497422917245293"><ele>130.33333333333331</ele><time>2026-04-18T09:46:18.002Z</time></trkpt><trkpt lat="45.04317907246124" lon="8.497429405064326"><ele>130.66666666666666</ele><time>2026-04-18T09:46:19.002Z</time></trkpt><trkpt lat="45.04310316215164" lon="8.497432829554317"><ele>131.0</ele><time>2026-04-18T09:46:20.002Z</time></trkpt><trkpt lat="45.043020519173055" lon="8.497431155451828"><ele>131.0</ele><time>2026-04-18T09:46:21.002Z</time></trkpt><trkpt lat="45.04293435703265" lon="8.49743406002954"><ele>131.0</ele><time>2026-04-18T09:46:22.002Z</time></trkpt><trkpt lat="45.04285153642377" lon="8.497432498988907"><ele>131.0</ele><time>2026-04-18T09:46:23.002Z</time></trkpt><trkpt lat="45.042762378552226" lon="8.497421224941824"><ele>131.0</ele><time>2026-04-18T09:46:24.002Z</time></trkpt><trkpt lat="45.0426714827648" lon="8.497396845091302"><ele>131.0</ele><time>2026-04-18T09:46:25.002Z</time></trkpt><trkpt lat="45.042579565227584" lon="8.497365341321924"><ele>131.0</ele><time>2026-04-18T09:46:26.002Z</time></trkpt><trkpt lat="45.042483732507925" lon="8.49733992963325"><ele>130.8</ele><time>2026-04-18T09:46:27.002Z</time></trkpt><trkpt lat="45.04238918248511" lon="8.497309027021151"><ele>130.6</ele><time>2026-04-18T09:46:28.002Z</time></trkpt><trkpt lat="45.04229032324677" lon="8.497291946353783"><ele>130.4</ele><time>2026-04-18T09:46:29.002Z</time></trkpt><trkpt lat="45.04218328255385" lon="8.49727345885831"><ele>130.2</ele><time>2026-04-18T09:46:30.002Z</time></trkpt><trkpt lat="45.042085726708144" lon="8.497263344226083"><ele>130.0</ele><time>2026-04-18T09:46:31.002Z</time></trkpt><trkpt lat="45.04198720097974" lon="8.497256654607662"><ele>130.0</ele><time>2026-04-18T09:46:32.002Z</time></trkpt><trkpt lat="45.04188813541441" lon="8.49724870179386"><ele>130.0</ele><time>2026-04-18T09:46:33.002Z</time></trkpt><trkpt lat="45.04178378940635" lon="8.497243423956114"><ele>130.0</ele><time>2026-04-18T09:46:34.002Z</time></trkpt><trkpt lat="45.0416787171524" lon="8.497239052659435"><ele>130.0</ele><time>2026-04-18T09:46:35.002Z</time></trkpt><trkpt lat="45.04157223168513" lon="8.497237050814164"><ele>130.0</ele><time>2026-04-18T09:46:36Z</time></trkpt><trkpt lat="45.041463883909614" lon="8.497230539735847"><ele>130.4</ele><time>2026-04-18T09:46:37Z</time></trkpt><trkpt lat="45.041354488271594" lon="8.497234215207007"><ele>130.8</ele><time>2026-04-18T09:46:38Z</time></trkpt><trkpt lat="45.0412565190197" lon="8.497231216080603"><ele>131.2</ele><time>2026-04-18T09:46:39Z</time></trkpt><trkpt lat="45.04115675367977" lon="8.497232736114281"><ele>131.6</ele><time>2026-04-18T09:46:40Z</time></trkpt><trkpt lat="45.041049606990114" lon="8.497240223601423"><ele>132.0</ele><time>2026-04-18T09:46:41Z</time></trkpt><trkpt lat="45.04093784839254" lon="8.49724757466051"><ele>132.0</ele><time>2026-04-18T09:46:42Z</time></trkpt><trkpt lat="45.040822791176225" lon="8.497243884097735"><ele>132.0</ele><time>2026-04-18T09:46:43Z</time></trkpt><trkpt lat="45.04071764829773" lon="8.497241788722151"><ele>132.0</ele><time>2026-04-18T09:46:44Z</time></trkpt><trkpt lat="45.040608395620986" lon="8.497250626923071"><ele>132.0</ele><time>2026-04-18T09:46:45Z</time></trkpt><trkpt lat="45.04050962133597" lon="8.497271436950143"><ele>132.0</ele><time>2026-04-18T09:46:46Z</time></trkpt><trkpt lat="45.04041557061814" lon="8.497306097550284"><ele>132.2</ele><time>2026-04-18T09:46:47Z</time></trkpt><trkpt lat="45.040337754251276" lon="8.497335972828441"><ele>132.39999999999998</ele><time>2026-04-18T09:46:48Z</time></trkpt><trkpt lat="45.040247801695315" lon="8.497368627385026"><ele>132.60000000000002</ele><time>2026-04-18T09:46:49Z</time></trkpt><trkpt lat="45.04014627269383" lon="8.497400077335923"><ele>132.8</ele><time>2026-04-18T09:46:50Z</time></trkpt><trkpt lat="45.040047619185486" lon="8.497419735453454"><ele>133.0</ele><time>2026-04-18T09:46:51Z</time></trkpt><trkpt lat="45.03993921989245" lon="8.497442473978023"><ele>133.0</ele><time>2026-04-18T09:46:52Z</time></trkpt><trkpt lat="45.03983535552627" lon="8.497468635145152"><ele>133.0</ele><time>2026-04-18T09:46:53Z</time></trkpt><trkpt lat="45.03973676481613" lon="8.4974563461505"><ele>133.0</ele><time>2026-04-18T09:46:54Z</time></trkpt><trkpt lat="45.0396258831259" lon="8.497481294191738"><ele>133.0</ele><time>2026-04-18T09:46:55Z</time></trkpt><trkpt lat="45.0395470356396" lon="8.497486351726655"><ele>133.0</ele><time>2026-04-18T09:46:56Z</time></trkpt><trkpt lat="45.03947698467828" lon="8.497487899548664"><ele>133.0</ele><time>2026-04-18T09:46:57Z</time></trkpt><trkpt lat="45.039393579499716" lon="8.49749940084416"><ele>133.0</ele><time>2026-04-18T09:46:58Z</time></trkpt><trkpt lat="45.03928817314583" lon="8.49751670772792"><ele>133.0</ele><time>2026-04-18T09:46:59Z</time></trkpt><trkpt lat="45.03919133874751" lon="8.49753544475384"><ele>133.0</ele><time>2026-04-18T09:47:00Z</time></trkpt><trkpt lat="45.039094677165224" lon="8.49754265856055"><ele>133.0</ele><time>2026-04-18T09:47:01Z</time></trkpt><trkpt lat="45.039002128967006" lon="8.49755203584055"><ele>132.8</ele><time>2026-04-18T09:47:02Z</time></trkpt><trkpt lat="45.03889762404008" lon="8.497560537132753"><ele>132.60000000000002</ele><time>2026-04-18T09:47:03Z</time></trkpt><trkpt lat="45.03878983475554" lon="8.497573181342089"><ele>132.39999999999998</ele><time>2026-04-18T09:47:04Z</time></trkpt><trkpt lat="45.03869819154678" lon="8.497586287311888"><ele>132.2</ele><time>2026-04-18T09:47:05Z</time></trkpt><trkpt lat="45.038609235462744" lon="8.497610157657942"><ele>132.0</ele><time>2026-04-18T09:47:06Z</time></trkpt><trkpt lat="45.038511754743276" lon="8.497628854730548"><ele>132.0</ele><time>2026-04-18T09:47:07Z</time></trkpt><trkpt lat="45.03844241375146" lon="8.497622096275355"><ele>132.0</ele><time>2026-04-18T09:47:08Z</time></trkpt><trkpt lat="45.0383281825978" lon="8.497616195386563"><ele>132.0</ele><time>2026-04-18T09:47:09Z</time></trkpt><trkpt lat="45.03822034646321" lon="8.497597374957772"><ele>132.0</ele><time>2026-04-18T09:47:10Z</time></trkpt><trkpt lat="45.03810443111757" lon="8.497581514840352"><ele>132.0</ele><time>2026-04-18T09:47:11Z</time></trkpt><trkpt lat="45.03798125099401" lon="8.497568569736263"><ele>131.75</ele><time>2026-04-18T09:47:12Z</time></trkpt><trkpt lat="45.03785220735383" lon="8.497546197356206"><ele>131.5</ele><time>2026-04-18T09:47:13Z</time></trkpt><trkpt lat="45.037743311010175" lon="8.497532470973386"><ele>131.25</ele><time>2026-04-18T09:47:14.001Z</time></trkpt><trkpt lat="45.03763350074298" lon="8.497516503039552"><ele>131.0</ele><time>2026-04-18T09:47:15.001Z</time></trkpt><trkpt lat="45.03751813157357" lon="8.497498456845253"><ele>130.75</ele><time>2026-04-18T09:47:16.001Z</time></trkpt><trkpt lat="45.037403577935265" lon="8.497481828402657"><ele>130.5</ele><time>2026-04-18T09:47:17.001Z</time></trkpt><trkpt lat="45.03728424476854" lon="8.497463686365053"><ele>130.25</ele><time>2026-04-18T09:47:18.001Z</time></trkpt><trkpt lat="45.03716936133615" lon="8.497446355413215"><ele>130.0</ele><time>2026-04-18T09:47:19.001Z</time></trkpt><trkpt lat="45.037057111216036" lon="8.497426336149285"><ele>130.0</ele><time>2026-04-18T09:47:20.001Z</time></trkpt><trkpt lat="45.03694193739959" lon="8.497411683344719"><ele>130.0</ele><time>2026-04-18T09:47:21.001Z</time></trkpt><trkpt lat="45.03682117120427" lon="8.497396209761678"><ele>130.0</ele><time>2026-04-18T09:47:22.001Z</time></trkpt><trkpt lat="45.03670222405889" lon="8.497379290961987"><ele>130.0</ele><time>2026-04-18T09:47:23.001Z</time></trkpt><trkpt lat="45.03658162966957" lon="8.497367020548115"><ele>130.25</ele><time>2026-04-18T09:47:24.001Z</time></trkpt><trkpt lat="45.03646474893117" lon="8.497341191387994"><ele>130.5</ele><time>2026-04-18T09:47:25.001Z</time></trkpt><trkpt lat="45.03634761500497" lon="8.497339635722355"><ele>130.75</ele><time>2026-04-18T09:47:26.001Z</time></trkpt><trkpt lat="45.03623401101228" lon="8.497315219810007"><ele>131.0</ele><time>2026-04-18T09:47:27.001Z</time></trkpt><trkpt lat="45.0361249826548" lon="8.497295765557771"><ele>131.0</ele><time>2026-04-18T09:47:28.001Z</time></trkpt><trkpt lat="45.0360140567377" lon="8.497272030030008"><ele>131.0</ele><time>2026-04-18T09:47:29.001Z</time></trkpt><trkpt lat="45.03589931124665" lon="8.497245628294989"><ele>131.0</ele><time>2026-04-18T09:47:30.001Z</time></trkpt><trkpt lat="45.035789660725094" lon="8.497220994064984"><ele>131.0</ele><time>2026-04-18T09:47:31.001Z</time></trkpt><trkpt lat="45.03569932951042" lon="8.497192847092453"><ele>131.0</ele><time>2026-04-18T09:47:32.001Z</time></trkpt><trkpt lat="45.035615571202854" lon="8.497152125706585"><ele>130.8</ele><time>2026-04-18T09:47:33.001Z</time></trkpt><trkpt lat="45.03553590323504" lon="8.49710786523537"><ele>130.6</ele><time>2026-04-18T09:47:34.001Z</time></trkpt><trkpt lat="45.03546766117662" lon="8.497053400660729"><ele>130.4</ele><time>2026-04-18T09:47:35.001Z</time></trkpt><trkpt lat="45.03538331544332" lon="8.49693947529503"><ele>130.2</ele><time>2026-04-18T09:47:37.001Z</time></trkpt><trkpt lat="45.03531856523371" lon="8.496843173773506"><ele>130.0</ele><time>2026-04-18T09:47:39.001Z</time></trkpt><trkpt lat="45.03525776578391" lon="8.496687175836158"><ele>130.0</ele><time>2026-04-18T09:47:41.001Z</time></trkpt><trkpt lat="45.03522650658517" lon="8.496581882270783"><ele>130.0</ele><time>2026-04-18T09:47:42.001Z</time></trkpt><trkpt lat="45.035201057920496" lon="8.49643333249041"><ele>130.0</ele><time>2026-04-18T09:47:43.001Z</time></trkpt><trkpt lat="45.03515895902705" lon="8.496311372717551"><ele>130.0</ele><time>2026-04-18T09:47:44.001Z</time></trkpt><trkpt lat="45.035118086363475" lon="8.496176512757568"><ele>130.0</ele><time>2026-04-18T09:47:45.001Z</time></trkpt><trkpt lat="45.035078147019796" lon="8.496026919204928"><ele>130.0</ele><time>2026-04-18T09:47:46.001Z</time></trkpt><trkpt lat="45.0350375214036" lon="8.495869218489311"><ele>130.0</ele><time>2026-04-18T09:47:47.001Z</time></trkpt><trkpt lat="45.03500192227744" lon="8.49570594377688"><ele>130.0</ele><time>2026-04-18T09:47:48.001Z</time></trkpt><trkpt lat="45.03495838990184" lon="8.49553823631359"><ele>130.0</ele><time>2026-04-18T09:47:49.001Z</time></trkpt><trkpt lat="45.03491389477343" lon="8.495359711074867"><ele>130.0</ele><time>2026-04-18T09:47:50.001Z</time></trkpt><trkpt lat="45.0348646806736" lon="8.495180948820758"><ele>130.0</ele><time>2026-04-18T09:47:51.002Z</time></trkpt><trkpt lat="45.03481323999996" lon="8.495001259794414"><ele>130.0</ele><time>2026-04-18T09:47:52.002Z</time></trkpt><trkpt lat="45.03475999770647" lon="8.494813967934459"><ele>130.0</ele><time>2026-04-18T09:47:53.002Z</time></trkpt><trkpt lat="45.034705232633016" lon="8.494615239383581"><ele>130.25</ele><time>2026-04-18T09:47:54.002Z</time></trkpt><trkpt lat="45.034648767542286" lon="8.494421390410793"><ele>130.5</ele><time>2026-04-18T09:47:55.002Z</time></trkpt><trkpt lat="45.03459746098382" lon="8.49424217608356"><ele>130.75</ele><time>2026-04-18T09:47:56.002Z</time></trkpt><trkpt lat="45.034548332210115" lon="8.494066290709139"><ele>131.0</ele><time>2026-04-18T09:47:57.002Z</time></trkpt><trkpt lat="45.034489640396934" lon="8.493893201164136"><ele>131.25</ele><time>2026-04-18T09:47:58.002Z</time></trkpt><trkpt lat="45.03442703387156" lon="8.49372650377644"><ele>131.5</ele><time>2026-04-18T09:47:59.002Z</time></trkpt><trkpt lat="45.03435814446389" lon="8.493566174556028"><ele>131.75</ele><time>2026-04-18T09:48:00.002Z</time></trkpt><trkpt lat="45.03427994498372" lon="8.493408060153246"><ele>132.0</ele><time>2026-04-18T09:48:01.002Z</time></trkpt><trkpt lat="45.03420105245135" lon="8.493251126272286"><ele>132.0</ele><time>2026-04-18T09:48:02.002Z</time></trkpt><trkpt lat="45.03413030375207" lon="8.493104921182686"><ele>132.0</ele><time>2026-04-18T09:48:03.002Z</time></trkpt><trkpt lat="45.03405632077704" lon="8.492957496032401"><ele>132.0</ele><time>2026-04-18T09:48:04.002Z</time></trkpt><trkpt lat="45.03398257750136" lon="8.492811526066996"><ele>132.0</ele><time>2026-04-18T09:48:05.002Z</time></trkpt><trkpt lat="45.03389653836106" lon="8.4926447547937"><ele>132.0</ele><time>2026-04-18T09:48:06.002Z</time></trkpt><trkpt lat="45.03381497809971" lon="8.49246957959721"><ele>132.0</ele><time>2026-04-18T09:48:07.002Z</time></trkpt><trkpt lat="45.03372733289033" lon="8.492274115627756"><ele>132.0</ele><time>2026-04-18T09:48:08.002Z</time></trkpt><trkpt lat="45.03364071512878" lon="8.492067009055273"><ele>132.0</ele><time>2026-04-18T09:48:09.002Z</time></trkpt><trkpt lat="45.03356356182061" lon="8.491848854099302"><ele>132.0</ele><time>2026-04-18T09:48:10.002Z</time></trkpt><trkpt lat="45.03349327387075" lon="8.491646209506648"><ele>132.0</ele><time>2026-04-18T09:48:11.002Z</time></trkpt><trkpt lat="45.033425599809924" lon="8.491442282661716"><ele>131.66666666666666</ele><time>2026-04-18T09:48:12.002Z</time></trkpt><trkpt lat="45.03336166874274" lon="8.491226678610616"><ele>131.33333333333331</ele><time>2026-04-18T09:48:13.002Z</time></trkpt><trkpt lat="45.03330600652884" lon="8.491011373493983"><ele>131.0</ele><time>2026-04-18T09:48:14.002Z</time></trkpt><trkpt lat="45.033250570791715" lon="8.49077476434689"><ele>131.0</ele><time>2026-04-18T09:48:15.002Z</time></trkpt><trkpt lat="45.033193612949624" lon="8.490540503800524"><ele>131.0</ele><time>2026-04-18T09:48:16.002Z</time></trkpt><trkpt lat="45.033148979503565" lon="8.490326162905482"><ele>131.0</ele><time>2026-04-18T09:48:17.002Z</time></trkpt><trkpt lat="45.03310214455093" lon="8.490118487016415"><ele>131.33333333333331</ele><time>2026-04-18T09:48:18.002Z</time></trkpt><trkpt lat="45.03305430449258" lon="8.489909320148156"><ele>131.66666666666666</ele><time>2026-04-18T09:48:19.002Z</time></trkpt><trkpt lat="45.033007448745344" lon="8.489692772510589"><ele>132.0</ele><time>2026-04-18T09:48:20.002Z</time></trkpt><trkpt lat="45.03296648177887" lon="8.489490897617182"><ele>132.0</ele><time>2026-04-18T09:48:21.002Z</time></trkpt><trkpt lat="45.032923511280245" lon="8.489298899099609"><ele>132.0</ele><time>2026-04-18T09:48:22.002Z</time></trkpt><trkpt lat="45.03287675502959" lon="8.489102912387718"><ele>132.0</ele><time>2026-04-18T09:48:23.002Z</time></trkpt><trkpt lat="45.032819454970074" lon="8.488898257942116"><ele>132.0</ele><time>2026-04-18T09:48:24.002Z</time></trkpt><trkpt lat="45.03275525487353" lon="8.488696466309353"><ele>132.33333333333334</ele><time>2026-04-18T09:48:25.002Z</time></trkpt><trkpt lat="45.032694603879804" lon="8.488506896649357"><ele>132.66666666666669</ele><time>2026-04-18T09:48:26.002Z</time></trkpt><trkpt lat="45.03262275783342" lon="8.488316862981819"><ele>133.0</ele><time>2026-04-18T09:48:27.002Z</time></trkpt><trkpt lat="45.0325472720308" lon="8.488119778134566"><ele>133.0</ele><time>2026-04-18T09:48:28.002Z</time></trkpt><trkpt lat="45.03247684046495" lon="8.487915801011"><ele>133.0</ele><time>2026-04-18T09:48:29.003Z</time></trkpt><trkpt lat="45.03240582814129" lon="8.48770757594761"><ele>133.0</ele><time>2026-04-18T09:48:30.003Z</time></trkpt><trkpt lat="45.03233581506644" lon="8.487501065587155"><ele>133.0</ele><time>2026-04-18T09:48:31.003Z</time></trkpt><trkpt lat="45.03226695266025" lon="8.487300002064462"><ele>133.0</ele><time>2026-04-18T09:48:32.003Z</time></trkpt><trkpt lat="45.03220357197199" lon="8.48710499421455"><ele>133.0</ele><time>2026-04-18T09:48:33.003Z</time></trkpt><trkpt lat="45.032143985380195" lon="8.486916912793458"><ele>133.0</ele><time>2026-04-18T09:48:34.003Z</time></trkpt><trkpt lat="45.032077573391774" lon="8.486724677278318"><ele>133.0</ele><time>2026-04-18T09:48:35.003Z</time></trkpt><trkpt lat="45.03201031415787" lon="8.486530583826584"><ele>133.0</ele><time>2026-04-18T09:48:36.003Z</time></trkpt><trkpt lat="45.031943344414174" lon="8.486343015707856"><ele>133.66666666666669</ele><time>2026-04-18T09:48:37.003Z</time></trkpt><trkpt lat="45.031870469625936" lon="8.48615528772164"><ele>134.33333333333334</ele><time>2026-04-18T09:48:38.003Z</time></trkpt><trkpt lat="45.03178491147555" lon="8.485963057783723"><ele>135.0</ele><time>2026-04-18T09:48:39.003Z</time></trkpt><trkpt lat="45.03168937787518" lon="8.485771470507808"><ele>135.0</ele><time>2026-04-18T09:48:40.003Z</time></trkpt><trkpt lat="45.031594303349486" lon="8.485593934604514"><ele>135.0</ele><time>2026-04-18T09:48:41.003Z</time></trkpt><trkpt lat="45.0315062758664" lon="8.48541971000288"><ele>135.0</ele><time>2026-04-18T09:48:42Z</time></trkpt><trkpt lat="45.03141452830478" lon="8.485245475595187"><ele>135.0</ele><time>2026-04-18T09:48:43Z</time></trkpt><trkpt lat="45.0313169373169" lon="8.485060807437353"><ele>135.0</ele><time>2026-04-18T09:48:44Z</time></trkpt><trkpt lat="45.03121981551787" lon="8.484873512799357"><ele>135.0</ele><time>2026-04-18T09:48:45Z</time></trkpt><trkpt lat="45.03113017455319" lon="8.484694440143635"><ele>134.75</ele><time>2026-04-18T09:48:46Z</time></trkpt><trkpt lat="45.03103772273368" lon="8.484541174320139"><ele>134.5</ele><time>2026-04-18T09:48:47Z</time></trkpt><trkpt lat="45.030935043508904" lon="8.484410688235934"><ele>134.25</ele><time>2026-04-18T09:48:48Z</time></trkpt><trkpt lat="45.03081962612666" lon="8.48428343444801"><ele>134.0</ele><time>2026-04-18T09:48:49Z</time></trkpt><trkpt lat="45.03069893449072" lon="8.484164028798462"><ele>134.66666666666666</ele><time>2026-04-18T09:48:50Z</time></trkpt><trkpt lat="45.03057597539816" lon="8.484044764926226"><ele>135.33333333333334</ele><time>2026-04-18T09:48:51Z</time></trkpt><trkpt lat="45.03044939031473" lon="8.483915683880394"><ele>136.0</ele><time>2026-04-18T09:48:52Z</time></trkpt><trkpt lat="45.030321535994695" lon="8.483791003723738"><ele>136.0</ele><time>2026-04-18T09:48:53Z</time></trkpt><trkpt lat="45.03019367571846" lon="8.483658302506779"><ele>136.0</ele><time>2026-04-18T09:48:54Z</time></trkpt><trkpt lat="45.03006250037182" lon="8.483526265057227"><ele>136.0</ele><time>2026-04-18T09:48:55Z</time></trkpt><trkpt lat="45.02993585843778" lon="8.483399172558377"><ele>135.75</ele><time>2026-04-18T09:48:56Z</time></trkpt><trkpt lat="45.02982666588567" lon="8.483290319543585"><ele>135.5</ele><time>2026-04-18T09:48:57Z</time></trkpt><trkpt lat="45.02973356086881" lon="8.483164380207594"><ele>135.25</ele><time>2026-04-18T09:48:58Z</time></trkpt><trkpt lat="45.029633034318145" lon="8.483081623936053"><ele>135.0</ele><time>2026-04-18T09:48:59Z</time></trkpt><trkpt lat="45.029540542040586" lon="8.48299467444513"><ele>134.0</ele><time>2026-04-18T09:49:00Z</time></trkpt><trkpt lat="45.029455516302065" lon="8.482909452871029"><ele>133.0</ele><time>2026-04-18T09:49:01Z</time></trkpt><trkpt lat="45.029371532039015" lon="8.482832335430654"><ele>132.0</ele><time>2026-04-18T09:49:02Z</time></trkpt><trkpt lat="45.02929339977542" lon="8.482754103023366"><ele>131.0</ele><time>2026-04-18T09:49:03Z</time></trkpt><trkpt lat="45.029224840003266" lon="8.482680357218907"><ele>130.0</ele><time>2026-04-18T09:49:04Z</time></trkpt><trkpt lat="45.02915703843087" lon="8.482620677727343"><ele>129.5</ele><time>2026-04-18T09:49:05Z</time></trkpt><trkpt lat="45.02908357364409" lon="8.482578544524067"><ele>129.0</ele><time>2026-04-18T09:49:06Z</time></trkpt><trkpt lat="45.02900175014238" lon="8.482533047759235"><ele>128.5</ele><time>2026-04-18T09:49:07Z</time></trkpt><trkpt lat="45.028930681175694" lon="8.48249983321594"><ele>128.0</ele><time>2026-04-18T09:49:08Z</time></trkpt><trkpt lat="45.02886452566031" lon="8.482466685095357"><ele>127.50000000000001</ele><time>2026-04-18T09:49:09.001Z</time></trkpt><trkpt lat="45.028758507158166" lon="8.482424172169331"><ele>127.0</ele><time>2026-04-18T09:49:11.001Z</time></trkpt><trkpt lat="45.02869562887658" lon="8.482385257896777"><ele>127.00000000000001</ele><time>2026-04-18T09:49:13.001Z</time></trkpt><trkpt lat="45.028641849438046" lon="8.48233630945527"><ele>127.0</ele><time>2026-04-18T09:49:18.001Z</time></trkpt><trkpt lat="45.02870427083617" lon="8.482256646406775"><ele>127.0</ele><time>2026-04-18T09:49:20.001Z</time></trkpt><trkpt lat="45.028773260054685" lon="8.48215541088446"><ele>127.0</ele><time>2026-04-18T09:49:23.001Z</time></trkpt><trkpt lat="45.02882407512578" lon="8.482035176122269"><ele>127.00000000000001</ele><time>2026-04-18T09:49:25.001Z</time></trkpt><trkpt lat="45.02883283286926" lon="8.481939800744405"><ele>127.0</ele><time>2026-04-18T09:49:26.001Z</time></trkpt><trkpt lat="45.02884013083693" lon="8.481837464622707"><ele>126.19999999999999</ele><time>2026-04-18T09:49:27.001Z</time></trkpt><trkpt lat="45.028849260711034" lon="8.481722170009458"><ele>125.39999999999999</ele><time>2026-04-18T09:49:28.001Z</time></trkpt><trkpt lat="45.028863673306304" lon="8.48160060067474"><ele>124.60000000000001</ele><time>2026-04-18T09:49:29.001Z</time></trkpt><trkpt lat="45.02888101220799" lon="8.481474562739594"><ele>123.80000000000001</ele><time>2026-04-18T09:49:30.001Z</time></trkpt><trkpt lat="45.02889940390796" lon="8.481329128109675"><ele>123.0</ele><time>2026-04-18T09:49:31.001Z</time></trkpt><trkpt lat="45.02891776960089" lon="8.481176308564184"><ele>122.80000000000001</ele><time>2026-04-18T09:49:32.001Z</time></trkpt><trkpt lat="45.0289358100023" lon="8.481023952074604"><ele>122.60000000000001</ele><time>2026-04-18T09:49:33.001Z</time></trkpt><trkpt lat="45.02895327634219" lon="8.480876443348379"><ele>122.39999999999999</ele><time>2026-04-18T09:49:34.001Z</time></trkpt><trkpt lat="45.02897037402602" lon="8.480728957979345"><ele>122.19999999999999</ele><time>2026-04-18T09:49:35.001Z</time></trkpt><trkpt lat="45.028987346717535" lon="8.480576181598822"><ele>122.0</ele><time>2026-04-18T09:49:36.001Z</time></trkpt><trkpt lat="45.02900447352394" lon="8.48041276332384"><ele>122.39999999999999</ele><time>2026-04-18T09:49:37.001Z</time></trkpt><trkpt lat="45.02902379388614" lon="8.480241572469957"><ele>122.79999999999998</ele><time>2026-04-18T09:49:38.001Z</time></trkpt><trkpt lat="45.02904284209351" lon="8.480085017980889"><ele>123.2</ele><time>2026-04-18T09:49:39.001Z</time></trkpt><trkpt lat="45.02906207049969" lon="8.479939009504989"><ele>123.6</ele><time>2026-04-18T09:49:40.001Z</time></trkpt><trkpt lat="45.02907991755787" lon="8.47981353560279"><ele>124.0</ele><time>2026-04-18T09:49:41.001Z</time></trkpt><trkpt lat="45.02910100995191" lon="8.479680864825772"><ele>124.33333333333334</ele><time>2026-04-18T09:49:42.001Z</time></trkpt><trkpt lat="45.02911739557897" lon="8.479567553062724"><ele>124.66666666666667</ele><time>2026-04-18T09:49:43.001Z</time></trkpt><trkpt lat="45.02910949319681" lon="8.479466492853959"><ele>125.0</ele><time>2026-04-18T09:49:44.001Z</time></trkpt><trkpt lat="45.02912381216818" lon="8.479368175080417"><ele>125.33333333333334</ele><time>2026-04-18T09:49:45.001Z</time></trkpt><trkpt lat="45.02914166734763" lon="8.479263189746291"><ele>125.66666666666667</ele><time>2026-04-18T09:49:46.001Z</time></trkpt><trkpt lat="45.02917025477152" lon="8.479163566913236"><ele>126.0</ele><time>2026-04-18T09:49:47.001Z</time></trkpt><trkpt lat="45.02920653319671" lon="8.479067364735704"><ele>125.14285714285714</ele><time>2026-04-18T09:49:48.002Z</time></trkpt><trkpt lat="45.02923723234553" lon="8.478989027696676"><ele>124.28571428571428</ele><time>2026-04-18T09:49:49.002Z</time></trkpt><trkpt lat="45.02926292615061" lon="8.478905032363821"><ele>123.42857142857143</ele><time>2026-04-18T09:49:50.002Z</time></trkpt><trkpt lat="45.029264374494225" lon="8.47880187343362"><ele>122.57142857142857</ele><time>2026-04-18T09:49:51.002Z</time></trkpt><trkpt lat="45.02924759860465" lon="8.47869179430194"><ele>121.71428571428571</ele><time>2026-04-18T09:49:52.002Z</time></trkpt><trkpt lat="45.029227537991055" lon="8.478602916418538"><ele>120.85714285714286</ele><time>2026-04-18T09:49:53.002Z</time></trkpt><trkpt lat="45.02917816331652" lon="8.478529271247284"><ele>120.0</ele><time>2026-04-18T09:49:54.002Z</time></trkpt><trkpt lat="45.02914686939195" lon="8.478438110447987"><ele>120.16666666666667</ele><time>2026-04-18T09:49:55.002Z</time></trkpt><trkpt lat="45.02908020526825" lon="8.478369025328105"><ele>120.33333333333334</ele><time>2026-04-18T09:49:56.002Z</time></trkpt><trkpt lat="45.02898744130447" lon="8.478295481820268"><ele>120.5</ele><time>2026-04-18T09:49:58.002Z</time></trkpt><trkpt lat="45.02891328461787" lon="8.4782370128414"><ele>120.66666666666667</ele><time>2026-04-18T09:50:00.002Z</time></trkpt><trkpt lat="45.02884944491038" lon="8.478186678318439"><ele>120.83333333333334</ele><time>2026-04-18T09:50:02.002Z</time></trkpt><trkpt lat="45.02877129197711" lon="8.478126312839102"><ele>121.0</ele><time>2026-04-18T09:50:04.002Z</time></trkpt><trkpt lat="45.02871447870858" lon="8.47808306317447"><ele>121.00000000000001</ele><time>2026-04-18T09:50:05.002Z</time></trkpt><trkpt lat="45.02864534909384" lon="8.478030437922811"><ele>121.0</ele><time>2026-04-18T09:50:06.002Z</time></trkpt><trkpt lat="45.02857549969637" lon="8.477977264208752"><ele>121.0</ele><time>2026-04-18T09:50:07.002Z</time></trkpt><trkpt lat="45.02850341573971" lon="8.47792238982733"><ele>121.0</ele><time>2026-04-18T09:50:08.002Z</time></trkpt><trkpt lat="45.02842870444033" lon="8.477865515097184"><ele>121.00000000000001</ele><time>2026-04-18T09:50:09.002Z</time></trkpt><trkpt lat="45.028362129802375" lon="8.477814835861365"><ele>121.0</ele><time>2026-04-18T09:50:10.002Z</time></trkpt><trkpt lat="45.02829212737342" lon="8.477760045646727"><ele>121.0</ele><time>2026-04-18T09:50:11.002Z</time></trkpt><trkpt lat="45.028236849699084" lon="8.477715840410482"><ele>121.0</ele><time>2026-04-18T09:50:12.002Z</time></trkpt><trkpt lat="45.0281128691907" lon="8.477608726343007"><ele>121.0</ele><time>2026-04-18T09:50:14.002Z</time></trkpt><trkpt lat="45.02805808761624" lon="8.477547153452894"><ele>121.0</ele><time>2026-04-18T09:50:15.002Z</time></trkpt><trkpt lat="45.02801078466037" lon="8.477477639781538"><ele>121.0</ele><time>2026-04-18T09:50:16.002Z</time></trkpt><trkpt lat="45.027970347688886" lon="8.47731680937817"><ele>121.0</ele><time>2026-04-18T09:50:18.002Z</time></trkpt><trkpt lat="45.02797794851798" lon="8.477205505486936"><ele>121.0</ele><time>2026-04-18T09:50:19.002Z</time></trkpt><trkpt lat="45.02797723591085" lon="8.477076425371585"><ele>121.0</ele><time>2026-04-18T09:50:20.002Z</time></trkpt><trkpt lat="45.02797938806596" lon="8.476924620233858"><ele>121.0</ele><time>2026-04-18T09:50:21.002Z</time></trkpt><trkpt lat="45.027978833786165" lon="8.476783279501559"><ele>121.0</ele><time>2026-04-18T09:50:22.002Z</time></trkpt><trkpt lat="45.027980497035635" lon="8.476671941072906"><ele>121.4</ele><time>2026-04-18T09:50:23.002Z</time></trkpt><trkpt lat="45.02798232090119" lon="8.476561965053875"><ele>121.8</ele><time>2026-04-18T09:50:24.002Z</time></trkpt><trkpt lat="45.027991102784405" lon="8.476458520723945"><ele>122.20000000000002</ele><time>2026-04-18T09:50:25.002Z</time></trkpt><trkpt lat="45.02798703848126" lon="8.476366332820083"><ele>122.60000000000001</ele><time>2026-04-18T09:50:26.003Z</time></trkpt><trkpt lat="45.027902262193344" lon="8.476241684773264"><ele>123.0</ele><time>2026-04-18T09:50:31.003Z</time></trkpt><trkpt lat="45.0277545694514" lon="8.476266333094744"><ele>123.0</ele><time>2026-04-18T09:50:33.003Z</time></trkpt><trkpt lat="45.027661098987664" lon="8.47628042043309"><ele>123.00000000000001</ele><time>2026-04-18T09:50:34.003Z</time></trkpt><trkpt lat="45.02756793259787" lon="8.476292169692176"><ele>123.00000000000001</ele><time>2026-04-18T09:50:35.003Z</time></trkpt><trkpt lat="45.02746177360363" lon="8.476301071913877"><ele>123.0</ele><time>2026-04-18T09:50:36.003Z</time></trkpt><trkpt lat="45.02732714491865" lon="8.476311434937484"><ele>123.0</ele><time>2026-04-18T09:50:37.003Z</time></trkpt><trkpt lat="45.02719759484881" lon="8.47632115454747"><ele>123.25</ele><time>2026-04-18T09:50:38.003Z</time></trkpt><trkpt lat="45.02706816334756" lon="8.476330865266785"><ele>123.5</ele><time>2026-04-18T09:50:39.003Z</time></trkpt><trkpt lat="45.02693068781107" lon="8.476340200873677"><ele>123.75</ele><time>2026-04-18T09:50:40.003Z</time></trkpt><trkpt lat="45.026797873006686" lon="8.476341146296557"><ele>124.0</ele><time>2026-04-18T09:50:41.003Z</time></trkpt><trkpt lat="45.02666166953826" lon="8.476328689407236"><ele>124.25</ele><time>2026-04-18T09:50:42.003Z</time></trkpt><trkpt lat="45.02652625323748" lon="8.476306763910783"><ele>124.5</ele><time>2026-04-18T09:50:43.003Z</time></trkpt><trkpt lat="45.02639356093122" lon="8.476277506685289"><ele>124.75</ele><time>2026-04-18T09:50:44.003Z</time></trkpt><trkpt lat="45.026261586959976" lon="8.476248040391773"><ele>125.0</ele><time>2026-04-18T09:50:45.003Z</time></trkpt><trkpt lat="45.02615880546324" lon="8.47621031092033"><ele>125.0</ele><time>2026-04-18T09:50:46.003Z</time></trkpt><trkpt lat="45.02607204307317" lon="8.476162573093388"><ele>125.0</ele><time>2026-04-18T09:50:47.003Z</time></trkpt><trkpt lat="45.02598393598794" lon="8.476092576500944"><ele>125.0</ele><time>2026-04-18T09:50:48Z</time></trkpt><trkpt lat="45.025888409631186" lon="8.476003538294137"><ele>125.0</ele><time>2026-04-18T09:50:49Z</time></trkpt><trkpt lat="45.02578664969644" lon="8.475904264738261"><ele>125.0</ele><time>2026-04-18T09:50:50Z</time></trkpt><trkpt lat="45.02567069287095" lon="8.475786777619868"><ele>125.0</ele><time>2026-04-18T09:50:51Z</time></trkpt><trkpt lat="45.0255437185628" lon="8.475661954553761"><ele>125.0</ele><time>2026-04-18T09:50:52Z</time></trkpt><trkpt lat="45.02540050618386" lon="8.475567809661879"><ele>125.0</ele><time>2026-04-18T09:50:53Z</time></trkpt><trkpt lat="45.02527010743823" lon="8.47544702910377"><ele>125.33333333333333</ele><time>2026-04-18T09:50:54Z</time></trkpt><trkpt lat="45.02512413763368" lon="8.475361630393463"><ele>125.66666666666666</ele><time>2026-04-18T09:50:55Z</time></trkpt><trkpt lat="45.024991121908435" lon="8.475248513040315"><ele>126.0</ele><time>2026-04-18T09:50:56Z</time></trkpt><trkpt lat="45.02484151132071" lon="8.4751508872494"><ele>126.25</ele><time>2026-04-18T09:50:57Z</time></trkpt><trkpt lat="45.02470467457274" lon="8.47506764201206"><ele>126.5</ele><time>2026-04-18T09:50:58Z</time></trkpt><trkpt lat="45.024560214512164" lon="8.475018550038556"><ele>126.75</ele><time>2026-04-18T09:50:59Z</time></trkpt><trkpt lat="45.024418927127726" lon="8.47495235093722"><ele>127.0</ele><time>2026-04-18T09:51:00Z</time></trkpt><trkpt lat="45.02427283335938" lon="8.474897119318854"><ele>126.5</ele><time>2026-04-18T09:51:01Z</time></trkpt><trkpt lat="45.0241268327561" lon="8.474863324117374"><ele>126.0</ele><time>2026-04-18T09:51:02Z</time></trkpt><trkpt lat="45.02398449141162" lon="8.474802538960063"><ele>125.5</ele><time>2026-04-18T09:51:03Z</time></trkpt><trkpt lat="45.02384893124553" lon="8.474750157890751"><ele>125.0</ele><time>2026-04-18T09:51:04Z</time></trkpt><trkpt lat="45.02372754982064" lon="8.474676473714004"><ele>125.0</ele><time>2026-04-18T09:51:05Z</time></trkpt><trkpt lat="45.02361586313194" lon="8.474572829388187"><ele>125.0</ele><time>2026-04-18T09:51:06Z</time></trkpt><trkpt lat="45.02350163271422" lon="8.474459893681138"><ele>125.0</ele><time>2026-04-18T09:51:07Z</time></trkpt><trkpt lat="45.02337636005021" lon="8.474359803613476"><ele>125.0</ele><time>2026-04-18T09:51:08Z</time></trkpt><trkpt lat="45.023238822867974" lon="8.474288722161102"><ele>125.0</ele><time>2026-04-18T09:51:09Z</time></trkpt><trkpt lat="45.02309714446876" lon="8.474217582537213"><ele>125.0</ele><time>2026-04-18T09:51:10Z</time></trkpt><trkpt lat="45.022951051294896" lon="8.474149294014975"><ele>125.0</ele><time>2026-04-18T09:51:11.001Z</time></trkpt><trkpt lat="45.022797066750854" lon="8.474080250747008"><ele>125.0</ele><time>2026-04-18T09:51:12.001Z</time></trkpt><trkpt lat="45.02264537349131" lon="8.474004406875906"><ele>125.0</ele><time>2026-04-18T09:51:13.001Z</time></trkpt><trkpt lat="45.0225006215611" lon="8.473911130110006"><ele>125.0</ele><time>2026-04-18T09:51:14.001Z</time></trkpt><trkpt lat="45.02235614032817" lon="8.47383569449763"><ele>125.66666666666666</ele><time>2026-04-18T09:51:15.001Z</time></trkpt><trkpt lat="45.0222198941258" lon="8.473747803916794"><ele>126.33333333333334</ele><time>2026-04-18T09:51:16.001Z</time></trkpt><trkpt lat="45.022083770552975" lon="8.473643443263681"><ele>127.0</ele><time>2026-04-18T09:51:17.001Z</time></trkpt><trkpt lat="45.02194598339523" lon="8.47353428907834"><ele>127.0</ele><time>2026-04-18T09:51:18.001Z</time></trkpt><trkpt lat="45.02180161336072" lon="8.473419710080439"><ele>127.0</ele><time>2026-04-18T09:51:19.001Z</time></trkpt><trkpt lat="45.02165438186823" lon="8.473334495517125"><ele>127.0</ele><time>2026-04-18T09:51:20.001Z</time></trkpt><trkpt lat="45.021523002793664" lon="8.473221194665914"><ele>127.0</ele><time>2026-04-18T09:51:21.001Z</time></trkpt><trkpt lat="45.02137790328576" lon="8.47312083328335"><ele>127.0</ele><time>2026-04-18T09:51:22.001Z</time></trkpt><trkpt lat="45.02124051295885" lon="8.47302060060843"><ele>127.0</ele><time>2026-04-18T09:51:23.001Z</time></trkpt><trkpt lat="45.021112858554844" lon="8.472910116015205"><ele>127.0</ele><time>2026-04-18T09:51:24.001Z</time></trkpt><trkpt lat="45.02099727602007" lon="8.472792971882901"><ele>127.0</ele><time>2026-04-18T09:51:25.001Z</time></trkpt><trkpt lat="45.02089031542488" lon="8.472659375676649"><ele>127.0</ele><time>2026-04-18T09:51:26.001Z</time></trkpt><trkpt lat="45.02079399289721" lon="8.47250295541002"><ele>127.0</ele><time>2026-04-18T09:51:27.001Z</time></trkpt><trkpt lat="45.02069851058407" lon="8.472335350260805"><ele>126.66666666666667</ele><time>2026-04-18T09:51:28.001Z</time></trkpt><trkpt lat="45.02060225207395" lon="8.472166382605701"><ele>126.33333333333334</ele><time>2026-04-18T09:51:29.001Z</time></trkpt><trkpt lat="45.02050203765614" lon="8.472004595080254"><ele>126.0</ele><time>2026-04-18T09:51:30.001Z</time></trkpt><trkpt lat="45.02038490004387" lon="8.471862931689735"><ele>126.66666666666666</ele><time>2026-04-18T09:51:31.001Z</time></trkpt><trkpt lat="45.020267830920034" lon="8.471722124559935"><ele>127.33333333333333</ele><time>2026-04-18T09:51:32.001Z</time></trkpt><trkpt lat="45.02014811301825" lon="8.471591430603338"><ele>128.0</ele><time>2026-04-18T09:51:33.001Z</time></trkpt><trkpt lat="45.02002166840756" lon="8.471456862116531"><ele>128.0</ele><time>2026-04-18T09:51:34.001Z</time></trkpt><trkpt lat="45.01989640561187" lon="8.471347932431144"><ele>128.0</ele><time>2026-04-18T09:51:35.001Z</time></trkpt><trkpt lat="45.019759590209404" lon="8.471247307785815"><ele>128.0</ele><time>2026-04-18T09:51:36.001Z</time></trkpt><trkpt lat="45.01962174895589" lon="8.471152604354074"><ele>128.0</ele><time>2026-04-18T09:51:37.001Z</time></trkpt><trkpt lat="45.01948525600595" lon="8.471057174652945"><ele>128.0</ele><time>2026-04-18T09:51:38.001Z</time></trkpt><trkpt lat="45.01934956877963" lon="8.470938857832913"><ele>128.0</ele><time>2026-04-18T09:51:39.001Z</time></trkpt><trkpt lat="45.01920388337048" lon="8.470842433818675"><ele>127.66666666666666</ele><time>2026-04-18T09:51:40.001Z</time></trkpt><trkpt lat="45.01905287020237" lon="8.470770299768663"><ele>127.33333333333334</ele><time>2026-04-18T09:51:41.001Z</time></trkpt><trkpt lat="45.018909741993575" lon="8.470680581213635"><ele>127.0</ele><time>2026-04-18T09:51:42.001Z</time></trkpt><trkpt lat="45.01877369061973" lon="8.470596153372027"><ele>127.0</ele><time>2026-04-18T09:51:43.001Z</time></trkpt><trkpt lat="45.01865639781719" lon="8.470487956376054"><ele>127.0</ele><time>2026-04-18T09:51:44.001Z</time></trkpt><trkpt lat="45.0185590911638" lon="8.470387515992917"><ele>127.0</ele><time>2026-04-18T09:51:45.001Z</time></trkpt><trkpt lat="45.018468864204394" lon="8.47027960674321"><ele>127.0</ele><time>2026-04-18T09:51:46.001Z</time></trkpt><trkpt lat="45.018383738207426" lon="8.470144678429838"><ele>127.0</ele><time>2026-04-18T09:51:47.001Z</time></trkpt><trkpt lat="45.018297922213065" lon="8.469992242414062"><ele>127.0</ele><time>2026-04-18T09:51:48.001Z</time></trkpt><trkpt lat="45.01821449149504" lon="8.46982513354952"><ele>127.0</ele><time>2026-04-18T09:51:49.001Z</time></trkpt><trkpt lat="45.018139647741435" lon="8.46964117381638"><ele>127.0</ele><time>2026-04-18T09:51:50.001Z</time></trkpt><trkpt lat="45.018071138114856" lon="8.469453194827269"><ele>127.0</ele><time>2026-04-18T09:51:51.001Z</time></trkpt><trkpt lat="45.01801258199918" lon="8.469292168763122"><ele>126.99999999999999</ele><time>2026-04-18T09:51:52.001Z</time></trkpt><trkpt lat="45.01796094446141" lon="8.469155558064083"><ele>126.99999999999999</ele><time>2026-04-18T09:51:53.001Z</time></trkpt><trkpt lat="45.017908239484896" lon="8.469040702506902"><ele>127.0</ele><time>2026-04-18T09:51:54.002Z</time></trkpt><trkpt lat="45.01787502866714" lon="8.46892955213787"><ele>127.0</ele><time>2026-04-18T09:51:55.002Z</time></trkpt><trkpt lat="45.017843464512424" lon="8.468829754944696"><ele>127.50000000000001</ele><time>2026-04-18T09:51:56.002Z</time></trkpt><trkpt lat="45.01781541041998" lon="8.468738205861081"><ele>128.0</ele><time>2026-04-18T09:51:57.002Z</time></trkpt><trkpt lat="45.017757981874595" lon="8.468581492492023"><ele>128.5</ele><time>2026-04-18T09:51:59.002Z</time></trkpt><trkpt lat="45.017738318905536" lon="8.468481719665299"><ele>129.0</ele><time>2026-04-18T09:52:00.002Z</time></trkpt><trkpt lat="45.017712413642585" lon="8.46834724477458"><ele>129.5</ele><time>2026-04-18T09:52:02.002Z</time></trkpt><trkpt lat="45.01768501954538" lon="8.468244906727561"><ele>130.0</ele><time>2026-04-18T09:52:04.002Z</time></trkpt><trkpt lat="45.017638675910725" lon="8.468105000516045"><ele>130.00000000000003</ele><time>2026-04-18T09:52:13.002Z</time></trkpt><trkpt lat="45.01761566521188" lon="8.468018114279987"><ele>130.0</ele><time>2026-04-18T09:52:14.002Z</time></trkpt><trkpt lat="45.01758894011458" lon="8.46792546836476"><ele>130.0</ele><time>2026-04-18T09:52:15.002Z</time></trkpt><trkpt lat="45.01755698012515" lon="8.467839692859577"><ele>130.0</ele><time>2026-04-18T09:52:16.002Z</time></trkpt><trkpt lat="45.0175242713544" lon="8.467746957877877"><ele>130.0</ele><time>2026-04-18T09:52:17.002Z</time></trkpt><trkpt lat="45.01748001885029" lon="8.467651191890683"><ele>130.00000000000003</ele><time>2026-04-18T09:52:18.002Z</time></trkpt><trkpt lat="45.0174369966531" lon="8.46754303957785"><ele>130.0</ele><time>2026-04-18T09:52:19.002Z</time></trkpt><trkpt lat="45.01737801125854" lon="8.467417235698697"><ele>129.75</ele><time>2026-04-18T09:52:20.002Z</time></trkpt><trkpt lat="45.01731907327825" lon="8.467272539369711"><ele>129.5</ele><time>2026-04-18T09:52:21.002Z</time></trkpt><trkpt lat="45.0172587321638" lon="8.467126399144183"><ele>129.25</ele><time>2026-04-18T09:52:22.002Z</time></trkpt><trkpt lat="45.01718970000327" lon="8.466968757183842"><ele>129.0</ele><time>2026-04-18T09:52:23.002Z</time></trkpt><trkpt lat="45.01712302720481" lon="8.466802457314863"><ele>129.0</ele><time>2026-04-18T09:52:24.002Z</time></trkpt><trkpt lat="45.01704415673867" lon="8.466623934421548"><ele>129.0</ele><time>2026-04-18T09:52:25.002Z</time></trkpt><trkpt lat="45.01698908455482" lon="8.466507026259732"><ele>129.0</ele><time>2026-04-18T09:52:26.002Z</time></trkpt><trkpt lat="45.016896931914346" lon="8.46635565545493"><ele>129.0</ele><time>2026-04-18T09:52:27.002Z</time></trkpt><trkpt lat="45.01679921725117" lon="8.46621709437972"><ele>129.0</ele><time>2026-04-18T09:52:28.002Z</time></trkpt><trkpt lat="45.01669449613317" lon="8.466092102522632"><ele>129.0</ele><time>2026-04-18T09:52:29.002Z</time></trkpt><trkpt lat="45.01658147878347" lon="8.465996090598283"><ele>129.0</ele><time>2026-04-18T09:52:30.002Z</time></trkpt><trkpt lat="45.01645854384445" lon="8.465902962347927"><ele>129.0</ele><time>2026-04-18T09:52:31.002Z</time></trkpt><trkpt lat="45.016331448766685" lon="8.465799076557191"><ele>129.0</ele><time>2026-04-18T09:52:32.002Z</time></trkpt><trkpt lat="45.01620449828959" lon="8.465686530943602"><ele>129.0</ele><time>2026-04-18T09:52:33.003Z</time></trkpt><trkpt lat="45.01608013420766" lon="8.465553962494008"><ele>129.0</ele><time>2026-04-18T09:52:34.003Z</time></trkpt><trkpt lat="45.01595869983108" lon="8.465404432185897"><ele>129.66666666666666</ele><time>2026-04-18T09:52:35.003Z</time></trkpt><trkpt lat="45.01584526104189" lon="8.465248091117338"><ele>130.33333333333331</ele><time>2026-04-18T09:52:36.003Z</time></trkpt><trkpt lat="45.01573634402194" lon="8.465095841633786"><ele>131.0</ele><time>2026-04-18T09:52:37.003Z</time></trkpt><trkpt lat="45.01562906906527" lon="8.464944081475068"><ele>131.0</ele><time>2026-04-18T09:52:38.003Z</time></trkpt><trkpt lat="45.01554099128941" lon="8.464767350956173"><ele>131.0</ele><time>2026-04-18T09:52:39.003Z</time></trkpt><trkpt lat="45.01546116043925" lon="8.464593628046606"><ele>131.0</ele><time>2026-04-18T09:52:40.003Z</time></trkpt><trkpt lat="45.0153998091128" lon="8.464421308667873"><ele>131.0</ele><time>2026-04-18T09:52:41.003Z</time></trkpt><trkpt lat="45.01533771508691" lon="8.464233858707768"><ele>131.66666666666666</ele><time>2026-04-18T09:52:42.003Z</time></trkpt><trkpt lat="45.015260558434285" lon="8.464051763935334"><ele>132.33333333333334</ele><time>2026-04-18T09:52:43.003Z</time></trkpt><trkpt lat="45.01519041230613" lon="8.463863280584649"><ele>133.0</ele><time>2026-04-18T09:52:44.003Z</time></trkpt><trkpt lat="45.015111028975994" lon="8.463681833280686"><ele>133.0</ele><time>2026-04-18T09:52:45.003Z</time></trkpt><trkpt lat="45.015038339862855" lon="8.463548058868684"><ele>133.0</ele><time>2026-04-18T09:52:46.003Z</time></trkpt><trkpt lat="45.014978168179866" lon="8.463437241660577"><ele>133.0</ele><time>2026-04-18T09:52:47.003Z</time></trkpt><trkpt lat="45.014930910891586" lon="8.463348678550188"><ele>133.0</ele><time>2026-04-18T09:52:49.003Z</time></trkpt><trkpt lat="45.01489859904363" lon="8.46324703133832"><ele>133.0</ele><time>2026-04-18T09:52:58.001Z</time></trkpt><trkpt lat="45.01483901219516" lon="8.463077298350626"><ele>132.75</ele><time>2026-04-18T09:53:00.001Z</time></trkpt><trkpt lat="45.01469815764098" lon="8.463038237863378"><ele>132.5</ele><time>2026-04-18T09:53:01.001Z</time></trkpt><trkpt lat="45.014618623921415" lon="8.46292601881521"><ele>132.25</ele><time>2026-04-18T09:53:02.001Z</time></trkpt><trkpt lat="45.014559582830756" lon="8.462802263601587"><ele>132.0</ele><time>2026-04-18T09:53:03.001Z</time></trkpt><trkpt lat="45.01448967651671" lon="8.462661809102029"><ele>132.0</ele><time>2026-04-18T09:53:04.001Z</time></trkpt><trkpt lat="45.01440929865072" lon="8.462507187141588"><ele>132.0</ele><time>2026-04-18T09:53:05.001Z</time></trkpt><trkpt lat="45.0143128102084" lon="8.462350145000972"><ele>132.0</ele><time>2026-04-18T09:53:06.001Z</time></trkpt><trkpt lat="45.014235998350834" lon="8.462221591776833"><ele>132.0</ele><time>2026-04-18T09:53:07.001Z</time></trkpt><trkpt lat="45.014169313112525" lon="8.462089407672824"><ele>131.6</ele><time>2026-04-18T09:53:08.001Z</time></trkpt><trkpt lat="45.01412493263046" lon="8.461964374990602"><ele>131.2</ele><time>2026-04-18T09:53:09.001Z</time></trkpt><trkpt lat="45.014072825881705" lon="8.461827644388046"><ele>130.8</ele><time>2026-04-18T09:53:10.001Z</time></trkpt><trkpt lat="45.014001322342786" lon="8.461689723810265"><ele>130.4</ele><time>2026-04-18T09:53:11.001Z</time></trkpt><trkpt lat="45.01394765840737" lon="8.461544536740051"><ele>130.0</ele><time>2026-04-18T09:53:12.001Z</time></trkpt><trkpt lat="45.013896281706735" lon="8.461392008932307"><ele>130.4</ele><time>2026-04-18T09:53:13.001Z</time></trkpt><trkpt lat="45.01383867826353" lon="8.461244060749495"><ele>130.8</ele><time>2026-04-18T09:53:14.001Z</time></trkpt><trkpt lat="45.01379747601338" lon="8.461110649625141"><ele>131.2</ele><time>2026-04-18T09:53:15.001Z</time></trkpt><trkpt lat="45.01375667788034" lon="8.46099346426154"><ele>131.6</ele><time>2026-04-18T09:53:16.001Z</time></trkpt><trkpt lat="45.01372297571312" lon="8.460889353061148"><ele>132.0</ele><time>2026-04-18T09:53:17.001Z</time></trkpt><trkpt lat="45.0136819027083" lon="8.460785586962427"><ele>132.0</ele><time>2026-04-18T09:53:18.001Z</time></trkpt><trkpt lat="45.01362854218979" lon="8.460705667220923"><ele>132.0</ele><time>2026-04-18T09:53:19.001Z</time></trkpt><trkpt lat="45.01351745891146" lon="8.460661555684354"><ele>132.0</ele><time>2026-04-18T09:53:21.001Z</time></trkpt><trkpt lat="45.01338136400815" lon="8.460708084946562"><ele>132.0</ele><time>2026-04-18T09:53:23.001Z</time></trkpt><trkpt lat="45.0132928362691" lon="8.460762692615964"><ele>132.0</ele><time>2026-04-18T09:53:24.001Z</time></trkpt><trkpt lat="45.01321055744106" lon="8.460798944799475"><ele>132.0</ele><time>2026-04-18T09:53:25.001Z</time></trkpt><trkpt lat="45.013137849522295" lon="8.46080079344317"><ele>132.0</ele><time>2026-04-18T09:53:26.001Z</time></trkpt><trkpt lat="45.01306784805488" lon="8.46076066292799"><ele>132.0</ele><time>2026-04-18T09:53:27.001Z</time></trkpt><trkpt lat="45.013006060714254" lon="8.460682559795185"><ele>132.0</ele><time>2026-04-18T09:53:28.001Z</time></trkpt><trkpt lat="45.01295738054399" lon="8.460591138754376"><ele>132.0</ele><time>2026-04-18T09:53:29.001Z</time></trkpt><trkpt lat="45.01290189729816" lon="8.460483825040997"><ele>132.0</ele><time>2026-04-18T09:53:30.001Z</time></trkpt><trkpt lat="45.01284822278559" lon="8.46037580161159"><ele>132.0</ele><time>2026-04-18T09:53:31.001Z</time></trkpt><trkpt lat="45.012785004840595" lon="8.460254445736805"><ele>132.0</ele><time>2026-04-18T09:53:32.001Z</time></trkpt><trkpt lat="45.01272767328703" lon="8.46012699004758"><ele>132.0</ele><time>2026-04-18T09:53:33.001Z</time></trkpt><trkpt lat="45.01268103419769" lon="8.460006735983168"><ele>132.0</ele><time>2026-04-18T09:53:34.001Z</time></trkpt><trkpt lat="45.01263528826038" lon="8.459889671608737"><ele>132.0</ele><time>2026-04-18T09:53:35.001Z</time></trkpt><trkpt lat="45.01260199348868" lon="8.459788682867991"><ele>132.0</ele><time>2026-04-18T09:53:36.001Z</time></trkpt><trkpt lat="45.012577708719014" lon="8.459695996702877"><ele>132.0</ele><time>2026-04-18T09:53:37.001Z</time></trkpt><trkpt lat="45.012519914083306" lon="8.459544331994733"><ele>132.0</ele><time>2026-04-18T09:53:39.001Z</time></trkpt><trkpt lat="45.012485736673916" lon="8.459455316973484"><ele>132.0</ele><time>2026-04-18T09:53:40.001Z</time></trkpt><trkpt lat="45.012446622779564" lon="8.459343449377881"><ele>132.0</ele><time>2026-04-18T09:53:41.001Z</time></trkpt><trkpt lat="45.01241538170237" lon="8.459218716291888"><ele>132.0</ele><time>2026-04-18T09:53:42.001Z</time></trkpt><trkpt lat="45.012371497149616" lon="8.459077536603582"><ele>131.6</ele><time>2026-04-18T09:53:43.001Z</time></trkpt><trkpt lat="45.012335684619735" lon="8.458932419257913"><ele>131.2</ele><time>2026-04-18T09:53:44.001Z</time></trkpt><trkpt lat="45.012297606635165" lon="8.45878218088302"><ele>130.8</ele><time>2026-04-18T09:53:45.001Z</time></trkpt><trkpt lat="45.01225908970504" lon="8.458620010705523"><ele>130.4</ele><time>2026-04-18T09:53:46.001Z</time></trkpt><trkpt lat="45.012231938550066" lon="8.458474632623886"><ele>130.0</ele><time>2026-04-18T09:53:47.001Z</time></trkpt><trkpt lat="45.012209771863134" lon="8.45833667055906"><ele>130.0</ele><time>2026-04-18T09:53:48.001Z</time></trkpt><trkpt lat="45.01219850340212" lon="8.458195206953954"><ele>130.0</ele><time>2026-04-18T09:53:49.001Z</time></trkpt><trkpt lat="45.01220097115751" lon="8.458053405483255"><ele>130.0</ele><time>2026-04-18T09:53:50.001Z</time></trkpt><trkpt lat="45.01222247770597" lon="8.45793305344513"><ele>130.0</ele><time>2026-04-18T09:53:51.001Z</time></trkpt><trkpt lat="45.012257753654154" lon="8.457822097540289"><ele>130.0</ele><time>2026-04-18T09:53:52.001Z</time></trkpt><trkpt lat="45.012311196712325" lon="8.457723087409686"><ele>130.16666666666669</ele><time>2026-04-18T09:53:53.001Z</time></trkpt><trkpt lat="45.01236602670284" lon="8.457635879971484"><ele>130.33333333333334</ele><time>2026-04-18T09:53:54.001Z</time></trkpt><trkpt lat="45.012392722911855" lon="8.457546533360262"><ele>130.5</ele><time>2026-04-18T09:53:55.001Z</time></trkpt><trkpt lat="45.01238098513462" lon="8.457454091820255"><ele>130.66666666666666</ele><time>2026-04-18T09:53:56.001Z</time></trkpt><trkpt lat="45.01234889897039" lon="8.45735436358403"><ele>130.83333333333331</ele><time>2026-04-18T09:53:57.001Z</time></trkpt><trkpt lat="45.01229645236103" lon="8.457247086344612"><ele>131.0</ele><time>2026-04-18T09:53:58.002Z</time></trkpt><trkpt lat="45.01222826032239" lon="8.457134742033562"><ele>130.5</ele><time>2026-04-18T09:53:59.002Z</time></trkpt><trkpt lat="45.01216210357319" lon="8.45701321809811"><ele>130.0</ele><time>2026-04-18T09:54:00.002Z</time></trkpt><trkpt lat="45.012085997277424" lon="8.456875795467543"><ele>129.5</ele><time>2026-04-18T09:54:01.002Z</time></trkpt><trkpt lat="45.012011031933504" lon="8.45674053593886"><ele>129.0</ele><time>2026-04-18T09:54:02.002Z</time></trkpt><trkpt lat="45.01193418701126" lon="8.456601393158264"><ele>129.0</ele><time>2026-04-18T09:54:03.002Z</time></trkpt><trkpt lat="45.011868797355596" lon="8.45647462980257"><ele>129.0</ele><time>2026-04-18T09:54:04.002Z</time></trkpt><trkpt lat="45.01180800318404" lon="8.456342921779802"><ele>129.0</ele><time>2026-04-18T09:54:05.002Z</time></trkpt><trkpt lat="45.01174856120388" lon="8.456211110661616"><ele>129.0</ele><time>2026-04-18T09:54:06.002Z</time></trkpt><trkpt lat="45.01168445224324" lon="8.456071981126845"><ele>129.0</ele><time>2026-04-18T09:54:07.002Z</time></trkpt><trkpt lat="45.01163069068385" lon="8.45594667452754"><ele>129.0</ele><time>2026-04-18T09:54:08.002Z</time></trkpt><trkpt lat="45.01159168084638" lon="8.455834889143707"><ele>129.0</ele><time>2026-04-18T09:54:09.002Z</time></trkpt><trkpt lat="45.011547116190044" lon="8.455755065165526"><ele>129.0</ele><time>2026-04-18T09:54:10.002Z</time></trkpt><trkpt lat="45.011518238865854" lon="8.455668602872425"><ele>129.0</ele><time>2026-04-18T09:54:11.002Z</time></trkpt><trkpt lat="45.01149058120361" lon="8.455564426671467"><ele>129.0</ele><time>2026-04-18T09:54:12.002Z</time></trkpt><trkpt lat="45.011463881852556" lon="8.455467144508482"><ele>129.4</ele><time>2026-04-18T09:54:13.002Z</time></trkpt><trkpt lat="45.01142126415424" lon="8.455368367855737"><ele>129.8</ele><time>2026-04-18T09:54:14.002Z</time></trkpt><trkpt lat="45.011374282873994" lon="8.455274565180002"><ele>130.2</ele><time>2026-04-18T09:54:15.002Z</time></trkpt><trkpt lat="45.01131586521745" lon="8.455148429670844"><ele>130.6</ele><time>2026-04-18T09:54:16.002Z</time></trkpt><trkpt lat="45.01126135920124" lon="8.455026880149704"><ele>131.0</ele><time>2026-04-18T09:54:17.002Z</time></trkpt><trkpt lat="45.01120477909173" lon="8.454906297516736"><ele>131.0</ele><time>2026-04-18T09:54:18.002Z</time></trkpt><trkpt lat="45.011159701227456" lon="8.454789648617384"><ele>131.0</ele><time>2026-04-18T09:54:19.002Z</time></trkpt><trkpt lat="45.01112044055302" lon="8.454665738115823"><ele>131.0</ele><time>2026-04-18T09:54:20.002Z</time></trkpt><trkpt lat="45.01109734173885" lon="8.454551130821155"><ele>131.0</ele><time>2026-04-18T09:54:21.002Z</time></trkpt><trkpt lat="45.01107009346467" lon="8.454432656552493"><ele>131.0</ele><time>2026-04-18T09:54:22.002Z</time></trkpt><trkpt lat="45.01104061596969" lon="8.454325367480186"><ele>131.0</ele><time>2026-04-18T09:54:23.002Z</time></trkpt><trkpt lat="45.011000896823134" lon="8.454208042034606"><ele>131.0</ele><time>2026-04-18T09:54:24.002Z</time></trkpt><trkpt lat="45.01094156564229" lon="8.454091045475385"><ele>131.0</ele><time>2026-04-18T09:54:25.002Z</time></trkpt><trkpt lat="45.010867493449744" lon="8.453964528759906"><ele>131.0</ele><time>2026-04-18T09:54:26.002Z</time></trkpt><trkpt lat="45.01079040541536" lon="8.453831979947825"><ele>131.0</ele><time>2026-04-18T09:54:27.002Z</time></trkpt><trkpt lat="45.01071765527869" lon="8.453689119142966"><ele>131.25</ele><time>2026-04-18T09:54:28.002Z</time></trkpt><trkpt lat="45.01064420581002" lon="8.453548916446112"><ele>131.5</ele><time>2026-04-18T09:54:29.002Z</time></trkpt><trkpt lat="45.01058312812259" lon="8.453417242860084"><ele>131.75</ele><time>2026-04-18T09:54:30.002Z</time></trkpt><trkpt lat="45.010476389151066" lon="8.453207020123259"><ele>132.0</ele><time>2026-04-18T09:54:32.002Z</time></trkpt><trkpt lat="45.010436115560765" lon="8.453105705740157"><ele>132.0</ele><time>2026-04-18T09:54:33.002Z</time></trkpt><trkpt lat="45.01039341340258" lon="8.453012415598932"><ele>132.0</ele><time>2026-04-18T09:54:34.002Z</time></trkpt><trkpt lat="45.01034803007641" lon="8.45293442005286"><ele>132.0</ele><time>2026-04-18T09:54:35.002Z</time></trkpt><trkpt lat="45.010276421815014" lon="8.452774624740039"><ele>132.0</ele><time>2026-04-18T09:54:37.002Z</time></trkpt><trkpt lat="45.01021656207264" lon="8.452668079969214"><ele>132.0</ele><time>2026-04-18T09:54:38.002Z</time></trkpt><trkpt lat="45.01014075797537" lon="8.45257816877104"><ele>132.2</ele><time>2026-04-18T09:54:39.002Z</time></trkpt><trkpt lat="45.01005180073506" lon="8.452503976903953"><ele>132.39999999999998</ele><time>2026-04-18T09:54:40.002Z</time></trkpt><trkpt lat="45.00996084557879" lon="8.45243443336226"><ele>132.60000000000002</ele><time>2026-04-18T09:54:41.003Z</time></trkpt><trkpt lat="45.00987777847173" lon="8.452363268587103"><ele>132.8</ele><time>2026-04-18T09:54:42.003Z</time></trkpt><trkpt lat="45.00980377499733" lon="8.452294913855212"><ele>133.0</ele><time>2026-04-18T09:54:43.003Z</time></trkpt><trkpt lat="45.009723018657105" lon="8.452221891560697"><ele>132.8</ele><time>2026-04-18T09:54:44.003Z</time></trkpt><trkpt lat="45.0096473536027" lon="8.452151856720917"><ele>132.60000000000002</ele><time>2026-04-18T09:54:45.003Z</time></trkpt><trkpt lat="45.00957093421143" lon="8.45208166043844"><ele>132.39999999999998</ele><time>2026-04-18T09:54:46.003Z</time></trkpt><trkpt lat="45.00948639079928" lon="8.452000999964845"><ele>132.2</ele><time>2026-04-18T09:54:47.003Z</time></trkpt><trkpt lat="45.009418317185386" lon="8.451925095820505"><ele>132.0</ele><time>2026-04-18T09:54:48.003Z</time></trkpt><trkpt lat="45.00936264983395" lon="8.451837954448349"><ele>132.0</ele><time>2026-04-18T09:54:49.003Z</time></trkpt><trkpt lat="45.00932946896188" lon="8.451734616730448"><ele>132.0</ele><time>2026-04-18T09:54:50.003Z</time></trkpt><trkpt lat="45.00931332911387" lon="8.451607690357392"><ele>132.0</ele><time>2026-04-18T09:54:51.003Z</time></trkpt><trkpt lat="45.009319799076586" lon="8.451471233933985"><ele>132.0</ele><time>2026-04-18T09:54:52.003Z</time></trkpt><trkpt lat="45.00931503320814" lon="8.45133797170115"><ele>132.0</ele><time>2026-04-18T09:54:53.003Z</time></trkpt><trkpt lat="45.009287606809835" lon="8.451213910468939"><ele>132.0</ele><time>2026-04-18T09:54:54.003Z</time></trkpt><trkpt lat="45.00923142281909" lon="8.451086168419824"><ele>132.0</ele><time>2026-04-18T09:54:55.003Z</time></trkpt><trkpt lat="45.00915984376945" lon="8.450960643344539"><ele>132.0</ele><time>2026-04-18T09:54:56.003Z</time></trkpt><trkpt lat="45.00908642177563" lon="8.450833156822105"><ele>132.0</ele><time>2026-04-18T09:54:57.003Z</time></trkpt><trkpt lat="45.0090072375797" lon="8.450702724568389"><ele>132.0</ele><time>2026-04-18T09:54:58.003Z</time></trkpt><trkpt lat="45.008921923992396" lon="8.45057389892667"><ele>132.0</ele><time>2026-04-18T09:54:59.003Z</time></trkpt><trkpt lat="45.00884109172744" lon="8.450459669170565"><ele>132.0</ele><time>2026-04-18T09:55:00.001Z</time></trkpt><trkpt lat="45.00874414524938" lon="8.450348891645666"><ele>132.0</ele><time>2026-04-18T09:55:01.001Z</time></trkpt><trkpt lat="45.00864902834561" lon="8.450237352727143"><ele>132.0</ele><time>2026-04-18T09:55:02.001Z</time></trkpt><trkpt lat="45.008560437868624" lon="8.450132173037474"><ele>132.0</ele><time>2026-04-18T09:55:03.001Z</time></trkpt><trkpt lat="45.00847308093625" lon="8.45003434927059"><ele>132.0</ele><time>2026-04-18T09:55:04.001Z</time></trkpt><trkpt lat="45.008393413778855" lon="8.449941134773594"><ele>132.0</ele><time>2026-04-18T09:55:05.001Z</time></trkpt><trkpt lat="45.008315967582845" lon="8.449851816387365"><ele>132.0</ele><time>2026-04-18T09:55:06.001Z</time></trkpt><trkpt lat="45.008256706140465" lon="8.449763120497174"><ele>132.2</ele><time>2026-04-18T09:55:07.001Z</time></trkpt><trkpt lat="45.00821218946149" lon="8.449686299838739"><ele>132.39999999999998</ele><time>2026-04-18T09:55:08.001Z</time></trkpt><trkpt lat="45.00817107151959" lon="8.449561853039514"><ele>132.60000000000002</ele><time>2026-04-18T09:55:10.001Z</time></trkpt><trkpt lat="45.008193130324244" lon="8.449384892821895"><ele>132.8</ele><time>2026-04-18T09:55:12.001Z</time></trkpt><trkpt lat="45.00823453046531" lon="8.44929128489473"><ele>133.0</ele><time>2026-04-18T09:55:13.001Z</time></trkpt><trkpt lat="45.00828087427894" lon="8.449204146365329"><ele>133.33333333333334</ele><time>2026-04-18T09:55:14.001Z</time></trkpt><trkpt lat="45.008328366789534" lon="8.449108953439621"><ele>133.66666666666669</ele><time>2026-04-18T09:55:15.001Z</time></trkpt><trkpt lat="45.0083757843443" lon="8.449004782447236"><ele>134.0</ele><time>2026-04-18T09:55:16.001Z</time></trkpt><trkpt lat="45.00842525141645" lon="8.448903240967962"><ele>134.33333333333334</ele><time>2026-04-18T09:55:17.001Z</time></trkpt><trkpt lat="45.0084782998638" lon="8.448803071606386"><ele>134.66666666666666</ele><time>2026-04-18T09:55:18.001Z</time></trkpt><trkpt lat="45.00852446399499" lon="8.44870658497283"><ele>135.0</ele><time>2026-04-18T09:55:19.001Z</time></trkpt><trkpt lat="45.00857198363142" lon="8.44861590338911"><ele>135.33333333333334</ele><time>2026-04-18T09:55:20.001Z</time></trkpt><trkpt lat="45.00862378083683" lon="8.448518575688391"><ele>135.66666666666666</ele><time>2026-04-18T09:55:21.001Z</time></trkpt><trkpt lat="45.00867757932283" lon="8.448418179004284"><ele>136.0</ele><time>2026-04-18T09:55:22.001Z</time></trkpt><trkpt lat="45.008732138091496" lon="8.448320510429598"><ele>136.33333333333331</ele><time>2026-04-18T09:55:23.001Z</time></trkpt><trkpt lat="45.008787825582864" lon="8.448245004829564"><ele>136.66666666666666</ele><time>2026-04-18T09:55:24.001Z</time></trkpt><trkpt lat="45.008843869599026" lon="8.448184679051558"><ele>137.0</ele><time>2026-04-18T09:55:25.001Z</time></trkpt><trkpt lat="45.00889566011223" lon="8.448121106989724"><ele>137.0</ele><time>2026-04-18T09:55:26.001Z</time></trkpt><trkpt lat="45.0089866128705" lon="8.448013278945671"><ele>137.0</ele><time>2026-04-18T09:55:28.001Z</time></trkpt><trkpt lat="45.00905115718796" lon="8.447906123830515"><ele>137.0</ele><time>2026-04-18T09:55:30.001Z</time></trkpt><trkpt lat="45.009059016248656" lon="8.447810471443079"><ele>137.0</ele><time>2026-04-18T09:55:33.001Z</time></trkpt><trkpt lat="45.009000958057904" lon="8.447736745646884"><ele>137.0</ele><time>2026-04-18T09:55:35.001Z</time></trkpt><trkpt lat="45.00893215702625" lon="8.447723456333993"><ele>137.0</ele><time>2026-04-18T09:55:36.001Z</time></trkpt><trkpt lat="45.00887048308291" lon="8.447687497302239"><ele>138.2</ele><time>2026-04-18T09:55:37.001Z</time></trkpt><trkpt lat="45.00878783871738" lon="8.447644025240201"><ele>139.39999999999998</ele><time>2026-04-18T09:55:38.001Z</time></trkpt><trkpt lat="45.008695224782024" lon="8.447587851305956"><ele>140.60000000000002</ele><time>2026-04-18T09:55:39.001Z</time></trkpt><trkpt lat="45.00860266191562" lon="8.447533703248107"><ele>141.8</ele><time>2026-04-18T09:55:40.001Z</time></trkpt><trkpt lat="45.00849452455395" lon="8.447470173802062"><ele>143.0</ele><time>2026-04-18T09:55:41.001Z</time></trkpt><trkpt lat="45.00839064094681" lon="8.447408075914435"><ele>142.25</ele><time>2026-04-18T09:55:42.001Z</time></trkpt><trkpt lat="45.00828674610616" lon="8.447345795231634"><ele>141.5</ele><time>2026-04-18T09:55:43.001Z</time></trkpt><trkpt lat="45.008174276174564" lon="8.447286601665684"><ele>140.75</ele><time>2026-04-18T09:55:44.001Z</time></trkpt><trkpt lat="45.008060294043325" lon="8.447234930292872"><ele>140.0</ele><time>2026-04-18T09:55:45.001Z</time></trkpt><trkpt lat="45.007927321577164" lon="8.44717108696226"><ele>140.4</ele><time>2026-04-18T09:55:46.001Z</time></trkpt><trkpt lat="45.007805781538835" lon="8.447118432528566"><ele>140.8</ele><time>2026-04-18T09:55:47.001Z</time></trkpt><trkpt lat="45.0077082832953" lon="8.447076403134004"><ele>141.2</ele><time>2026-04-18T09:55:48.001Z</time></trkpt><trkpt lat="45.00761681752666" lon="8.447052489356288"><ele>141.6</ele><time>2026-04-18T09:55:49.001Z</time></trkpt><trkpt lat="45.00751223600197" lon="8.44704629383815"><ele>142.0</ele><time>2026-04-18T09:55:50.001Z</time></trkpt><trkpt lat="45.00740322741481" lon="8.44704661913158"><ele>142.0</ele><time>2026-04-18T09:55:51.001Z</time></trkpt><trkpt lat="45.00730402434594" lon="8.447044698277429"><ele>142.0</ele><time>2026-04-18T09:55:52.001Z</time></trkpt><trkpt lat="45.007226627389684" lon="8.447059888538222"><ele>142.0</ele><time>2026-04-18T09:55:53.001Z</time></trkpt><trkpt lat="45.00714037701187" lon="8.447085318396388"><ele>142.0</ele><time>2026-04-18T09:55:54.001Z</time></trkpt><trkpt lat="45.00706433264592" lon="8.447143254266678"><ele>142.0</ele><time>2026-04-18T09:55:55.001Z</time></trkpt><trkpt lat="45.00700312289622" lon="8.447230938426053"><ele>142.0</ele><time>2026-04-18T09:55:56.001Z</time></trkpt><trkpt lat="45.006947011540326" lon="8.447337675003386"><ele>141.0</ele><time>2026-04-18T09:55:57.001Z</time></trkpt><trkpt lat="45.00689278048834" lon="8.44743598071196"><ele>140.0</ele><time>2026-04-18T09:55:58.001Z</time></trkpt><trkpt lat="45.00683498098277" lon="8.447481930061754"><ele>139.0</ele><time>2026-04-18T09:55:59.001Z</time></trkpt><trkpt lat="45.00675131120482" lon="8.447487744337746"><ele>138.0</ele><time>2026-04-18T09:56:00.001Z</time></trkpt><trkpt lat="45.00665655159587" lon="8.447462735220347"><ele>137.0</ele><time>2026-04-18T09:56:01.001Z</time></trkpt><trkpt lat="45.00657002540953" lon="8.4473846398469"><ele>136.0</ele><time>2026-04-18T09:56:02.001Z</time></trkpt><trkpt lat="45.00646543090492" lon="8.447333252131301"><ele>136.0</ele><time>2026-04-18T09:56:03.001Z</time></trkpt><trkpt lat="45.006372530287415" lon="8.44724835163711"><ele>136.0</ele><time>2026-04-18T09:56:04.001Z</time></trkpt><trkpt lat="45.006275701523684" lon="8.447173058155249"><ele>136.0</ele><time>2026-04-18T09:56:05.001Z</time></trkpt><trkpt lat="45.00617313607496" lon="8.447101060768814"><ele>136.0</ele><time>2026-04-18T09:56:06.001Z</time></trkpt><trkpt lat="45.006060416411735" lon="8.447028574533533"><ele>136.25</ele><time>2026-04-18T09:56:07.001Z</time></trkpt><trkpt lat="45.00594841119083" lon="8.446937681445513"><ele>136.5</ele><time>2026-04-18T09:56:08.001Z</time></trkpt><trkpt lat="45.00583582274327" lon="8.44684766469253"><ele>136.75</ele><time>2026-04-18T09:56:09.001Z</time></trkpt><trkpt lat="45.00573600551138" lon="8.446764630883534"><ele>137.0</ele><time>2026-04-18T09:56:10.001Z</time></trkpt><trkpt lat="45.00563454261198" lon="8.44669377546717"><ele>137.0</ele><time>2026-04-18T09:56:11.002Z</time></trkpt><trkpt lat="45.00552562572046" lon="8.446649673328144"><ele>137.0</ele><time>2026-04-18T09:56:12.002Z</time></trkpt><trkpt lat="45.00542919776486" lon="8.44660313794402"><ele>137.0</ele><time>2026-04-18T09:56:13.002Z</time></trkpt><trkpt lat="45.00534533619076" lon="8.446568149287247"><ele>137.0</ele><time>2026-04-18T09:56:14.002Z</time></trkpt><trkpt lat="45.00524638977597" lon="8.446539277223849"><ele>137.0</ele><time>2026-04-18T09:56:15.002Z</time></trkpt><trkpt lat="45.00513088410227" lon="8.446522937738942"><ele>137.0</ele><time>2026-04-18T09:56:16.002Z</time></trkpt><trkpt lat="45.005007817664314" lon="8.446527284090683"><ele>137.0</ele><time>2026-04-18T09:56:17.002Z</time></trkpt><trkpt lat="45.00491584305173" lon="8.446544289800846"><ele>137.0</ele><time>2026-04-18T09:56:18.002Z</time></trkpt><trkpt lat="45.004808301385864" lon="8.446563161316098"><ele>137.0</ele><time>2026-04-18T09:56:19.002Z</time></trkpt><trkpt lat="45.0046931578073" lon="8.4465603185433"><ele>137.0</ele><time>2026-04-18T09:56:20.002Z</time></trkpt><trkpt lat="45.004568066628835" lon="8.446551380088568"><ele>136.75</ele><time>2026-04-18T09:56:21.002Z</time></trkpt><trkpt lat="45.0044365957675" lon="8.4465437690599"><ele>136.5</ele><time>2026-04-18T09:56:22.002Z</time></trkpt><trkpt lat="45.00431545660808" lon="8.446533466802064"><ele>136.25</ele><time>2026-04-18T09:56:23.002Z</time></trkpt><trkpt lat="45.004203095992025" lon="8.44652792656914"><ele>136.0</ele><time>2026-04-18T09:56:24.002Z</time></trkpt><trkpt lat="45.004079318993774" lon="8.446518536693272"><ele>136.0</ele><time>2026-04-18T09:56:25.002Z</time></trkpt><trkpt lat="45.003959274286416" lon="8.44651641003336"><ele>136.0</ele><time>2026-04-18T09:56:26.002Z</time></trkpt><trkpt lat="45.003833882289946" lon="8.446506103443221"><ele>136.0</ele><time>2026-04-18T09:56:27.002Z</time></trkpt><trkpt lat="45.00370088700217" lon="8.446496353191364"><ele>136.0</ele><time>2026-04-18T09:56:28.002Z</time></trkpt><trkpt lat="45.003566045533184" lon="8.446487800097229"><ele>136.0</ele><time>2026-04-18T09:56:29.002Z</time></trkpt><trkpt lat="45.00342913386434" lon="8.4464795247177"><ele>136.0</ele><time>2026-04-18T09:56:30.002Z</time></trkpt><trkpt lat="45.003286130681566" lon="8.446472428613317"><ele>136.0</ele><time>2026-04-18T09:56:31.002Z</time></trkpt><trkpt lat="45.003154857165306" lon="8.446468588109234"><ele>136.0</ele><time>2026-04-18T09:56:32.002Z</time></trkpt><trkpt lat="45.00302861292974" lon="8.4464693791504"><ele>135.0</ele><time>2026-04-18T09:56:33.002Z</time></trkpt><trkpt lat="45.00291205776118" lon="8.446454807767502"><ele>134.0</ele><time>2026-04-18T09:56:34.002Z</time></trkpt><trkpt lat="45.00278684134053" lon="8.446447932686594"><ele>133.0</ele><time>2026-04-18T09:56:35.002Z</time></trkpt><trkpt lat="45.002665541574" lon="8.446442370978353"><ele>132.0</ele><time>2026-04-18T09:56:36.002Z</time></trkpt><trkpt lat="45.002563964242334" lon="8.446425686109313"><ele>131.83333333333334</ele><time>2026-04-18T09:56:37.002Z</time></trkpt><trkpt lat="45.00248346200088" lon="8.446365742681671"><ele>131.66666666666666</ele><time>2026-04-18T09:56:38.002Z</time></trkpt><trkpt lat="45.00242441997106" lon="8.446294031728282"><ele>131.5</ele><time>2026-04-18T09:56:39.002Z</time></trkpt><trkpt lat="45.00237689058584" lon="8.446208172796332"><ele>131.33333333333331</ele><time>2026-04-18T09:56:40.002Z</time></trkpt><trkpt lat="45.00233573166343" lon="8.44609496221426"><ele>131.16666666666666</ele><time>2026-04-18T09:56:41.002Z</time></trkpt><trkpt lat="45.002279155087976" lon="8.445967023946151"><ele>131.0</ele><time>2026-04-18T09:56:42.002Z</time></trkpt><trkpt lat="45.002209515577675" lon="8.44584571213195"><ele>131.75</ele><time>2026-04-18T09:56:43.002Z</time></trkpt><trkpt lat="45.00215890918418" lon="8.445689662002284"><ele>132.5</ele><time>2026-04-18T09:56:44.002Z</time></trkpt><trkpt lat="45.002093280775306" lon="8.445547057483992"><ele>133.25</ele><time>2026-04-18T09:56:45.002Z</time></trkpt><trkpt lat="45.00202699461361" lon="8.445416153152618"><ele>134.0</ele><time>2026-04-18T09:56:46.002Z</time></trkpt><trkpt lat="45.00196743627632" lon="8.445287632581776"><ele>134.0</ele><time>2026-04-18T09:56:47.002Z</time></trkpt><trkpt lat="45.00190918726092" lon="8.445163431357315"><ele>134.0</ele><time>2026-04-18T09:56:48.002Z</time></trkpt><trkpt lat="45.001847585873804" lon="8.445034669445231"><ele>134.0</ele><time>2026-04-18T09:56:49.002Z</time></trkpt><trkpt lat="45.001779981985244" lon="8.444910208014775"><ele>134.0</ele><time>2026-04-18T09:56:50.002Z</time></trkpt><trkpt lat="45.00171092542863" lon="8.44480067455243"><ele>134.0</ele><time>2026-04-18T09:56:51.002Z</time></trkpt><trkpt lat="45.001642329138775" lon="8.444706466917054"><ele>134.0</ele><time>2026-04-18T09:56:52.002Z</time></trkpt><trkpt lat="45.001575381650206" lon="8.444608894637625"><ele>134.0</ele><time>2026-04-18T09:56:53.002Z</time></trkpt><trkpt lat="45.001517863101576" lon="8.444498773989137"><ele>134.0</ele><time>2026-04-18T09:56:54.002Z</time></trkpt><trkpt lat="45.001464758384074" lon="8.444412041129402"><ele>134.0</ele><time>2026-04-18T09:56:55.002Z</time></trkpt><trkpt lat="45.00141899868215" lon="8.444338174963884"><ele>134.0</ele><time>2026-04-18T09:56:56.002Z</time></trkpt><trkpt lat="45.00132350047617" lon="8.444202571560506"><ele>134.0</ele><time>2026-04-18T09:56:58.003Z</time></trkpt><trkpt lat="45.00126806121635" lon="8.444113509526954"><ele>134.0</ele><time>2026-04-18T09:56:59.003Z</time></trkpt><trkpt lat="45.00120995152758" lon="8.444023869964118"><ele>134.0</ele><time>2026-04-18T09:57:00.003Z</time></trkpt><trkpt lat="45.0011442859232" lon="8.443938062488956"><ele>134.0</ele><time>2026-04-18T09:57:01.003Z</time></trkpt><trkpt lat="45.001074762737495" lon="8.443858366637432"><ele>134.0</ele><time>2026-04-18T09:57:02.003Z</time></trkpt><trkpt lat="45.00098826934533" lon="8.443753379368927"><ele>134.25</ele><time>2026-04-18T09:57:03.003Z</time></trkpt><trkpt lat="45.00090197302952" lon="8.443648462534377"><ele>134.5</ele><time>2026-04-18T09:57:04.003Z</time></trkpt><trkpt lat="45.00081927021787" lon="8.443541678059484"><ele>134.75</ele><time>2026-04-18T09:57:05.003Z</time></trkpt><trkpt lat="45.00070858586354" lon="8.443466632051258"><ele>135.0</ele><time>2026-04-18T09:57:06Z</time></trkpt><trkpt lat="45.00060029983594" lon="8.443390399843615"><ele>135.0</ele><time>2026-04-18T09:57:07Z</time></trkpt><trkpt lat="45.00048769969582" lon="8.443318493997667"><ele>135.0</ele><time>2026-04-18T09:57:08Z</time></trkpt><trkpt lat="45.000387389557005" lon="8.443253657604968"><ele>135.0</ele><time>2026-04-18T09:57:09Z</time></trkpt><trkpt lat="45.00030270661722" lon="8.44318968562164"><ele>135.0</ele><time>2026-04-18T09:57:10Z</time></trkpt><trkpt lat="45.0002389711527" lon="8.44312958705292"><ele>135.0</ele><time>2026-04-18T09:57:11Z</time></trkpt><trkpt lat="45.000203130530906" lon="8.442997300592616"><ele>135.16666666666666</ele><time>2026-04-18T09:57:13Z</time></trkpt><trkpt lat="45.00020274993166" lon="8.44284164458434"><ele>135.33333333333334</ele><time>2026-04-18T09:57:15Z</time></trkpt><trkpt lat="45.000204015513155" lon="8.442744329928203"><ele>135.5</ele><time>2026-04-18T09:57:16Z</time></trkpt><trkpt lat="45.000198057383486" lon="8.442636497980413"><ele>135.66666666666669</ele><time>2026-04-18T09:57:17Z</time></trkpt><trkpt lat="45.000201565035496" lon="8.442521105815391"><ele>135.83333333333334</ele><time>2026-04-18T09:57:18Z</time></trkpt><trkpt lat="45.00020649351981" lon="8.442398425944692"><ele>136.0</ele><time>2026-04-18T09:57:19Z</time></trkpt><trkpt lat="45.00020719651848" lon="8.442264103748801"><ele>136.6</ele><time>2026-04-18T09:57:20Z</time></trkpt><trkpt lat="45.000208702729964" lon="8.442130822770473"><ele>137.2</ele><time>2026-04-18T09:57:21Z</time></trkpt><trkpt lat="45.000214358553244" lon="8.441998719142525"><ele>137.8</ele><time>2026-04-18T09:57:22Z</time></trkpt><trkpt lat="45.00021852297731" lon="8.441865450286597"><ele>138.4</ele><time>2026-04-18T09:57:23Z</time></trkpt><trkpt lat="45.00022967341026" lon="8.441732254760666"><ele>139.0</ele><time>2026-04-18T09:57:24Z</time></trkpt><trkpt lat="45.000239509499345" lon="8.441614429027164"><ele>139.0</ele><time>2026-04-18T09:57:25Z</time></trkpt><trkpt lat="45.000253297790024" lon="8.441520936619328"><ele>139.0</ele><time>2026-04-18T09:57:26Z</time></trkpt><trkpt lat="45.00027687959204" lon="8.441390543705104"><ele>139.0</ele><time>2026-04-18T09:57:28Z</time></trkpt><trkpt lat="45.000299634610506" lon="8.441252980377293"><ele>139.0</ele><time>2026-04-18T09:57:31.001Z</time></trkpt><trkpt lat="45.00033533863597" lon="8.441097058764571"><ele>139.0</ele><time>2026-04-18T09:57:33.001Z</time></trkpt><trkpt lat="45.00035806480559" lon="8.441010675763806"><ele>139.0</ele><time>2026-04-18T09:57:34.001Z</time></trkpt><trkpt lat="45.00039136235394" lon="8.44089464870313"><ele>139.4</ele><time>2026-04-18T09:57:36.001Z</time></trkpt><trkpt lat="45.00038533399369" lon="8.440804892438969"><ele>139.8</ele><time>2026-04-18T09:57:39.001Z</time></trkpt><trkpt lat="45.00035109551159" lon="8.44072241887381"><ele>140.2</ele><time>2026-04-18T09:58:06.001Z</time></trkpt><trkpt lat="45.00022992973449" lon="8.440829602737946"><ele>140.6</ele><time>2026-04-18T09:58:07.001Z</time></trkpt><trkpt lat="45.000108806733756" lon="8.44092484509373"><ele>141.0</ele><time>2026-04-18T09:58:09.001Z</time></trkpt><trkpt lat="45.00002139993862" lon="8.440968162922635"><ele>141.0</ele><time>2026-04-18T09:58:10.001Z</time></trkpt><trkpt lat="44.99993015138385" lon="8.441005661164038"><ele>141.0</ele><time>2026-04-18T09:58:11.001Z</time></trkpt><trkpt lat="44.99982463697924" lon="8.44104949300283"><ele>141.0</ele><time>2026-04-18T09:58:12.001Z</time></trkpt><trkpt lat="44.999698245085206" lon="8.44110879306184"><ele>141.0</ele><time>2026-04-18T09:58:13.001Z</time></trkpt><trkpt lat="44.9995763440501" lon="8.441161902319006"><ele>141.0</ele><time>2026-04-18T09:58:14.001Z</time></trkpt><trkpt lat="44.99944516698995" lon="8.441219775612648"><ele>141.0</ele><time>2026-04-18T09:58:15.001Z</time></trkpt><trkpt lat="44.99929421318375" lon="8.44128130671476"><ele>141.0</ele><time>2026-04-18T09:58:16.001Z</time></trkpt><trkpt lat="44.999127582656556" lon="8.441341846335785"><ele>140.33333333333334</ele><time>2026-04-18T09:58:17.001Z</time></trkpt><trkpt lat="44.99895325672919" lon="8.441407070928694"><ele>139.66666666666669</ele><time>2026-04-18T09:58:18.001Z</time></trkpt><trkpt lat="44.99877979607157" lon="8.441475252337007"><ele>139.0</ele><time>2026-04-18T09:58:19.001Z</time></trkpt><trkpt lat="44.99859969593543" lon="8.441571391493449"><ele>139.0</ele><time>2026-04-18T09:58:20.001Z</time></trkpt><trkpt lat="44.99849501774263" lon="8.441633043363696"><ele>139.0</ele><time>2026-04-18T09:58:22.002Z</time></trkpt><trkpt lat="44.9983819371261" lon="8.441680175901993"><ele>139.0</ele><time>2026-04-18T09:58:23.002Z</time></trkpt><trkpt lat="44.998283850206725" lon="8.441717324599507"><ele>139.0</ele><time>2026-04-18T09:58:24.002Z</time></trkpt><trkpt lat="44.99820888858581" lon="8.441755585917203"><ele>139.0</ele><time>2026-04-18T09:58:25.002Z</time></trkpt><trkpt lat="44.99810998307632" lon="8.441801498438137"><ele>138.83333333333334</ele><time>2026-04-18T09:58:27.002Z</time></trkpt><trkpt lat="44.99803100205473" lon="8.441828850785235"><ele>138.66666666666669</ele><time>2026-04-18T09:58:30.002Z</time></trkpt><trkpt lat="44.99796535401403" lon="8.441761229401937"><ele>138.5</ele><time>2026-04-18T09:58:32.002Z</time></trkpt><trkpt lat="44.997921544743015" lon="8.441690239282932"><ele>138.33333333333334</ele><time>2026-04-18T09:58:33.002Z</time></trkpt><trkpt lat="44.997858326366824" lon="8.441593804177051"><ele>138.16666666666666</ele><time>2026-04-18T09:58:34.002Z</time></trkpt><trkpt lat="44.99777648926396" lon="8.441497324455598"><ele>138.0</ele><time>2026-04-18T09:58:35.002Z</time></trkpt><trkpt lat="44.99768824313279" lon="8.441407781735903"><ele>138.0</ele><time>2026-04-18T09:58:36.002Z</time></trkpt><trkpt lat="44.99759518092916" lon="8.441318954802421"><ele>138.0</ele><time>2026-04-18T09:58:37.002Z</time></trkpt><trkpt lat="44.997504325131715" lon="8.441234954068387"><ele>138.0</ele><time>2026-04-18T09:58:38.002Z</time></trkpt><trkpt lat="44.99743320280845" lon="8.441177608928834"><ele>138.0</ele><time>2026-04-18T09:58:39.002Z</time></trkpt><trkpt lat="44.997356845987305" lon="8.441103234066313"><ele>138.0</ele><time>2026-04-18T09:58:41.002Z</time></trkpt><trkpt lat="44.99743942166879" lon="8.441229770622023"><ele>138.0</ele><time>2026-04-18T09:58:58.002Z</time></trkpt><trkpt lat="44.99751650974175" lon="8.441275024783332"><ele>138.0</ele><time>2026-04-18T09:59:00.002Z</time></trkpt><trkpt lat="44.99758359379187" lon="8.441336627867408"><ele>138.0</ele><time>2026-04-18T09:59:03.002Z</time></trkpt><trkpt lat="44.997634262019744" lon="8.441402830387288"><ele>138.0</ele><time>2026-04-18T09:59:05.002Z</time></trkpt><trkpt lat="44.99771549426962" lon="8.44148005641121"><ele>138.0</ele><time>2026-04-18T09:59:07.002Z</time></trkpt><trkpt lat="44.99778706916005" lon="8.441542532965977"><ele>138.0</ele><time>2026-04-18T09:59:09.002Z</time></trkpt><trkpt lat="44.99785089978147" lon="8.441588960298292"><ele>138.0</ele><time>2026-04-18T09:59:14Z</time></trkpt><trkpt lat="44.997892034715456" lon="8.441672683057092"><ele>138.0</ele><time>2026-04-18T09:59:16Z</time></trkpt><trkpt lat="44.99795569560002" lon="8.441795647548144"><ele>138.0</ele><time>2026-04-18T09:59:18Z</time></trkpt><trkpt lat="44.99798565439396" lon="8.441877532578554"><ele>138.0</ele><time>2026-04-18T09:59:20Z</time></trkpt><trkpt lat="44.99805600996104" lon="8.44189710297156"><ele>138.0</ele><time>2026-04-18T09:59:24Z</time></trkpt><trkpt lat="44.99803718026542" lon="8.441804580200836"><ele>138.0</ele><time>2026-04-18T09:59:27Z</time></trkpt><trkpt lat="44.997961335033374" lon="8.441732007987895"><ele>138.0</ele><time>2026-04-18T09:59:29Z</time></trkpt><trkpt lat="44.99786360443217" lon="8.441644589319658"><ele>138.0</ele><time>2026-04-18T09:59:31Z</time></trkpt><trkpt lat="44.997752708683024" lon="8.441583041860564"><ele>138.0</ele><time>2026-04-18T09:59:33Z</time></trkpt><trkpt lat="44.99768162725437" lon="8.441566173128136"><ele>138.0</ele><time>2026-04-18T09:59:34Z</time></trkpt><trkpt lat="44.997598183187726" lon="8.441545775014257"><ele>138.0</ele><time>2026-04-18T09:59:35Z</time></trkpt><trkpt lat="44.99751286349051" lon="8.441520791925774"><ele>138.0</ele><time>2026-04-18T09:59:36Z</time></trkpt><trkpt lat="44.99742283000111" lon="8.441494893495166"><ele>138.0</ele><time>2026-04-18T09:59:37Z</time></trkpt><trkpt lat="44.99733283396945" lon="8.44147062904095"><ele>138.0</ele><time>2026-04-18T09:59:38Z</time></trkpt><trkpt lat="44.997229972806345" lon="8.44145378655864"><ele>138.0</ele><time>2026-04-18T09:59:39Z</time></trkpt><trkpt lat="44.99713707865156" lon="8.4414462229186"><ele>138.0</ele><time>2026-04-18T09:59:40Z</time></trkpt><trkpt lat="44.997036603848684" lon="8.441440023440727"><ele>138.0</ele><time>2026-04-18T09:59:41Z</time></trkpt><trkpt lat="44.99693104693668" lon="8.441427649058598"><ele>138.0</ele><time>2026-04-18T09:59:42Z</time></trkpt><trkpt lat="44.99682355151941" lon="8.441419564551646"><ele>138.0</ele><time>2026-04-18T09:59:43Z</time></trkpt><trkpt lat="44.99671954110585" lon="8.441416131046955"><ele>138.0</ele><time>2026-04-18T09:59:44Z</time></trkpt><trkpt lat="44.99661116184392" lon="8.441404358220044"><ele>138.0</ele><time>2026-04-18T09:59:45Z</time></trkpt><trkpt lat="44.996500617944434" lon="8.441384149760873"><ele>137.25</ele><time>2026-04-18T09:59:46Z</time></trkpt><trkpt lat="44.996385604817924" lon="8.44135492541455"><ele>136.5</ele><time>2026-04-18T09:59:47Z</time></trkpt><trkpt lat="44.996273046079466" lon="8.4413204661831"><ele>135.75</ele><time>2026-04-18T09:59:48Z</time></trkpt><trkpt lat="44.99616389062524" lon="8.441280362408989"><ele>135.0</ele><time>2026-04-18T09:59:49Z</time></trkpt><trkpt lat="44.99605656073538" lon="8.44123143937344"><ele>136.5</ele><time>2026-04-18T09:59:50Z</time></trkpt><trkpt lat="44.99595501078692" lon="8.441171119413843"><ele>138.0</ele><time>2026-04-18T09:59:51Z</time></trkpt><trkpt lat="44.99584898331704" lon="8.441104174589448"><ele>139.5</ele><time>2026-04-18T09:59:52.001Z</time></trkpt><trkpt lat="44.99574240989251" lon="8.44103618362871"><ele>141.0</ele><time>2026-04-18T09:59:53.001Z</time></trkpt><trkpt lat="44.99563465563703" lon="8.440964386899136"><ele>141.0</ele><time>2026-04-18T09:59:54.001Z</time></trkpt><trkpt lat="44.995536770183406" lon="8.440896402627411"><ele>141.0</ele><time>2026-04-18T09:59:55.001Z</time></trkpt><trkpt lat="44.995429708687396" lon="8.440833119742683"><ele>141.0</ele><time>2026-04-18T09:59:56.001Z</time></trkpt><trkpt lat="44.99531632178009" lon="8.440770711741612"><ele>141.0</ele><time>2026-04-18T09:59:57.001Z</time></trkpt><trkpt lat="44.99520816019829" lon="8.440713173650101"><ele>141.0</ele><time>2026-04-18T09:59:58.001Z</time></trkpt><trkpt lat="44.99511810302163" lon="8.440662517387594"><ele>141.0</ele><time>2026-04-18T09:59:59.001Z</time></trkpt><trkpt lat="44.99501826546389" lon="8.440604736976724"><ele>141.0</ele><time>2026-04-18T10:00:00.001Z</time></trkpt><trkpt lat="44.994909938203385" lon="8.440541014219983"><ele>141.0</ele><time>2026-04-18T10:00:01.001Z</time></trkpt><trkpt lat="44.99480365543629" lon="8.440470331497101"><ele>141.0</ele><time>2026-04-18T10:00:02.001Z</time></trkpt><trkpt lat="44.99470806825292" lon="8.440407431208634"><ele>141.0</ele><time>2026-04-18T10:00:03.001Z</time></trkpt><trkpt lat="44.99460827101344" lon="8.440332838244364"><ele>141.0</ele><time>2026-04-18T10:00:04.001Z</time></trkpt><trkpt lat="44.9944987102649" lon="8.440251687801597"><ele>141.0</ele><time>2026-04-18T10:00:05.001Z</time></trkpt><trkpt lat="44.99438365841244" lon="8.440171504250339"><ele>141.0</ele><time>2026-04-18T10:00:06.001Z</time></trkpt><trkpt lat="44.9942588920305" lon="8.440109162915332"><ele>140.25</ele><time>2026-04-18T10:00:07.001Z</time></trkpt><trkpt lat="44.9941314667337" lon="8.440061687234538"><ele>139.5</ele><time>2026-04-18T10:00:08.001Z</time></trkpt><trkpt lat="44.994010034298704" lon="8.440019138067695"><ele>138.75</ele><time>2026-04-18T10:00:09.001Z</time></trkpt><trkpt lat="44.99388714171576" lon="8.439978234012365"><ele>138.0</ele><time>2026-04-18T10:00:10.001Z</time></trkpt><trkpt lat="44.99375983347986" lon="8.439930796808042"><ele>138.0</ele><time>2026-04-18T10:00:11.001Z</time></trkpt><trkpt lat="44.993633596901134" lon="8.439881039168185"><ele>138.0</ele><time>2026-04-18T10:00:12.001Z</time></trkpt><trkpt lat="44.99351202814304" lon="8.439822327703236"><ele>138.0</ele><time>2026-04-18T10:00:13.001Z</time></trkpt><trkpt lat="44.99339764798198" lon="8.439765927706551"><ele>138.0</ele><time>2026-04-18T10:00:14.001Z</time></trkpt><trkpt lat="44.99329496090123" lon="8.439719864120642"><ele>138.0</ele><time>2026-04-18T10:00:15.001Z</time></trkpt><trkpt lat="44.99319755286579" lon="8.439698963683936"><ele>138.0</ele><time>2026-04-18T10:00:16.001Z</time></trkpt><trkpt lat="44.9930882599916" lon="8.439689673666887"><ele>138.0</ele><time>2026-04-18T10:00:17.001Z</time></trkpt><trkpt lat="44.99298558028496" lon="8.43964794676284"><ele>138.0</ele><time>2026-04-18T10:00:18.001Z</time></trkpt><trkpt lat="44.99290623997313" lon="8.439581545868176"><ele>138.0</ele><time>2026-04-18T10:00:19.001Z</time></trkpt><trkpt lat="44.99282595155795" lon="8.439502070415411"><ele>138.0</ele><time>2026-04-18T10:00:20.001Z</time></trkpt><trkpt lat="44.99275179864756" lon="8.439440128400124"><ele>138.0</ele><time>2026-04-18T10:00:21.001Z</time></trkpt><trkpt lat="44.992678064684746" lon="8.439359795239596"><ele>138.0</ele><time>2026-04-18T10:00:22.001Z</time></trkpt><trkpt lat="44.99259504494022" lon="8.439264653213858"><ele>138.0</ele><time>2026-04-18T10:00:23.001Z</time></trkpt><trkpt lat="44.99251014893441" lon="8.4391621625287"><ele>138.0</ele><time>2026-04-18T10:00:24.001Z</time></trkpt><trkpt lat="44.992418607146874" lon="8.439056026378537"><ele>138.0</ele><time>2026-04-18T10:00:25.001Z</time></trkpt><trkpt lat="44.99232445541309" lon="8.438932782914852"><ele>138.0</ele><time>2026-04-18T10:00:26.001Z</time></trkpt><trkpt lat="44.992233179636806" lon="8.438798839968001"><ele>138.0</ele><time>2026-04-18T10:00:27.001Z</time></trkpt><trkpt lat="44.99214798743226" lon="8.43866006125007"><ele>138.0</ele><time>2026-04-18T10:00:28.001Z</time></trkpt><trkpt lat="44.99206333655486" lon="8.438511894086623"><ele>138.75</ele><time>2026-04-18T10:00:29.001Z</time></trkpt><trkpt lat="44.99198213294116" lon="8.438382085575716"><ele>139.5</ele><time>2026-04-18T10:00:30.001Z</time></trkpt><trkpt lat="44.99189118259858" lon="8.438250465752068"><ele>140.25</ele><time>2026-04-18T10:00:31.001Z</time></trkpt><trkpt lat="44.99180237816804" lon="8.438123057642969"><ele>141.0</ele><time>2026-04-18T10:00:32.001Z</time></trkpt><trkpt lat="44.99171467409187" lon="8.437985698593115"><ele>140.75</ele><time>2026-04-18T10:00:33.001Z</time></trkpt><trkpt lat="44.991619884325175" lon="8.437848114925268"><ele>140.5</ele><time>2026-04-18T10:00:34.001Z</time></trkpt><trkpt lat="44.9915297999556" lon="8.437716516798634"><ele>140.25</ele><time>2026-04-18T10:00:35.001Z</time></trkpt><trkpt lat="44.99143001743154" lon="8.437576888477382"><ele>140.0</ele><time>2026-04-18T10:00:36.001Z</time></trkpt><trkpt lat="44.99132913601181" lon="8.437428421060035"><ele>140.0</ele><time>2026-04-18T10:00:37.001Z</time></trkpt><trkpt lat="44.99122419016621" lon="8.437277976990787"><ele>140.0</ele><time>2026-04-18T10:00:38.001Z</time></trkpt><trkpt lat="44.9911145084081" lon="8.437121859327627"><ele>140.0</ele><time>2026-04-18T10:00:39.001Z</time></trkpt><trkpt lat="44.99101126082654" lon="8.436974690954157"><ele>140.25</ele><time>2026-04-18T10:00:40.001Z</time></trkpt><trkpt lat="44.99090888506353" lon="8.436829731634852"><ele>140.5</ele><time>2026-04-18T10:00:41.001Z</time></trkpt><trkpt lat="44.99081442175768" lon="8.43669453086361"><ele>140.75</ele><time>2026-04-18T10:00:42.002Z</time></trkpt><trkpt lat="44.99071429597421" lon="8.43655470591739"><ele>141.0</ele><time>2026-04-18T10:00:43.002Z</time></trkpt><trkpt lat="44.99064633785065" lon="8.436418204219224"><ele>140.5</ele><time>2026-04-18T10:00:44.002Z</time></trkpt><trkpt lat="44.99059441371404" lon="8.436287022798284"><ele>140.0</ele><time>2026-04-18T10:00:45.002Z</time></trkpt><trkpt lat="44.9905601947232" lon="8.436136056358475"><ele>139.5</ele><time>2026-04-18T10:00:46.002Z</time></trkpt><trkpt lat="44.99053202726273" lon="8.43596732923217"><ele>139.0</ele><time>2026-04-18T10:00:47.002Z</time></trkpt><trkpt lat="44.99049224133491" lon="8.435793463616044"><ele>139.0</ele><time>2026-04-18T10:00:48.002Z</time></trkpt><trkpt lat="44.99047234746844" lon="8.43562784419711"><ele>139.0</ele><time>2026-04-18T10:00:49.002Z</time></trkpt><trkpt lat="44.990440375462946" lon="8.435484801290414"><ele>139.0</ele><time>2026-04-18T10:00:50.002Z</time></trkpt><trkpt lat="44.990394312957356" lon="8.43534485991613"><ele>139.0</ele><time>2026-04-18T10:00:51.002Z</time></trkpt><trkpt lat="44.990326371638574" lon="8.435218482350129"><ele>139.0</ele><time>2026-04-18T10:00:52.002Z</time></trkpt><trkpt lat="44.99023634236321" lon="8.435105090217407"><ele>139.6</ele><time>2026-04-18T10:00:53.002Z</time></trkpt><trkpt lat="44.990149844924645" lon="8.434986261820637"><ele>140.2</ele><time>2026-04-18T10:00:54.002Z</time></trkpt><trkpt lat="44.990105598870876" lon="8.434844383987302"><ele>140.79999999999998</ele><time>2026-04-18T10:00:55.002Z</time></trkpt><trkpt lat="44.990076619616815" lon="8.434729611333259"><ele>141.4</ele><time>2026-04-18T10:00:56.002Z</time></trkpt><trkpt lat="44.990056723852874" lon="8.434625165588079"><ele>142.0</ele><time>2026-04-18T10:00:57.002Z</time></trkpt><trkpt lat="44.99004136027972" lon="8.434511836620915"><ele>142.4</ele><time>2026-04-18T10:00:58.002Z</time></trkpt><trkpt lat="44.990036684707036" lon="8.434376877337062"><ele>142.79999999999998</ele><time>2026-04-18T10:00:59.002Z</time></trkpt><trkpt lat="44.990042213993966" lon="8.434231332165373"><ele>143.2</ele><time>2026-04-18T10:01:00.002Z</time></trkpt><trkpt lat="44.99005843252541" lon="8.434092070769491"><ele>143.6</ele><time>2026-04-18T10:01:01.002Z</time></trkpt><trkpt lat="44.990095130617" lon="8.433945360685764"><ele>144.0</ele><time>2026-04-18T10:01:02.002Z</time></trkpt><trkpt lat="44.990122944765595" lon="8.433784867256136"><ele>144.2</ele><time>2026-04-18T10:01:03.002Z</time></trkpt><trkpt lat="44.99015923583445" lon="8.433637887720131"><ele>144.4</ele><time>2026-04-18T10:01:04.002Z</time></trkpt><trkpt lat="44.990179071482395" lon="8.43348724115936"><ele>144.6</ele><time>2026-04-18T10:01:05.002Z</time></trkpt><trkpt lat="44.9901803266646" lon="8.43333975142457"><ele>144.8</ele><time>2026-04-18T10:01:06.002Z</time></trkpt><trkpt lat="44.990157550517516" lon="8.433172410892476"><ele>145.0</ele><time>2026-04-18T10:01:07.002Z</time></trkpt><trkpt lat="44.99012394136148" lon="8.433001910281583"><ele>146.0</ele><time>2026-04-18T10:01:08.002Z</time></trkpt><trkpt lat="44.99009283276318" lon="8.432836265063528"><ele>147.0</ele><time>2026-04-18T10:01:09.002Z</time></trkpt><trkpt lat="44.99006232748482" lon="8.432662277233629"><ele>148.0</ele><time>2026-04-18T10:01:10.002Z</time></trkpt><trkpt lat="44.990035229043684" lon="8.43248356454818"><ele>149.0</ele><time>2026-04-18T10:01:11.002Z</time></trkpt><trkpt lat="44.9900150273385" lon="8.43231602153973"><ele>147.25</ele><time>2026-04-18T10:01:12.002Z</time></trkpt><trkpt lat="44.98999442557795" lon="8.432148125478484"><ele>145.5</ele><time>2026-04-18T10:01:13.002Z</time></trkpt><trkpt lat="44.989968541565396" lon="8.432004173758699"><ele>143.75</ele><time>2026-04-18T10:01:14.002Z</time></trkpt><trkpt lat="44.98994163332415" lon="8.431854076428074"><ele>142.0</ele><time>2026-04-18T10:01:15.002Z</time></trkpt><trkpt lat="44.98990941390637" lon="8.431697252692645"><ele>142.0</ele><time>2026-04-18T10:01:16.002Z</time></trkpt><trkpt lat="44.98987311413311" lon="8.431557173522123"><ele>142.0</ele><time>2026-04-18T10:01:17.002Z</time></trkpt><trkpt lat="44.98983836170778" lon="8.431412871805621"><ele>142.0</ele><time>2026-04-18T10:01:17.999Z</time></trkpt><trkpt lat="44.98980106019339" lon="8.431259456553885"><ele>142.0</ele><time>2026-04-18T10:01:18.999Z</time></trkpt><trkpt lat="44.98976159316579" lon="8.431102030776765"><ele>142.0</ele><time>2026-04-18T10:01:19.999Z</time></trkpt><trkpt lat="44.989721400264614" lon="8.430940332298505"><ele>142.5</ele><time>2026-04-18T10:01:20.999Z</time></trkpt><trkpt lat="44.98967747261908" lon="8.430773458619848"><ele>143.0</ele><time>2026-04-18T10:01:21.999Z</time></trkpt><trkpt lat="44.989625797230886" lon="8.430627373456579"><ele>143.5</ele><time>2026-04-18T10:01:22.999Z</time></trkpt><trkpt lat="44.989567493529556" lon="8.430499098568983"><ele>144.0</ele><time>2026-04-18T10:01:23.999Z</time></trkpt><trkpt lat="44.98950975270968" lon="8.430373584585423"><ele>144.0</ele><time>2026-04-18T10:01:24.999Z</time></trkpt><trkpt lat="44.989452544694394" lon="8.430241836103233"><ele>144.0</ele><time>2026-04-18T10:01:25.999Z</time></trkpt><trkpt lat="44.989404291513196" lon="8.430118301659835"><ele>144.0</ele><time>2026-04-18T10:01:26.999Z</time></trkpt><trkpt lat="44.98936145830607" lon="8.430000473872944"><ele>144.0</ele><time>2026-04-18T10:01:27.999Z</time></trkpt><trkpt lat="44.98932157586373" lon="8.429877736912408"><ele>144.0</ele><time>2026-04-18T10:01:28.999Z</time></trkpt><trkpt lat="44.989286757724116" lon="8.429740011737417"><ele>143.66666666666666</ele><time>2026-04-18T10:01:29.999Z</time></trkpt><trkpt lat="44.98926143077854" lon="8.429610367476512"><ele>143.33333333333334</ele><time>2026-04-18T10:01:30.999Z</time></trkpt><trkpt lat="44.989243624427075" lon="8.429502913067452"><ele>143.0</ele><time>2026-04-18T10:01:31.999Z</time></trkpt><trkpt lat="44.98922322199324" lon="8.42939298251607"><ele>142.66666666666669</ele><time>2026-04-18T10:01:32.999Z</time></trkpt><trkpt lat="44.98921439107786" lon="8.429298789939857"><ele>142.33333333333334</ele><time>2026-04-18T10:01:34Z</time></trkpt><trkpt lat="44.98924027694895" lon="8.429197715957459"><ele>142.0</ele><time>2026-04-18T10:01:35Z</time></trkpt><trkpt lat="44.989263075865345" lon="8.429090146285796"><ele>142.0</ele><time>2026-04-18T10:01:36Z</time></trkpt><trkpt lat="44.98930917787334" lon="8.428979813049086"><ele>142.0</ele><time>2026-04-18T10:01:37Z</time></trkpt><trkpt lat="44.98936316403607" lon="8.428870473942768"><ele>142.0</ele><time>2026-04-18T10:01:38Z</time></trkpt><trkpt lat="44.98941624474959" lon="8.428775452626324"><ele>142.0</ele><time>2026-04-18T10:01:39Z</time></trkpt><trkpt lat="44.98946321394651" lon="8.42870104225169"><ele>142.0</ele><time>2026-04-18T10:01:40Z</time></trkpt><trkpt lat="44.98952123310016" lon="8.428633692094527"><ele>142.0</ele><time>2026-04-18T10:01:41Z</time></trkpt><trkpt lat="44.98959370184151" lon="8.428577448573268"><ele>142.0</ele><time>2026-04-18T10:01:42Z</time></trkpt><trkpt lat="44.989661506505485" lon="8.428541305088139"><ele>142.0</ele><time>2026-04-18T10:01:43Z</time></trkpt><trkpt lat="44.98972949805296" lon="8.428555559469048"><ele>142.0</ele><time>2026-04-18T10:01:44Z</time></trkpt><trkpt lat="44.989794352154156" lon="8.428551609363355"><ele>142.0</ele><time>2026-04-18T10:01:45Z</time></trkpt><trkpt lat="44.98989121320552" lon="8.428518657528038"><ele>142.0</ele><time>2026-04-18T10:01:47Z</time></trkpt><trkpt lat="44.989960411356584" lon="8.428376561394511"><ele>142.0</ele><time>2026-04-18T10:01:49Z</time></trkpt><trkpt lat="44.98996297968035" lon="8.428269986046574"><ele>142.0</ele><time>2026-04-18T10:01:50Z</time></trkpt><trkpt lat="44.989947377713925" lon="8.428149632741297"><ele>142.0</ele><time>2026-04-18T10:01:51Z</time></trkpt><trkpt lat="44.98992294584608" lon="8.428015791499043"><ele>142.0</ele><time>2026-04-18T10:01:52Z</time></trkpt><trkpt lat="44.98990244538388" lon="8.42786890145384"><ele>142.0</ele><time>2026-04-18T10:01:53Z</time></trkpt><trkpt lat="44.989885037275975" lon="8.42771377710789"><ele>142.0</ele><time>2026-04-18T10:01:54Z</time></trkpt><trkpt lat="44.98985227639849" lon="8.42756141126971"><ele>143.25</ele><time>2026-04-18T10:01:55Z</time></trkpt><trkpt lat="44.98982494156033" lon="8.427402609596829"><ele>144.5</ele><time>2026-04-18T10:01:56Z</time></trkpt><trkpt lat="44.9897931822448" lon="8.427233941146575"><ele>145.75</ele><time>2026-04-18T10:01:57Z</time></trkpt><trkpt lat="44.989762899628914" lon="8.42706818580304"><ele>147.0</ele><time>2026-04-18T10:01:58Z</time></trkpt><trkpt lat="44.98974271530732" lon="8.426904810622828"><ele>147.5</ele><time>2026-04-18T10:01:59Z</time></trkpt><trkpt lat="44.989718547213975" lon="8.42674179585477"><ele>148.0</ele><time>2026-04-18T10:02:00Z</time></trkpt><trkpt lat="44.989686715704494" lon="8.426578970117383"><ele>148.5</ele><time>2026-04-18T10:02:01Z</time></trkpt><trkpt lat="44.989644836759275" lon="8.42643000919357"><ele>149.0</ele><time>2026-04-18T10:02:02Z</time></trkpt><trkpt lat="44.98958683509934" lon="8.42629195722803"><ele>149.0</ele><time>2026-04-18T10:02:03Z</time></trkpt><trkpt lat="44.989527343572036" lon="8.426153226059835"><ele>149.0</ele><time>2026-04-18T10:02:04Z</time></trkpt><trkpt lat="44.98946830602552" lon="8.426000387452566"><ele>149.0</ele><time>2026-04-18T10:02:05Z</time></trkpt><trkpt lat="44.98940807175091" lon="8.425838528962943"><ele>149.0</ele><time>2026-04-18T10:02:06.001Z</time></trkpt><trkpt lat="44.98934764875127" lon="8.42568863586573"><ele>149.0</ele><time>2026-04-18T10:02:07.001Z</time></trkpt><trkpt lat="44.98928834329802" lon="8.425545988651583"><ele>149.0</ele><time>2026-04-18T10:02:08.001Z</time></trkpt><trkpt lat="44.98922921667693" lon="8.425403036216565"><ele>149.0</ele><time>2026-04-18T10:02:09.001Z</time></trkpt><trkpt lat="44.98916957207973" lon="8.425274553703254"><ele>149.0</ele><time>2026-04-18T10:02:10.001Z</time></trkpt><trkpt lat="44.989095467079586" lon="8.425176556322155"><ele>149.0</ele><time>2026-04-18T10:02:11.001Z</time></trkpt><trkpt lat="44.98901004487144" lon="8.425063190391146"><ele>148.8</ele><time>2026-04-18T10:02:12.001Z</time></trkpt><trkpt lat="44.98892897135141" lon="8.424950874521086"><ele>148.60000000000002</ele><time>2026-04-18T10:02:13.001Z</time></trkpt><trkpt lat="44.988865558050634" lon="8.424839429189849"><ele>148.4</ele><time>2026-04-18T10:02:14.001Z</time></trkpt><trkpt lat="44.988826512887634" lon="8.424738288868141"><ele>148.20000000000002</ele><time>2026-04-18T10:02:15.001Z</time></trkpt><trkpt lat="44.988796690679386" lon="8.424617702022855"><ele>148.0</ele><time>2026-04-18T10:02:16.001Z</time></trkpt><trkpt lat="44.98876910743373" lon="8.424494663732087"><ele>148.0</ele><time>2026-04-18T10:02:17.001Z</time></trkpt><trkpt lat="44.98874818635453" lon="8.42436201188987"><ele>148.0</ele><time>2026-04-18T10:02:18.001Z</time></trkpt><trkpt lat="44.988736662170595" lon="8.424224142261872"><ele>148.0</ele><time>2026-04-18T10:02:19.001Z</time></trkpt><trkpt lat="44.98872996335943" lon="8.424077591219005"><ele>148.0</ele><time>2026-04-18T10:02:20.001Z</time></trkpt><trkpt lat="44.98873651455807" lon="8.423927376014577"><ele>148.0</ele><time>2026-04-18T10:02:21.001Z</time></trkpt><trkpt lat="44.988752855589546" lon="8.423777258263215"><ele>148.20000000000002</ele><time>2026-04-18T10:02:22.001Z</time></trkpt><trkpt lat="44.98877679466684" lon="8.423622304993103"><ele>148.4</ele><time>2026-04-18T10:02:23.001Z</time></trkpt><trkpt lat="44.988811529807734" lon="8.423485732467988"><ele>148.60000000000002</ele><time>2026-04-18T10:02:24.001Z</time></trkpt><trkpt lat="44.98885151922261" lon="8.42336868990687"><ele>148.8</ele><time>2026-04-18T10:02:25.001Z</time></trkpt><trkpt lat="44.988900131870516" lon="8.423252821666686"><ele>149.0</ele><time>2026-04-18T10:02:26.001Z</time></trkpt><trkpt lat="44.98895196065659" lon="8.423137657725013"><ele>149.0</ele><time>2026-04-18T10:02:27.001Z</time></trkpt><trkpt lat="44.988999782603805" lon="8.423032602294853"><ele>149.0</ele><time>2026-04-18T10:02:28.001Z</time></trkpt><trkpt lat="44.98903599453716" lon="8.422907111362148"><ele>149.0</ele><time>2026-04-18T10:02:29.001Z</time></trkpt><trkpt lat="44.98904533379826" lon="8.422771725870433"><ele>149.0</ele><time>2026-04-18T10:02:30.001Z</time></trkpt><trkpt lat="44.98904742857098" lon="8.422615565486597"><ele>149.0</ele><time>2026-04-18T10:02:31.001Z</time></trkpt><trkpt lat="44.98904233008947" lon="8.422435486059078"><ele>149.0</ele><time>2026-04-18T10:02:32.001Z</time></trkpt><trkpt lat="44.989046757359716" lon="8.422245845300601"><ele>149.0</ele><time>2026-04-18T10:02:33.001Z</time></trkpt><trkpt lat="44.98904092589966" lon="8.422061145239194"><ele>149.0</ele><time>2026-04-18T10:02:34.001Z</time></trkpt><trkpt lat="44.98903410128017" lon="8.421887261293302"><ele>149.0</ele><time>2026-04-18T10:02:35.001Z</time></trkpt><trkpt lat="44.9890247334272" lon="8.421737750115247"><ele>149.0</ele><time>2026-04-18T10:02:36.001Z</time></trkpt><trkpt lat="44.9890193678836" lon="8.421573049950531"><ele>149.0</ele><time>2026-04-18T10:02:37.001Z</time></trkpt><trkpt lat="44.989006301679495" lon="8.421424280887624"><ele>149.0</ele><time>2026-04-18T10:02:38.001Z</time></trkpt><trkpt lat="44.98899076142236" lon="8.421278676048916"><ele>149.0</ele><time>2026-04-18T10:02:39.001Z</time></trkpt><trkpt lat="44.9889740510213" lon="8.421125418813803"><ele>149.0</ele><time>2026-04-18T10:02:40.001Z</time></trkpt><trkpt lat="44.98896250245281" lon="8.420986125719896"><ele>149.16666666666666</ele><time>2026-04-18T10:02:41.001Z</time></trkpt><trkpt lat="44.988956136347134" lon="8.42086732608289"><ele>149.33333333333331</ele><time>2026-04-18T10:02:42.001Z</time></trkpt><trkpt lat="44.988959776962886" lon="8.420755000485276"><ele>149.5</ele><time>2026-04-18T10:02:43.001Z</time></trkpt><trkpt lat="44.988967996332995" lon="8.42064099398186"><ele>149.66666666666666</ele><time>2026-04-18T10:02:44.001Z</time></trkpt><trkpt lat="44.98896731855052" lon="8.420505860668591"><ele>149.83333333333334</ele><time>2026-04-18T10:02:45.001Z</time></trkpt><trkpt lat="44.98895001712016" lon="8.42039878900231"><ele>150.0</ele><time>2026-04-18T10:02:46.001Z</time></trkpt><trkpt lat="44.98893119386108" lon="8.420260674300861"><ele>150.0</ele><time>2026-04-18T10:02:47.001Z</time></trkpt><trkpt lat="44.98891055048056" lon="8.420115641699908"><ele>150.0</ele><time>2026-04-18T10:02:48.001Z</time></trkpt><trkpt lat="44.98888674436167" lon="8.419963904813619"><ele>150.0</ele><time>2026-04-18T10:02:49.001Z</time></trkpt><trkpt lat="44.988859811991595" lon="8.419812221862786"><ele>150.0</ele><time>2026-04-18T10:02:50.002Z</time></trkpt><trkpt lat="44.98882753677617" lon="8.419655014144842"><ele>150.0</ele><time>2026-04-18T10:02:51.002Z</time></trkpt><trkpt lat="44.98879807117889" lon="8.419504045835824"><ele>150.5</ele><time>2026-04-18T10:02:52.002Z</time></trkpt><trkpt lat="44.988773365502276" lon="8.419353083383992"><ele>151.0</ele><time>2026-04-18T10:02:53.002Z</time></trkpt><trkpt lat="44.98874608060651" lon="8.419202484437896"><ele>151.5</ele><time>2026-04-18T10:02:54.002Z</time></trkpt><trkpt lat="44.98871808405914" lon="8.419039588367879"><ele>152.0</ele><time>2026-04-18T10:02:55.002Z</time></trkpt><trkpt lat="44.98869188730991" lon="8.418886262343213"><ele>152.0</ele><time>2026-04-18T10:02:56.002Z</time></trkpt><trkpt lat="44.98867149074587" lon="8.418754330953323"><ele>152.0</ele><time>2026-04-18T10:02:57.002Z</time></trkpt><trkpt lat="44.98865622364774" lon="8.418632193692853"><ele>152.0</ele><time>2026-04-18T10:02:58.002Z</time></trkpt><trkpt lat="44.988641419634966" lon="8.418500036208302"><ele>152.0</ele><time>2026-04-18T10:02:59.002Z</time></trkpt><trkpt lat="44.98863964981051" lon="8.41837706714211"><ele>152.0</ele><time>2026-04-18T10:03:00.002Z</time></trkpt><trkpt lat="44.988668056140106" lon="8.418237705123289"><ele>152.0</ele><time>2026-04-18T10:03:01.002Z</time></trkpt><trkpt lat="44.988693994373925" lon="8.418113249409435"><ele>152.0</ele><time>2026-04-18T10:03:02.002Z</time></trkpt><trkpt lat="44.98871218264345" lon="8.41798098565121"><ele>152.0</ele><time>2026-04-18T10:03:03.002Z</time></trkpt><trkpt lat="44.988753075737634" lon="8.417868736796768"><ele>152.0</ele><time>2026-04-18T10:03:04.002Z</time></trkpt><trkpt lat="44.9887980869721" lon="8.417736583185564"><ele>152.0</ele><time>2026-04-18T10:03:05.002Z</time></trkpt><trkpt lat="44.988841246264414" lon="8.417602118171516"><ele>151.4</ele><time>2026-04-18T10:03:06.002Z</time></trkpt><trkpt lat="44.98888265508773" lon="8.417466483313708"><ele>150.79999999999998</ele><time>2026-04-18T10:03:07.002Z</time></trkpt><trkpt lat="44.988920476042345" lon="8.417329739501598"><ele>150.2</ele><time>2026-04-18T10:03:08.002Z</time></trkpt><trkpt lat="44.988962108698345" lon="8.417191588879207"><ele>149.6</ele><time>2026-04-18T10:03:09.002Z</time></trkpt><trkpt lat="44.989031453346385" lon="8.417063304824062"><ele>149.0</ele><time>2026-04-18T10:03:10.002Z</time></trkpt><trkpt lat="44.98910071414924" lon="8.416930510194868"><ele>148.2</ele><time>2026-04-18T10:03:11.002Z</time></trkpt><trkpt lat="44.989162084726956" lon="8.416793127233722"><ele>147.4</ele><time>2026-04-18T10:03:12.002Z</time></trkpt><trkpt lat="44.98923132187653" lon="8.41667518221863"><ele>146.6</ele><time>2026-04-18T10:03:13.002Z</time></trkpt><trkpt lat="44.98930472493679" lon="8.416558701746302"><ele>145.8</ele><time>2026-04-18T10:03:14.002Z</time></trkpt><trkpt lat="44.98937101325423" lon="8.416449777005813"><ele>145.0</ele><time>2026-04-18T10:03:15.002Z</time></trkpt><trkpt lat="44.98944149378112" lon="8.416327446068296"><ele>146.5</ele><time>2026-04-18T10:03:16.002Z</time></trkpt><trkpt lat="44.98950687282015" lon="8.416201785755579"><ele>148.0</ele><time>2026-04-18T10:03:17.002Z</time></trkpt><trkpt lat="44.98956840785888" lon="8.416073306493935"><ele>149.5</ele><time>2026-04-18T10:03:18.002Z</time></trkpt><trkpt lat="44.98962805083956" lon="8.41592481192225"><ele>151.0</ele><time>2026-04-18T10:03:19.002Z</time></trkpt><trkpt lat="44.98967574919351" lon="8.415767886425883"><ele>151.0</ele><time>2026-04-18T10:03:20.002Z</time></trkpt><trkpt lat="44.98971318768137" lon="8.415610223023892"><ele>151.0</ele><time>2026-04-18T10:03:21.002Z</time></trkpt><trkpt lat="44.98974990522645" lon="8.415436679200369"><ele>151.0</ele><time>2026-04-18T10:03:22.002Z</time></trkpt><trkpt lat="44.98975879822761" lon="8.41528787838272"><ele>151.0</ele><time>2026-04-18T10:03:23.002Z</time></trkpt><trkpt lat="44.98977218443073" lon="8.415135415164832"><ele>150.75</ele><time>2026-04-18T10:03:24Z</time></trkpt><trkpt lat="44.98978519642028" lon="8.414987711783036"><ele>150.5</ele><time>2026-04-18T10:03:24.999Z</time></trkpt><trkpt lat="44.989800971606" lon="8.414822107778447"><ele>150.25</ele><time>2026-04-18T10:03:26Z</time></trkpt><trkpt lat="44.98981128705391" lon="8.41464661901657"><ele>150.0</ele><time>2026-04-18T10:03:27Z</time></trkpt><trkpt lat="44.989817583670494" lon="8.414464680331388"><ele>149.75</ele><time>2026-04-18T10:03:27.999Z</time></trkpt><trkpt lat="44.98982759890466" lon="8.414281675066135"><ele>149.5</ele><time>2026-04-18T10:03:29Z</time></trkpt><trkpt lat="44.98983493503977" lon="8.414097037555258"><ele>149.25</ele><time>2026-04-18T10:03:30Z</time></trkpt><trkpt lat="44.989837637978376" lon="8.413921655855031"><ele>149.0</ele><time>2026-04-18T10:03:31Z</time></trkpt><trkpt lat="44.98984017396652" lon="8.41373596478275"><ele>148.6</ele><time>2026-04-18T10:03:32Z</time></trkpt><trkpt lat="44.9898466594005" lon="8.41356732879317"><ele>148.2</ele><time>2026-04-18T10:03:33Z</time></trkpt><trkpt lat="44.98985407313515" lon="8.41341185650548"><ele>147.79999999999998</ele><time>2026-04-18T10:03:34Z</time></trkpt><trkpt lat="44.989860299912266" lon="8.4132652142969"><ele>147.4</ele><time>2026-04-18T10:03:35Z</time></trkpt><trkpt lat="44.98986515974263" lon="8.413132276813617"><ele>147.0</ele><time>2026-04-18T10:03:36Z</time></trkpt><trkpt lat="44.98987739920817" lon="8.41301077301924"><ele>147.16666666666666</ele><time>2026-04-18T10:03:37Z</time></trkpt><trkpt lat="44.98989674856209" lon="8.412885379473492"><ele>147.33333333333334</ele><time>2026-04-18T10:03:38Z</time></trkpt><trkpt lat="44.98991172463656" lon="8.412775718932798"><ele>147.5</ele><time>2026-04-18T10:03:39Z</time></trkpt><trkpt lat="44.98993012946378" lon="8.412647212429784"><ele>147.66666666666669</ele><time>2026-04-18T10:03:40Z</time></trkpt><trkpt lat="44.98994703977791" lon="8.412555654408653"><ele>147.83333333333334</ele><time>2026-04-18T10:03:41Z</time></trkpt><trkpt lat="44.98997241823494" lon="8.412438935971592"><ele>148.0</ele><time>2026-04-18T10:03:43Z</time></trkpt><trkpt lat="44.989993541873986" lon="8.412254083695482"><ele>148.5</ele><time>2026-04-18T10:03:51Z</time></trkpt><trkpt lat="44.99003198823397" lon="8.412151443962491"><ele>149.0</ele><time>2026-04-18T10:03:52Z</time></trkpt><trkpt lat="44.99005544463468" lon="8.412060651630316"><ele>149.5</ele><time>2026-04-18T10:03:53Z</time></trkpt><trkpt lat="44.99007057184381" lon="8.411940889292786"><ele>150.0</ele><time>2026-04-18T10:03:54Z</time></trkpt><trkpt lat="44.990113016484706" lon="8.41182066521914"><ele>150.5</ele><time>2026-04-18T10:03:55Z</time></trkpt><trkpt lat="44.99014898717125" lon="8.411687205263588"><ele>151.0</ele><time>2026-04-18T10:03:56Z</time></trkpt><trkpt lat="44.990191353913474" lon="8.411583173359231"><ele>151.0</ele><time>2026-04-18T10:03:57Z</time></trkpt><trkpt lat="44.99021464539907" lon="8.41146252373507"><ele>151.0</ele><time>2026-04-18T10:03:58Z</time></trkpt><trkpt lat="44.9902426390117" lon="8.411326643226658"><ele>151.0</ele><time>2026-04-18T10:03:59Z</time></trkpt><trkpt lat="44.99027481870536" lon="8.411199364128446"><ele>151.0</ele><time>2026-04-18T10:04:00Z</time></trkpt><trkpt lat="44.99030340555905" lon="8.411090556950715"><ele>151.0</ele><time>2026-04-18T10:04:01Z</time></trkpt><trkpt lat="44.99031153330714" lon="8.410986861973875"><ele>151.0</ele><time>2026-04-18T10:04:02Z</time></trkpt><trkpt lat="44.99030445082731" lon="8.410876851070267"><ele>151.0</ele><time>2026-04-18T10:04:03Z</time></trkpt><trkpt lat="44.99027847710614" lon="8.410724720878989"><ele>151.0</ele><time>2026-04-18T10:04:05Z</time></trkpt><trkpt lat="44.99026080220231" lon="8.410569633478007"><ele>151.0</ele><time>2026-04-18T10:04:07.001Z</time></trkpt><trkpt lat="44.99024607625277" lon="8.410400099870575"><ele>151.0</ele><time>2026-04-18T10:04:09.001Z</time></trkpt><trkpt lat="44.99023604627632" lon="8.410310115828938"><ele>151.0</ele><time>2026-04-18T10:04:10.001Z</time></trkpt><trkpt lat="44.990257305041176" lon="8.410201686530893"><ele>151.0</ele><time>2026-04-18T10:04:11.001Z</time></trkpt><trkpt lat="44.990261368913416" lon="8.41008991429832"><ele>151.0</ele><time>2026-04-18T10:04:12.001Z</time></trkpt><trkpt lat="44.990315796463925" lon="8.409958965395056"><ele>151.0</ele><time>2026-04-18T10:04:14.001Z</time></trkpt><trkpt lat="44.99041991943699" lon="8.409891560143926"><ele>151.0</ele><time>2026-04-18T10:04:16.001Z</time></trkpt><trkpt lat="44.99049223811355" lon="8.409904947125172"><ele>151.0</ele><time>2026-04-18T10:04:18.001Z</time></trkpt><trkpt lat="44.99058824980867" lon="8.409881996802968"><ele>151.0</ele><time>2026-04-18T10:04:23.001Z</time></trkpt><trkpt lat="44.99064225199276" lon="8.409833054389622"><ele>151.0</ele><time>2026-04-18T10:04:25.001Z</time></trkpt><trkpt lat="44.99070110479066" lon="8.409660701636717"><ele>151.0</ele><time>2026-04-18T10:04:27.001Z</time></trkpt><trkpt lat="44.99072466137934" lon="8.40954871619016"><ele>151.0</ele><time>2026-04-18T10:04:28.001Z</time></trkpt><trkpt lat="44.990749694273575" lon="8.409429063352965"><ele>151.0</ele><time>2026-04-18T10:04:29.001Z</time></trkpt><trkpt lat="44.990773623945586" lon="8.409312746720559"><ele>150.8</ele><time>2026-04-18T10:04:30.001Z</time></trkpt><trkpt lat="44.990797557823186" lon="8.409216710744836"><ele>150.6</ele><time>2026-04-18T10:04:31.001Z</time></trkpt><trkpt lat="44.99083352672895" lon="8.409137047296863"><ele>150.4</ele><time>2026-04-18T10:04:32.001Z</time></trkpt><trkpt lat="44.99091001109406" lon="8.409004172025952"><ele>150.2</ele><time>2026-04-18T10:04:34.001Z</time></trkpt><trkpt lat="44.990988384878634" lon="8.408927896877179"><ele>150.0</ele><time>2026-04-18T10:04:36.001Z</time></trkpt><trkpt lat="44.991056428121354" lon="8.408785401061234"><ele>150.5</ele><time>2026-04-18T10:04:38.001Z</time></trkpt><trkpt lat="44.991100142004015" lon="8.40868346781839"><ele>151.0</ele><time>2026-04-18T10:04:39.001Z</time></trkpt><trkpt lat="44.991146988222035" lon="8.408597988342821"><ele>151.5</ele><time>2026-04-18T10:04:40.001Z</time></trkpt><trkpt lat="44.99120230320743" lon="8.408524928713463"><ele>152.0</ele><time>2026-04-18T10:04:41.001Z</time></trkpt><trkpt lat="44.991265835663846" lon="8.408461301773187"><ele>152.5</ele><time>2026-04-18T10:04:42.001Z</time></trkpt><trkpt lat="44.991347112601204" lon="8.408401704938496"><ele>153.0</ele><time>2026-04-18T10:04:43.001Z</time></trkpt><trkpt lat="44.99143246667342" lon="8.408342580585854"><ele>153.0</ele><time>2026-04-18T10:04:44.001Z</time></trkpt><trkpt lat="44.99152779412854" lon="8.40828352384986"><ele>153.0</ele><time>2026-04-18T10:04:45.001Z</time></trkpt><trkpt lat="44.99161933344744" lon="8.408220532898746"><ele>153.0</ele><time>2026-04-18T10:04:46.001Z</time></trkpt><trkpt lat="44.99170664959161" lon="8.408159740158784"><ele>153.0</ele><time>2026-04-18T10:04:47.001Z</time></trkpt><trkpt lat="44.991782349191546" lon="8.408102304393628"><ele>153.0</ele><time>2026-04-18T10:04:48.002Z</time></trkpt><trkpt lat="44.991855626286664" lon="8.408037662332138"><ele>152.4</ele><time>2026-04-18T10:04:49.002Z</time></trkpt><trkpt lat="44.99192724036446" lon="8.407972767345182"><ele>151.8</ele><time>2026-04-18T10:04:50.002Z</time></trkpt><trkpt lat="44.991990413409525" lon="8.407883572093237"><ele>151.2</ele><time>2026-04-18T10:04:51.002Z</time></trkpt><trkpt lat="44.992042433595984" lon="8.407768535928769"><ele>150.6</ele><time>2026-04-18T10:04:52.002Z</time></trkpt><trkpt lat="44.99209042238289" lon="8.407638432116393"><ele>150.0</ele><time>2026-04-18T10:04:53.002Z</time></trkpt><trkpt lat="44.9921268049006" lon="8.407508099333294"><ele>150.0</ele><time>2026-04-18T10:04:54.002Z</time></trkpt><trkpt lat="44.99215942805153" lon="8.407386030065183"><ele>150.0</ele><time>2026-04-18T10:04:55.002Z</time></trkpt><trkpt lat="44.99218914244589" lon="8.407290945903585"><ele>150.0</ele><time>2026-04-18T10:04:56.002Z</time></trkpt><trkpt lat="44.9922164016616" lon="8.407181562817273"><ele>150.0</ele><time>2026-04-18T10:04:58.002Z</time></trkpt><trkpt lat="44.99223646007651" lon="8.407091580864058"><ele>150.0</ele><time>2026-04-18T10:05:00.002Z</time></trkpt><trkpt lat="44.99226589140594" lon="8.406968443780071"><ele>150.0</ele><time>2026-04-18T10:05:02.002Z</time></trkpt><trkpt lat="44.99231151506068" lon="8.406801265908017"><ele>149.66666666666666</ele><time>2026-04-18T10:05:04.002Z</time></trkpt><trkpt lat="44.99233353608079" lon="8.4067090374353"><ele>149.33333333333334</ele><time>2026-04-18T10:05:05.002Z</time></trkpt><trkpt lat="44.992354151719546" lon="8.406620698924062"><ele>149.0</ele><time>2026-04-18T10:05:06.002Z</time></trkpt><trkpt lat="44.99239141046578" lon="8.406460391573999"><ele>148.66666666666669</ele><time>2026-04-18T10:05:08.002Z</time></trkpt><trkpt lat="44.99240650073998" lon="8.406324092652916"><ele>148.33333333333334</ele><time>2026-04-18T10:05:10.002Z</time></trkpt><trkpt lat="44.99245139497832" lon="8.40620230355882"><ele>148.0</ele><time>2026-04-18T10:05:12.002Z</time></trkpt><trkpt lat="44.992476142982156" lon="8.40609582404162"><ele>147.66666666666669</ele><time>2026-04-18T10:05:13.002Z</time></trkpt><trkpt lat="44.992504351189424" lon="8.405974455899646"><ele>147.33333333333334</ele><time>2026-04-18T10:05:14.002Z</time></trkpt><trkpt lat="44.992517345533294" lon="8.405849413658595"><ele>147.0</ele><time>2026-04-18T10:05:15.002Z</time></trkpt><trkpt lat="44.99254388183124" lon="8.405759163303351"><ele>146.66666666666666</ele><time>2026-04-18T10:05:16.002Z</time></trkpt><trkpt lat="44.99256832199119" lon="8.405650647646679"><ele>146.33333333333331</ele><time>2026-04-18T10:05:17.002Z</time></trkpt><trkpt lat="44.992592296075536" lon="8.40553374705165"><ele>146.0</ele><time>2026-04-18T10:05:18.002Z</time></trkpt><trkpt lat="44.992627051444146" lon="8.405417864737283"><ele>146.83333333333331</ele><time>2026-04-18T10:05:19.002Z</time></trkpt><trkpt lat="44.9926633595152" lon="8.40529414319737"><ele>147.66666666666666</ele><time>2026-04-18T10:05:20.002Z</time></trkpt><trkpt lat="44.99269833356075" lon="8.40520213530843"><ele>148.5</ele><time>2026-04-18T10:05:21.002Z</time></trkpt><trkpt lat="44.99274556448321" lon="8.405086952976117"><ele>149.33333333333334</ele><time>2026-04-18T10:05:23.002Z</time></trkpt><trkpt lat="44.99277813492306" lon="8.404986902023575"><ele>150.16666666666669</ele><time>2026-04-18T10:05:25.002Z</time></trkpt><trkpt lat="44.992806849409014" lon="8.404898562371576"><ele>151.0</ele><time>2026-04-18T10:05:26.002Z</time></trkpt><trkpt lat="44.99283961937684" lon="8.40480040158598"><ele>151.0</ele><time>2026-04-18T10:05:27.002Z</time></trkpt><trkpt lat="44.99287475965963" lon="8.40470128780559"><ele>151.0</ele><time>2026-04-18T10:05:28.002Z</time></trkpt><trkpt lat="44.99293418812728" lon="8.40453265534976"><ele>151.0</ele><time>2026-04-18T10:05:29.999Z</time></trkpt><trkpt lat="44.99297309466083" lon="8.404434457108849"><ele>151.0</ele><time>2026-04-18T10:05:30.999Z</time></trkpt><trkpt lat="44.99301204741822" lon="8.404331765895684"><ele>151.0</ele><time>2026-04-18T10:05:31.999Z</time></trkpt><trkpt lat="44.99306999437859" lon="8.404167067718873"><ele>150.66666666666669</ele><time>2026-04-18T10:05:33.999Z</time></trkpt><trkpt lat="44.993111106744166" lon="8.404058128351151"><ele>150.33333333333334</ele><time>2026-04-18T10:05:34.999Z</time></trkpt><trkpt lat="44.99315747891263" lon="8.403944984794496"><ele>150.0</ele><time>2026-04-18T10:05:35.999Z</time></trkpt><trkpt lat="44.99318361010508" lon="8.403848168440064"><ele>149.66666666666666</ele><time>2026-04-18T10:05:36.999Z</time></trkpt><trkpt lat="44.993215691860286" lon="8.40373683833606"><ele>149.33333333333331</ele><time>2026-04-18T10:05:37.999Z</time></trkpt><trkpt lat="44.99324067693819" lon="8.403621539680433"><ele>149.0</ele><time>2026-04-18T10:05:38.999Z</time></trkpt><trkpt lat="44.993272843112656" lon="8.403496221369203"><ele>148.8</ele><time>2026-04-18T10:05:39.999Z</time></trkpt><trkpt lat="44.99331105972603" lon="8.403364078730245"><ele>148.60000000000002</ele><time>2026-04-18T10:05:41Z</time></trkpt><trkpt lat="44.993346952561495" lon="8.403225876025763"><ele>148.4</ele><time>2026-04-18T10:05:42Z</time></trkpt><trkpt lat="44.99338724505224" lon="8.403075695992477"><ele>148.20000000000002</ele><time>2026-04-18T10:05:43Z</time></trkpt><trkpt lat="44.99343750580834" lon="8.402907441358566"><ele>148.0</ele><time>2026-04-18T10:05:44Z</time></trkpt><trkpt lat="44.993484013651695" lon="8.402739136581053"><ele>148.0</ele><time>2026-04-18T10:05:45Z</time></trkpt><trkpt lat="44.993525246422315" lon="8.402586388545222"><ele>148.0</ele><time>2026-04-18T10:05:46Z</time></trkpt><trkpt lat="44.99355807604625" lon="8.402454999517753"><ele>148.0</ele><time>2026-04-18T10:05:47Z</time></trkpt><trkpt lat="44.99359617684856" lon="8.402343635612555"><ele>148.0</ele><time>2026-04-18T10:05:48Z</time></trkpt><trkpt lat="44.993624056157714" lon="8.402244176573285"><ele>148.0</ele><time>2026-04-18T10:05:49Z</time></trkpt><trkpt lat="44.99365348167743" lon="8.402137631403624"><ele>148.0</ele><time>2026-04-18T10:05:50Z</time></trkpt><trkpt lat="44.99367754916196" lon="8.402003934623647"><ele>148.0</ele><time>2026-04-18T10:05:51Z</time></trkpt><trkpt lat="44.99372201338933" lon="8.401873407390923"><ele>148.0</ele><time>2026-04-18T10:05:52Z</time></trkpt><trkpt lat="44.99376361527696" lon="8.401718550340034"><ele>148.0</ele><time>2026-04-18T10:05:53Z</time></trkpt><trkpt lat="44.99380986596215" lon="8.401558822096892"><ele>148.0</ele><time>2026-04-18T10:05:54Z</time></trkpt><trkpt lat="44.99385774202989" lon="8.401404048827557"><ele>148.66666666666669</ele><time>2026-04-18T10:05:55Z</time></trkpt><trkpt lat="44.99390034864195" lon="8.401257825704725"><ele>149.33333333333334</ele><time>2026-04-18T10:05:56Z</time></trkpt><trkpt lat="44.99393450859648" lon="8.401142782043623"><ele>150.0</ele><time>2026-04-18T10:05:57Z</time></trkpt><trkpt lat="44.99396313087422" lon="8.401042415108915"><ele>150.66666666666666</ele><time>2026-04-18T10:05:58Z</time></trkpt><trkpt lat="44.993987202342765" lon="8.400952329949558"><ele>151.33333333333331</ele><time>2026-04-18T10:05:59Z</time></trkpt><trkpt lat="44.99401698173377" lon="8.400863920216425"><ele>152.0</ele><time>2026-04-18T10:06:00Z</time></trkpt><trkpt lat="44.99404022423688" lon="8.400765677906751"><ele>152.0</ele><time>2026-04-18T10:06:01Z</time></trkpt><trkpt lat="44.99404863095107" lon="8.400666127569377"><ele>152.0</ele><time>2026-04-18T10:06:02Z</time></trkpt><trkpt lat="44.994068812308775" lon="8.400562449408314"><ele>152.0</ele><time>2026-04-18T10:06:03Z</time></trkpt><trkpt lat="44.99409781320238" lon="8.400456298012175"><ele>152.0</ele><time>2026-04-18T10:06:04Z</time></trkpt><trkpt lat="44.99412707172903" lon="8.400332651863723"><ele>152.0</ele><time>2026-04-18T10:06:05Z</time></trkpt><trkpt lat="44.99414387938777" lon="8.400217153309242"><ele>152.0</ele><time>2026-04-18T10:06:06Z</time></trkpt><trkpt lat="44.99415714966769" lon="8.400097797072213"><ele>151.6</ele><time>2026-04-18T10:06:07Z</time></trkpt><trkpt lat="44.99417667101142" lon="8.399972377095438"><ele>151.2</ele><time>2026-04-18T10:06:08Z</time></trkpt><trkpt lat="44.99420139020422" lon="8.399828690404732"><ele>150.8</ele><time>2026-04-18T10:06:09Z</time></trkpt><trkpt lat="44.99422540419396" lon="8.399679339368104"><ele>150.4</ele><time>2026-04-18T10:06:10Z</time></trkpt><trkpt lat="44.9942530935503" lon="8.399533213300671"><ele>150.0</ele><time>2026-04-18T10:06:11Z</time></trkpt><trkpt lat="44.994282799423075" lon="8.399373444230468"><ele>150.0</ele><time>2026-04-18T10:06:12Z</time></trkpt><trkpt lat="44.99431575559814" lon="8.399214483846919"><ele>150.0</ele><time>2026-04-18T10:06:13.001Z</time></trkpt><trkpt lat="44.994347164247465" lon="8.39906192298858"><ele>150.0</ele><time>2026-04-18T10:06:14.001Z</time></trkpt><trkpt lat="44.99437250672291" lon="8.39891333464795"><ele>150.0</ele><time>2026-04-18T10:06:15.001Z</time></trkpt><trkpt lat="44.99440015844284" lon="8.398768013296733"><ele>150.0</ele><time>2026-04-18T10:06:16.001Z</time></trkpt><trkpt lat="44.99442815842086" lon="8.398624467380074"><ele>150.4</ele><time>2026-04-18T10:06:17.001Z</time></trkpt><trkpt lat="44.99445187174079" lon="8.398476464360177"><ele>150.8</ele><time>2026-04-18T10:06:18.001Z</time></trkpt><trkpt lat="44.994473427445044" lon="8.398312597181514"><ele>151.2</ele><time>2026-04-18T10:06:19.001Z</time></trkpt><trkpt lat="44.99449605292475" lon="8.398157279730775"><ele>151.6</ele><time>2026-04-18T10:06:20.001Z</time></trkpt><trkpt lat="44.994515613622745" lon="8.398020315648195"><ele>152.0</ele><time>2026-04-18T10:06:21.001Z</time></trkpt><trkpt lat="44.99453443293399" lon="8.397902795016334"><ele>152.0</ele><time>2026-04-18T10:06:22.001Z</time></trkpt><trkpt lat="44.994553600691816" lon="8.397796665268773"><ele>152.0</ele><time>2026-04-18T10:06:23.001Z</time></trkpt><trkpt lat="44.994576680037184" lon="8.397707549784844"><ele>152.0</ele><time>2026-04-18T10:06:24.001Z</time></trkpt><trkpt lat="44.99460512537181" lon="8.397611797594415"><ele>152.0</ele><time>2026-04-18T10:06:25.001Z</time></trkpt><trkpt lat="44.99463292766293" lon="8.397497226507735"><ele>152.0</ele><time>2026-04-18T10:06:26.001Z</time></trkpt><trkpt lat="44.99467002201938" lon="8.397396813337336"><ele>152.0</ele><time>2026-04-18T10:06:27.001Z</time></trkpt><trkpt lat="44.994722892248625" lon="8.397321309606172"><ele>152.0</ele><time>2026-04-18T10:06:28.001Z</time></trkpt><trkpt lat="44.99478492651991" lon="8.397247298491408"><ele>152.0</ele><time>2026-04-18T10:06:29.001Z</time></trkpt><trkpt lat="44.994839609629075" lon="8.397174050555675"><ele>152.0</ele><time>2026-04-18T10:06:30.001Z</time></trkpt><trkpt lat="44.994883366544855" lon="8.39709615662798"><ele>152.0</ele><time>2026-04-18T10:06:31.001Z</time></trkpt><trkpt lat="44.99493406267326" lon="8.3969307621102"><ele>152.0</ele><time>2026-04-18T10:06:33.001Z</time></trkpt><trkpt lat="44.99496207647637" lon="8.396787638220761"><ele>151.79999999999998</ele><time>2026-04-18T10:06:35.001Z</time></trkpt><trkpt lat="44.99489235307256" lon="8.39670605445532"><ele>151.6</ele><time>2026-04-18T10:06:38.001Z</time></trkpt><trkpt lat="44.99478436345124" lon="8.396647911343974"><ele>151.39999999999998</ele><time>2026-04-18T10:06:40.001Z</time></trkpt><trkpt lat="44.994662126716946" lon="8.396585283501915"><ele>151.2</ele><time>2026-04-18T10:06:42.001Z</time></trkpt><trkpt lat="44.9945903390047" lon="8.396567080112677"><ele>151.0</ele><time>2026-04-18T10:06:43.001Z</time></trkpt><trkpt lat="44.994479284902404" lon="8.39651951905894"><ele>151.0</ele><time>2026-04-18T10:06:45.001Z</time></trkpt><trkpt lat="44.99439719426275" lon="8.39648671741502"><ele>151.0</ele><time>2026-04-18T10:06:46.001Z</time></trkpt><trkpt lat="44.9943176512833" lon="8.396456704712493"><ele>151.0</ele><time>2026-04-18T10:06:47.001Z</time></trkpt><trkpt lat="44.994231541391166" lon="8.396415826564617"><ele>151.0</ele><time>2026-04-18T10:06:48.001Z</time></trkpt><trkpt lat="44.99415076783767" lon="8.396377230889728"><ele>151.0</ele><time>2026-04-18T10:06:49.001Z</time></trkpt><trkpt lat="44.9940644782705" lon="8.396335911279772"><ele>151.0</ele><time>2026-04-18T10:06:50.001Z</time></trkpt><trkpt lat="44.99397882835345" lon="8.396289675866718"><ele>150.8</ele><time>2026-04-18T10:06:51.002Z</time></trkpt><trkpt lat="44.99389277822318" lon="8.396255417975299"><ele>150.6</ele><time>2026-04-18T10:06:52.002Z</time></trkpt><trkpt lat="44.99379579743218" lon="8.39620114476196"><ele>150.4</ele><time>2026-04-18T10:06:53.002Z</time></trkpt><trkpt lat="44.99370450630918" lon="8.396159286001136"><ele>150.2</ele><time>2026-04-18T10:06:54.002Z</time></trkpt><trkpt lat="44.99361229968287" lon="8.39611355130572"><ele>150.0</ele><time>2026-04-18T10:06:55.002Z</time></trkpt><trkpt lat="44.993527411215155" lon="8.396066603295534"><ele>150.0</ele><time>2026-04-18T10:06:56.002Z</time></trkpt><trkpt lat="44.99345840278064" lon="8.396037507550918"><ele>150.0</ele><time>2026-04-18T10:06:57.002Z</time></trkpt><trkpt lat="44.99339618515705" lon="8.396009687671176"><ele>150.0</ele><time>2026-04-18T10:06:58.002Z</time></trkpt><trkpt lat="44.99330304930421" lon="8.395964169688586"><ele>150.0</ele><time>2026-04-18T10:07:00.002Z</time></trkpt><trkpt lat="44.99322998858414" lon="8.395937131228807"><ele>150.0</ele><time>2026-04-18T10:07:03.002Z</time></trkpt><trkpt lat="44.99314247907448" lon="8.396060094192164"><ele>150.0</ele><time>2026-04-18T10:07:06.002Z</time></trkpt><trkpt lat="44.9931233980045" lon="8.396152030689258"><ele>150.0</ele><time>2026-04-18T10:07:07.002Z</time></trkpt><trkpt lat="44.993099143357576" lon="8.396271190967818"><ele>150.0</ele><time>2026-04-18T10:07:08.002Z</time></trkpt><trkpt lat="44.993068766168626" lon="8.396393108377286"><ele>150.0</ele><time>2026-04-18T10:07:09.002Z</time></trkpt><trkpt lat="44.99303953062368" lon="8.396505564306805"><ele>150.0</ele><time>2026-04-18T10:07:10.002Z</time></trkpt><trkpt lat="44.993006920269224" lon="8.39662438891729"><ele>150.0</ele><time>2026-04-18T10:07:11.002Z</time></trkpt><trkpt lat="44.992975572728575" lon="8.396733231161267"><ele>150.0</ele><time>2026-04-18T10:07:12.002Z</time></trkpt><trkpt lat="44.99295308918317" lon="8.396818207810409"><ele>150.0</ele><time>2026-04-18T10:07:13.002Z</time></trkpt><trkpt lat="44.99292047064087" lon="8.396946362122504"><ele>150.0</ele><time>2026-04-18T10:07:15.002Z</time></trkpt><trkpt lat="44.992852692933226" lon="8.397030155948533"><ele>150.0</ele><time>2026-04-18T10:07:22.002Z</time></trkpt><trkpt lat="44.992767306790526" lon="8.396999740729973"><ele>150.0</ele><time>2026-04-18T10:07:23.002Z</time></trkpt><trkpt lat="44.99268017950834" lon="8.397011499382746"><ele>150.0</ele><time>2026-04-18T10:07:24.002Z</time></trkpt><trkpt lat="44.99261533764767" lon="8.3970057783228"><ele>150.0</ele><time>2026-04-18T10:07:25.002Z</time></trkpt><trkpt lat="44.992550843359695" lon="8.396967588549039"><ele>150.5</ele><time>2026-04-18T10:07:26.002Z</time></trkpt><trkpt lat="44.99249071438189" lon="8.396900801169839"><ele>151.0</ele><time>2026-04-18T10:07:27.002Z</time></trkpt><trkpt lat="44.992477065147064" lon="8.396799118825362"><ele>151.5</ele><time>2026-04-18T10:07:28.002Z</time></trkpt><trkpt lat="44.99246696146102" lon="8.396693383006903"><ele>152.0</ele><time>2026-04-18T10:07:29.002Z</time></trkpt><trkpt lat="44.99246221774112" lon="8.396568880872152"><ele>152.5</ele><time>2026-04-18T10:07:30.002Z</time></trkpt><trkpt lat="44.99245767024968" lon="8.396411944568467"><ele>153.0</ele><time>2026-04-18T10:07:31.003Z</time></trkpt><trkpt lat="44.99245137865335" lon="8.396237467650712"><ele>153.0</ele><time>2026-04-18T10:07:32.003Z</time></trkpt><trkpt lat="44.992442151115895" lon="8.396069423625217"><ele>153.0</ele><time>2026-04-18T10:07:33.003Z</time></trkpt><trkpt lat="44.99243244651389" lon="8.395892691608568"><ele>153.0</ele><time>2026-04-18T10:07:34.003Z</time></trkpt><trkpt lat="44.99242226585924" lon="8.395707290303791"><ele>153.0</ele><time>2026-04-18T10:07:35.003Z</time></trkpt><trkpt lat="44.99241411105664" lon="8.395540850831809"><ele>152.75</ele><time>2026-04-18T10:07:35.999Z</time></trkpt><trkpt lat="44.99239094827056" lon="8.395345788687791"><ele>152.5</ele><time>2026-04-18T10:07:36.999Z</time></trkpt><trkpt lat="44.99238417210482" lon="8.395182791212264"><ele>152.25</ele><time>2026-04-18T10:07:37.999Z</time></trkpt><trkpt lat="44.99237762576312" lon="8.395030414975754"><ele>152.0</ele><time>2026-04-18T10:07:38.999Z</time></trkpt><trkpt lat="44.99236674687589" lon="8.394905760879409"><ele>152.0</ele><time>2026-04-18T10:07:39.999Z</time></trkpt><trkpt lat="44.992349609279856" lon="8.394819525542584"><ele>152.0</ele><time>2026-04-18T10:07:41Z</time></trkpt><trkpt lat="44.992278563153825" lon="8.394785796246564"><ele>152.0</ele><time>2026-04-18T10:08:23.001Z</time></trkpt><trkpt lat="44.99217608499765" lon="8.39479067443348"><ele>152.0</ele><time>2026-04-18T10:08:25.001Z</time></trkpt><trkpt lat="44.99211353547364" lon="8.39481476937986"><ele>152.0</ele><time>2026-04-18T10:08:26.001Z</time></trkpt><trkpt lat="44.99200694252299" lon="8.394862918262657"><ele>152.0</ele><time>2026-04-18T10:08:28.001Z</time></trkpt><trkpt lat="44.99190570879837" lon="8.394931512952336"><ele>152.0</ele><time>2026-04-18T10:08:30.001Z</time></trkpt><trkpt lat="44.99179380637852" lon="8.394974207572448"><ele>152.0</ele><time>2026-04-18T10:08:32.001Z</time></trkpt><trkpt lat="44.99168585150319" lon="8.395001352956"><ele>152.0</ele><time>2026-04-18T10:08:34.001Z</time></trkpt><trkpt lat="44.99160651644997" lon="8.395008718515923"><ele>152.0</ele><time>2026-04-18T10:08:36.001Z</time></trkpt><trkpt lat="44.991690359278536" lon="8.395012865912312"><ele>152.0</ele><time>2026-04-18T10:08:54.002Z</time></trkpt><trkpt lat="44.9917728626338" lon="8.394958176498744"><ele>152.0</ele><time>2026-04-18T10:08:56.002Z</time></trkpt><trkpt lat="44.991869232677246" lon="8.394928973065241"><ele>152.0</ele><time>2026-04-18T10:08:58.002Z</time></trkpt><trkpt lat="44.99197721204885" lon="8.394893378790846"><ele>152.0</ele><time>2026-04-18T10:09:00.002Z</time></trkpt><trkpt lat="44.9920912921853" lon="8.39484247845026"><ele>152.0</ele><time>2026-04-18T10:09:02.002Z</time></trkpt><trkpt lat="44.99220227752481" lon="8.394799437820218"><ele>152.0</ele><time>2026-04-18T10:09:04.002Z</time></trkpt><trkpt lat="44.99228241930986" lon="8.394828522794848"><ele>152.0</ele><time>2026-04-18T10:09:06.002Z</time></trkpt><trkpt lat="44.99232751730776" lon="8.394765705503346"><ele>152.0</ele><time>2026-04-18T10:09:12.002Z</time></trkpt><trkpt lat="44.99232012519835" lon="8.39467097182374"><ele>152.0</ele><time>2026-04-18T10:09:14.002Z</time></trkpt><trkpt lat="44.992294997542814" lon="8.394554621925362"><ele>152.0</ele><time>2026-04-18T10:09:16.002Z</time></trkpt><trkpt lat="44.99226724896189" lon="8.394451052849957"><ele>152.0</ele><time>2026-04-18T10:09:18.002Z</time></trkpt><trkpt lat="44.99222809896981" lon="8.394304169049617"><ele>152.0</ele><time>2026-04-18T10:09:20.002Z</time></trkpt><trkpt lat="44.99217322036812" lon="8.394158311515277"><ele>152.0</ele><time>2026-04-18T10:09:22.002Z</time></trkpt><trkpt lat="44.99214294586873" lon="8.394078759038438"><ele>152.0</ele><time>2026-04-18T10:09:23.002Z</time></trkpt><trkpt lat="44.99211108953403" lon="8.393999111019644"><ele>152.0</ele><time>2026-04-18T10:09:24.002Z</time></trkpt><trkpt lat="44.99207807703772" lon="8.39392056960506"><ele>152.0</ele><time>2026-04-18T10:09:25.002Z</time></trkpt><trkpt lat="44.992014797819074" lon="8.393764380809797"><ele>152.0</ele><time>2026-04-18T10:09:27.002Z</time></trkpt><trkpt lat="44.991982304450765" lon="8.393670858369369"><ele>152.0</ele><time>2026-04-18T10:09:28.002Z</time></trkpt><trkpt lat="44.99195154637411" lon="8.39356842307271"><ele>152.0</ele><time>2026-04-18T10:09:29.002Z</time></trkpt><trkpt lat="44.99192055434136" lon="8.393461606508756"><ele>152.0</ele><time>2026-04-18T10:09:30.002Z</time></trkpt><trkpt lat="44.991889508575824" lon="8.393350625672781"><ele>152.0</ele><time>2026-04-18T10:09:31.002Z</time></trkpt><trkpt lat="44.99186189664458" lon="8.393248386005332"><ele>152.0</ele><time>2026-04-18T10:09:32.003Z</time></trkpt><trkpt lat="44.99183406087056" lon="8.393149058464765"><ele>152.0</ele><time>2026-04-18T10:09:33.003Z</time></trkpt><trkpt lat="44.99180657594982" lon="8.393045940682036"><ele>152.0</ele><time>2026-04-18T10:09:34.003Z</time></trkpt><trkpt lat="44.99177182212296" lon="8.392947405376871"><ele>152.0</ele><time>2026-04-18T10:09:35.003Z</time></trkpt><trkpt lat="44.99173571752349" lon="8.392805067427044"><ele>152.0</ele><time>2026-04-18T10:09:37.003Z</time></trkpt><trkpt lat="44.9917287049813" lon="8.392711059351232"><ele>152.0</ele><time>2026-04-18T10:10:13.001Z</time></trkpt><trkpt lat="44.99170007418261" lon="8.392631255371267"><ele>152.0</ele><time>2026-04-18T10:10:15.001Z</time></trkpt><trkpt lat="44.991673993010444" lon="8.39250852169123"><ele>152.0</ele><time>2026-04-18T10:10:17.001Z</time></trkpt><trkpt lat="44.9916310286916" lon="8.392351014045609"><ele>152.0</ele><time>2026-04-18T10:10:19.001Z</time></trkpt><trkpt lat="44.99160580731517" lon="8.392258768785652"><ele>152.33333333333331</ele><time>2026-04-18T10:10:20.001Z</time></trkpt><trkpt lat="44.99158475713648" lon="8.392171631054653"><ele>152.66666666666666</ele><time>2026-04-18T10:10:21.001Z</time></trkpt><trkpt lat="44.991570722939706" lon="8.392083626629667"><ele>153.0</ele><time>2026-04-18T10:10:22.001Z</time></trkpt><trkpt lat="44.991537874792094" lon="8.391987899398837"><ele>153.33333333333334</ele><time>2026-04-18T10:10:23.001Z</time></trkpt><trkpt lat="44.99151210416363" lon="8.391882991392672"><ele>153.66666666666669</ele><time>2026-04-18T10:10:24.001Z</time></trkpt><trkpt lat="44.99148733963237" lon="8.391789173535917"><ele>154.0</ele><time>2026-04-18T10:10:25.001Z</time></trkpt><trkpt lat="44.991452506306935" lon="8.391626229758984"><ele>154.0</ele><time>2026-04-18T10:10:27.001Z</time></trkpt><trkpt lat="44.99143838255518" lon="8.391537546783187"><ele>154.0</ele><time>2026-04-18T10:10:28.001Z</time></trkpt><trkpt lat="44.99142214659598" lon="8.391449240091038"><ele>154.0</ele><time>2026-04-18T10:10:29.001Z</time></trkpt><trkpt lat="44.99140555502781" lon="8.391248244547684"><ele>154.0</ele><time>2026-04-18T10:10:31.001Z</time></trkpt><trkpt lat="44.99139332799126" lon="8.391138009008234"><ele>154.0</ele><time>2026-04-18T10:10:32.001Z</time></trkpt><trkpt lat="44.991381015438755" lon="8.391043541906335"><ele>154.0</ele><time>2026-04-18T10:10:33.001Z</time></trkpt><trkpt lat="44.99136935593045" lon="8.390945171497325"><ele>154.0</ele><time>2026-04-18T10:10:34.001Z</time></trkpt><trkpt lat="44.99135271046368" lon="8.390856837636457"><ele>154.0</ele><time>2026-04-18T10:10:35.001Z</time></trkpt><trkpt lat="44.991337488041445" lon="8.390755095753983"><ele>154.0</ele><time>2026-04-18T10:10:36.001Z</time></trkpt><trkpt lat="44.99131322574435" lon="8.390653413168435"><ele>154.0</ele><time>2026-04-18T10:10:37.001Z</time></trkpt><trkpt lat="44.991284735401386" lon="8.390555749306262"><ele>154.0</ele><time>2026-04-18T10:10:38.001Z</time></trkpt><trkpt lat="44.991255248529015" lon="8.3904648850951"><ele>154.0</ele><time>2026-04-18T10:10:39.001Z</time></trkpt><trkpt lat="44.991219254632824" lon="8.390367566891467"><ele>154.0</ele><time>2026-04-18T10:10:40.001Z</time></trkpt><trkpt lat="44.99118432920517" lon="8.390283233350836"><ele>154.0</ele><time>2026-04-18T10:10:41.001Z</time></trkpt><trkpt lat="44.99114680757449" lon="8.390194676643784"><ele>154.0</ele><time>2026-04-18T10:10:42.001Z</time></trkpt><trkpt lat="44.99110759940785" lon="8.390106362771382"><ele>154.0</ele><time>2026-04-18T10:10:43.001Z</time></trkpt><trkpt lat="44.99106264248102" lon="8.390017483908448"><ele>154.0</ele><time>2026-04-18T10:10:44.001Z</time></trkpt><trkpt lat="44.99103042949173" lon="8.389926741302052"><ele>154.0</ele><time>2026-04-18T10:10:45.001Z</time></trkpt><trkpt lat="44.99097051799509" lon="8.389843696023718"><ele>154.0</ele><time>2026-04-18T10:10:46.001Z</time></trkpt><trkpt lat="44.99091209576902" lon="8.389752628148983"><ele>153.83333333333334</ele><time>2026-04-18T10:10:47.001Z</time></trkpt><trkpt lat="44.990851592870975" lon="8.389664823929413"><ele>153.66666666666669</ele><time>2026-04-18T10:10:48.001Z</time></trkpt><trkpt lat="44.99079436676326" lon="8.389592034611434"><ele>153.5</ele><time>2026-04-18T10:10:49.002Z</time></trkpt><trkpt lat="44.99074130365335" lon="8.38953401658971"><ele>153.33333333333334</ele><time>2026-04-18T10:10:50.002Z</time></trkpt><trkpt lat="44.990689819868585" lon="8.389468831067687"><ele>153.16666666666666</ele><time>2026-04-18T10:10:51.002Z</time></trkpt><trkpt lat="44.99062700647074" lon="8.389395661510884"><ele>153.0</ele><time>2026-04-18T10:10:52.002Z</time></trkpt><trkpt lat="44.99056190624749" lon="8.389317131967328"><ele>152.66666666666666</ele><time>2026-04-18T10:10:53.002Z</time></trkpt><trkpt lat="44.990497477987454" lon="8.389251326140828"><ele>152.33333333333334</ele><time>2026-04-18T10:10:54.002Z</time></trkpt><trkpt lat="44.990431308132045" lon="8.389195807003398"><ele>152.0</ele><time>2026-04-18T10:10:55.002Z</time></trkpt><trkpt lat="44.99036143709961" lon="8.389129341565853"><ele>151.66666666666669</ele><time>2026-04-18T10:10:56.002Z</time></trkpt><trkpt lat="44.9902892113712" lon="8.38905856168771"><ele>151.33333333333334</ele><time>2026-04-18T10:10:57.002Z</time></trkpt><trkpt lat="44.990220062608515" lon="8.38898314215276"><ele>151.0</ele><time>2026-04-18T10:10:58.002Z</time></trkpt><trkpt lat="44.99015045638863" lon="8.388905094322721"><ele>151.16666666666669</ele><time>2026-04-18T10:10:59.002Z</time></trkpt><trkpt lat="44.990085743255634" lon="8.388837832478108"><ele>151.33333333333334</ele><time>2026-04-18T10:11:00.002Z</time></trkpt><trkpt lat="44.99003242040339" lon="8.388779204679416"><ele>151.5</ele><time>2026-04-18T10:11:01.002Z</time></trkpt><trkpt lat="44.989966098274685" lon="8.388713681002043"><ele>151.66666666666666</ele><time>2026-04-18T10:11:02.002Z</time></trkpt><trkpt lat="44.98990043337132" lon="8.388651224652678"><ele>151.83333333333331</ele><time>2026-04-18T10:11:03.002Z</time></trkpt><trkpt lat="44.98982627385769" lon="8.388589120677679"><ele>152.0</ele><time>2026-04-18T10:11:04.002Z</time></trkpt><trkpt lat="44.98975492226858" lon="8.38853430000421"><ele>152.0</ele><time>2026-04-18T10:11:05.002Z</time></trkpt><trkpt lat="44.989685209220184" lon="8.388487573115011"><ele>152.0</ele><time>2026-04-18T10:11:06.002Z</time></trkpt><trkpt lat="44.98961884976273" lon="8.388443141930802"><ele>152.0</ele><time>2026-04-18T10:11:07.002Z</time></trkpt><trkpt lat="44.989550136451854" lon="8.388392986096472"><ele>152.0</ele><time>2026-04-18T10:11:08.002Z</time></trkpt><trkpt lat="44.989471270151924" lon="8.388336463746294"><ele>152.0</ele><time>2026-04-18T10:11:09.002Z</time></trkpt><trkpt lat="44.989387023912926" lon="8.388270843398665"><ele>152.0</ele><time>2026-04-18T10:11:10.002Z</time></trkpt><trkpt lat="44.989304351586554" lon="8.38820180678248"><ele>152.0</ele><time>2026-04-18T10:11:11.002Z</time></trkpt><trkpt lat="44.98922782792203" lon="8.388123160478374"><ele>152.0</ele><time>2026-04-18T10:11:12.002Z</time></trkpt><trkpt lat="44.9891704155021" lon="8.38805674925971"><ele>152.0</ele><time>2026-04-18T10:11:13.002Z</time></trkpt><trkpt lat="44.9890837202574" lon="8.387905173117128"><ele>152.0</ele><time>2026-04-18T10:11:15.002Z</time></trkpt><trkpt lat="44.98905214996585" lon="8.387789659773501"><ele>152.0</ele><time>2026-04-18T10:11:16.002Z</time></trkpt><trkpt lat="44.989021862935026" lon="8.38766865752754"><ele>152.0</ele><time>2026-04-18T10:11:17.002Z</time></trkpt><trkpt lat="44.988994195379696" lon="8.387559831088579"><ele>152.0</ele><time>2026-04-18T10:11:18.002Z</time></trkpt><trkpt lat="44.98895622044408" lon="8.387446325687497"><ele>152.0</ele><time>2026-04-18T10:11:19.002Z</time></trkpt><trkpt lat="44.9889171147849" lon="8.387337202766133"><ele>152.0</ele><time>2026-04-18T10:11:20.002Z</time></trkpt><trkpt lat="44.988870173986946" lon="8.387222381813327"><ele>152.0</ele><time>2026-04-18T10:11:21.002Z</time></trkpt><trkpt lat="44.98882292489003" lon="8.387105095683394"><ele>152.0</ele><time>2026-04-18T10:11:22.002Z</time></trkpt><trkpt lat="44.98877457077596" lon="8.38699788496786"><ele>152.0</ele><time>2026-04-18T10:11:23.002Z</time></trkpt><trkpt lat="44.988715805379144" lon="8.386874168839975"><ele>152.0</ele><time>2026-04-18T10:11:24.002Z</time></trkpt><trkpt lat="44.98867885580829" lon="8.386761384617841"><ele>152.0</ele><time>2026-04-18T10:11:25.002Z</time></trkpt><trkpt lat="44.988649884310874" lon="8.386650020572699"><ele>152.0</ele><time>2026-04-18T10:11:26.002Z</time></trkpt><trkpt lat="44.9886109666497" lon="8.386534430511162"><ele>152.0</ele><time>2026-04-18T10:11:27.003Z</time></trkpt><trkpt lat="44.98857005571058" lon="8.386444823553571"><ele>152.0</ele><time>2026-04-18T10:11:28.003Z</time></trkpt><trkpt lat="44.98851195920935" lon="8.386339877944192"><ele>151.79999999999998</ele><time>2026-04-18T10:11:29.003Z</time></trkpt><trkpt lat="44.98844637722301" lon="8.386231162920778"><ele>151.6</ele><time>2026-04-18T10:11:30.003Z</time></trkpt><trkpt lat="44.98837891229741" lon="8.386135253370572"><ele>151.39999999999998</ele><time>2026-04-18T10:11:31.003Z</time></trkpt><trkpt lat="44.98832257466011" lon="8.386036877787271"><ele>151.2</ele><time>2026-04-18T10:11:32.003Z</time></trkpt><trkpt lat="44.98826767499141" lon="8.385940997436387"><ele>151.0</ele><time>2026-04-18T10:11:33.003Z</time></trkpt><trkpt lat="44.98821850739027" lon="8.385812785459745"><ele>150.83333333333334</ele><time>2026-04-18T10:11:34.003Z</time></trkpt><trkpt lat="44.9881574362723" lon="8.385721935667966"><ele>150.66666666666669</ele><time>2026-04-18T10:11:35.003Z</time></trkpt><trkpt lat="44.9881328576582" lon="8.38563458970123"><ele>150.5</ele><time>2026-04-18T10:11:36.003Z</time></trkpt><trkpt lat="44.988097034488845" lon="8.385516802452791"><ele>150.33333333333334</ele><time>2026-04-18T10:11:37.003Z</time></trkpt><trkpt lat="44.98805732880509" lon="8.385399298525474"><ele>150.16666666666666</ele><time>2026-04-18T10:11:38.003Z</time></trkpt><trkpt lat="44.98801632375726" lon="8.385277968185015"><ele>150.0</ele><time>2026-04-18T10:11:39.003Z</time></trkpt><trkpt lat="44.98796051051654" lon="8.38517754804215"><ele>150.0</ele><time>2026-04-18T10:11:40.003Z</time></trkpt><trkpt lat="44.98792565396793" lon="8.385075444896454"><ele>150.0</ele><time>2026-04-18T10:11:41.003Z</time></trkpt><trkpt lat="44.98787264601332" lon="8.384980047431341"><ele>150.0</ele><time>2026-04-18T10:11:42.003Z</time></trkpt><trkpt lat="44.9877996799465" lon="8.384904870722384"><ele>150.0</ele><time>2026-04-18T10:11:43.003Z</time></trkpt><trkpt lat="44.98773853564721" lon="8.384827435138849"><ele>150.0</ele><time>2026-04-18T10:11:44.003Z</time></trkpt><trkpt lat="44.98766517822508" lon="8.384749788788463"><ele>150.0</ele><time>2026-04-18T10:11:45.003Z</time></trkpt><trkpt lat="44.98758321430707" lon="8.384695878663006"><ele>150.33333333333334</ele><time>2026-04-18T10:11:46.003Z</time></trkpt><trkpt lat="44.987506722252306" lon="8.384631810311014"><ele>150.66666666666666</ele><time>2026-04-18T10:11:47.003Z</time></trkpt><trkpt lat="44.98743103088346" lon="8.384582982424563"><ele>151.0</ele><time>2026-04-18T10:11:48Z</time></trkpt><trkpt lat="44.98736066401104" lon="8.38453173965736"><ele>151.33333333333331</ele><time>2026-04-18T10:11:49Z</time></trkpt><trkpt lat="44.987310301333935" lon="8.384473798515684"><ele>151.66666666666666</ele><time>2026-04-18T10:11:50Z</time></trkpt><trkpt lat="44.98723240717985" lon="8.384413714882054"><ele>152.0</ele><time>2026-04-18T10:11:52Z</time></trkpt><trkpt lat="44.98717347130266" lon="8.384348098238455"><ele>152.0</ele><time>2026-04-18T10:13:00.002Z</time></trkpt><trkpt lat="44.98708946606343" lon="8.384247062548708"><ele>152.0</ele><time>2026-04-18T10:13:02.002Z</time></trkpt><trkpt lat="44.98703512912461" lon="8.384161763537639"><ele>152.0</ele><time>2026-04-18T10:13:04.002Z</time></trkpt><trkpt lat="44.98698539767843" lon="8.384093201418546"><ele>152.0</ele><time>2026-04-18T10:13:06.002Z</time></trkpt><trkpt lat="44.986933026619276" lon="8.384012786518962"><ele>152.0</ele><time>2026-04-18T10:13:15.002Z</time></trkpt><trkpt lat="44.98685409492023" lon="8.384137380013359"><ele>152.0</ele><time>2026-04-18T10:13:17.002Z</time></trkpt><trkpt lat="44.98682675305833" lon="8.384238745517084"><ele>152.0</ele><time>2026-04-18T10:13:18.002Z</time></trkpt><trkpt lat="44.98679276180188" lon="8.384347348501278"><ele>152.0</ele><time>2026-04-18T10:13:19.002Z</time></trkpt><trkpt lat="44.98675667434934" lon="8.38444514058748"><ele>152.0</ele><time>2026-04-18T10:13:20.002Z</time></trkpt><trkpt lat="44.986711756610376" lon="8.384539399330874"><ele>152.0</ele><time>2026-04-18T10:13:21.002Z</time></trkpt><trkpt lat="44.98664545945507" lon="8.384625587269017"><ele>152.0</ele><time>2026-04-18T10:13:22.002Z</time></trkpt><trkpt lat="44.98656941145197" lon="8.384700799022736"><ele>153.6</ele><time>2026-04-18T10:13:23.002Z</time></trkpt><trkpt lat="44.98648395193276" lon="8.384765051528698"><ele>155.2</ele><time>2026-04-18T10:13:24.002Z</time></trkpt><trkpt lat="44.98638210327464" lon="8.384839753682671"><ele>156.8</ele><time>2026-04-18T10:13:25.002Z</time></trkpt><trkpt lat="44.986287485863045" lon="8.384908079435126"><ele>158.4</ele><time>2026-04-18T10:13:26.002Z</time></trkpt><trkpt lat="44.98619951588059" lon="8.38497375077123"><ele>160.0</ele><time>2026-04-18T10:13:27.002Z</time></trkpt><trkpt lat="44.986111999199736" lon="8.385039002163342"><ele>160.0</ele><time>2026-04-18T10:13:28.002Z</time></trkpt><trkpt lat="44.9860230883019" lon="8.385102126607027"><ele>160.0</ele><time>2026-04-18T10:13:29.002Z</time></trkpt><trkpt lat="44.9859334065995" lon="8.38516491186342"><ele>160.0</ele><time>2026-04-18T10:13:30.002Z</time></trkpt><trkpt lat="44.98585694894435" lon="8.38521352401249"><ele>160.0</ele><time>2026-04-18T10:13:31.002Z</time></trkpt><trkpt lat="44.985767101902226" lon="8.385284670902163"><ele>160.0</ele><time>2026-04-18T10:13:33.002Z</time></trkpt><trkpt lat="44.9857068109074" lon="8.385312675214134"><ele>160.4</ele><time>2026-04-18T10:13:35.003Z</time></trkpt><trkpt lat="44.98560487688766" lon="8.385381069176658"><ele>160.8</ele><time>2026-04-18T10:13:38.003Z</time></trkpt><trkpt lat="44.985497194305125" lon="8.385434148702403"><ele>161.2</ele><time>2026-04-18T10:13:40.003Z</time></trkpt><trkpt lat="44.98541341818507" lon="8.385466481886395"><ele>161.6</ele><time>2026-04-18T10:13:41.003Z</time></trkpt><trkpt lat="44.98533743219979" lon="8.385481743947741"><ele>162.0</ele><time>2026-04-18T10:13:42.003Z</time></trkpt><trkpt lat="44.98525957157623" lon="8.38549236292685"><ele>162.0</ele><time>2026-04-18T10:13:43.003Z</time></trkpt><trkpt lat="44.98518731734476" lon="8.385502217293352"><ele>162.0</ele><time>2026-04-18T10:13:44.003Z</time></trkpt><trkpt lat="44.985111531137264" lon="8.385512101235346"><ele>162.0</ele><time>2026-04-18T10:13:45.003Z</time></trkpt><trkpt lat="44.98504118719101" lon="8.385518672620648"><ele>162.0</ele><time>2026-04-18T10:13:46.003Z</time></trkpt><trkpt lat="44.98496504690179" lon="8.385523422837073"><ele>162.0</ele><time>2026-04-18T10:13:47.003Z</time></trkpt><trkpt lat="44.984884674285716" lon="8.38552843712126"><ele>162.0</ele><time>2026-04-18T10:13:48.003Z</time></trkpt><trkpt lat="44.98476604602496" lon="8.385535838098349"><ele>161.5</ele><time>2026-04-18T10:13:50.003Z</time></trkpt><trkpt lat="44.984689109879135" lon="8.385507564054956"><ele>161.0</ele><time>2026-04-18T10:13:52.003Z</time></trkpt><trkpt lat="44.98460560145535" lon="8.384733537016963"><ele>160.0</ele><time>2026-04-18T10:13:54Z</time></trkpt><trkpt lat="44.98452948925263" lon="8.38456628891151"><ele>159.0</ele><time>2026-04-18T10:13:56Z</time></trkpt><trkpt lat="44.9844834242586" lon="8.384464863344993"><ele>158.0</ele><time>2026-04-18T10:13:57Z</time></trkpt><trkpt lat="44.984438163317805" lon="8.384363369362362"><ele>157.0</ele><time>2026-04-18T10:13:58Z</time></trkpt><trkpt lat="44.98438558220334" lon="8.384251511750536"><ele>156.0</ele><time>2026-04-18T10:13:59Z</time></trkpt><trkpt lat="44.98433279601534" lon="8.384140876829262"><ele>156.0</ele><time>2026-04-18T10:14:00Z</time></trkpt><trkpt lat="44.98428318082515" lon="8.38403477215698"><ele>156.0</ele><time>2026-04-18T10:14:01Z</time></trkpt><trkpt lat="44.98422760943705" lon="8.383929066695815"><ele>156.0</ele><time>2026-04-18T10:14:02Z</time></trkpt><trkpt lat="44.984167645570274" lon="8.383823401333805"><ele>156.0</ele><time>2026-04-18T10:14:03Z</time></trkpt><trkpt lat="44.984102462085886" lon="8.383712049390384"><ele>156.0</ele><time>2026-04-18T10:14:04Z</time></trkpt><trkpt lat="44.98404108179476" lon="8.383605640007639"><ele>155.5</ele><time>2026-04-18T10:14:05Z</time></trkpt><trkpt lat="44.9839912393187" lon="8.383510543009969"><ele>155.0</ele><time>2026-04-18T10:14:06Z</time></trkpt><trkpt lat="44.98395028680825" lon="8.383424266959683"><ele>154.5</ele><time>2026-04-18T10:14:07Z</time></trkpt><trkpt lat="44.98390129138738" lon="8.383325319582495"><ele>154.0</ele><time>2026-04-18T10:14:08Z</time></trkpt><trkpt lat="44.98384981375521" lon="8.38321557374844"><ele>153.5</ele><time>2026-04-18T10:14:09Z</time></trkpt><trkpt lat="44.98379968488462" lon="8.383092890737748"><ele>153.0</ele><time>2026-04-18T10:14:10Z</time></trkpt><trkpt lat="44.983753383861355" lon="8.382960847246451"><ele>153.0</ele><time>2026-04-18T10:14:11Z</time></trkpt><trkpt lat="44.98371014522543" lon="8.382827953717795"><ele>153.0</ele><time>2026-04-18T10:14:12Z</time></trkpt><trkpt lat="44.98367918012579" lon="8.382708144636794"><ele>153.0</ele><time>2026-04-18T10:14:13Z</time></trkpt><trkpt lat="44.98365005595109" lon="8.38259058896741"><ele>153.0</ele><time>2026-04-18T10:14:14Z</time></trkpt><trkpt lat="44.98362159481241" lon="8.382465879182641"><ele>153.0</ele><time>2026-04-18T10:14:15Z</time></trkpt><trkpt lat="44.983598103051634" lon="8.3823528034402"><ele>153.0</ele><time>2026-04-18T10:14:16Z</time></trkpt><trkpt lat="44.98357490912696" lon="8.382245935456979"><ele>153.0</ele><time>2026-04-18T10:14:17Z</time></trkpt><trkpt lat="44.98356438766759" lon="8.382072634705981"><ele>153.0</ele><time>2026-04-18T10:14:19Z</time></trkpt><trkpt lat="44.98356944751027" lon="8.381974802342699"><ele>153.0</ele><time>2026-04-18T10:14:20Z</time></trkpt><trkpt lat="44.98357919567837" lon="8.381866257056178"><ele>153.0</ele><time>2026-04-18T10:14:21Z</time></trkpt><trkpt lat="44.98358657095" lon="8.38174457417879"><ele>153.0</ele><time>2026-04-18T10:14:22Z</time></trkpt><trkpt lat="44.98359339575795" lon="8.38161663198425"><ele>153.0</ele><time>2026-04-18T10:14:23Z</time></trkpt><trkpt lat="44.98359913896892" lon="8.381485506797997"><ele>153.0</ele><time>2026-04-18T10:14:24Z</time></trkpt><trkpt lat="44.98360228247095" lon="8.381348837393752"><ele>153.0</ele><time>2026-04-18T10:14:25Z</time></trkpt><trkpt lat="44.983605480971775" lon="8.381205357754137"><ele>153.0</ele><time>2026-04-18T10:14:26Z</time></trkpt><trkpt lat="44.98360426417701" lon="8.38107337237852"><ele>153.0</ele><time>2026-04-18T10:14:27Z</time></trkpt><trkpt lat="44.983598020880414" lon="8.380931812505898"><ele>153.0</ele><time>2026-04-18T10:14:28.001Z</time></trkpt><trkpt lat="44.98358931447661" lon="8.38080253462157"><ele>153.0</ele><time>2026-04-18T10:14:29.001Z</time></trkpt><trkpt lat="44.98358138097992" lon="8.380657676318362"><ele>153.0</ele><time>2026-04-18T10:14:30.001Z</time></trkpt><trkpt lat="44.98357596332208" lon="8.380525039882286"><ele>153.0</ele><time>2026-04-18T10:14:31.001Z</time></trkpt><trkpt lat="44.98357330297554" lon="8.380387746417023"><ele>153.0</ele><time>2026-04-18T10:14:32.001Z</time></trkpt><trkpt lat="44.98357508577179" lon="8.380227922667789"><ele>153.20000000000002</ele><time>2026-04-18T10:14:33.001Z</time></trkpt><trkpt lat="44.98357969373002" lon="8.380063906731417"><ele>153.4</ele><time>2026-04-18T10:14:34.001Z</time></trkpt><trkpt lat="44.9835816852043" lon="8.379909078125603"><ele>153.60000000000002</ele><time>2026-04-18T10:14:35.001Z</time></trkpt><trkpt lat="44.98358197288543" lon="8.3797665880916"><ele>153.8</ele><time>2026-04-18T10:14:36.001Z</time></trkpt><trkpt lat="44.98358023175358" lon="8.379628222948902"><ele>154.0</ele><time>2026-04-18T10:14:37.001Z</time></trkpt><trkpt lat="44.9835750539061" lon="8.379482876846044"><ele>154.0</ele><time>2026-04-18T10:14:38.001Z</time></trkpt><trkpt lat="44.98355957140895" lon="8.379345428960901"><ele>154.0</ele><time>2026-04-18T10:14:39.001Z</time></trkpt><trkpt lat="44.9835362371813" lon="8.37922034888498"><ele>154.0</ele><time>2026-04-18T10:14:40.001Z</time></trkpt><trkpt lat="44.98350462733562" lon="8.379079073332258"><ele>154.0</ele><time>2026-04-18T10:14:41.001Z</time></trkpt><trkpt lat="44.98347521972737" lon="8.37895848410822"><ele>154.0</ele><time>2026-04-18T10:14:42.001Z</time></trkpt><trkpt lat="44.9834585026978" lon="8.378864631121356"><ele>154.33333333333334</ele><time>2026-04-18T10:14:43.001Z</time></trkpt><trkpt lat="44.98342670462235" lon="8.378712778292819"><ele>154.66666666666669</ele><time>2026-04-18T10:14:45.001Z</time></trkpt><trkpt lat="44.98340925097613" lon="8.378625573856143"><ele>155.0</ele><time>2026-04-18T10:14:47.001Z</time></trkpt><trkpt lat="44.98340688962516" lon="8.378510374957306"><ele>155.33333333333334</ele><time>2026-04-18T10:15:07.001Z</time></trkpt><trkpt lat="44.98337596945997" lon="8.378344834283224"><ele>155.66666666666666</ele><time>2026-04-18T10:15:09.002Z</time></trkpt><trkpt lat="44.9833591034324" lon="8.378249637279284"><ele>156.0</ele><time>2026-04-18T10:15:10.002Z</time></trkpt><trkpt lat="44.983339328710855" lon="8.378146963255205"><ele>156.16666666666666</ele><time>2026-04-18T10:15:11.002Z</time></trkpt><trkpt lat="44.983319500982326" lon="8.378036628274247"><ele>156.33333333333334</ele><time>2026-04-18T10:15:12.002Z</time></trkpt><trkpt lat="44.98330474151275" lon="8.377934360000742"><ele>156.5</ele><time>2026-04-18T10:15:13.002Z</time></trkpt><trkpt lat="44.98328773001871" lon="8.377835284809702"><ele>156.66666666666669</ele><time>2026-04-18T10:15:14.002Z</time></trkpt><trkpt lat="44.983273362644816" lon="8.377726702971156"><ele>156.83333333333334</ele><time>2026-04-18T10:15:15.002Z</time></trkpt><trkpt lat="44.983259844083534" lon="8.377610414304545"><ele>157.0</ele><time>2026-04-18T10:15:16.002Z</time></trkpt><trkpt lat="44.98324494433354" lon="8.377489467852655"><ele>157.0</ele><time>2026-04-18T10:15:17.002Z</time></trkpt><trkpt lat="44.98323026397497" lon="8.377384657522681"><ele>157.0</ele><time>2026-04-18T10:15:18.002Z</time></trkpt><trkpt lat="44.983224338313185" lon="8.37728960047206"><ele>157.0</ele><time>2026-04-18T10:15:19.002Z</time></trkpt><trkpt lat="44.9832182906498" lon="8.377190237309739"><ele>157.0</ele><time>2026-04-18T10:15:20.002Z</time></trkpt><trkpt lat="44.983213248965576" lon="8.377062600599452"><ele>157.0</ele><time>2026-04-18T10:15:21.002Z</time></trkpt><trkpt lat="44.983207515167955" lon="8.376933800192772"><ele>157.0</ele><time>2026-04-18T10:15:22.002Z</time></trkpt><trkpt lat="44.98320290210155" lon="8.376800785573396"><ele>157.16666666666669</ele><time>2026-04-18T10:15:23.002Z</time></trkpt><trkpt lat="44.98320817754489" lon="8.376682972844627"><ele>157.33333333333334</ele><time>2026-04-18T10:15:24.002Z</time></trkpt><trkpt lat="44.98320903117428" lon="8.37656723036893"><ele>157.5</ele><time>2026-04-18T10:15:25.002Z</time></trkpt><trkpt lat="44.98320777233044" lon="8.376456041135429"><ele>157.66666666666666</ele><time>2026-04-18T10:15:26.002Z</time></trkpt><trkpt lat="44.98320007108001" lon="8.37633561026764"><ele>157.83333333333331</ele><time>2026-04-18T10:15:27.002Z</time></trkpt><trkpt lat="44.983188946905365" lon="8.376229078691711"><ele>158.0</ele><time>2026-04-18T10:15:28.002Z</time></trkpt><trkpt lat="44.98317573611295" lon="8.376116178774318"><ele>157.57142857142858</ele><time>2026-04-18T10:15:29.002Z</time></trkpt><trkpt lat="44.983165785514764" lon="8.376012522705736"><ele>157.14285714285714</ele><time>2026-04-18T10:15:30.002Z</time></trkpt><trkpt lat="44.98315432132555" lon="8.375903583438818"><ele>156.71428571428572</ele><time>2026-04-18T10:15:31.002Z</time></trkpt><trkpt lat="44.98315232828696" lon="8.375814065579055"><ele>156.28571428571428</ele><time>2026-04-18T10:15:32.002Z</time></trkpt><trkpt lat="44.98315307396657" lon="8.375724527939376"><ele>155.85714285714286</ele><time>2026-04-18T10:15:33.002Z</time></trkpt><trkpt lat="44.983141388016215" lon="8.375613328475275"><ele>155.42857142857144</ele><time>2026-04-18T10:15:34.002Z</time></trkpt><trkpt lat="44.98312043813993" lon="8.37549808616856"><ele>155.0</ele><time>2026-04-18T10:15:35.002Z</time></trkpt><trkpt lat="44.98309407423464" lon="8.375378275011148"><ele>155.0</ele><time>2026-04-18T10:15:36.002Z</time></trkpt><trkpt lat="44.98307536857287" lon="8.375255313236135"><ele>155.0</ele><time>2026-04-18T10:15:37.002Z</time></trkpt><trkpt lat="44.98306787732606" lon="8.375153053396025"><ele>155.0</ele><time>2026-04-18T10:15:38.002Z</time></trkpt><trkpt lat="44.983058091320785" lon="8.375031258378824"><ele>155.0</ele><time>2026-04-18T10:15:39.002Z</time></trkpt><trkpt lat="44.983053114197666" lon="8.374910048916725"><ele>155.0</ele><time>2026-04-18T10:15:40.002Z</time></trkpt><trkpt lat="44.98306176657106" lon="8.37477907698556"><ele>155.0</ele><time>2026-04-18T10:15:41.002Z</time></trkpt><trkpt lat="44.983075247227035" lon="8.374657683062267"><ele>155.0</ele><time>2026-04-18T10:15:42.002Z</time></trkpt><trkpt lat="44.983092449495544" lon="8.374530138170886"><ele>155.0</ele><time>2026-04-18T10:15:43.002Z</time></trkpt><trkpt lat="44.98310988821294" lon="8.374414351872481"><ele>155.0</ele><time>2026-04-18T10:15:44.002Z</time></trkpt><trkpt lat="44.98313132138575" lon="8.374293865937227"><ele>155.0</ele><time>2026-04-18T10:15:45.002Z</time></trkpt><trkpt lat="44.983159738008524" lon="8.374180472502266"><ele>155.0</ele><time>2026-04-18T10:15:46.002Z</time></trkpt><trkpt lat="44.983196067735015" lon="8.374078251871351"><ele>155.0</ele><time>2026-04-18T10:15:47.002Z</time></trkpt><trkpt lat="44.98323828821181" lon="8.373976932469038"><ele>155.0</ele><time>2026-04-18T10:15:48.003Z</time></trkpt><trkpt lat="44.983269124633615" lon="8.373890488291098"><ele>155.0</ele><time>2026-04-18T10:15:49.003Z</time></trkpt><trkpt lat="44.983288107537724" lon="8.373801432593648"><ele>155.0</ele><time>2026-04-18T10:15:50.003Z</time></trkpt><trkpt lat="44.98330819314808" lon="8.373698341264072"><ele>155.0</ele><time>2026-04-18T10:15:51.003Z</time></trkpt><trkpt lat="44.983319121840445" lon="8.373597802587842"><ele>155.0</ele><time>2026-04-18T10:15:52.003Z</time></trkpt><trkpt lat="44.983334126157516" lon="8.373433376276758"><ele>155.0</ele><time>2026-04-18T10:15:54.003Z</time></trkpt><trkpt lat="44.9833442491931" lon="8.373335707446113"><ele>155.16666666666666</ele><time>2026-04-18T10:15:55.003Z</time></trkpt><trkpt lat="44.983351467620864" lon="8.37323861010765"><ele>155.33333333333331</ele><time>2026-04-18T10:15:56.003Z</time></trkpt><trkpt lat="44.98334812317026" lon="8.373143975391024"><ele>155.5</ele><time>2026-04-18T10:15:57.003Z</time></trkpt><trkpt lat="44.9833401774005" lon="8.37303809673819"><ele>155.66666666666666</ele><time>2026-04-18T10:15:58.003Z</time></trkpt><trkpt lat="44.98332826963511" lon="8.372948000416528"><ele>155.83333333333334</ele><time>2026-04-18T10:15:59.003Z</time></trkpt><trkpt lat="44.98331842039761" lon="8.37275569280336"><ele>156.0</ele><time>2026-04-18T10:16:01Z</time></trkpt><trkpt lat="44.98331944520614" lon="8.372656458157458"><ele>156.0</ele><time>2026-04-18T10:16:02Z</time></trkpt><trkpt lat="44.983319179552744" lon="8.372550295107583"><ele>156.0</ele><time>2026-04-18T10:16:03Z</time></trkpt><trkpt lat="44.98331399847625" lon="8.372449829102306"><ele>156.0</ele><time>2026-04-18T10:16:04Z</time></trkpt><trkpt lat="44.983291833098654" lon="8.37235751316199"><ele>156.0</ele><time>2026-04-18T10:16:05Z</time></trkpt><trkpt lat="44.983276285854174" lon="8.372266221021563"><ele>156.0</ele><time>2026-04-18T10:16:06Z</time></trkpt><trkpt lat="44.983262789398644" lon="8.372169765791226"><ele>156.0</ele><time>2026-04-18T10:16:07Z</time></trkpt><trkpt lat="44.983246742768834" lon="8.372073017358968"><ele>156.0</ele><time>2026-04-18T10:16:08Z</time></trkpt><trkpt lat="44.983219955853045" lon="8.371966402650784"><ele>156.16666666666666</ele><time>2026-04-18T10:16:09Z</time></trkpt><trkpt lat="44.98318715403579" lon="8.371854116322057"><ele>156.33333333333334</ele><time>2026-04-18T10:16:10Z</time></trkpt><trkpt lat="44.98315198138299" lon="8.37173649121782"><ele>156.5</ele><time>2026-04-18T10:16:11Z</time></trkpt><trkpt lat="44.983125792822065" lon="8.371623097007731"><ele>156.66666666666669</ele><time>2026-04-18T10:16:12Z</time></trkpt><trkpt lat="44.983091698796734" lon="8.371507048014434"><ele>156.83333333333334</ele><time>2026-04-18T10:16:13Z</time></trkpt><trkpt lat="44.983056629248665" lon="8.371393720589644"><ele>157.0</ele><time>2026-04-18T10:16:14Z</time></trkpt><trkpt lat="44.983018936038114" lon="8.37127863053262"><ele>157.0</ele><time>2026-04-18T10:16:15Z</time></trkpt><trkpt lat="44.982979581984054" lon="8.371145625747594"><ele>157.0</ele><time>2026-04-18T10:16:16Z</time></trkpt><trkpt lat="44.9829468881838" lon="8.371027580180762"><ele>157.0</ele><time>2026-04-18T10:16:17Z</time></trkpt><trkpt lat="44.98291244605934" lon="8.370900550066535"><ele>157.0</ele><time>2026-04-18T10:16:18Z</time></trkpt><trkpt lat="44.98288248922936" lon="8.370778349213202"><ele>157.0</ele><time>2026-04-18T10:16:19Z</time></trkpt><trkpt lat="44.98285873844319" lon="8.37065493103209"><ele>157.0</ele><time>2026-04-18T10:16:20Z</time></trkpt><trkpt lat="44.982838602072555" lon="8.370560477217378"><ele>157.0</ele><time>2026-04-18T10:16:21Z</time></trkpt><trkpt lat="44.982801100147256" lon="8.370411994694035"><ele>157.0</ele><time>2026-04-18T10:16:23Z</time></trkpt><trkpt lat="44.98277643238007" lon="8.370314599342626"><ele>157.0</ele><time>2026-04-18T10:16:24Z</time></trkpt><trkpt lat="44.98276188491238" lon="8.3702229991404"><ele>157.0</ele><time>2026-04-18T10:16:25Z</time></trkpt><trkpt lat="44.98275917684959" lon="8.370129538406434"><ele>157.0</ele><time>2026-04-18T10:16:26Z</time></trkpt><trkpt lat="44.98275924461959" lon="8.369935405218385"><ele>157.16666666666669</ele><time>2026-04-18T10:16:28Z</time></trkpt><trkpt lat="44.98275891375927" lon="8.369824760612266"><ele>157.33333333333334</ele><time>2026-04-18T10:16:29Z</time></trkpt><trkpt lat="44.98276434750616" lon="8.369723403971214"><ele>157.5</ele><time>2026-04-18T10:16:30Z</time></trkpt><trkpt lat="44.982771683641374" lon="8.369632110429322"><ele>157.66666666666666</ele><time>2026-04-18T10:16:31Z</time></trkpt><trkpt lat="44.9827666207847" lon="8.36952601845286"><ele>157.83333333333331</ele><time>2026-04-18T10:16:32Z</time></trkpt><trkpt lat="44.98276784339617" lon="8.369404481993564"><ele>158.0</ele><time>2026-04-18T10:16:33Z</time></trkpt><trkpt lat="44.982773018261526" lon="8.369270720605064"><ele>158.16666666666666</ele><time>2026-04-18T10:16:34.001Z</time></trkpt><trkpt lat="44.98277559021527" lon="8.369138880192779"><ele>158.33333333333331</ele><time>2026-04-18T10:16:35.001Z</time></trkpt><trkpt lat="44.98277919769878" lon="8.369035175450042"><ele>158.5</ele><time>2026-04-18T10:16:36.001Z</time></trkpt><trkpt lat="44.98278019918917" lon="8.368912896892198"><ele>158.66666666666666</ele><time>2026-04-18T10:16:37.001Z</time></trkpt><trkpt lat="44.982779702067134" lon="8.36879930061319"><ele>158.83333333333334</ele><time>2026-04-18T10:16:38.001Z</time></trkpt><trkpt lat="44.98277728796381" lon="8.368663490165698"><ele>159.0</ele><time>2026-04-18T10:16:39.001Z</time></trkpt><trkpt lat="44.982773979016386" lon="8.368542596763042"><ele>159.16666666666666</ele><time>2026-04-18T10:16:40.001Z</time></trkpt><trkpt lat="44.982767284514665" lon="8.368427447685866"><ele>159.33333333333334</ele><time>2026-04-18T10:16:41.001Z</time></trkpt><trkpt lat="44.98276080439747" lon="8.36830069349951"><ele>159.5</ele><time>2026-04-18T10:16:42.001Z</time></trkpt><trkpt lat="44.982759288124065" lon="8.368170975038414"><ele>159.66666666666669</ele><time>2026-04-18T10:16:43.001Z</time></trkpt><trkpt lat="44.98275748754761" lon="8.368044840026155"><ele>159.83333333333334</ele><time>2026-04-18T10:16:44.001Z</time></trkpt><trkpt lat="44.982756130627514" lon="8.367921285202556"><ele>160.0</ele><time>2026-04-18T10:16:45.001Z</time></trkpt><trkpt lat="44.98275694854167" lon="8.367804813154798"><ele>160.0</ele><time>2026-04-18T10:16:46.001Z</time></trkpt><trkpt lat="44.982750383427636" lon="8.367706160802335"><ele>160.0</ele><time>2026-04-18T10:16:47.001Z</time></trkpt><trkpt lat="44.982746057248626" lon="8.367537061177254"><ele>160.0</ele><time>2026-04-18T10:16:49.001Z</time></trkpt><trkpt lat="44.98275578879672" lon="8.367392287723845"><ele>160.0</ele><time>2026-04-18T10:16:51.001Z</time></trkpt><trkpt lat="44.982738746367204" lon="8.367299378766454"><ele>160.0</ele><time>2026-04-18T10:17:03.001Z</time></trkpt><trkpt lat="44.982693622645165" lon="8.36723206173492"><ele>160.0</ele><time>2026-04-18T10:17:05.001Z</time></trkpt><trkpt lat="44.98261973748952" lon="8.367181859927156"><ele>160.0</ele><time>2026-04-18T10:17:07.001Z</time></trkpt><trkpt lat="44.98253111640249" lon="8.36711834127847"><ele>160.0</ele><time>2026-04-18T10:17:09.001Z</time></trkpt><trkpt lat="44.98245063694861" lon="8.367055101594287"><ele>160.0</ele><time>2026-04-18T10:17:11.001Z</time></trkpt><trkpt lat="44.98239567431878" lon="8.366993229989582"><ele>160.0</ele><time>2026-04-18T10:17:13.001Z</time></trkpt><trkpt lat="44.98236130785623" lon="8.366911911249344"><ele>160.0</ele><time>2026-04-18T10:17:40.002Z</time></trkpt><trkpt lat="44.98234260328701" lon="8.36681628352407"><ele>160.0</ele><time>2026-04-18T10:17:51.002Z</time></trkpt><trkpt lat="44.98232608384067" lon="8.366720679522649"><ele>160.66666666666669</ele><time>2026-04-18T10:17:56.003Z</time></trkpt><trkpt lat="44.98231938231865" lon="8.366612943567082"><ele>161.33333333333334</ele><time>2026-04-18T10:18:00.003Z</time></trkpt><trkpt lat="44.982312913832196" lon="8.366513177401925"><ele>162.0</ele><time>2026-04-18T10:18:05.003Z</time></trkpt><trkpt lat="44.98230509634351" lon="8.366412180679408"><ele>162.66666666666666</ele><time>2026-04-18T10:18:16Z</time></trkpt><trkpt lat="44.982299706449226" lon="8.366278913735973"><ele>163.33333333333331</ele><time>2026-04-18T10:18:19Z</time></trkpt><trkpt lat="44.982295502286526" lon="8.366168895543728"><ele>164.0</ele><time>2026-04-18T10:18:22Z</time></trkpt><trkpt lat="44.982290601571755" lon="8.366073532777856"><ele>164.33333333333331</ele><time>2026-04-18T10:18:27Z</time></trkpt><trkpt lat="44.982286401024595" lon="8.36596769684257"><ele>164.66666666666666</ele><time>2026-04-18T10:18:31Z</time></trkpt><trkpt lat="44.98228964887785" lon="8.365865565114069"><ele>165.0</ele><time>2026-04-18T10:18:36Z</time></trkpt><trkpt lat="44.98228089013373" lon="8.365777009022674"><ele>165.33333333333334</ele><time>2026-04-18T10:18:40Z</time></trkpt><trkpt lat="44.982281342849156" lon="8.365666027498818"><ele>165.66666666666669</ele><time>2026-04-18T10:18:44.001Z</time></trkpt><trkpt lat="44.982279260068005" lon="8.365562970906993"><ele>166.0</ele><time>2026-04-18T10:18:47.001Z</time></trkpt><trkpt lat="44.98227886774824" lon="8.36542217979422"><ele>167.0</ele><time>2026-04-18T10:18:50.001Z</time></trkpt><trkpt lat="44.982280687620694" lon="8.365266659256637"><ele>168.0</ele><time>2026-04-18T10:18:52.001Z</time></trkpt><trkpt lat="44.98228203417523" lon="8.365173869432832"><ele>169.0</ele><time>2026-04-18T10:18:53.001Z</time></trkpt><trkpt lat="44.98228863502805" lon="8.36507258347913"><ele>170.0</ele><time>2026-04-18T10:18:54.001Z</time></trkpt><trkpt lat="44.982280995861146" lon="8.364925633510044"><ele>171.0</ele><time>2026-04-18T10:18:56.001Z</time></trkpt><trkpt lat="44.98228230722498" lon="8.364741257724397"><ele>171.8</ele><time>2026-04-18T10:18:58.001Z</time></trkpt><trkpt lat="44.982275468495686" lon="8.36464204448649"><ele>172.60000000000002</ele><time>2026-04-18T10:18:59.001Z</time></trkpt><trkpt lat="44.98229573862202" lon="8.36443170192675"><ele>173.4</ele><time>2026-04-18T10:19:02.001Z</time></trkpt><trkpt lat="44.98233265259369" lon="8.3642950223049"><ele>174.2</ele><time>2026-04-18T10:19:04.001Z</time></trkpt><trkpt lat="44.98235676642021" lon="8.364143655755548"><ele>175.0</ele><time>2026-04-18T10:19:06.001Z</time></trkpt><trkpt lat="44.982374841231255" lon="8.36404694094663"><ele>175.0</ele><time>2026-04-18T10:19:09.001Z</time></trkpt><trkpt lat="44.98234461304347" lon="8.364149499460268"><ele>175.0</ele><time>2026-04-18T10:21:57.002Z</time></trkpt><trkpt lat="44.982325877825176" lon="8.36424726543438"><ele>175.0</ele><time>2026-04-18T10:22:02.003Z</time></trkpt><trkpt lat="44.98229616865845" lon="8.364337069941993"><ele>175.0</ele><time>2026-04-18T10:22:05.003Z</time></trkpt><trkpt lat="44.982267267974855" lon="8.36442240103635"><ele>175.0</ele><time>2026-04-18T10:22:10.003Z</time></trkpt><trkpt lat="44.98229405846961" lon="8.364338651382829"><ele>175.0</ele><time>2026-04-18T10:22:43Z</time></trkpt><trkpt lat="44.982318639685204" lon="8.364250740078658"><ele>175.0</ele><time>2026-04-18T10:22:48.001Z</time></trkpt><trkpt lat="44.98234091069599" lon="8.364165108271537"><ele>175.0</ele><time>2026-04-18T10:22:54.001Z</time></trkpt><trkpt lat="44.982347975526984" lon="8.36406846271838"><ele>175.0</ele><time>2026-04-18T10:23:00.001Z</time></trkpt><trkpt lat="44.98235178790333" lon="8.364189592960328"><ele>175.0</ele><time>2026-04-18T10:25:04.001Z</time></trkpt><trkpt lat="44.98233236115062" lon="8.364299397782833"><ele>175.0</ele><time>2026-04-18T10:25:08.001Z</time></trkpt><trkpt lat="44.98230474330339" lon="8.364400351116716"><ele>175.0</ele><time>2026-04-18T10:25:14.001Z</time></trkpt><trkpt lat="44.982278179316616" lon="8.364490674737791"><ele>175.0</ele><time>2026-04-18T10:25:18.001Z</time></trkpt><trkpt lat="44.98226174338475" lon="8.364602116273845"><ele>175.0</ele><time>2026-04-18T10:25:23.001Z</time></trkpt><trkpt lat="44.9822588461275" lon="8.36469313200122"><ele>175.0</ele><time>2026-04-18T10:25:27.001Z</time></trkpt><trkpt lat="44.982265166855825" lon="8.364801226222228"><ele>175.0</ele><time>2026-04-18T10:25:32.001Z</time></trkpt><trkpt lat="44.9822611434378" lon="8.364895341649998"><ele>175.0</ele><time>2026-04-18T10:25:36.002Z</time></trkpt><trkpt lat="44.982262358465334" lon="8.364991104746212"><ele>175.0</ele><time>2026-04-18T10:25:40.002Z</time></trkpt><trkpt lat="44.98226174452589" lon="8.365085144932552"><ele>175.0</ele><time>2026-04-18T10:25:43.002Z</time></trkpt><trkpt lat="44.982259242741605" lon="8.365176896840161"><ele>175.0</ele><time>2026-04-18T10:25:46.002Z</time></trkpt><trkpt lat="44.98226122965245" lon="8.365265901488122"><ele>174.42857142857142</ele><time>2026-04-18T10:25:50.002Z</time></trkpt><trkpt lat="44.982263321945766" lon="8.365372583098733"><ele>173.85714285714286</ele><time>2026-04-18T10:25:54.002Z</time></trkpt><trkpt lat="44.98226720730707" lon="8.365474996810422"><ele>173.28571428571428</ele><time>2026-04-18T10:25:59.002Z</time></trkpt><trkpt lat="44.98226886699769" lon="8.365581807264414"><ele>172.71428571428572</ele><time>2026-04-18T10:26:04.002Z</time></trkpt><trkpt lat="44.98226853670411" lon="8.365678607353573"><ele>172.14285714285714</ele><time>2026-04-18T10:26:09.002Z</time></trkpt><trkpt lat="44.98226732120459" lon="8.365775969308848"><ele>171.57142857142856</ele><time>2026-04-18T10:26:15.003Z</time></trkpt><trkpt lat="44.98226634177136" lon="8.365873128817075"><ele>171.0</ele><time>2026-04-18T10:26:23.003Z</time></trkpt><trkpt lat="44.982266032833344" lon="8.365967731604806"><ele>170.28571428571428</ele><time>2026-04-18T10:26:28.003Z</time></trkpt><trkpt lat="44.982269822523484" lon="8.366063884524724"><ele>169.57142857142856</ele><time>2026-04-18T10:26:32.001Z</time></trkpt><trkpt lat="44.982274564078466" lon="8.366157843671369"><ele>168.85714285714283</ele><time>2026-04-18T10:26:36.001Z</time></trkpt><trkpt lat="44.982282661895255" lon="8.366253140298262"><ele>168.14285714285714</ele><time>2026-04-18T10:26:40.001Z</time></trkpt><trkpt lat="44.9822884105224" lon="8.366345708928407"><ele>167.42857142857144</ele><time>2026-04-18T10:26:43.001Z</time></trkpt><trkpt lat="44.98228879243565" lon="8.36643699821242"><ele>166.7142857142857</ele><time>2026-04-18T10:26:46.001Z</time></trkpt><trkpt lat="44.982293823341294" lon="8.366529044404833"><ele>166.0</ele><time>2026-04-18T10:26:49.001Z</time></trkpt><trkpt lat="44.982291895391114" lon="8.366627562208263"><ele>165.7142857142857</ele><time>2026-04-18T10:26:54.001Z</time></trkpt><trkpt lat="44.98229977873936" lon="8.366721240509913"><ele>165.42857142857144</ele><time>2026-04-18T10:26:58.001Z</time></trkpt><trkpt lat="44.9823159020644" lon="8.366824119872506"><ele>165.14285714285714</ele><time>2026-04-18T10:27:02.001Z</time></trkpt><trkpt lat="44.98231236099144" lon="8.366916615260326"><ele>164.85714285714283</ele><time>2026-04-18T10:27:51.002Z</time></trkpt><trkpt lat="44.98236104186489" lon="8.366975525117105"><ele>164.57142857142856</ele><time>2026-04-18T10:29:59.002Z</time></trkpt><trkpt lat="44.982407580426774" lon="8.367057818849474"><ele>164.28571428571428</ele><time>2026-04-18T10:34:27.002Z</time></trkpt><trkpt lat="44.982471777599905" lon="8.367113426939808"><ele>164.0</ele><time>2026-04-18T10:34:36.002Z</time></trkpt><trkpt lat="44.98242269280944" lon="8.36704526354816"><ele>163.99999999999997</ele><time>2026-04-18T10:34:49.002Z</time></trkpt><trkpt lat="44.98237435811911" lon="8.366980487764165"><ele>164.0</ele><time>2026-04-18T10:34:55.001Z</time></trkpt><trkpt lat="44.98234223564603" lon="8.36689204429756"><ele>164.0</ele><time>2026-04-18T10:35:01.001Z</time></trkpt><trkpt lat="44.98234320902266" lon="8.366988110896534"><ele>164.0</ele><time>2026-04-18T10:35:15.001Z</time></trkpt><trkpt lat="44.9823948772141" lon="8.367052994446711"><ele>164.0</ele><time>2026-04-18T10:35:20.001Z</time></trkpt><trkpt lat="44.98245097610042" lon="8.367111205968756"><ele>163.99999999999997</ele><time>2026-04-18T10:35:26.001Z</time></trkpt><trkpt lat="44.98252209061978" lon="8.367132277899733"><ele>164.0</ele><time>2026-04-18T10:35:34.001Z</time></trkpt><trkpt lat="44.982469277240064" lon="8.367069434810897"><ele>163.99999999999997</ele><time>2026-04-18T10:35:54.001Z</time></trkpt><trkpt lat="44.98240456510785" lon="8.367020324700489"><ele>164.0</ele><time>2026-04-18T10:36:00.001Z</time></trkpt><trkpt lat="44.98235960006969" lon="8.366954573507572"><ele>164.0</ele><time>2026-04-18T10:36:06.001Z</time></trkpt><trkpt lat="44.98230008051236" lon="8.366912981117055"><ele>164.0</ele><time>2026-04-18T10:36:39.002Z</time></trkpt><trkpt lat="44.98234865445003" lon="8.366969959049362"><ele>164.0</ele><time>2026-04-18T10:39:42Z</time></trkpt><trkpt lat="44.982398137258734" lon="8.367039932200582"><ele>163.99999999999997</ele><time>2026-04-18T10:39:58Z</time></trkpt><trkpt lat="44.98245555829481" lon="8.367089709967269"><ele>164.0</ele><time>2026-04-18T10:40:06.001Z</time></trkpt><trkpt lat="44.98251672613283" lon="8.367130657703786"><ele>163.42857142857142</ele><time>2026-04-18T10:40:13.001Z</time></trkpt><trkpt lat="44.982580201973" lon="8.367176544978989"><ele>162.85714285714286</ele><time>2026-04-18T10:40:20.001Z</time></trkpt><trkpt lat="44.982640546836606" lon="8.367221162218224"><ele>162.28571428571428</ele><time>2026-04-18T10:40:26.001Z</time></trkpt><trkpt lat="44.98269610093039" lon="8.367268715050285"><ele>161.71428571428572</ele><time>2026-04-18T10:40:32.001Z</time></trkpt><trkpt lat="44.98273246846122" lon="8.367345075060603"><ele>161.14285714285714</ele><time>2026-04-18T10:43:45Z</time></trkpt><trkpt lat="44.982789577816746" lon="8.36729094012886"><ele>160.57142857142856</ele><time>2026-04-18T10:50:32.001Z</time></trkpt><trkpt lat="44.98284370172949" lon="8.367164528599686"><ele>160.0</ele><time>2026-04-18T10:50:44.001Z</time></trkpt><trkpt lat="44.98287357222131" lon="8.367076805710685"><ele>160.0</ele><time>2026-04-18T10:50:45.001Z</time></trkpt><trkpt lat="44.98291924580419" lon="8.366922781707933"><ele>160.0</ele><time>2026-04-18T10:50:47.001Z</time></trkpt><trkpt lat="44.98294387466458" lon="8.366834768954726"><ele>160.0</ele><time>2026-04-18T10:50:48.001Z</time></trkpt><trkpt lat="44.98298058030239" lon="8.366694499947535"><ele>160.0</ele><time>2026-04-18T10:50:50.001Z</time></trkpt><trkpt lat="44.98302256035642" lon="8.366546198276124"><ele>160.0</ele><time>2026-04-18T10:50:52.001Z</time></trkpt><trkpt lat="44.98304844377219" lon="8.36645568535934"><ele>160.0</ele><time>2026-04-18T10:50:53.001Z</time></trkpt><trkpt lat="44.983071759263424" lon="8.366364975777792"><ele>160.0</ele><time>2026-04-18T10:50:54.001Z</time></trkpt><trkpt lat="44.98309990799994" lon="8.366264445305541"><ele>160.0</ele><time>2026-04-18T10:50:55.001Z</time></trkpt><trkpt lat="44.983131010679294" lon="8.366165575411154"><ele>160.0</ele><time>2026-04-18T10:50:56.001Z</time></trkpt><trkpt lat="44.98316036433934" lon="8.366057973152486"><ele>160.0</ele><time>2026-04-18T10:50:57.001Z</time></trkpt><trkpt lat="44.98318809152166" lon="8.36595605042595"><ele>160.0</ele><time>2026-04-18T10:50:58.001Z</time></trkpt><trkpt lat="44.98321757178568" lon="8.365856938998398"><ele>160.0</ele><time>2026-04-18T10:50:59.001Z</time></trkpt><trkpt lat="44.983256734732485" lon="8.365732976769209"><ele>160.0</ele><time>2026-04-18T10:51:01.002Z</time></trkpt><trkpt lat="44.983286846120855" lon="8.36561075478666"><ele>160.0</ele><time>2026-04-18T10:51:03.002Z</time></trkpt><trkpt lat="44.98331180467557" lon="8.365520523070545"><ele>160.0</ele><time>2026-04-18T10:51:04.002Z</time></trkpt><trkpt lat="44.98334072092396" lon="8.365424365065953"><ele>160.0</ele><time>2026-04-18T10:51:05.002Z</time></trkpt><trkpt lat="44.98339116482304" lon="8.365271396969568"><ele>160.0</ele><time>2026-04-18T10:51:07.002Z</time></trkpt><trkpt lat="44.98343366393095" lon="8.365116602453783"><ele>159.66666666666669</ele><time>2026-04-18T10:51:09.002Z</time></trkpt><trkpt lat="44.98345232456997" lon="8.36502200210858"><ele>159.33333333333334</ele><time>2026-04-18T10:51:10.002Z</time></trkpt><trkpt lat="44.9834672006399" lon="8.364929041558556"><ele>159.0</ele><time>2026-04-18T10:51:11.002Z</time></trkpt><trkpt lat="44.98348190296538" lon="8.364829495940786"><ele>158.66666666666666</ele><time>2026-04-18T10:51:12.002Z</time></trkpt><trkpt lat="44.98349765635922" lon="8.364735115780613"><ele>158.33333333333331</ele><time>2026-04-18T10:51:13.002Z</time></trkpt><trkpt lat="44.98353285279314" lon="8.3645552335209"><ele>158.0</ele><time>2026-04-18T10:51:15.002Z</time></trkpt><trkpt lat="44.98356266997264" lon="8.364405631325507"><ele>158.57142857142858</ele><time>2026-04-18T10:51:17.002Z</time></trkpt><trkpt lat="44.98358205012149" lon="8.36432021653957"><ele>159.14285714285714</ele><time>2026-04-18T10:51:18.002Z</time></trkpt><trkpt lat="44.98360130743707" lon="8.364230523659547"><ele>159.71428571428572</ele><time>2026-04-18T10:51:19.002Z</time></trkpt><trkpt lat="44.98362392481788" lon="8.364132370277856"><ele>160.28571428571428</ele><time>2026-04-18T10:51:20.002Z</time></trkpt><trkpt lat="44.983647407610775" lon="8.364031280186794"><ele>160.85714285714286</ele><time>2026-04-18T10:51:21.002Z</time></trkpt><trkpt lat="44.9836728035234" lon="8.363929210867196"><ele>161.42857142857144</ele><time>2026-04-18T10:51:22.002Z</time></trkpt><trkpt lat="44.98369775672014" lon="8.363833530323198"><ele>162.0</ele><time>2026-04-18T10:51:23.002Z</time></trkpt><trkpt lat="44.983721171165904" lon="8.363744319594995"><ele>162.0</ele><time>2026-04-18T10:51:24.002Z</time></trkpt><trkpt lat="44.98374796904635" lon="8.363660386115692"><ele>162.0</ele><time>2026-04-18T10:51:25.002Z</time></trkpt><trkpt lat="44.98377937850485" lon="8.363563527973788"><ele>162.0</ele><time>2026-04-18T10:51:26.002Z</time></trkpt><trkpt lat="44.98380440953548" lon="8.36348024659695"><ele>162.0</ele><time>2026-04-18T10:51:27.002Z</time></trkpt><trkpt lat="44.9838491701447" lon="8.363326085923104"><ele>162.0</ele><time>2026-04-18T10:51:29.002Z</time></trkpt><trkpt lat="44.98387451615551" lon="8.363239376376727"><ele>162.0</ele><time>2026-04-18T10:51:30.002Z</time></trkpt><trkpt lat="44.98392052382465" lon="8.363091976191"><ele>162.39999999999998</ele><time>2026-04-18T10:51:32.002Z</time></trkpt><trkpt lat="44.98396291963414" lon="8.36292017741474"><ele>162.79999999999998</ele><time>2026-04-18T10:51:34.003Z</time></trkpt><trkpt lat="44.983983866749355" lon="8.362831871334327"><ele>163.2</ele><time>2026-04-18T10:51:35.003Z</time></trkpt><trkpt lat="44.98401530225493" lon="8.362664697752143"><ele>163.6</ele><time>2026-04-18T10:51:37.003Z</time></trkpt><trkpt lat="44.984037206867264" lon="8.362562615972895"><ele>164.0</ele><time>2026-04-18T10:51:38.003Z</time></trkpt><trkpt lat="44.98406175335295" lon="8.36245665881468"><ele>164.0</ele><time>2026-04-18T10:51:39.003Z</time></trkpt><trkpt lat="44.98408497472219" lon="8.362345424445838"><ele>164.0</ele><time>2026-04-18T10:51:40.003Z</time></trkpt><trkpt lat="44.984101902760926" lon="8.36225538171099"><ele>164.0</ele><time>2026-04-18T10:51:40.999Z</time></trkpt><trkpt lat="44.98413281559333" lon="8.362084554739667"><ele>164.0</ele><time>2026-04-18T10:51:42.999Z</time></trkpt><trkpt lat="44.98414186597935" lon="8.361996024853005"><ele>164.0</ele><time>2026-04-18T10:51:43.999Z</time></trkpt><trkpt lat="44.9841582560226" lon="8.361900134436643"><ele>164.0</ele><time>2026-04-18T10:51:44.999Z</time></trkpt><trkpt lat="44.98417773714418" lon="8.361800631947302"><ele>164.0</ele><time>2026-04-18T10:51:45.999Z</time></trkpt><trkpt lat="44.98419932936421" lon="8.361703916778456"><ele>164.0</ele><time>2026-04-18T10:51:46.999Z</time></trkpt><trkpt lat="44.98422280879873" lon="8.361603273607008"><ele>164.0</ele><time>2026-04-18T10:51:47.999Z</time></trkpt><trkpt lat="44.98425154646621" lon="8.361494765696879"><ele>164.0</ele><time>2026-04-18T10:51:48.999Z</time></trkpt><trkpt lat="44.98428880583561" lon="8.361413029622012"><ele>164.0</ele><time>2026-04-18T10:51:49.999Z</time></trkpt><trkpt lat="44.98432629639707" lon="8.361338889587373"><ele>164.0</ele><time>2026-04-18T10:51:50.999Z</time></trkpt><trkpt lat="44.98439405379394" lon="8.36123958044517"><ele>164.0</ele><time>2026-04-18T10:51:52.999Z</time></trkpt><trkpt lat="44.98447027117002" lon="8.361129943025857"><ele>164.0</ele><time>2026-04-18T10:51:54.999Z</time></trkpt><trkpt lat="44.98453697069954" lon="8.361048934598578"><ele>164.0</ele><time>2026-04-18T10:51:57Z</time></trkpt><trkpt lat="44.98459525404662" lon="8.360966387808132"><ele>164.0</ele><time>2026-04-18T10:52:01Z</time></trkpt><trkpt lat="44.984620977610085" lon="8.360872675733004"><ele>164.0</ele><time>2026-04-18T10:52:03Z</time></trkpt><trkpt lat="44.98465871805797" lon="8.360775026457503"><ele>164.0</ele><time>2026-04-18T10:52:05Z</time></trkpt><trkpt lat="44.984712600726276" lon="8.36066098842513"><ele>164.0</ele><time>2026-04-18T10:52:07Z</time></trkpt><trkpt lat="44.984730491036714" lon="8.360574490114537"><ele>164.0</ele><time>2026-04-18T10:52:09Z</time></trkpt><trkpt lat="44.98475870233734" lon="8.360465620477733"><ele>164.0</ele><time>2026-04-18T10:52:12Z</time></trkpt><trkpt lat="44.98478941541495" lon="8.360364768199375"><ele>164.0</ele><time>2026-04-18T10:52:14Z</time></trkpt><trkpt lat="44.98479434748479" lon="8.360257679681991"><ele>164.0</ele><time>2026-04-18T10:52:16Z</time></trkpt><trkpt lat="44.984814300929195" lon="8.360117062415794"><ele>164.0</ele><time>2026-04-18T10:52:18.001Z</time></trkpt><trkpt lat="44.98483368064167" lon="8.360005841707068"><ele>163.6</ele><time>2026-04-18T10:52:20.001Z</time></trkpt><trkpt lat="44.98483274948472" lon="8.359915253973895"><ele>163.2</ele><time>2026-04-18T10:52:22.001Z</time></trkpt><trkpt lat="44.984852797690905" lon="8.35976503649948"><ele>162.79999999999998</ele><time>2026-04-18T10:52:24.001Z</time></trkpt><trkpt lat="44.98488831567196" lon="8.359602730848788"><ele>162.39999999999998</ele><time>2026-04-18T10:52:26.001Z</time></trkpt><trkpt lat="44.98492669682289" lon="8.359451418223044"><ele>162.0</ele><time>2026-04-18T10:52:28.001Z</time></trkpt><trkpt lat="44.98495373896835" lon="8.35929658280154"><ele>162.16666666666666</ele><time>2026-04-18T10:52:30.001Z</time></trkpt><trkpt lat="44.98495447376209" lon="8.359201729938306"><ele>162.33333333333334</ele><time>2026-04-18T10:52:31.001Z</time></trkpt><trkpt lat="44.984950579371336" lon="8.359109524852835"><ele>162.5</ele><time>2026-04-18T10:52:32.001Z</time></trkpt><trkpt lat="44.98495759846896" lon="8.358964616363853"><ele>162.66666666666669</ele><time>2026-04-18T10:52:34.001Z</time></trkpt><trkpt lat="44.985000963486904" lon="8.35886666928377"><ele>162.83333333333334</ele><time>2026-04-18T10:52:36.001Z</time></trkpt><trkpt lat="44.985086423895716" lon="8.358814043873918"><ele>163.0</ele><time>2026-04-18T10:52:38.001Z</time></trkpt><trkpt lat="44.985194722435956" lon="8.358829247960747"><ele>163.2</ele><time>2026-04-18T10:52:40.001Z</time></trkpt><trkpt lat="44.98527068074586" lon="8.35886764591788"><ele>163.4</ele><time>2026-04-18T10:52:42.001Z</time></trkpt><trkpt lat="44.985339590684674" lon="8.35895495239867"><ele>163.6</ele><time>2026-04-18T10:52:44.001Z</time></trkpt><trkpt lat="44.98543165554939" lon="8.359075919369262"><ele>163.79999999999998</ele><time>2026-04-18T10:52:46.002Z</time></trkpt><trkpt lat="44.98549075142411" lon="8.359130460895985"><ele>164.0</ele><time>2026-04-18T10:52:47.002Z</time></trkpt><trkpt lat="44.98558022863713" lon="8.359227723442592"><ele>163.83333333333331</ele><time>2026-04-18T10:52:49.002Z</time></trkpt><trkpt lat="44.985701736595246" lon="8.359304438750375"><ele>163.66666666666666</ele><time>2026-04-18T10:52:51.002Z</time></trkpt><trkpt lat="44.98580932999373" lon="8.359340877272492"><ele>163.5</ele><time>2026-04-18T10:52:53.002Z</time></trkpt><trkpt lat="44.985872505127446" lon="8.35935971533022"><ele>163.33333333333334</ele><time>2026-04-18T10:52:54.002Z</time></trkpt><trkpt lat="44.985942268934444" lon="8.359380678059441"><ele>163.16666666666669</ele><time>2026-04-18T10:52:55.002Z</time></trkpt><trkpt lat="44.986011193895045" lon="8.35939715350817"><ele>163.0</ele><time>2026-04-18T10:52:56.002Z</time></trkpt><trkpt lat="44.98611091769652" lon="8.359425838661702"><ele>163.0</ele><time>2026-04-18T10:52:58.002Z</time></trkpt><trkpt lat="44.98617793807399" lon="8.359439769894227"><ele>163.0</ele><time>2026-04-18T10:53:00.002Z</time></trkpt><trkpt lat="44.98624241797777" lon="8.359435013981226"><ele>163.0</ele><time>2026-04-18T10:53:04.002Z</time></trkpt><trkpt lat="44.98633280638668" lon="8.359452156672527"><ele>163.0</ele><time>2026-04-18T10:53:33.003Z</time></trkpt><trkpt lat="44.98640186388273" lon="8.359469465108896"><ele>163.0</ele><time>2026-04-18T10:53:35.003Z</time></trkpt><trkpt lat="44.986503628984195" lon="8.359487595082822"><ele>163.0</ele><time>2026-04-18T10:53:37.003Z</time></trkpt><trkpt lat="44.98656917224592" lon="8.359499918257288"><ele>163.0</ele><time>2026-04-18T10:53:38.003Z</time></trkpt><trkpt lat="44.98663874660248" lon="8.359518163723493"><ele>163.0</ele><time>2026-04-18T10:53:39.003Z</time></trkpt><trkpt lat="44.98671081248093" lon="8.359537408520001"><ele>163.0</ele><time>2026-04-18T10:53:40.003Z</time></trkpt><trkpt lat="44.986774634823554" lon="8.359557020664479"><ele>163.0</ele><time>2026-04-18T10:53:41.003Z</time></trkpt><trkpt lat="44.98689166140812" lon="8.359587964717294"><ele>163.0</ele><time>2026-04-18T10:53:43.003Z</time></trkpt><trkpt lat="44.98697638847115" lon="8.359617733569298"><ele>163.0</ele><time>2026-04-18T10:53:45.003Z</time></trkpt><trkpt lat="44.98708222059949" lon="8.359644700516018"><ele>162.66666666666669</ele><time>2026-04-18T10:53:46.999Z</time></trkpt><trkpt lat="44.987193970642615" lon="8.359633865414022"><ele>162.33333333333334</ele><time>2026-04-18T10:53:48.999Z</time></trkpt><trkpt lat="44.98729486902379" lon="8.359584359692638"><ele>162.0</ele><time>2026-04-18T10:53:50.999Z</time></trkpt><trkpt lat="44.987363529486004" lon="8.359545512850591"><ele>161.66666666666666</ele><time>2026-04-18T10:53:51.999Z</time></trkpt><trkpt lat="44.98743596399635" lon="8.359512807601522"><ele>161.33333333333331</ele><time>2026-04-18T10:53:52.999Z</time></trkpt><trkpt lat="44.98750981324964" lon="8.359476841770112"><ele>161.0</ele><time>2026-04-18T10:53:53.999Z</time></trkpt><trkpt lat="44.98758138873571" lon="8.359434784951913"><ele>162.16666666666666</ele><time>2026-04-18T10:53:54.999Z</time></trkpt><trkpt lat="44.98764519501449" lon="8.35939313213147"><ele>163.33333333333331</ele><time>2026-04-18T10:53:55.999Z</time></trkpt><trkpt lat="44.98771186951877" lon="8.35933744562094"><ele>164.5</ele><time>2026-04-18T10:53:56.999Z</time></trkpt><trkpt lat="44.98778074477889" lon="8.359277696877225"><ele>165.66666666666666</ele><time>2026-04-18T10:53:57.999Z</time></trkpt><trkpt lat="44.98784612471113" lon="8.359213345667625"><ele>166.83333333333334</ele><time>2026-04-18T10:53:58.999Z</time></trkpt><trkpt lat="44.987909291262994" lon="8.359134957548786"><ele>168.0</ele><time>2026-04-18T10:53:59.999Z</time></trkpt><trkpt lat="44.9879701107534" lon="8.35904049916788"><ele>168.0</ele><time>2026-04-18T10:54:00.999Z</time></trkpt><trkpt lat="44.98802256493018" lon="8.358943423224153"><ele>168.0</ele><time>2026-04-18T10:54:01.999Z</time></trkpt><trkpt lat="44.988067192258214" lon="8.35885268919838"><ele>168.0</ele><time>2026-04-18T10:54:02.999Z</time></trkpt><trkpt lat="44.9881117377116" lon="8.3587602834263"><ele>168.0</ele><time>2026-04-18T10:54:03.999Z</time></trkpt><trkpt lat="44.98818283004483" lon="8.358613509408181"><ele>168.0</ele><time>2026-04-18T10:54:05.999Z</time></trkpt><trkpt lat="44.98825812920472" lon="8.358528592093668"><ele>168.16666666666666</ele><time>2026-04-18T10:54:07.999Z</time></trkpt><trkpt lat="44.98836274630138" lon="8.358535506230606"><ele>168.33333333333334</ele><time>2026-04-18T10:54:09.999Z</time></trkpt><trkpt lat="44.98842184264145" lon="8.358569707659214"><ele>168.5</ele><time>2026-04-18T10:54:10.999Z</time></trkpt><trkpt lat="44.98847995540896" lon="8.358610085891835"><ele>168.66666666666669</ele><time>2026-04-18T10:54:11.999Z</time></trkpt><trkpt lat="44.98854524454959" lon="8.358651581555277"><ele>168.83333333333334</ele><time>2026-04-18T10:54:12.999Z</time></trkpt><trkpt lat="44.98861707891806" lon="8.358699196157211"><ele>169.0</ele><time>2026-04-18T10:54:14Z</time></trkpt><trkpt lat="44.98869655069754" lon="8.358744781503011"><ele>169.0</ele><time>2026-04-18T10:54:15Z</time></trkpt><trkpt lat="44.9887755218447" lon="8.358790225341698"><ele>169.0</ele><time>2026-04-18T10:54:16Z</time></trkpt><trkpt lat="44.98885690294325" lon="8.358835913035344"><ele>169.0</ele><time>2026-04-18T10:54:17Z</time></trkpt><trkpt lat="44.98892695913264" lon="8.358867322050378"><ele>169.0</ele><time>2026-04-18T10:54:18Z</time></trkpt><trkpt lat="44.98899284505823" lon="8.358892537092983"><ele>169.0</ele><time>2026-04-18T10:54:19Z</time></trkpt><trkpt lat="44.989056660909405" lon="8.358913385148254"><ele>169.0</ele><time>2026-04-18T10:54:20Z</time></trkpt><trkpt lat="44.98917350950334" lon="8.358958104256788"><ele>169.0</ele><time>2026-04-18T10:54:22Z</time></trkpt><trkpt lat="44.98923949948081" lon="8.358990520751115"><ele>169.0</ele><time>2026-04-18T10:54:23Z</time></trkpt><trkpt lat="44.98930497841645" lon="8.35901197165848"><ele>169.0</ele><time>2026-04-18T10:54:24Z</time></trkpt><trkpt lat="44.98942389634885" lon="8.359011574530713"><ele>169.0</ele><time>2026-04-18T10:54:26Z</time></trkpt><trkpt lat="44.98948243966064" lon="8.358975458007485"><ele>169.0</ele><time>2026-04-18T10:54:27Z</time></trkpt><trkpt lat="44.98956834698679" lon="8.358918452354287"><ele>169.0</ele><time>2026-04-18T10:54:29Z</time></trkpt><trkpt lat="44.98966732262731" lon="8.35883974762759"><ele>170.16666666666669</ele><time>2026-04-18T10:54:31Z</time></trkpt><trkpt lat="44.98978179803381" lon="8.358745552269594"><ele>171.33333333333334</ele><time>2026-04-18T10:54:33Z</time></trkpt><trkpt lat="44.98984247517411" lon="8.35869225714829"><ele>172.5</ele><time>2026-04-18T10:54:34Z</time></trkpt><trkpt lat="44.989901224350234" lon="8.358632977530723"><ele>173.66666666666666</ele><time>2026-04-18T10:54:35Z</time></trkpt><trkpt lat="44.98996132270002" lon="8.358576126406144"><ele>174.83333333333331</ele><time>2026-04-18T10:54:36Z</time></trkpt><trkpt lat="44.99002842892532" lon="8.358513621069992"><ele>176.0</ele><time>2026-04-18T10:54:37Z</time></trkpt><trkpt lat="44.99009134585192" lon="8.358452451895834"><ele>176.28571428571428</ele><time>2026-04-18T10:54:38Z</time></trkpt><trkpt lat="44.990157004658414" lon="8.358393392792202"><ele>176.57142857142856</ele><time>2026-04-18T10:54:39Z</time></trkpt><trkpt lat="44.990212201138284" lon="8.358346274161557"><ele>176.85714285714283</ele><time>2026-04-18T10:54:40Z</time></trkpt><trkpt lat="44.99026522798405" lon="8.35829734398894"><ele>177.14285714285714</ele><time>2026-04-18T10:54:41Z</time></trkpt><trkpt lat="44.99032136434512" lon="8.35824668922158"><ele>177.42857142857142</ele><time>2026-04-18T10:54:42Z</time></trkpt><trkpt lat="44.99037657568289" lon="8.358194773676507"><ele>177.7142857142857</ele><time>2026-04-18T10:54:43.001Z</time></trkpt><trkpt lat="44.99043648067567" lon="8.358141070968182"><ele>178.0</ele><time>2026-04-18T10:54:44.001Z</time></trkpt><trkpt lat="44.99048397161067" lon="8.358082091221311"><ele>178.83333333333334</ele><time>2026-04-18T10:54:45.001Z</time></trkpt><trkpt lat="44.99054654948289" lon="8.358027572451249"><ele>179.66666666666669</ele><time>2026-04-18T10:54:46.001Z</time></trkpt><trkpt lat="44.990603937033185" lon="8.357978075040286"><ele>180.5</ele><time>2026-04-18T10:54:47.001Z</time></trkpt><trkpt lat="44.99071416472508" lon="8.357869149894393"><ele>181.33333333333334</ele><time>2026-04-18T10:54:49.001Z</time></trkpt><trkpt lat="44.990775976576685" lon="8.357800895633252"><ele>182.16666666666666</ele><time>2026-04-18T10:54:50.001Z</time></trkpt><trkpt lat="44.99083895977808" lon="8.357727989363717"><ele>183.0</ele><time>2026-04-18T10:54:51.001Z</time></trkpt><trkpt lat="44.9909013481735" lon="8.357654544096311"><ele>183.0</ele><time>2026-04-18T10:54:52.001Z</time></trkpt><trkpt lat="44.990965058629016" lon="8.357574078087513"><ele>183.0</ele><time>2026-04-18T10:54:53.001Z</time></trkpt><trkpt lat="44.991026824129676" lon="8.357492937345642"><ele>183.0</ele><time>2026-04-18T10:54:54.001Z</time></trkpt><trkpt lat="44.99108923959883" lon="8.3574060801155"><ele>183.0</ele><time>2026-04-18T10:54:55.001Z</time></trkpt><trkpt lat="44.991154403148215" lon="8.35731515401391"><ele>183.0</ele><time>2026-04-18T10:54:56.001Z</time></trkpt><trkpt lat="44.991213831965986" lon="8.357227475172001"><ele>183.0</ele><time>2026-04-18T10:54:57.001Z</time></trkpt><trkpt lat="44.991267598301846" lon="8.35713922661663"><ele>184.4</ele><time>2026-04-18T10:54:58.001Z</time></trkpt><trkpt lat="44.99132579462935" lon="8.357040297137756"><ele>185.8</ele><time>2026-04-18T10:54:59.001Z</time></trkpt><trkpt lat="44.99138252972459" lon="8.35694260456157"><ele>187.2</ele><time>2026-04-18T10:55:00.001Z</time></trkpt><trkpt lat="44.99144667488464" lon="8.356834084564388"><ele>188.6</ele><time>2026-04-18T10:55:01.001Z</time></trkpt><trkpt lat="44.99150672930169" lon="8.356731955080122"><ele>190.0</ele><time>2026-04-18T10:55:02.001Z</time></trkpt><trkpt lat="44.9915666703761" lon="8.356640641585093"><ele>190.0</ele><time>2026-04-18T10:55:03.001Z</time></trkpt><trkpt lat="44.99162697952256" lon="8.356550004643077"><ele>190.0</ele><time>2026-04-18T10:55:04.001Z</time></trkpt><trkpt lat="44.991675687903204" lon="8.356478839674304"><ele>190.0</ele><time>2026-04-18T10:55:05.001Z</time></trkpt><trkpt lat="44.99176328183137" lon="8.356350516378471"><ele>190.0</ele><time>2026-04-18T10:55:07.001Z</time></trkpt><trkpt lat="44.99180767433006" lon="8.356286991190219"><ele>190.0</ele><time>2026-04-18T10:55:08.001Z</time></trkpt><trkpt lat="44.991901141552646" lon="8.35616119880356"><ele>190.2</ele><time>2026-04-18T10:55:10.001Z</time></trkpt><trkpt lat="44.991954211840174" lon="8.356091757216657"><ele>190.4</ele><time>2026-04-18T10:55:11.001Z</time></trkpt><trkpt lat="44.99203088176962" lon="8.355990783705174"><ele>190.60000000000002</ele><time>2026-04-18T10:55:13.001Z</time></trkpt><trkpt lat="44.99208650114976" lon="8.355912233590262"><ele>190.8</ele><time>2026-04-18T10:55:15.001Z</time></trkpt><trkpt lat="44.99215282866426" lon="8.355804178122368"><ele>191.0</ele><time>2026-04-18T10:55:41.002Z</time></trkpt><trkpt lat="44.99221254679046" lon="8.355699087591685"><ele>191.0</ele><time>2026-04-18T10:55:43.002Z</time></trkpt><trkpt lat="44.99229062216575" lon="8.355568588678947"><ele>191.0</ele><time>2026-04-18T10:55:45.002Z</time></trkpt><trkpt lat="44.992336516623936" lon="8.355495163748428"><ele>191.0</ele><time>2026-04-18T10:55:46.002Z</time></trkpt><trkpt lat="44.99238918059481" lon="8.35542222182764"><ele>191.0</ele><time>2026-04-18T10:55:47.002Z</time></trkpt><trkpt lat="44.992444552169175" lon="8.355342666812795"><ele>191.0</ele><time>2026-04-18T10:55:48.002Z</time></trkpt><trkpt lat="44.99250514535357" lon="8.355259109003061"><ele>191.0</ele><time>2026-04-18T10:55:49.003Z</time></trkpt><trkpt lat="44.992560571772266" lon="8.355181074400917"><ele>192.66666666666666</ele><time>2026-04-18T10:55:50.003Z</time></trkpt><trkpt lat="44.99261756469239" lon="8.35509918409946"><ele>194.33333333333331</ele><time>2026-04-18T10:55:51.003Z</time></trkpt><trkpt lat="44.99267487846353" lon="8.355018805189996"><ele>196.0</ele><time>2026-04-18T10:55:52.003Z</time></trkpt><trkpt lat="44.99272912333299" lon="8.354947038847213"><ele>197.66666666666666</ele><time>2026-04-18T10:55:52.999Z</time></trkpt><trkpt lat="44.9927807392237" lon="8.354882399261767"><ele>199.33333333333334</ele><time>2026-04-18T10:55:53.999Z</time></trkpt><trkpt lat="44.99283949790234" lon="8.354812637218293"><ele>201.0</ele><time>2026-04-18T10:55:54.999Z</time></trkpt><trkpt lat="44.99290211754435" lon="8.354740598883769"><ele>202.0</ele><time>2026-04-18T10:55:55.999Z</time></trkpt><trkpt lat="44.992959846338984" lon="8.354679673771377"><ele>203.0</ele><time>2026-04-18T10:55:56.999Z</time></trkpt><trkpt lat="44.99301958403418" lon="8.354615752713546"><ele>204.0</ele><time>2026-04-18T10:55:57.999Z</time></trkpt><trkpt lat="44.99307982103486" lon="8.354548402805433"><ele>205.0</ele><time>2026-04-18T10:55:58.999Z</time></trkpt><trkpt lat="44.99314846645416" lon="8.354482849607084"><ele>206.0</ele><time>2026-04-18T10:55:59.999Z</time></trkpt><trkpt lat="44.99320905244609" lon="8.35442083275143"><ele>207.0</ele><time>2026-04-18T10:56:00.999Z</time></trkpt><trkpt lat="44.993273762735434" lon="8.354355612149638"><ele>207.0</ele><time>2026-04-18T10:56:01.999Z</time></trkpt><trkpt lat="44.99333884649344" lon="8.35428411450623"><ele>207.0</ele><time>2026-04-18T10:56:02.999Z</time></trkpt><trkpt lat="44.99339785156534" lon="8.354215674846934"><ele>207.0</ele><time>2026-04-18T10:56:03.999Z</time></trkpt><trkpt lat="44.99346268219554" lon="8.354147982805912"><ele>207.0</ele><time>2026-04-18T10:56:04.999Z</time></trkpt><trkpt lat="44.99353171267697" lon="8.354073982083777"><ele>207.0</ele><time>2026-04-18T10:56:05.999Z</time></trkpt><trkpt lat="44.993589758137084" lon="8.354005358545342"><ele>207.0</ele><time>2026-04-18T10:56:06.999Z</time></trkpt><trkpt lat="44.99365947263327" lon="8.353944018436119"><ele>207.16666666666666</ele><time>2026-04-18T10:56:08Z</time></trkpt><trkpt lat="44.993731058848105" lon="8.353895371549537"><ele>207.33333333333331</ele><time>2026-04-18T10:56:09Z</time></trkpt><trkpt lat="44.99380922710023" lon="8.353848953800403"><ele>207.5</ele><time>2026-04-18T10:56:10Z</time></trkpt><trkpt lat="44.993888018049404" lon="8.353802506576745"><ele>207.66666666666666</ele><time>2026-04-18T10:56:11Z</time></trkpt><trkpt lat="44.99396827907049" lon="8.353751933646855"><ele>207.83333333333331</ele><time>2026-04-18T10:56:12Z</time></trkpt><trkpt lat="44.994041818217724" lon="8.353708047493036"><ele>208.0</ele><time>2026-04-18T10:56:13Z</time></trkpt><trkpt lat="44.994163719652214" lon="8.35367562980274"><ele>208.83333333333331</ele><time>2026-04-18T10:56:15Z</time></trkpt><trkpt lat="44.99422578133893" lon="8.353642359603226"><ele>209.66666666666666</ele><time>2026-04-18T10:56:16Z</time></trkpt><trkpt lat="44.99429460583263" lon="8.353600591640951"><ele>210.5</ele><time>2026-04-18T10:56:17Z</time></trkpt><trkpt lat="44.99436268291218" lon="8.35355563705508"><ele>211.33333333333331</ele><time>2026-04-18T10:56:18Z</time></trkpt><trkpt lat="44.994436620843935" lon="8.353506517634303"><ele>212.16666666666666</ele><time>2026-04-18T10:56:19Z</time></trkpt><trkpt lat="44.99451255228047" lon="8.353456662593732"><ele>213.0</ele><time>2026-04-18T10:56:20Z</time></trkpt><trkpt lat="44.994590370768165" lon="8.353391394106612"><ele>213.0</ele><time>2026-04-18T10:56:21Z</time></trkpt><trkpt lat="44.99466762339929" lon="8.353314029412402"><ele>213.0</ele><time>2026-04-18T10:56:22Z</time></trkpt><trkpt lat="44.994742828791374" lon="8.3532333441131"><ele>213.0</ele><time>2026-04-18T10:56:23Z</time></trkpt><trkpt lat="44.99482753424442" lon="8.353152371595833"><ele>213.0</ele><time>2026-04-18T10:56:24Z</time></trkpt><trkpt lat="44.9949147591661" lon="8.353073284433211"><ele>213.0</ele><time>2026-04-18T10:56:25Z</time></trkpt><trkpt lat="44.99500215429794" lon="8.353004543896954"><ele>214.2</ele><time>2026-04-18T10:56:26Z</time></trkpt><trkpt lat="44.995083247901704" lon="8.35294265957852"><ele>215.4</ele><time>2026-04-18T10:56:27.001Z</time></trkpt><trkpt lat="44.99517288369195" lon="8.352875978777742"><ele>216.59999999999997</ele><time>2026-04-18T10:56:28.001Z</time></trkpt><trkpt lat="44.99526236916425" lon="8.352795250751754"><ele>217.79999999999998</ele><time>2026-04-18T10:56:29.001Z</time></trkpt><trkpt lat="44.995358115419364" lon="8.352715922271255"><ele>219.0</ele><time>2026-04-18T10:56:30.001Z</time></trkpt><trkpt lat="44.995451530733874" lon="8.352633026077855"><ele>219.0</ele><time>2026-04-18T10:56:31.001Z</time></trkpt><trkpt lat="44.99554117368207" lon="8.352553849207686"><ele>218.99999999999997</ele><time>2026-04-18T10:56:32.001Z</time></trkpt><trkpt lat="44.9956264563195" lon="8.352475652982072"><ele>218.99999999999997</ele><time>2026-04-18T10:56:33.001Z</time></trkpt><trkpt lat="44.99570421156656" lon="8.352399753908964"><ele>219.0</ele><time>2026-04-18T10:56:34.001Z</time></trkpt><trkpt lat="44.995781017084944" lon="8.352325985647024"><ele>219.0</ele><time>2026-04-18T10:56:35.001Z</time></trkpt><trkpt lat="44.99585913126549" lon="8.352263114198006"><ele>219.0</ele><time>2026-04-18T10:56:36.001Z</time></trkpt><trkpt lat="44.99594266031069" lon="8.352221350718574"><ele>219.0</ele><time>2026-04-18T10:56:37.001Z</time></trkpt><trkpt lat="44.996018732267466" lon="8.352195891852242"><ele>219.0</ele><time>2026-04-18T10:56:38.001Z</time></trkpt><trkpt lat="44.99613689164332" lon="8.35215713164026"><ele>219.0</ele><time>2026-04-18T10:56:40.001Z</time></trkpt><trkpt lat="44.99620600746406" lon="8.352134163010957"><ele>219.0</ele><time>2026-04-18T10:56:41.001Z</time></trkpt><trkpt lat="44.996285770916764" lon="8.352113297701704"><ele>219.0</ele><time>2026-04-18T10:56:42.001Z</time></trkpt><trkpt lat="44.99636973975559" lon="8.352085842947972"><ele>219.0</ele><time>2026-04-18T10:56:43.001Z</time></trkpt><trkpt lat="44.996455273462495" lon="8.352048626795558"><ele>218.99999999999997</ele><time>2026-04-18T10:56:44.001Z</time></trkpt><trkpt lat="44.99654615699022" lon="8.352018633319531"><ele>218.99999999999997</ele><time>2026-04-18T10:56:45.001Z</time></trkpt><trkpt lat="44.99664348766379" lon="8.351987185201939"><ele>219.0</ele><time>2026-04-18T10:56:46.001Z</time></trkpt><trkpt lat="44.996736528245265" lon="8.351958104076687"><ele>219.0</ele><time>2026-04-18T10:56:47.001Z</time></trkpt><trkpt lat="44.996813807834194" lon="8.351941544137162"><ele>218.83333333333334</ele><time>2026-04-18T10:56:48.001Z</time></trkpt><trkpt lat="44.99689098218516" lon="8.351924362925857"><ele>218.66666666666669</ele><time>2026-04-18T10:56:49.001Z</time></trkpt><trkpt lat="44.99697761142441" lon="8.351904391674942"><ele>218.5</ele><time>2026-04-18T10:56:50.001Z</time></trkpt><trkpt lat="44.99705780692554" lon="8.351896723030876"><ele>218.33333333333334</ele><time>2026-04-18T10:56:51.001Z</time></trkpt><trkpt lat="44.997161396281754" lon="8.351876875600968"><ele>218.16666666666669</ele><time>2026-04-18T10:56:53.001Z</time></trkpt><trkpt lat="44.99723053131572" lon="8.351863702253452"><ele>218.0</ele><time>2026-04-18T10:56:55.001Z</time></trkpt><trkpt lat="44.99731123388569" lon="8.351847632195954"><ele>218.0</ele><time>2026-04-18T10:57:35.003Z</time></trkpt><trkpt lat="44.99743858498878" lon="8.35182353326654"><ele>218.0</ele><time>2026-04-18T10:57:37.003Z</time></trkpt><trkpt lat="44.997508392543494" lon="8.351808645501118"><ele>218.0</ele><time>2026-04-18T10:57:38.003Z</time></trkpt><trkpt lat="44.997583770465916" lon="8.351788188513176"><ele>218.0</ele><time>2026-04-18T10:57:39.003Z</time></trkpt><trkpt lat="44.99766704250056" lon="8.351765748992937"><ele>218.0</ele><time>2026-04-18T10:57:40.003Z</time></trkpt><trkpt lat="44.99775670860616" lon="8.351741535394357"><ele>218.66666666666669</ele><time>2026-04-18T10:57:41.003Z</time></trkpt><trkpt lat="44.997853010394216" lon="8.351711808648805"><ele>219.33333333333334</ele><time>2026-04-18T10:57:42.003Z</time></trkpt><trkpt lat="44.99795308460969" lon="8.351672492007392"><ele>220.0</ele><time>2026-04-18T10:57:43.003Z</time></trkpt><trkpt lat="44.998039089501674" lon="8.35163359631863"><ele>220.66666666666669</ele><time>2026-04-18T10:57:44.003Z</time></trkpt><trkpt lat="44.998108127055445" lon="8.351592570495688"><ele>221.33333333333334</ele><time>2026-04-18T10:57:45.003Z</time></trkpt><trkpt lat="44.99817922142083" lon="8.35155381425106"><ele>222.0</ele><time>2026-04-18T10:57:46.003Z</time></trkpt><trkpt lat="44.99826319969316" lon="8.351502409913415"><ele>222.16666666666666</ele><time>2026-04-18T10:57:47.003Z</time></trkpt><trkpt lat="44.998341387850495" lon="8.351461251967473"><ele>222.33333333333331</ele><time>2026-04-18T10:57:48.003Z</time></trkpt><trkpt lat="44.998420681992705" lon="8.351404745989754"><ele>222.5</ele><time>2026-04-18T10:57:49.003Z</time></trkpt><trkpt lat="44.9984976952677" lon="8.351339837199292"><ele>222.66666666666666</ele><time>2026-04-18T10:57:50.003Z</time></trkpt><trkpt lat="44.99856506487845" lon="8.351274057066899"><ele>222.83333333333331</ele><time>2026-04-18T10:57:51.003Z</time></trkpt><trkpt lat="44.99862748080952" lon="8.351208566896753"><ele>223.0</ele><time>2026-04-18T10:57:52.003Z</time></trkpt><trkpt lat="44.99869970560744" lon="8.35112161792949"><ele>223.4</ele><time>2026-04-18T10:57:53.003Z</time></trkpt><trkpt lat="44.99877609818155" lon="8.351048298092552"><ele>223.8</ele><time>2026-04-18T10:57:54.003Z</time></trkpt><trkpt lat="44.998864748127865" lon="8.35098818987608"><ele>224.2</ele><time>2026-04-18T10:57:55.003Z</time></trkpt><trkpt lat="44.99895278675154" lon="8.35092758041729"><ele>224.6</ele><time>2026-04-18T10:57:56.003Z</time></trkpt><trkpt lat="44.999042431640255" lon="8.350866899296843"><ele>225.0</ele><time>2026-04-18T10:57:57.003Z</time></trkpt><trkpt lat="44.9991400117819" lon="8.350801906730199"><ele>225.0</ele><time>2026-04-18T10:57:58.003Z</time></trkpt><trkpt lat="44.99923296809365" lon="8.350738466709643"><ele>225.0</ele><time>2026-04-18T10:57:59Z</time></trkpt><trkpt lat="44.99933333766331" lon="8.350681319243007"><ele>225.0</ele><time>2026-04-18T10:58:00Z</time></trkpt><trkpt lat="44.99942915494008" lon="8.350640161250272"><ele>225.0</ele><time>2026-04-18T10:58:01Z</time></trkpt><trkpt lat="44.99952711359975" lon="8.350600087228319"><ele>225.0</ele><time>2026-04-18T10:58:02Z</time></trkpt><trkpt lat="44.99961984630226" lon="8.350551885843984"><ele>225.8</ele><time>2026-04-18T10:58:03Z</time></trkpt><trkpt lat="44.99970325975921" lon="8.350501466531753"><ele>226.6</ele><time>2026-04-18T10:58:04Z</time></trkpt><trkpt lat="44.99978292044808" lon="8.350438954011212"><ele>227.39999999999998</ele><time>2026-04-18T10:58:05Z</time></trkpt><trkpt lat="44.9998649361988" lon="8.350379014034711"><ele>228.2</ele><time>2026-04-18T10:58:06Z</time></trkpt><trkpt lat="44.999960720482775" lon="8.350336945629515"><ele>229.0</ele><time>2026-04-18T10:58:07Z</time></trkpt><trkpt lat="45.000060767534684" lon="8.350308680709784"><ele>229.0</ele><time>2026-04-18T10:58:08Z</time></trkpt><trkpt lat="45.00016280783116" lon="8.350295793417107"><ele>228.99999999999997</ele><time>2026-04-18T10:58:09Z</time></trkpt><trkpt lat="45.00026834658921" lon="8.350278178577053"><ele>228.99999999999997</ele><time>2026-04-18T10:58:10Z</time></trkpt><trkpt lat="45.00037099099942" lon="8.350262894072236"><ele>229.0</ele><time>2026-04-18T10:58:11Z</time></trkpt><trkpt lat="45.00047448358662" lon="8.350249891870613"><ele>229.0</ele><time>2026-04-18T10:58:12Z</time></trkpt><trkpt lat="45.00055737009658" lon="8.350243340643088"><ele>228.99999999999997</ele><time>2026-04-18T10:58:13Z</time></trkpt><trkpt lat="45.000631924894236" lon="8.350235719308207"><ele>229.0</ele><time>2026-04-18T10:58:14Z</time></trkpt><trkpt lat="45.00070344236668" lon="8.350197999323226"><ele>229.0</ele><time>2026-04-18T10:58:15Z</time></trkpt><trkpt lat="45.00078389233286" lon="8.350142382246117"><ele>229.0</ele><time>2026-04-18T10:58:16Z</time></trkpt><trkpt lat="45.0008634600108" lon="8.350084837594657"><ele>228.99999999999997</ele><time>2026-04-18T10:58:17Z</time></trkpt><trkpt lat="45.000939826568526" lon="8.350024463376633"><ele>229.0</ele><time>2026-04-18T10:58:18Z</time></trkpt><trkpt lat="45.00102942877178" lon="8.34995287365681"><ele>229.6</ele><time>2026-04-18T10:58:19Z</time></trkpt><trkpt lat="45.00110929887384" lon="8.34988883847249"><ele>230.2</ele><time>2026-04-18T10:58:20Z</time></trkpt><trkpt lat="45.00118863173534" lon="8.349809232843032"><ele>230.79999999999998</ele><time>2026-04-18T10:58:21Z</time></trkpt><trkpt lat="45.001255481339435" lon="8.349737504226418"><ele>231.39999999999998</ele><time>2026-04-18T10:58:22Z</time></trkpt><trkpt lat="45.001330804735424" lon="8.34965558162895"><ele>232.0</ele><time>2026-04-18T10:58:23Z</time></trkpt><trkpt lat="45.00140585529383" lon="8.349565772455337"><ele>232.2</ele><time>2026-04-18T10:58:24Z</time></trkpt><trkpt lat="45.001479831998296" lon="8.349475813416925"><ele>232.39999999999998</ele><time>2026-04-18T10:58:25Z</time></trkpt><trkpt lat="45.00155343036083" lon="8.349387837641537"><ele>232.60000000000002</ele><time>2026-04-18T10:58:26Z</time></trkpt><trkpt lat="45.00162863323075" lon="8.349302365050544"><ele>232.8</ele><time>2026-04-18T10:58:27Z</time></trkpt><trkpt lat="45.001705653406546" lon="8.349220309379831"><ele>233.0</ele><time>2026-04-18T10:58:28Z</time></trkpt><trkpt lat="45.00179030190934" lon="8.34913372044544"><ele>233.50000000000003</ele><time>2026-04-18T10:58:29Z</time></trkpt><trkpt lat="45.00186448987432" lon="8.349060574948911"><ele>234.0</ele><time>2026-04-18T10:58:30.001Z</time></trkpt><trkpt lat="45.00194038503756" lon="8.348990163215447"><ele>234.5</ele><time>2026-04-18T10:58:31.001Z</time></trkpt><trkpt lat="45.00201354159723" lon="8.348926455006648"><ele>235.0</ele><time>2026-04-18T10:58:32.001Z</time></trkpt><trkpt lat="45.00209251336892" lon="8.348858610863115"><ele>235.50000000000003</ele><time>2026-04-18T10:58:33.001Z</time></trkpt><trkpt lat="45.002154536270446" lon="8.348811068858724"><ele>236.0</ele><time>2026-04-18T10:58:34.001Z</time></trkpt><trkpt lat="45.00223293365292" lon="8.34874671113832"><ele>236.00000000000003</ele><time>2026-04-18T10:58:35.001Z</time></trkpt><trkpt lat="45.00230562833868" lon="8.348692339090634"><ele>236.0</ele><time>2026-04-18T10:58:36.001Z</time></trkpt><trkpt lat="45.00238380167198" lon="8.348653032906007"><ele>236.0</ele><time>2026-04-18T10:58:37.001Z</time></trkpt><trkpt lat="45.002467696210694" lon="8.348611210508453"><ele>236.0</ele><time>2026-04-18T10:58:38.001Z</time></trkpt><trkpt lat="45.00255520394745" lon="8.348576713174563"><ele>236.00000000000003</ele><time>2026-04-18T10:58:39.001Z</time></trkpt><trkpt lat="45.00264402330404" lon="8.348541934949946"><ele>236.0</ele><time>2026-04-18T10:58:40.001Z</time></trkpt><trkpt lat="45.00273189518131" lon="8.348510339052424"><ele>237.50000000000003</ele><time>2026-04-18T10:58:41.001Z</time></trkpt><trkpt lat="45.00281266520904" lon="8.348488179066624"><ele>239.0</ele><time>2026-04-18T10:58:42.001Z</time></trkpt><trkpt lat="45.002893114330895" lon="8.348470290017309"><ele>240.5</ele><time>2026-04-18T10:58:43.001Z</time></trkpt><trkpt lat="45.00297512926422" lon="8.348458792940377"><ele>242.0</ele><time>2026-04-18T10:58:44.001Z</time></trkpt><trkpt lat="45.003052137853096" lon="8.348451738735404"><ele>243.50000000000003</ele><time>2026-04-18T10:58:45.001Z</time></trkpt><trkpt lat="45.00312596741265" lon="8.348432740033473"><ele>245.0</ele><time>2026-04-18T10:58:46.001Z</time></trkpt><trkpt lat="45.00320404801387" lon="8.348401945029973"><ele>245.00000000000003</ele><time>2026-04-18T10:58:47.001Z</time></trkpt><trkpt lat="45.003281093041686" lon="8.348362549943092"><ele>245.0</ele><time>2026-04-18T10:58:48.001Z</time></trkpt><trkpt lat="45.00333822713712" lon="8.348322584423203"><ele>245.0</ele><time>2026-04-18T10:58:49.001Z</time></trkpt><trkpt lat="45.00340043740143" lon="8.348295431862484"><ele>245.0</ele><time>2026-04-18T10:58:50.001Z</time></trkpt><trkpt lat="45.00349820826008" lon="8.348241383121245"><ele>245.00000000000003</ele><time>2026-04-18T10:58:52.001Z</time></trkpt><trkpt lat="45.003601191947496" lon="8.348181966636815"><ele>245.0</ele><time>2026-04-18T10:58:54.001Z</time></trkpt><trkpt lat="45.003669238618535" lon="8.348142735393857"><ele>244.66666666666669</ele><time>2026-04-18T10:58:55.001Z</time></trkpt><trkpt lat="45.0037433203751" lon="8.348103069092385"><ele>244.33333333333334</ele><time>2026-04-18T10:58:56.001Z</time></trkpt><trkpt lat="45.00381728425517" lon="8.348067661770482"><ele>244.0</ele><time>2026-04-18T10:58:57.001Z</time></trkpt><trkpt lat="45.00389400697606" lon="8.348036630719534"><ele>243.66666666666669</ele><time>2026-04-18T10:58:58.001Z</time></trkpt><trkpt lat="45.0039761340594" lon="8.34801064747891"><ele>243.33333333333334</ele><time>2026-04-18T10:58:59.001Z</time></trkpt><trkpt lat="45.00405294574385" lon="8.3479898718697"><ele>243.0</ele><time>2026-04-18T10:59:00.001Z</time></trkpt><trkpt lat="45.00411701450444" lon="8.347967059923672"><ele>242.85714285714283</ele><time>2026-04-18T10:59:01.001Z</time></trkpt><trkpt lat="45.0041791890127" lon="8.347928993205295"><ele>242.71428571428572</ele><time>2026-04-18T10:59:02.001Z</time></trkpt><trkpt lat="45.00425321254951" lon="8.347902279626501"><ele>242.57142857142856</ele><time>2026-04-18T10:59:03.002Z</time></trkpt><trkpt lat="45.004331597737306" lon="8.347888415992479"><ele>242.42857142857142</ele><time>2026-04-18T10:59:04.002Z</time></trkpt><trkpt lat="45.00440064586339" lon="8.347874341275121"><ele>242.28571428571428</ele><time>2026-04-18T10:59:05.002Z</time></trkpt><trkpt lat="45.004464011932505" lon="8.347849672043834"><ele>242.14285714285714</ele><time>2026-04-18T10:59:06.002Z</time></trkpt><trkpt lat="45.00454699310831" lon="8.347823650234767"><ele>242.0</ele><time>2026-04-18T10:59:07.002Z</time></trkpt><trkpt lat="45.00462860890863" lon="8.347796458540117"><ele>242.0</ele><time>2026-04-18T10:59:08.002Z</time></trkpt><trkpt lat="45.00469325743038" lon="8.347768427891639"><ele>241.99999999999997</ele><time>2026-04-18T10:59:09.002Z</time></trkpt><trkpt lat="45.00476010404608" lon="8.347732877025495"><ele>242.0</ele><time>2026-04-18T10:59:10.002Z</time></trkpt><trkpt lat="45.00483914532386" lon="8.347690208071665"><ele>242.0</ele><time>2026-04-18T10:59:11.002Z</time></trkpt><trkpt lat="45.00490906370295" lon="8.34765176272717"><ele>241.99999999999997</ele><time>2026-04-18T10:59:12.002Z</time></trkpt><trkpt lat="45.0049751519063" lon="8.347611519941726"><ele>242.0</ele><time>2026-04-18T10:59:13.002Z</time></trkpt><trkpt lat="45.00503609297898" lon="8.347576752894641"><ele>242.0</ele><time>2026-04-18T10:59:14.002Z</time></trkpt><trkpt lat="45.00509577173732" lon="8.347538298312253"><ele>241.8</ele><time>2026-04-18T10:59:15.002Z</time></trkpt><trkpt lat="45.0051565585498" lon="8.347506455495623"><ele>241.6</ele><time>2026-04-18T10:59:16.002Z</time></trkpt><trkpt lat="45.00521972021682" lon="8.347469843996363"><ele>241.40000000000003</ele><time>2026-04-18T10:59:17.002Z</time></trkpt><trkpt lat="45.005275879072" lon="8.347427292623568"><ele>241.20000000000002</ele><time>2026-04-18T10:59:18.002Z</time></trkpt><trkpt lat="45.005408173309725" lon="8.347382590209868"><ele>241.0</ele><time>2026-04-18T10:59:20.002Z</time></trkpt><trkpt lat="45.00553909564841" lon="8.347385398432133"><ele>240.99999999999997</ele><time>2026-04-18T10:59:22.002Z</time></trkpt><trkpt lat="45.00561754516027" lon="8.347384672168422"><ele>241.0</ele><time>2026-04-18T10:59:23.002Z</time></trkpt><trkpt lat="45.00570077141425" lon="8.347378036235515"><ele>241.0</ele><time>2026-04-18T10:59:24.002Z</time></trkpt><trkpt lat="45.005766931284" lon="8.347378704307914"><ele>241.0</ele><time>2026-04-18T10:59:25.002Z</time></trkpt><trkpt lat="45.00590720306399" lon="8.347377677788296"><ele>240.99999999999997</ele><time>2026-04-18T10:59:27.002Z</time></trkpt><trkpt lat="45.00598691567768" lon="8.34737663511762"><ele>241.0</ele><time>2026-04-18T10:59:28.002Z</time></trkpt><trkpt lat="45.00605185494569" lon="8.347378333496712"><ele>240.16666666666666</ele><time>2026-04-18T10:59:29.002Z</time></trkpt><trkpt lat="45.00618017452876" lon="8.347383394347741"><ele>239.33333333333331</ele><time>2026-04-18T10:59:31.002Z</time></trkpt><trkpt lat="45.006259606584976" lon="8.347389903595722"><ele>238.5</ele><time>2026-04-18T10:59:32.002Z</time></trkpt><trkpt lat="45.00634061533094" lon="8.34739828798672"><ele>237.66666666666669</ele><time>2026-04-18T10:59:33.002Z</time></trkpt><trkpt lat="45.00641635961411" lon="8.347407050161952"><ele>236.83333333333334</ele><time>2026-04-18T10:59:34.002Z</time></trkpt><trkpt lat="45.006489897106626" lon="8.347421932392114"><ele>236.0</ele><time>2026-04-18T10:59:35.002Z</time></trkpt><trkpt lat="45.00656681270299" lon="8.347437470070124"><ele>236.00000000000003</ele><time>2026-04-18T10:59:36.003Z</time></trkpt><trkpt lat="45.006640651349194" lon="8.34745861758265"><ele>236.0</ele><time>2026-04-18T10:59:37.003Z</time></trkpt><trkpt lat="45.00672518397445" lon="8.347487556364944"><ele>236.0</ele><time>2026-04-18T10:59:38.003Z</time></trkpt><trkpt lat="45.006805375026225" lon="8.347513968111425"><ele>236.0</ele><time>2026-04-18T10:59:39.003Z</time></trkpt><trkpt lat="45.0068922400515" lon="8.347531598932314"><ele>236.00000000000003</ele><time>2026-04-18T10:59:40.003Z</time></trkpt><trkpt lat="45.00698261327894" lon="8.347549095524458"><ele>236.0</ele><time>2026-04-18T10:59:41.003Z</time></trkpt><trkpt lat="45.0070730170361" lon="8.347555113979917"><ele>236.0</ele><time>2026-04-18T10:59:42.003Z</time></trkpt><trkpt lat="45.00718037138624" lon="8.34754392679839"><ele>236.00000000000003</ele><time>2026-04-18T10:59:43.003Z</time></trkpt><trkpt lat="45.007280420808115" lon="8.347520468623784"><ele>236.00000000000003</ele><time>2026-04-18T10:59:44.003Z</time></trkpt><trkpt lat="45.00736643697043" lon="8.347486382861991"><ele>236.0</ele><time>2026-04-18T10:59:45.003Z</time></trkpt><trkpt lat="45.00745882682655" lon="8.34745251983402"><ele>236.0</ele><time>2026-04-18T10:59:46.003Z</time></trkpt><trkpt lat="45.00755412721167" lon="8.347412837003288"><ele>236.00000000000003</ele><time>2026-04-18T10:59:47.003Z</time></trkpt><trkpt lat="45.007631082923986" lon="8.34736827609123"><ele>236.0</ele><time>2026-04-18T10:59:48.003Z</time></trkpt><trkpt lat="45.00770691255712" lon="8.34732819978903"><ele>236.0</ele><time>2026-04-18T10:59:49.003Z</time></trkpt><trkpt lat="45.00778294176924" lon="8.347278798579495"><ele>236.0</ele><time>2026-04-18T10:59:50.003Z</time></trkpt><trkpt lat="45.007868997464534" lon="8.347218438761953"><ele>236.00000000000003</ele><time>2026-04-18T10:59:51.003Z</time></trkpt><trkpt lat="45.00795181619781" lon="8.347166701932617"><ele>236.0</ele><time>2026-04-18T10:59:52.003Z</time></trkpt><trkpt lat="45.00803510051928" lon="8.347115345493954"><ele>235.60000000000002</ele><time>2026-04-18T10:59:53.003Z</time></trkpt><trkpt lat="45.00811507210402" lon="8.347074862984579"><ele>235.20000000000002</ele><time>2026-04-18T10:59:54.003Z</time></trkpt><trkpt lat="45.00820547079664" lon="8.34703101678882"><ele>234.79999999999998</ele><time>2026-04-18T10:59:55.003Z</time></trkpt><trkpt lat="45.00830566517307" lon="8.346993019196704"><ele>234.39999999999998</ele><time>2026-04-18T10:59:56.003Z</time></trkpt><trkpt lat="45.008421339024565" lon="8.346954883128701"><ele>234.0</ele><time>2026-04-18T10:59:57.003Z</time></trkpt><trkpt lat="45.00853315787182" lon="8.346924538327075"><ele>234.0</ele><time>2026-04-18T10:59:58.003Z</time></trkpt><trkpt lat="45.00864686070261" lon="8.346891712824295"><ele>233.99999999999997</ele><time>2026-04-18T10:59:59.003Z</time></trkpt><trkpt lat="45.008749757183274" lon="8.346849601323147"><ele>233.99999999999997</ele><time>2026-04-18T11:00:00.003Z</time></trkpt><trkpt lat="45.008838998540824" lon="8.34679586681603"><ele>234.0</ele><time>2026-04-18T11:00:01.003Z</time></trkpt><trkpt lat="45.00891098384966" lon="8.346742744593918"><ele>234.0</ele><time>2026-04-18T11:00:02.003Z</time></trkpt><trkpt lat="45.008968678587685" lon="8.346675486936741"><ele>234.0</ele><time>2026-04-18T11:00:03.003Z</time></trkpt><trkpt lat="45.00904138429041" lon="8.346577392023308"><ele>233.99999999999997</ele><time>2026-04-18T11:00:04.003Z</time></trkpt><trkpt lat="45.009119078723266" lon="8.34647821793088"><ele>233.99999999999997</ele><time>2026-04-18T11:00:05Z</time></trkpt><trkpt lat="45.00920947864806" lon="8.346371131649642"><ele>234.0</ele><time>2026-04-18T11:00:06Z</time></trkpt><trkpt lat="45.00930264550097" lon="8.346262160959434"><ele>234.0</ele><time>2026-04-18T11:00:07Z</time></trkpt><trkpt lat="45.009395639273194" lon="8.346150819401812"><ele>233.2</ele><time>2026-04-18T11:00:08Z</time></trkpt><trkpt lat="45.009485495775266" lon="8.346043774741235"><ele>232.39999999999998</ele><time>2026-04-18T11:00:09Z</time></trkpt><trkpt lat="45.00956908454149" lon="8.345941224343013"><ele>231.6</ele><time>2026-04-18T11:00:10Z</time></trkpt><trkpt lat="45.009658099981124" lon="8.345846921869756"><ele>230.8</ele><time>2026-04-18T11:00:11Z</time></trkpt><trkpt lat="45.00974239664164" lon="8.345750817451737"><ele>230.0</ele><time>2026-04-18T11:00:12Z</time></trkpt><trkpt lat="45.00983076935968" lon="8.345657566443746"><ele>230.0</ele><time>2026-04-18T11:00:13Z</time></trkpt><trkpt lat="45.00991753687431" lon="8.34556167833955"><ele>230.0</ele><time>2026-04-18T11:00:14Z</time></trkpt><trkpt lat="45.01001060314645" lon="8.345457233827611"><ele>230.0</ele><time>2026-04-18T11:00:15Z</time></trkpt><trkpt lat="45.010100441134014" lon="8.345348391356525"><ele>230.0</ele><time>2026-04-18T11:00:16Z</time></trkpt><trkpt lat="45.01019535555061" lon="8.345234751930683"><ele>231.0</ele><time>2026-04-18T11:00:17Z</time></trkpt><trkpt lat="45.01028927712964" lon="8.345132374922484"><ele>232.0</ele><time>2026-04-18T11:00:18Z</time></trkpt><trkpt lat="45.01038479913922" lon="8.345045513374894"><ele>233.0</ele><time>2026-04-18T11:00:19Z</time></trkpt><trkpt lat="45.010478032010354" lon="8.344966890339045"><ele>234.0</ele><time>2026-04-18T11:00:20Z</time></trkpt><trkpt lat="45.01056792204445" lon="8.34489380913794"><ele>235.0</ele><time>2026-04-18T11:00:21Z</time></trkpt><trkpt lat="45.01066224636734" lon="8.344812382621255"><ele>235.0</ele><time>2026-04-18T11:00:22Z</time></trkpt><trkpt lat="45.0107589423473" lon="8.344725495262498"><ele>235.0</ele><time>2026-04-18T11:00:23Z</time></trkpt><trkpt lat="45.010853679359386" lon="8.344632266684828"><ele>235.0</ele><time>2026-04-18T11:00:24Z</time></trkpt><trkpt lat="45.01096226681684" lon="8.344533598111546"><ele>235.0</ele><time>2026-04-18T11:00:25Z</time></trkpt><trkpt lat="45.01107415087645" lon="8.34443432045043"><ele>237.0</ele><time>2026-04-18T11:00:26Z</time></trkpt><trkpt lat="45.011191622712914" lon="8.344326518395555"><ele>239.0</ele><time>2026-04-18T11:00:27Z</time></trkpt><trkpt lat="45.0113108639078" lon="8.344225491332242"><ele>241.0</ele><time>2026-04-18T11:00:28Z</time></trkpt><trkpt lat="45.011432179094655" lon="8.34411961096876"><ele>243.0</ele><time>2026-04-18T11:00:29Z</time></trkpt><trkpt lat="45.011551808334524" lon="8.344009977960114"><ele>242.0</ele><time>2026-04-18T11:00:30Z</time></trkpt><trkpt lat="45.01166939497342" lon="8.343904499803417"><ele>241.0</ele><time>2026-04-18T11:00:31Z</time></trkpt><trkpt lat="45.0117859464968" lon="8.343800864762036"><ele>240.0</ele><time>2026-04-18T11:00:32Z</time></trkpt><trkpt lat="45.01190075207681" lon="8.34369968967245"><ele>239.0</ele><time>2026-04-18T11:00:33.001Z</time></trkpt><trkpt lat="45.01201519184833" lon="8.343597973032034"><ele>241.0</ele><time>2026-04-18T11:00:34.001Z</time></trkpt><trkpt lat="45.012127105921664" lon="8.343496612279484"><ele>243.0</ele><time>2026-04-18T11:00:35.001Z</time></trkpt><trkpt lat="45.01222494870495" lon="8.343402457692363"><ele>245.0</ele><time>2026-04-18T11:00:36.001Z</time></trkpt><trkpt lat="45.01230997527541" lon="8.343330378270112"><ele>247.0</ele><time>2026-04-18T11:00:37.001Z</time></trkpt><trkpt lat="45.01239593136927" lon="8.343255012792921"><ele>247.0</ele><time>2026-04-18T11:00:38.001Z</time></trkpt><trkpt lat="45.01247988036682" lon="8.343175960630603"><ele>247.0</ele><time>2026-04-18T11:00:39.001Z</time></trkpt><trkpt lat="45.01255321855604" lon="8.343106909801262"><ele>247.0</ele><time>2026-04-18T11:00:40.001Z</time></trkpt><trkpt lat="45.012626221793894" lon="8.343038992254474"><ele>247.0</ele><time>2026-04-18T11:00:41.001Z</time></trkpt><trkpt lat="45.01269912467028" lon="8.342966425312376"><ele>247.0</ele><time>2026-04-18T11:00:42.001Z</time></trkpt><trkpt lat="45.0127714668702" lon="8.342886126422792"><ele>247.6</ele><time>2026-04-18T11:00:43.001Z</time></trkpt><trkpt lat="45.01284554343701" lon="8.342796564594112"><ele>248.2</ele><time>2026-04-18T11:00:44.001Z</time></trkpt><trkpt lat="45.01291656275258" lon="8.342703075770794"><ele>248.8</ele><time>2026-04-18T11:00:45.001Z</time></trkpt><trkpt lat="45.012996626750976" lon="8.342606833959143"><ele>249.4</ele><time>2026-04-18T11:00:46.001Z</time></trkpt><trkpt lat="45.01307490139224" lon="8.342519393387287"><ele>250.0</ele><time>2026-04-18T11:00:47.001Z</time></trkpt><trkpt lat="45.01314475807666" lon="8.342437109136641"><ele>249.99999999999997</ele><time>2026-04-18T11:00:48.001Z</time></trkpt><trkpt lat="45.0132045486554" lon="8.34235858063749"><ele>250.0</ele><time>2026-04-18T11:00:49.001Z</time></trkpt><trkpt lat="45.01326091533198" lon="8.342287241236864"><ele>250.0</ele><time>2026-04-18T11:00:50.001Z</time></trkpt><trkpt lat="45.013307482934074" lon="8.342227273574734"><ele>250.0</ele><time>2026-04-18T11:00:51.001Z</time></trkpt><trkpt lat="45.013406602895834" lon="8.342126978955179"><ele>249.99999999999997</ele><time>2026-04-18T11:00:53.001Z</time></trkpt><trkpt lat="45.01348076890382" lon="8.342087529716506"><ele>250.0</ele><time>2026-04-18T11:00:54.001Z</time></trkpt><trkpt lat="45.01357922762716" lon="8.342057317095156"><ele>249.75</ele><time>2026-04-18T11:00:55.001Z</time></trkpt><trkpt lat="45.01369956106112" lon="8.34202259516732"><ele>249.5</ele><time>2026-04-18T11:00:56.001Z</time></trkpt><trkpt lat="45.01381529351107" lon="8.341992157965443"><ele>249.25</ele><time>2026-04-18T11:00:57.001Z</time></trkpt><trkpt lat="45.01392780395083" lon="8.341957041409941"><ele>249.0</ele><time>2026-04-18T11:00:58.001Z</time></trkpt><trkpt lat="45.01403926182958" lon="8.341919936325764"><ele>249.0</ele><time>2026-04-18T11:00:59.001Z</time></trkpt><trkpt lat="45.01414274743817" lon="8.341888132886957"><ele>248.99999999999997</ele><time>2026-04-18T11:01:00.001Z</time></trkpt><trkpt lat="45.01423819210707" lon="8.341857082167204"><ele>248.99999999999997</ele><time>2026-04-18T11:01:01.001Z</time></trkpt><trkpt lat="45.014331805957745" lon="8.341828209297974"><ele>249.0</ele><time>2026-04-18T11:01:02.001Z</time></trkpt><trkpt lat="45.014426168126555" lon="8.341799162019422"><ele>249.0</ele><time>2026-04-18T11:01:03.001Z</time></trkpt><trkpt lat="45.01452108332322" lon="8.34176665273943"><ele>247.79999999999998</ele><time>2026-04-18T11:01:04.001Z</time></trkpt><trkpt lat="45.01461420282085" lon="8.34173161311004"><ele>246.59999999999997</ele><time>2026-04-18T11:01:05.001Z</time></trkpt><trkpt lat="45.01470864952151" lon="8.341694098995914"><ele>245.4</ele><time>2026-04-18T11:01:06.001Z</time></trkpt><trkpt lat="45.014803465580826" lon="8.341657623570677"><ele>244.2</ele><time>2026-04-18T11:01:07.002Z</time></trkpt><trkpt lat="45.014907156431754" lon="8.341618063952048"><ele>243.0</ele><time>2026-04-18T11:01:08.002Z</time></trkpt><trkpt lat="45.01501661081775" lon="8.34157716171641"><ele>243.0</ele><time>2026-04-18T11:01:09.002Z</time></trkpt><trkpt lat="45.0151357719621" lon="8.341531163101008"><ele>243.0</ele><time>2026-04-18T11:01:10.002Z</time></trkpt><trkpt lat="45.01525089236676" lon="8.341485614719037"><ele>243.0</ele><time>2026-04-18T11:01:11.002Z</time></trkpt><trkpt lat="45.015368351121516" lon="8.341453669008425"><ele>243.0</ele><time>2026-04-18T11:01:12.002Z</time></trkpt><trkpt lat="45.01548885901318" lon="8.341427323605338"><ele>243.0</ele><time>2026-04-18T11:01:13.002Z</time></trkpt><trkpt lat="45.01561225532586" lon="8.341400880277662"><ele>243.0</ele><time>2026-04-18T11:01:14.002Z</time></trkpt><trkpt lat="45.0157375531841" lon="8.341370910864184"><ele>243.0</ele><time>2026-04-18T11:01:15.002Z</time></trkpt><trkpt lat="45.01586929558752" lon="8.34134444916201"><ele>243.0</ele><time>2026-04-18T11:01:16.002Z</time></trkpt><trkpt lat="45.016008488718455" lon="8.341319362511518"><ele>241.75</ele><time>2026-04-18T11:01:17.002Z</time></trkpt><trkpt lat="45.01615071024163" lon="8.341296586837354"><ele>240.5</ele><time>2026-04-18T11:01:18.002Z</time></trkpt><trkpt lat="45.01629181866773" lon="8.341272193303757"><ele>239.25</ele><time>2026-04-18T11:01:19.002Z</time></trkpt><trkpt lat="45.01642025034619" lon="8.341244096970716"><ele>238.0</ele><time>2026-04-18T11:01:20.002Z</time></trkpt><trkpt lat="45.01653857053502" lon="8.341211462672264"><ele>239.0</ele><time>2026-04-18T11:01:21.002Z</time></trkpt><trkpt lat="45.01665755467032" lon="8.341170094363054"><ele>240.0</ele><time>2026-04-18T11:01:22.002Z</time></trkpt><trkpt lat="45.01676222500763" lon="8.34111598219064"><ele>241.0</ele><time>2026-04-18T11:01:23.002Z</time></trkpt><trkpt lat="45.01685831834252" lon="8.341057569578158"><ele>242.0</ele><time>2026-04-18T11:01:24.002Z</time></trkpt><trkpt lat="45.01694815670516" lon="8.340999619539122"><ele>243.0</ele><time>2026-04-18T11:01:25.002Z</time></trkpt><trkpt lat="45.01703820006076" lon="8.34094213702235"><ele>243.0</ele><time>2026-04-18T11:01:26.002Z</time></trkpt><trkpt lat="45.017127539478295" lon="8.340880921713362"><ele>243.0</ele><time>2026-04-18T11:01:27.002Z</time></trkpt><trkpt lat="45.01720742488404" lon="8.340825630368762"><ele>243.0</ele><time>2026-04-18T11:01:28.002Z</time></trkpt><trkpt lat="45.01728415303014" lon="8.340774505860042"><ele>243.0</ele><time>2026-04-18T11:01:29.002Z</time></trkpt><trkpt lat="45.01735677978681" lon="8.34072891163016"><ele>243.0</ele><time>2026-04-18T11:01:30.002Z</time></trkpt><trkpt lat="45.017421916254975" lon="8.340696588099282"><ele>243.0</ele><time>2026-04-18T11:01:31.002Z</time></trkpt><trkpt lat="45.01750352227301" lon="8.340658988934804"><ele>243.0</ele><time>2026-04-18T11:01:33.002Z</time></trkpt><trkpt lat="45.01757491003178" lon="8.340726481535254"><ele>243.0</ele><time>2026-04-18T11:01:36.002Z</time></trkpt><trkpt lat="45.01758023516881" lon="8.340835025065989"><ele>243.0</ele><time>2026-04-18T11:01:39.002Z</time></trkpt><trkpt lat="45.01760865957157" lon="8.340968615297115"><ele>243.0</ele><time>2026-04-18T11:02:10.003Z</time></trkpt><trkpt lat="45.01765729559252" lon="8.341072831706937"><ele>243.0</ele><time>2026-04-18T11:02:12Z</time></trkpt><trkpt lat="45.01770905251625" lon="8.341177581202414"><ele>243.0</ele><time>2026-04-18T11:02:14Z</time></trkpt><trkpt lat="45.01775505413004" lon="8.341335094538692"><ele>242.33333333333334</ele><time>2026-04-18T11:02:16Z</time></trkpt><trkpt lat="45.01777683368255" lon="8.341427017215741"><ele>241.66666666666669</ele><time>2026-04-18T11:02:17Z</time></trkpt><trkpt lat="45.01779942449726" lon="8.341513461124908"><ele>241.0</ele><time>2026-04-18T11:02:18Z</time></trkpt><trkpt lat="45.01781814087724" lon="8.34160584023017"><ele>240.33333333333334</ele><time>2026-04-18T11:02:19Z</time></trkpt><trkpt lat="45.01783959657442" lon="8.341690251750098"><ele>239.66666666666669</ele><time>2026-04-18T11:02:20Z</time></trkpt><trkpt lat="45.01788077039305" lon="8.341851678309567"><ele>239.0</ele><time>2026-04-18T11:02:22Z</time></trkpt><trkpt lat="45.017950861866446" lon="8.341989290498962"><ele>239.00000000000003</ele><time>2026-04-18T11:02:24Z</time></trkpt><trkpt lat="45.018037107805036" lon="8.342112343203128"><ele>239.0</ele><time>2026-04-18T11:02:26Z</time></trkpt><trkpt lat="45.01809890971465" lon="8.342166863776912"><ele>239.0</ele><time>2026-04-18T11:02:27Z</time></trkpt><trkpt lat="45.01816667374478" lon="8.342214919154767"><ele>239.0</ele><time>2026-04-18T11:02:28Z</time></trkpt><trkpt lat="45.018225413638156" lon="8.342261500668341"><ele>239.00000000000003</ele><time>2026-04-18T11:02:29Z</time></trkpt><trkpt lat="45.01828814681336" lon="8.342303850224328"><ele>239.0</ele><time>2026-04-18T11:02:30Z</time></trkpt><trkpt lat="45.01834791004062" lon="8.342351192665484"><ele>237.50000000000003</ele><time>2026-04-18T11:02:31Z</time></trkpt><trkpt lat="45.01842082118439" lon="8.342400880156685"><ele>236.0</ele><time>2026-04-18T11:02:32Z</time></trkpt><trkpt lat="45.018489364348675" lon="8.34244495319567"><ele>234.5</ele><time>2026-04-18T11:02:33Z</time></trkpt><trkpt lat="45.01857046998976" lon="8.342494602522464"><ele>233.0</ele><time>2026-04-18T11:02:34Z</time></trkpt><trkpt lat="45.018654324777266" lon="8.342554213783242"><ele>231.50000000000003</ele><time>2026-04-18T11:02:35Z</time></trkpt><trkpt lat="45.018738144534545" lon="8.342623199170916"><ele>230.0</ele><time>2026-04-18T11:02:36Z</time></trkpt><trkpt lat="45.01880553225037" lon="8.342685444729396"><ele>230.00000000000003</ele><time>2026-04-18T11:02:37Z</time></trkpt><trkpt lat="45.01886510908843" lon="8.342748684255554"><ele>230.0</ele><time>2026-04-18T11:02:38Z</time></trkpt><trkpt lat="45.0189225402246" lon="8.342814949947021"><ele>230.0</ele><time>2026-04-18T11:02:39Z</time></trkpt><trkpt lat="45.018978786326414" lon="8.342881676157232"><ele>230.0</ele><time>2026-04-18T11:02:40.001Z</time></trkpt><trkpt lat="45.01902416178152" lon="8.34294770085014"><ele>230.00000000000003</ele><time>2026-04-18T11:02:41.001Z</time></trkpt><trkpt lat="45.019066611517985" lon="8.34304166582646"><ele>230.0</ele><time>2026-04-18T11:02:42.001Z</time></trkpt><trkpt lat="45.019099229140586" lon="8.343153169560054"><ele>229.8</ele><time>2026-04-18T11:02:43.001Z</time></trkpt><trkpt lat="45.01911724090517" lon="8.343259812120388"><ele>229.6</ele><time>2026-04-18T11:02:44.001Z</time></trkpt><trkpt lat="45.01914043988814" lon="8.343403118009396"><ele>229.39999999999998</ele><time>2026-04-18T11:02:46.001Z</time></trkpt><trkpt lat="45.01917333187085" lon="8.3435791966245"><ele>229.2</ele><time>2026-04-18T11:02:48.001Z</time></trkpt><trkpt lat="45.019202988399414" lon="8.343757641873982"><ele>229.0</ele><time>2026-04-18T11:02:50.001Z</time></trkpt><trkpt lat="45.019219601554035" lon="8.343859794690886"><ele>228.83333333333331</ele><time>2026-04-18T11:02:51.001Z</time></trkpt><trkpt lat="45.01923238702915" lon="8.34397459434787"><ele>228.66666666666666</ele><time>2026-04-18T11:02:52.001Z</time></trkpt><trkpt lat="45.01924246102663" lon="8.34409368307189"><ele>228.5</ele><time>2026-04-18T11:02:53.001Z</time></trkpt><trkpt lat="45.01925091804817" lon="8.344206825140395"><ele>228.33333333333331</ele><time>2026-04-18T11:02:54.001Z</time></trkpt><trkpt lat="45.019261324062526" lon="8.34432602208987"><ele>228.16666666666666</ele><time>2026-04-18T11:02:55.001Z</time></trkpt><trkpt lat="45.01926066454474" lon="8.344448284435328"><ele>228.0</ele><time>2026-04-18T11:02:56.001Z</time></trkpt><trkpt lat="45.0192608036836" lon="8.34455595476557"><ele>228.0</ele><time>2026-04-18T11:02:57.001Z</time></trkpt><trkpt lat="45.01926686581038" lon="8.344663923131792"><ele>228.0</ele><time>2026-04-18T11:02:58.001Z</time></trkpt><trkpt lat="45.019280320711104" lon="8.34479250974388"><ele>228.0</ele><time>2026-04-18T11:02:59.001Z</time></trkpt><trkpt lat="45.01929733271098" lon="8.34492910765042"><ele>228.0</ele><time>2026-04-18T11:03:00.001Z</time></trkpt><trkpt lat="45.01930532072435" lon="8.345057438672645"><ele>228.0</ele><time>2026-04-18T11:03:01.001Z</time></trkpt><trkpt lat="45.019306098701655" lon="8.34515391433172"><ele>228.0</ele><time>2026-04-18T11:03:02.001Z</time></trkpt><trkpt lat="45.01931069210569" lon="8.345258199574445"><ele>227.83333333333334</ele><time>2026-04-18T11:03:03.001Z</time></trkpt><trkpt lat="45.019320713287726" lon="8.345367329876371"><ele>227.66666666666669</ele><time>2026-04-18T11:03:04.001Z</time></trkpt><trkpt lat="45.019328911046436" lon="8.345473826224731"><ele>227.5</ele><time>2026-04-18T11:03:05.001Z</time></trkpt><trkpt lat="45.019337249331954" lon="8.345581296984605"><ele>227.33333333333334</ele><time>2026-04-18T11:03:06.001Z</time></trkpt><trkpt lat="45.01935154705813" lon="8.345692008143573"><ele>227.16666666666669</ele><time>2026-04-18T11:03:07.001Z</time></trkpt><trkpt lat="45.01937667212373" lon="8.345806834382888"><ele>227.0</ele><time>2026-04-18T11:03:08.001Z</time></trkpt><trkpt lat="45.0194040360334" lon="8.345920167672778"><ele>227.00000000000003</ele><time>2026-04-18T11:03:09.001Z</time></trkpt><trkpt lat="45.01943665031335" lon="8.346041158683745"><ele>227.0</ele><time>2026-04-18T11:03:10.001Z</time></trkpt><trkpt lat="45.01947245333192" lon="8.346148772632578"><ele>227.0</ele><time>2026-04-18T11:03:11.001Z</time></trkpt><trkpt lat="45.01951907018226" lon="8.346258287243009"><ele>227.0</ele><time>2026-04-18T11:03:12.001Z</time></trkpt><trkpt lat="45.019559953573754" lon="8.346351494787267"><ele>227.00000000000003</ele><time>2026-04-18T11:03:13.002Z</time></trkpt><trkpt lat="45.01960585200302" lon="8.346448588352711"><ele>227.0</ele><time>2026-04-18T11:03:14.002Z</time></trkpt><trkpt lat="45.01964626635505" lon="8.346551891246179"><ele>226.66666666666669</ele><time>2026-04-18T11:03:15.002Z</time></trkpt><trkpt lat="45.01968969506647" lon="8.346659510798357"><ele>226.33333333333334</ele><time>2026-04-18T11:03:16.002Z</time></trkpt><trkpt lat="45.01972859592486" lon="8.346761261787888"><ele>226.0</ele><time>2026-04-18T11:03:17.002Z</time></trkpt><trkpt lat="45.0197675091132" lon="8.346861943926578"><ele>225.66666666666669</ele><time>2026-04-18T11:03:18.002Z</time></trkpt><trkpt lat="45.01981631396346" lon="8.346966470199437"><ele>225.33333333333334</ele><time>2026-04-18T11:03:19.002Z</time></trkpt><trkpt lat="45.01986313847065" lon="8.347076355108598"><ele>225.0</ele><time>2026-04-18T11:03:20.002Z</time></trkpt><trkpt lat="45.01991021135666" lon="8.347190097921874"><ele>224.83333333333334</ele><time>2026-04-18T11:03:21.002Z</time></trkpt><trkpt lat="45.01995540924166" lon="8.347298899108308"><ele>224.66666666666669</ele><time>2026-04-18T11:03:22.002Z</time></trkpt><trkpt lat="45.020004116725694" lon="8.34740569985853"><ele>224.5</ele><time>2026-04-18T11:03:23.002Z</time></trkpt><trkpt lat="45.02004734703463" lon="8.347503249016757"><ele>224.33333333333334</ele><time>2026-04-18T11:03:24.002Z</time></trkpt><trkpt lat="45.020089770005185" lon="8.34759628730165"><ele>224.16666666666669</ele><time>2026-04-18T11:03:25.002Z</time></trkpt><trkpt lat="45.02013573083908" lon="8.347691438758316"><ele>224.0</ele><time>2026-04-18T11:03:26.002Z</time></trkpt><trkpt lat="45.020190979775215" lon="8.347779702339214"><ele>225.50000000000003</ele><time>2026-04-18T11:03:27.002Z</time></trkpt><trkpt lat="45.02025156824261" lon="8.347842921816465"><ele>227.0</ele><time>2026-04-18T11:03:28.002Z</time></trkpt><trkpt lat="45.02031814780991" lon="8.347899511089402"><ele>228.5</ele><time>2026-04-18T11:03:29.002Z</time></trkpt><trkpt lat="45.02038336032531" lon="8.347957885507945"><ele>230.0</ele><time>2026-04-18T11:03:30.002Z</time></trkpt><trkpt lat="45.0204574220686" lon="8.347997520764945"><ele>231.50000000000003</ele><time>2026-04-18T11:03:31.002Z</time></trkpt><trkpt lat="45.02053585881823" lon="8.348044208647263"><ele>233.0</ele><time>2026-04-18T11:03:32.002Z</time></trkpt><trkpt lat="45.020616460912066" lon="8.348082779853643"><ele>234.00000000000003</ele><time>2026-04-18T11:03:33.002Z</time></trkpt><trkpt lat="45.02069616754435" lon="8.34812696044631"><ele>235.0</ele><time>2026-04-18T11:03:34.002Z</time></trkpt><trkpt lat="45.02076702328224" lon="8.348157858375325"><ele>236.0</ele><time>2026-04-18T11:03:35.002Z</time></trkpt><trkpt lat="45.02083932097493" lon="8.348171421549196"><ele>237.0</ele><time>2026-04-18T11:03:37.002Z</time></trkpt><trkpt lat="45.02091095801071" lon="8.34809294632278"><ele>238.00000000000003</ele><time>2026-04-18T11:03:43.002Z</time></trkpt><trkpt lat="45.02092505376218" lon="8.34800397498255"><ele>239.0</ele><time>2026-04-18T11:03:45.002Z</time></trkpt><trkpt lat="45.020940427543536" lon="8.347905764696685"><ele>239.33333333333334</ele><time>2026-04-18T11:03:48.003Z</time></trkpt><trkpt lat="45.02098662620693" lon="8.347813053665831"><ele>239.66666666666669</ele><time>2026-04-18T11:03:51.003Z</time></trkpt><trkpt lat="45.02103559222542" lon="8.34771076339201"><ele>240.0</ele><time>2026-04-18T11:03:53.003Z</time></trkpt><trkpt lat="45.02106185013812" lon="8.347616390953801"><ele>240.33333333333331</ele><time>2026-04-18T11:03:54.003Z</time></trkpt><trkpt lat="45.02109398625616" lon="8.34747935498483"><ele>240.66666666666666</ele><time>2026-04-18T11:03:55.003Z</time></trkpt><trkpt lat="45.02112026246936" lon="8.347354443609683"><ele>241.0</ele><time>2026-04-18T11:03:56.003Z</time></trkpt><trkpt lat="45.021150666810115" lon="8.347223312641518"><ele>241.75</ele><time>2026-04-18T11:03:57.003Z</time></trkpt><trkpt lat="45.021187039773444" lon="8.347068373936828"><ele>242.5</ele><time>2026-04-18T11:03:58.003Z</time></trkpt><trkpt lat="45.02122100903972" lon="8.346918358032868"><ele>243.25</ele><time>2026-04-18T11:03:59.003Z</time></trkpt><trkpt lat="45.021256120954384" lon="8.346756746613362"><ele>244.0</ele><time>2026-04-18T11:04:00.003Z</time></trkpt><trkpt lat="45.02129939783132" lon="8.346593373369815"><ele>244.0</ele><time>2026-04-18T11:04:01.003Z</time></trkpt><trkpt lat="45.021331976286085" lon="8.346424571317629"><ele>244.0</ele><time>2026-04-18T11:04:02.003Z</time></trkpt><trkpt lat="45.02137237892226" lon="8.346250239364757"><ele>244.0</ele><time>2026-04-18T11:04:03.003Z</time></trkpt><trkpt lat="45.02140793439454" lon="8.346071536262214"><ele>244.0</ele><time>2026-04-18T11:04:04.003Z</time></trkpt><trkpt lat="45.02144479350618" lon="8.345894154353987"><ele>244.16666666666666</ele><time>2026-04-18T11:04:05.003Z</time></trkpt><trkpt lat="45.02148093075793" lon="8.345745523279657"><ele>244.33333333333331</ele><time>2026-04-18T11:04:06.003Z</time></trkpt><trkpt lat="45.021516371143534" lon="8.345618704298017"><ele>244.5</ele><time>2026-04-18T11:04:07.003Z</time></trkpt><trkpt lat="45.021550971481" lon="8.345505343055223"><ele>244.66666666666669</ele><time>2026-04-18T11:04:08.003Z</time></trkpt><trkpt lat="45.021583677932064" lon="8.345405606057694"><ele>244.83333333333334</ele><time>2026-04-18T11:04:09.003Z</time></trkpt><trkpt lat="45.02161646008186" lon="8.345312538092708"><ele>245.0</ele><time>2026-04-18T11:04:10.003Z</time></trkpt><trkpt lat="45.02164869632216" lon="8.345205843517043"><ele>245.8</ele><time>2026-04-18T11:04:11.003Z</time></trkpt><trkpt lat="45.02167723370905" lon="8.345103245709787"><ele>246.6</ele><time>2026-04-18T11:04:12.003Z</time></trkpt><trkpt lat="45.0217207750253" lon="8.34495771404923"><ele>247.39999999999998</ele><time>2026-04-18T11:04:14.003Z</time></trkpt><trkpt lat="45.02177823684135" lon="8.344902667093129"><ele>248.2</ele><time>2026-04-18T11:04:29Z</time></trkpt><trkpt lat="45.02186513824515" lon="8.344938724642605"><ele>249.0</ele><time>2026-04-18T11:05:07.001Z</time></trkpt><trkpt lat="45.02198221435777" lon="8.344946893462726"><ele>249.0</ele><time>2026-04-18T11:05:09.001Z</time></trkpt><trkpt lat="45.022045634580486" lon="8.344946337859925"><ele>249.0</ele><time>2026-04-18T11:05:10.001Z</time></trkpt><trkpt lat="45.02216064969317" lon="8.344934864099844"><ele>249.0</ele><time>2026-04-18T11:05:12.001Z</time></trkpt><trkpt lat="45.02222702734141" lon="8.34491964045792"><ele>249.0</ele><time>2026-04-18T11:05:13.001Z</time></trkpt><trkpt lat="45.0223078262408" lon="8.344904072385214"><ele>249.0</ele><time>2026-04-18T11:05:14.001Z</time></trkpt><trkpt lat="45.02238670957392" lon="8.344881120741693"><ele>249.0</ele><time>2026-04-18T11:05:15.001Z</time></trkpt><trkpt lat="45.02251120136912" lon="8.344843749783077"><ele>248.66666666666666</ele><time>2026-04-18T11:05:17.001Z</time></trkpt><trkpt lat="45.022579011745776" lon="8.344825747004911"><ele>248.33333333333331</ele><time>2026-04-18T11:05:18.001Z</time></trkpt><trkpt lat="45.02265309900807" lon="8.344806243307215"><ele>248.0</ele><time>2026-04-18T11:05:19.001Z</time></trkpt><trkpt lat="45.02273072400373" lon="8.344780902018815"><ele>247.66666666666666</ele><time>2026-04-18T11:05:20.001Z</time></trkpt><trkpt lat="45.02280621736654" lon="8.344753785422524"><ele>247.33333333333331</ele><time>2026-04-18T11:05:21.001Z</time></trkpt><trkpt lat="45.02288325106737" lon="8.344723079725359"><ele>247.0</ele><time>2026-04-18T11:05:22.001Z</time></trkpt><trkpt lat="45.02296654581944" lon="8.344693313482502"><ele>249.2</ele><time>2026-04-18T11:05:23.001Z</time></trkpt><trkpt lat="45.023047397755406" lon="8.344665700352675"><ele>251.39999999999998</ele><time>2026-04-18T11:05:24.002Z</time></trkpt><trkpt lat="45.02312748494425" lon="8.344644506927121"><ele>253.60000000000002</ele><time>2026-04-18T11:05:25.002Z</time></trkpt><trkpt lat="45.02330007378267" lon="8.344602143863638"><ele>255.8</ele><time>2026-04-18T11:05:27.002Z</time></trkpt><trkpt lat="45.023385547922466" lon="8.344578311498578"><ele>258.0</ele><time>2026-04-18T11:05:28.002Z</time></trkpt><trkpt lat="45.02347551889964" lon="8.344562514696504"><ele>258.0</ele><time>2026-04-18T11:05:29.002Z</time></trkpt><trkpt lat="45.02356401915547" lon="8.344541910533515"><ele>258.0</ele><time>2026-04-18T11:05:30.002Z</time></trkpt><trkpt lat="45.02365064092004" lon="8.34451975313956"><ele>258.0</ele><time>2026-04-18T11:05:31.002Z</time></trkpt><trkpt lat="45.02373115780142" lon="8.344499814603065"><ele>258.0</ele><time>2026-04-18T11:05:32.002Z</time></trkpt><trkpt lat="45.02380440481318" lon="8.344481008415126"><ele>258.0</ele><time>2026-04-18T11:05:33.002Z</time></trkpt><trkpt lat="45.02389477496496" lon="8.344457766710157"><ele>258.0</ele><time>2026-04-18T11:05:34.002Z</time></trkpt><trkpt lat="45.02398741745941" lon="8.344425886698337"><ele>258.0</ele><time>2026-04-18T11:05:35.002Z</time></trkpt><trkpt lat="45.024089507478784" lon="8.344394682691476"><ele>258.0</ele><time>2026-04-18T11:05:36.002Z</time></trkpt><trkpt lat="45.02418662651816" lon="8.344368348723505"><ele>258.0</ele><time>2026-04-18T11:05:37.002Z</time></trkpt><trkpt lat="45.024274413326" lon="8.344345125540608"><ele>258.0</ele><time>2026-04-18T11:05:38.002Z</time></trkpt><trkpt lat="45.024353894749574" lon="8.344327908686523"><ele>258.0</ele><time>2026-04-18T11:05:39.002Z</time></trkpt><trkpt lat="45.02443306832275" lon="8.344305550179433"><ele>257.1666666666667</ele><time>2026-04-18T11:05:40.002Z</time></trkpt><trkpt lat="45.02451463289972" lon="8.344294258072102"><ele>256.3333333333333</ele><time>2026-04-18T11:05:41.002Z</time></trkpt><trkpt lat="45.024605345260625" lon="8.344284353213267"><ele>255.5</ele><time>2026-04-18T11:05:42.002Z</time></trkpt><trkpt lat="45.02469490210963" lon="8.344255627989323"><ele>254.66666666666666</ele><time>2026-04-18T11:05:43.002Z</time></trkpt><trkpt lat="45.0247651102799" lon="8.344224776608455"><ele>253.83333333333331</ele><time>2026-04-18T11:05:44.002Z</time></trkpt><trkpt lat="45.02484243733207" lon="8.344166720663491"><ele>253.0</ele><time>2026-04-18T11:05:45.002Z</time></trkpt><trkpt lat="45.02492325447743" lon="8.344112931925599"><ele>252.66666666666666</ele><time>2026-04-18T11:05:46.002Z</time></trkpt><trkpt lat="45.024988659258916" lon="8.34406947854825"><ele>252.33333333333331</ele><time>2026-04-18T11:05:47.002Z</time></trkpt><trkpt lat="45.025054171944774" lon="8.344033124690137"><ele>252.0</ele><time>2026-04-18T11:05:48.002Z</time></trkpt><trkpt lat="45.025133704525885" lon="8.343982445846255"><ele>251.66666666666669</ele><time>2026-04-18T11:05:49.002Z</time></trkpt><trkpt lat="45.025219626767715" lon="8.343945920977369"><ele>251.33333333333334</ele><time>2026-04-18T11:05:50.002Z</time></trkpt><trkpt lat="45.02532278722081" lon="8.343904133712833"><ele>251.0</ele><time>2026-04-18T11:05:51.002Z</time></trkpt><trkpt lat="45.02540848941595" lon="8.343847404734026"><ele>253.00000000000003</ele><time>2026-04-18T11:05:52.002Z</time></trkpt><trkpt lat="45.02548280217939" lon="8.343798881877259"><ele>255.0</ele><time>2026-04-18T11:05:53.002Z</time></trkpt><trkpt lat="45.02554145820592" lon="8.343738676289718"><ele>257.0</ele><time>2026-04-18T11:05:54.002Z</time></trkpt><trkpt lat="45.02560133787091" lon="8.343659973568336"><ele>259.0</ele><time>2026-04-18T11:05:55.002Z</time></trkpt><trkpt lat="45.025658088424116" lon="8.343576832094136"><ele>261.0</ele><time>2026-04-18T11:05:56.002Z</time></trkpt><trkpt lat="45.02569912565819" lon="8.343478285423078"><ele>263.0</ele><time>2026-04-18T11:05:57.002Z</time></trkpt><trkpt lat="45.025732019981255" lon="8.343374324888387"><ele>263.0</ele><time>2026-04-18T11:05:58.002Z</time></trkpt><trkpt lat="45.025744966572304" lon="8.343256331638063"><ele>263.0</ele><time>2026-04-18T11:05:59.003Z</time></trkpt><trkpt lat="45.0257581537306" lon="8.343162198716609"><ele>263.0</ele><time>2026-04-18T11:06:00.003Z</time></trkpt><trkpt lat="45.025796256474024" lon="8.343069036032318"><ele>263.0</ele><time>2026-04-18T11:06:02.003Z</time></trkpt><trkpt lat="45.02587029583069" lon="8.342999153631629"><ele>263.0</ele><time>2026-04-18T11:06:04.003Z</time></trkpt><trkpt lat="45.02592452678718" lon="8.342938055420722"><ele>263.0</ele><time>2026-04-18T11:06:06.003Z</time></trkpt><trkpt lat="45.02597325288702" lon="8.34285027068277"><ele>262.8</ele><time>2026-04-18T11:06:48Z</time></trkpt><trkpt lat="45.02605405258712" lon="8.342740603031682"><ele>262.6</ele><time>2026-04-18T11:06:50Z</time></trkpt><trkpt lat="45.02613626073194" lon="8.342615109849781"><ele>262.4</ele><time>2026-04-18T11:06:52Z</time></trkpt><trkpt lat="45.026180614649455" lon="8.342547929986601"><ele>262.2</ele><time>2026-04-18T11:06:53Z</time></trkpt><trkpt lat="45.02623227839043" lon="8.342468268968936"><ele>262.0</ele><time>2026-04-18T11:06:54Z</time></trkpt><trkpt lat="45.02628852317441" lon="8.342384683970568"><ele>262.0</ele><time>2026-04-18T11:06:55Z</time></trkpt><trkpt lat="45.02634240764582" lon="8.342298321045062"><ele>262.0</ele><time>2026-04-18T11:06:56.001Z</time></trkpt><trkpt lat="45.02638824074562" lon="8.342212791697975"><ele>262.0</ele><time>2026-04-18T11:06:57.001Z</time></trkpt><trkpt lat="45.02644734426004" lon="8.342116061014144"><ele>262.0</ele><time>2026-04-18T11:06:58.001Z</time></trkpt><trkpt lat="45.026504053603894" lon="8.342034960442986"><ele>262.0</ele><time>2026-04-18T11:06:59.001Z</time></trkpt><trkpt lat="45.02656084465057" lon="8.341951799123889"><ele>262.0</ele><time>2026-04-18T11:07:00.001Z</time></trkpt><trkpt lat="45.026617143431416" lon="8.341874493352586"><ele>261.16666666666663</ele><time>2026-04-18T11:07:01.001Z</time></trkpt><trkpt lat="45.02667776964097" lon="8.341796419323963"><ele>260.3333333333333</ele><time>2026-04-18T11:07:02.001Z</time></trkpt><trkpt lat="45.026754265396654" lon="8.341735503344319"><ele>259.5</ele><time>2026-04-18T11:07:03.001Z</time></trkpt><trkpt lat="45.02682869217444" lon="8.34170822517672"><ele>258.6666666666667</ele><time>2026-04-18T11:07:04.001Z</time></trkpt><trkpt lat="45.026883787695816" lon="8.341645448465368"><ele>257.83333333333337</ele><time>2026-04-18T11:07:05.001Z</time></trkpt><trkpt lat="45.02693637437066" lon="8.34158290205066"><ele>257.0</ele><time>2026-04-18T11:07:06.001Z</time></trkpt><trkpt lat="45.02699248014343" lon="8.341508614882242"><ele>257.0</ele><time>2026-04-18T11:07:07.001Z</time></trkpt><trkpt lat="45.027042357048735" lon="8.341424790878254"><ele>257.0</ele><time>2026-04-18T11:07:08.001Z</time></trkpt><trkpt lat="45.02709353690173" lon="8.341344420680258"><ele>257.0</ele><time>2026-04-18T11:07:09.001Z</time></trkpt><trkpt lat="45.027145619508765" lon="8.341288247407965"><ele>257.0</ele><time>2026-04-18T11:07:10.001Z</time></trkpt><trkpt lat="45.02720377804834" lon="8.341225049157408"><ele>257.0</ele><time>2026-04-18T11:07:11.001Z</time></trkpt><trkpt lat="45.02726729431098" lon="8.341154038981049"><ele>257.0</ele><time>2026-04-18T11:07:12.001Z</time></trkpt><trkpt lat="45.02732184795444" lon="8.341083027005778"><ele>257.0</ele><time>2026-04-18T11:07:13.001Z</time></trkpt><trkpt lat="45.02739064215082" lon="8.341013898430816"><ele>257.1428571428571</ele><time>2026-04-18T11:07:14.001Z</time></trkpt><trkpt lat="45.027459149483605" lon="8.340959922484355"><ele>257.2857142857143</ele><time>2026-04-18T11:07:15.001Z</time></trkpt><trkpt lat="45.02751910855717" lon="8.34090925584281"><ele>257.42857142857144</ele><time>2026-04-18T11:07:16.001Z</time></trkpt><trkpt lat="45.02757368919576" lon="8.340842913003009"><ele>257.57142857142856</ele><time>2026-04-18T11:07:17.001Z</time></trkpt><trkpt lat="45.02761465772359" lon="8.340761582930716"><ele>257.7142857142857</ele><time>2026-04-18T11:07:18.001Z</time></trkpt><trkpt lat="45.02764757929713" lon="8.34066994407754"><ele>257.85714285714283</ele><time>2026-04-18T11:07:19.001Z</time></trkpt><trkpt lat="45.02767126386362" lon="8.340568392055088"><ele>258.0</ele><time>2026-04-18T11:07:20.001Z</time></trkpt><trkpt lat="45.027704675762045" lon="8.340462398069727"><ele>259.8333333333333</ele><time>2026-04-18T11:07:21.001Z</time></trkpt><trkpt lat="45.027739345395005" lon="8.340363477232609"><ele>261.6666666666667</ele><time>2026-04-18T11:07:22.001Z</time></trkpt><trkpt lat="45.027780339753306" lon="8.340258740818308"><ele>263.5</ele><time>2026-04-18T11:07:23.001Z</time></trkpt><trkpt lat="45.02782259618009" lon="8.340153113595957"><ele>265.33333333333337</ele><time>2026-04-18T11:07:24.001Z</time></trkpt><trkpt lat="45.02785590043201" lon="8.340068681649987"><ele>267.1666666666667</ele><time>2026-04-18T11:07:25.001Z</time></trkpt><trkpt lat="45.027894796237256" lon="8.339978600370845"><ele>269.0</ele><time>2026-04-18T11:07:49.002Z</time></trkpt><trkpt lat="45.02794597396631" lon="8.339888781632595"><ele>269.0</ele><time>2026-04-18T11:07:52.002Z</time></trkpt><trkpt lat="45.027980838879905" lon="8.339788786479257"><ele>269.0</ele><time>2026-04-18T11:07:54.002Z</time></trkpt><trkpt lat="45.02801862945303" lon="8.339698676399427"><ele>269.0</ele><time>2026-04-18T11:07:56.002Z</time></trkpt><trkpt lat="45.02805717554817" lon="8.339610427698048"><ele>269.0</ele><time>2026-04-18T11:07:58.002Z</time></trkpt><trkpt lat="45.02810255169068" lon="8.339526998966159"><ele>269.0</ele><time>2026-04-18T11:08:00.002Z</time></trkpt><trkpt lat="45.02815968394349" lon="8.339414784272398"><ele>269.0</ele><time>2026-04-18T11:08:02.002Z</time></trkpt><trkpt lat="45.0282203706375" lon="8.339327250787573"><ele>269.0</ele><time>2026-04-18T11:08:04.003Z</time></trkpt><trkpt lat="45.02827680991302" lon="8.339223588762762"><ele>269.0</ele><time>2026-04-18T11:08:06.003Z</time></trkpt><trkpt lat="45.02833445459413" lon="8.339114649737525"><ele>269.0</ele><time>2026-04-18T11:08:08.003Z</time></trkpt><trkpt lat="45.028392338110365" lon="8.339007735884584"><ele>269.0</ele><time>2026-04-18T11:08:10.003Z</time></trkpt><trkpt lat="45.028433454825866" lon="8.338911953655872"><ele>269.0</ele><time>2026-04-18T11:08:12.003Z</time></trkpt><trkpt lat="45.02847766536816" lon="8.33880256960047"><ele>268.1666666666667</ele><time>2026-04-18T11:08:14.003Z</time></trkpt><trkpt lat="45.028522110893476" lon="8.338691853790026"><ele>267.33333333333337</ele><time>2026-04-18T11:08:16.003Z</time></trkpt><trkpt lat="45.02858602437765" lon="8.338556789340284"><ele>266.5</ele><time>2026-04-18T11:08:18.003Z</time></trkpt><trkpt lat="45.02861336699698" lon="8.338464533534772"><ele>265.6666666666667</ele><time>2026-04-18T11:08:19.003Z</time></trkpt><trkpt lat="45.028641283704054" lon="8.338356461804937"><ele>264.8333333333333</ele><time>2026-04-18T11:08:20.003Z</time></trkpt><trkpt lat="45.0286697976146" lon="8.33824293841836"><ele>264.0</ele><time>2026-04-18T11:08:21.003Z</time></trkpt><trkpt lat="45.028697016521555" lon="8.338138594932897"><ele>262.1666666666667</ele><time>2026-04-18T11:08:22.003Z</time></trkpt><trkpt lat="45.028721317629675" lon="8.338030738070566"><ele>260.3333333333333</ele><time>2026-04-18T11:08:23.003Z</time></trkpt><trkpt lat="45.028749862281515" lon="8.337928094583676"><ele>258.5</ele><time>2026-04-18T11:08:24.003Z</time></trkpt><trkpt lat="45.02877772368055" lon="8.337827433146954"><ele>256.66666666666663</ele><time>2026-04-18T11:08:25.003Z</time></trkpt><trkpt lat="45.02880285430172" lon="8.337718914864846"><ele>254.83333333333331</ele><time>2026-04-18T11:08:26.003Z</time></trkpt><trkpt lat="45.02882747544514" lon="8.337619018914879"><ele>253.0</ele><time>2026-04-18T11:08:27.003Z</time></trkpt><trkpt lat="45.02885583595116" lon="8.337496751163735"><ele>253.00000000000003</ele><time>2026-04-18T11:08:28.003Z</time></trkpt><trkpt lat="45.02888726630119" lon="8.337400086516553"><ele>253.0</ele><time>2026-04-18T11:08:29Z</time></trkpt><trkpt lat="45.02892673612592" lon="8.33730520923005"><ele>253.00000000000003</ele><time>2026-04-18T11:08:30Z</time></trkpt><trkpt lat="45.02895640317688" lon="8.337215754279997"><ele>253.00000000000003</ele><time>2026-04-18T11:08:31Z</time></trkpt><trkpt lat="45.028991853033055" lon="8.33713024281813"><ele>253.0</ele><time>2026-04-18T11:08:32Z</time></trkpt><trkpt lat="45.029019167439685" lon="8.337037573723224"><ele>253.00000000000003</ele><time>2026-04-18T11:08:33Z</time></trkpt><trkpt lat="45.02904777272313" lon="8.336928904553835"><ele>253.00000000000003</ele><time>2026-04-18T11:08:34Z</time></trkpt><trkpt lat="45.029072682261855" lon="8.336827142988005"><ele>253.0</ele><time>2026-04-18T11:08:35Z</time></trkpt><trkpt lat="45.02909643742682" lon="8.336719346200681"><ele>253.0</ele><time>2026-04-18T11:08:36Z</time></trkpt><trkpt lat="45.02913712565853" lon="8.336557698750175"><ele>253.0</ele><time>2026-04-18T11:08:38Z</time></trkpt><trkpt lat="45.02915237335683" lon="8.336442305794627"><ele>253.0</ele><time>2026-04-18T11:08:40Z</time></trkpt><trkpt lat="45.0291711099625" lon="8.336326384838173"><ele>253.0</ele><time>2026-04-18T11:08:42Z</time></trkpt><trkpt lat="45.02918588085746" lon="8.336196567144894"><ele>252.66666666666666</ele><time>2026-04-18T11:08:44Z</time></trkpt><trkpt lat="45.02920254398926" lon="8.336084141349119"><ele>252.33333333333331</ele><time>2026-04-18T11:08:46Z</time></trkpt><trkpt lat="45.029214609039265" lon="8.335968601936885"><ele>252.0</ele><time>2026-04-18T11:08:48Z</time></trkpt><trkpt lat="45.02922544139616" lon="8.335866897167687"><ele>251.66666666666669</ele><time>2026-04-18T11:08:50Z</time></trkpt><trkpt lat="45.0292327975162" lon="8.335738127958853"><ele>251.33333333333334</ele><time>2026-04-18T11:08:52Z</time></trkpt><trkpt lat="45.02926892347424" lon="8.335624379029086"><ele>251.0</ele><time>2026-04-18T11:08:55Z</time></trkpt><trkpt lat="45.02930436496986" lon="8.335531231124987"><ele>250.16666666666669</ele><time>2026-04-18T11:08:57Z</time></trkpt><trkpt lat="45.029348362981914" lon="8.335427449437981"><ele>249.33333333333334</ele><time>2026-04-18T11:08:59Z</time></trkpt><trkpt lat="45.02940336287592" lon="8.33529688387828"><ele>248.5</ele><time>2026-04-18T11:09:01Z</time></trkpt><trkpt lat="45.029415501755395" lon="8.335202169192408"><ele>247.66666666666669</ele><time>2026-04-18T11:09:02.001Z</time></trkpt><trkpt lat="45.02942220014111" lon="8.335096103729747"><ele>246.83333333333334</ele><time>2026-04-18T11:09:03.001Z</time></trkpt><trkpt lat="45.02942758034421" lon="8.334992272390222"><ele>246.0</ele><time>2026-04-18T11:09:04.001Z</time></trkpt><trkpt lat="45.02945063303202" lon="8.334902973942421"><ele>246.0</ele><time>2026-04-18T11:09:05.001Z</time></trkpt><trkpt lat="45.02946453342207" lon="8.334814698820383"><ele>246.0</ele><time>2026-04-18T11:09:06.001Z</time></trkpt><trkpt lat="45.029485655039466" lon="8.334716929928135"><ele>246.0</ele><time>2026-04-18T11:09:07.001Z</time></trkpt><trkpt lat="45.029519509013" lon="8.334623137418411"><ele>246.0</ele><time>2026-04-18T11:09:08.001Z</time></trkpt><trkpt lat="45.02956287724744" lon="8.33452753872148"><ele>246.0</ele><time>2026-04-18T11:09:09.001Z</time></trkpt><trkpt lat="45.02960191403065" lon="8.334419560950824"><ele>246.0</ele><time>2026-04-18T11:09:10.001Z</time></trkpt><trkpt lat="45.02964602464345" lon="8.334311420441088"><ele>245.4</ele><time>2026-04-18T11:09:11.001Z</time></trkpt><trkpt lat="45.029686951540036" lon="8.33420100103644"><ele>244.8</ele><time>2026-04-18T11:09:12.001Z</time></trkpt><trkpt lat="45.02973044105837" lon="8.334087273210182"><ele>244.20000000000002</ele><time>2026-04-18T11:09:13.001Z</time></trkpt><trkpt lat="45.0297742621644" lon="8.333972539408622"><ele>243.60000000000002</ele><time>2026-04-18T11:09:14.001Z</time></trkpt><trkpt lat="45.029819624181506" lon="8.333852796759034"><ele>243.0</ele><time>2026-04-18T11:09:15.001Z</time></trkpt><trkpt lat="45.02986086300396" lon="8.333739025664642"><ele>242.5</ele><time>2026-04-18T11:09:16.001Z</time></trkpt><trkpt lat="45.02990483194526" lon="8.3336226941325"><ele>242.0</ele><time>2026-04-18T11:09:17.001Z</time></trkpt><trkpt lat="45.02994939560071" lon="8.333513581884342"><ele>241.5</ele><time>2026-04-18T11:09:18.001Z</time></trkpt><trkpt lat="45.02999225972232" lon="8.333405405202248"><ele>241.0</ele><time>2026-04-18T11:09:19.001Z</time></trkpt><trkpt lat="45.03002899695364" lon="8.333314998166683"><ele>240.5</ele><time>2026-04-18T11:09:20.001Z</time></trkpt><trkpt lat="45.03007045692547" lon="8.333240193702197"><ele>240.0</ele><time>2026-04-18T11:09:21.001Z</time></trkpt><trkpt lat="45.030163311828304" lon="8.333147236208685"><ele>242.16666666666666</ele><time>2026-04-18T11:09:23.001Z</time></trkpt><trkpt lat="45.03028280099016" lon="8.333106989721202"><ele>244.33333333333331</ele><time>2026-04-18T11:09:25.001Z</time></trkpt><trkpt lat="45.03035140034186" lon="8.333091647809162"><ele>246.5</ele><time>2026-04-18T11:09:26.001Z</time></trkpt><trkpt lat="45.0304302767628" lon="8.33306551012132"><ele>248.66666666666666</ele><time>2026-04-18T11:09:27.001Z</time></trkpt><trkpt lat="45.030507849234034" lon="8.333039787986673"><ele>250.83333333333331</ele><time>2026-04-18T11:09:28.001Z</time></trkpt><trkpt lat="45.03058239397008" lon="8.333026899480727"><ele>253.0</ele><time>2026-04-18T11:09:29.001Z</time></trkpt><trkpt lat="45.030657936302056" lon="8.332998615323204"><ele>253.00000000000003</ele><time>2026-04-18T11:09:30.001Z</time></trkpt><trkpt lat="45.030723356207545" lon="8.332959989719063"><ele>253.0</ele><time>2026-04-18T11:09:31.001Z</time></trkpt><trkpt lat="45.03079660148542" lon="8.332917462783618"><ele>253.00000000000003</ele><time>2026-04-18T11:09:32.001Z</time></trkpt><trkpt lat="45.0308668939276" lon="8.332876141984197"><ele>253.00000000000003</ele><time>2026-04-18T11:09:33.001Z</time></trkpt><trkpt lat="45.03092980356878" lon="8.332839683180184"><ele>253.0</ele><time>2026-04-18T11:09:34.001Z</time></trkpt><trkpt lat="45.03099514746145" lon="8.33281421046665"><ele>253.00000000000003</ele><time>2026-04-18T11:09:35.002Z</time></trkpt><trkpt lat="45.03106175095051" lon="8.332789892382552"><ele>253.00000000000003</ele><time>2026-04-18T11:09:36.002Z</time></trkpt><trkpt lat="45.03112862740065" lon="8.332743400779876"><ele>255.60000000000002</ele><time>2026-04-18T11:09:37.002Z</time></trkpt><trkpt lat="45.031194222722036" lon="8.332693631401314"><ele>258.20000000000005</ele><time>2026-04-18T11:09:38.002Z</time></trkpt><trkpt lat="45.03127764012237" lon="8.332574473135232"><ele>260.8</ele><time>2026-04-18T11:09:40.002Z</time></trkpt><trkpt lat="45.03135664226356" lon="8.332438233390565"><ele>263.40000000000003</ele><time>2026-04-18T11:09:42.002Z</time></trkpt><trkpt lat="45.031427419293195" lon="8.332322021222808"><ele>266.0</ele><time>2026-04-18T11:09:44.002Z</time></trkpt><trkpt lat="45.031496757989906" lon="8.332168245934087"><ele>266.0</ele><time>2026-04-18T11:09:46.002Z</time></trkpt><trkpt lat="45.03152832204221" lon="8.332066183612016"><ele>266.0</ele><time>2026-04-18T11:09:47.002Z</time></trkpt><trkpt lat="45.031547381310126" lon="8.331947794987785"><ele>266.0</ele><time>2026-04-18T11:09:48.002Z</time></trkpt><trkpt lat="45.03156467866819" lon="8.331813306097164"><ele>266.0</ele><time>2026-04-18T11:09:49.002Z</time></trkpt><trkpt lat="45.03158185313504" lon="8.331675782853424"><ele>266.0</ele><time>2026-04-18T11:09:50.002Z</time></trkpt><trkpt lat="45.031606058748906" lon="8.331531081438415"><ele>266.0</ele><time>2026-04-18T11:09:51.002Z</time></trkpt><trkpt lat="45.031627992000146" lon="8.331407999367176"><ele>266.0</ele><time>2026-04-18T11:09:52.002Z</time></trkpt><trkpt lat="45.03165120204808" lon="8.331289201809897"><ele>266.0</ele><time>2026-04-18T11:09:53.002Z</time></trkpt><trkpt lat="45.03167260992936" lon="8.331155185820535"><ele>266.0</ele><time>2026-04-18T11:09:54.002Z</time></trkpt><trkpt lat="45.03169281497339" lon="8.331016874694392"><ele>266.0</ele><time>2026-04-18T11:09:55.002Z</time></trkpt><trkpt lat="45.03171536266868" lon="8.330876870782404"><ele>267.1666666666667</ele><time>2026-04-18T11:09:56.002Z</time></trkpt><trkpt lat="45.031732666117335" lon="8.330769383349358"><ele>268.33333333333337</ele><time>2026-04-18T11:09:57.002Z</time></trkpt><trkpt lat="45.031745048331935" lon="8.330668202966304"><ele>269.5</ele><time>2026-04-18T11:09:58.002Z</time></trkpt><trkpt lat="45.031756935541125" lon="8.330559376509962"><ele>270.6666666666667</ele><time>2026-04-18T11:09:59.002Z</time></trkpt><trkpt lat="45.03177322569195" lon="8.330461428253779"><ele>271.8333333333333</ele><time>2026-04-18T11:10:00.002Z</time></trkpt><trkpt lat="45.03181146762137" lon="8.33030319479153"><ele>273.0</ele><time>2026-04-18T11:10:02.002Z</time></trkpt><trkpt lat="45.031850098132075" lon="8.330228245415167"><ele>273.0</ele><time>2026-04-18T11:10:03.002Z</time></trkpt><trkpt lat="45.031894464573995" lon="8.330146091239587"><ele>273.0</ele><time>2026-04-18T11:10:04.002Z</time></trkpt><trkpt lat="45.031938251215294" lon="8.330081635209503"><ele>273.0</ele><time>2026-04-18T11:10:05.002Z</time></trkpt><trkpt lat="45.031989839297836" lon="8.330002034435656"><ele>273.0</ele><time>2026-04-18T11:10:06.002Z</time></trkpt><trkpt lat="45.03205216436363" lon="8.329906232106024"><ele>273.0</ele><time>2026-04-18T11:10:07.002Z</time></trkpt><trkpt lat="45.03212202263174" lon="8.329813135599993"><ele>273.0</ele><time>2026-04-18T11:10:08.003Z</time></trkpt><trkpt lat="45.03219077968735" lon="8.32973007410111"><ele>273.0</ele><time>2026-04-18T11:10:09.003Z</time></trkpt><trkpt lat="45.032247778736185" lon="8.329670497899716"><ele>273.0</ele><time>2026-04-18T11:10:10.003Z</time></trkpt><trkpt lat="45.032310029262284" lon="8.329622773097787"><ele>273.0</ele><time>2026-04-18T11:10:11.003Z</time></trkpt><trkpt lat="45.03238045935432" lon="8.329592010041015"><ele>273.0</ele><time>2026-04-18T11:10:12.003Z</time></trkpt><trkpt lat="45.03245401194526" lon="8.329560025330508"><ele>273.0</ele><time>2026-04-18T11:10:13.003Z</time></trkpt><trkpt lat="45.03254190950147" lon="8.329537499793966"><ele>273.0</ele><time>2026-04-18T11:10:14.003Z</time></trkpt><trkpt lat="45.03263043496834" lon="8.329510191861994"><ele>274.3333333333333</ele><time>2026-04-18T11:10:15.003Z</time></trkpt><trkpt lat="45.03272753101729" lon="8.329473234892097"><ele>275.6666666666667</ele><time>2026-04-18T11:10:16.003Z</time></trkpt><trkpt lat="45.03281413694084" lon="8.329432878784427"><ele>277.0</ele><time>2026-04-18T11:10:17.003Z</time></trkpt><trkpt lat="45.03288393773395" lon="8.329387792763374"><ele>278.33333333333337</ele><time>2026-04-18T11:10:18.003Z</time></trkpt><trkpt lat="45.03296264022794" lon="8.329346830182272"><ele>279.6666666666667</ele><time>2026-04-18T11:10:19.003Z</time></trkpt><trkpt lat="45.033052839885826" lon="8.329298412209443"><ele>281.0</ele><time>2026-04-18T11:10:20.003Z</time></trkpt><trkpt lat="45.03314813770565" lon="8.329259758544419"><ele>281.0</ele><time>2026-04-18T11:10:21.003Z</time></trkpt><trkpt lat="45.033251057708334" lon="8.329218636931607"><ele>281.0</ele><time>2026-04-18T11:10:22.003Z</time></trkpt><trkpt lat="45.03333000583076" lon="8.329172935697335"><ele>281.0</ele><time>2026-04-18T11:10:23.003Z</time></trkpt><trkpt lat="45.03340293395029" lon="8.329119707697568"><ele>281.0</ele><time>2026-04-18T11:10:24.003Z</time></trkpt><trkpt lat="45.03346373711769" lon="8.329062024732513"><ele>281.0</ele><time>2026-04-18T11:10:25.003Z</time></trkpt><trkpt lat="45.03351721720519" lon="8.32900201412152"><ele>281.0</ele><time>2026-04-18T11:10:26.003Z</time></trkpt><trkpt lat="45.03356449031362" lon="8.328925374903603"><ele>281.83333333333337</ele><time>2026-04-18T11:10:27.003Z</time></trkpt><trkpt lat="45.03359528298972" lon="8.328846529441892"><ele>282.6666666666667</ele><time>2026-04-18T11:10:28.003Z</time></trkpt><trkpt lat="45.0336316977641" lon="8.32876615740511"><ele>283.5</ele><time>2026-04-18T11:10:29.003Z</time></trkpt><trkpt lat="45.033669666710146" lon="8.32868269872177"><ele>284.3333333333333</ele><time>2026-04-18T11:10:30.003Z</time></trkpt><trkpt lat="45.033718470089" lon="8.3285910101113"><ele>285.16666666666663</ele><time>2026-04-18T11:10:31.003Z</time></trkpt><trkpt lat="45.03376645473647" lon="8.328479411429234"><ele>286.0</ele><time>2026-04-18T11:10:32.003Z</time></trkpt><trkpt lat="45.03380899185408" lon="8.328370748430233"><ele>286.0</ele><time>2026-04-18T11:10:33.003Z</time></trkpt><trkpt lat="45.03384786247513" lon="8.328253582527102"><ele>286.0</ele><time>2026-04-18T11:10:34.003Z</time></trkpt><trkpt lat="45.03387787204742" lon="8.32814381257499"><ele>286.0</ele><time>2026-04-18T11:10:35Z</time></trkpt><trkpt lat="45.033924668969696" lon="8.328037758201795"><ele>286.0</ele><time>2026-04-18T11:10:36Z</time></trkpt><trkpt lat="45.03397810989076" lon="8.327933563177613"><ele>286.0</ele><time>2026-04-18T11:10:37Z</time></trkpt><trkpt lat="45.0340277678498" lon="8.327836529552098"><ele>286.0</ele><time>2026-04-18T11:10:38Z</time></trkpt><trkpt lat="45.03408238681669" lon="8.327755128663565"><ele>284.66666666666663</ele><time>2026-04-18T11:10:39Z</time></trkpt><trkpt lat="45.03414590608662" lon="8.327668379495037"><ele>283.3333333333333</ele><time>2026-04-18T11:10:40Z</time></trkpt><trkpt lat="45.03421967874959" lon="8.327595232116659"><ele>282.0</ele><time>2026-04-18T11:10:41Z</time></trkpt><trkpt lat="45.03428507710999" lon="8.327517056245963"><ele>280.6666666666667</ele><time>2026-04-18T11:10:42Z</time></trkpt><trkpt lat="45.03435636922512" lon="8.327444509924362"><ele>279.33333333333337</ele><time>2026-04-18T11:10:43Z</time></trkpt><trkpt lat="45.03442801728995" lon="8.327380756738346"><ele>278.0</ele><time>2026-04-18T11:10:44Z</time></trkpt><trkpt lat="45.03448551825129" lon="8.32732406270858"><ele>278.0</ele><time>2026-04-18T11:10:45Z</time></trkpt><trkpt lat="45.03457165005103" lon="8.32729304355502"><ele>278.0</ele><time>2026-04-18T11:10:46Z</time></trkpt><trkpt lat="45.0346538162699" lon="8.327251118330942"><ele>278.0</ele><time>2026-04-18T11:10:47Z</time></trkpt><trkpt lat="45.03472105307927" lon="8.327231580874622"><ele>278.0</ele><time>2026-04-18T11:10:48Z</time></trkpt><trkpt lat="45.03479658064484" lon="8.327207247598965"><ele>278.0</ele><time>2026-04-18T11:10:49Z</time></trkpt><trkpt lat="45.034872073872464" lon="8.327168330527032"><ele>278.0</ele><time>2026-04-18T11:10:50Z</time></trkpt><trkpt lat="45.03493370187463" lon="8.327146966611604"><ele>276.4</ele><time>2026-04-18T11:10:51Z</time></trkpt><trkpt lat="45.034995689283974" lon="8.32709121108789"><ele>274.8</ele><time>2026-04-18T11:10:52Z</time></trkpt><trkpt lat="45.03508268493277" lon="8.326992305641303"><ele>273.2</ele><time>2026-04-18T11:10:54Z</time></trkpt><trkpt lat="45.035166600017995" lon="8.32686336979212"><ele>271.6</ele><time>2026-04-18T11:10:56Z</time></trkpt><trkpt lat="45.035241658102045" lon="8.32680613825888"><ele>270.0</ele><time>2026-04-18T11:10:57Z</time></trkpt><trkpt lat="45.035314697191424" lon="8.326712928569266"><ele>270.0</ele><time>2026-04-18T11:10:58Z</time></trkpt><trkpt lat="45.03537931065841" lon="8.326656180266705"><ele>270.0</ele><time>2026-04-18T11:10:59Z</time></trkpt><trkpt lat="45.03542566308008" lon="8.326593705396919"><ele>270.0</ele><time>2026-04-18T11:11:00Z</time></trkpt><trkpt lat="45.035485041701094" lon="8.326532203140339"><ele>270.0</ele><time>2026-04-18T11:11:01Z</time></trkpt><trkpt lat="45.035544845771376" lon="8.326468997680696"><ele>270.0</ele><time>2026-04-18T11:11:02Z</time></trkpt><trkpt lat="45.03562980411731" lon="8.326363097258497"><ele>270.0</ele><time>2026-04-18T11:11:04Z</time></trkpt><trkpt lat="45.0356787249834" lon="8.326305557070354"><ele>269.0</ele><time>2026-04-18T11:11:05Z</time></trkpt><trkpt lat="45.035764474982535" lon="8.326207999842802"><ele>268.0</ele><time>2026-04-18T11:11:07.001Z</time></trkpt><trkpt lat="45.03581902268866" lon="8.326160815023767"><ele>267.0</ele><time>2026-04-18T11:11:08.001Z</time></trkpt><trkpt lat="45.035908533051185" lon="8.326133035614797"><ele>266.0</ele><time>2026-04-18T11:11:10.001Z</time></trkpt><trkpt lat="45.03600210085536" lon="8.326118467974602"><ele>265.0</ele><time>2026-04-18T11:11:12.001Z</time></trkpt><trkpt lat="45.03612034610158" lon="8.32611542074307"><ele>265.0</ele><time>2026-04-18T11:11:14.001Z</time></trkpt><trkpt lat="45.03622970808177" lon="8.326137940548302"><ele>265.0</ele><time>2026-04-18T11:11:16.001Z</time></trkpt><trkpt lat="45.03633179963578" lon="8.326133629634896"><ele>265.0</ele><time>2026-04-18T11:11:18.001Z</time></trkpt><trkpt lat="45.03641226008725" lon="8.32609435561241"><ele>265.0</ele><time>2026-04-18T11:11:20.001Z</time></trkpt><trkpt lat="45.036487940447216" lon="8.325985637292748"><ele>265.0</ele><time>2026-04-18T11:11:22.001Z</time></trkpt><trkpt lat="45.03652163937673" lon="8.325898423240895"><ele>265.0</ele><time>2026-04-18T11:11:23.001Z</time></trkpt><trkpt lat="45.03655031734924" lon="8.325807423779445"><ele>265.0</ele><time>2026-04-18T11:11:24.001Z</time></trkpt><trkpt lat="45.03657351951138" lon="8.325707677558132"><ele>265.0</ele><time>2026-04-18T11:11:25.001Z</time></trkpt><trkpt lat="45.036597337433676" lon="8.325600463835295"><ele>265.0</ele><time>2026-04-18T11:11:26.001Z</time></trkpt><trkpt lat="45.03662948406524" lon="8.325488520783008"><ele>265.0</ele><time>2026-04-18T11:11:27.001Z</time></trkpt><trkpt lat="45.0366654272182" lon="8.32536627856425"><ele>265.0</ele><time>2026-04-18T11:11:28.001Z</time></trkpt><trkpt lat="45.03669718229296" lon="8.325231820338802"><ele>263.8333333333333</ele><time>2026-04-18T11:11:29.001Z</time></trkpt><trkpt lat="45.036724602951395" lon="8.325118265733789"><ele>262.66666666666663</ele><time>2026-04-18T11:11:30.001Z</time></trkpt><trkpt lat="45.03674784037604" lon="8.325002292841027"><ele>261.5</ele><time>2026-04-18T11:11:31.001Z</time></trkpt><trkpt lat="45.03676953458231" lon="8.324893796002712"><ele>260.3333333333333</ele><time>2026-04-18T11:11:32.001Z</time></trkpt><trkpt lat="45.036783925184665" lon="8.324779606583792"><ele>259.1666666666667</ele><time>2026-04-18T11:11:33.001Z</time></trkpt><trkpt lat="45.03679019421349" lon="8.32466832189581"><ele>258.0</ele><time>2026-04-18T11:11:34.001Z</time></trkpt><trkpt lat="45.036784695139644" lon="8.324557265970736"><ele>258.0</ele><time>2026-04-18T11:11:35.001Z</time></trkpt><trkpt lat="45.03676703981801" lon="8.324445277269357"><ele>258.0</ele><time>2026-04-18T11:11:36.001Z</time></trkpt><trkpt lat="45.036733204160655" lon="8.324329951607382"><ele>258.0</ele><time>2026-04-18T11:11:37.001Z</time></trkpt><trkpt lat="45.03670136222118" lon="8.324230501293023"><ele>258.0</ele><time>2026-04-18T11:11:38.001Z</time></trkpt><trkpt lat="45.03667769518039" lon="8.324141253449104"><ele>258.0</ele><time>2026-04-18T11:11:39.001Z</time></trkpt><trkpt lat="45.03666857988069" lon="8.323990668512499"><ele>258.0</ele><time>2026-04-18T11:11:41.002Z</time></trkpt><trkpt lat="45.03671118191665" lon="8.323836064609726"><ele>256.99999999999994</ele><time>2026-04-18T11:11:43.002Z</time></trkpt><trkpt lat="45.03675332469115" lon="8.323760978758926"><ele>256.0</ele><time>2026-04-18T11:11:44.002Z</time></trkpt><trkpt lat="45.03680218694045" lon="8.323693153618011"><ele>254.99999999999997</ele><time>2026-04-18T11:11:45.002Z</time></trkpt><trkpt lat="45.03686359116881" lon="8.323627437429755"><ele>253.99999999999997</ele><time>2026-04-18T11:11:46.002Z</time></trkpt><trkpt lat="45.03692486806288" lon="8.323559076235775"><ele>253.0</ele><time>2026-04-18T11:11:47.002Z</time></trkpt><trkpt lat="45.03698708168475" lon="8.323502046487995"><ele>251.99999999999997</ele><time>2026-04-18T11:11:48.002Z</time></trkpt><trkpt lat="45.03705608032725" lon="8.323435399760706"><ele>250.99999999999997</ele><time>2026-04-18T11:11:49.002Z</time></trkpt><trkpt lat="45.037125462094174" lon="8.32336442702999"><ele>251.00000000000003</ele><time>2026-04-18T11:11:50.002Z</time></trkpt><trkpt lat="45.03720410179492" lon="8.323296792341683"><ele>251.0</ele><time>2026-04-18T11:11:51.002Z</time></trkpt><trkpt lat="45.037279999953064" lon="8.323226879709091"><ele>251.0</ele><time>2026-04-18T11:11:52.002Z</time></trkpt><trkpt lat="45.037348697830446" lon="8.323151345866869"><ele>251.0</ele><time>2026-04-18T11:11:53.002Z</time></trkpt><trkpt lat="45.03741064400702" lon="8.323076345056508"><ele>251.00000000000003</ele><time>2026-04-18T11:11:54.002Z</time></trkpt><trkpt lat="45.03747181118303" lon="8.323000146182471"><ele>251.0</ele><time>2026-04-18T11:11:55.002Z</time></trkpt><trkpt lat="45.03752225686542" lon="8.32292648282505"><ele>251.66666666666669</ele><time>2026-04-18T11:11:56.002Z</time></trkpt><trkpt lat="45.03758531361317" lon="8.322841674315857"><ele>252.33333333333334</ele><time>2026-04-18T11:11:57.002Z</time></trkpt><trkpt lat="45.03764463651178" lon="8.322754824731103"><ele>253.0</ele><time>2026-04-18T11:11:58.002Z</time></trkpt><trkpt lat="45.03770782647706" lon="8.322677769137393"><ele>253.66666666666669</ele><time>2026-04-18T11:11:59.002Z</time></trkpt><trkpt lat="45.03776637821361" lon="8.322595170706544"><ele>254.33333333333334</ele><time>2026-04-18T11:12:00.002Z</time></trkpt><trkpt lat="45.037822820945465" lon="8.322504357888981"><ele>255.0</ele><time>2026-04-18T11:12:01.002Z</time></trkpt><trkpt lat="45.03786663364456" lon="8.322421796257748"><ele>255.0</ele><time>2026-04-18T11:12:02.002Z</time></trkpt><trkpt lat="45.037899646338715" lon="8.322340371165415"><ele>255.0</ele><time>2026-04-18T11:12:03.002Z</time></trkpt><trkpt lat="45.03792254679919" lon="8.322253723321737"><ele>255.0</ele><time>2026-04-18T11:12:04.002Z</time></trkpt><trkpt lat="45.037935578008934" lon="8.322159913871282"><ele>255.0</ele><time>2026-04-18T11:12:05.002Z</time></trkpt><trkpt lat="45.03794617801766" lon="8.322049092894739"><ele>255.0</ele><time>2026-04-18T11:12:06.002Z</time></trkpt><trkpt lat="45.03794823690776" lon="8.321928903450601"><ele>255.0</ele><time>2026-04-18T11:12:07.002Z</time></trkpt><trkpt lat="45.03795008442508" lon="8.321803976270152"><ele>254.33333333333334</ele><time>2026-04-18T11:12:08.002Z</time></trkpt><trkpt lat="45.03795670213055" lon="8.32166834039466"><ele>253.66666666666669</ele><time>2026-04-18T11:12:09.002Z</time></trkpt><trkpt lat="45.03796243324979" lon="8.321538426296069"><ele>253.0</ele><time>2026-04-18T11:12:10.002Z</time></trkpt><trkpt lat="45.03796301142846" lon="8.321433957749736"><ele>252.33333333333334</ele><time>2026-04-18T11:12:11.002Z</time></trkpt><trkpt lat="45.03797148075369" lon="8.321326577563994"><ele>251.66666666666669</ele><time>2026-04-18T11:12:12.002Z</time></trkpt><trkpt lat="45.03796305094775" lon="8.321222675508503"><ele>251.0</ele><time>2026-04-18T11:12:13.002Z</time></trkpt><trkpt lat="45.037998333417825" lon="8.321119090567224"><ele>252.60000000000002</ele><time>2026-04-18T11:12:14.003Z</time></trkpt><trkpt lat="45.03802895414752" lon="8.321014749693823"><ele>254.20000000000002</ele><time>2026-04-18T11:12:15.003Z</time></trkpt><trkpt lat="45.03808178393897" lon="8.320917089739346"><ele>255.79999999999998</ele><time>2026-04-18T11:12:16.003Z</time></trkpt><trkpt lat="45.0381426189366" lon="8.320813012912625"><ele>257.4</ele><time>2026-04-18T11:12:17.003Z</time></trkpt><trkpt lat="45.03820118846997" lon="8.320684031379464"><ele>259.0</ele><time>2026-04-18T11:12:18.003Z</time></trkpt><trkpt lat="45.03825926387412" lon="8.320531500440556"><ele>261.25</ele><time>2026-04-18T11:12:19.003Z</time></trkpt><trkpt lat="45.038307929471245" lon="8.320385759775732"><ele>263.5</ele><time>2026-04-18T11:12:20.003Z</time></trkpt><trkpt lat="45.038351587935416" lon="8.320226037575619"><ele>265.75</ele><time>2026-04-18T11:12:21.003Z</time></trkpt><trkpt lat="45.03840857845311" lon="8.320062003823118"><ele>268.0</ele><time>2026-04-18T11:12:22.003Z</time></trkpt><trkpt lat="45.0384576152728" lon="8.319915286978391"><ele>268.0</ele><time>2026-04-18T11:12:23.003Z</time></trkpt><trkpt lat="45.03848158463429" lon="8.319782113605283"><ele>268.0</ele><time>2026-04-18T11:12:24.003Z</time></trkpt><trkpt lat="45.03855316209728" lon="8.319594905459477"><ele>268.0</ele><time>2026-04-18T11:12:25.003Z</time></trkpt><trkpt lat="45.03859061298562" lon="8.319416248936724"><ele>268.0</ele><time>2026-04-18T11:12:26.003Z</time></trkpt><trkpt lat="45.03860940491378" lon="8.319232613504688"><ele>270.25</ele><time>2026-04-18T11:12:27.003Z</time></trkpt><trkpt lat="45.03859809709707" lon="8.319049162904463"><ele>272.5</ele><time>2026-04-18T11:12:28.003Z</time></trkpt><trkpt lat="45.038601720333546" lon="8.31889100682171"><ele>274.75</ele><time>2026-04-18T11:12:29.003Z</time></trkpt><trkpt lat="45.038619247362014" lon="8.3187200749956"><ele>277.0</ele><time>2026-04-18T11:12:30.003Z</time></trkpt><trkpt lat="45.03862576138645" lon="8.318590930348552"><ele>277.0</ele><time>2026-04-18T11:12:31.003Z</time></trkpt><trkpt lat="45.03863600814377" lon="8.318451470537523"><ele>277.0</ele><time>2026-04-18T11:12:32.003Z</time></trkpt><trkpt lat="45.03865443023274" lon="8.318344256775811"><ele>277.0</ele><time>2026-04-18T11:12:33.003Z</time></trkpt><trkpt lat="45.038666573488555" lon="8.318243881488504"><ele>277.0</ele><time>2026-04-18T11:12:34.003Z</time></trkpt><trkpt lat="45.038680575339974" lon="8.318142561095929"><ele>277.0</ele><time>2026-04-18T11:12:35.003Z</time></trkpt><trkpt lat="45.03868533018116" lon="8.318031250683381"><ele>277.0</ele><time>2026-04-18T11:12:36.003Z</time></trkpt><trkpt lat="45.03868868194544" lon="8.317910103537871"><ele>277.16666666666663</ele><time>2026-04-18T11:12:37.003Z</time></trkpt><trkpt lat="45.03870102103482" lon="8.31777609472884"><ele>277.3333333333333</ele><time>2026-04-18T11:12:38.003Z</time></trkpt><trkpt lat="45.038710936975896" lon="8.317652122759812"><ele>277.5</ele><time>2026-04-18T11:12:39.003Z</time></trkpt><trkpt lat="45.03871481803371" lon="8.317534439532817"><ele>277.6666666666667</ele><time>2026-04-18T11:12:40.003Z</time></trkpt><trkpt lat="45.03872261561656" lon="8.317422724023439"><ele>277.83333333333337</ele><time>2026-04-18T11:12:41Z</time></trkpt><trkpt lat="45.038734289914984" lon="8.317298476555283"><ele>278.0</ele><time>2026-04-18T11:12:42Z</time></trkpt><trkpt lat="45.03875448735353" lon="8.317171264400734"><ele>276.6</ele><time>2026-04-18T11:12:43Z</time></trkpt><trkpt lat="45.038783141459994" lon="8.317049934079932"><ele>275.20000000000005</ele><time>2026-04-18T11:12:44Z</time></trkpt><trkpt lat="45.03882902638915" lon="8.31693020807076"><ele>273.8</ele><time>2026-04-18T11:12:45Z</time></trkpt><trkpt lat="45.03887962461304" lon="8.316818807833545"><ele>272.40000000000003</ele><time>2026-04-18T11:12:46Z</time></trkpt><trkpt lat="45.038929703429886" lon="8.316710251810129"><ele>271.0</ele><time>2026-04-18T11:12:47Z</time></trkpt><trkpt lat="45.03897746160824" lon="8.316607515006881"><ele>271.0</ele><time>2026-04-18T11:12:48Z</time></trkpt><trkpt lat="45.03902359923496" lon="8.316517134079165"><ele>271.0</ele><time>2026-04-18T11:12:49Z</time></trkpt><trkpt lat="45.03906593776402" lon="8.316431654155148"><ele>271.0</ele><time>2026-04-18T11:12:50Z</time></trkpt><trkpt lat="45.039103895648275" lon="8.316339949998023"><ele>271.0</ele><time>2026-04-18T11:12:51Z</time></trkpt><trkpt lat="45.039144064264725" lon="8.316258749826394"><ele>271.0</ele><time>2026-04-18T11:12:52Z</time></trkpt><trkpt lat="45.03915511829697" lon="8.316122419982532"><ele>271.0</ele><time>2026-04-18T11:12:54Z</time></trkpt><trkpt lat="45.039119461174636" lon="8.31604636971229"><ele>269.16666666666663</ele><time>2026-04-18T11:12:55Z</time></trkpt><trkpt lat="45.039089653843675" lon="8.315966481170333"><ele>267.3333333333333</ele><time>2026-04-18T11:12:56Z</time></trkpt><trkpt lat="45.039058040213696" lon="8.315877368952338"><ele>265.5</ele><time>2026-04-18T11:12:57Z</time></trkpt><trkpt lat="45.03904053376653" lon="8.315769115680068"><ele>263.6666666666667</ele><time>2026-04-18T11:12:58Z</time></trkpt><trkpt lat="45.03902876183081" lon="8.315647111173769"><ele>261.83333333333337</ele><time>2026-04-18T11:12:59Z</time></trkpt><trkpt lat="45.03901828141578" lon="8.315496445931588"><ele>260.0</ele><time>2026-04-18T11:13:00Z</time></trkpt><trkpt lat="45.039003742210156" lon="8.31536716866533"><ele>260.0</ele><time>2026-04-18T11:13:01Z</time></trkpt><trkpt lat="45.038985628471536" lon="8.315221086940724"><ele>260.0</ele><time>2026-04-18T11:13:02Z</time></trkpt><trkpt lat="45.038965555359255" lon="8.315080596961009"><ele>260.0</ele><time>2026-04-18T11:13:03Z</time></trkpt><trkpt lat="45.038954205638305" lon="8.314936804782386"><ele>260.0</ele><time>2026-04-18T11:13:04Z</time></trkpt><trkpt lat="45.038936414940494" lon="8.314798541616465"><ele>260.0</ele><time>2026-04-18T11:13:05Z</time></trkpt><trkpt lat="45.03892339556711" lon="8.314670313404072"><ele>261.6666666666667</ele><time>2026-04-18T11:13:06Z</time></trkpt><trkpt lat="45.038926275166574" lon="8.314527594947089"><ele>263.33333333333337</ele><time>2026-04-18T11:13:07Z</time></trkpt><trkpt lat="45.03890715640017" lon="8.314404927350594"><ele>265.0</ele><time>2026-04-18T11:13:08Z</time></trkpt><trkpt lat="45.03889112437554" lon="8.314291530043441"><ele>266.6666666666667</ele><time>2026-04-18T11:13:09Z</time></trkpt><trkpt lat="45.03886547780713" lon="8.314203157066874"><ele>268.3333333333333</ele><time>2026-04-18T11:13:10.001Z</time></trkpt><trkpt lat="45.03883359790986" lon="8.314118046144609"><ele>270.0</ele><time>2026-04-18T11:13:11.001Z</time></trkpt><trkpt lat="45.03878661469943" lon="8.314053187909172"><ele>270.0</ele><time>2026-04-18T11:13:12.001Z</time></trkpt><trkpt lat="45.03873221403709" lon="8.313977565278009"><ele>270.0</ele><time>2026-04-18T11:13:13.001Z</time></trkpt><trkpt lat="45.03868711020313" lon="8.313909853117766"><ele>270.0</ele><time>2026-04-18T11:13:14.001Z</time></trkpt><trkpt lat="45.03861516898086" lon="8.313784575290834"><ele>270.0</ele><time>2026-04-18T11:13:16.001Z</time></trkpt><trkpt lat="45.03861042897475" lon="8.313686029301675"><ele>270.0</ele><time>2026-04-18T11:13:18.001Z</time></trkpt><trkpt lat="45.03862420707122" lon="8.313571252354613"><ele>270.0</ele><time>2026-04-18T11:13:20.001Z</time></trkpt><trkpt lat="45.038692995310754" lon="8.313446440402917"><ele>270.1666666666667</ele><time>2026-04-18T11:13:22.001Z</time></trkpt><trkpt lat="45.03874274115944" lon="8.313376320324533"><ele>270.3333333333333</ele><time>2026-04-18T11:13:24.001Z</time></trkpt><trkpt lat="45.03879877234354" lon="8.313329815057518"><ele>270.5</ele><time>2026-04-18T11:13:33.001Z</time></trkpt><trkpt lat="45.03887748773329" lon="8.313248461358986"><ele>270.66666666666663</ele><time>2026-04-18T11:13:49.002Z</time></trkpt><trkpt lat="45.03896522380501" lon="8.313158944177813"><ele>270.8333333333333</ele><time>2026-04-18T11:13:51.002Z</time></trkpt><trkpt lat="45.039027131476374" lon="8.31311384119225"><ele>271.0</ele><time>2026-04-18T11:13:52.002Z</time></trkpt><trkpt lat="45.03908536462067" lon="8.313072483401815"><ele>271.3333333333333</ele><time>2026-04-18T11:13:53.002Z</time></trkpt><trkpt lat="45.039148612724716" lon="8.313031443091013"><ele>271.66666666666663</ele><time>2026-04-18T11:13:54.002Z</time></trkpt><trkpt lat="45.039219082459006" lon="8.312988154950153"><ele>272.0</ele><time>2026-04-18T11:13:55.002Z</time></trkpt><trkpt lat="45.039297672984034" lon="8.312963966079554"><ele>272.3333333333333</ele><time>2026-04-18T11:13:56.002Z</time></trkpt><trkpt lat="45.039378089639406" lon="8.312939459363259"><ele>272.6666666666667</ele><time>2026-04-18T11:13:57.002Z</time></trkpt><trkpt lat="45.039452378328356" lon="8.312923496663542"><ele>273.0</ele><time>2026-04-18T11:13:58.002Z</time></trkpt><trkpt lat="45.03952127727302" lon="8.312911596539719"><ele>273.0</ele><time>2026-04-18T11:13:59.002Z</time></trkpt><trkpt lat="45.03958646569715" lon="8.312905862334963"><ele>273.0</ele><time>2026-04-18T11:14:00.002Z</time></trkpt><trkpt lat="45.03968857290054" lon="8.312892012964832"><ele>273.0</ele><time>2026-04-18T11:14:02.002Z</time></trkpt><trkpt lat="45.039771745619625" lon="8.312874711706593"><ele>273.0</ele><time>2026-04-18T11:14:04.002Z</time></trkpt><trkpt lat="45.039847990345116" lon="8.312863789547528"><ele>273.0</ele><time>2026-04-18T11:14:08.002Z</time></trkpt><trkpt lat="45.03991568675102" lon="8.31287500078868"><ele>273.0</ele><time>2026-04-18T11:14:25.003Z</time></trkpt><trkpt lat="45.039972341856696" lon="8.312938555390685"><ele>270.0</ele><time>2026-04-18T11:14:28.003Z</time></trkpt><trkpt lat="45.03999964339339" lon="8.312852511810162"><ele>270.0</ele><time>2026-04-18T11:14:31.003Z</time></trkpt></trkseg><trkseg><trkpt lat="45.03980017276192" lon="8.312825953497294"><ele>273.0</ele><time>2026-04-18T12:45:05Z</time></trkpt><trkpt lat="45.0398975840929" lon="8.31283923693033"><ele>273.0</ele><time>2026-04-18T12:45:11Z</time></trkpt><trkpt lat="45.04000458417414" lon="8.312822987714263"><ele>273.0</ele><time>2026-04-18T12:45:13Z</time></trkpt><trkpt lat="45.04007958375304" lon="8.312709407295847"><ele>273.0</ele><time>2026-04-18T12:45:15Z</time></trkpt><trkpt lat="45.0401350671476" lon="8.312636323818532"><ele>273.0</ele><time>2026-04-18T12:45:16Z</time></trkpt><trkpt lat="45.04020488593209" lon="8.312555227485708"><ele>272.5</ele><time>2026-04-18T12:45:17Z</time></trkpt><trkpt lat="45.04025869358108" lon="8.312476587335818"><ele>272.0</ele><time>2026-04-18T12:45:18Z</time></trkpt><trkpt lat="45.040305152957984" lon="8.312389405433409"><ele>271.5</ele><time>2026-04-18T12:45:19Z</time></trkpt><trkpt lat="45.04035557739184" lon="8.312294696456"><ele>271.0</ele><time>2026-04-18T12:45:20Z</time></trkpt><trkpt lat="45.04040845760704" lon="8.312191924060095"><ele>270.5</ele><time>2026-04-18T12:45:21Z</time></trkpt><trkpt lat="45.04046227941588" lon="8.31209352952207"><ele>270.0</ele><time>2026-04-18T12:45:22Z</time></trkpt><trkpt lat="45.04051075605804" lon="8.311993336499928"><ele>268.4</ele><time>2026-04-18T12:45:23Z</time></trkpt><trkpt lat="45.04056224824328" lon="8.311855361156676"><ele>266.8</ele><time>2026-04-18T12:45:24Z</time></trkpt><trkpt lat="45.04062855247889" lon="8.311734658066914"><ele>265.2</ele><time>2026-04-18T12:45:25Z</time></trkpt><trkpt lat="45.0406808760515" lon="8.311619550852408"><ele>263.6</ele><time>2026-04-18T12:45:26Z</time></trkpt><trkpt lat="45.04071559101233" lon="8.31149982240549"><ele>262.0</ele><time>2026-04-18T12:45:27Z</time></trkpt><trkpt lat="45.04077533543921" lon="8.311400478422849"><ele>263.3333333333333</ele><time>2026-04-18T12:45:28Z</time></trkpt><trkpt lat="45.04081307665154" lon="8.311288139344763"><ele>264.66666666666663</ele><time>2026-04-18T12:45:29Z</time></trkpt><trkpt lat="45.040847872336236" lon="8.311207089535634"><ele>266.0</ele><time>2026-04-18T12:45:30Z</time></trkpt><trkpt lat="45.04088522091686" lon="8.311057752313497"><ele>267.3333333333333</ele><time>2026-04-18T12:45:32Z</time></trkpt><trkpt lat="45.040894578602014" lon="8.310961902098416"><ele>268.6666666666667</ele><time>2026-04-18T12:45:34Z</time></trkpt><trkpt lat="45.04088454287042" lon="8.310810092745285"><ele>270.0</ele><time>2026-04-18T12:45:36Z</time></trkpt><trkpt lat="45.04089575383439" lon="8.310712526432086"><ele>270.0</ele><time>2026-04-18T12:45:37Z</time></trkpt><trkpt lat="45.04090123369682" lon="8.310603335766423"><ele>270.0</ele><time>2026-04-18T12:45:38Z</time></trkpt><trkpt lat="45.040893967266314" lon="8.310476709528215"><ele>270.0</ele><time>2026-04-18T12:45:39Z</time></trkpt><trkpt lat="45.04089001754338" lon="8.310353903451738"><ele>270.0</ele><time>2026-04-18T12:45:40Z</time></trkpt><trkpt lat="45.04089546003524" lon="8.310221437247803"><ele>270.0</ele><time>2026-04-18T12:45:41Z</time></trkpt><trkpt lat="45.04089318649971" lon="8.310077115524164"><ele>270.1666666666667</ele><time>2026-04-18T12:45:42Z</time></trkpt><trkpt lat="45.040891044274865" lon="8.309947761189147"><ele>270.3333333333333</ele><time>2026-04-18T12:45:43Z</time></trkpt><trkpt lat="45.04088512836089" lon="8.309831770908067"><ele>270.5</ele><time>2026-04-18T12:45:44Z</time></trkpt><trkpt lat="45.04088087611107" lon="8.309742258539009"><ele>270.66666666666663</ele><time>2026-04-18T12:45:45.001Z</time></trkpt><trkpt lat="45.04089110437191" lon="8.309647360490171"><ele>270.8333333333333</ele><time>2026-04-18T12:45:47.001Z</time></trkpt><trkpt lat="45.040879427494275" lon="8.309494114316369"><ele>271.0</ele><time>2026-04-18T12:45:51.001Z</time></trkpt><trkpt lat="45.040878723940445" lon="8.30939739870289"><ele>271.57142857142856</ele><time>2026-04-18T12:45:52.001Z</time></trkpt><trkpt lat="45.04087853996751" lon="8.30929033082712"><ele>272.14285714285717</ele><time>2026-04-18T12:45:53.001Z</time></trkpt><trkpt lat="45.040869722499636" lon="8.309181137858006"><ele>272.7142857142857</ele><time>2026-04-18T12:45:54.001Z</time></trkpt><trkpt lat="45.040876796293695" lon="8.309082939952582"><ele>273.2857142857143</ele><time>2026-04-18T12:45:55.001Z</time></trkpt><trkpt lat="45.0408720318843" lon="8.308977055924998"><ele>273.85714285714283</ele><time>2026-04-18T12:45:56.001Z</time></trkpt><trkpt lat="45.04086738917218" lon="8.308867856041205"><ele>274.42857142857144</ele><time>2026-04-18T12:45:57.001Z</time></trkpt><trkpt lat="45.04085202431698" lon="8.308770694255248"><ele>275.0</ele><time>2026-04-18T12:45:58.001Z</time></trkpt><trkpt lat="45.04084359018679" lon="8.30866851261199"><ele>275.6666666666667</ele><time>2026-04-18T12:45:59.001Z</time></trkpt><trkpt lat="45.04084103152777" lon="8.308570867247651"><ele>276.33333333333337</ele><time>2026-04-18T12:46:00.001Z</time></trkpt><trkpt lat="45.040837667550626" lon="8.308430981139844"><ele>277.0</ele><time>2026-04-18T12:46:02.001Z</time></trkpt><trkpt lat="45.04085039030431" lon="8.308331113364437"><ele>277.6666666666667</ele><time>2026-04-18T12:46:05.001Z</time></trkpt><trkpt lat="45.04071295930588" lon="8.3082773208935"><ele>278.3333333333333</ele><time>2026-04-18T12:46:07.001Z</time></trkpt><trkpt lat="45.04065160128414" lon="8.308244096625629"><ele>279.0</ele><time>2026-04-18T12:46:08.001Z</time></trkpt><trkpt lat="45.04057320038989" lon="8.308205328253797"><ele>277.85714285714283</ele><time>2026-04-18T12:46:09.001Z</time></trkpt><trkpt lat="45.0404970070362" lon="8.30816462551339"><ele>276.7142857142857</ele><time>2026-04-18T12:46:10.001Z</time></trkpt><trkpt lat="45.040429215475626" lon="8.308126342074017"><ele>275.57142857142856</ele><time>2026-04-18T12:46:11.001Z</time></trkpt><trkpt lat="45.04036651363362" lon="8.30809108373606"><ele>274.42857142857144</ele><time>2026-04-18T12:46:12.001Z</time></trkpt><trkpt lat="45.04030257290842" lon="8.308053958450559"><ele>273.2857142857143</ele><time>2026-04-18T12:46:13.001Z</time></trkpt><trkpt lat="45.04024427313898" lon="8.308015574870458"><ele>272.1428571428571</ele><time>2026-04-18T12:46:14.001Z</time></trkpt><trkpt lat="45.0401842175143" lon="8.307973764026922"><ele>271.0</ele><time>2026-04-18T12:46:15.001Z</time></trkpt><trkpt lat="45.04011854605169" lon="8.30792680707805"><ele>270.2857142857143</ele><time>2026-04-18T12:46:16.001Z</time></trkpt><trkpt lat="45.04005501053671" lon="8.307884857471484"><ele>269.57142857142856</ele><time>2026-04-18T12:46:17.001Z</time></trkpt><trkpt lat="45.03998389067898" lon="8.30783311213994"><ele>268.8571428571429</ele><time>2026-04-18T12:46:18.001Z</time></trkpt><trkpt lat="45.03991364632938" lon="8.307784991118554"><ele>268.1428571428571</ele><time>2026-04-18T12:46:19.001Z</time></trkpt><trkpt lat="45.03985085028834" lon="8.307739268314267"><ele>267.42857142857144</ele><time>2026-04-18T12:46:20.001Z</time></trkpt><trkpt lat="45.03978281957486" lon="8.307694372453732"><ele>266.7142857142857</ele><time>2026-04-18T12:46:21.001Z</time></trkpt><trkpt lat="45.03972142670793" lon="8.307655596368171"><ele>266.0</ele><time>2026-04-18T12:46:22.001Z</time></trkpt><trkpt lat="45.039660702849275" lon="8.307616570447097"><ele>265.2</ele><time>2026-04-18T12:46:23.001Z</time></trkpt><trkpt lat="45.039551565754294" lon="8.307556118284184"><ele>264.40000000000003</ele><time>2026-04-18T12:46:25.001Z</time></trkpt><trkpt lat="45.03948213535199" lon="8.307515694374349"><ele>263.6</ele><time>2026-04-18T12:46:26.997Z</time></trkpt><trkpt lat="45.039410982033445" lon="8.30749237566408"><ele>262.8</ele><time>2026-04-18T12:46:29.997Z</time></trkpt><trkpt lat="45.03929998827534" lon="8.307456483916335"><ele>262.0</ele><time>2026-04-18T12:46:31.997Z</time></trkpt><trkpt lat="45.03922202400888" lon="8.307432789929779"><ele>262.0</ele><time>2026-04-18T12:46:32.997Z</time></trkpt><trkpt lat="45.039140693810545" lon="8.307414214781922"><ele>262.0</ele><time>2026-04-18T12:46:33.997Z</time></trkpt><trkpt lat="45.03906476080332" lon="8.307399362837451"><ele>262.0</ele><time>2026-04-18T12:46:34.997Z</time></trkpt><trkpt lat="45.038983291291615" lon="8.307384372628729"><ele>262.0</ele><time>2026-04-18T12:46:35.997Z</time></trkpt><trkpt lat="45.03889645354606" lon="8.307369874033379"><ele>262.0</ele><time>2026-04-18T12:46:36.997Z</time></trkpt><trkpt lat="45.03880643343485" lon="8.307355587741712"><ele>262.0</ele><time>2026-04-18T12:46:37.998Z</time></trkpt><trkpt lat="45.03872371540997" lon="8.30734207312885"><ele>262.16666666666663</ele><time>2026-04-18T12:46:38.998Z</time></trkpt><trkpt lat="45.03862932438677" lon="8.307320101386834"><ele>262.3333333333333</ele><time>2026-04-18T12:46:39.998Z</time></trkpt><trkpt lat="45.038542100479184" lon="8.307285449821904"><ele>262.5</ele><time>2026-04-18T12:46:40.998Z</time></trkpt><trkpt lat="45.038469319675684" lon="8.307232677118556"><ele>262.6666666666667</ele><time>2026-04-18T12:46:41.998Z</time></trkpt><trkpt lat="45.03840276916946" lon="8.307149625458129"><ele>262.83333333333337</ele><time>2026-04-18T12:46:42.998Z</time></trkpt><trkpt lat="45.0383545730542" lon="8.307045833197026"><ele>263.0</ele><time>2026-04-18T12:46:43.998Z</time></trkpt><trkpt lat="45.03831269167348" lon="8.306933140050045"><ele>263.8</ele><time>2026-04-18T12:46:44.998Z</time></trkpt><trkpt lat="45.03827216365818" lon="8.306808305305598"><ele>264.6</ele><time>2026-04-18T12:46:45.998Z</time></trkpt><trkpt lat="45.03823065148227" lon="8.306687903394753"><ele>265.4</ele><time>2026-04-18T12:46:46.998Z</time></trkpt><trkpt lat="45.03818330216389" lon="8.306572019978654"><ele>266.2</ele><time>2026-04-18T12:46:47.998Z</time></trkpt><trkpt lat="45.038138881231845" lon="8.306456651987125"><ele>267.0</ele><time>2026-04-18T12:46:48.998Z</time></trkpt><trkpt lat="45.03808950867295" lon="8.306353071373998"><ele>268.0</ele><time>2026-04-18T12:46:49.998Z</time></trkpt><trkpt lat="45.03803027696116" lon="8.30626366243729"><ele>269.0</ele><time>2026-04-18T12:46:50.999Z</time></trkpt><trkpt lat="45.03796780272289" lon="8.306184947382253"><ele>270.0</ele><time>2026-04-18T12:46:51.999Z</time></trkpt><trkpt lat="45.03789911910981" lon="8.306125850426232"><ele>271.0</ele><time>2026-04-18T12:46:52.999Z</time></trkpt><trkpt lat="45.03783359478357" lon="8.306077084964127"><ele>272.0</ele><time>2026-04-18T12:46:53.999Z</time></trkpt><trkpt lat="45.037775171866336" lon="8.306032660801174"><ele>273.0</ele><time>2026-04-18T12:46:54.999Z</time></trkpt><trkpt lat="45.03768171567147" lon="8.305958537782645"><ele>273.0</ele><time>2026-04-18T12:46:56.999Z</time></trkpt><trkpt lat="45.037608187241176" lon="8.305881500280636"><ele>273.0</ele><time>2026-04-18T12:46:58.999Z</time></trkpt><trkpt lat="45.03754777611754" lon="8.305838366137685"><ele>273.0</ele><time>2026-04-18T12:47:01.999Z</time></trkpt><trkpt lat="45.03760259986968" lon="8.305904680002334"><ele>273.0</ele><time>2026-04-18T12:47:44Z</time></trkpt><trkpt lat="45.03771731184646" lon="8.305961244584049"><ele>273.0</ele><time>2026-04-18T12:47:46Z</time></trkpt><trkpt lat="45.03778335172967" lon="8.306061781782695"><ele>273.0</ele><time>2026-04-18T12:47:47Z</time></trkpt><trkpt lat="45.037843547813175" lon="8.306112503675458"><ele>273.0</ele><time>2026-04-18T12:47:48Z</time></trkpt><trkpt lat="45.037905775977656" lon="8.3061632033607"><ele>273.0</ele><time>2026-04-18T12:47:49.001Z</time></trkpt><trkpt lat="45.037971277565354" lon="8.3062224705013"><ele>273.0</ele><time>2026-04-18T12:47:50.001Z</time></trkpt><trkpt lat="45.03803249316395" lon="8.306290745926354"><ele>273.0</ele><time>2026-04-18T12:47:51.001Z</time></trkpt><trkpt lat="45.03807657154437" lon="8.30637212009536"><ele>273.0</ele><time>2026-04-18T12:47:52.001Z</time></trkpt><trkpt lat="45.03811418005583" lon="8.306460344601788"><ele>273.0</ele><time>2026-04-18T12:47:53.001Z</time></trkpt><trkpt lat="45.03816027482613" lon="8.306563490728282"><ele>272.14285714285717</ele><time>2026-04-18T12:47:54.001Z</time></trkpt><trkpt lat="45.0382025116457" lon="8.306669528423397"><ele>271.2857142857143</ele><time>2026-04-18T12:47:55.001Z</time></trkpt><trkpt lat="45.03824397710793" lon="8.306785910070833"><ele>270.42857142857144</ele><time>2026-04-18T12:47:56.001Z</time></trkpt><trkpt lat="45.0382693845975" lon="8.30687907857742"><ele>269.57142857142856</ele><time>2026-04-18T12:47:57.001Z</time></trkpt><trkpt lat="45.03829696265413" lon="8.306961016920843"><ele>268.7142857142857</ele><time>2026-04-18T12:47:58.001Z</time></trkpt><trkpt lat="45.03832756610354" lon="8.307044036315403"><ele>267.8571428571429</ele><time>2026-04-18T12:47:59.001Z</time></trkpt><trkpt lat="45.038362562473836" lon="8.307126569842337"><ele>267.0</ele><time>2026-04-18T12:48:00.001Z</time></trkpt><trkpt lat="45.03840831242833" lon="8.307207231708649"><ele>266.3333333333333</ele><time>2026-04-18T12:48:01.001Z</time></trkpt><trkpt lat="45.03846361898113" lon="8.307269050555666"><ele>265.6666666666667</ele><time>2026-04-18T12:48:02.001Z</time></trkpt><trkpt lat="45.03852922569168" lon="8.307314684803329"><ele>265.0</ele><time>2026-04-18T12:48:03.001Z</time></trkpt><trkpt lat="45.03860967325735" lon="8.307351393725341"><ele>264.33333333333337</ele><time>2026-04-18T12:48:04.001Z</time></trkpt><trkpt lat="45.038699001554164" lon="8.30736879000854"><ele>263.6666666666667</ele><time>2026-04-18T12:48:05.001Z</time></trkpt><trkpt lat="45.038792983094915" lon="8.307377189152653"><ele>263.0</ele><time>2026-04-18T12:48:06.001Z</time></trkpt><trkpt lat="45.03887518147955" lon="8.307409581913554"><ele>263.0</ele><time>2026-04-18T12:48:07.001Z</time></trkpt><trkpt lat="45.03894717719244" lon="8.307420929871197"><ele>263.0</ele><time>2026-04-18T12:48:08.001Z</time></trkpt><trkpt lat="45.03901791086964" lon="8.307416969363349"><ele>263.0</ele><time>2026-04-18T12:48:09.001Z</time></trkpt><trkpt lat="45.03909561885783" lon="8.307433286833074"><ele>263.0</ele><time>2026-04-18T12:48:10.001Z</time></trkpt><trkpt lat="45.03917218137686" lon="8.307453113439488"><ele>263.0</ele><time>2026-04-18T12:48:11.001Z</time></trkpt><trkpt lat="45.0392368552679" lon="8.307476498004247"><ele>263.0</ele><time>2026-04-18T12:48:12.001Z</time></trkpt><trkpt lat="45.03931183928468" lon="8.307507497140897"><ele>263.0</ele><time>2026-04-18T12:48:14.001Z</time></trkpt><trkpt lat="45.03921927377709" lon="8.307485704756356"><ele>263.0</ele><time>2026-04-18T12:48:23.001Z</time></trkpt><trkpt lat="45.03910943398092" lon="8.307451284958981"><ele>263.0</ele><time>2026-04-18T12:48:25.001Z</time></trkpt><trkpt lat="45.0390377954582" lon="8.307435477386624"><ele>263.0</ele><time>2026-04-18T12:48:26.001Z</time></trkpt><trkpt lat="45.03892088217105" lon="8.307416649790804"><ele>263.0</ele><time>2026-04-18T12:48:28.001Z</time></trkpt><trkpt lat="45.03880912770881" lon="8.30740014566901"><ele>263.0</ele><time>2026-04-18T12:48:30.001Z</time></trkpt><trkpt lat="45.03872755665609" lon="8.307383869094183"><ele>263.5</ele><time>2026-04-18T12:48:31.002Z</time></trkpt><trkpt lat="45.03867527384728" lon="8.307127928544755"><ele>264.0</ele><time>2026-04-18T12:48:32.002Z</time></trkpt><trkpt lat="45.03857857198842" lon="8.307097727737277"><ele>264.5</ele><time>2026-04-18T12:48:33.998Z</time></trkpt><trkpt lat="45.0385136048512" lon="8.307037338775658"><ele>265.0</ele><time>2026-04-18T12:48:35.998Z</time></trkpt><trkpt lat="45.03852097544559" lon="8.306736551721468"><ele>265.0</ele><time>2026-04-18T12:48:37.998Z</time></trkpt><trkpt lat="45.038532722876376" lon="8.306620995645584"><ele>265.0</ele><time>2026-04-18T12:48:38.998Z</time></trkpt><trkpt lat="45.03854546666657" lon="8.306509548428485"><ele>265.0</ele><time>2026-04-18T12:48:39.998Z</time></trkpt><trkpt lat="45.03855085094648" lon="8.306379611869147"><ele>265.0</ele><time>2026-04-18T12:48:40.998Z</time></trkpt><trkpt lat="45.03854437709222" lon="8.306247932528883"><ele>265.0</ele><time>2026-04-18T12:48:41.998Z</time></trkpt><trkpt lat="45.0385291263808" lon="8.306121794126987"><ele>265.0</ele><time>2026-04-18T12:48:42.998Z</time></trkpt><trkpt lat="45.038520604259" lon="8.306014154903327"><ele>264.0</ele><time>2026-04-18T12:48:43.998Z</time></trkpt><trkpt lat="45.03851182850148" lon="8.305919767179386"><ele>263.0</ele><time>2026-04-18T12:48:44.998Z</time></trkpt><trkpt lat="45.038508238435135" lon="8.305826668734003"><ele>262.0</ele><time>2026-04-18T12:48:45.998Z</time></trkpt><trkpt lat="45.03849650849161" lon="8.305689154069936"><ele>261.0</ele><time>2026-04-18T12:48:47.998Z</time></trkpt><trkpt lat="45.038423995127225" lon="8.305546353527165"><ele>260.0</ele><time>2026-04-18T12:48:49.999Z</time></trkpt><trkpt lat="45.03837811970329" lon="8.30546693628379"><ele>259.0</ele><time>2026-04-18T12:48:50.999Z</time></trkpt><trkpt lat="45.03833255393307" lon="8.305387886410248"><ele>259.3333333333333</ele><time>2026-04-18T12:48:51.999Z</time></trkpt><trkpt lat="45.03828406273501" lon="8.305298002367628"><ele>259.66666666666663</ele><time>2026-04-18T12:48:52.999Z</time></trkpt><trkpt lat="45.03823004093202" lon="8.305202453152496"><ele>260.0</ele><time>2026-04-18T12:48:53.999Z</time></trkpt><trkpt lat="45.03817921586402" lon="8.30510563173899"><ele>260.3333333333333</ele><time>2026-04-18T12:48:54.999Z</time></trkpt><trkpt lat="45.03811913083917" lon="8.305002866075984"><ele>260.6666666666667</ele><time>2026-04-18T12:48:55.999Z</time></trkpt><trkpt lat="45.03805472493167" lon="8.304910090458453"><ele>261.0</ele><time>2026-04-18T12:48:56.999Z</time></trkpt><trkpt lat="45.037975673732795" lon="8.30482479163085"><ele>257.6666666666667</ele><time>2026-04-18T12:48:57.999Z</time></trkpt><trkpt lat="45.03790706026087" lon="8.304744702886094"><ele>254.33333333333331</ele><time>2026-04-18T12:48:58.999Z</time></trkpt><trkpt lat="45.03783400348333" lon="8.304668350269418"><ele>251.0</ele><time>2026-04-18T12:48:59.999Z</time></trkpt><trkpt lat="45.03776621340787" lon="8.304593383853687"><ele>247.66666666666666</ele><time>2026-04-18T12:49:00.999Z</time></trkpt><trkpt lat="45.03770617696645" lon="8.30452449251018"><ele>244.33333333333331</ele><time>2026-04-18T12:49:01.999Z</time></trkpt><trkpt lat="45.037648864479" lon="8.304442803423825"><ele>241.0</ele><time>2026-04-18T12:49:02.999Z</time></trkpt><trkpt lat="45.037582489586306" lon="8.304355391348272"><ele>241.0</ele><time>2026-04-18T12:49:03.999Z</time></trkpt><trkpt lat="45.0375118725548" lon="8.304273319994579"><ele>241.00000000000003</ele><time>2026-04-18T12:49:04.999Z</time></trkpt><trkpt lat="45.037451262253995" lon="8.304200964632695"><ele>241.00000000000003</ele><time>2026-04-18T12:49:05.999Z</time></trkpt><trkpt lat="45.0373993530471" lon="8.304144921755887"><ele>241.0</ele><time>2026-04-18T12:49:07Z</time></trkpt><trkpt lat="45.0373002110046" lon="8.3040448637041"><ele>241.0</ele><time>2026-04-18T12:49:09Z</time></trkpt><trkpt lat="45.03719274964586" lon="8.3039434508996"><ele>239.16666666666666</ele><time>2026-04-18T12:49:11Z</time></trkpt><trkpt lat="45.03713579812407" lon="8.303883964588989"><ele>237.33333333333331</ele><time>2026-04-18T12:49:12Z</time></trkpt><trkpt lat="45.03707908038332" lon="8.303832053117443"><ele>235.5</ele><time>2026-04-18T12:49:13Z</time></trkpt><trkpt lat="45.036971872146246" lon="8.303745144015675"><ele>233.66666666666669</ele><time>2026-04-18T12:49:15Z</time></trkpt><trkpt lat="45.03691727897912" lon="8.303697811363012"><ele>231.83333333333334</ele><time>2026-04-18T12:49:16Z</time></trkpt><trkpt lat="45.03686245536148" lon="8.303649561051925"><ele>230.0</ele><time>2026-04-18T12:49:17Z</time></trkpt><trkpt lat="45.03675901986254" lon="8.303596855795252"><ele>230.00000000000003</ele><time>2026-04-18T12:49:19Z</time></trkpt><trkpt lat="45.03666482106201" lon="8.30358141639403"><ele>230.0</ele><time>2026-04-18T12:49:21Z</time></trkpt><trkpt lat="45.03657387917961" lon="8.303572687794466"><ele>230.0</ele><time>2026-04-18T12:49:23Z</time></trkpt><trkpt lat="45.03650878350583" lon="8.303555350831086"><ele>230.0</ele><time>2026-04-18T12:49:26Z</time></trkpt><trkpt lat="45.03643070925361" lon="8.303506133062214"><ele>230.00000000000003</ele><time>2026-04-18T12:49:30Z</time></trkpt><trkpt lat="45.036370435777286" lon="8.303467662090599"><ele>230.0</ele><time>2026-04-18T12:49:32.001Z</time></trkpt><trkpt lat="45.036316538036445" lon="8.303404684996734"><ele>229.4</ele><time>2026-04-18T12:49:34.001Z</time></trkpt><trkpt lat="45.03629290426659" lon="8.30329614561293"><ele>228.8</ele><time>2026-04-18T12:49:36.001Z</time></trkpt><trkpt lat="45.03628534551891" lon="8.303173783768187"><ele>228.2</ele><time>2026-04-18T12:49:38.001Z</time></trkpt><trkpt lat="45.03627488620414" lon="8.303025507206996"><ele>227.6</ele><time>2026-04-18T12:49:40.001Z</time></trkpt><trkpt lat="45.03626780050985" lon="8.302851494669968"><ele>227.0</ele><time>2026-04-18T12:49:42.001Z</time></trkpt><trkpt lat="45.036262249151235" lon="8.302678833183283"><ele>227.0</ele><time>2026-04-18T12:49:44.001Z</time></trkpt><trkpt lat="45.0362450322983" lon="8.302521998885904"><ele>227.0</ele><time>2026-04-18T12:49:46.001Z</time></trkpt><trkpt lat="45.03622903293314" lon="8.302345121515033"><ele>227.0</ele><time>2026-04-18T12:49:48.001Z</time></trkpt><trkpt lat="45.03621525301541" lon="8.302246596834985"><ele>227.0</ele><time>2026-04-18T12:49:49.001Z</time></trkpt><trkpt lat="45.03619110949003" lon="8.30215038931104"><ele>227.0</ele><time>2026-04-18T12:49:50.001Z</time></trkpt><trkpt lat="45.03616319998467" lon="8.302052090112483"><ele>226.16666666666669</ele><time>2026-04-18T12:49:51.001Z</time></trkpt><trkpt lat="45.03612514276669" lon="8.301948139214073"><ele>225.33333333333334</ele><time>2026-04-18T12:49:52.001Z</time></trkpt><trkpt lat="45.03608736271226" lon="8.301846863942929"><ele>224.5</ele><time>2026-04-18T12:49:53.001Z</time></trkpt><trkpt lat="45.036054117114375" lon="8.301760449815434"><ele>223.66666666666669</ele><time>2026-04-18T12:49:54.001Z</time></trkpt><trkpt lat="45.0360186890883" lon="8.301678492811162"><ele>222.83333333333334</ele><time>2026-04-18T12:49:55.001Z</time></trkpt><trkpt lat="45.0359785527719" lon="8.301590684078414"><ele>222.0</ele><time>2026-04-18T12:49:56.001Z</time></trkpt><trkpt lat="45.03593640166623" lon="8.301497784526608"><ele>222.0</ele><time>2026-04-18T12:49:57.001Z</time></trkpt><trkpt lat="45.03589217424084" lon="8.301421056862806"><ele>222.0</ele><time>2026-04-18T12:49:58.001Z</time></trkpt><trkpt lat="45.03586320421006" lon="8.30133868077224"><ele>222.0</ele><time>2026-04-18T12:49:59.001Z</time></trkpt><trkpt lat="45.035823073538644" lon="8.301244958851099"><ele>222.0</ele><time>2026-04-18T12:50:00.001Z</time></trkpt><trkpt lat="45.035783293732266" lon="8.301149201816346"><ele>222.0</ele><time>2026-04-18T12:50:01.001Z</time></trkpt><trkpt lat="45.03574981803567" lon="8.301071302633364"><ele>222.0</ele><time>2026-04-18T12:50:02.001Z</time></trkpt><trkpt lat="45.03569218928171" lon="8.300909495824662"><ele>222.83333333333334</ele><time>2026-04-18T12:50:04.002Z</time></trkpt><trkpt lat="45.03566154008446" lon="8.30082005461073"><ele>223.66666666666669</ele><time>2026-04-18T12:50:05.002Z</time></trkpt><trkpt lat="45.03563100164686" lon="8.300735545917055"><ele>224.5</ele><time>2026-04-18T12:50:06.002Z</time></trkpt><trkpt lat="45.03560727035238" lon="8.300641539120578"><ele>225.33333333333334</ele><time>2026-04-18T12:50:07.002Z</time></trkpt><trkpt lat="45.03558505971403" lon="8.300542909457166"><ele>226.16666666666669</ele><time>2026-04-18T12:50:08.002Z</time></trkpt><trkpt lat="45.03556574809889" lon="8.300457955448195"><ele>227.0</ele><time>2026-04-18T12:50:09.002Z</time></trkpt><trkpt lat="45.03552788938375" lon="8.300314717668615"><ele>227.00000000000003</ele><time>2026-04-18T12:50:11.002Z</time></trkpt><trkpt lat="45.0354864140121" lon="8.300188861276263"><ele>227.0</ele><time>2026-04-18T12:50:13.002Z</time></trkpt><trkpt lat="45.03544063268314" lon="8.300061935673472"><ele>227.0</ele><time>2026-04-18T12:50:15.002Z</time></trkpt><trkpt lat="45.03541557788997" lon="8.299976845415776"><ele>227.0</ele><time>2026-04-18T12:50:16.002Z</time></trkpt><trkpt lat="45.03535361371527" lon="8.299833603374807"><ele>227.00000000000003</ele><time>2026-04-18T12:50:18.002Z</time></trkpt><trkpt lat="45.035316023464866" lon="8.299757400101837"><ele>227.0</ele><time>2026-04-18T12:50:19.002Z</time></trkpt><trkpt lat="45.03527626400099" lon="8.2996728662829"><ele>225.66666666666669</ele><time>2026-04-18T12:50:20.002Z</time></trkpt><trkpt lat="45.03523658379537" lon="8.299573769987532"><ele>224.33333333333334</ele><time>2026-04-18T12:50:21.002Z</time></trkpt><trkpt lat="45.03520319113007" lon="8.299477193774056"><ele>223.0</ele><time>2026-04-18T12:50:22.002Z</time></trkpt><trkpt lat="45.035174618006394" lon="8.29938568637883"><ele>221.66666666666669</ele><time>2026-04-18T12:50:23.002Z</time></trkpt><trkpt lat="45.03514772472931" lon="8.299264908488603"><ele>220.33333333333334</ele><time>2026-04-18T12:50:24.002Z</time></trkpt><trkpt lat="45.0351271649395" lon="8.299147458492538"><ele>219.0</ele><time>2026-04-18T12:50:25.002Z</time></trkpt><trkpt lat="45.035115328284824" lon="8.2990134252047"><ele>218.0</ele><time>2026-04-18T12:50:26.002Z</time></trkpt><trkpt lat="45.0351115375317" lon="8.298888570640319"><ele>217.0</ele><time>2026-04-18T12:50:27.002Z</time></trkpt><trkpt lat="45.035108745227475" lon="8.298766086286687"><ele>216.0</ele><time>2026-04-18T12:50:28.002Z</time></trkpt><trkpt lat="45.03510138150361" lon="8.29865023798222"><ele>215.0</ele><time>2026-04-18T12:50:29.002Z</time></trkpt><trkpt lat="45.035089948167716" lon="8.298544879960328"><ele>214.0</ele><time>2026-04-18T12:50:30.002Z</time></trkpt><trkpt lat="45.03508876733861" lon="8.298453490705114"><ele>213.0</ele><time>2026-04-18T12:50:31.002Z</time></trkpt><trkpt lat="45.03509117161875" lon="8.298361322004999"><ele>213.0</ele><time>2026-04-18T12:50:32.002Z</time></trkpt><trkpt lat="45.03509238350258" lon="8.298257502247816"><ele>213.0</ele><time>2026-04-18T12:50:33.002Z</time></trkpt><trkpt lat="45.0350940079694" lon="8.298135470412232"><ele>213.0</ele><time>2026-04-18T12:50:34.002Z</time></trkpt><trkpt lat="45.03508528364912" lon="8.29802076944835"><ele>213.0</ele><time>2026-04-18T12:50:35.002Z</time></trkpt><trkpt lat="45.03507374936322" lon="8.297895018195065"><ele>213.0</ele><time>2026-04-18T12:50:36.002Z</time></trkpt><trkpt lat="45.03505796429753" lon="8.297772673781147"><ele>213.0</ele><time>2026-04-18T12:50:37.003Z</time></trkpt><trkpt lat="45.0350461635866" lon="8.297652624400556"><ele>212.83333333333334</ele><time>2026-04-18T12:50:38.003Z</time></trkpt><trkpt lat="45.035038553736385" lon="8.297536543137474"><ele>212.66666666666669</ele><time>2026-04-18T12:50:38.999Z</time></trkpt><trkpt lat="45.035032449302115" lon="8.297412099882157"><ele>212.5</ele><time>2026-04-18T12:50:39.999Z</time></trkpt><trkpt lat="45.035025169276004" lon="8.29730419907033"><ele>212.33333333333334</ele><time>2026-04-18T12:50:40.999Z</time></trkpt><trkpt lat="45.03502137031602" lon="8.297188607264184"><ele>212.16666666666669</ele><time>2026-04-18T12:50:41.999Z</time></trkpt><trkpt lat="45.03501526010109" lon="8.29707235657291"><ele>212.0</ele><time>2026-04-18T12:50:42.999Z</time></trkpt><trkpt lat="45.03500691073172" lon="8.29695477879156"><ele>212.00000000000003</ele><time>2026-04-18T12:50:43.999Z</time></trkpt><trkpt lat="45.03500367377798" lon="8.296844327248346"><ele>212.0</ele><time>2026-04-18T12:50:44.999Z</time></trkpt><trkpt lat="45.034997526651146" lon="8.296734625063749"><ele>212.0</ele><time>2026-04-18T12:50:45.999Z</time></trkpt><trkpt lat="45.03498879086376" lon="8.29662234205126"><ele>212.0</ele><time>2026-04-18T12:50:46.999Z</time></trkpt><trkpt lat="45.03498114322396" lon="8.296500025242517"><ele>212.00000000000003</ele><time>2026-04-18T12:50:47.999Z</time></trkpt><trkpt lat="45.03497577638489" lon="8.296384253202591"><ele>212.0</ele><time>2026-04-18T12:50:48.999Z</time></trkpt><trkpt lat="45.03496721843949" lon="8.296264620952249"><ele>211.83333333333334</ele><time>2026-04-18T12:50:49.999Z</time></trkpt><trkpt lat="45.03495657386899" lon="8.296143763634255"><ele>211.66666666666669</ele><time>2026-04-18T12:50:50.999Z</time></trkpt><trkpt lat="45.03494491921749" lon="8.296035931564445"><ele>211.5</ele><time>2026-04-18T12:50:51.999Z</time></trkpt><trkpt lat="45.034937795733995" lon="8.295921505446582"><ele>211.33333333333331</ele><time>2026-04-18T12:50:53Z</time></trkpt><trkpt lat="45.034932715534026" lon="8.295813080902832"><ele>211.16666666666666</ele><time>2026-04-18T12:50:54Z</time></trkpt><trkpt lat="45.034924828959696" lon="8.295702102232735"><ele>211.0</ele><time>2026-04-18T12:50:55Z</time></trkpt><trkpt lat="45.034915963437335" lon="8.29559431339454"><ele>211.83333333333331</ele><time>2026-04-18T12:50:56Z</time></trkpt><trkpt lat="45.03490628453064" lon="8.295492638409163"><ele>212.66666666666666</ele><time>2026-04-18T12:50:57Z</time></trkpt><trkpt lat="45.03489910829992" lon="8.295390178875419"><ele>213.5</ele><time>2026-04-18T12:50:59Z</time></trkpt><trkpt lat="45.034914263660596" lon="8.295299967184446"><ele>214.33333333333331</ele><time>2026-04-18T12:51:44.002Z</time></trkpt><trkpt lat="45.03490131576154" lon="8.295175703870779"><ele>215.16666666666666</ele><time>2026-04-18T12:51:56.002Z</time></trkpt><trkpt lat="45.03486695899817" lon="8.295041729027282"><ele>216.0</ele><time>2026-04-18T12:51:58.002Z</time></trkpt><trkpt lat="45.03486538408298" lon="8.294933886960182"><ele>216.0</ele><time>2026-04-18T12:52:00.002Z</time></trkpt><trkpt lat="45.03486863851748" lon="8.294835547378117"><ele>216.0</ele><time>2026-04-18T12:52:03.002Z</time></trkpt><trkpt lat="45.034863425478925" lon="8.294723126218079"><ele>216.0</ele><time>2026-04-18T12:52:05.002Z</time></trkpt><trkpt lat="45.0348606162757" lon="8.294580810999161"><ele>216.0</ele><time>2026-04-18T12:52:07.002Z</time></trkpt><trkpt lat="45.034857506322375" lon="8.294470879391714"><ele>216.0</ele><time>2026-04-18T12:52:09.002Z</time></trkpt><trkpt lat="45.03485179253331" lon="8.294380644227621"><ele>216.0</ele><time>2026-04-18T12:52:12.002Z</time></trkpt><trkpt lat="45.03484061934421" lon="8.294274009278217"><ele>217.20000000000002</ele><time>2026-04-18T12:52:25.003Z</time></trkpt><trkpt lat="45.034808524577166" lon="8.29411278925426"><ele>218.40000000000003</ele><time>2026-04-18T12:52:27.003Z</time></trkpt><trkpt lat="45.03476707667508" lon="8.293946123190066"><ele>219.6</ele><time>2026-04-18T12:52:29.003Z</time></trkpt><trkpt lat="45.034725279785604" lon="8.293857641314027"><ele>220.8</ele><time>2026-04-18T12:52:30.003Z</time></trkpt><trkpt lat="45.034671453022135" lon="8.293777732418132"><ele>222.0</ele><time>2026-04-18T12:52:31.003Z</time></trkpt><trkpt lat="45.03461872533186" lon="8.293708399784213"><ele>222.5</ele><time>2026-04-18T12:52:32.003Z</time></trkpt><trkpt lat="45.03456752435757" lon="8.29364798040532"><ele>223.0</ele><time>2026-04-18T12:52:33.003Z</time></trkpt><trkpt lat="45.03448634919238" lon="8.29348976623132"><ele>223.5</ele><time>2026-04-18T12:52:35.003Z</time></trkpt><trkpt lat="45.03446630432657" lon="8.293404124690383"><ele>224.0</ele><time>2026-04-18T12:52:36.003Z</time></trkpt><trkpt lat="45.03445629597978" lon="8.293298701305147"><ele>224.5</ele><time>2026-04-18T12:52:37.003Z</time></trkpt><trkpt lat="45.03445224992376" lon="8.29319316492122"><ele>225.0</ele><time>2026-04-18T12:52:38.003Z</time></trkpt><trkpt lat="45.034453880411405" lon="8.293086162552049"><ele>225.83333333333334</ele><time>2026-04-18T12:52:39.003Z</time></trkpt><trkpt lat="45.03445870247615" lon="8.292986193609998"><ele>226.66666666666669</ele><time>2026-04-18T12:52:40.003Z</time></trkpt><trkpt lat="45.03446641680274" lon="8.292892950607003"><ele>227.5</ele><time>2026-04-18T12:52:41.003Z</time></trkpt><trkpt lat="45.03447946862202" lon="8.292792117974336"><ele>228.33333333333334</ele><time>2026-04-18T12:52:42.003Z</time></trkpt><trkpt lat="45.03449674007212" lon="8.29268515937651"><ele>229.16666666666669</ele><time>2026-04-18T12:52:43.003Z</time></trkpt><trkpt lat="45.03452072985222" lon="8.292567782679688"><ele>230.0</ele><time>2026-04-18T12:52:44.003Z</time></trkpt><trkpt lat="45.0345410975324" lon="8.292445765837211"><ele>230.00000000000003</ele><time>2026-04-18T12:52:45Z</time></trkpt><trkpt lat="45.03456061629182" lon="8.292323159391831"><ele>230.0</ele><time>2026-04-18T12:52:46Z</time></trkpt><trkpt lat="45.034584717201284" lon="8.292199717282747"><ele>230.0</ele><time>2026-04-18T12:52:47Z</time></trkpt><trkpt lat="45.034607900592825" lon="8.292088650436956"><ele>230.0</ele><time>2026-04-18T12:52:48Z</time></trkpt><trkpt lat="45.03463345880686" lon="8.291958586158133"><ele>230.00000000000003</ele><time>2026-04-18T12:52:49Z</time></trkpt><trkpt lat="45.03466040066141" lon="8.291841176851278"><ele>230.0</ele><time>2026-04-18T12:52:50Z</time></trkpt><trkpt lat="45.03468302329723" lon="8.291725097054046"><ele>231.1428571428571</ele><time>2026-04-18T12:52:51Z</time></trkpt><trkpt lat="45.03470486959198" lon="8.291615081297513"><ele>232.28571428571428</ele><time>2026-04-18T12:52:52Z</time></trkpt><trkpt lat="45.0347229673109" lon="8.291513759170854"><ele>233.42857142857142</ele><time>2026-04-18T12:52:53Z</time></trkpt><trkpt lat="45.03474486377783" lon="8.291416984912326"><ele>234.57142857142856</ele><time>2026-04-18T12:52:54Z</time></trkpt><trkpt lat="45.03476903852887" lon="8.291323885324683"><ele>235.71428571428572</ele><time>2026-04-18T12:52:55Z</time></trkpt><trkpt lat="45.034809722721484" lon="8.291225799932793"><ele>236.85714285714286</ele><time>2026-04-18T12:52:56Z</time></trkpt><trkpt lat="45.034850461390256" lon="8.291150542887195"><ele>238.0</ele><time>2026-04-18T12:52:57Z</time></trkpt><trkpt lat="45.03490375446158" lon="8.291058007369669"><ele>238.85714285714286</ele><time>2026-04-18T12:52:58Z</time></trkpt><trkpt lat="45.03494839966348" lon="8.290980838167915"><ele>239.71428571428572</ele><time>2026-04-18T12:52:59Z</time></trkpt><trkpt lat="45.03499442962952" lon="8.290902442017812"><ele>240.57142857142856</ele><time>2026-04-18T12:53:00Z</time></trkpt><trkpt lat="45.035034304336016" lon="8.290820946648727"><ele>241.42857142857142</ele><time>2026-04-18T12:53:01Z</time></trkpt><trkpt lat="45.03507883692643" lon="8.290747218590585"><ele>242.28571428571428</ele><time>2026-04-18T12:53:03Z</time></trkpt><trkpt lat="45.03508769843534" lon="8.290655698782825"><ele>243.1428571428571</ele><time>2026-04-18T12:53:58.002Z</time></trkpt><trkpt lat="45.035126032160754" lon="8.29054943067436"><ele>243.99999999999997</ele><time>2026-04-18T12:54:01.002Z</time></trkpt><trkpt lat="45.03517405613582" lon="8.29041629942826"><ele>244.0</ele><time>2026-04-18T12:54:04.002Z</time></trkpt><trkpt lat="45.035107204810515" lon="8.290281186088503"><ele>243.99999999999997</ele><time>2026-04-18T12:54:05.002Z</time></trkpt><trkpt lat="45.035149661081896" lon="8.290145765943882"><ele>243.99999999999997</ele><time>2026-04-18T12:54:07.002Z</time></trkpt><trkpt lat="45.03518840225001" lon="8.290006270301324"><ele>244.0</ele><time>2026-04-18T12:54:09.002Z</time></trkpt><trkpt lat="45.035217763572035" lon="8.289885538936066"><ele>244.0</ele><time>2026-04-18T12:54:11.002Z</time></trkpt><trkpt lat="45.035257646774255" lon="8.289789141407942"><ele>242.33333333333331</ele><time>2026-04-18T12:54:13.002Z</time></trkpt><trkpt lat="45.0353266048118" lon="8.289698564626754"><ele>240.66666666666666</ele><time>2026-04-18T12:54:15.002Z</time></trkpt><trkpt lat="45.03543429612101" lon="8.289614094099344"><ele>239.0</ele><time>2026-04-18T12:54:17.002Z</time></trkpt><trkpt lat="45.03549488580573" lon="8.289576137963465"><ele>237.33333333333331</ele><time>2026-04-18T12:54:18.002Z</time></trkpt><trkpt lat="45.03555061938468" lon="8.289532370528223"><ele>235.66666666666666</ele><time>2026-04-18T12:54:19.002Z</time></trkpt><trkpt lat="45.03560928436126" lon="8.289495289881332"><ele>234.0</ele><time>2026-04-18T12:54:20.002Z</time></trkpt><trkpt lat="45.03567138042325" lon="8.289461196500076"><ele>234.0</ele><time>2026-04-18T12:54:21.002Z</time></trkpt><trkpt lat="45.03573152454742" lon="8.289428611276639"><ele>234.00000000000003</ele><time>2026-04-18T12:54:22.002Z</time></trkpt><trkpt lat="45.03579771166503" lon="8.289398324313003"><ele>234.0</ele><time>2026-04-18T12:54:23.002Z</time></trkpt><trkpt lat="45.03586996236418" lon="8.289370540311282"><ele>234.0</ele><time>2026-04-18T12:54:24.002Z</time></trkpt><trkpt lat="45.03594571367845" lon="8.289346418198384"><ele>234.00000000000003</ele><time>2026-04-18T12:54:25.002Z</time></trkpt><trkpt lat="45.03601255098282" lon="8.289333389630325"><ele>234.0</ele><time>2026-04-18T12:54:26.002Z</time></trkpt><trkpt lat="45.0360815544311" lon="8.289319953669716"><ele>234.0</ele><time>2026-04-18T12:54:27.002Z</time></trkpt><trkpt lat="45.03615768945592" lon="8.289313951139002"><ele>233.83333333333334</ele><time>2026-04-18T12:54:28.002Z</time></trkpt><trkpt lat="45.03624494536861" lon="8.289316802764201"><ele>233.66666666666669</ele><time>2026-04-18T12:54:29.003Z</time></trkpt><trkpt lat="45.036323549637444" lon="8.289334619500979"><ele>233.5</ele><time>2026-04-18T12:54:30.003Z</time></trkpt><trkpt lat="45.03639205666614" lon="8.28935725676193"><ele>233.33333333333334</ele><time>2026-04-18T12:54:31.003Z</time></trkpt><trkpt lat="45.036455085819064" lon="8.289382429168027"><ele>233.16666666666669</ele><time>2026-04-18T12:54:32.003Z</time></trkpt><trkpt lat="45.03652384890882" lon="8.289414551851532"><ele>233.0</ele><time>2026-04-18T12:54:33.003Z</time></trkpt><trkpt lat="45.03659797284431" lon="8.28944937524812"><ele>232.2</ele><time>2026-04-18T12:54:34.003Z</time></trkpt><trkpt lat="45.03667479197203" lon="8.28948590462295"><ele>231.4</ele><time>2026-04-18T12:54:35.003Z</time></trkpt><trkpt lat="45.03674269524735" lon="8.289517499431675"><ele>230.59999999999997</ele><time>2026-04-18T12:54:36.003Z</time></trkpt><trkpt lat="45.0368563505854" lon="8.289571793888419"><ele>229.79999999999998</ele><time>2026-04-18T12:54:38.003Z</time></trkpt><trkpt lat="45.03695009991402" lon="8.289599160083773"><ele>229.0</ele><time>2026-04-18T12:54:40.003Z</time></trkpt><trkpt lat="45.03703434708162" lon="8.28955555980187"><ele>228.99999999999997</ele><time>2026-04-18T12:54:42.003Z</time></trkpt><trkpt lat="45.037102812371955" lon="8.28947807069344"><ele>229.0</ele><time>2026-04-18T12:54:44.003Z</time></trkpt><trkpt lat="45.03715881577224" lon="8.28937414583221"><ele>229.0</ele><time>2026-04-18T12:54:47.003Z</time></trkpt><trkpt lat="45.037205600318664" lon="8.289298845495349"><ele>229.0</ele><time>2026-04-18T12:54:49.003Z</time></trkpt><trkpt lat="45.03725720165513" lon="8.289188607359453"><ele>228.99999999999997</ele><time>2026-04-18T12:54:51Z</time></trkpt><trkpt lat="45.037306844649486" lon="8.28906568018244"><ele>229.0</ele><time>2026-04-18T12:54:53Z</time></trkpt><trkpt lat="45.03737288849888" lon="8.288935244612256"><ele>227.99999999999997</ele><time>2026-04-18T12:54:55Z</time></trkpt><trkpt lat="45.03744392562803" lon="8.288809065280928"><ele>227.0</ele><time>2026-04-18T12:54:57Z</time></trkpt><trkpt lat="45.03748786003325" lon="8.288743129927546"><ele>226.0</ele><time>2026-04-18T12:54:58Z</time></trkpt><trkpt lat="45.03753485391582" lon="8.288680525242743"><ele>225.0</ele><time>2026-04-18T12:54:59Z</time></trkpt><trkpt lat="45.03757948475816" lon="8.288615185845888"><ele>223.99999999999997</ele><time>2026-04-18T12:55:00Z</time></trkpt><trkpt lat="45.037630609334116" lon="8.288518385449224"><ele>223.0</ele><time>2026-04-18T12:55:02Z</time></trkpt><trkpt lat="45.037661662584014" lon="8.288427001743255"><ele>222.28571428571428</ele><time>2026-04-18T12:55:05Z</time></trkpt><trkpt lat="45.03769775650488" lon="8.28834561770719"><ele>221.57142857142856</ele><time>2026-04-18T12:55:08Z</time></trkpt><trkpt lat="45.03773649754413" lon="8.288253458359511"><ele>220.85714285714286</ele><time>2026-04-18T12:55:21Z</time></trkpt><trkpt lat="45.03777286938886" lon="8.288170756468302"><ele>220.14285714285714</ele><time>2026-04-18T12:55:31.001Z</time></trkpt><trkpt lat="45.037830833012706" lon="8.288124036330865"><ele>219.42857142857144</ele><time>2026-04-18T12:55:51.001Z</time></trkpt><trkpt lat="45.03789473784222" lon="8.288053612232428"><ele>218.71428571428572</ele><time>2026-04-18T12:55:55.001Z</time></trkpt><trkpt lat="45.037927855809194" lon="8.287973512405424"><ele>218.0</ele><time>2026-04-18T12:56:01.002Z</time></trkpt><trkpt lat="45.03797467322789" lon="8.287873682409746"><ele>217.83333333333334</ele><time>2026-04-18T12:56:05.002Z</time></trkpt><trkpt lat="45.03799876760231" lon="8.287790519679318"><ele>217.66666666666669</ele><time>2026-04-18T12:56:12.002Z</time></trkpt><trkpt lat="45.038016207000794" lon="8.287698426954712"><ele>217.5</ele><time>2026-04-18T12:56:24.002Z</time></trkpt><trkpt lat="45.03801485095254" lon="8.287531363777617"><ele>217.33333333333331</ele><time>2026-04-18T12:56:26.002Z</time></trkpt><trkpt lat="45.0380019765488" lon="8.287438923784624"><ele>217.16666666666666</ele><time>2026-04-18T12:56:27.002Z</time></trkpt><trkpt lat="45.03797585030916" lon="8.287340570682924"><ele>217.0</ele><time>2026-04-18T12:56:28.002Z</time></trkpt><trkpt lat="45.03794410692787" lon="8.287239867546909"><ele>216.99999999999997</ele><time>2026-04-18T12:56:29.002Z</time></trkpt><trkpt lat="45.03791793821844" lon="8.287144560311384"><ele>217.0</ele><time>2026-04-18T12:56:30.002Z</time></trkpt><trkpt lat="45.037892876697136" lon="8.287035274439502"><ele>217.0</ele><time>2026-04-18T12:56:31.002Z</time></trkpt><trkpt lat="45.03787421637535" lon="8.286924145147372"><ele>217.0</ele><time>2026-04-18T12:56:32.002Z</time></trkpt><trkpt lat="45.03785204893995" lon="8.286812846274856"><ele>216.99999999999997</ele><time>2026-04-18T12:56:33.002Z</time></trkpt><trkpt lat="45.03782209845138" lon="8.286701391752173"><ele>217.0</ele><time>2026-04-18T12:56:34.002Z</time></trkpt><trkpt lat="45.03779451350163" lon="8.286583527479236"><ele>216.99999999999997</ele><time>2026-04-18T12:56:35.003Z</time></trkpt><trkpt lat="45.037763736628754" lon="8.286468981273456"><ele>217.0</ele><time>2026-04-18T12:56:36.003Z</time></trkpt><trkpt lat="45.037729427930216" lon="8.286357320306802"><ele>217.0</ele><time>2026-04-18T12:56:37.003Z</time></trkpt><trkpt lat="45.037692476095614" lon="8.286246722949912"><ele>217.0</ele><time>2026-04-18T12:56:38.003Z</time></trkpt><trkpt lat="45.03764733021264" lon="8.286140497041208"><ele>216.99999999999997</ele><time>2026-04-18T12:56:39.003Z</time></trkpt><trkpt lat="45.037594767487676" lon="8.286035476116663"><ele>217.0</ele><time>2026-04-18T12:56:40.003Z</time></trkpt><trkpt lat="45.03754667314991" lon="8.285942773019707"><ele>217.49999999999997</ele><time>2026-04-18T12:56:41.003Z</time></trkpt><trkpt lat="45.0375037485834" lon="8.285841524347369"><ele>218.0</ele><time>2026-04-18T12:56:42.003Z</time></trkpt><trkpt lat="45.037457795804706" lon="8.285732289498013"><ele>218.5</ele><time>2026-04-18T12:56:43.003Z</time></trkpt><trkpt lat="45.037417123584106" lon="8.285621723000377"><ele>219.0</ele><time>2026-04-18T12:56:44.003Z</time></trkpt><trkpt lat="45.03738065261281" lon="8.285508756105548"><ele>219.49999999999997</ele><time>2026-04-18T12:56:45.003Z</time></trkpt><trkpt lat="45.03734003649807" lon="8.285386838399715"><ele>220.0</ele><time>2026-04-18T12:56:46.003Z</time></trkpt><trkpt lat="45.03730059773554" lon="8.285279922198523"><ele>221.49999999999997</ele><time>2026-04-18T12:56:47.003Z</time></trkpt><trkpt lat="45.03725836553152" lon="8.285181940286076"><ele>223.0</ele><time>2026-04-18T12:56:48.003Z</time></trkpt><trkpt lat="45.037220400942104" lon="8.285099890404487"><ele>224.5</ele><time>2026-04-18T12:56:49.003Z</time></trkpt><trkpt lat="45.037184385447794" lon="8.285013561023298"><ele>226.0</ele><time>2026-04-18T12:56:50.003Z</time></trkpt><trkpt lat="45.03712508147342" lon="8.284918414308986"><ele>227.49999999999997</ele><time>2026-04-18T12:56:52.003Z</time></trkpt><trkpt lat="45.037036371547124" lon="8.28487613717068"><ele>229.0</ele><time>2026-04-18T12:56:54.003Z</time></trkpt><trkpt lat="45.03697448319614" lon="8.284859519114267"><ele>228.99999999999997</ele><time>2026-04-18T12:56:55.003Z</time></trkpt><trkpt lat="45.036857012655425" lon="8.28478014348421"><ele>229.0</ele><time>2026-04-18T12:56:57Z</time></trkpt><trkpt lat="45.03680429445223" lon="8.284725179757304"><ele>229.0</ele><time>2026-04-18T12:56:58Z</time></trkpt><trkpt lat="45.0367531716001" lon="8.284663188123647"><ele>229.0</ele><time>2026-04-18T12:56:59Z</time></trkpt><trkpt lat="45.036688134029596" lon="8.284527546360815"><ele>228.99999999999997</ele><time>2026-04-18T12:57:01Z</time></trkpt><trkpt lat="45.03668174199115" lon="8.284434374498531"><ele>229.0</ele><time>2026-04-18T12:57:02Z</time></trkpt><trkpt lat="45.036689974524315" lon="8.28432774221974"><ele>229.2</ele><time>2026-04-18T12:57:03Z</time></trkpt><trkpt lat="45.03670092171958" lon="8.284205024574161"><ele>229.39999999999998</ele><time>2026-04-18T12:57:04Z</time></trkpt><trkpt lat="45.0367107983803" lon="8.284066735721122"><ele>229.6</ele><time>2026-04-18T12:57:05Z</time></trkpt><trkpt lat="45.0367233163428" lon="8.28394684309633"><ele>229.8</ele><time>2026-04-18T12:57:06Z</time></trkpt><trkpt lat="45.03674470421877" lon="8.283823719254242"><ele>230.0</ele><time>2026-04-18T12:57:07Z</time></trkpt><trkpt lat="45.03677229336928" lon="8.283696466739805"><ele>229.6</ele><time>2026-04-18T12:57:08Z</time></trkpt><trkpt lat="45.03681256176838" lon="8.283568001238184"><ele>229.2</ele><time>2026-04-18T12:57:09Z</time></trkpt><trkpt lat="45.03685928206184" lon="8.283443110899771"><ele>228.8</ele><time>2026-04-18T12:57:10Z</time></trkpt><trkpt lat="45.03690791147607" lon="8.283311944534832"><ele>228.4</ele><time>2026-04-18T12:57:11Z</time></trkpt><trkpt lat="45.03696013148616" lon="8.283174441888093"><ele>228.0</ele><time>2026-04-18T12:57:12Z</time></trkpt><trkpt lat="45.03701220690394" lon="8.283031130879728"><ele>227.2</ele><time>2026-04-18T12:57:13Z</time></trkpt><trkpt lat="45.037062565460985" lon="8.28289760684288"><ele>226.4</ele><time>2026-04-18T12:57:14Z</time></trkpt><trkpt lat="45.03711305576883" lon="8.282766255016051"><ele>225.59999999999997</ele><time>2026-04-18T12:57:15Z</time></trkpt><trkpt lat="45.03716232396321" lon="8.282638042510301"><ele>224.79999999999998</ele><time>2026-04-18T12:57:16Z</time></trkpt><trkpt lat="45.037212860468614" lon="8.282504408423446"><ele>224.0</ele><time>2026-04-18T12:57:17Z</time></trkpt><trkpt lat="45.03726290498994" lon="8.282366907143963"><ele>223.0</ele><time>2026-04-18T12:57:18Z</time></trkpt><trkpt lat="45.03731108816804" lon="8.282229459096246"><ele>222.0</ele><time>2026-04-18T12:57:19Z</time></trkpt><trkpt lat="45.037359735831245" lon="8.282087139216825"><ele>221.0</ele><time>2026-04-18T12:57:20Z</time></trkpt><trkpt lat="45.0374033842812" lon="8.281940343131218"><ele>220.0</ele><time>2026-04-18T12:57:21Z</time></trkpt><trkpt lat="45.037448068069445" lon="8.281783248499835"><ele>222.0</ele><time>2026-04-18T12:57:22Z</time></trkpt><trkpt lat="45.037493424630924" lon="8.281626165548335"><ele>224.0</ele><time>2026-04-18T12:57:23Z</time></trkpt><trkpt lat="45.03754056446146" lon="8.281462936489115"><ele>226.0</ele><time>2026-04-18T12:57:24Z</time></trkpt><trkpt lat="45.03759132727933" lon="8.281300859522668"><ele>228.0</ele><time>2026-04-18T12:57:25Z</time></trkpt><trkpt lat="45.03763745748692" lon="8.281136534578692"><ele>228.0</ele><time>2026-04-18T12:57:26Z</time></trkpt><trkpt lat="45.037686275240425" lon="8.280961821966777"><ele>228.0</ele><time>2026-04-18T12:57:27Z</time></trkpt><trkpt lat="45.03773384232827" lon="8.280788888576517"><ele>228.0</ele><time>2026-04-18T12:57:28Z</time></trkpt><trkpt lat="45.03777751309817" lon="8.280636587277844"><ele>228.0</ele><time>2026-04-18T12:57:29.001Z</time></trkpt><trkpt lat="45.03781816068178" lon="8.280499720055149"><ele>227.60000000000002</ele><time>2026-04-18T12:57:30.001Z</time></trkpt><trkpt lat="45.03786112283093" lon="8.28035993304485"><ele>227.20000000000002</ele><time>2026-04-18T12:57:31.001Z</time></trkpt><trkpt lat="45.03790388852374" lon="8.280215619581874"><ele>226.8</ele><time>2026-04-18T12:57:32.001Z</time></trkpt><trkpt lat="45.03794771318118" lon="8.280063203439688"><ele>226.4</ele><time>2026-04-18T12:57:33.001Z</time></trkpt><trkpt lat="45.03798810660908" lon="8.279924800605725"><ele>226.0</ele><time>2026-04-18T12:57:34.001Z</time></trkpt><trkpt lat="45.03802511632703" lon="8.279796439506494"><ele>226.16666666666666</ele><time>2026-04-18T12:57:35.001Z</time></trkpt><trkpt lat="45.0380589442917" lon="8.279686829301644"><ele>226.33333333333331</ele><time>2026-04-18T12:57:36.001Z</time></trkpt><trkpt lat="45.03809643990066" lon="8.279584085207876"><ele>226.5</ele><time>2026-04-18T12:57:37.001Z</time></trkpt><trkpt lat="45.03813615559869" lon="8.279493806658555"><ele>226.66666666666669</ele><time>2026-04-18T12:57:38.001Z</time></trkpt><trkpt lat="45.03818819935363" lon="8.279406090611825"><ele>226.83333333333334</ele><time>2026-04-18T12:57:39.001Z</time></trkpt><trkpt lat="45.03825602933858" lon="8.279310301362216"><ele>227.0</ele><time>2026-04-18T12:57:40.001Z</time></trkpt><trkpt lat="45.038331808755935" lon="8.279220416301419"><ele>227.0</ele><time>2026-04-18T12:57:41.001Z</time></trkpt><trkpt lat="45.03841681342109" lon="8.279138032277965"><ele>227.0</ele><time>2026-04-18T12:57:42.001Z</time></trkpt><trkpt lat="45.03850895715542" lon="8.279061537492113"><ele>227.0</ele><time>2026-04-18T12:57:43.001Z</time></trkpt><trkpt lat="45.038607936731545" lon="8.278985253106729"><ele>227.0</ele><time>2026-04-18T12:57:44.001Z</time></trkpt><trkpt lat="45.03869661544207" lon="8.278909883259432"><ele>227.0</ele><time>2026-04-18T12:57:45.001Z</time></trkpt><trkpt lat="45.03878248169487" lon="8.278833910845385"><ele>226.33333333333334</ele><time>2026-04-18T12:57:46.001Z</time></trkpt><trkpt lat="45.03886767214214" lon="8.278756895723008"><ele>225.66666666666669</ele><time>2026-04-18T12:57:47.001Z</time></trkpt><trkpt lat="45.038939415964386" lon="8.278690637643543"><ele>225.0</ele><time>2026-04-18T12:57:48.001Z</time></trkpt><trkpt lat="45.03900649769579" lon="8.278621194463398"><ele>224.33333333333331</ele><time>2026-04-18T12:57:49.001Z</time></trkpt><trkpt lat="45.0390414047754" lon="8.27853008339202"><ele>223.66666666666666</ele><time>2026-04-18T12:57:50.001Z</time></trkpt><trkpt lat="45.0390697486339" lon="8.278436344783008"><ele>223.0</ele><time>2026-04-18T12:57:51.001Z</time></trkpt><trkpt lat="45.03907950565768" lon="8.278303331211916"><ele>223.0</ele><time>2026-04-18T12:57:52.001Z</time></trkpt><trkpt lat="45.03909230582399" lon="8.278167896517424"><ele>223.0</ele><time>2026-04-18T12:57:53.001Z</time></trkpt><trkpt lat="45.03911118722456" lon="8.278024543267625"><ele>223.0</ele><time>2026-04-18T12:57:54.001Z</time></trkpt><trkpt lat="45.03914264949648" lon="8.277900690116473"><ele>223.0</ele><time>2026-04-18T12:57:55.001Z</time></trkpt><trkpt lat="45.039182338745505" lon="8.277788110058113"><ele>223.0</ele><time>2026-04-18T12:57:56.001Z</time></trkpt><trkpt lat="45.03924067870103" lon="8.27768015467395"><ele>223.4</ele><time>2026-04-18T12:57:57.001Z</time></trkpt><trkpt lat="45.0393060307841" lon="8.277577755628776"><ele>223.8</ele><time>2026-04-18T12:57:58.001Z</time></trkpt><trkpt lat="45.03938628323843" lon="8.277480362920127"><ele>224.2</ele><time>2026-04-18T12:57:59.001Z</time></trkpt><trkpt lat="45.03947570581702" lon="8.277389753382161"><ele>224.6</ele><time>2026-04-18T12:58:00.001Z</time></trkpt><trkpt lat="45.03957368652183" lon="8.277319989762248"><ele>225.0</ele><time>2026-04-18T12:58:01.001Z</time></trkpt><trkpt lat="45.0396754462788" lon="8.277248444109269"><ele>225.6</ele><time>2026-04-18T12:58:02.001Z</time></trkpt><trkpt lat="45.039772893305035" lon="8.277167663862535"><ele>226.2</ele><time>2026-04-18T12:58:03.002Z</time></trkpt><trkpt lat="45.03986218653415" lon="8.277065606373926"><ele>226.8</ele><time>2026-04-18T12:58:04.002Z</time></trkpt><trkpt lat="45.03992342237973" lon="8.276935784546842"><ele>227.4</ele><time>2026-04-18T12:58:05.002Z</time></trkpt><trkpt lat="45.03996159296307" lon="8.276788872276802"><ele>228.0</ele><time>2026-04-18T12:58:06.002Z</time></trkpt><trkpt lat="45.03998976434185" lon="8.276633586630895"><ele>229.0</ele><time>2026-04-18T12:58:07.002Z</time></trkpt><trkpt lat="45.04001835827613" lon="8.276487501996119"><ele>230.0</ele><time>2026-04-18T12:58:08.002Z</time></trkpt><trkpt lat="45.040043742032985" lon="8.27634261210582"><ele>231.0</ele><time>2026-04-18T12:58:09.002Z</time></trkpt><trkpt lat="45.04005396501593" lon="8.276201278182794"><ele>232.0</ele><time>2026-04-18T12:58:10.002Z</time></trkpt><trkpt lat="45.040038269770804" lon="8.276060509411673"><ele>233.0</ele><time>2026-04-18T12:58:11.002Z</time></trkpt><trkpt lat="45.040012460442256" lon="8.275921886795865"><ele>234.60000000000002</ele><time>2026-04-18T12:58:12.002Z</time></trkpt><trkpt lat="45.03999522112188" lon="8.275788099779902"><ele>236.20000000000002</ele><time>2026-04-18T12:58:13.002Z</time></trkpt><trkpt lat="45.03999168290499" lon="8.27564034700376"><ele>237.8</ele><time>2026-04-18T12:58:14.002Z</time></trkpt><trkpt lat="45.03999781360293" lon="8.275488456710614"><ele>239.4</ele><time>2026-04-18T12:58:15.002Z</time></trkpt><trkpt lat="45.04000693418904" lon="8.275328540618162"><ele>241.0</ele><time>2026-04-18T12:58:16.002Z</time></trkpt><trkpt lat="45.04001696867643" lon="8.275157067565377"><ele>241.75</ele><time>2026-04-18T12:58:17.002Z</time></trkpt><trkpt lat="45.04002650174749" lon="8.274981067250273"><ele>242.5</ele><time>2026-04-18T12:58:18.002Z</time></trkpt><trkpt lat="45.040031380839345" lon="8.274794849766629"><ele>243.25</ele><time>2026-04-18T12:58:19.002Z</time></trkpt><trkpt lat="45.04002998671658" lon="8.274613169232438"><ele>244.0</ele><time>2026-04-18T12:58:20.002Z</time></trkpt><trkpt lat="45.04002117756123" lon="8.274428006871767"><ele>244.6</ele><time>2026-04-18T12:58:21.002Z</time></trkpt><trkpt lat="45.040006410007514" lon="8.274248961000852"><ele>245.2</ele><time>2026-04-18T12:58:22.002Z</time></trkpt><trkpt lat="45.03999015778811" lon="8.274082542353854"><ele>245.79999999999998</ele><time>2026-04-18T12:58:23.002Z</time></trkpt><trkpt lat="45.03997414031404" lon="8.273938663864293"><ele>246.39999999999998</ele><time>2026-04-18T12:58:24.002Z</time></trkpt><trkpt lat="45.03995637096833" lon="8.273815214050439"><ele>247.0</ele><time>2026-04-18T12:58:25.002Z</time></trkpt><trkpt lat="45.03994677429442" lon="8.273705792608775"><ele>247.8</ele><time>2026-04-18T12:58:26.002Z</time></trkpt><trkpt lat="45.03994423768357" lon="8.27359807656034"><ele>248.6</ele><time>2026-04-18T12:58:27.002Z</time></trkpt><trkpt lat="45.039957376191005" lon="8.273483876149784"><ele>249.40000000000003</ele><time>2026-04-18T12:58:28.002Z</time></trkpt><trkpt lat="45.03999842889347" lon="8.273377255131944"><ele>250.20000000000002</ele><time>2026-04-18T12:58:29.002Z</time></trkpt><trkpt lat="45.04006391976376" lon="8.273262684208499"><ele>251.0</ele><time>2026-04-18T12:58:30.002Z</time></trkpt><trkpt lat="45.04013618851151" lon="8.273143112009606"><ele>252.60000000000002</ele><time>2026-04-18T12:58:31.002Z</time></trkpt><trkpt lat="45.04020621043425" lon="8.273023973868096"><ele>254.20000000000002</ele><time>2026-04-18T12:58:32.002Z</time></trkpt><trkpt lat="45.04026942506188" lon="8.27289092371163"><ele>255.79999999999998</ele><time>2026-04-18T12:58:33.002Z</time></trkpt><trkpt lat="45.040329779171785" lon="8.272764991144788"><ele>257.4</ele><time>2026-04-18T12:58:34.002Z</time></trkpt><trkpt lat="45.04038311133281" lon="8.272643016916001"><ele>259.0</ele><time>2026-04-18T12:58:35.002Z</time></trkpt><trkpt lat="45.04042724478169" lon="8.27254562170419"><ele>259.0</ele><time>2026-04-18T12:58:36.002Z</time></trkpt><trkpt lat="45.0404795501511" lon="8.272403242690846"><ele>259.0</ele><time>2026-04-18T12:58:38.002Z</time></trkpt><trkpt lat="45.04053231480148" lon="8.272258940644262"><ele>259.0</ele><time>2026-04-18T12:58:40.003Z</time></trkpt><trkpt lat="45.04056697483157" lon="8.27217702376242"><ele>259.0</ele><time>2026-04-18T12:58:41.003Z</time></trkpt><trkpt lat="45.04061003459274" lon="8.272090736797946"><ele>259.0</ele><time>2026-04-18T12:58:42.003Z</time></trkpt><trkpt lat="45.040664475750994" lon="8.272011181162268"><ele>259.0</ele><time>2026-04-18T12:58:43.003Z</time></trkpt><trkpt lat="45.04073911368803" lon="8.271912839151087"><ele>258.0</ele><time>2026-04-18T12:58:44.003Z</time></trkpt><trkpt lat="45.04081019204128" lon="8.271823378855725"><ele>257.0</ele><time>2026-04-18T12:58:45.003Z</time></trkpt><trkpt lat="45.04087941815754" lon="8.271731810134924"><ele>255.99999999999997</ele><time>2026-04-18T12:58:46.003Z</time></trkpt><trkpt lat="45.04094505532737" lon="8.271657830400462"><ele>255.0</ele><time>2026-04-18T12:58:47.003Z</time></trkpt><trkpt lat="45.0410214336913" lon="8.27159711874939"><ele>254.0</ele><time>2026-04-18T12:58:48.003Z</time></trkpt><trkpt lat="45.04110794941418" lon="8.271551086420997"><ele>254.0</ele><time>2026-04-18T12:58:49.003Z</time></trkpt><trkpt lat="45.04120723324175" lon="8.271517490792593"><ele>253.99999999999997</ele><time>2026-04-18T12:58:50.003Z</time></trkpt><trkpt lat="45.04131452044635" lon="8.271489760871745"><ele>253.99999999999997</ele><time>2026-04-18T12:58:51.003Z</time></trkpt><trkpt lat="45.04143176720546" lon="8.271470156174969"><ele>254.0</ele><time>2026-04-18T12:58:52.003Z</time></trkpt><trkpt lat="45.041551207569206" lon="8.271451342053476"><ele>254.0</ele><time>2026-04-18T12:58:53.003Z</time></trkpt><trkpt lat="45.04167056391712" lon="8.271440405476806"><ele>250.0</ele><time>2026-04-18T12:58:54.003Z</time></trkpt><trkpt lat="45.04179365053177" lon="8.271432264946727"><ele>246.0</ele><time>2026-04-18T12:58:55.003Z</time></trkpt><trkpt lat="45.041920781481046" lon="8.271423685854932"><ele>242.0</ele><time>2026-04-18T12:58:56.003Z</time></trkpt><trkpt lat="45.04204956766288" lon="8.271418232517373"><ele>238.0</ele><time>2026-04-18T12:58:57.003Z</time></trkpt><trkpt lat="45.04218124875875" lon="8.271403508465093"><ele>238.0</ele><time>2026-04-18T12:58:58.003Z</time></trkpt><trkpt lat="45.04230752501765" lon="8.27139541000718"><ele>238.0</ele><time>2026-04-18T12:58:59.003Z</time></trkpt><trkpt lat="45.04242625061267" lon="8.27139557583903"><ele>238.0</ele><time>2026-04-18T12:59:00.003Z</time></trkpt><trkpt lat="45.042539950202894" lon="8.271397070485627"><ele>238.0</ele><time>2026-04-18T12:59:01.003Z</time></trkpt><trkpt lat="45.04265704088294" lon="8.271400952967758"><ele>240.8</ele><time>2026-04-18T12:59:02.003Z</time></trkpt><trkpt lat="45.04276759549082" lon="8.271453183872334"><ele>243.60000000000002</ele><time>2026-04-18T12:59:03Z</time></trkpt><trkpt lat="45.042875782279545" lon="8.271466832760765"><ele>246.39999999999998</ele><time>2026-04-18T12:59:04Z</time></trkpt><trkpt lat="45.04297473125046" lon="8.271491017638784"><ele>249.2</ele><time>2026-04-18T12:59:05Z</time></trkpt><trkpt lat="45.043081513375775" lon="8.27148767480694"><ele>252.0</ele><time>2026-04-18T12:59:06Z</time></trkpt><trkpt lat="45.043195827719146" lon="8.271449870994646"><ele>250.75</ele><time>2026-04-18T12:59:07Z</time></trkpt><trkpt lat="45.04329733639648" lon="8.271371546359465"><ele>249.5</ele><time>2026-04-18T12:59:08Z</time></trkpt><trkpt lat="45.04337925133015" lon="8.271262454439979"><ele>248.25</ele><time>2026-04-18T12:59:09Z</time></trkpt><trkpt lat="45.04345512728605" lon="8.271136667709564"><ele>247.0</ele><time>2026-04-18T12:59:10Z</time></trkpt><trkpt lat="45.04352591977767" lon="8.27099443738245"><ele>247.0</ele><time>2026-04-18T12:59:11Z</time></trkpt><trkpt lat="45.04358964953118" lon="8.270848742344"><ele>247.0</ele><time>2026-04-18T12:59:12Z</time></trkpt><trkpt lat="45.04363509776493" lon="8.270709609403394"><ele>247.0</ele><time>2026-04-18T12:59:13Z</time></trkpt><trkpt lat="45.04366874800189" lon="8.270578786507981"><ele>247.0</ele><time>2026-04-18T12:59:14Z</time></trkpt><trkpt lat="45.04368453333553" lon="8.270465517463094"><ele>247.0</ele><time>2026-04-18T12:59:15Z</time></trkpt><trkpt lat="45.04372128907957" lon="8.270317809983073"><ele>247.83333333333331</ele><time>2026-04-18T12:59:17Z</time></trkpt><trkpt lat="45.04375953897571" lon="8.270210672799871"><ele>248.66666666666666</ele><time>2026-04-18T12:59:37Z</time></trkpt><trkpt lat="45.04386856063955" lon="8.27020207710007"><ele>249.5</ele><time>2026-04-18T12:59:38.001Z</time></trkpt><trkpt lat="45.043951532970674" lon="8.27017309005402"><ele>250.33333333333331</ele><time>2026-04-18T12:59:39.001Z</time></trkpt><trkpt lat="45.044024916915426" lon="8.270148323150996"><ele>251.16666666666666</ele><time>2026-04-18T12:59:40.001Z</time></trkpt><trkpt lat="45.04409009973076" lon="8.27012136091272"><ele>252.0</ele><time>2026-04-18T12:59:41.001Z</time></trkpt><trkpt lat="45.044159850781014" lon="8.270087548613363"><ele>252.0</ele><time>2026-04-18T12:59:42.001Z</time></trkpt><trkpt lat="45.04424231493619" lon="8.270039229458664"><ele>252.0</ele><time>2026-04-18T12:59:43.001Z</time></trkpt><trkpt lat="45.044340743405286" lon="8.269975827362561"><ele>252.0</ele><time>2026-04-18T12:59:44.001Z</time></trkpt><trkpt lat="45.04445037902029" lon="8.269898084662833"><ele>252.0</ele><time>2026-04-18T12:59:45.001Z</time></trkpt><trkpt lat="45.044543100365615" lon="8.269825988907973"><ele>252.0</ele><time>2026-04-18T12:59:46.001Z</time></trkpt><trkpt lat="45.044635305604984" lon="8.269738313774711"><ele>251.25</ele><time>2026-04-18T12:59:47.001Z</time></trkpt><trkpt lat="45.044724978327444" lon="8.269643847138125"><ele>250.5</ele><time>2026-04-18T12:59:48.001Z</time></trkpt><trkpt lat="45.04482449451094" lon="8.269543604674658"><ele>249.75</ele><time>2026-04-18T12:59:49.001Z</time></trkpt><trkpt lat="45.0449189076951" lon="8.269454286082498"><ele>249.0</ele><time>2026-04-18T12:59:50.001Z</time></trkpt><trkpt lat="45.04501918839446" lon="8.269358477911897"><ele>251.25</ele><time>2026-04-18T12:59:51.001Z</time></trkpt><trkpt lat="45.04511627633552" lon="8.269260608026968"><ele>253.5</ele><time>2026-04-18T12:59:52.001Z</time></trkpt><trkpt lat="45.045215986194044" lon="8.269162762686133"><ele>255.75</ele><time>2026-04-18T12:59:53.001Z</time></trkpt><trkpt lat="45.045311946145354" lon="8.269059507921538"><ele>258.0</ele><time>2026-04-18T12:59:54.001Z</time></trkpt><trkpt lat="45.04540653525332" lon="8.268957388209525"><ele>257.0</ele><time>2026-04-18T12:59:55.001Z</time></trkpt><trkpt lat="45.04549968592068" lon="8.268856837958564"><ele>256.0</ele><time>2026-04-18T12:59:56.001Z</time></trkpt><trkpt lat="45.04559253153948" lon="8.268761475044979"><ele>255.0</ele><time>2026-04-18T12:59:57.001Z</time></trkpt><trkpt lat="45.04568397006511" lon="8.268671411865462"><ele>254.0</ele><time>2026-04-18T12:59:58.001Z</time></trkpt><trkpt lat="45.045775698670596" lon="8.26858334220934"><ele>256.0</ele><time>2026-04-18T12:59:59.001Z</time></trkpt><trkpt lat="45.04586540836416" lon="8.268494753535936"><ele>258.0</ele><time>2026-04-18T13:00:00.001Z</time></trkpt><trkpt lat="45.04595409485495" lon="8.268408341410785"><ele>260.0</ele><time>2026-04-18T13:00:01.001Z</time></trkpt><trkpt lat="45.04604189385878" lon="8.2683214899505"><ele>262.0</ele><time>2026-04-18T13:00:02.001Z</time></trkpt><trkpt lat="45.046128237859065" lon="8.268234784733297"><ele>264.0</ele><time>2026-04-18T13:00:03.001Z</time></trkpt><trkpt lat="45.04621287489461" lon="8.268152807922837"><ele>263.0</ele><time>2026-04-18T13:00:04.001Z</time></trkpt><trkpt lat="45.046297559791206" lon="8.268078469217357"><ele>262.0</ele><time>2026-04-18T13:00:05.001Z</time></trkpt><trkpt lat="45.0463789990488" lon="8.268000723639682"><ele>261.0</ele><time>2026-04-18T13:00:06.001Z</time></trkpt><trkpt lat="45.046457902441176" lon="8.267916858117976"><ele>260.0</ele><time>2026-04-18T13:00:07.001Z</time></trkpt><trkpt lat="45.04654070711279" lon="8.267828080924229"><ele>259.0</ele><time>2026-04-18T13:00:08.001Z</time></trkpt><trkpt lat="45.046628945701514" lon="8.267728991743123"><ele>261.5</ele><time>2026-04-18T13:00:09.001Z</time></trkpt><trkpt lat="45.04671405329684" lon="8.26762874572267"><ele>264.0</ele><time>2026-04-18T13:00:10.001Z</time></trkpt><trkpt lat="45.04683314796788" lon="8.267511676569319"><ele>266.5</ele><time>2026-04-18T13:00:11.001Z</time></trkpt><trkpt lat="45.046948016790026" lon="8.267409640229776"><ele>269.0</ele><time>2026-04-18T13:00:12.002Z</time></trkpt><trkpt lat="45.04704389049937" lon="8.2673164232683"><ele>268.1666666666667</ele><time>2026-04-18T13:00:13.002Z</time></trkpt><trkpt lat="45.04712732441024" lon="8.26723944388198"><ele>267.33333333333337</ele><time>2026-04-18T13:00:14.002Z</time></trkpt><trkpt lat="45.047210963973136" lon="8.26717823326134"><ele>266.5</ele><time>2026-04-18T13:00:15.002Z</time></trkpt><trkpt lat="45.04729256335724" lon="8.267145258986007"><ele>265.6666666666667</ele><time>2026-04-18T13:00:16.002Z</time></trkpt><trkpt lat="45.04737991752033" lon="8.267125556912411"><ele>264.8333333333333</ele><time>2026-04-18T13:00:17.002Z</time></trkpt><trkpt lat="45.04742780970709" lon="8.267059495718497"><ele>264.0</ele><time>2026-04-18T13:00:18.002Z</time></trkpt><trkpt lat="45.047565981255815" lon="8.267147433257103"><ele>267.5</ele><time>2026-04-18T13:00:19.002Z</time></trkpt><trkpt lat="45.047662739936975" lon="8.267200437019467"><ele>271.0</ele><time>2026-04-18T13:00:20.002Z</time></trkpt><trkpt lat="45.047770378440475" lon="8.267247709177774"><ele>274.5</ele><time>2026-04-18T13:00:21.002Z</time></trkpt><trkpt lat="45.04788727336423" lon="8.267313083993491"><ele>278.0</ele><time>2026-04-18T13:00:22.002Z</time></trkpt><trkpt lat="45.04799033798774" lon="8.267369648660026"><ele>280.25</ele><time>2026-04-18T13:00:23.002Z</time></trkpt><trkpt lat="45.048094877927575" lon="8.267430900514906"><ele>282.5</ele><time>2026-04-18T13:00:24.002Z</time></trkpt><trkpt lat="45.048199658212006" lon="8.267492143709442"><ele>284.75</ele><time>2026-04-18T13:00:25.002Z</time></trkpt><trkpt lat="45.04830426032699" lon="8.26755307297861"><ele>287.0</ele><time>2026-04-18T13:00:26.002Z</time></trkpt><trkpt lat="45.048409123973464" lon="8.267614082963238"><ele>292.6666666666667</ele><time>2026-04-18T13:00:27.002Z</time></trkpt><trkpt lat="45.04850871804876" lon="8.267671890097008"><ele>298.3333333333333</ele><time>2026-04-18T13:00:28.002Z</time></trkpt><trkpt lat="45.048625169952814" lon="8.26773948173861"><ele>304.0</ele><time>2026-04-18T13:00:29.002Z</time></trkpt><trkpt lat="45.04897038981764" lon="8.267967542159463"><ele>298.66666666666663</ele><time>2026-04-18T13:00:30.002Z</time></trkpt><trkpt lat="45.049239009192" lon="8.268107905429442"><ele>293.3333333333333</ele><time>2026-04-18T13:00:31.002Z</time></trkpt><trkpt lat="45.049375424194785" lon="8.268123796738239"><ele>288.0</ele><time>2026-04-18T13:00:32.002Z</time></trkpt><trkpt lat="45.04952532015922" lon="8.268108088674039"><ele>288.0</ele><time>2026-04-18T13:00:33.002Z</time></trkpt><trkpt lat="45.049682306055246" lon="8.268081368233572"><ele>288.0</ele><time>2026-04-18T13:00:34.002Z</time></trkpt><trkpt lat="45.04981643343481" lon="8.268045989520564"><ele>288.0</ele><time>2026-04-18T13:00:35.002Z</time></trkpt><trkpt lat="45.04995873635191" lon="8.26801942771066"><ele>288.0</ele><time>2026-04-18T13:00:36.002Z</time></trkpt><trkpt lat="45.050096890609495" lon="8.268002281710961"><ele>286.0</ele><time>2026-04-18T13:00:37.002Z</time></trkpt><trkpt lat="45.05023124781181" lon="8.268002173225831"><ele>284.0</ele><time>2026-04-18T13:00:38.002Z</time></trkpt><trkpt lat="45.050368271478675" lon="8.268033408465431"><ele>282.0</ele><time>2026-04-18T13:00:39.002Z</time></trkpt><trkpt lat="45.050487788790704" lon="8.268123446361319"><ele>280.0</ele><time>2026-04-18T13:00:40.002Z</time></trkpt><trkpt lat="45.05060684337921" lon="8.268212088552419"><ele>277.0</ele><time>2026-04-18T13:00:41.002Z</time></trkpt><trkpt lat="45.0507070541392" lon="8.268318268715793"><ele>274.0</ele><time>2026-04-18T13:00:42.002Z</time></trkpt><trkpt lat="45.05080715827902" lon="8.268446471850496"><ele>271.0</ele><time>2026-04-18T13:00:43.002Z</time></trkpt><trkpt lat="45.05090521917497" lon="8.26857846860552"><ele>268.0</ele><time>2026-04-18T13:00:44.002Z</time></trkpt><trkpt lat="45.05100257919789" lon="8.268702048379843"><ele>268.0</ele><time>2026-04-18T13:00:45.002Z</time></trkpt><trkpt lat="45.05111151351207" lon="8.26883089806368"><ele>268.0</ele><time>2026-04-18T13:00:46.003Z</time></trkpt><trkpt lat="45.05120801922283" lon="8.268956388391427"><ele>268.0</ele><time>2026-04-18T13:00:47.003Z</time></trkpt><trkpt lat="45.05129164417932" lon="8.26909100357911"><ele>268.0</ele><time>2026-04-18T13:00:48.003Z</time></trkpt><trkpt lat="45.05135485081554" lon="8.269226544355691"><ele>265.6</ele><time>2026-04-18T13:00:49.003Z</time></trkpt><trkpt lat="45.051402347342844" lon="8.269349119799536"><ele>263.20000000000005</ele><time>2026-04-18T13:00:50.003Z</time></trkpt><trkpt lat="45.051436062207436" lon="8.269455103184827"><ele>260.8</ele><time>2026-04-18T13:00:51.003Z</time></trkpt><trkpt lat="45.05146552003966" lon="8.269549543750491"><ele>258.40000000000003</ele><time>2026-04-18T13:00:52.003Z</time></trkpt><trkpt lat="45.051517346920015" lon="8.269679320999964"><ele>256.0</ele><time>2026-04-18T13:00:54.003Z</time></trkpt><trkpt lat="45.05161146083914" lon="8.269605125055662"><ele>257.2</ele><time>2026-04-18T13:00:57.003Z</time></trkpt><trkpt lat="45.05163023091141" lon="8.269471700481098"><ele>258.40000000000003</ele><time>2026-04-18T13:00:59.003Z</time></trkpt><trkpt lat="45.05165628521968" lon="8.26937961986009"><ele>259.6</ele><time>2026-04-18T13:01:00.003Z</time></trkpt><trkpt lat="45.05170942713063" lon="8.269279881460907"><ele>260.8</ele><time>2026-04-18T13:01:01.003Z</time></trkpt><trkpt lat="45.05178681667651" lon="8.269198781337902"><ele>262.0</ele><time>2026-04-18T13:01:02.003Z</time></trkpt><trkpt lat="45.051883670110605" lon="8.269138714275647"><ele>262.0</ele><time>2026-04-18T13:01:03.003Z</time></trkpt><trkpt lat="45.05199882660852" lon="8.269086729833715"><ele>262.0</ele><time>2026-04-18T13:01:04.003Z</time></trkpt><trkpt lat="45.052110745338084" lon="8.26904598713317"><ele>262.0</ele><time>2026-04-18T13:01:05.003Z</time></trkpt><trkpt lat="45.052210133606046" lon="8.269004057892648"><ele>262.0</ele><time>2026-04-18T13:01:06.003Z</time></trkpt><trkpt lat="45.0523000485307" lon="8.268953242844784"><ele>262.0</ele><time>2026-04-18T13:01:07.003Z</time></trkpt><trkpt lat="45.05237389383519" lon="8.268878766607825"><ele>263.8333333333333</ele><time>2026-04-18T13:01:08.003Z</time></trkpt><trkpt lat="45.05241318683009" lon="8.268774189564617"><ele>265.66666666666663</ele><time>2026-04-18T13:01:09Z</time></trkpt><trkpt lat="45.05241560440523" lon="8.268668397343603"><ele>267.5</ele><time>2026-04-18T13:01:10Z</time></trkpt><trkpt lat="45.05239477985462" lon="8.268550744166559"><ele>269.3333333333333</ele><time>2026-04-18T13:01:11Z</time></trkpt><trkpt lat="45.05233399214278" lon="8.268456137784588"><ele>271.1666666666667</ele><time>2026-04-18T13:01:12Z</time></trkpt><trkpt lat="45.052243142166766" lon="8.268374247676817"><ele>273.0</ele><time>2026-04-18T13:01:13Z</time></trkpt><trkpt lat="45.05214616592695" lon="8.268295745373617"><ele>273.0</ele><time>2026-04-18T13:01:14Z</time></trkpt><trkpt lat="45.052039578407644" lon="8.268205764687579"><ele>273.0</ele><time>2026-04-18T13:01:15Z</time></trkpt><trkpt lat="45.05192423518963" lon="8.268099669686293"><ele>273.0</ele><time>2026-04-18T13:01:16Z</time></trkpt><trkpt lat="45.05179621884341" lon="8.267978297307101"><ele>273.0</ele><time>2026-04-18T13:01:17Z</time></trkpt><trkpt lat="45.051669425824834" lon="8.267859228660638"><ele>276.75</ele><time>2026-04-18T13:01:18Z</time></trkpt><trkpt lat="45.051549208733434" lon="8.267759839333513"><ele>280.5</ele><time>2026-04-18T13:01:19Z</time></trkpt><trkpt lat="45.05144084817999" lon="8.267652021336056"><ele>284.25</ele><time>2026-04-18T13:01:20Z</time></trkpt><trkpt lat="45.05132937086804" lon="8.26756099525629"><ele>288.0</ele><time>2026-04-18T13:01:21Z</time></trkpt><trkpt lat="45.05121637200081" lon="8.267462648383697"><ele>288.0</ele><time>2026-04-18T13:01:22Z</time></trkpt><trkpt lat="45.051108495196736" lon="8.267370974254595"><ele>288.0</ele><time>2026-04-18T13:01:23Z</time></trkpt><trkpt lat="45.05099343131512" lon="8.267268270945696"><ele>288.0</ele><time>2026-04-18T13:01:24Z</time></trkpt><trkpt lat="45.05088427803095" lon="8.26717805264885"><ele>288.0</ele><time>2026-04-18T13:01:25Z</time></trkpt><trkpt lat="45.050774441608816" lon="8.267085255157633"><ele>289.4</ele><time>2026-04-18T13:01:26Z</time></trkpt><trkpt lat="45.05068444154197" lon="8.267012079528632"><ele>290.8</ele><time>2026-04-18T13:01:27Z</time></trkpt><trkpt lat="45.050592725380284" lon="8.266931758311795"><ele>292.2</ele><time>2026-04-18T13:01:28Z</time></trkpt><trkpt lat="45.05050451383233" lon="8.266857185256718"><ele>293.6</ele><time>2026-04-18T13:01:29Z</time></trkpt><trkpt lat="45.050413935289576" lon="8.266766640275652"><ele>295.0</ele><time>2026-04-18T13:01:30Z</time></trkpt><trkpt lat="45.050330057758536" lon="8.266687384234352"><ele>295.0</ele><time>2026-04-18T13:01:31Z</time></trkpt><trkpt lat="45.050249993946" lon="8.266612626480773"><ele>295.0</ele><time>2026-04-18T13:01:32Z</time></trkpt><trkpt lat="45.05015996133338" lon="8.266549561352763"><ele>295.0</ele><time>2026-04-18T13:01:33Z</time></trkpt><trkpt lat="45.05007383205936" lon="8.266486483237893"><ele>295.0</ele><time>2026-04-18T13:01:34Z</time></trkpt><trkpt lat="45.04998483040032" lon="8.266424848417396"><ele>295.0</ele><time>2026-04-18T13:01:35Z</time></trkpt><trkpt lat="45.04990852791679" lon="8.266356808199793"><ele>295.3333333333333</ele><time>2026-04-18T13:01:36Z</time></trkpt><trkpt lat="45.049844858979974" lon="8.2662841146178"><ele>295.66666666666663</ele><time>2026-04-18T13:01:37Z</time></trkpt><trkpt lat="45.049785393883475" lon="8.266215191766031"><ele>296.0</ele><time>2026-04-18T13:01:38Z</time></trkpt><trkpt lat="45.04973498799627" lon="8.266159720892253"><ele>296.3333333333333</ele><time>2026-04-18T13:01:39Z</time></trkpt><trkpt lat="45.0497016347322" lon="8.266078472062516"><ele>296.6666666666667</ele><time>2026-04-18T13:01:40Z</time></trkpt><trkpt lat="45.04964727962116" lon="8.265945503457937"><ele>297.0</ele><time>2026-04-18T13:01:42.001Z</time></trkpt><trkpt lat="45.04959838155357" lon="8.265790898422564"><ele>297.0</ele><time>2026-04-18T13:01:44.001Z</time></trkpt><trkpt lat="45.049554624574796" lon="8.26570670326085"><ele>297.0</ele><time>2026-04-18T13:01:45.001Z</time></trkpt><trkpt lat="45.04949208234254" lon="8.265645960139155"><ele>297.0</ele><time>2026-04-18T13:01:46.001Z</time></trkpt><trkpt lat="45.049422814214964" lon="8.265577503511393"><ele>297.0</ele><time>2026-04-18T13:01:47.001Z</time></trkpt><trkpt lat="45.04935426993117" lon="8.265518784585806"><ele>297.0</ele><time>2026-04-18T13:01:48.001Z</time></trkpt><trkpt lat="45.04928938733313" lon="8.265479576235906"><ele>297.0</ele><time>2026-04-18T13:01:49.001Z</time></trkpt><trkpt lat="45.04924067510951" lon="8.265418572579097"><ele>294.6</ele><time>2026-04-18T13:01:50.001Z</time></trkpt><trkpt lat="45.04912811877566" lon="8.265378553053086"><ele>292.2</ele><time>2026-04-18T13:01:52.001Z</time></trkpt><trkpt lat="45.04902082367611" lon="8.265393348503258"><ele>289.8</ele><time>2026-04-18T13:01:54.001Z</time></trkpt><trkpt lat="45.048934223301444" lon="8.26540210518022"><ele>287.4</ele><time>2026-04-18T13:01:56.001Z</time></trkpt><trkpt lat="45.048862342555985" lon="8.265432461385707"><ele>285.0</ele><time>2026-04-18T13:02:00.001Z</time></trkpt><trkpt lat="45.048887924082976" lon="8.265318562768888"><ele>285.0</ele><time>2026-04-18T13:02:07.001Z</time></trkpt><trkpt lat="45.048954261737094" lon="8.265218073735337"><ele>285.0</ele><time>2026-04-18T13:02:09.001Z</time></trkpt><trkpt lat="45.04903144235902" lon="8.265148306274995"><ele>285.0</ele><time>2026-04-18T13:02:12.001Z</time></trkpt><trkpt lat="45.04906755798147" lon="8.265029146098312"><ele>285.0</ele><time>2026-04-18T13:02:14.002Z</time></trkpt><trkpt lat="45.049154940106035" lon="8.264881497561023"><ele>285.0</ele><time>2026-04-18T13:02:16.002Z</time></trkpt><trkpt lat="45.04920138053731" lon="8.264803027675958"><ele>283.3333333333333</ele><time>2026-04-18T13:02:17.002Z</time></trkpt><trkpt lat="45.0492471732088" lon="8.264723775416538"><ele>281.6666666666667</ele><time>2026-04-18T13:02:18.002Z</time></trkpt><trkpt lat="45.049297845864274" lon="8.264635399987075"><ele>280.0</ele><time>2026-04-18T13:02:19.002Z</time></trkpt><trkpt lat="45.04934397454368" lon="8.26455342449961"><ele>278.33333333333337</ele><time>2026-04-18T13:02:20.002Z</time></trkpt><trkpt lat="45.04940025237994" lon="8.264429407112903"><ele>276.6666666666667</ele><time>2026-04-18T13:02:22.002Z</time></trkpt><trkpt lat="45.04947455342367" lon="8.264370954135115"><ele>275.0</ele><time>2026-04-18T13:02:23.002Z</time></trkpt><trkpt lat="45.04951779607685" lon="8.26428889419343"><ele>275.0</ele><time>2026-04-18T13:02:24.002Z</time></trkpt><trkpt lat="45.04955680983419" lon="8.264218715600819"><ele>275.0</ele><time>2026-04-18T13:02:25.002Z</time></trkpt><trkpt lat="45.04960211704192" lon="8.264137216224837"><ele>275.0</ele><time>2026-04-18T13:02:26.002Z</time></trkpt><trkpt lat="45.04965821709293" lon="8.264044182492581"><ele>275.0</ele><time>2026-04-18T13:02:27.002Z</time></trkpt><trkpt lat="45.049860432399704" lon="8.26415628043486"><ele>275.0</ele><time>2026-04-18T13:02:28.002Z</time></trkpt><trkpt lat="45.04990214164484" lon="8.264058072421351"><ele>276.5</ele><time>2026-04-18T13:02:29.002Z</time></trkpt><trkpt lat="45.049961071972334" lon="8.263973934724127"><ele>278.0</ele><time>2026-04-18T13:02:30.002Z</time></trkpt><trkpt lat="45.0500288837164" lon="8.26389850968828"><ele>279.5</ele><time>2026-04-18T13:02:31.002Z</time></trkpt><trkpt lat="45.05000236366796" lon="8.263598070004925"><ele>281.0</ele><time>2026-04-18T13:02:32.002Z</time></trkpt><trkpt lat="45.0500658062472" lon="8.263534541190968"><ele>281.0</ele><time>2026-04-18T13:02:33.002Z</time></trkpt><trkpt lat="45.05012772902079" lon="8.263469094727098"><ele>281.0</ele><time>2026-04-18T13:02:34.002Z</time></trkpt><trkpt lat="45.050190225624476" lon="8.263395502810955"><ele>281.0</ele><time>2026-04-18T13:02:35.002Z</time></trkpt><trkpt lat="45.0502455735332" lon="8.26331355788954"><ele>281.0</ele><time>2026-04-18T13:02:36.002Z</time></trkpt><trkpt lat="45.0502896361739" lon="8.263235866977718"><ele>281.0</ele><time>2026-04-18T13:02:37.002Z</time></trkpt><trkpt lat="45.05033524179916" lon="8.263139966667493"><ele>281.0</ele><time>2026-04-18T13:02:38.002Z</time></trkpt><trkpt lat="45.050389610673705" lon="8.26301950762696"><ele>279.2</ele><time>2026-04-18T13:02:39.002Z</time></trkpt><trkpt lat="45.05045156686929" lon="8.262895394818777"><ele>277.40000000000003</ele><time>2026-04-18T13:02:40.002Z</time></trkpt><trkpt lat="45.05050918790769" lon="8.26276686773353"><ele>275.6</ele><time>2026-04-18T13:02:41.002Z</time></trkpt><trkpt lat="45.05056942810076" lon="8.262630688902934"><ele>273.8</ele><time>2026-04-18T13:02:42.002Z</time></trkpt><trkpt lat="45.050629064767435" lon="8.262498314128626"><ele>272.0</ele><time>2026-04-18T13:02:43.002Z</time></trkpt><trkpt lat="45.05068593934443" lon="8.262371790815154"><ele>271.4</ele><time>2026-04-18T13:02:44.002Z</time></trkpt><trkpt lat="45.05074552935614" lon="8.262247563352876"><ele>270.79999999999995</ele><time>2026-04-18T13:02:45.002Z</time></trkpt><trkpt lat="45.05079886281956" lon="8.262140037848127"><ele>270.2</ele><time>2026-04-18T13:02:46.002Z</time></trkpt><trkpt lat="45.05086611596857" lon="8.2620200448945"><ele>269.59999999999997</ele><time>2026-04-18T13:02:47.003Z</time></trkpt><trkpt lat="45.05092586196709" lon="8.261917034545231"><ele>269.0</ele><time>2026-04-18T13:02:48.003Z</time></trkpt><trkpt lat="45.050981123874315" lon="8.261811441107863"><ele>271.0</ele><time>2026-04-18T13:02:49.003Z</time></trkpt><trkpt lat="45.05103916217599" lon="8.26169632256431"><ele>273.0</ele><time>2026-04-18T13:02:50.003Z</time></trkpt><trkpt lat="45.051098721712144" lon="8.261564408702755"><ele>275.0</ele><time>2026-04-18T13:02:51.003Z</time></trkpt><trkpt lat="45.05115515597328" lon="8.261422748260555"><ele>277.0</ele><time>2026-04-18T13:02:52.003Z</time></trkpt><trkpt lat="45.051222553168536" lon="8.261260770825986"><ele>277.0</ele><time>2026-04-18T13:02:53.003Z</time></trkpt><trkpt lat="45.0512769027209" lon="8.26113350980363"><ele>277.0</ele><time>2026-04-18T13:02:54.003Z</time></trkpt><trkpt lat="45.05137264862871" lon="8.260988928407343"><ele>277.0</ele><time>2026-04-18T13:02:55.003Z</time></trkpt><trkpt lat="45.05144061075529" lon="8.26084612117166"><ele>277.0</ele><time>2026-04-18T13:02:56.003Z</time></trkpt><trkpt lat="45.051502548653914" lon="8.260713440921508"><ele>276.2</ele><time>2026-04-18T13:02:57.003Z</time></trkpt><trkpt lat="45.0515504060422" lon="8.260596980400939"><ele>275.4</ele><time>2026-04-18T13:02:58.003Z</time></trkpt><trkpt lat="45.05158703971668" lon="8.260482736523182"><ele>274.6</ele><time>2026-04-18T13:02:59.003Z</time></trkpt><trkpt lat="45.05162535540714" lon="8.2603614490649"><ele>273.8</ele><time>2026-04-18T13:03:00.003Z</time></trkpt><trkpt lat="45.05162078606152" lon="8.260234212609687"><ele>273.0</ele><time>2026-04-18T13:03:02.003Z</time></trkpt><trkpt lat="45.051629154079635" lon="8.260099091088012"><ele>276.6</ele><time>2026-04-18T13:03:04.003Z</time></trkpt><trkpt lat="45.05163978103481" lon="8.259924868097018"><ele>280.20000000000005</ele><time>2026-04-18T13:03:06.003Z</time></trkpt><trkpt lat="45.05164643088439" lon="8.259815847507546"><ele>283.8</ele><time>2026-04-18T13:03:07.003Z</time></trkpt><trkpt lat="45.0516566859525" lon="8.259694814945725"><ele>287.40000000000003</ele><time>2026-04-18T13:03:08.003Z</time></trkpt><trkpt lat="45.05167152212369" lon="8.259570851230794"><ele>291.0</ele><time>2026-04-18T13:03:09.003Z</time></trkpt><trkpt lat="45.051704457204394" lon="8.25941256637559"><ele>291.0</ele><time>2026-04-18T13:03:10.003Z</time></trkpt><trkpt lat="45.05174356016108" lon="8.25928295355259"><ele>291.0</ele><time>2026-04-18T13:03:11.003Z</time></trkpt><trkpt lat="45.05181578962747" lon="8.25912337742886"><ele>291.0</ele><time>2026-04-18T13:03:12.003Z</time></trkpt><trkpt lat="45.05189724120353" lon="8.258992602942563"><ele>291.0</ele><time>2026-04-18T13:03:13.003Z</time></trkpt><trkpt lat="45.05196172729152" lon="8.258889212488116"><ele>289.8</ele><time>2026-04-18T13:03:14.003Z</time></trkpt><trkpt lat="45.05202419379247" lon="8.258777628068364"><ele>288.6</ele><time>2026-04-18T13:03:15Z</time></trkpt><trkpt lat="45.05208816043435" lon="8.258661701393757"><ele>287.4</ele><time>2026-04-18T13:03:16Z</time></trkpt><trkpt lat="45.052154937209366" lon="8.25853496904629"><ele>286.2</ele><time>2026-04-18T13:03:17Z</time></trkpt><trkpt lat="45.05221808830725" lon="8.258409296803086"><ele>285.0</ele><time>2026-04-18T13:03:18Z</time></trkpt><trkpt lat="45.05228530767944" lon="8.258269652290872"><ele>285.0</ele><time>2026-04-18T13:03:19Z</time></trkpt><trkpt lat="45.05235514671704" lon="8.25812780701653"><ele>285.0</ele><time>2026-04-18T13:03:20Z</time></trkpt><trkpt lat="45.05242556777658" lon="8.257990709053963"><ele>285.0</ele><time>2026-04-18T13:03:21Z</time></trkpt><trkpt lat="45.05251421671815" lon="8.257849498320873"><ele>285.0</ele><time>2026-04-18T13:03:22Z</time></trkpt><trkpt lat="45.05259353712682" lon="8.25773937621401"><ele>288.6666666666667</ele><time>2026-04-18T13:03:23Z</time></trkpt><trkpt lat="45.05266642085971" lon="8.257616526951493"><ele>292.33333333333337</ele><time>2026-04-18T13:03:24Z</time></trkpt><trkpt lat="45.0528988234184" lon="8.257697864156905"><ele>296.0</ele><time>2026-04-18T13:03:25Z</time></trkpt><trkpt lat="45.052990753760646" lon="8.257578359526054"><ele>296.0</ele><time>2026-04-18T13:03:26Z</time></trkpt><trkpt lat="45.05308032467728" lon="8.25743829317184"><ele>296.0</ele><time>2026-04-18T13:03:27Z</time></trkpt><trkpt lat="45.05317211256629" lon="8.25730767625464"><ele>296.0</ele><time>2026-04-18T13:03:28Z</time></trkpt><trkpt lat="45.053253269566426" lon="8.25720132303007"><ele>296.0</ele><time>2026-04-18T13:03:29Z</time></trkpt><trkpt lat="45.05332967948186" lon="8.25709813287031"><ele>298.0</ele><time>2026-04-18T13:03:30Z</time></trkpt><trkpt lat="45.05340451097337" lon="8.256970393875571"><ele>300.0</ele><time>2026-04-18T13:03:31Z</time></trkpt><trkpt lat="45.053475205041885" lon="8.256823741574674"><ele>302.0</ele><time>2026-04-18T13:03:32Z</time></trkpt><trkpt lat="45.053532770693295" lon="8.256633087007405"><ele>304.0</ele><time>2026-04-18T13:03:33Z</time></trkpt><trkpt lat="45.053591060534174" lon="8.256453413043246"><ele>302.25</ele><time>2026-04-18T13:03:34Z</time></trkpt><trkpt lat="45.0536437959846" lon="8.256281510948753"><ele>300.5</ele><time>2026-04-18T13:03:35Z</time></trkpt><trkpt lat="45.05368642250968" lon="8.256103932805868"><ele>298.75</ele><time>2026-04-18T13:03:36Z</time></trkpt><trkpt lat="45.0537307832052" lon="8.255922530261273"><ele>297.0</ele><time>2026-04-18T13:03:37Z</time></trkpt><trkpt lat="45.05377146964579" lon="8.255745912264425"><ele>297.25</ele><time>2026-04-18T13:03:38Z</time></trkpt><trkpt lat="45.05380538276448" lon="8.255575989764285"><ele>297.5</ele><time>2026-04-18T13:03:39Z</time></trkpt><trkpt lat="45.05383084734885" lon="8.255417963465321"><ele>297.75</ele><time>2026-04-18T13:03:40Z</time></trkpt><trkpt lat="45.05385935777368" lon="8.255259442580552"><ele>298.0</ele><time>2026-04-18T13:03:41Z</time></trkpt><trkpt lat="45.05388594285178" lon="8.25510144489659"><ele>298.0</ele><time>2026-04-18T13:03:42Z</time></trkpt><trkpt lat="45.05390832271553" lon="8.254944301914044"><ele>298.0</ele><time>2026-04-18T13:03:43Z</time></trkpt><trkpt lat="45.053933305496116" lon="8.254801115899157"><ele>298.0</ele><time>2026-04-18T13:03:44Z</time></trkpt><trkpt lat="45.05394025381143" lon="8.254667232707787"><ele>298.0</ele><time>2026-04-18T13:03:45Z</time></trkpt><trkpt lat="45.05394510241525" lon="8.25454007230252"><ele>298.0</ele><time>2026-04-18T13:03:46Z</time></trkpt><trkpt lat="45.05394579288088" lon="8.254412482083904"><ele>299.6</ele><time>2026-04-18T13:03:47Z</time></trkpt><trkpt lat="45.053924354672525" lon="8.254276586387553"><ele>301.20000000000005</ele><time>2026-04-18T13:03:48Z</time></trkpt><trkpt lat="45.05387397723109" lon="8.254157335099388"><ele>302.8</ele><time>2026-04-18T13:03:49Z</time></trkpt><trkpt lat="45.05383144146359" lon="8.25404657828792"><ele>304.40000000000003</ele><time>2026-04-18T13:03:50Z</time></trkpt><trkpt lat="45.053788968525424" lon="8.25394254499164"><ele>306.0</ele><time>2026-04-18T13:03:51.001Z</time></trkpt><trkpt lat="45.05374405110174" lon="8.253840370268087"><ele>307.8</ele><time>2026-04-18T13:03:52.001Z</time></trkpt><trkpt lat="45.05370008090665" lon="8.253728627357486"><ele>309.6</ele><time>2026-04-18T13:03:53.001Z</time></trkpt><trkpt lat="45.05363781659359" lon="8.253611387752702"><ele>311.4</ele><time>2026-04-18T13:03:54.001Z</time></trkpt><trkpt lat="45.05358923927299" lon="8.25351541131211"><ele>313.2</ele><time>2026-04-18T13:03:55.001Z</time></trkpt><trkpt lat="45.053513890918914" lon="8.253433985411794"><ele>315.0</ele><time>2026-04-18T13:03:56.001Z</time></trkpt><trkpt lat="45.053421852258495" lon="8.253372633802408"><ele>315.0</ele><time>2026-04-18T13:03:57.001Z</time></trkpt><trkpt lat="45.05331997919955" lon="8.253324438264297"><ele>315.0</ele><time>2026-04-18T13:03:58.001Z</time></trkpt><trkpt lat="45.053205706597765" lon="8.253255654561823"><ele>315.0</ele><time>2026-04-18T13:03:59.001Z</time></trkpt><trkpt lat="45.05310241640156" lon="8.253220584500847"><ele>315.0</ele><time>2026-04-18T13:04:00.001Z</time></trkpt><trkpt lat="45.053000562242964" lon="8.25318998863161"><ele>315.0</ele><time>2026-04-18T13:04:01.001Z</time></trkpt><trkpt lat="45.05290293422558" lon="8.253177123413357"><ele>315.0</ele><time>2026-04-18T13:04:02.001Z</time></trkpt><trkpt lat="45.0528173707557" lon="8.253129245541952"><ele>315.0</ele><time>2026-04-18T13:04:03.001Z</time></trkpt><trkpt lat="45.0527300139479" lon="8.253084814904355"><ele>315.0</ele><time>2026-04-18T13:04:04.001Z</time></trkpt><trkpt lat="45.05267040888478" lon="8.253019795560672"><ele>315.0</ele><time>2026-04-18T13:04:05.001Z</time></trkpt><trkpt lat="45.05262812110103" lon="8.252943330596642"><ele>315.0</ele><time>2026-04-18T13:04:06.001Z</time></trkpt><trkpt lat="45.05258327567873" lon="8.252841243689303"><ele>315.0</ele><time>2026-04-18T13:04:08.001Z</time></trkpt><trkpt lat="45.0526671809959" lon="8.252661734830292"><ele>312.8</ele><time>2026-04-18T13:04:10.001Z</time></trkpt><trkpt lat="45.052725737503366" lon="8.252583084931253"><ele>310.6</ele><time>2026-04-18T13:04:11.001Z</time></trkpt><trkpt lat="45.05279177102304" lon="8.25247558060538"><ele>308.4</ele><time>2026-04-18T13:04:12.001Z</time></trkpt><trkpt lat="45.05287731173657" lon="8.25237221696344"><ele>306.2</ele><time>2026-04-18T13:04:13.001Z</time></trkpt><trkpt lat="45.0529761312987" lon="8.252246966113594"><ele>304.0</ele><time>2026-04-18T13:04:14.001Z</time></trkpt><trkpt lat="45.053076387819786" lon="8.252080832375519"><ele>305.25</ele><time>2026-04-18T13:04:15.001Z</time></trkpt><trkpt lat="45.05317141319" lon="8.251966580122462"><ele>306.5</ele><time>2026-04-18T13:04:16.001Z</time></trkpt><trkpt lat="45.053266719906524" lon="8.251852415345784"><ele>307.75</ele><time>2026-04-18T13:04:17.001Z</time></trkpt><trkpt lat="45.05333841553042" lon="8.251737217183775"><ele>309.0</ele><time>2026-04-18T13:04:18.001Z</time></trkpt><trkpt lat="45.053385591798325" lon="8.251616305454274"><ele>309.0</ele><time>2026-04-18T13:04:19.001Z</time></trkpt><trkpt lat="45.053391929853575" lon="8.251485119898694"><ele>309.0</ele><time>2026-04-18T13:04:20.001Z</time></trkpt><trkpt lat="45.053355894346616" lon="8.2513616936711"><ele>309.0</ele><time>2026-04-18T13:04:21.001Z</time></trkpt><trkpt lat="45.053304010505045" lon="8.251225777500103"><ele>309.0</ele><time>2026-04-18T13:04:22.001Z</time></trkpt><trkpt lat="45.05324553782434" lon="8.251094654052487"><ele>309.0</ele><time>2026-04-18T13:04:23.002Z</time></trkpt><trkpt lat="45.05319565088582" lon="8.250937287085417"><ele>304.4</ele><time>2026-04-18T13:04:24.002Z</time></trkpt><trkpt lat="45.05315717618478" lon="8.250788227319148"><ele>299.79999999999995</ele><time>2026-04-18T13:04:25.002Z</time></trkpt><trkpt lat="45.053129498427374" lon="8.250638224776285"><ele>295.20000000000005</ele><time>2026-04-18T13:04:26.002Z</time></trkpt><trkpt lat="45.05309974942729" lon="8.250476684178297"><ele>290.6</ele><time>2026-04-18T13:04:27.002Z</time></trkpt><trkpt lat="45.053073463430195" lon="8.250335261007775"><ele>286.0</ele><time>2026-04-18T13:04:28.002Z</time></trkpt><trkpt lat="45.05302701919841" lon="8.250185677373235"><ele>286.0</ele><time>2026-04-18T13:04:29.002Z</time></trkpt><trkpt lat="45.052960602120265" lon="8.250052786471263"><ele>286.0</ele><time>2026-04-18T13:04:30.002Z</time></trkpt><trkpt lat="45.05287836500002" lon="8.249926662339021"><ele>286.0</ele><time>2026-04-18T13:04:31.002Z</time></trkpt><trkpt lat="45.052791872798004" lon="8.249790146404452"><ele>286.0</ele><time>2026-04-18T13:04:32.002Z</time></trkpt><trkpt lat="45.052707335898255" lon="8.249652354691634"><ele>286.40000000000003</ele><time>2026-04-18T13:04:33.002Z</time></trkpt><trkpt lat="45.05265041853994" lon="8.249531408770384"><ele>286.8</ele><time>2026-04-18T13:04:34.002Z</time></trkpt><trkpt lat="45.052610232210945" lon="8.24940605091365"><ele>287.20000000000005</ele><time>2026-04-18T13:04:35.002Z</time></trkpt><trkpt lat="45.052587806476815" lon="8.249287538499997"><ele>287.6</ele><time>2026-04-18T13:04:36.002Z</time></trkpt><trkpt lat="45.05261128590938" lon="8.24917825839447"><ele>288.0</ele><time>2026-04-18T13:04:37.002Z</time></trkpt><trkpt lat="45.05266574413884" lon="8.249078008574807"><ele>288.0</ele><time>2026-04-18T13:04:38.002Z</time></trkpt><trkpt lat="45.05273120501714" lon="8.24898572707722"><ele>288.0</ele><time>2026-04-18T13:04:39.002Z</time></trkpt><trkpt lat="45.05281029435406" lon="8.248905093096145"><ele>288.0</ele><time>2026-04-18T13:04:40.002Z</time></trkpt><trkpt lat="45.05288327493305" lon="8.248857762911706"><ele>288.0</ele><time>2026-04-18T13:04:41.002Z</time></trkpt><trkpt lat="45.05296077162442" lon="8.248830612618294"><ele>288.0</ele><time>2026-04-18T13:04:42.002Z</time></trkpt><trkpt lat="45.05304982525943" lon="8.248843167587887"><ele>288.0</ele><time>2026-04-18T13:04:43.002Z</time></trkpt><trkpt lat="45.053128577199146" lon="8.24891727467752"><ele>288.0</ele><time>2026-04-18T13:04:44.002Z</time></trkpt><trkpt lat="45.05322164640329" lon="8.24896305736924"><ele>288.0</ele><time>2026-04-18T13:04:45.002Z</time></trkpt><trkpt lat="45.05331941100651" lon="8.249029310071133"><ele>288.0</ele><time>2026-04-18T13:04:46.002Z</time></trkpt><trkpt lat="45.0534308859769" lon="8.249101941854386"><ele>288.0</ele><time>2026-04-18T13:04:47.002Z</time></trkpt><trkpt lat="45.05354602563933" lon="8.249176149984658"><ele>289.25</ele><time>2026-04-18T13:04:48.002Z</time></trkpt><trkpt lat="45.05365382548443" lon="8.249241828013657"><ele>290.5</ele><time>2026-04-18T13:04:49.002Z</time></trkpt><trkpt lat="45.05376584307683" lon="8.249287120088672"><ele>291.75</ele><time>2026-04-18T13:04:50.002Z</time></trkpt><trkpt lat="45.05388795321757" lon="8.249306342602786"><ele>293.0</ele><time>2026-04-18T13:04:51.002Z</time></trkpt><trkpt lat="45.05401630879255" lon="8.24928683393233"><ele>291.75</ele><time>2026-04-18T13:04:52.002Z</time></trkpt><trkpt lat="45.05414332025506" lon="8.249239680681995"><ele>290.5</ele><time>2026-04-18T13:04:53.002Z</time></trkpt><trkpt lat="45.05427152069661" lon="8.24915568792156"><ele>289.25</ele><time>2026-04-18T13:04:54.002Z</time></trkpt><trkpt lat="45.05439662518877" lon="8.249040727115153"><ele>288.0</ele><time>2026-04-18T13:04:55.002Z</time></trkpt><trkpt lat="45.05450539291935" lon="8.248919261456626"><ele>284.75</ele><time>2026-04-18T13:04:56.003Z</time></trkpt><trkpt lat="45.05461667633484" lon="8.248805468737666"><ele>281.5</ele><time>2026-04-18T13:04:57.003Z</time></trkpt><trkpt lat="45.05471795034413" lon="8.248708716931466"><ele>278.25</ele><time>2026-04-18T13:04:58.003Z</time></trkpt><trkpt lat="45.054817706608034" lon="8.248606792094524"><ele>275.0</ele><time>2026-04-18T13:04:59.003Z</time></trkpt><trkpt lat="45.05490832182715" lon="8.248513888519238"><ele>274.6</ele><time>2026-04-18T13:05:00.003Z</time></trkpt><trkpt lat="45.0549914548535" lon="8.248423851861125"><ele>274.2</ele><time>2026-04-18T13:05:01.003Z</time></trkpt><trkpt lat="45.055063798490885" lon="8.248326548369208"><ele>273.8</ele><time>2026-04-18T13:05:02.003Z</time></trkpt><trkpt lat="45.0551157003347" lon="8.248222917320915"><ele>273.4</ele><time>2026-04-18T13:05:03.003Z</time></trkpt><trkpt lat="45.055157860771466" lon="8.248135241912495"><ele>273.0</ele><time>2026-04-18T13:05:04.003Z</time></trkpt><trkpt lat="45.055213472266196" lon="8.248001897549358"><ele>273.0</ele><time>2026-04-18T13:05:06.003Z</time></trkpt><trkpt lat="45.055251686980746" lon="8.247854244178468"><ele>273.0</ele><time>2026-04-18T13:05:08.003Z</time></trkpt><trkpt lat="45.05526457181887" lon="8.247756304164373"><ele>273.0</ele><time>2026-04-18T13:05:09.003Z</time></trkpt><trkpt lat="45.05527327369357" lon="8.247639417864866"><ele>273.0</ele><time>2026-04-18T13:05:10.003Z</time></trkpt><trkpt lat="45.05527950614442" lon="8.24750185236655"><ele>273.0</ele><time>2026-04-18T13:05:11.003Z</time></trkpt><trkpt lat="45.055279386290536" lon="8.247338782586683"><ele>271.0</ele><time>2026-04-18T13:05:12.003Z</time></trkpt><trkpt lat="45.05527151030844" lon="8.2471568112586"><ele>269.0</ele><time>2026-04-18T13:05:13.003Z</time></trkpt><trkpt lat="45.05525469114601" lon="8.24696381696364"><ele>267.0</ele><time>2026-04-18T13:05:14.003Z</time></trkpt><trkpt lat="45.0552332139809" lon="8.246755543540703"><ele>265.0</ele><time>2026-04-18T13:05:15.003Z</time></trkpt><trkpt lat="45.055218084821014" lon="8.246530089013081"><ele>264.0</ele><time>2026-04-18T13:05:16.003Z</time></trkpt><trkpt lat="45.055211837506256" lon="8.24637172420473"><ele>263.0</ele><time>2026-04-18T13:05:17.003Z</time></trkpt><trkpt lat="45.05519709006591" lon="8.246158917964435"><ele>262.0</ele><time>2026-04-18T13:05:18.003Z</time></trkpt><trkpt lat="45.05518132828311" lon="8.245933636211902"><ele>261.0</ele><time>2026-04-18T13:05:19.003Z</time></trkpt><trkpt lat="45.05516325609831" lon="8.245712412622801"><ele>260.0</ele><time>2026-04-18T13:05:20.003Z</time></trkpt><trkpt lat="45.05515136835016" lon="8.24550242966748"><ele>259.0</ele><time>2026-04-18T13:05:20.999Z</time></trkpt><trkpt lat="45.05513651529482" lon="8.245289734313623"><ele>258.0</ele><time>2026-04-18T13:05:21.999Z</time></trkpt><trkpt lat="45.055120131345525" lon="8.245075809361587"><ele>258.0</ele><time>2026-04-18T13:05:22.999Z</time></trkpt><trkpt lat="45.05510238917695" lon="8.244860244578705"><ele>258.0</ele><time>2026-04-18T13:05:24Z</time></trkpt><trkpt lat="45.055087542669256" lon="8.244644528014838"><ele>258.0</ele><time>2026-04-18T13:05:25Z</time></trkpt><trkpt lat="45.05507073284308" lon="8.244438000971783"><ele>257.25</ele><time>2026-04-18T13:05:26Z</time></trkpt><trkpt lat="45.05506072887251" lon="8.24424718414882"><ele>256.5</ele><time>2026-04-18T13:05:27Z</time></trkpt><trkpt lat="45.05504790785269" lon="8.244059656040895"><ele>255.75</ele><time>2026-04-18T13:05:28Z</time></trkpt><trkpt lat="45.05503530049026" lon="8.243873722926695"><ele>255.0</ele><time>2026-04-18T13:05:29Z</time></trkpt><trkpt lat="45.055023108223544" lon="8.243696016211276"><ele>253.5</ele><time>2026-04-18T13:05:30Z</time></trkpt><trkpt lat="45.05500743349478" lon="8.243528390917156"><ele>252.0</ele><time>2026-04-18T13:05:31Z</time></trkpt><trkpt lat="45.05499563067644" lon="8.243370778028332"><ele>250.5</ele><time>2026-04-18T13:05:32Z</time></trkpt><trkpt lat="45.05498505858201" lon="8.243204603445204"><ele>249.0</ele><time>2026-04-18T13:05:33Z</time></trkpt><trkpt lat="45.05497117467959" lon="8.243036481683673"><ele>248.0</ele><time>2026-04-18T13:05:34Z</time></trkpt><trkpt lat="45.05495523460416" lon="8.242875083508201"><ele>247.0</ele><time>2026-04-18T13:05:35Z</time></trkpt><trkpt lat="45.05494944522092" lon="8.242716126010537"><ele>246.0</ele><time>2026-04-18T13:05:36Z</time></trkpt><trkpt lat="45.054966484075905" lon="8.24255429004851"><ele>245.0</ele><time>2026-04-18T13:05:37Z</time></trkpt><trkpt lat="45.05499392588058" lon="8.242397016197526"><ele>242.5</ele><time>2026-04-18T13:05:38Z</time></trkpt><trkpt lat="45.05503446977707" lon="8.242258407698634"><ele>240.0</ele><time>2026-04-18T13:05:39Z</time></trkpt><trkpt lat="45.05507735156335" lon="8.242125124813716"><ele>237.5</ele><time>2026-04-18T13:05:40Z</time></trkpt><trkpt lat="45.055124933100494" lon="8.241972480599848"><ele>235.0</ele><time>2026-04-18T13:05:41Z</time></trkpt><trkpt lat="45.05516819205089" lon="8.241801007723778"><ele>235.0</ele><time>2026-04-18T13:05:42Z</time></trkpt><trkpt lat="45.05519262154297" lon="8.241611269870834"><ele>235.0</ele><time>2026-04-18T13:05:43Z</time></trkpt><trkpt lat="45.05519471060104" lon="8.241418740839773"><ele>235.0</ele><time>2026-04-18T13:05:44Z</time></trkpt><trkpt lat="45.055186438979" lon="8.241234935249182"><ele>235.0</ele><time>2026-04-18T13:05:45Z</time></trkpt><trkpt lat="45.05517830526071" lon="8.24104716384182"><ele>233.5</ele><time>2026-04-18T13:05:46Z</time></trkpt><trkpt lat="45.05516809944425" lon="8.240845404424165"><ele>232.0</ele><time>2026-04-18T13:05:47Z</time></trkpt><trkpt lat="45.05515897477389" lon="8.240636681063165"><ele>230.5</ele><time>2026-04-18T13:05:48Z</time></trkpt><trkpt lat="45.0551495116682" lon="8.240423012202722"><ele>229.0</ele><time>2026-04-18T13:05:49Z</time></trkpt><trkpt lat="45.055141836598494" lon="8.240214086581085"><ele>228.5</ele><time>2026-04-18T13:05:50Z</time></trkpt><trkpt lat="45.055132906019864" lon="8.240015320586723"><ele>228.0</ele><time>2026-04-18T13:05:51Z</time></trkpt><trkpt lat="45.055123615424876" lon="8.23982740875592"><ele>227.5</ele><time>2026-04-18T13:05:52Z</time></trkpt><trkpt lat="45.055115304927" lon="8.239638163005099"><ele>227.0</ele><time>2026-04-18T13:05:53.001Z</time></trkpt><trkpt lat="45.05511299035768" lon="8.239446171334366"><ele>226.0</ele><time>2026-04-18T13:05:54.001Z</time></trkpt><trkpt lat="45.05510921056934" lon="8.239244633493659"><ele>225.0</ele><time>2026-04-18T13:05:55.001Z</time></trkpt><trkpt lat="45.05510545114438" lon="8.239040051143373"><ele>224.0</ele><time>2026-04-18T13:05:56.001Z</time></trkpt><trkpt lat="45.055103166674314" lon="8.238831602712661"><ele>223.0</ele><time>2026-04-18T13:05:57.001Z</time></trkpt><trkpt lat="45.05509786614774" lon="8.238643672664205"><ele>221.8</ele><time>2026-04-18T13:05:58.001Z</time></trkpt><trkpt lat="45.05509218043526" lon="8.238463155933399"><ele>220.60000000000002</ele><time>2026-04-18T13:05:59.001Z</time></trkpt><trkpt lat="45.05508615593173" lon="8.23830263325831"><ele>219.39999999999998</ele><time>2026-04-18T13:06:00.001Z</time></trkpt><trkpt lat="45.05508414214065" lon="8.238164560792447"><ele>218.2</ele><time>2026-04-18T13:06:01.001Z</time></trkpt><trkpt lat="45.055083881770564" lon="8.238053476919204"><ele>217.0</ele><time>2026-04-18T13:06:02.001Z</time></trkpt><trkpt lat="45.055104441932144" lon="8.237969105014493"><ele>215.66666666666666</ele><time>2026-04-18T13:06:03.001Z</time></trkpt><trkpt lat="45.05515539149794" lon="8.237902943096826"><ele>214.33333333333331</ele><time>2026-04-18T13:06:04.001Z</time></trkpt><trkpt lat="45.055218097012656" lon="8.237850583584638"><ele>213.0</ele><time>2026-04-18T13:06:05.001Z</time></trkpt><trkpt lat="45.05531299970188" lon="8.23786098704177"><ele>211.66666666666669</ele><time>2026-04-18T13:06:06.001Z</time></trkpt><trkpt lat="45.05541281968863" lon="8.237839988724396"><ele>210.33333333333334</ele><time>2026-04-18T13:06:07.001Z</time></trkpt><trkpt lat="45.055524076409306" lon="8.237837824779527"><ele>209.0</ele><time>2026-04-18T13:06:08.001Z</time></trkpt><trkpt lat="45.05564974902215" lon="8.23782595576266"><ele>209.0</ele><time>2026-04-18T13:06:09.001Z</time></trkpt><trkpt lat="45.05576570615321" lon="8.237816617615646"><ele>209.0</ele><time>2026-04-18T13:06:10.001Z</time></trkpt><trkpt lat="45.05586772611167" lon="8.237812985276452"><ele>209.0</ele><time>2026-04-18T13:06:11.001Z</time></trkpt><trkpt lat="45.05596082636837" lon="8.237809910668812"><ele>209.0</ele><time>2026-04-18T13:06:12.001Z</time></trkpt><trkpt lat="45.05604702629127" lon="8.237793288351925"><ele>209.0</ele><time>2026-04-18T13:06:13.001Z</time></trkpt><trkpt lat="45.056116432139035" lon="8.237750995013675"><ele>208.79999999999998</ele><time>2026-04-18T13:06:14.001Z</time></trkpt><trkpt lat="45.05616860176683" lon="8.237667889582843"><ele>208.6</ele><time>2026-04-18T13:06:15.001Z</time></trkpt><trkpt lat="45.05618591270323" lon="8.237556086140499"><ele>208.4</ele><time>2026-04-18T13:06:16.001Z</time></trkpt><trkpt lat="45.05615498189427" lon="8.237432164964817"><ele>208.2</ele><time>2026-04-18T13:06:17.001Z</time></trkpt><trkpt lat="45.0560910136871" lon="8.237329825028606"><ele>208.0</ele><time>2026-04-18T13:06:18.001Z</time></trkpt><trkpt lat="45.056000347342305" lon="8.237261441301044"><ele>206.75</ele><time>2026-04-18T13:06:19.001Z</time></trkpt><trkpt lat="45.05589212152546" lon="8.237226476445745"><ele>205.5</ele><time>2026-04-18T13:06:20.001Z</time></trkpt><trkpt lat="45.05577497282419" lon="8.23716962305729"><ele>204.25</ele><time>2026-04-18T13:06:21.001Z</time></trkpt><trkpt lat="45.05567713114165" lon="8.237097853066883"><ele>203.0</ele><time>2026-04-18T13:06:22.001Z</time></trkpt><trkpt lat="45.05556623140711" lon="8.237017768752692"><ele>203.0</ele><time>2026-04-18T13:06:23.001Z</time></trkpt><trkpt lat="45.05546103714877" lon="8.23692682512651"><ele>203.0</ele><time>2026-04-18T13:06:24.002Z</time></trkpt><trkpt lat="45.05535913646129" lon="8.236824848003097"><ele>203.0</ele><time>2026-04-18T13:06:25.002Z</time></trkpt><trkpt lat="45.0552616200504" lon="8.236708429349134"><ele>203.0</ele><time>2026-04-18T13:06:26.002Z</time></trkpt><trkpt lat="45.05517025032117" lon="8.236593373691772"><ele>203.0</ele><time>2026-04-18T13:06:27.002Z</time></trkpt><trkpt lat="45.055085147668336" lon="8.236478174567711"><ele>203.0</ele><time>2026-04-18T13:06:28.002Z</time></trkpt><trkpt lat="45.05501340035021" lon="8.23636188294922"><ele>203.0</ele><time>2026-04-18T13:06:29.002Z</time></trkpt><trkpt lat="45.05495599670903" lon="8.236236579121664"><ele>203.0</ele><time>2026-04-18T13:06:30.002Z</time></trkpt><trkpt lat="45.054913385584115" lon="8.236106718506177"><ele>203.0</ele><time>2026-04-18T13:06:31.002Z</time></trkpt><trkpt lat="45.05488897243433" lon="8.23597555572146"><ele>201.0</ele><time>2026-04-18T13:06:32.002Z</time></trkpt><trkpt lat="45.05488169877566" lon="8.235848045085763"><ele>199.0</ele><time>2026-04-18T13:06:33.002Z</time></trkpt><trkpt lat="45.054893019947414" lon="8.235716149615017"><ele>197.0</ele><time>2026-04-18T13:06:34.002Z</time></trkpt><trkpt lat="45.0549123147646" lon="8.23557819617982"><ele>195.0</ele><time>2026-04-18T13:06:35.002Z</time></trkpt><trkpt lat="45.05492591155712" lon="8.235439549673847"><ele>193.0</ele><time>2026-04-18T13:06:36.002Z</time></trkpt><trkpt lat="45.054937622939455" lon="8.235308463317574"><ele>192.33333333333331</ele><time>2026-04-18T13:06:37.002Z</time></trkpt><trkpt lat="45.05494538472565" lon="8.23518827265618"><ele>191.66666666666666</ele><time>2026-04-18T13:06:38.002Z</time></trkpt><trkpt lat="45.05495028421468" lon="8.235092003755646"><ele>191.0</ele><time>2026-04-18T13:06:39.002Z</time></trkpt><trkpt lat="45.05495503134403" lon="8.234963407013622"><ele>190.33333333333331</ele><time>2026-04-18T13:06:41.002Z</time></trkpt><trkpt lat="45.05494773084328" lon="8.23486700734987"><ele>189.66666666666666</ele><time>2026-04-18T13:06:42.002Z</time></trkpt><trkpt lat="45.05493468231939" lon="8.234761242571523"><ele>189.0</ele><time>2026-04-18T13:06:43.002Z</time></trkpt><trkpt lat="45.05492762169901" lon="8.23467137765877"><ele>188.79999999999998</ele><time>2026-04-18T13:06:44.002Z</time></trkpt><trkpt lat="45.05492153520402" lon="8.234556322206476"><ele>188.6</ele><time>2026-04-18T13:06:45.002Z</time></trkpt><trkpt lat="45.054909221827266" lon="8.23442177994358"><ele>188.4</ele><time>2026-04-18T13:06:46.002Z</time></trkpt><trkpt lat="45.05488627712773" lon="8.234266861246121"><ele>188.2</ele><time>2026-04-18T13:06:47.002Z</time></trkpt><trkpt lat="45.05486531080852" lon="8.234095514306096"><ele>188.0</ele><time>2026-04-18T13:06:48.002Z</time></trkpt><trkpt lat="45.054842296283745" lon="8.233931970161441"><ele>188.0</ele><time>2026-04-18T13:06:49.002Z</time></trkpt><trkpt lat="45.05481818748263" lon="8.233756353796819"><ele>188.0</ele><time>2026-04-18T13:06:50.002Z</time></trkpt><trkpt lat="45.05480054178967" lon="8.233587133386944"><ele>188.0</ele><time>2026-04-18T13:06:51.002Z</time></trkpt><trkpt lat="45.054767389818075" lon="8.233428427686512"><ele>188.0</ele><time>2026-04-18T13:06:52.002Z</time></trkpt><trkpt lat="45.0547093942706" lon="8.233300815064336"><ele>188.0</ele><time>2026-04-18T13:06:53.002Z</time></trkpt><trkpt lat="45.0546232899695" lon="8.233216837552863"><ele>188.0</ele><time>2026-04-18T13:06:54.002Z</time></trkpt><trkpt lat="45.05450471977693" lon="8.233178289127745"><ele>188.0</ele><time>2026-04-18T13:06:55.002Z</time></trkpt><trkpt lat="45.05437786281339" lon="8.2331582879583"><ele>188.0</ele><time>2026-04-18T13:06:56.002Z</time></trkpt><trkpt lat="45.054241922475576" lon="8.233139532812837"><ele>189.75</ele><time>2026-04-18T13:06:57.003Z</time></trkpt><trkpt lat="45.054092228300526" lon="8.233108194102195"><ele>191.5</ele><time>2026-04-18T13:06:58.003Z</time></trkpt><trkpt lat="45.05393952689218" lon="8.233072561794227"><ele>193.25</ele><time>2026-04-18T13:06:59.003Z</time></trkpt><trkpt lat="45.05379870897006" lon="8.233040286891601"><ele>195.0</ele><time>2026-04-18T13:07:00.003Z</time></trkpt><trkpt lat="45.053654202045315" lon="8.233010459837297"><ele>195.0</ele><time>2026-04-18T13:07:01.003Z</time></trkpt><trkpt lat="45.05350875592348" lon="8.232981688463125"><ele>195.0</ele><time>2026-04-18T13:07:02.003Z</time></trkpt><trkpt lat="45.053360155834845" lon="8.232949042710931"><ele>195.0</ele><time>2026-04-18T13:07:03.003Z</time></trkpt><trkpt lat="45.053212285991876" lon="8.232917165352232"><ele>195.0</ele><time>2026-04-18T13:07:04.003Z</time></trkpt><trkpt lat="45.05308321588926" lon="8.232882320050473"><ele>193.5</ele><time>2026-04-18T13:07:05.003Z</time></trkpt><trkpt lat="45.0529506053771" lon="8.232832914239609"><ele>192.0</ele><time>2026-04-18T13:07:06.003Z</time></trkpt><trkpt lat="45.05283459459571" lon="8.232744415464474"><ele>190.5</ele><time>2026-04-18T13:07:07.003Z</time></trkpt><trkpt lat="45.05272943903029" lon="8.232648637055807"><ele>189.0</ele><time>2026-04-18T13:07:08.003Z</time></trkpt><trkpt lat="45.05261308608496" lon="8.232544539716594"><ele>189.0</ele><time>2026-04-18T13:07:09.003Z</time></trkpt><trkpt lat="45.052514701464666" lon="8.232460754534687"><ele>189.0</ele><time>2026-04-18T13:07:10.003Z</time></trkpt><trkpt lat="45.05242450578552" lon="8.232376116694558"><ele>189.0</ele><time>2026-04-18T13:07:11.003Z</time></trkpt><trkpt lat="45.052361190212196" lon="8.23227966039962"><ele>189.0</ele><time>2026-04-18T13:07:12.003Z</time></trkpt><trkpt lat="45.05231140976888" lon="8.232163072975986"><ele>189.0</ele><time>2026-04-18T13:07:13.003Z</time></trkpt><trkpt lat="45.05223047461251" lon="8.23205920799602"><ele>188.5</ele><time>2026-04-18T13:07:14.003Z</time></trkpt><trkpt lat="45.05212371651634" lon="8.232001313489818"><ele>188.0</ele><time>2026-04-18T13:07:15.003Z</time></trkpt><trkpt lat="45.05201610854044" lon="8.231923104014134"><ele>187.5</ele><time>2026-04-18T13:07:16.003Z</time></trkpt><trkpt lat="45.05191062040035" lon="8.23182795945708"><ele>187.0</ele><time>2026-04-18T13:07:17.003Z</time></trkpt><trkpt lat="45.05180931149279" lon="8.231717840807285"><ele>187.0</ele><time>2026-04-18T13:07:18.003Z</time></trkpt><trkpt lat="45.05170810785578" lon="8.231585630234155"><ele>187.0</ele><time>2026-04-18T13:07:19.003Z</time></trkpt><trkpt lat="45.0516066099986" lon="8.231440704300624"><ele>187.0</ele><time>2026-04-18T13:07:20.003Z</time></trkpt><trkpt lat="45.05149884529075" lon="8.231292164172192"><ele>187.0</ele><time>2026-04-18T13:07:21.003Z</time></trkpt><trkpt lat="45.05139263657809" lon="8.231129584919689"><ele>187.0</ele><time>2026-04-18T13:07:22.003Z</time></trkpt><trkpt lat="45.05127418616438" lon="8.230970619315666"><ele>187.0</ele><time>2026-04-18T13:07:23.003Z</time></trkpt><trkpt lat="45.051159344537716" lon="8.230793478810686"><ele>187.0</ele><time>2026-04-18T13:07:24.003Z</time></trkpt><trkpt lat="45.051049396253326" lon="8.230621304417035"><ele>187.0</ele><time>2026-04-18T13:07:25.003Z</time></trkpt><trkpt lat="45.05093863805311" lon="8.23044938549987"><ele>187.0</ele><time>2026-04-18T13:07:26.003Z</time></trkpt><trkpt lat="45.05084258080409" lon="8.23029596015881"><ele>187.0</ele><time>2026-04-18T13:07:27Z</time></trkpt><trkpt lat="45.050744477157785" lon="8.230145877773138"><ele>187.0</ele><time>2026-04-18T13:07:28Z</time></trkpt><trkpt lat="45.050655467705475" lon="8.22999806689754"><ele>187.0</ele><time>2026-04-18T13:07:29Z</time></trkpt><trkpt lat="45.05057048711975" lon="8.2298405046115"><ele>187.0</ele><time>2026-04-18T13:07:30Z</time></trkpt><trkpt lat="45.050498519636164" lon="8.229665994238678"><ele>187.0</ele><time>2026-04-18T13:07:31Z</time></trkpt><trkpt lat="45.0504399326109" lon="8.229479773464071"><ele>188.0</ele><time>2026-04-18T13:07:32Z</time></trkpt><trkpt lat="45.05038496985045" lon="8.22928256029104"><ele>189.0</ele><time>2026-04-18T13:07:33Z</time></trkpt><trkpt lat="45.05032628195038" lon="8.22907922873236"><ele>190.0</ele><time>2026-04-18T13:07:34Z</time></trkpt><trkpt lat="45.0502623722862" lon="8.228876586267118"><ele>190.33333333333334</ele><time>2026-04-18T13:07:35Z</time></trkpt><trkpt lat="45.050195968947634" lon="8.228677252998274"><ele>190.66666666666666</ele><time>2026-04-18T13:07:36Z</time></trkpt><trkpt lat="45.05012830389903" lon="8.228476382296806"><ele>191.0</ele><time>2026-04-18T13:07:37Z</time></trkpt><trkpt lat="45.050057780244074" lon="8.228277191649367"><ele>191.75</ele><time>2026-04-18T13:07:38Z</time></trkpt><trkpt lat="45.04998723397832" lon="8.22810188519299"><ele>192.5</ele><time>2026-04-18T13:07:39Z</time></trkpt><trkpt lat="45.04991065964466" lon="8.227937338820194"><ele>193.25</ele><time>2026-04-18T13:07:40Z</time></trkpt><trkpt lat="45.049831631065075" lon="8.22778744300062"><ele>194.0</ele><time>2026-04-18T13:07:41Z</time></trkpt><trkpt lat="45.04976289614874" lon="8.227657587274196"><ele>194.6</ele><time>2026-04-18T13:07:42Z</time></trkpt><trkpt lat="45.04969787461614" lon="8.227535610475535"><ele>195.2</ele><time>2026-04-18T13:07:43Z</time></trkpt><trkpt lat="45.04964668758463" lon="8.227418111602557"><ele>195.79999999999998</ele><time>2026-04-18T13:07:44Z</time></trkpt><trkpt lat="45.04961300666568" lon="8.227298415751823"><ele>196.39999999999998</ele><time>2026-04-18T13:07:45Z</time></trkpt><trkpt lat="45.049617095933804" lon="8.227171542189643"><ele>197.0</ele><time>2026-04-18T13:07:46Z</time></trkpt><trkpt lat="45.04966889696597" lon="8.227057435351076"><ele>198.0</ele><time>2026-04-18T13:07:47Z</time></trkpt><trkpt lat="45.049764486363586" lon="8.226993461071627"><ele>199.0</ele><time>2026-04-18T13:07:48Z</time></trkpt><trkpt lat="45.04983979249518" lon="8.226895306766233"><ele>200.0</ele><time>2026-04-18T13:07:49Z</time></trkpt><trkpt lat="45.049893290328086" lon="8.22678319020428"><ele>201.0</ele><time>2026-04-18T13:07:50Z</time></trkpt><trkpt lat="45.049891452211085" lon="8.226644359060732"><ele>202.0</ele><time>2026-04-18T13:07:51Z</time></trkpt><trkpt lat="45.04983804404118" lon="8.22651402716413"><ele>204.0</ele><time>2026-04-18T13:07:52Z</time></trkpt><trkpt lat="45.04974545932571" lon="8.226420277569922"><ele>206.0</ele><time>2026-04-18T13:07:53Z</time></trkpt><trkpt lat="45.04962396350392" lon="8.226410722141857"><ele>208.0</ele><time>2026-04-18T13:07:54Z</time></trkpt><trkpt lat="45.0495207156524" lon="8.226420742366036"><ele>210.0</ele><time>2026-04-18T13:07:55Z</time></trkpt><trkpt lat="45.0494119471416" lon="8.22640480013312"><ele>212.0</ele><time>2026-04-18T13:07:56.001Z</time></trkpt><trkpt lat="45.04931902127711" lon="8.226336319867933"><ele>212.0</ele><time>2026-04-18T13:07:57.001Z</time></trkpt><trkpt lat="45.049227263787024" lon="8.226238750867745"><ele>212.0</ele><time>2026-04-18T13:07:58.001Z</time></trkpt><trkpt lat="45.04914309513769" lon="8.226121947169279"><ele>212.0</ele><time>2026-04-18T13:07:59.001Z</time></trkpt><trkpt lat="45.049070069103145" lon="8.225985174475106"><ele>212.0</ele><time>2026-04-18T13:08:00.001Z</time></trkpt><trkpt lat="45.04899872198553" lon="8.225836491697986"><ele>211.33333333333334</ele><time>2026-04-18T13:08:01.001Z</time></trkpt><trkpt lat="45.048927436980804" lon="8.225668476329144"><ele>210.66666666666669</ele><time>2026-04-18T13:08:02.001Z</time></trkpt><trkpt lat="45.04885925631583" lon="8.225479612333219"><ele>210.0</ele><time>2026-04-18T13:08:03.001Z</time></trkpt><trkpt lat="45.04878256389351" lon="8.225259619555903"><ele>210.0</ele><time>2026-04-18T13:08:04.001Z</time></trkpt><trkpt lat="45.04869303932813" lon="8.225007208855802"><ele>210.0</ele><time>2026-04-18T13:08:05.001Z</time></trkpt><trkpt lat="45.04861102663165" lon="8.224767890830256"><ele>210.0</ele><time>2026-04-18T13:08:06.001Z</time></trkpt><trkpt lat="45.048526218318365" lon="8.224524063882626"><ele>213.0</ele><time>2026-04-18T13:08:07.001Z</time></trkpt><trkpt lat="45.04843684117895" lon="8.22427060348821"><ele>216.0</ele><time>2026-04-18T13:08:08.001Z</time></trkpt><trkpt lat="45.04834781194157" lon="8.224011343771544"><ele>219.0</ele><time>2026-04-18T13:08:09.001Z</time></trkpt><trkpt lat="45.0482545498416" lon="8.223764497922659"><ele>221.33333333333331</ele><time>2026-04-18T13:08:10.001Z</time></trkpt><trkpt lat="45.048156237521006" lon="8.223544995026325"><ele>223.66666666666666</ele><time>2026-04-18T13:08:11.001Z</time></trkpt><trkpt lat="45.04805799223765" lon="8.22334607846488"><ele>226.0</ele><time>2026-04-18T13:08:12.001Z</time></trkpt><trkpt lat="45.04797597944807" lon="8.223143690927026"><ele>229.66666666666666</ele><time>2026-04-18T13:08:13.001Z</time></trkpt><trkpt lat="45.04791593238682" lon="8.222933054784654"><ele>233.33333333333331</ele><time>2026-04-18T13:08:14.001Z</time></trkpt><trkpt lat="45.04786811048268" lon="8.222724264835414"><ele>237.0</ele><time>2026-04-18T13:08:15.001Z</time></trkpt><trkpt lat="45.047798483558296" lon="8.22252485052274"><ele>237.0</ele><time>2026-04-18T13:08:16.001Z</time></trkpt><trkpt lat="45.04769299132733" lon="8.222346426413228"><ele>237.0</ele><time>2026-04-18T13:08:17.001Z</time></trkpt><trkpt lat="45.04757493508227" lon="8.222165175040741"><ele>237.0</ele><time>2026-04-18T13:08:18.001Z</time></trkpt><trkpt lat="45.04746139900491" lon="8.221988076754906"><ele>237.75</ele><time>2026-04-18T13:08:19.001Z</time></trkpt><trkpt lat="45.047356389825865" lon="8.22183137765365"><ele>238.5</ele><time>2026-04-18T13:08:20.001Z</time></trkpt><trkpt lat="45.04725231627412" lon="8.221719515743148"><ele>239.25</ele><time>2026-04-18T13:08:21.001Z</time></trkpt><trkpt lat="45.04713019070718" lon="8.221650946140656"><ele>240.0</ele><time>2026-04-18T13:08:22.001Z</time></trkpt><trkpt lat="45.04699409232248" lon="8.221622480296098"><ele>240.0</ele><time>2026-04-18T13:08:23.001Z</time></trkpt><trkpt lat="45.046853444670276" lon="8.221556808749751"><ele>240.0</ele><time>2026-04-18T13:08:24.001Z</time></trkpt><trkpt lat="45.04672135244919" lon="8.221449192426686"><ele>240.0</ele><time>2026-04-18T13:08:25.001Z</time></trkpt><trkpt lat="45.04658694998032" lon="8.221323380548382"><ele>244.0</ele><time>2026-04-18T13:08:26.001Z</time></trkpt><trkpt lat="45.04644653929803" lon="8.221185047258176"><ele>248.0</ele><time>2026-04-18T13:08:27.001Z</time></trkpt><trkpt lat="45.046289090513184" lon="8.221014071445527"><ele>252.0</ele><time>2026-04-18T13:08:28.001Z</time></trkpt><trkpt lat="45.046140873171545" lon="8.220868075384564"><ele>252.0</ele><time>2026-04-18T13:08:29.002Z</time></trkpt><trkpt lat="45.04601012426703" lon="8.22074247847749"><ele>252.0</ele><time>2026-04-18T13:08:30.002Z</time></trkpt><trkpt lat="45.04588360286113" lon="8.220637133162779"><ele>252.0</ele><time>2026-04-18T13:08:31.002Z</time></trkpt><trkpt lat="45.045755034241026" lon="8.220572479640623"><ele>252.0</ele><time>2026-04-18T13:08:32.002Z</time></trkpt><trkpt lat="45.04562103941807" lon="8.220570915290157"><ele>253.6</ele><time>2026-04-18T13:08:33.002Z</time></trkpt><trkpt lat="45.045510369652945" lon="8.220627673129174"><ele>255.2</ele><time>2026-04-18T13:08:34.002Z</time></trkpt><trkpt lat="45.04542811323604" lon="8.22072625781408"><ele>256.8</ele><time>2026-04-18T13:08:35.002Z</time></trkpt><trkpt lat="45.04538013598721" lon="8.220871262329279"><ele>258.4</ele><time>2026-04-18T13:08:36.002Z</time></trkpt><trkpt lat="45.04536067575798" lon="8.221022175866217"><ele>260.0</ele><time>2026-04-18T13:08:37.002Z</time></trkpt><trkpt lat="45.045326336968714" lon="8.22114882621379"><ele>260.0</ele><time>2026-04-18T13:08:38.002Z</time></trkpt><trkpt lat="45.04525366143118" lon="8.221241840205417"><ele>260.0</ele><time>2026-04-18T13:08:39.002Z</time></trkpt><trkpt lat="45.045149228111995" lon="8.221272036198837"><ele>260.0</ele><time>2026-04-18T13:08:40.002Z</time></trkpt><trkpt lat="45.04504945873729" lon="8.221225197614885"><ele>260.0</ele><time>2026-04-18T13:08:41.002Z</time></trkpt><trkpt lat="45.04497553457772" lon="8.221125078634701"><ele>260.0</ele><time>2026-04-18T13:08:42.002Z</time></trkpt><trkpt lat="45.0449272215238" lon="8.220972145589787"><ele>262.0</ele><time>2026-04-18T13:08:43.002Z</time></trkpt><trkpt lat="45.044917117854126" lon="8.22078561063679"><ele>264.0</ele><time>2026-04-18T13:08:44.002Z</time></trkpt><trkpt lat="45.04487677833641" lon="8.22057685016506"><ele>266.0</ele><time>2026-04-18T13:08:45.002Z</time></trkpt><trkpt lat="45.04484680793884" lon="8.220352166024492"><ele>268.0</ele><time>2026-04-18T13:08:46.002Z</time></trkpt><trkpt lat="45.04480879096478" lon="8.220140112979559"><ele>268.0</ele><time>2026-04-18T13:08:47.002Z</time></trkpt><trkpt lat="45.04477349627825" lon="8.219958394525792"><ele>268.0</ele><time>2026-04-18T13:08:48.002Z</time></trkpt><trkpt lat="45.04477584607882" lon="8.219801146047413"><ele>268.0</ele><time>2026-04-18T13:08:49.002Z</time></trkpt><trkpt lat="45.044797151092034" lon="8.219671294649396"><ele>268.0</ele><time>2026-04-18T13:08:50.002Z</time></trkpt><trkpt lat="45.04485023365161" lon="8.219578176615292"><ele>268.0</ele><time>2026-04-18T13:08:51.002Z</time></trkpt><trkpt lat="45.044914901587404" lon="8.219477530436079"><ele>267.25</ele><time>2026-04-18T13:08:52.002Z</time></trkpt><trkpt lat="45.04502517314526" lon="8.219444247903523"><ele>266.5</ele><time>2026-04-18T13:08:53.002Z</time></trkpt><trkpt lat="45.04513348679146" lon="8.21937615531265"><ele>265.75</ele><time>2026-04-18T13:08:54.002Z</time></trkpt><trkpt lat="45.04524941892546" lon="8.219281898325619"><ele>265.0</ele><time>2026-04-18T13:08:55.002Z</time></trkpt><trkpt lat="45.04537667136768" lon="8.219187060393738"><ele>265.0</ele><time>2026-04-18T13:08:56.002Z</time></trkpt><trkpt lat="45.04550082800892" lon="8.219059844609616"><ele>265.0</ele><time>2026-04-18T13:08:57.002Z</time></trkpt><trkpt lat="45.04560977819987" lon="8.218891539250572"><ele>265.0</ele><time>2026-04-18T13:08:58.002Z</time></trkpt><trkpt lat="45.04569948536545" lon="8.21872608217547"><ele>265.25</ele><time>2026-04-18T13:08:59.002Z</time></trkpt><trkpt lat="45.045783275398186" lon="8.218583263488126"><ele>265.5</ele><time>2026-04-18T13:09:00.002Z</time></trkpt><trkpt lat="45.04587408742878" lon="8.21844849037626"><ele>265.75</ele><time>2026-04-18T13:09:01.002Z</time></trkpt><trkpt lat="45.045974728419516" lon="8.218333675769138"><ele>266.0</ele><time>2026-04-18T13:09:02.003Z</time></trkpt><trkpt lat="45.04609623536328" lon="8.21824865158734"><ele>266.0</ele><time>2026-04-18T13:09:03.003Z</time></trkpt><trkpt lat="45.04622460349119" lon="8.218180685945276"><ele>266.0</ele><time>2026-04-18T13:09:04.003Z</time></trkpt><trkpt lat="45.046363969293054" lon="8.218162335892394"><ele>266.0</ele><time>2026-04-18T13:09:05.003Z</time></trkpt><trkpt lat="45.04650166880021" lon="8.218144723647868"><ele>266.0</ele><time>2026-04-18T13:09:06.003Z</time></trkpt><trkpt lat="45.0466437483839" lon="8.21816222865467"><ele>265.6666666666667</ele><time>2026-04-18T13:09:07.003Z</time></trkpt><trkpt lat="45.04679012626546" lon="8.218156367213515"><ele>265.3333333333333</ele><time>2026-04-18T13:09:08.003Z</time></trkpt><trkpt lat="45.04695311726377" lon="8.21811929001838"><ele>265.0</ele><time>2026-04-18T13:09:09.003Z</time></trkpt><trkpt lat="45.04711830367543" lon="8.21807079379057"><ele>265.0</ele><time>2026-04-18T13:09:10.003Z</time></trkpt><trkpt lat="45.047272003491095" lon="8.217997979748844"><ele>265.0</ele><time>2026-04-18T13:09:11.003Z</time></trkpt><trkpt lat="45.04740568435277" lon="8.217926533329342"><ele>265.0</ele><time>2026-04-18T13:09:12.003Z</time></trkpt><trkpt lat="45.04757027637698" lon="8.217846247930012"><ele>268.66666666666663</ele><time>2026-04-18T13:09:13.003Z</time></trkpt><trkpt lat="45.04770736942247" lon="8.217717917969717"><ele>272.3333333333333</ele><time>2026-04-18T13:09:14.003Z</time></trkpt><trkpt lat="45.04783383968888" lon="8.217566039614177"><ele>276.0</ele><time>2026-04-18T13:09:15.003Z</time></trkpt><trkpt lat="45.04795396706534" lon="8.217424917326483"><ele>276.0</ele><time>2026-04-18T13:09:16.003Z</time></trkpt><trkpt lat="45.04808578078686" lon="8.217363190649765"><ele>276.0</ele><time>2026-04-18T13:09:17.003Z</time></trkpt><trkpt lat="45.048201289927455" lon="8.217278429128228"><ele>276.0</ele><time>2026-04-18T13:09:18.003Z</time></trkpt><trkpt lat="45.04831465796691" lon="8.217236981160337"><ele>276.0</ele><time>2026-04-18T13:09:19.003Z</time></trkpt><trkpt lat="45.048409029715366" lon="8.217177320183621"><ele>275.75</ele><time>2026-04-18T13:09:20.003Z</time></trkpt><trkpt lat="45.048514975654165" lon="8.21707907166908"><ele>275.5</ele><time>2026-04-18T13:09:21.003Z</time></trkpt><trkpt lat="45.04862920112915" lon="8.216964015832238"><ele>275.25</ele><time>2026-04-18T13:09:22.003Z</time></trkpt><trkpt lat="45.04873722973728" lon="8.216846379349384"><ele>275.0</ele><time>2026-04-18T13:09:23.003Z</time></trkpt><trkpt lat="45.048825511198054" lon="8.21675794319939"><ele>275.0</ele><time>2026-04-18T13:09:24.003Z</time></trkpt><trkpt lat="45.04890740144212" lon="8.21665815628728"><ele>275.0</ele><time>2026-04-18T13:09:25.003Z</time></trkpt><trkpt lat="45.04899902260566" lon="8.216553106707272"><ele>275.0</ele><time>2026-04-18T13:09:26.003Z</time></trkpt><trkpt lat="45.049083653820475" lon="8.216452152078977"><ele>275.0</ele><time>2026-04-18T13:09:27.003Z</time></trkpt><trkpt lat="45.04916220898042" lon="8.216368516441694"><ele>275.0</ele><time>2026-04-18T13:09:28.003Z</time></trkpt><trkpt lat="45.04924456220179" lon="8.216273767740866"><ele>275.8</ele><time>2026-04-18T13:09:29.003Z</time></trkpt><trkpt lat="45.049331367858315" lon="8.216174305075619"><ele>276.6</ele><time>2026-04-18T13:09:30.003Z</time></trkpt><trkpt lat="45.04940504459042" lon="8.216091148923189"><ele>277.4</ele><time>2026-04-18T13:09:31.003Z</time></trkpt><trkpt lat="45.04946153161806" lon="8.216003345880484"><ele>278.2</ele><time>2026-04-18T13:09:32.003Z</time></trkpt><trkpt lat="45.04951559334744" lon="8.215887922202498"><ele>279.0</ele><time>2026-04-18T13:09:33Z</time></trkpt><trkpt lat="45.04954595926875" lon="8.215764007770154"><ele>280.5</ele><time>2026-04-18T13:09:34Z</time></trkpt><trkpt lat="45.049551122236345" lon="8.215619929200535"><ele>282.0</ele><time>2026-04-18T13:09:35Z</time></trkpt><trkpt lat="45.04950641501136" lon="8.215445200636113"><ele>283.5</ele><time>2026-04-18T13:09:36Z</time></trkpt><trkpt lat="45.049458459493565" lon="8.215289326065113"><ele>285.0</ele><time>2026-04-18T13:09:37Z</time></trkpt><trkpt lat="45.04940291063284" lon="8.21514981551563"><ele>285.0</ele><time>2026-04-18T13:09:38Z</time></trkpt><trkpt lat="45.0493403284892" lon="8.215029117517435"><ele>285.0</ele><time>2026-04-18T13:09:39Z</time></trkpt><trkpt lat="45.04925653114985" lon="8.21492449207076"><ele>285.0</ele><time>2026-04-18T13:09:40Z</time></trkpt><trkpt lat="45.04913388366667" lon="8.214853413467543"><ele>285.0</ele><time>2026-04-18T13:09:41Z</time></trkpt><trkpt lat="45.04898016469353" lon="8.214810804197233"><ele>285.6666666666667</ele><time>2026-04-18T13:09:42Z</time></trkpt><trkpt lat="45.048788944577424" lon="8.214706659820257"><ele>286.33333333333337</ele><time>2026-04-18T13:09:43Z</time></trkpt><trkpt lat="45.0486108033053" lon="8.214637355648684"><ele>287.0</ele><time>2026-04-18T13:09:44Z</time></trkpt><trkpt lat="45.04848892099646" lon="8.214550428836992"><ele>287.0</ele><time>2026-04-18T13:09:45Z</time></trkpt><trkpt lat="45.04840486566364" lon="8.214440542049166"><ele>287.0</ele><time>2026-04-18T13:09:46Z</time></trkpt><trkpt lat="45.04834178669881" lon="8.214298022792523"><ele>287.0</ele><time>2026-04-18T13:09:47Z</time></trkpt><trkpt lat="45.048320436005014" lon="8.214140220934487"><ele>287.0</ele><time>2026-04-18T13:09:48Z</time></trkpt><trkpt lat="45.04831265527034" lon="8.213959834706062"><ele>284.75</ele><time>2026-04-18T13:09:49Z</time></trkpt><trkpt lat="45.0482895598996" lon="8.213743787186193"><ele>282.5</ele><time>2026-04-18T13:09:50Z</time></trkpt><trkpt lat="45.048269060502356" lon="8.213554486511123"><ele>280.25</ele><time>2026-04-18T13:09:51Z</time></trkpt><trkpt lat="45.048207216854856" lon="8.213400825675157"><ele>278.0</ele><time>2026-04-18T13:09:52Z</time></trkpt><trkpt lat="45.04811411716448" lon="8.213295876331731"><ele>278.0</ele><time>2026-04-18T13:09:53Z</time></trkpt><trkpt lat="45.04799489692118" lon="8.21316684170506"><ele>278.0</ele><time>2026-04-18T13:09:54Z</time></trkpt><trkpt lat="45.047918846122556" lon="8.213049096971577"><ele>278.0</ele><time>2026-04-18T13:09:55Z</time></trkpt><trkpt lat="45.04784178817312" lon="8.212939319297517"><ele>278.0</ele><time>2026-04-18T13:09:56Z</time></trkpt><trkpt lat="45.04777842855092" lon="8.212832459307075"><ele>278.75</ele><time>2026-04-18T13:09:57Z</time></trkpt><trkpt lat="45.04775783163041" lon="8.21270092880192"><ele>279.5</ele><time>2026-04-18T13:09:58Z</time></trkpt><trkpt lat="45.04773962655331" lon="8.212557467477772"><ele>280.25</ele><time>2026-04-18T13:09:59Z</time></trkpt><trkpt lat="45.04773544699425" lon="8.212388252947884"><ele>281.0</ele><time>2026-04-18T13:10:00Z</time></trkpt><trkpt lat="45.04775506479922" lon="8.212188042489862"><ele>281.0</ele><time>2026-04-18T13:10:01Z</time></trkpt><trkpt lat="45.04777019421528" lon="8.211968104680212"><ele>281.0</ele><time>2026-04-18T13:10:02.001Z</time></trkpt><trkpt lat="45.047824471076936" lon="8.211737092040982"><ele>281.0</ele><time>2026-04-18T13:10:03.001Z</time></trkpt><trkpt lat="45.047881504996106" lon="8.21152756105941"><ele>279.75</ele><time>2026-04-18T13:10:04.001Z</time></trkpt><trkpt lat="45.04793807348044" lon="8.211338366747274"><ele>278.5</ele><time>2026-04-18T13:10:05.001Z</time></trkpt><trkpt lat="45.047982650742675" lon="8.211162509515715"><ele>277.25</ele><time>2026-04-18T13:10:06.001Z</time></trkpt><trkpt lat="45.04802289366847" lon="8.21100398251218"><ele>276.0</ele><time>2026-04-18T13:10:07.001Z</time></trkpt><trkpt lat="45.04806545395423" lon="8.210879777888376"><ele>276.0</ele><time>2026-04-18T13:10:08.001Z</time></trkpt><trkpt lat="45.04806860614654" lon="8.210766526393915"><ele>276.0</ele><time>2026-04-18T13:10:09.001Z</time></trkpt><trkpt lat="45.04811673939722" lon="8.210647072750223"><ele>276.0</ele><time>2026-04-18T13:10:10.001Z</time></trkpt><trkpt lat="45.04805585217659" lon="8.210472365054413"><ele>276.0</ele><time>2026-04-18T13:10:11.001Z</time></trkpt><trkpt lat="45.048058628874905" lon="8.210275887064249"><ele>276.0</ele><time>2026-04-18T13:10:12.001Z</time></trkpt><trkpt lat="45.0480393353731" lon="8.210079253887573"><ele>276.0</ele><time>2026-04-18T13:10:13.001Z</time></trkpt><trkpt lat="45.04799416143169" lon="8.209872177106098"><ele>276.0</ele><time>2026-04-18T13:10:14.001Z</time></trkpt><trkpt lat="45.04795662808381" lon="8.209661426626255"><ele>276.0</ele><time>2026-04-18T13:10:15.001Z</time></trkpt><trkpt lat="45.04791523266494" lon="8.209487907721156"><ele>276.0</ele><time>2026-04-18T13:10:16.001Z</time></trkpt><trkpt lat="45.047885182776895" lon="8.209311495493864"><ele>276.0</ele><time>2026-04-18T13:10:17.001Z</time></trkpt><trkpt lat="45.047854445150335" lon="8.209135413479018"><ele>276.0</ele><time>2026-04-18T13:10:18.001Z</time></trkpt><trkpt lat="45.047824222701934" lon="8.208961919517202"><ele>276.0</ele><time>2026-04-18T13:10:19.001Z</time></trkpt><trkpt lat="45.047796491560845" lon="8.208802240081827"><ele>276.0</ele><time>2026-04-18T13:10:20.001Z</time></trkpt><trkpt lat="45.04783958479675" lon="8.208628975369855"><ele>276.0</ele><time>2026-04-18T13:10:21.001Z</time></trkpt><trkpt lat="45.04785055148053" lon="8.208445691564545"><ele>276.0</ele><time>2026-04-18T13:10:22.001Z</time></trkpt><trkpt lat="45.0478763033634" lon="8.208278846257757"><ele>276.0</ele><time>2026-04-18T13:10:23.001Z</time></trkpt><trkpt lat="45.047896134554854" lon="8.208105538173768"><ele>275.0</ele><time>2026-04-18T13:10:24.001Z</time></trkpt><trkpt lat="45.04791575964322" lon="8.207926105402095"><ele>274.0</ele><time>2026-04-18T13:10:25.001Z</time></trkpt><trkpt lat="45.047940932390844" lon="8.20776379246734"><ele>273.0</ele><time>2026-04-18T13:10:26.001Z</time></trkpt><trkpt lat="45.04797648000581" lon="8.207620729711609"><ele>272.0</ele><time>2026-04-18T13:10:27.001Z</time></trkpt><trkpt lat="45.04803693144511" lon="8.20750770698098"><ele>272.0</ele><time>2026-04-18T13:10:28.001Z</time></trkpt><trkpt lat="45.04811647854367" lon="8.20741080984064"><ele>272.0</ele><time>2026-04-18T13:10:29.001Z</time></trkpt><trkpt lat="45.04821679271431" lon="8.207318692463614"><ele>272.0</ele><time>2026-04-18T13:10:30.001Z</time></trkpt><trkpt lat="45.04833490942056" lon="8.207218841522852"><ele>272.0</ele><time>2026-04-18T13:10:31.001Z</time></trkpt><trkpt lat="45.04846132580603" lon="8.207118382000836"><ele>271.6666666666667</ele><time>2026-04-18T13:10:32.001Z</time></trkpt><trkpt lat="45.04860760439595" lon="8.20701779957144"><ele>271.3333333333333</ele><time>2026-04-18T13:10:33.001Z</time></trkpt><trkpt lat="45.04875557449521" lon="8.20691233427591"><ele>271.0</ele><time>2026-04-18T13:10:34.001Z</time></trkpt><trkpt lat="45.04890556703555" lon="8.206800259353187"><ele>271.0</ele><time>2026-04-18T13:10:35.001Z</time></trkpt><trkpt lat="45.049052173643986" lon="8.206687508373797"><ele>271.0</ele><time>2026-04-18T13:10:36.001Z</time></trkpt><trkpt lat="45.04919223580783" lon="8.206585670186813"><ele>271.0</ele><time>2026-04-18T13:10:37.001Z</time></trkpt><trkpt lat="45.0493193169153" lon="8.206492790214874"><ele>271.2</ele><time>2026-04-18T13:10:38.001Z</time></trkpt><trkpt lat="45.0494306648904" lon="8.206410538749424"><ele>271.40000000000003</ele><time>2026-04-18T13:10:39.001Z</time></trkpt><trkpt lat="45.04952727290188" lon="8.206324451992149"><ele>271.6</ele><time>2026-04-18T13:10:40.001Z</time></trkpt><trkpt lat="45.04960047859065" lon="8.206224143416684"><ele>271.8</ele><time>2026-04-18T13:10:41.002Z</time></trkpt><trkpt lat="45.04964736460471" lon="8.206101436112585"><ele>272.0</ele><time>2026-04-18T13:10:42.002Z</time></trkpt><trkpt lat="45.049676866266196" lon="8.205945038368114"><ele>272.0</ele><time>2026-04-18T13:10:43.002Z</time></trkpt><trkpt lat="45.0496937279509" lon="8.205770340093194"><ele>272.0</ele><time>2026-04-18T13:10:44.002Z</time></trkpt><trkpt lat="45.0497132180287" lon="8.205589400557262"><ele>272.0</ele><time>2026-04-18T13:10:45.002Z</time></trkpt><trkpt lat="45.04974360150563" lon="8.205390363668332"><ele>272.0</ele><time>2026-04-18T13:10:46.002Z</time></trkpt><trkpt lat="45.04972559303665" lon="8.205153482431903"><ele>270.33333333333337</ele><time>2026-04-18T13:10:47.002Z</time></trkpt><trkpt lat="45.0497059932768" lon="8.204925754013265"><ele>268.6666666666667</ele><time>2026-04-18T13:10:48.002Z</time></trkpt><trkpt lat="45.049693755751484" lon="8.2047147791766"><ele>267.0</ele><time>2026-04-18T13:10:49.002Z</time></trkpt><trkpt lat="45.04970488556176" lon="8.204492785852365"><ele>265.3333333333333</ele><time>2026-04-18T13:10:50.002Z</time></trkpt><trkpt lat="45.04974570869685" lon="8.204258564479392"><ele>263.66666666666663</ele><time>2026-04-18T13:10:51.002Z</time></trkpt><trkpt lat="45.04979739069121" lon="8.204027139572506"><ele>262.0</ele><time>2026-04-18T13:10:52.002Z</time></trkpt><trkpt lat="45.04986173555062" lon="8.203777992802099"><ele>261.3333333333333</ele><time>2026-04-18T13:10:53.002Z</time></trkpt><trkpt lat="45.04992114586948" lon="8.203538705275898"><ele>260.6666666666667</ele><time>2026-04-18T13:10:54.002Z</time></trkpt><trkpt lat="45.049972704719245" lon="8.203321858458766"><ele>260.0</ele><time>2026-04-18T13:10:55.002Z</time></trkpt><trkpt lat="45.0500324579433" lon="8.203108200849131"><ele>261.33333333333337</ele><time>2026-04-18T13:10:56.002Z</time></trkpt><trkpt lat="45.0501058459435" lon="8.202891713878744"><ele>262.6666666666667</ele><time>2026-04-18T13:10:57.002Z</time></trkpt><trkpt lat="45.050190493121065" lon="8.202673450237334"><ele>264.0</ele><time>2026-04-18T13:10:58.002Z</time></trkpt><trkpt lat="45.05028562902196" lon="8.2024469666364"><ele>262.0</ele><time>2026-04-18T13:10:59.002Z</time></trkpt><trkpt lat="45.05038034280295" lon="8.202209934847986"><ele>260.0</ele><time>2026-04-18T13:11:00.002Z</time></trkpt><trkpt lat="45.050454096578136" lon="8.201970958572753"><ele>258.0</ele><time>2026-04-18T13:11:01.002Z</time></trkpt><trkpt lat="45.05052535796787" lon="8.201742018967423"><ele>258.0</ele><time>2026-04-18T13:11:02.002Z</time></trkpt><trkpt lat="45.050616063267945" lon="8.201553567539115"><ele>258.0</ele><time>2026-04-18T13:11:03.002Z</time></trkpt><trkpt lat="45.05068511035894" lon="8.201377127168747"><ele>258.0</ele><time>2026-04-18T13:11:04.002Z</time></trkpt><trkpt lat="45.05076407238193" lon="8.201213160198165"><ele>258.0</ele><time>2026-04-18T13:11:05.002Z</time></trkpt><trkpt lat="45.05083147779959" lon="8.201039962290446"><ele>260.0</ele><time>2026-04-18T13:11:06.002Z</time></trkpt><trkpt lat="45.05091087394611" lon="8.200874334312587"><ele>262.0</ele><time>2026-04-18T13:11:07.002Z</time></trkpt><trkpt lat="45.05096461954783" lon="8.200687879190241"><ele>264.0</ele><time>2026-04-18T13:11:08.002Z</time></trkpt><trkpt lat="45.05103698559284" lon="8.200513265979646"><ele>266.0</ele><time>2026-04-18T13:11:09.002Z</time></trkpt><trkpt lat="45.0510937194732" lon="8.200331889640166"><ele>266.0</ele><time>2026-04-18T13:11:10.002Z</time></trkpt><trkpt lat="45.05113784111847" lon="8.200121055329861"><ele>266.0</ele><time>2026-04-18T13:11:11.002Z</time></trkpt><trkpt lat="45.051170791964445" lon="8.199906882193018"><ele>266.0</ele><time>2026-04-18T13:11:12.002Z</time></trkpt><trkpt lat="45.051199443014774" lon="8.199699507915067"><ele>265.5</ele><time>2026-04-18T13:11:13.002Z</time></trkpt><trkpt lat="45.05123659465304" lon="8.199518137845587"><ele>265.0</ele><time>2026-04-18T13:11:14.002Z</time></trkpt><trkpt lat="45.051269961002916" lon="8.199344439288133"><ele>264.5</ele><time>2026-04-18T13:11:15.002Z</time></trkpt><trkpt lat="45.051314694267205" lon="8.199170733841624"><ele>264.0</ele><time>2026-04-18T13:11:16.002Z</time></trkpt><trkpt lat="45.051380393854636" lon="8.19899859185435"><ele>264.0</ele><time>2026-04-18T13:11:17.002Z</time></trkpt><trkpt lat="45.05145420804648" lon="8.198811102869364"><ele>264.0</ele><time>2026-04-18T13:11:18.002Z</time></trkpt><trkpt lat="45.05154381646962" lon="8.19861493548947"><ele>264.0</ele><time>2026-04-18T13:11:19.003Z</time></trkpt><trkpt lat="45.05162718482823" lon="8.198390992951293"><ele>262.3333333333333</ele><time>2026-04-18T13:11:20.003Z</time></trkpt><trkpt lat="45.051715765931476" lon="8.198167726351654"><ele>260.66666666666663</ele><time>2026-04-18T13:11:21.003Z</time></trkpt><trkpt lat="45.05179853319876" lon="8.197925084721627"><ele>259.0</ele><time>2026-04-18T13:11:22.003Z</time></trkpt><trkpt lat="45.05189625732444" lon="8.197694377979236"><ele>259.0</ele><time>2026-04-18T13:11:23.003Z</time></trkpt><trkpt lat="45.05200211005357" lon="8.1974539563067"><ele>259.0</ele><time>2026-04-18T13:11:24.003Z</time></trkpt><trkpt lat="45.05210289995123" lon="8.197219261537777"><ele>259.0</ele><time>2026-04-18T13:11:25.003Z</time></trkpt><trkpt lat="45.05219844431826" lon="8.196997157522265"><ele>256.3333333333333</ele><time>2026-04-18T13:11:26.003Z</time></trkpt><trkpt lat="45.05228970476998" lon="8.196783224884514"><ele>253.66666666666669</ele><time>2026-04-18T13:11:27.003Z</time></trkpt><trkpt lat="45.05236247501208" lon="8.196574604594298"><ele>251.0</ele><time>2026-04-18T13:11:28.003Z</time></trkpt><trkpt lat="45.05240791149346" lon="8.19635796458684"><ele>250.66666666666669</ele><time>2026-04-18T13:11:29.003Z</time></trkpt><trkpt lat="45.05240789804068" lon="8.196140425370256"><ele>250.33333333333331</ele><time>2026-04-18T13:11:30.003Z</time></trkpt><trkpt lat="45.052371777200385" lon="8.195904367049733"><ele>250.0</ele><time>2026-04-18T13:11:31.003Z</time></trkpt><trkpt lat="45.05230175046557" lon="8.195695998772397"><ele>251.33333333333331</ele><time>2026-04-18T13:11:32.003Z</time></trkpt><trkpt lat="45.05222836436918" lon="8.19551393351203"><ele>252.66666666666669</ele><time>2026-04-18T13:11:33.003Z</time></trkpt><trkpt lat="45.0521681856766" lon="8.195312668210846"><ele>254.0</ele><time>2026-04-18T13:11:34.003Z</time></trkpt><trkpt lat="45.052161004545326" lon="8.195097036541473"><ele>254.0</ele><time>2026-04-18T13:11:35.003Z</time></trkpt><trkpt lat="45.05218143937768" lon="8.194902435594008"><ele>254.0</ele><time>2026-04-18T13:11:36.003Z</time></trkpt><trkpt lat="45.052235330743294" lon="8.194731287520389"><ele>254.0</ele><time>2026-04-18T13:11:37.003Z</time></trkpt><trkpt lat="45.05227279815726" lon="8.194528695109387"><ele>254.0</ele><time>2026-04-18T13:11:38.003Z</time></trkpt><trkpt lat="45.05232659564415" lon="8.194335521417953"><ele>255.66666666666669</ele><time>2026-04-18T13:11:38.999Z</time></trkpt><trkpt lat="45.05235627371564" lon="8.194123629246649"><ele>257.3333333333333</ele><time>2026-04-18T13:11:39.999Z</time></trkpt><trkpt lat="45.052374051319894" lon="8.193902580702407"><ele>259.0</ele><time>2026-04-18T13:11:40.999Z</time></trkpt><trkpt lat="45.05238770138272" lon="8.193674020903675"><ele>261.0</ele><time>2026-04-18T13:11:41.999Z</time></trkpt><trkpt lat="45.052391526431094" lon="8.193452344800043"><ele>263.0</ele><time>2026-04-18T13:11:42.999Z</time></trkpt><trkpt lat="45.052377825255846" lon="8.193238863860094"><ele>265.0</ele><time>2026-04-18T13:11:43.999Z</time></trkpt><trkpt lat="45.05235502647072" lon="8.193006745334328"><ele>267.0</ele><time>2026-04-18T13:11:44.999Z</time></trkpt><trkpt lat="45.05234306526688" lon="8.192775920002404"><ele>269.0</ele><time>2026-04-18T13:11:45.999Z</time></trkpt><trkpt lat="45.05235191608976" lon="8.192545626878157"><ele>271.0</ele><time>2026-04-18T13:11:46.999Z</time></trkpt><trkpt lat="45.05237555711793" lon="8.192314204020505"><ele>273.0</ele><time>2026-04-18T13:11:47.999Z</time></trkpt><trkpt lat="45.05240891317027" lon="8.19208851367508"><ele>275.0</ele><time>2026-04-18T13:11:48.999Z</time></trkpt><trkpt lat="45.05244747339448" lon="8.191870668506127"><ele>277.0</ele><time>2026-04-18T13:11:50Z</time></trkpt><trkpt lat="45.052494347675776" lon="8.191666497880298"><ele>277.8</ele><time>2026-04-18T13:11:51Z</time></trkpt><trkpt lat="45.05254266087419" lon="8.191497235269662"><ele>278.6</ele><time>2026-04-18T13:11:52Z</time></trkpt><trkpt lat="45.05259011564497" lon="8.191347310357228"><ele>279.40000000000003</ele><time>2026-04-18T13:11:53Z</time></trkpt><trkpt lat="45.052627269552396" lon="8.191220462994107"><ele>280.2</ele><time>2026-04-18T13:11:54Z</time></trkpt><trkpt lat="45.05265330593514" lon="8.191072949141663"><ele>281.0</ele><time>2026-04-18T13:11:55Z</time></trkpt><trkpt lat="45.052681921682975" lon="8.190898804131846"><ele>281.0</ele><time>2026-04-18T13:11:56Z</time></trkpt><trkpt lat="45.05271866492561" lon="8.190707558275683"><ele>281.0</ele><time>2026-04-18T13:11:57Z</time></trkpt><trkpt lat="45.05275863002386" lon="8.19050535426449"><ele>281.0</ele><time>2026-04-18T13:11:58Z</time></trkpt><trkpt lat="45.05279824697264" lon="8.190300085719118"><ele>281.0</ele><time>2026-04-18T13:11:59Z</time></trkpt><trkpt lat="45.05283889736368" lon="8.190111966615019"><ele>279.5</ele><time>2026-04-18T13:12:00Z</time></trkpt><trkpt lat="45.052870726471745" lon="8.189928642004833"><ele>278.0</ele><time>2026-04-18T13:12:01Z</time></trkpt><trkpt lat="45.05288505000725" lon="8.189762782180994"><ele>276.5</ele><time>2026-04-18T13:12:02Z</time></trkpt><trkpt lat="45.05288900018504" lon="8.189597968250471"><ele>275.0</ele><time>2026-04-18T13:12:03Z</time></trkpt><trkpt lat="45.05288344376811" lon="8.1894462932591"><ele>274.0</ele><time>2026-04-18T13:12:04Z</time></trkpt><trkpt lat="45.05287698911095" lon="8.18929903676971"><ele>273.0</ele><time>2026-04-18T13:12:05Z</time></trkpt><trkpt lat="45.052898766358744" lon="8.189146510198691"><ele>272.0</ele><time>2026-04-18T13:12:06Z</time></trkpt><trkpt lat="45.052964599043804" lon="8.189024068918197"><ele>271.0</ele><time>2026-04-18T13:12:07Z</time></trkpt><trkpt lat="45.053019871121606" lon="8.188872226979628"><ele>270.0</ele><time>2026-04-18T13:12:08Z</time></trkpt><trkpt lat="45.05310820309154" lon="8.188726166638553"><ele>270.0</ele><time>2026-04-18T13:12:09Z</time></trkpt><trkpt lat="45.053204868674925" lon="8.188567463714863"><ele>270.0</ele><time>2026-04-18T13:12:10Z</time></trkpt><trkpt lat="45.05330092894359" lon="8.188405762172401"><ele>270.0</ele><time>2026-04-18T13:12:11Z</time></trkpt><trkpt lat="45.053388351891165" lon="8.188251120274577"><ele>270.0</ele><time>2026-04-18T13:12:12Z</time></trkpt><trkpt lat="45.05346798697555" lon="8.188104418424537"><ele>267.75</ele><time>2026-04-18T13:12:13Z</time></trkpt><trkpt lat="45.053547745240635" lon="8.187971782089331"><ele>265.5</ele><time>2026-04-18T13:12:14Z</time></trkpt><trkpt lat="45.05360303555682" lon="8.187828789751826"><ele>263.25</ele><time>2026-04-18T13:12:15.001Z</time></trkpt><trkpt lat="45.05361398943618" lon="8.187669688707135"><ele>261.0</ele><time>2026-04-18T13:12:16.001Z</time></trkpt><trkpt lat="45.05357856435863" lon="8.187512287672622"><ele>261.0</ele><time>2026-04-18T13:12:17.001Z</time></trkpt><trkpt lat="45.05351578785204" lon="8.187355833127118"><ele>261.0</ele><time>2026-04-18T13:12:18.001Z</time></trkpt><trkpt lat="45.053439178102956" lon="8.187224249955763"><ele>261.0</ele><time>2026-04-18T13:12:19.001Z</time></trkpt><trkpt lat="45.05334683913482" lon="8.187118672464733"><ele>261.0</ele><time>2026-04-18T13:12:20.001Z</time></trkpt><trkpt lat="45.05322473446299" lon="8.187063763059063"><ele>255.66666666666669</ele><time>2026-04-18T13:12:21.001Z</time></trkpt><trkpt lat="45.053084640423094" lon="8.18707094154571"><ele>250.33333333333334</ele><time>2026-04-18T13:12:22.001Z</time></trkpt><trkpt lat="45.05293453325428" lon="8.187135441015842"><ele>245.0</ele><time>2026-04-18T13:12:23.001Z</time></trkpt><trkpt lat="45.052767577882385" lon="8.187190404015215"><ele>245.0</ele><time>2026-04-18T13:12:24.001Z</time></trkpt><trkpt lat="45.052588672447776" lon="8.187239049751357"><ele>245.0</ele><time>2026-04-18T13:12:25.001Z</time></trkpt><trkpt lat="45.052413830072716" lon="8.187284551413871"><ele>245.0</ele><time>2026-04-18T13:12:26.001Z</time></trkpt><trkpt lat="45.05223753325699" lon="8.187329627997594"><ele>246.0</ele><time>2026-04-18T13:12:27.001Z</time></trkpt><trkpt lat="45.05205225809561" lon="8.187363822986333"><ele>247.0</ele><time>2026-04-18T13:12:28.001Z</time></trkpt><trkpt lat="45.05186781913475" lon="8.187392123625878"><ele>248.0</ele><time>2026-04-18T13:12:29.001Z</time></trkpt><trkpt lat="45.05169977638619" lon="8.187423649466396"><ele>246.25</ele><time>2026-04-18T13:12:30.001Z</time></trkpt><trkpt lat="45.05154385477548" lon="8.187457889641209"><ele>244.5</ele><time>2026-04-18T13:12:31.001Z</time></trkpt><trkpt lat="45.0514125325388" lon="8.187484243804102"><ele>242.75</ele><time>2026-04-18T13:12:32.001Z</time></trkpt><trkpt lat="45.05130247555194" lon="8.187503325612205"><ele>241.0</ele><time>2026-04-18T13:12:33.001Z</time></trkpt><trkpt lat="45.05120243380237" lon="8.187459887525756"><ele>241.0</ele><time>2026-04-18T13:12:34.001Z</time></trkpt><trkpt lat="45.05112275628395" lon="8.187382785396894"><ele>241.00000000000003</ele><time>2026-04-18T13:12:35.001Z</time></trkpt><trkpt lat="45.051055282795275" lon="8.187271434487766"><ele>241.00000000000003</ele><time>2026-04-18T13:12:36.001Z</time></trkpt><trkpt lat="45.05101741795348" lon="8.187126495835399"><ele>241.0</ele><time>2026-04-18T13:12:37.001Z</time></trkpt><trkpt lat="45.051009954506064" lon="8.186964773163963"><ele>241.0</ele><time>2026-04-18T13:12:38.001Z</time></trkpt><trkpt lat="45.05105131626114" lon="8.186829487504262"><ele>239.0</ele><time>2026-04-18T13:12:39.001Z</time></trkpt><trkpt lat="45.05112187238275" lon="8.186707024255078"><ele>237.0</ele><time>2026-04-18T13:12:40.001Z</time></trkpt><trkpt lat="45.051214453719034" lon="8.186567340782158"><ele>235.0</ele><time>2026-04-18T13:12:41.001Z</time></trkpt><trkpt lat="45.051310054171864" lon="8.186409432314353"><ele>233.0</ele><time>2026-04-18T13:12:42.001Z</time></trkpt><trkpt lat="45.05141036555889" lon="8.186270487640494"><ele>232.25</ele><time>2026-04-18T13:12:43.001Z</time></trkpt><trkpt lat="45.05151655588201" lon="8.186111384108392"><ele>231.5</ele><time>2026-04-18T13:12:44.001Z</time></trkpt><trkpt lat="45.051625287775096" lon="8.185959048307053"><ele>230.75</ele><time>2026-04-18T13:12:45.001Z</time></trkpt><trkpt lat="45.051725115666876" lon="8.185820455439137"><ele>230.0</ele><time>2026-04-18T13:12:46.002Z</time></trkpt><trkpt lat="45.051811469556405" lon="8.185696547948268"><ele>229.0</ele><time>2026-04-18T13:12:47.002Z</time></trkpt><trkpt lat="45.05188653841239" lon="8.185586723080712"><ele>228.0</ele><time>2026-04-18T13:12:48.002Z</time></trkpt><trkpt lat="45.051952416856295" lon="8.185484388787962"><ele>227.0</ele><time>2026-04-18T13:12:49.002Z</time></trkpt><trkpt lat="45.051987016718115" lon="8.185367855444415"><ele>226.0</ele><time>2026-04-18T13:12:50.002Z</time></trkpt><trkpt lat="45.051972150646314" lon="8.18523613818495"><ele>225.0</ele><time>2026-04-18T13:12:51.002Z</time></trkpt><trkpt lat="45.05190735850123" lon="8.185107892592812"><ele>225.0</ele><time>2026-04-18T13:12:52.002Z</time></trkpt><trkpt lat="45.05181079450726" lon="8.185035523791754"><ele>225.0</ele><time>2026-04-18T13:12:53.002Z</time></trkpt><trkpt lat="45.05175294719951" lon="8.184964860216512"><ele>225.0</ele><time>2026-04-18T13:12:54.002Z</time></trkpt><trkpt lat="45.05163352680253" lon="8.184910528699886"><ele>225.0</ele><time>2026-04-18T13:12:55.002Z</time></trkpt><trkpt lat="45.05156021291485" lon="8.184806563007326"><ele>225.0</ele><time>2026-04-18T13:12:56.002Z</time></trkpt><trkpt lat="45.0515246055445" lon="8.184668524013992"><ele>224.2</ele><time>2026-04-18T13:12:57.002Z</time></trkpt><trkpt lat="45.05154793157805" lon="8.18452142328921"><ele>223.4</ele><time>2026-04-18T13:12:58.002Z</time></trkpt><trkpt lat="45.05159007733204" lon="8.184404553417146"><ele>222.60000000000002</ele><time>2026-04-18T13:12:59.002Z</time></trkpt><trkpt lat="45.05166576663161" lon="8.18432909779921"><ele>221.8</ele><time>2026-04-18T13:13:00.002Z</time></trkpt><trkpt lat="45.05175485953054" lon="8.184316972454218"><ele>221.0</ele><time>2026-04-18T13:13:01.002Z</time></trkpt><trkpt lat="45.051854102210804" lon="8.184304398783656"><ele>221.0</ele><time>2026-04-18T13:13:02.002Z</time></trkpt><trkpt lat="45.05194380616783" lon="8.184276996973107"><ele>221.0</ele><time>2026-04-18T13:13:03.002Z</time></trkpt><trkpt lat="45.052020764731346" lon="8.184267407327184"><ele>221.0</ele><time>2026-04-18T13:13:04.002Z</time></trkpt><trkpt lat="45.05208508248857" lon="8.184253347742427"><ele>221.0</ele><time>2026-04-18T13:13:05.002Z</time></trkpt><trkpt lat="45.05217735027424" lon="8.183802335670274"><ele>220.83333333333334</ele><time>2026-04-18T13:13:22.003Z</time></trkpt><trkpt lat="45.052184559796736" lon="8.183684104802916"><ele>220.66666666666669</ele><time>2026-04-18T13:13:23.003Z</time></trkpt><trkpt lat="45.05217824309521" lon="8.183556480729948"><ele>220.5</ele><time>2026-04-18T13:13:24.003Z</time></trkpt><trkpt lat="45.05216796528147" lon="8.183445422468855"><ele>220.33333333333331</ele><time>2026-04-18T13:13:25.003Z</time></trkpt><trkpt lat="45.0521558707409" lon="8.18332066668267"><ele>220.16666666666666</ele><time>2026-04-18T13:13:26.003Z</time></trkpt><trkpt lat="45.05214387664335" lon="8.183170327148526"><ele>220.0</ele><time>2026-04-18T13:13:27.003Z</time></trkpt><trkpt lat="45.05213387633377" lon="8.18301117749085"><ele>219.99999999999997</ele><time>2026-04-18T13:13:28.003Z</time></trkpt><trkpt lat="45.05211791326849" lon="8.182884604384963"><ele>220.0</ele><time>2026-04-18T13:13:29.003Z</time></trkpt><trkpt lat="45.052113987363796" lon="8.18274313678728"><ele>220.0</ele><time>2026-04-18T13:13:30.003Z</time></trkpt><trkpt lat="45.05210740287666" lon="8.182624370953341"><ele>220.0</ele><time>2026-04-18T13:13:31.003Z</time></trkpt><trkpt lat="45.052090991774925" lon="8.182534013922346"><ele>219.99999999999997</ele><time>2026-04-18T13:13:32.003Z</time></trkpt><trkpt lat="45.05209726547312" lon="8.182627068248756"><ele>220.0</ele><time>2026-04-18T13:14:20.001Z</time></trkpt><trkpt lat="45.05203289549165" lon="8.182636738854336"><ele>219.99999999999997</ele><time>2026-04-18T13:14:32.001Z</time></trkpt><trkpt lat="45.05195901248339" lon="8.18264246475726"><ele>220.0</ele><time>2026-04-18T13:14:47.001Z</time></trkpt><trkpt lat="45.05183510075264" lon="8.182657503607425"><ele>220.0</ele><time>2026-04-18T13:14:49.002Z</time></trkpt><trkpt lat="45.05176505818848" lon="8.1826622610281"><ele>220.0</ele><time>2026-04-18T13:14:50.002Z</time></trkpt><trkpt lat="45.05169064219008" lon="8.182661326571486"><ele>219.99999999999997</ele><time>2026-04-18T13:14:51.002Z</time></trkpt><trkpt lat="45.051610301342244" lon="8.182658362307302"><ele>220.0</ele><time>2026-04-18T13:14:52.002Z</time></trkpt><trkpt lat="45.051536455873105" lon="8.182653377506027"><ele>219.49999999999997</ele><time>2026-04-18T13:14:53.002Z</time></trkpt><trkpt lat="45.05145429076857" lon="8.18264508198364"><ele>219.0</ele><time>2026-04-18T13:14:54.002Z</time></trkpt><trkpt lat="45.05137029783209" lon="8.182639039127299"><ele>218.5</ele><time>2026-04-18T13:14:55.002Z</time></trkpt><trkpt lat="45.05129124373148" lon="8.18263259740179"><ele>218.0</ele><time>2026-04-18T13:14:56.002Z</time></trkpt><trkpt lat="45.05120941773264" lon="8.182630763495144"><ele>217.49999999999997</ele><time>2026-04-18T13:14:57.002Z</time></trkpt><trkpt lat="45.051120057021286" lon="8.182635537427318"><ele>217.0</ele><time>2026-04-18T13:14:58.002Z</time></trkpt><trkpt lat="45.05103658430336" lon="8.182649156969662"><ele>216.99999999999997</ele><time>2026-04-18T13:14:59.002Z</time></trkpt><trkpt lat="45.050957626281125" lon="8.182674722927489"><ele>217.0</ele><time>2026-04-18T13:15:00.002Z</time></trkpt><trkpt lat="45.05087749984587" lon="8.182704460366704"><ele>217.0</ele><time>2026-04-18T13:15:01.002Z</time></trkpt><trkpt lat="45.0507962436281" lon="8.18274462772102"><ele>217.0</ele><time>2026-04-18T13:15:02.002Z</time></trkpt><trkpt lat="45.05070732829622" lon="8.182785548736401"><ele>216.99999999999997</ele><time>2026-04-18T13:15:03.002Z</time></trkpt><trkpt lat="45.05061741143779" lon="8.182822949397083"><ele>217.0</ele><time>2026-04-18T13:15:04.002Z</time></trkpt><trkpt lat="45.050533783341635" lon="8.182849340458395"><ele>217.6</ele><time>2026-04-18T13:15:05.002Z</time></trkpt><trkpt lat="45.05043966906725" lon="8.182873719801192"><ele>218.2</ele><time>2026-04-18T13:15:06.002Z</time></trkpt><trkpt lat="45.05034747415079" lon="8.182889521152632"><ele>218.8</ele><time>2026-04-18T13:15:07.002Z</time></trkpt><trkpt lat="45.05024756958696" lon="8.18290560613695"><ele>219.4</ele><time>2026-04-18T13:15:08.002Z</time></trkpt><trkpt lat="45.050152931940175" lon="8.182913781358442"><ele>220.0</ele><time>2026-04-18T13:15:09.002Z</time></trkpt><trkpt lat="45.05004476316805" lon="8.182920191954187"><ele>219.8</ele><time>2026-04-18T13:15:10.002Z</time></trkpt><trkpt lat="45.04993078848919" lon="8.182926573271015"><ele>219.6</ele><time>2026-04-18T13:15:11.002Z</time></trkpt><trkpt lat="45.04982016514259" lon="8.182941187755862"><ele>219.39999999999998</ele><time>2026-04-18T13:15:12.002Z</time></trkpt><trkpt lat="45.0497233610782" lon="8.182970974814639"><ele>219.2</ele><time>2026-04-18T13:15:13.002Z</time></trkpt><trkpt lat="45.04962638111063" lon="8.183007814249919"><ele>219.0</ele><time>2026-04-18T13:15:14.002Z</time></trkpt><trkpt lat="45.04952996051818" lon="8.1830440724697"><ele>219.0</ele><time>2026-04-18T13:15:15.002Z</time></trkpt><trkpt lat="45.049428401996174" lon="8.183073590267986"><ele>218.99999999999997</ele><time>2026-04-18T13:15:16.002Z</time></trkpt><trkpt lat="45.049322392844736" lon="8.183092572445268"><ele>218.99999999999997</ele><time>2026-04-18T13:15:17.002Z</time></trkpt><trkpt lat="45.0492222461273" lon="8.183115703608031"><ele>219.0</ele><time>2026-04-18T13:15:18.002Z</time></trkpt><trkpt lat="45.04912243721461" lon="8.183130387648335"><ele>219.0</ele><time>2026-04-18T13:15:19.002Z</time></trkpt><trkpt lat="45.0490223162369" lon="8.183135825688034"><ele>218.79999999999998</ele><time>2026-04-18T13:15:20.002Z</time></trkpt><trkpt lat="45.04891716255161" lon="8.183133550066133"><ele>218.59999999999997</ele><time>2026-04-18T13:15:21.002Z</time></trkpt><trkpt lat="45.048811278168316" lon="8.183128326753337"><ele>218.4</ele><time>2026-04-18T13:15:22.003Z</time></trkpt><trkpt lat="45.04870381284388" lon="8.183130346721219"><ele>218.2</ele><time>2026-04-18T13:15:23.003Z</time></trkpt><trkpt lat="45.04860378712212" lon="8.18313467604214"><ele>218.0</ele><time>2026-04-18T13:15:24.003Z</time></trkpt><trkpt lat="45.04849923636277" lon="8.183146193781498"><ele>218.0</ele><time>2026-04-18T13:15:25.003Z</time></trkpt><trkpt lat="45.048408290409526" lon="8.183151957833285"><ele>218.0</ele><time>2026-04-18T13:15:26.003Z</time></trkpt><trkpt lat="45.04831298978837" lon="8.183155435304322"><ele>218.0</ele><time>2026-04-18T13:15:27.003Z</time></trkpt><trkpt lat="45.048214198734904" lon="8.183152165332544"><ele>218.0</ele><time>2026-04-18T13:15:28.003Z</time></trkpt><trkpt lat="45.04812517521096" lon="8.18314274428962"><ele>218.0</ele><time>2026-04-18T13:15:29.003Z</time></trkpt><trkpt lat="45.048047007931146" lon="8.183139802371617"><ele>215.60000000000002</ele><time>2026-04-18T13:15:30.003Z</time></trkpt><trkpt lat="45.047979112586034" lon="8.183135066665885"><ele>213.20000000000002</ele><time>2026-04-18T13:15:31.003Z</time></trkpt><trkpt lat="45.047859891443736" lon="8.183142777757187"><ele>210.8</ele><time>2026-04-18T13:15:33.003Z</time></trkpt><trkpt lat="45.04778668598315" lon="8.183261220616497"><ele>208.4</ele><time>2026-04-18T13:15:35.003Z</time></trkpt><trkpt lat="45.047748655068695" lon="8.18343936757684"><ele>206.0</ele><time>2026-04-18T13:15:37.003Z</time></trkpt><trkpt lat="45.047726882127165" lon="8.183544690880646"><ele>206.16666666666669</ele><time>2026-04-18T13:15:38.003Z</time></trkpt><trkpt lat="45.047705570942206" lon="8.183637545338776"><ele>206.33333333333334</ele><time>2026-04-18T13:15:39.003Z</time></trkpt><trkpt lat="45.04767023683687" lon="8.183785567450673"><ele>206.5</ele><time>2026-04-18T13:15:41.003Z</time></trkpt><trkpt lat="45.04763155684547" lon="8.183949674501374"><ele>206.66666666666669</ele><time>2026-04-18T13:15:43.003Z</time></trkpt><trkpt lat="45.04760912874696" lon="8.184038214117827"><ele>206.83333333333334</ele><time>2026-04-18T13:15:44.003Z</time></trkpt><trkpt lat="45.047587463695415" lon="8.184136993616416"><ele>207.0</ele><time>2026-04-18T13:15:45.003Z</time></trkpt><trkpt lat="45.04756581985679" lon="8.18424941332588"><ele>207.0</ele><time>2026-04-18T13:15:46.003Z</time></trkpt><trkpt lat="45.04754117251993" lon="8.184364523100813"><ele>207.0</ele><time>2026-04-18T13:15:47.003Z</time></trkpt><trkpt lat="45.04751536652538" lon="8.184476098525064"><ele>207.0</ele><time>2026-04-18T13:15:48.003Z</time></trkpt><trkpt lat="45.04748780034413" lon="8.18455802385357"><ele>207.0</ele><time>2026-04-18T13:15:49.003Z</time></trkpt><trkpt lat="45.047410803004055" lon="8.184629512840795"><ele>207.0</ele><time>2026-04-18T13:15:51Z</time></trkpt><trkpt lat="45.047299197720776" lon="8.184554939364025"><ele>207.0</ele><time>2026-04-18T13:15:53Z</time></trkpt><trkpt lat="45.047240630028625" lon="8.18449192598017"><ele>206.8</ele><time>2026-04-18T13:15:54Z</time></trkpt><trkpt lat="45.047170709672194" lon="8.184432312925763"><ele>206.6</ele><time>2026-04-18T13:15:55Z</time></trkpt><trkpt lat="45.04708763499364" lon="8.184370160558931"><ele>206.4</ele><time>2026-04-18T13:15:56Z</time></trkpt><trkpt lat="45.0470062547613" lon="8.184313950400039"><ele>206.20000000000002</ele><time>2026-04-18T13:15:57Z</time></trkpt><trkpt lat="45.046920737522385" lon="8.184255137265268"><ele>206.0</ele><time>2026-04-18T13:15:58Z</time></trkpt><trkpt lat="45.04683514184062" lon="8.18420311989217"><ele>206.0</ele><time>2026-04-18T13:15:59Z</time></trkpt><trkpt lat="45.04674193899572" lon="8.184155807069168"><ele>206.0</ele><time>2026-04-18T13:16:00Z</time></trkpt><trkpt lat="45.04664790088354" lon="8.184102827703253"><ele>206.0</ele><time>2026-04-18T13:16:01Z</time></trkpt><trkpt lat="45.0465721139398" lon="8.184052097823107"><ele>206.0</ele><time>2026-04-18T13:16:02Z</time></trkpt><trkpt lat="45.046509875695854" lon="8.184003232480467"><ele>206.0</ele><time>2026-04-18T13:16:03Z</time></trkpt><trkpt lat="45.046402911797934" lon="8.183875995139609"><ele>204.66666666666669</ele><time>2026-04-18T13:16:05Z</time></trkpt><trkpt lat="45.046332081972444" lon="8.18379815767479"><ele>203.33333333333334</ele><time>2026-04-18T13:16:06Z</time></trkpt><trkpt lat="45.04626452090471" lon="8.183737388189382"><ele>202.0</ele><time>2026-04-18T13:16:07Z</time></trkpt><trkpt lat="45.046206930056385" lon="8.183693945956172"><ele>200.66666666666669</ele><time>2026-04-18T13:16:08Z</time></trkpt><trkpt lat="45.04607878151226" lon="8.183659243947698"><ele>199.33333333333334</ele><time>2026-04-18T13:16:10Z</time></trkpt><trkpt lat="45.04599759224059" lon="8.183657483853722"><ele>198.0</ele><time>2026-04-18T13:16:11Z</time></trkpt><trkpt lat="45.04592124253282" lon="8.183630623475745"><ele>198.0</ele><time>2026-04-18T13:16:12Z</time></trkpt><trkpt lat="45.045843016305305" lon="8.183585158681778"><ele>198.0</ele><time>2026-04-18T13:16:13Z</time></trkpt><trkpt lat="45.04575377437892" lon="8.183548842668728"><ele>198.0</ele><time>2026-04-18T13:16:14Z</time></trkpt><trkpt lat="45.04566718545729" lon="8.183532057190451"><ele>198.0</ele><time>2026-04-18T13:16:15Z</time></trkpt><trkpt lat="45.04558348018632" lon="8.183529593861174"><ele>198.0</ele><time>2026-04-18T13:16:16Z</time></trkpt><trkpt lat="45.045489809607204" lon="8.183529802628343"><ele>198.0</ele><time>2026-04-18T13:16:17Z</time></trkpt><trkpt lat="45.04540356132668" lon="8.183529302153728"><ele>198.0</ele><time>2026-04-18T13:16:18Z</time></trkpt><trkpt lat="45.04532768695939" lon="8.183523010557614"><ele>198.0</ele><time>2026-04-18T13:16:19Z</time></trkpt><trkpt lat="45.04523180123882" lon="8.183460026131195"><ele>198.0</ele><time>2026-04-18T13:16:21.001Z</time></trkpt><trkpt lat="45.0452164865256" lon="8.183293600103354"><ele>198.0</ele><time>2026-04-18T13:16:23.001Z</time></trkpt><trkpt lat="45.045209354370336" lon="8.183192513849896"><ele>198.0</ele><time>2026-04-18T13:16:24.001Z</time></trkpt><trkpt lat="45.04518842254907" lon="8.183080593498712"><ele>198.0</ele><time>2026-04-18T13:16:25.001Z</time></trkpt><trkpt lat="45.04514447468126" lon="8.182973722669976"><ele>198.0</ele><time>2026-04-18T13:16:26.001Z</time></trkpt><trkpt lat="45.04508005213022" lon="8.182886160963097"><ele>198.0</ele><time>2026-04-18T13:16:27.001Z</time></trkpt><trkpt lat="45.0450059431721" lon="8.1828182757721"><ele>198.0</ele><time>2026-04-18T13:16:28.001Z</time></trkpt><trkpt lat="45.04492518074771" lon="8.182755569388346"><ele>198.0</ele><time>2026-04-18T13:16:29.001Z</time></trkpt><trkpt lat="45.044842641779596" lon="8.182693471352366"><ele>197.83333333333334</ele><time>2026-04-18T13:16:30.001Z</time></trkpt><trkpt lat="45.04475862383781" lon="8.182626878176652"><ele>197.66666666666669</ele><time>2026-04-18T13:16:31.001Z</time></trkpt><trkpt lat="45.04467714271749" lon="8.182564538871633"><ele>197.5</ele><time>2026-04-18T13:16:32.001Z</time></trkpt><trkpt lat="45.04460510585818" lon="8.182501685749848"><ele>197.33333333333334</ele><time>2026-04-18T13:16:33.001Z</time></trkpt><trkpt lat="45.0445511562406" lon="8.182418512725155"><ele>197.16666666666669</ele><time>2026-04-18T13:16:34.001Z</time></trkpt><trkpt lat="45.044496967358384" lon="8.182311833793964"><ele>197.0</ele><time>2026-04-18T13:16:35.001Z</time></trkpt><trkpt lat="45.044445736732" lon="8.182192672653095"><ele>196.39999999999998</ele><time>2026-04-18T13:16:36.001Z</time></trkpt><trkpt lat="45.044398380194956" lon="8.182062704521021"><ele>195.79999999999998</ele><time>2026-04-18T13:16:37.001Z</time></trkpt><trkpt lat="45.04434598503464" lon="8.181923989100543"><ele>195.2</ele><time>2026-04-18T13:16:38.001Z</time></trkpt><trkpt lat="45.04429885904446" lon="8.18179819683509"><ele>194.6</ele><time>2026-04-18T13:16:39.001Z</time></trkpt><trkpt lat="45.04424890818222" lon="8.181691281715947"><ele>194.0</ele><time>2026-04-18T13:16:40.001Z</time></trkpt><trkpt lat="45.044187809177984" lon="8.181594719772358"><ele>194.0</ele><time>2026-04-18T13:16:41.001Z</time></trkpt><trkpt lat="45.04412843216546" lon="8.181505232909243"><ele>194.0</ele><time>2026-04-18T13:16:42.001Z</time></trkpt><trkpt lat="45.044060421881404" lon="8.181408686309608"><ele>194.0</ele><time>2026-04-18T13:16:43.001Z</time></trkpt><trkpt lat="45.04399518942017" lon="8.181298286794894"><ele>194.0</ele><time>2026-04-18T13:16:44.001Z</time></trkpt><trkpt lat="45.043939874858125" lon="8.181170627297638"><ele>194.0</ele><time>2026-04-18T13:16:45.001Z</time></trkpt><trkpt lat="45.04388588685536" lon="8.18105675902766"><ele>194.0</ele><time>2026-04-18T13:16:46.001Z</time></trkpt><trkpt lat="45.04382387462182" lon="8.180947533125295"><ele>194.0</ele><time>2026-04-18T13:16:47.001Z</time></trkpt><trkpt lat="45.04376185404605" lon="8.18083130453559"><ele>194.0</ele><time>2026-04-18T13:16:48.001Z</time></trkpt><trkpt lat="45.0436920053361" lon="8.180712744563813"><ele>194.0</ele><time>2026-04-18T13:16:49.001Z</time></trkpt><trkpt lat="45.04362319787933" lon="8.180600352015881"><ele>194.0</ele><time>2026-04-18T13:16:50.001Z</time></trkpt><trkpt lat="45.04355872783874" lon="8.180504516376287"><ele>194.16666666666669</ele><time>2026-04-18T13:16:51.001Z</time></trkpt><trkpt lat="45.04350421679711" lon="8.180425816109155"><ele>194.33333333333334</ele><time>2026-04-18T13:16:52.001Z</time></trkpt><trkpt lat="45.0434472545809" lon="8.18034422085258"><ele>194.5</ele><time>2026-04-18T13:16:53.001Z</time></trkpt><trkpt lat="45.04339138982742" lon="8.180280978158951"><ele>194.66666666666669</ele><time>2026-04-18T13:16:54.002Z</time></trkpt><trkpt lat="45.04332447232076" lon="8.180220219311755"><ele>194.83333333333334</ele><time>2026-04-18T13:16:55.002Z</time></trkpt><trkpt lat="45.04324945444713" lon="8.180169363949757"><ele>195.0</ele><time>2026-04-18T13:16:56.002Z</time></trkpt><trkpt lat="45.043163266453355" lon="8.180118248108231"><ele>195.0</ele><time>2026-04-18T13:16:57.002Z</time></trkpt><trkpt lat="45.04308525849368" lon="8.180083844977274"><ele>195.0</ele><time>2026-04-18T13:16:58.002Z</time></trkpt><trkpt lat="45.04299349812297" lon="8.180051995830453"><ele>195.0</ele><time>2026-04-18T13:16:59.002Z</time></trkpt><trkpt lat="45.04290455457029" lon="8.180034980782706"><ele>195.0</ele><time>2026-04-18T13:17:00.002Z</time></trkpt><trkpt lat="45.04281446944348" lon="8.179999295969251"><ele>195.0</ele><time>2026-04-18T13:17:01.002Z</time></trkpt><trkpt lat="45.04274653224842" lon="8.179953157547384"><ele>195.0</ele><time>2026-04-18T13:17:02.002Z</time></trkpt><trkpt lat="45.04267007400434" lon="8.179871677978355"><ele>194.25</ele><time>2026-04-18T13:17:03.002Z</time></trkpt><trkpt lat="45.04258495975681" lon="8.1797765488281"><ele>193.5</ele><time>2026-04-18T13:17:04.002Z</time></trkpt><trkpt lat="45.042500764239975" lon="8.179682548908652"><ele>192.75</ele><time>2026-04-18T13:17:05.002Z</time></trkpt><trkpt lat="45.04240698817615" lon="8.179586133246161"><ele>192.0</ele><time>2026-04-18T13:17:06.002Z</time></trkpt><trkpt lat="45.04230820805245" lon="8.179487332417827"><ele>192.0</ele><time>2026-04-18T13:17:07.002Z</time></trkpt><trkpt lat="45.04220541735996" lon="8.179389732822887"><ele>192.0</ele><time>2026-04-18T13:17:08.002Z</time></trkpt><trkpt lat="45.04210600612903" lon="8.179288959232741"><ele>192.0</ele><time>2026-04-18T13:17:09.002Z</time></trkpt><trkpt lat="45.04201434565203" lon="8.179195288033448"><ele>192.0</ele><time>2026-04-18T13:17:10.002Z</time></trkpt><trkpt lat="45.041919443914615" lon="8.179100682974534"><ele>191.6</ele><time>2026-04-18T13:17:11.002Z</time></trkpt><trkpt lat="45.04182177093841" lon="8.179009869460293"><ele>191.2</ele><time>2026-04-18T13:17:12.002Z</time></trkpt><trkpt lat="45.04174486303785" lon="8.178937796179305"><ele>190.8</ele><time>2026-04-18T13:17:13.002Z</time></trkpt><trkpt lat="45.04165965047509" lon="8.178867459857912"><ele>190.4</ele><time>2026-04-18T13:17:14.002Z</time></trkpt><trkpt lat="45.04157341172917" lon="8.178799273057619"><ele>190.0</ele><time>2026-04-18T13:17:15.002Z</time></trkpt><trkpt lat="45.04148075720237" lon="8.178726994302039"><ele>189.4</ele><time>2026-04-18T13:17:16.002Z</time></trkpt><trkpt lat="45.041382549902785" lon="8.178655824782416"><ele>188.8</ele><time>2026-04-18T13:17:17.002Z</time></trkpt><trkpt lat="45.04127902523978" lon="8.178595888386377"><ele>188.2</ele><time>2026-04-18T13:17:18.002Z</time></trkpt><trkpt lat="45.04117877166718" lon="8.178547618433354"><ele>187.6</ele><time>2026-04-18T13:17:19.002Z</time></trkpt><trkpt lat="45.04108373226245" lon="8.178499417443932"><ele>187.0</ele><time>2026-04-18T13:17:20.002Z</time></trkpt><trkpt lat="45.04097918501646" lon="8.178440172745198"><ele>187.0</ele><time>2026-04-18T13:17:21.002Z</time></trkpt><trkpt lat="45.04087086228157" lon="8.178377011564514"><ele>187.0</ele><time>2026-04-18T13:17:22.002Z</time></trkpt><trkpt lat="45.04077530527262" lon="8.17832475756197"><ele>187.0</ele><time>2026-04-18T13:17:23.002Z</time></trkpt><trkpt lat="45.040666030285685" lon="8.178268452922032"><ele>187.0</ele><time>2026-04-18T13:17:24.002Z</time></trkpt><trkpt lat="45.040561078561105" lon="8.178219753372764"><ele>187.0</ele><time>2026-04-18T13:17:25.002Z</time></trkpt><trkpt lat="45.04045390751663" lon="8.17816610464455"><ele>188.0</ele><time>2026-04-18T13:17:26.002Z</time></trkpt><trkpt lat="45.04034907626162" lon="8.178122944630676"><ele>189.0</ele><time>2026-04-18T13:17:27.002Z</time></trkpt><trkpt lat="45.04025633038251" lon="8.178080801203071"><ele>190.0</ele><time>2026-04-18T13:17:28.003Z</time></trkpt><trkpt lat="45.04016805341039" lon="8.178036391232512"><ele>191.0</ele><time>2026-04-18T13:17:29.003Z</time></trkpt><trkpt lat="45.040071027671985" lon="8.177996509338376"><ele>192.0</ele><time>2026-04-18T13:17:30.003Z</time></trkpt><trkpt lat="45.03996870434344" lon="8.177959415264533"><ele>191.0</ele><time>2026-04-18T13:17:31.003Z</time></trkpt><trkpt lat="45.03986803447318" lon="8.177929400326224"><ele>190.0</ele><time>2026-04-18T13:17:32.003Z</time></trkpt><trkpt lat="45.0397698729385" lon="8.177902501195506"><ele>189.0</ele><time>2026-04-18T13:17:33.003Z</time></trkpt><trkpt lat="45.039668117134674" lon="8.177870336610814"><ele>188.0</ele><time>2026-04-18T13:17:34.003Z</time></trkpt><trkpt lat="45.03956831519787" lon="8.177835750042773"><ele>187.0</ele><time>2026-04-18T13:17:35.003Z</time></trkpt><trkpt lat="45.039462706854025" lon="8.177797915325968"><ele>187.0</ele><time>2026-04-18T13:17:36.003Z</time></trkpt><trkpt lat="45.039357719509624" lon="8.177758511062613"><ele>187.0</ele><time>2026-04-18T13:17:37.003Z</time></trkpt><trkpt lat="45.03926288868685" lon="8.177715038047802"><ele>187.0</ele><time>2026-04-18T13:17:38.003Z</time></trkpt><trkpt lat="45.039184200148235" lon="8.17766809377482"><ele>187.0</ele><time>2026-04-18T13:17:39.003Z</time></trkpt><trkpt lat="45.0391134392914" lon="8.1776055400425"><ele>187.0</ele><time>2026-04-18T13:17:40.003Z</time></trkpt><trkpt lat="45.03905361822134" lon="8.177543809096619"><ele>187.0</ele><time>2026-04-18T13:17:41.003Z</time></trkpt><trkpt lat="45.038988825091984" lon="8.1774629766998"><ele>187.0</ele><time>2026-04-18T13:17:42.003Z</time></trkpt><trkpt lat="45.038928280583704" lon="8.17739168675708"><ele>187.0</ele><time>2026-04-18T13:17:43.003Z</time></trkpt><trkpt lat="45.0388709464226" lon="8.17732175685485"><ele>187.0</ele><time>2026-04-18T13:17:44.003Z</time></trkpt><trkpt lat="45.038796782502935" lon="8.17725059593298"><ele>187.0</ele><time>2026-04-18T13:17:45.003Z</time></trkpt><trkpt lat="45.038717907263035" lon="8.17718303308843"><ele>187.0</ele><time>2026-04-18T13:17:46.003Z</time></trkpt><trkpt lat="45.03863671520027" lon="8.17712042879867"><ele>187.0</ele><time>2026-04-18T13:17:47.003Z</time></trkpt><trkpt lat="45.038552573914515" lon="8.17706492358815"><ele>187.0</ele><time>2026-04-18T13:17:48.003Z</time></trkpt><trkpt lat="45.03847033226632" lon="8.17698941357332"><ele>187.0</ele><time>2026-04-18T13:17:49.003Z</time></trkpt><trkpt lat="45.038400014682175" lon="8.176901082716054"><ele>187.0</ele><time>2026-04-18T13:17:50.003Z</time></trkpt><trkpt lat="45.03833451314694" lon="8.176802862307886"><ele>187.0</ele><time>2026-04-18T13:17:51.003Z</time></trkpt><trkpt lat="45.03828354830392" lon="8.176706864993033"><ele>187.33333333333334</ele><time>2026-04-18T13:17:52.003Z</time></trkpt><trkpt lat="45.0382352339677" lon="8.176603907969167"><ele>187.66666666666669</ele><time>2026-04-18T13:17:53.003Z</time></trkpt><trkpt lat="45.038196240364414" lon="8.176515804140994"><ele>188.0</ele><time>2026-04-18T13:17:54.003Z</time></trkpt><trkpt lat="45.038151753352146" lon="8.176410532750428"><ele>188.33333333333334</ele><time>2026-04-18T13:17:55.003Z</time></trkpt><trkpt lat="45.03810575135772" lon="8.176295923689912"><ele>188.66666666666666</ele><time>2026-04-18T13:17:56.003Z</time></trkpt><trkpt lat="45.038063722029975" lon="8.176167307351221"><ele>189.0</ele><time>2026-04-18T13:17:57Z</time></trkpt><trkpt lat="45.038026008731364" lon="8.176045411126998"><ele>189.0</ele><time>2026-04-18T13:17:58Z</time></trkpt><trkpt lat="45.037996559981714" lon="8.175939955432582"><ele>189.0</ele><time>2026-04-18T13:17:59Z</time></trkpt><trkpt lat="45.03796523490537" lon="8.17585772717946"><ele>189.0</ele><time>2026-04-18T13:18:00Z</time></trkpt><trkpt lat="45.03788895242347" lon="8.175727955606668"><ele>189.0</ele><time>2026-04-18T13:18:02Z</time></trkpt><trkpt lat="45.03782019140436" lon="8.175672569625004"><ele>189.0</ele><time>2026-04-18T13:18:03Z</time></trkpt><trkpt lat="45.03773843581327" lon="8.175615146995638"><ele>189.0</ele><time>2026-04-18T13:18:04Z</time></trkpt><trkpt lat="45.037650991507775" lon="8.175548812687573"><ele>188.0</ele><time>2026-04-18T13:18:05Z</time></trkpt><trkpt lat="45.03756161606573" lon="8.175477659992085"><ele>187.0</ele><time>2026-04-18T13:18:06Z</time></trkpt><trkpt lat="45.037468769640064" lon="8.175397696282966"><ele>186.0</ele><time>2026-04-18T13:18:07Z</time></trkpt><trkpt lat="45.037375195629494" lon="8.175320893371108"><ele>185.0</ele><time>2026-04-18T13:18:08Z</time></trkpt><trkpt lat="45.037278902756796" lon="8.17524138806136"><ele>184.0</ele><time>2026-04-18T13:18:09Z</time></trkpt><trkpt lat="45.037174016455346" lon="8.17515439095052"><ele>184.0</ele><time>2026-04-18T13:18:10Z</time></trkpt><trkpt lat="45.03707087731231" lon="8.175066236837662"><ele>184.0</ele><time>2026-04-18T13:18:11Z</time></trkpt><trkpt lat="45.036969539047" lon="8.17498592809243"><ele>184.0</ele><time>2026-04-18T13:18:12Z</time></trkpt><trkpt lat="45.036875717698834" lon="8.174910799774855"><ele>184.0</ele><time>2026-04-18T13:18:13Z</time></trkpt><trkpt lat="45.036776890246706" lon="8.174841806530427"><ele>183.5</ele><time>2026-04-18T13:18:14Z</time></trkpt><trkpt lat="45.03668337686343" lon="8.174785051122557"><ele>183.0</ele><time>2026-04-18T13:18:15Z</time></trkpt><trkpt lat="45.0365924283532" lon="8.174739106749847"><ele>182.5</ele><time>2026-04-18T13:18:16Z</time></trkpt><trkpt lat="45.03650832473765" lon="8.174693891549"><ele>182.0</ele><time>2026-04-18T13:18:17Z</time></trkpt><trkpt lat="45.03643409615571" lon="8.174648637140573"><ele>181.5</ele><time>2026-04-18T13:18:18Z</time></trkpt><trkpt lat="45.036362890439165" lon="8.174613529300954"><ele>181.0</ele><time>2026-04-18T13:18:19Z</time></trkpt><trkpt lat="45.03630208607325" lon="8.174584833792249"><ele>180.66666666666669</ele><time>2026-04-18T13:18:20Z</time></trkpt><trkpt lat="45.036197512724755" lon="8.17452794463149"><ele>180.33333333333334</ele><time>2026-04-18T13:18:22Z</time></trkpt><trkpt lat="45.03613782847439" lon="8.174491691891074"><ele>180.0</ele><time>2026-04-18T13:18:23Z</time></trkpt><trkpt lat="45.03606602379324" lon="8.174455632770636"><ele>179.66666666666666</ele><time>2026-04-18T13:18:24Z</time></trkpt><trkpt lat="45.03599549345986" lon="8.17442419514338"><ele>179.33333333333331</ele><time>2026-04-18T13:18:25Z</time></trkpt><trkpt lat="45.03592535454604" lon="8.174377749969958"><ele>179.0</ele><time>2026-04-18T13:18:26Z</time></trkpt><trkpt lat="45.03586415006686" lon="8.174301778429307"><ele>178.6</ele><time>2026-04-18T13:18:27.001Z</time></trkpt><trkpt lat="45.03580019271421" lon="8.174199615452954"><ele>178.2</ele><time>2026-04-18T13:18:28.001Z</time></trkpt><trkpt lat="45.03573471935457" lon="8.174092391994936"><ele>177.79999999999998</ele><time>2026-04-18T13:18:29.001Z</time></trkpt><trkpt lat="45.035659387312016" lon="8.173975122822075"><ele>177.39999999999998</ele><time>2026-04-18T13:18:30.001Z</time></trkpt><trkpt lat="45.035588291493184" lon="8.173859267501433"><ele>177.0</ele><time>2026-04-18T13:18:31.001Z</time></trkpt><trkpt lat="45.03551819276218" lon="8.173741503736792"><ele>177.0</ele><time>2026-04-18T13:18:32.001Z</time></trkpt><trkpt lat="45.0354520488026" lon="8.173626347386582"><ele>177.0</ele><time>2026-04-18T13:18:33.001Z</time></trkpt><trkpt lat="45.03537931611705" lon="8.173505610368457"><ele>177.0</ele><time>2026-04-18T13:18:34.001Z</time></trkpt><trkpt lat="45.03530607581228" lon="8.173395630893332"><ele>177.0</ele><time>2026-04-18T13:18:35.001Z</time></trkpt><trkpt lat="45.03522805966704" lon="8.173291769471836"><ele>177.0</ele><time>2026-04-18T13:18:36.001Z</time></trkpt><trkpt lat="45.03514498853148" lon="8.173180143508835"><ele>177.0</ele><time>2026-04-18T13:18:37.001Z</time></trkpt><trkpt lat="45.03506593162128" lon="8.173069736345806"><ele>177.0</ele><time>2026-04-18T13:18:38.001Z</time></trkpt><trkpt lat="45.03498872095316" lon="8.172957409693447"><ele>177.0</ele><time>2026-04-18T13:18:39.001Z</time></trkpt><trkpt lat="45.034908410209816" lon="8.172860605254279"><ele>177.0</ele><time>2026-04-18T13:18:40.001Z</time></trkpt><trkpt lat="45.03482111404243" lon="8.172772507921351"><ele>177.0</ele><time>2026-04-18T13:18:41.001Z</time></trkpt><trkpt lat="45.034727490261396" lon="8.172672532703896"><ele>176.6</ele><time>2026-04-18T13:18:42.001Z</time></trkpt><trkpt lat="45.03462820680305" lon="8.172575150940569"><ele>176.2</ele><time>2026-04-18T13:18:43.001Z</time></trkpt><trkpt lat="45.03452224210172" lon="8.172483600038802"><ele>175.8</ele><time>2026-04-18T13:18:44.001Z</time></trkpt><trkpt lat="45.034431038322325" lon="8.172412180718426"><ele>175.4</ele><time>2026-04-18T13:18:45.001Z</time></trkpt><trkpt lat="45.03435037960519" lon="8.172348727361259"><ele>175.0</ele><time>2026-04-18T13:18:46.001Z</time></trkpt><trkpt lat="45.03427301755558" lon="8.172287678157033"><ele>175.0</ele><time>2026-04-18T13:18:47.001Z</time></trkpt><trkpt lat="45.03420380828584" lon="8.172221269565846"><ele>175.0</ele><time>2026-04-18T13:18:48.001Z</time></trkpt><trkpt lat="45.03412622940194" lon="8.172146362822502"><ele>175.0</ele><time>2026-04-18T13:18:49.001Z</time></trkpt><trkpt lat="45.034064272406795" lon="8.17208664296405"><ele>175.0</ele><time>2026-04-18T13:18:50.001Z</time></trkpt><trkpt lat="45.034001190685366" lon="8.172038666840452"><ele>175.0</ele><time>2026-04-18T13:18:51.001Z</time></trkpt><trkpt lat="45.033940091925814" lon="8.171986873449974"><ele>175.0</ele><time>2026-04-18T13:18:52.001Z</time></trkpt><trkpt lat="45.03387194990784" lon="8.171923194406878"><ele>175.0</ele><time>2026-04-18T13:18:53.001Z</time></trkpt><trkpt lat="45.03379422406266" lon="8.171851330501639"><ele>175.0</ele><time>2026-04-18T13:18:54.001Z</time></trkpt><trkpt lat="45.03370773436133" lon="8.171771620659317"><ele>175.0</ele><time>2026-04-18T13:18:55.001Z</time></trkpt><trkpt lat="45.03362335104122" lon="8.171694683019911"><ele>175.0</ele><time>2026-04-18T13:18:56.001Z</time></trkpt><trkpt lat="45.033533562592496" lon="8.17160839627792"><ele>175.0</ele><time>2026-04-18T13:18:57.001Z</time></trkpt><trkpt lat="45.033437132087954" lon="8.171531181338084"><ele>175.75</ele><time>2026-04-18T13:18:58.001Z</time></trkpt><trkpt lat="45.03333877805988" lon="8.171461071604433"><ele>176.5</ele><time>2026-04-18T13:18:59.001Z</time></trkpt><trkpt lat="45.033231914002165" lon="8.171390352098575"><ele>177.25</ele><time>2026-04-18T13:19:00.002Z</time></trkpt><trkpt lat="45.03312022904554" lon="8.171314083045342"><ele>178.0</ele><time>2026-04-18T13:19:01.002Z</time></trkpt><trkpt lat="45.03302001254483" lon="8.171244113045008"><ele>178.0</ele><time>2026-04-18T13:19:02.002Z</time></trkpt><trkpt lat="45.032922965802186" lon="8.171172214074735"><ele>178.0</ele><time>2026-04-18T13:19:03.002Z</time></trkpt><trkpt lat="45.0328165240799" lon="8.171098254554854"><ele>178.0</ele><time>2026-04-18T13:19:04.002Z</time></trkpt><trkpt lat="45.03271614653563" lon="8.171032123023528"><ele>178.0</ele><time>2026-04-18T13:19:05.002Z</time></trkpt><trkpt lat="45.03263063754037" lon="8.170960579812249"><ele>178.0</ele><time>2026-04-18T13:19:06.002Z</time></trkpt><trkpt lat="45.03254947561561" lon="8.17088839343788"><ele>176.60000000000002</ele><time>2026-04-18T13:19:07.002Z</time></trkpt><trkpt lat="45.03246091619109" lon="8.1708075961231"><ele>175.20000000000002</ele><time>2026-04-18T13:19:08.002Z</time></trkpt><trkpt lat="45.032377827320225" lon="8.170721771973492"><ele>173.8</ele><time>2026-04-18T13:19:09.002Z</time></trkpt><trkpt lat="45.032286975811466" lon="8.170629845301459"><ele>172.4</ele><time>2026-04-18T13:19:10.002Z</time></trkpt><trkpt lat="45.0321954478258" lon="8.170538960928294"><ele>171.0</ele><time>2026-04-18T13:19:11.002Z</time></trkpt><trkpt lat="45.032114642663814" lon="8.170461705046074"><ele>170.66666666666666</ele><time>2026-04-18T13:19:12.002Z</time></trkpt><trkpt lat="45.03204013637021" lon="8.170393223597278"><ele>170.33333333333334</ele><time>2026-04-18T13:19:13.002Z</time></trkpt><trkpt lat="45.03198300018978" lon="8.170334219353418"><ele>170.0</ele><time>2026-04-18T13:19:14.002Z</time></trkpt><trkpt lat="45.03192542238767" lon="8.17027476979147"><ele>169.66666666666669</ele><time>2026-04-18T13:19:15.002Z</time></trkpt><trkpt lat="45.03187879273144" lon="8.170209756040679"><ele>169.33333333333334</ele><time>2026-04-18T13:19:16.002Z</time></trkpt><trkpt lat="45.03186314104053" lon="8.170060096138153"><ele>169.0</ele><time>2026-04-18T13:19:18.002Z</time></trkpt><trkpt lat="45.03188645342554" lon="8.169972919448137"><ele>169.0</ele><time>2026-04-18T13:19:19.002Z</time></trkpt><trkpt lat="45.0319244982093" lon="8.169886473325073"><ele>169.0</ele><time>2026-04-18T13:19:20.002Z</time></trkpt><trkpt lat="45.031965470039474" lon="8.169773691552631"><ele>169.0</ele><time>2026-04-18T13:19:21.002Z</time></trkpt><trkpt lat="45.03200242437495" lon="8.169642668440911"><ele>169.0</ele><time>2026-04-18T13:19:22.002Z</time></trkpt><trkpt lat="45.03203918472685" lon="8.16949849643454"><ele>169.0</ele><time>2026-04-18T13:19:23.002Z</time></trkpt><trkpt lat="45.03206079954565" lon="8.169346693395505"><ele>168.79999999999998</ele><time>2026-04-18T13:19:24.002Z</time></trkpt><trkpt lat="45.0320700293537" lon="8.169200751751822"><ele>168.6</ele><time>2026-04-18T13:19:25.002Z</time></trkpt><trkpt lat="45.032084494521904" lon="8.169063570412675"><ele>168.4</ele><time>2026-04-18T13:19:26.002Z</time></trkpt><trkpt lat="45.032110363477564" lon="8.168914342618843"><ele>168.2</ele><time>2026-04-18T13:19:27.002Z</time></trkpt><trkpt lat="45.03213964654919" lon="8.16875719689933"><ele>168.0</ele><time>2026-04-18T13:19:28.002Z</time></trkpt><trkpt lat="45.0321662084006" lon="8.168605084356333"><ele>168.0</ele><time>2026-04-18T13:19:29.002Z</time></trkpt><trkpt lat="45.032169328921775" lon="8.168452715494434"><ele>168.0</ele><time>2026-04-18T13:19:30.002Z</time></trkpt><trkpt lat="45.0321643115231" lon="8.168292823509152"><ele>168.0</ele><time>2026-04-18T13:19:31.002Z</time></trkpt><trkpt lat="45.03214388013164" lon="8.168144094277212"><ele>168.0</ele><time>2026-04-18T13:19:32.002Z</time></trkpt><trkpt lat="45.03212186353783" lon="8.16799718444696"><ele>168.0</ele><time>2026-04-18T13:19:33.003Z</time></trkpt><trkpt lat="45.03210074804615" lon="8.167877521677106"><ele>168.4</ele><time>2026-04-18T13:19:34.003Z</time></trkpt><trkpt lat="45.032083136283035" lon="8.167785680987855"><ele>168.8</ele><time>2026-04-18T13:19:35.003Z</time></trkpt><trkpt lat="45.03199745076839" lon="8.167647735014894"><ele>169.2</ele><time>2026-04-18T13:19:37.003Z</time></trkpt><trkpt lat="45.031932320622595" lon="8.167576485206192"><ele>169.6</ele><time>2026-04-18T13:19:38.003Z</time></trkpt><trkpt lat="45.03186271496172" lon="8.167495420935643"><ele>170.0</ele><time>2026-04-18T13:19:39.003Z</time></trkpt><trkpt lat="45.03178098932761" lon="8.167405854045517"><ele>169.2</ele><time>2026-04-18T13:19:40.003Z</time></trkpt><trkpt lat="45.03169636156582" lon="8.167314653315348"><ele>168.4</ele><time>2026-04-18T13:19:41.003Z</time></trkpt><trkpt lat="45.03161937127323" lon="8.167214762764518"><ele>167.60000000000002</ele><time>2026-04-18T13:19:42.003Z</time></trkpt><trkpt lat="45.03154797801067" lon="8.167132498529757"><ele>166.8</ele><time>2026-04-18T13:19:43.003Z</time></trkpt><trkpt lat="45.03148346095769" lon="8.167056546732375"><ele>166.0</ele><time>2026-04-18T13:19:44.003Z</time></trkpt><trkpt lat="45.031434570688646" lon="8.166994881500361"><ele>166.0</ele><time>2026-04-18T13:19:45.003Z</time></trkpt><trkpt lat="45.03138100556246" lon="8.166923515419985"><ele>166.0</ele><time>2026-04-18T13:19:46.003Z</time></trkpt><trkpt lat="45.03133162322561" lon="8.166853548185395"><ele>166.0</ele><time>2026-04-18T13:19:47.003Z</time></trkpt><trkpt lat="45.03129619803481" lon="8.1667772370262"><ele>166.0</ele><time>2026-04-18T13:19:48.003Z</time></trkpt><trkpt lat="45.03125817302542" lon="8.166673191056828"><ele>166.0</ele><time>2026-04-18T13:19:49.003Z</time></trkpt><trkpt lat="45.03122261384986" lon="8.16655738809114"><ele>166.0</ele><time>2026-04-18T13:19:50.003Z</time></trkpt><trkpt lat="45.031189851743946" lon="8.166430451789374"><ele>166.4</ele><time>2026-04-18T13:19:51.003Z</time></trkpt><trkpt lat="45.03114936667416" lon="8.166297035718062"><ele>166.8</ele><time>2026-04-18T13:19:52.003Z</time></trkpt><trkpt lat="45.03110455921878" lon="8.166172788041536"><ele>167.20000000000002</ele><time>2026-04-18T13:19:53.003Z</time></trkpt><trkpt lat="45.031049633154105" lon="8.166045006388579"><ele>167.60000000000002</ele><time>2026-04-18T13:19:54.003Z</time></trkpt><trkpt lat="45.03099894152811" lon="8.165929084216922"><ele>168.0</ele><time>2026-04-18T13:19:55.003Z</time></trkpt><trkpt lat="45.03095380359561" lon="8.165825855711404"><ele>168.0</ele><time>2026-04-18T13:19:56.003Z</time></trkpt><trkpt lat="45.030895674595236" lon="8.165715538957363"><ele>168.0</ele><time>2026-04-18T13:19:57.003Z</time></trkpt><trkpt lat="45.03083610471908" lon="8.16561469319399"><ele>168.0</ele><time>2026-04-18T13:19:58.003Z</time></trkpt><trkpt lat="45.03078339525569" lon="8.165531860700273"><ele>168.0</ele><time>2026-04-18T13:19:59.003Z</time></trkpt><trkpt lat="45.03074539817045" lon="8.165454432060292"><ele>168.0</ele><time>2026-04-18T13:20:00.003Z</time></trkpt><trkpt lat="45.030692738868865" lon="8.165366430980772"><ele>168.0</ele><time>2026-04-18T13:20:01.003Z</time></trkpt><trkpt lat="45.030634591774145" lon="8.165280006496838"><ele>167.2</ele><time>2026-04-18T13:20:02.003Z</time></trkpt><trkpt lat="45.03057586707073" lon="8.16518488784649"><ele>166.4</ele><time>2026-04-18T13:20:03Z</time></trkpt><trkpt lat="45.0305229049523" lon="8.165086204600422"><ele>165.6</ele><time>2026-04-18T13:20:04Z</time></trkpt><trkpt lat="45.03048638433979" lon="8.165012686714554"><ele>164.79999999999998</ele><time>2026-04-18T13:20:05Z</time></trkpt><trkpt lat="45.03041188088202" lon="8.164893832799404"><ele>164.0</ele><time>2026-04-18T13:20:07Z</time></trkpt><trkpt lat="45.03030424764754" lon="8.164824583025975"><ele>163.66666666666666</ele><time>2026-04-18T13:20:09Z</time></trkpt><trkpt lat="45.03023257396709" lon="8.164806128831279"><ele>163.33333333333331</ele><time>2026-04-18T13:20:10Z</time></trkpt><trkpt lat="45.030146833006725" lon="8.164795604986054"><ele>163.0</ele><time>2026-04-18T13:20:11Z</time></trkpt><trkpt lat="45.03006221248928" lon="8.16480368771406"><ele>162.66666666666666</ele><time>2026-04-18T13:20:12Z</time></trkpt><trkpt lat="45.029996326040425" lon="8.164818048194798"><ele>162.33333333333334</ele><time>2026-04-18T13:20:13Z</time></trkpt><trkpt lat="45.02987555053248" lon="8.164837925781278"><ele>162.0</ele><time>2026-04-18T13:20:15Z</time></trkpt><trkpt lat="45.0297731568114" lon="8.164753068268404"><ele>162.0</ele><time>2026-04-18T13:20:17Z</time></trkpt><trkpt lat="45.02972975966868" lon="8.164581928877684"><ele>162.0</ele><time>2026-04-18T13:20:19Z</time></trkpt><trkpt lat="45.02970212477546" lon="8.164457605761964"><ele>162.0</ele><time>2026-04-18T13:20:20Z</time></trkpt><trkpt lat="45.029674850103774" lon="8.164319018069405"><ele>162.0</ele><time>2026-04-18T13:20:21Z</time></trkpt><trkpt lat="45.029645011230784" lon="8.164192345052927"><ele>162.0</ele><time>2026-04-18T13:20:22Z</time></trkpt><trkpt lat="45.02960760646126" lon="8.164088486128634"><ele>161.6</ele><time>2026-04-18T13:20:23Z</time></trkpt><trkpt lat="45.02954945281093" lon="8.16398836556778"><ele>161.2</ele><time>2026-04-18T13:20:24Z</time></trkpt><trkpt lat="45.02947602490428" lon="8.163873724605436"><ele>160.8</ele><time>2026-04-18T13:20:25Z</time></trkpt><trkpt lat="45.029404713574195" lon="8.163750544859221"><ele>160.4</ele><time>2026-04-18T13:20:26Z</time></trkpt><trkpt lat="45.0293499695176" lon="8.163636108174202"><ele>160.0</ele><time>2026-04-18T13:20:27Z</time></trkpt><trkpt lat="45.029297293613396" lon="8.163520667718124"><ele>160.0</ele><time>2026-04-18T13:20:28Z</time></trkpt><trkpt lat="45.02924745203644" lon="8.163393187347781"><ele>160.0</ele><time>2026-04-18T13:20:29Z</time></trkpt><trkpt lat="45.029194046313194" lon="8.163269962909157"><ele>160.0</ele><time>2026-04-18T13:20:30Z</time></trkpt><trkpt lat="45.029154260188214" lon="8.16315556680284"><ele>160.0</ele><time>2026-04-18T13:20:31Z</time></trkpt><trkpt lat="45.029117315423306" lon="8.163061399054682"><ele>160.0</ele><time>2026-04-18T13:20:32Z</time></trkpt><trkpt lat="45.02908361281776" lon="8.16296348563948"><ele>160.0</ele><time>2026-04-18T13:20:33Z</time></trkpt><trkpt lat="45.02905456407807" lon="8.1628611580055"><ele>160.4</ele><time>2026-04-18T13:20:34.001Z</time></trkpt><trkpt lat="45.029023677011075" lon="8.162764099266125"><ele>160.8</ele><time>2026-04-18T13:20:35.001Z</time></trkpt><trkpt lat="45.02895746684787" lon="8.162635312465682"><ele>161.2</ele><time>2026-04-18T13:20:37.001Z</time></trkpt><trkpt lat="45.02886742502657" lon="8.162651237361274"><ele>161.6</ele><time>2026-04-18T13:20:39.001Z</time></trkpt><trkpt lat="45.02877650420594" lon="8.16259217360239"><ele>162.0</ele><time>2026-04-18T13:20:41.001Z</time></trkpt><trkpt lat="45.02873083520617" lon="8.162428254146148"><ele>161.83333333333334</ele><time>2026-04-18T13:20:43.001Z</time></trkpt><trkpt lat="45.02870534725533" lon="8.162331367762526"><ele>161.66666666666666</ele><time>2026-04-18T13:20:44.001Z</time></trkpt><trkpt lat="45.02866672349722" lon="8.162223313949605"><ele>161.5</ele><time>2026-04-18T13:20:45.001Z</time></trkpt><trkpt lat="45.0286229772" lon="8.162107325550307"><ele>161.33333333333331</ele><time>2026-04-18T13:20:46.001Z</time></trkpt><trkpt lat="45.028569537501774" lon="8.161994455658876"><ele>161.16666666666666</ele><time>2026-04-18T13:20:47.001Z</time></trkpt><trkpt lat="45.028532833480796" lon="8.161906443216548"><ele>161.0</ele><time>2026-04-18T13:20:48.001Z</time></trkpt><trkpt lat="45.02849226177811" lon="8.161825184744073"><ele>161.0</ele><time>2026-04-18T13:20:49.001Z</time></trkpt><trkpt lat="45.02844958804815" lon="8.161754942271555"><ele>161.0</ele><time>2026-04-18T13:20:50.001Z</time></trkpt><trkpt lat="45.02840658581214" lon="8.161676066786615"><ele>161.0</ele><time>2026-04-18T13:20:51.001Z</time></trkpt><trkpt lat="45.02830400978246" lon="8.161598333626673"><ele>161.0</ele><time>2026-04-18T13:20:53.001Z</time></trkpt><trkpt lat="45.02823990853471" lon="8.16159803583645"><ele>161.0</ele><time>2026-04-18T13:20:54.001Z</time></trkpt><trkpt lat="45.028174738998544" lon="8.161618913388432"><ele>161.0</ele><time>2026-04-18T13:20:55.001Z</time></trkpt><trkpt lat="45.02810718285361" lon="8.16166191976116"><ele>160.60000000000002</ele><time>2026-04-18T13:20:56.001Z</time></trkpt><trkpt lat="45.028031124123295" lon="8.16170181558166"><ele>160.20000000000002</ele><time>2026-04-18T13:20:57.001Z</time></trkpt><trkpt lat="45.02794120843443" lon="8.161738475876135"><ele>159.8</ele><time>2026-04-18T13:20:58.001Z</time></trkpt><trkpt lat="45.02784490747941" lon="8.16177180079045"><ele>159.4</ele><time>2026-04-18T13:20:59.001Z</time></trkpt><trkpt lat="45.0277432324057" lon="8.161801061535256"><ele>159.0</ele><time>2026-04-18T13:21:00.001Z</time></trkpt><trkpt lat="45.027640598445295" lon="8.16182565898175"><ele>159.0</ele><time>2026-04-18T13:21:01.001Z</time></trkpt><trkpt lat="45.02754918794656" lon="8.16184971105301"><ele>159.0</ele><time>2026-04-18T13:21:02.001Z</time></trkpt><trkpt lat="45.027451642360084" lon="8.161871625113768"><ele>159.0</ele><time>2026-04-18T13:21:03.001Z</time></trkpt><trkpt lat="45.027361211325506" lon="8.161895316381113"><ele>159.0</ele><time>2026-04-18T13:21:04.001Z</time></trkpt><trkpt lat="45.02728330349277" lon="8.16191768654872"><ele>159.0</ele><time>2026-04-18T13:21:05.002Z</time></trkpt><trkpt lat="45.02720880032151" lon="8.161936833240718"><ele>159.0</ele><time>2026-04-18T13:21:06.002Z</time></trkpt><trkpt lat="45.02709721155428" lon="8.161950776596505"><ele>158.8</ele><time>2026-04-18T13:21:08.002Z</time></trkpt><trkpt lat="45.02701746627298" lon="8.161918629977196"><ele>158.60000000000002</ele><time>2026-04-18T13:21:11.002Z</time></trkpt><trkpt lat="45.02695322718945" lon="8.1619803448871"><ele>158.4</ele><time>2026-04-18T13:21:15.002Z</time></trkpt><trkpt lat="45.026948332804146" lon="8.162102931599488"><ele>158.20000000000002</ele><time>2026-04-18T13:21:18.002Z</time></trkpt><trkpt lat="45.02694151340522" lon="8.162272419213826"><ele>158.0</ele><time>2026-04-18T13:21:20.002Z</time></trkpt><trkpt lat="45.02692335236094" lon="8.162441118895028"><ele>157.83333333333331</ele><time>2026-04-18T13:21:22.002Z</time></trkpt><trkpt lat="45.026911964121375" lon="8.16254118116305"><ele>157.66666666666666</ele><time>2026-04-18T13:21:23.002Z</time></trkpt><trkpt lat="45.026904077345314" lon="8.16264291390935"><ele>157.5</ele><time>2026-04-18T13:21:24.002Z</time></trkpt><trkpt lat="45.02689526703454" lon="8.162751079219667"><ele>157.33333333333334</ele><time>2026-04-18T13:21:25.002Z</time></trkpt><trkpt lat="45.026890532344225" lon="8.162856821218892"><ele>157.16666666666669</ele><time>2026-04-18T13:21:26.002Z</time></trkpt><trkpt lat="45.02688385846911" lon="8.16297351706215"><ele>157.0</ele><time>2026-04-18T13:21:27.002Z</time></trkpt><trkpt lat="45.026881198588214" lon="8.163089431225414"><ele>157.33333333333334</ele><time>2026-04-18T13:21:28.002Z</time></trkpt><trkpt lat="45.026876021320206" lon="8.163197579987903"><ele>157.66666666666669</ele><time>2026-04-18T13:21:29.002Z</time></trkpt><trkpt lat="45.0268758286209" lon="8.163307464100926"><ele>158.0</ele><time>2026-04-18T13:21:30.002Z</time></trkpt><trkpt lat="45.02687176481143" lon="8.163430718416423"><ele>158.33333333333334</ele><time>2026-04-18T13:21:31.002Z</time></trkpt><trkpt lat="45.026877054726036" lon="8.16356150650326"><ele>158.66666666666666</ele><time>2026-04-18T13:21:32.002Z</time></trkpt><trkpt lat="45.02688646083413" lon="8.163700782839966"><ele>159.0</ele><time>2026-04-18T13:21:33.002Z</time></trkpt><trkpt lat="45.02689703082767" lon="8.163858337016391"><ele>160.0</ele><time>2026-04-18T13:21:34.002Z</time></trkpt><trkpt lat="45.02691578400456" lon="8.164035723368084"><ele>161.0</ele><time>2026-04-18T13:21:35.002Z</time></trkpt><trkpt lat="45.02694197975305" lon="8.164218885575066"><ele>162.0</ele><time>2026-04-18T13:21:36.002Z</time></trkpt><trkpt lat="45.026951591256655" lon="8.16439643394931"><ele>163.0</ele><time>2026-04-18T13:21:37.002Z</time></trkpt><trkpt lat="45.02695814661234" lon="8.164599480351324"><ele>163.0</ele><time>2026-04-18T13:21:38.003Z</time></trkpt><trkpt lat="45.026950738429186" lon="8.164829704992162"><ele>163.0</ele><time>2026-04-18T13:21:39.003Z</time></trkpt><trkpt lat="45.026931322854374" lon="8.165072331497456"><ele>163.0</ele><time>2026-04-18T13:21:40.003Z</time></trkpt><trkpt lat="45.02691029273123" lon="8.165328079970793"><ele>165.0</ele><time>2026-04-18T13:21:41.003Z</time></trkpt><trkpt lat="45.02689598843626" lon="8.165574758169253"><ele>167.0</ele><time>2026-04-18T13:21:42.003Z</time></trkpt><trkpt lat="45.02688459155352" lon="8.165807334768296"><ele>169.0</ele><time>2026-04-18T13:21:43.003Z</time></trkpt><trkpt lat="45.02687860553347" lon="8.166018303050388"><ele>171.0</ele><time>2026-04-18T13:21:44.003Z</time></trkpt><trkpt lat="45.02688610572367" lon="8.166223432581841"><ele>173.0</ele><time>2026-04-18T13:21:45.003Z</time></trkpt><trkpt lat="45.02690846350886" lon="8.166424587898254"><ele>175.0</ele><time>2026-04-18T13:21:46.003Z</time></trkpt><trkpt lat="45.02692691936478" lon="8.166617290053331"><ele>177.0</ele><time>2026-04-18T13:21:47.003Z</time></trkpt><trkpt lat="45.02694099252718" lon="8.16681049725743"><ele>179.33333333333334</ele><time>2026-04-18T13:21:48.003Z</time></trkpt><trkpt lat="45.02694684605946" lon="8.167014724909558"><ele>181.66666666666669</ele><time>2026-04-18T13:21:49.003Z</time></trkpt><trkpt lat="45.02694168114171" lon="8.167237268265588"><ele>184.0</ele><time>2026-04-18T13:21:50.003Z</time></trkpt><trkpt lat="45.026924183207655" lon="8.167466547326141"><ele>186.33333333333334</ele><time>2026-04-18T13:21:51.003Z</time></trkpt><trkpt lat="45.0269070137494" lon="8.167697174635144"><ele>188.66666666666666</ele><time>2026-04-18T13:21:52.003Z</time></trkpt><trkpt lat="45.026891554059" lon="8.167921972053"><ele>191.0</ele><time>2026-04-18T13:21:53.003Z</time></trkpt><trkpt lat="45.02689443490847" lon="8.1681469233954"><ele>193.0</ele><time>2026-04-18T13:21:54.003Z</time></trkpt><trkpt lat="45.02690131323263" lon="8.16835472285592"><ele>195.0</ele><time>2026-04-18T13:21:55.003Z</time></trkpt><trkpt lat="45.026899615289125" lon="8.168521945705917"><ele>197.0</ele><time>2026-04-18T13:21:56.003Z</time></trkpt><trkpt lat="45.02688862962716" lon="8.16869226690143"><ele>199.0</ele><time>2026-04-18T13:21:57.003Z</time></trkpt><trkpt lat="45.026873390109486" lon="8.16887492063207"><ele>200.25</ele><time>2026-04-18T13:21:58.003Z</time></trkpt><trkpt lat="45.026852657829366" lon="8.16906533798113"><ele>201.5</ele><time>2026-04-18T13:21:59.003Z</time></trkpt><trkpt lat="45.02682450279968" lon="8.169263638362962"><ele>202.75</ele><time>2026-04-18T13:22:00.003Z</time></trkpt><trkpt lat="45.02679518614441" lon="8.16944036687022"><ele>204.0</ele><time>2026-04-18T13:22:01.003Z</time></trkpt><trkpt lat="45.02677363608148" lon="8.169595659591636"><ele>204.0</ele><time>2026-04-18T13:22:02.003Z</time></trkpt><trkpt lat="45.02677123567749" lon="8.1697607403055"><ele>204.0</ele><time>2026-04-18T13:22:03.003Z</time></trkpt><trkpt lat="45.02678541255748" lon="8.169934926653342"><ele>204.0</ele><time>2026-04-18T13:22:04.003Z</time></trkpt><trkpt lat="45.026809795811175" lon="8.170111983572946"><ele>204.0</ele><time>2026-04-18T13:22:05.003Z</time></trkpt><trkpt lat="45.02684553942082" lon="8.170305686694686"><ele>204.5</ele><time>2026-04-18T13:22:06.003Z</time></trkpt><trkpt lat="45.026890846251774" lon="8.170502877830433"><ele>205.0</ele><time>2026-04-18T13:22:07.003Z</time></trkpt><trkpt lat="45.02694311061069" lon="8.17073184260407"><ele>205.5</ele><time>2026-04-18T13:22:08.003Z</time></trkpt><trkpt lat="45.02699749516658" lon="8.170866082961734"><ele>206.0</ele><time>2026-04-18T13:22:09Z</time></trkpt><trkpt lat="45.027079323394396" lon="8.171062414544227"><ele>207.5</ele><time>2026-04-18T13:22:10Z</time></trkpt><trkpt lat="45.02715835064673" lon="8.171242788309623"><ele>209.0</ele><time>2026-04-18T13:22:11Z</time></trkpt><trkpt lat="45.02723167554723" lon="8.171420297884412"><ele>210.5</ele><time>2026-04-18T13:22:12Z</time></trkpt><trkpt lat="45.02730489305631" lon="8.171604121820144"><ele>212.0</ele><time>2026-04-18T13:22:13Z</time></trkpt><trkpt lat="45.02737327007623" lon="8.171802956770325"><ele>212.66666666666669</ele><time>2026-04-18T13:22:14Z</time></trkpt><trkpt lat="45.027440804512814" lon="8.17200085620863"><ele>213.33333333333331</ele><time>2026-04-18T13:22:15Z</time></trkpt><trkpt lat="45.02750596514161" lon="8.172209672123586"><ele>214.0</ele><time>2026-04-18T13:22:16Z</time></trkpt><trkpt lat="45.027562927492106" lon="8.172421338364886"><ele>214.0</ele><time>2026-04-18T13:22:17Z</time></trkpt><trkpt lat="45.02761210132311" lon="8.17260155638656"><ele>214.0</ele><time>2026-04-18T13:22:18Z</time></trkpt><trkpt lat="45.027641341617624" lon="8.17277786200335"><ele>214.0</ele><time>2026-04-18T13:22:19Z</time></trkpt><trkpt lat="45.02764218922556" lon="8.172976779133856"><ele>214.0</ele><time>2026-04-18T13:22:20Z</time></trkpt><trkpt lat="45.02767259468615" lon="8.173175528716305"><ele>215.0</ele><time>2026-04-18T13:22:21Z</time></trkpt><trkpt lat="45.02768331665516" lon="8.173391053817586"><ele>216.0</ele><time>2026-04-18T13:22:22Z</time></trkpt><trkpt lat="45.027708890091496" lon="8.173620181922235"><ele>217.0</ele><time>2026-04-18T13:22:23Z</time></trkpt><trkpt lat="45.02773685214666" lon="8.173854467544398"><ele>215.66666666666666</ele><time>2026-04-18T13:22:24Z</time></trkpt><trkpt lat="45.027761308787376" lon="8.174101448490447"><ele>214.33333333333331</ele><time>2026-04-18T13:22:25Z</time></trkpt><trkpt lat="45.027778443835835" lon="8.17435572205462"><ele>213.0</ele><time>2026-04-18T13:22:26Z</time></trkpt><trkpt lat="45.027795212161" lon="8.174615338852917"><ele>212.66666666666669</ele><time>2026-04-18T13:22:27Z</time></trkpt><trkpt lat="45.02780966885812" lon="8.174874183381265"><ele>212.33333333333334</ele><time>2026-04-18T13:22:28Z</time></trkpt><trkpt lat="45.02779880463416" lon="8.175114807824366"><ele>212.0</ele><time>2026-04-18T13:22:29Z</time></trkpt><trkpt lat="45.02779234262104" lon="8.175342179663913"><ele>212.0</ele><time>2026-04-18T13:22:30Z</time></trkpt><trkpt lat="45.027777701368244" lon="8.175572193104802"><ele>212.0</ele><time>2026-04-18T13:22:31Z</time></trkpt><trkpt lat="45.02777400545636" lon="8.17580745770727"><ele>212.0</ele><time>2026-04-18T13:22:32Z</time></trkpt><trkpt lat="45.02775367221043" lon="8.176044318274498"><ele>214.0</ele><time>2026-04-18T13:22:33Z</time></trkpt><trkpt lat="45.0277370622949" lon="8.176275139490036"><ele>216.0</ele><time>2026-04-18T13:22:34Z</time></trkpt><trkpt lat="45.02772047027143" lon="8.176505959225091"><ele>218.0</ele><time>2026-04-18T13:22:35Z</time></trkpt><trkpt lat="45.02770515177248" lon="8.176729984441584"><ele>219.75</ele><time>2026-04-18T13:22:36Z</time></trkpt><trkpt lat="45.027699068308486" lon="8.176926650402198"><ele>221.5</ele><time>2026-04-18T13:22:37Z</time></trkpt><trkpt lat="45.02770615673036" lon="8.17711913393473"><ele>223.25</ele><time>2026-04-18T13:22:38Z</time></trkpt><trkpt lat="45.02771521809898" lon="8.177307242184142"><ele>225.0</ele><time>2026-04-18T13:22:39.001Z</time></trkpt><trkpt lat="45.02772418025911" lon="8.177464550652108"><ele>225.25</ele><time>2026-04-18T13:22:40.001Z</time></trkpt><trkpt lat="45.02774515988154" lon="8.177602725091058"><ele>225.5</ele><time>2026-04-18T13:22:41.001Z</time></trkpt><trkpt lat="45.02780628083768" lon="8.177726610152005"><ele>225.75</ele><time>2026-04-18T13:22:42.001Z</time></trkpt><trkpt lat="45.0278721700566" lon="8.17787379017557"><ele>226.0</ele><time>2026-04-18T13:22:43.001Z</time></trkpt><trkpt lat="45.02796096552125" lon="8.178031456231071"><ele>223.33333333333331</ele><time>2026-04-18T13:22:44.001Z</time></trkpt><trkpt lat="45.02805573892764" lon="8.178197424446417"><ele>220.66666666666669</ele><time>2026-04-18T13:22:45.001Z</time></trkpt><trkpt lat="45.02815122053862" lon="8.178371898956996"><ele>218.0</ele><time>2026-04-18T13:22:46.001Z</time></trkpt><trkpt lat="45.028241221534756" lon="8.178535470375463"><ele>218.33333333333334</ele><time>2026-04-18T13:22:47.001Z</time></trkpt><trkpt lat="45.02833475493261" lon="8.178702998189031"><ele>218.66666666666669</ele><time>2026-04-18T13:22:48.001Z</time></trkpt><trkpt lat="45.02842929604937" lon="8.178876860904671"><ele>219.0</ele><time>2026-04-18T13:22:49.001Z</time></trkpt><trkpt lat="45.028526358527394" lon="8.17905216255809"><ele>219.0</ele><time>2026-04-18T13:22:50.001Z</time></trkpt><trkpt lat="45.028615456120285" lon="8.179229018299425"><ele>219.0</ele><time>2026-04-18T13:22:51.001Z</time></trkpt><trkpt lat="45.02869417700968" lon="8.179396374718733"><ele>219.0</ele><time>2026-04-18T13:22:52.001Z</time></trkpt><trkpt lat="45.02877623648056" lon="8.17954886199358"><ele>219.0</ele><time>2026-04-18T13:22:53.001Z</time></trkpt><trkpt lat="45.02886673122291" lon="8.179687105937012"><ele>219.0</ele><time>2026-04-18T13:22:54.001Z</time></trkpt><trkpt lat="45.02896340033961" lon="8.179816713437003"><ele>219.0</ele><time>2026-04-18T13:22:55.001Z</time></trkpt><trkpt lat="45.02905676199832" lon="8.17994194183247"><ele>219.0</ele><time>2026-04-18T13:22:56.001Z</time></trkpt><trkpt lat="45.02914873532441" lon="8.180075760371206"><ele>219.0</ele><time>2026-04-18T13:22:57.001Z</time></trkpt><trkpt lat="45.02922658530705" lon="8.180199448503615"><ele>219.0</ele><time>2026-04-18T13:22:58.001Z</time></trkpt><trkpt lat="45.02928882711489" lon="8.180342300554749"><ele>219.0</ele><time>2026-04-18T13:22:59.001Z</time></trkpt><trkpt lat="45.029334491846626" lon="8.180492638325848"><ele>219.0</ele><time>2026-04-18T13:23:00.001Z</time></trkpt><trkpt lat="45.02935952759097" lon="8.180654612075962"><ele>219.0</ele><time>2026-04-18T13:23:01.001Z</time></trkpt><trkpt lat="45.02936349667515" lon="8.180818319670975"><ele>216.75</ele><time>2026-04-18T13:23:02.001Z</time></trkpt><trkpt lat="45.02933673478247" lon="8.180982677913368"><ele>214.5</ele><time>2026-04-18T13:23:03.001Z</time></trkpt><trkpt lat="45.02929690498663" lon="8.181156921867736"><ele>212.25</ele><time>2026-04-18T13:23:04.001Z</time></trkpt><trkpt lat="45.02925636033349" lon="8.181341308570667"><ele>210.0</ele><time>2026-04-18T13:23:05.001Z</time></trkpt><trkpt lat="45.02920979085184" lon="8.181528943867331"><ele>209.5</ele><time>2026-04-18T13:23:06.001Z</time></trkpt><trkpt lat="45.02914935597213" lon="8.181709699995285"><ele>209.0</ele><time>2026-04-18T13:23:07.001Z</time></trkpt><trkpt lat="45.02904784335096" lon="8.181858386353637"><ele>208.5</ele><time>2026-04-18T13:23:08.001Z</time></trkpt><trkpt lat="45.028966188788274" lon="8.182033368176917"><ele>208.0</ele><time>2026-04-18T13:23:09.001Z</time></trkpt><trkpt lat="45.02887561619408" lon="8.18220756716005"><ele>208.33333333333331</ele><time>2026-04-18T13:23:10.002Z</time></trkpt><trkpt lat="45.02879068751217" lon="8.182402786660036"><ele>208.66666666666669</ele><time>2026-04-18T13:23:11.002Z</time></trkpt><trkpt lat="45.02870948063166" lon="8.182586594182098"><ele>209.0</ele><time>2026-04-18T13:23:12.002Z</time></trkpt><trkpt lat="45.02863025378371" lon="8.182761113738641"><ele>209.0</ele><time>2026-04-18T13:23:13.002Z</time></trkpt><trkpt lat="45.02854492098002" lon="8.182928315878636"><ele>209.0</ele><time>2026-04-18T13:23:14.002Z</time></trkpt><trkpt lat="45.028450369931925" lon="8.183083906598723"><ele>209.0</ele><time>2026-04-18T13:23:15.002Z</time></trkpt><trkpt lat="45.0283507419177" lon="8.183224105575519"><ele>209.0</ele><time>2026-04-18T13:23:16.002Z</time></trkpt><trkpt lat="45.02824779706393" lon="8.183341428276043"><ele>211.0</ele><time>2026-04-18T13:23:17.002Z</time></trkpt><trkpt lat="45.028145708591516" lon="8.183446768627782"><ele>213.0</ele><time>2026-04-18T13:23:18.002Z</time></trkpt><trkpt lat="45.02805350543765" lon="8.183551221995705"><ele>215.0</ele><time>2026-04-18T13:23:19.002Z</time></trkpt><trkpt lat="45.0279621263851" lon="8.183673465494667"><ele>217.0</ele><time>2026-04-18T13:23:20.002Z</time></trkpt><trkpt lat="45.027870420588606" lon="8.183813106609232"><ele>217.0</ele><time>2026-04-18T13:23:21.002Z</time></trkpt><trkpt lat="45.02777707156649" lon="8.183959824377363"><ele>217.0</ele><time>2026-04-18T13:23:22.002Z</time></trkpt><trkpt lat="45.02768113651667" lon="8.184108334132722"><ele>217.0</ele><time>2026-04-18T13:23:23.002Z</time></trkpt><trkpt lat="45.027581915093016" lon="8.184261482334245"><ele>217.0</ele><time>2026-04-18T13:23:24.002Z</time></trkpt><trkpt lat="45.02747455301639" lon="8.184415114359703"><ele>217.5</ele><time>2026-04-18T13:23:25.002Z</time></trkpt><trkpt lat="45.02737120275888" lon="8.18456115920418"><ele>218.0</ele><time>2026-04-18T13:23:26.002Z</time></trkpt><trkpt lat="45.027283157786584" lon="8.184692780983195"><ele>218.5</ele><time>2026-04-18T13:23:27.002Z</time></trkpt><trkpt lat="45.02720228856532" lon="8.184829906002848"><ele>219.0</ele><time>2026-04-18T13:23:28.002Z</time></trkpt><trkpt lat="45.027129607032975" lon="8.184984353531727"><ele>220.75</ele><time>2026-04-18T13:23:29.002Z</time></trkpt><trkpt lat="45.027072484068896" lon="8.18515025002625"><ele>222.5</ele><time>2026-04-18T13:23:30.002Z</time></trkpt><trkpt lat="45.02702765874718" lon="8.185325598223717"><ele>224.25</ele><time>2026-04-18T13:23:31.002Z</time></trkpt><trkpt lat="45.02698577037509" lon="8.185499333469329"><ele>226.0</ele><time>2026-04-18T13:23:32.002Z</time></trkpt><trkpt lat="45.02694692253118" lon="8.185668829557802"><ele>227.8</ele><time>2026-04-18T13:23:33.002Z</time></trkpt><trkpt lat="45.026907668048395" lon="8.185823181969521"><ele>229.60000000000002</ele><time>2026-04-18T13:23:34.002Z</time></trkpt><trkpt lat="45.026877956309185" lon="8.18594211102684"><ele>231.4</ele><time>2026-04-18T13:23:35.002Z</time></trkpt><trkpt lat="45.02684964998979" lon="8.186045053637223"><ele>233.2</ele><time>2026-04-18T13:23:36.002Z</time></trkpt><trkpt lat="45.02681405114547" lon="8.186168104247338"><ele>235.0</ele><time>2026-04-18T13:23:38.002Z</time></trkpt><trkpt lat="45.026713448000415" lon="8.186194331318234"><ele>235.4</ele><time>2026-04-18T13:23:42.002Z</time></trkpt><trkpt lat="45.02663894519701" lon="8.186172016837338"><ele>235.8</ele><time>2026-04-18T13:23:43.003Z</time></trkpt><trkpt lat="45.02654669906028" lon="8.186154099269737"><ele>236.2</ele><time>2026-04-18T13:23:44.003Z</time></trkpt><trkpt lat="45.02645159618151" lon="8.186146844551224"><ele>236.6</ele><time>2026-04-18T13:23:45.003Z</time></trkpt><trkpt lat="45.02635055222558" lon="8.186134882006263"><ele>237.0</ele><time>2026-04-18T13:23:46.003Z</time></trkpt><trkpt lat="45.02624774069275" lon="8.186130032659522"><ele>237.0</ele><time>2026-04-18T13:23:47.003Z</time></trkpt><trkpt lat="45.02612002198504" lon="8.186115773161774"><ele>237.0</ele><time>2026-04-18T13:23:48.003Z</time></trkpt><trkpt lat="45.02599680850476" lon="8.186103862784023"><ele>237.0</ele><time>2026-04-18T13:23:49.003Z</time></trkpt><trkpt lat="45.02587829184362" lon="8.186095839814639"><ele>237.0</ele><time>2026-04-18T13:23:50.003Z</time></trkpt><trkpt lat="45.02575866899865" lon="8.18608418223053"><ele>237.0</ele><time>2026-04-18T13:23:51.003Z</time></trkpt><trkpt lat="45.02563218050465" lon="8.186071219382413"><ele>237.0</ele><time>2026-04-18T13:23:52.003Z</time></trkpt><trkpt lat="45.02550237560169" lon="8.186060463832616"><ele>237.0</ele><time>2026-04-18T13:23:53.003Z</time></trkpt><trkpt lat="45.025365490971815" lon="8.186055839937508"><ele>237.0</ele><time>2026-04-18T13:23:54.003Z</time></trkpt><trkpt lat="45.02523774522983" lon="8.186046827771555"><ele>237.0</ele><time>2026-04-18T13:23:55.003Z</time></trkpt><trkpt lat="45.025120594327134" lon="8.186031379818088"><ele>237.0</ele><time>2026-04-18T13:23:56.003Z</time></trkpt><trkpt lat="45.02501463542882" lon="8.186024067003517"><ele>237.0</ele><time>2026-04-18T13:23:57.003Z</time></trkpt><trkpt lat="45.024933496151085" lon="8.186027152710603"><ele>237.0</ele><time>2026-04-18T13:23:58.003Z</time></trkpt><trkpt lat="45.02483068649678" lon="8.186030879221523"><ele>237.0</ele><time>2026-04-18T13:24:00.003Z</time></trkpt><trkpt lat="45.02470290368664" lon="8.186068523217813"><ele>236.0</ele><time>2026-04-18T13:24:02.003Z</time></trkpt><trkpt lat="45.02461944428128" lon="8.186100318059705"><ele>235.0</ele><time>2026-04-18T13:24:03.003Z</time></trkpt><trkpt lat="45.024525768603255" lon="8.186110095657153"><ele>234.0</ele><time>2026-04-18T13:24:04.003Z</time></trkpt><trkpt lat="45.02443710888752" lon="8.18608392211416"><ele>233.0</ele><time>2026-04-18T13:24:05.003Z</time></trkpt><trkpt lat="45.024366654549" lon="8.185992944623665"><ele>232.0</ele><time>2026-04-18T13:24:06.003Z</time></trkpt><trkpt lat="45.02430290746588" lon="8.18589224844079"><ele>232.0</ele><time>2026-04-18T13:24:07.003Z</time></trkpt><trkpt lat="45.024239724198566" lon="8.185774428683938"><ele>232.0</ele><time>2026-04-18T13:24:08.003Z</time></trkpt><trkpt lat="45.024184645911305" lon="8.185639729596671"><ele>232.0</ele><time>2026-04-18T13:24:09.003Z</time></trkpt><trkpt lat="45.02413959857477" lon="8.185515529804697"><ele>232.0</ele><time>2026-04-18T13:24:10.003Z</time></trkpt><trkpt lat="45.02410253387347" lon="8.185383537791525"><ele>232.0</ele><time>2026-04-18T13:24:11.003Z</time></trkpt><trkpt lat="45.02405137473375" lon="8.185240663989623"><ele>229.5</ele><time>2026-04-18T13:24:12.003Z</time></trkpt><trkpt lat="45.02401007830136" lon="8.185067495979796"><ele>227.0</ele><time>2026-04-18T13:24:13.003Z</time></trkpt><trkpt lat="45.02395934748268" lon="8.184908707189892"><ele>224.5</ele><time>2026-04-18T13:24:14.003Z</time></trkpt><trkpt lat="45.02391088645186" lon="8.18476507530129"><ele>222.0</ele><time>2026-04-18T13:24:15Z</time></trkpt><trkpt lat="45.02385018375348" lon="8.184615880039921"><ele>221.25</ele><time>2026-04-18T13:24:16Z</time></trkpt><trkpt lat="45.023799885954666" lon="8.184456018016846"><ele>220.5</ele><time>2026-04-18T13:24:17Z</time></trkpt><trkpt lat="45.02373735676371" lon="8.184299907054095"><ele>219.75</ele><time>2026-04-18T13:24:18Z</time></trkpt><trkpt lat="45.02365128391715" lon="8.184167602555462"><ele>219.0</ele><time>2026-04-18T13:24:19Z</time></trkpt><trkpt lat="45.02355401818679" lon="8.18401981370228"><ele>218.75</ele><time>2026-04-18T13:24:20Z</time></trkpt><trkpt lat="45.02344474366865" lon="8.183868002508245"><ele>218.5</ele><time>2026-04-18T13:24:21Z</time></trkpt><trkpt lat="45.02334175950885" lon="8.183718289486585"><ele>218.25</ele><time>2026-04-18T13:24:22Z</time></trkpt><trkpt lat="45.023234966251536" lon="8.18357375202658"><ele>218.0</ele><time>2026-04-18T13:24:23Z</time></trkpt><trkpt lat="45.02312424997558" lon="8.183426807240307"><ele>216.5</ele><time>2026-04-18T13:24:24Z</time></trkpt><trkpt lat="45.0230179961469" lon="8.183286371758575"><ele>215.0</ele><time>2026-04-18T13:24:25Z</time></trkpt><trkpt lat="45.02291358760417" lon="8.183155648330331"><ele>213.5</ele><time>2026-04-18T13:24:26Z</time></trkpt><trkpt lat="45.02279604206281" lon="8.183038833384916"><ele>212.0</ele><time>2026-04-18T13:24:27Z</time></trkpt><trkpt lat="45.02266517985498" lon="8.18293971426505"><ele>211.33333333333334</ele><time>2026-04-18T13:24:28Z</time></trkpt><trkpt lat="45.022521128762094" lon="8.18285917309524"><ele>210.66666666666669</ele><time>2026-04-18T13:24:29Z</time></trkpt><trkpt lat="45.02237447518348" lon="8.182798755251254"><ele>210.0</ele><time>2026-04-18T13:24:30Z</time></trkpt><trkpt lat="45.02222252082411" lon="8.182748944830257"><ele>208.75</ele><time>2026-04-18T13:24:31Z</time></trkpt><trkpt lat="45.02206759794636" lon="8.182700273380743"><ele>207.5</ele><time>2026-04-18T13:24:32Z</time></trkpt><trkpt lat="45.021927494431104" lon="8.1826530224326"><ele>206.25</ele><time>2026-04-18T13:24:33Z</time></trkpt><trkpt lat="45.021790978567886" lon="8.182607589526572"><ele>205.0</ele><time>2026-04-18T13:24:34Z</time></trkpt><trkpt lat="45.02166185113028" lon="8.182557269850408"><ele>203.5</ele><time>2026-04-18T13:24:35Z</time></trkpt><trkpt lat="45.02153676956267" lon="8.182516110091317"><ele>202.0</ele><time>2026-04-18T13:24:36Z</time></trkpt><trkpt lat="45.02141389585735" lon="8.182473354018258"><ele>200.5</ele><time>2026-04-18T13:24:37Z</time></trkpt><trkpt lat="45.021289749652404" lon="8.182431885058538"><ele>199.0</ele><time>2026-04-18T13:24:38Z</time></trkpt><trkpt lat="45.02117543706098" lon="8.182393192339894"><ele>199.0</ele><time>2026-04-18T13:24:39Z</time></trkpt><trkpt lat="45.021062171149694" lon="8.182353959810296"><ele>199.0</ele><time>2026-04-18T13:24:40Z</time></trkpt><trkpt lat="45.02095205988177" lon="8.18232295380829"><ele>199.0</ele><time>2026-04-18T13:24:41Z</time></trkpt><trkpt lat="45.02084539670136" lon="8.182299261975482"><ele>199.0</ele><time>2026-04-18T13:24:42Z</time></trkpt><trkpt lat="45.02073244163223" lon="8.182279386073455"><ele>198.0</ele><time>2026-04-18T13:24:43Z</time></trkpt><trkpt lat="45.02060746517064" lon="8.182259461906511"><ele>197.0</ele><time>2026-04-18T13:24:44Z</time></trkpt><trkpt lat="45.02048049954082" lon="8.182232159905897"><ele>196.0</ele><time>2026-04-18T13:24:45.001Z</time></trkpt><trkpt lat="45.02034232661156" lon="8.182203929004288"><ele>195.0</ele><time>2026-04-18T13:24:46.001Z</time></trkpt><trkpt lat="45.0201916432848" lon="8.182173963938432"><ele>195.0</ele><time>2026-04-18T13:24:47.001Z</time></trkpt><trkpt lat="45.02001958686391" lon="8.18213332583549"><ele>195.0</ele><time>2026-04-18T13:24:48.001Z</time></trkpt><trkpt lat="45.019837578218095" lon="8.182095580669772"><ele>195.0</ele><time>2026-04-18T13:24:49.001Z</time></trkpt><trkpt lat="45.01963906117315" lon="8.182053321394005"><ele>194.66666666666669</ele><time>2026-04-18T13:24:50.001Z</time></trkpt><trkpt lat="45.019440560671015" lon="8.182016581677232"><ele>194.33333333333334</ele><time>2026-04-18T13:24:51.001Z</time></trkpt><trkpt lat="45.01925180730544" lon="8.181982446709835"><ele>194.0</ele><time>2026-04-18T13:24:52.001Z</time></trkpt><trkpt lat="45.019057373577084" lon="8.181938787940867"><ele>191.0</ele><time>2026-04-18T13:24:53.001Z</time></trkpt><trkpt lat="45.0188526738179" lon="8.181899938226115"><ele>188.0</ele><time>2026-04-18T13:24:54.001Z</time></trkpt><trkpt lat="45.01864683135818" lon="8.181859367582573"><ele>185.0</ele><time>2026-04-18T13:24:55.001Z</time></trkpt><trkpt lat="45.01844316633824" lon="8.181820615709913"><ele>182.33333333333331</ele><time>2026-04-18T13:24:56.001Z</time></trkpt><trkpt lat="45.018234858349" lon="8.181783105895864"><ele>179.66666666666666</ele><time>2026-04-18T13:24:57.001Z</time></trkpt><trkpt lat="45.01802572513666" lon="8.181744340477751"><ele>177.0</ele><time>2026-04-18T13:24:58.001Z</time></trkpt><trkpt lat="45.01781794384177" lon="8.18169947213464"><ele>177.0</ele><time>2026-04-18T13:24:59.001Z</time></trkpt><trkpt lat="45.01760941149945" lon="8.181658204117822"><ele>177.0</ele><time>2026-04-18T13:25:00.001Z</time></trkpt><trkpt lat="45.01740035663614" lon="8.181618028802243"><ele>177.0</ele><time>2026-04-18T13:25:01.001Z</time></trkpt><trkpt lat="45.017190915627395" lon="8.181575536243669"><ele>177.66666666666666</ele><time>2026-04-18T13:25:02.001Z</time></trkpt><trkpt lat="45.01698005788004" lon="8.181534069684911"><ele>178.33333333333331</ele><time>2026-04-18T13:25:03.001Z</time></trkpt><trkpt lat="45.01676887687771" lon="8.181494313131182"><ele>179.0</ele><time>2026-04-18T13:25:04.001Z</time></trkpt><trkpt lat="45.016555724737934" lon="8.181453879200907"><ele>179.0</ele><time>2026-04-18T13:25:05.001Z</time></trkpt><trkpt lat="45.01634318329374" lon="8.181407408358833"><ele>179.0</ele><time>2026-04-18T13:25:06.001Z</time></trkpt><trkpt lat="45.0161298538462" lon="8.181359902109444"><ele>179.0</ele><time>2026-04-18T13:25:07.001Z</time></trkpt><trkpt lat="45.01591467615156" lon="8.181318234326397"><ele>176.0</ele><time>2026-04-18T13:25:08.001Z</time></trkpt><trkpt lat="45.01570548207891" lon="8.18127890020518"><ele>173.0</ele><time>2026-04-18T13:25:09.001Z</time></trkpt><trkpt lat="45.01550615313319" lon="8.181242225716524"><ele>170.0</ele><time>2026-04-18T13:25:10.001Z</time></trkpt><trkpt lat="45.01531703006243" lon="8.181201712335374"><ele>170.0</ele><time>2026-04-18T13:25:11.001Z</time></trkpt><trkpt lat="45.01512701556626" lon="8.181160184770361"><ele>170.0</ele><time>2026-04-18T13:25:12.001Z</time></trkpt><trkpt lat="45.01494267285288" lon="8.181127159837395"><ele>170.0</ele><time>2026-04-18T13:25:13.001Z</time></trkpt><trkpt lat="45.01475341542283" lon="8.181089345529662"><ele>166.66666666666666</ele><time>2026-04-18T13:25:14.001Z</time></trkpt><trkpt lat="45.01456913180029" lon="8.181049468172173"><ele>163.33333333333334</ele><time>2026-04-18T13:25:15.001Z</time></trkpt><trkpt lat="45.014385329292196" lon="8.18101147461547"><ele>160.0</ele><time>2026-04-18T13:25:16.001Z</time></trkpt><trkpt lat="45.01420392619345" lon="8.18097623616563"><ele>158.33333333333334</ele><time>2026-04-18T13:25:17.001Z</time></trkpt><trkpt lat="45.014023481838585" lon="8.180939878921885"><ele>156.66666666666666</ele><time>2026-04-18T13:25:18.001Z</time></trkpt><trkpt lat="45.01385048682253" lon="8.18090319370054"><ele>155.0</ele><time>2026-04-18T13:25:19.001Z</time></trkpt><trkpt lat="45.01368506299483" lon="8.180878380089739"><ele>155.0</ele><time>2026-04-18T13:25:20.002Z</time></trkpt><trkpt lat="45.01352565823425" lon="8.180864961502618"><ele>155.0</ele><time>2026-04-18T13:25:21.002Z</time></trkpt><trkpt lat="45.01336357077992" lon="8.180879242707892"><ele>155.0</ele><time>2026-04-18T13:25:22.002Z</time></trkpt><trkpt lat="45.0132044209219" lon="8.180931133768349"><ele>154.33333333333331</ele><time>2026-04-18T13:25:23.002Z</time></trkpt><trkpt lat="45.01304937747405" lon="8.181005851161313"><ele>153.66666666666666</ele><time>2026-04-18T13:25:24.002Z</time></trkpt><trkpt lat="45.012897668952746" lon="8.18109909986382"><ele>153.0</ele><time>2026-04-18T13:25:25.002Z</time></trkpt><trkpt lat="45.01275226006392" lon="8.181216042537507"><ele>153.0</ele><time>2026-04-18T13:25:26.002Z</time></trkpt><trkpt lat="45.01261606845965" lon="8.181361544971672"><ele>153.0</ele><time>2026-04-18T13:25:27.002Z</time></trkpt><trkpt lat="45.01249280123344" lon="8.181532023874311"><ele>153.0</ele><time>2026-04-18T13:25:28.002Z</time></trkpt><trkpt lat="45.0123710623424" lon="8.18171685928924"><ele>151.66666666666666</ele><time>2026-04-18T13:25:29.002Z</time></trkpt><trkpt lat="45.01223870819961" lon="8.181895446091316"><ele>150.33333333333331</ele><time>2026-04-18T13:25:30.002Z</time></trkpt><trkpt lat="45.01210710545538" lon="8.182075831758453"><ele>149.0</ele><time>2026-04-18T13:25:31.002Z</time></trkpt><trkpt lat="45.011970442923335" lon="8.182255493746814"><ele>149.33333333333331</ele><time>2026-04-18T13:25:32.002Z</time></trkpt><trkpt lat="45.01183906057127" lon="8.182448634724686"><ele>149.66666666666666</ele><time>2026-04-18T13:25:33.002Z</time></trkpt><trkpt lat="45.01169442336691" lon="8.182635946355957"><ele>150.0</ele><time>2026-04-18T13:25:34.002Z</time></trkpt><trkpt lat="45.01155195719234" lon="8.18282271876912"><ele>150.0</ele><time>2026-04-18T13:25:35.002Z</time></trkpt><trkpt lat="45.01128382914689" lon="8.183190015817802"><ele>150.0</ele><time>2026-04-18T13:25:37.002Z</time></trkpt><trkpt lat="45.01115324114933" lon="8.183362065989348"><ele>150.0</ele><time>2026-04-18T13:25:38.002Z</time></trkpt><trkpt lat="45.01103041103816" lon="8.183523492011911"><ele>150.0</ele><time>2026-04-18T13:25:39.002Z</time></trkpt><trkpt lat="45.01090767188623" lon="8.183673883705872"><ele>150.0</ele><time>2026-04-18T13:25:40.002Z</time></trkpt><trkpt lat="45.01077481666082" lon="8.183804575010512"><ele>150.0</ele><time>2026-04-18T13:25:41.002Z</time></trkpt><trkpt lat="45.010627100902276" lon="8.18388888412075"><ele>150.0</ele><time>2026-04-18T13:25:42.002Z</time></trkpt><trkpt lat="45.010476540390194" lon="8.18392699217413"><ele>150.0</ele><time>2026-04-18T13:25:43.002Z</time></trkpt><trkpt lat="45.01032498525398" lon="8.18392177759357"><ele>150.0</ele><time>2026-04-18T13:25:44.002Z</time></trkpt><trkpt lat="45.01017273249531" lon="8.1838878232425"><ele>150.0</ele><time>2026-04-18T13:25:45.002Z</time></trkpt><trkpt lat="45.01002760217965" lon="8.183818012503771"><ele>150.0</ele><time>2026-04-18T13:25:46.002Z</time></trkpt><trkpt lat="45.009905882151386" lon="8.183692987928087"><ele>150.0</ele><time>2026-04-18T13:25:47.002Z</time></trkpt><trkpt lat="45.00977549625404" lon="8.18358609596011"><ele>150.0</ele><time>2026-04-18T13:25:48.002Z</time></trkpt><trkpt lat="45.00967195560431" lon="8.183453437216228"><ele>150.0</ele><time>2026-04-18T13:25:49.002Z</time></trkpt><trkpt lat="45.009569469579255" lon="8.183345308527487"><ele>150.0</ele><time>2026-04-18T13:25:50.002Z</time></trkpt><trkpt lat="45.0094679795977" lon="8.183242703348713"><ele>150.0</ele><time>2026-04-18T13:25:51.002Z</time></trkpt><trkpt lat="45.00937838775944" lon="8.183147629733293"><ele>150.0</ele><time>2026-04-18T13:25:52.002Z</time></trkpt><trkpt lat="45.00929370311336" lon="8.183062922352264"><ele>150.0</ele><time>2026-04-18T13:25:53.002Z</time></trkpt><trkpt lat="45.00921851751784" lon="8.182985293270734"><ele>150.0</ele><time>2026-04-18T13:25:54.002Z</time></trkpt><trkpt lat="45.0091589730334" lon="8.182921506441765"><ele>150.0</ele><time>2026-04-18T13:25:55.003Z</time></trkpt><trkpt lat="45.00908043391962" lon="8.18283317472248"><ele>150.0</ele><time>2026-04-18T13:25:57.003Z</time></trkpt><trkpt lat="45.00902797234086" lon="8.182768196589167"><ele>150.0</ele><time>2026-04-18T13:26:00.003Z</time></trkpt><trkpt lat="45.0089627724596" lon="8.182688161138968"><ele>150.0</ele><time>2026-04-18T13:26:37Z</time></trkpt><trkpt lat="45.008906759971175" lon="8.182597082496992"><ele>150.0</ele><time>2026-04-18T13:26:39Z</time></trkpt><trkpt lat="45.008981435923744" lon="8.182439937221504"><ele>150.0</ele><time>2026-04-18T13:26:40Z</time></trkpt><trkpt lat="45.00902397190168" lon="8.182320040572261"><ele>150.25</ele><time>2026-04-18T13:26:41Z</time></trkpt><trkpt lat="45.00905914396766" lon="8.182180545388167"><ele>150.5</ele><time>2026-04-18T13:26:42Z</time></trkpt><trkpt lat="45.009100558754916" lon="8.182015386240588"><ele>150.75</ele><time>2026-04-18T13:26:43.001Z</time></trkpt><trkpt lat="45.00915184107961" lon="8.181824430472153"><ele>151.0</ele><time>2026-04-18T13:26:44.001Z</time></trkpt><trkpt lat="45.00920465600075" lon="8.181635397243136"><ele>151.0</ele><time>2026-04-18T13:26:45.001Z</time></trkpt><trkpt lat="45.009260460202206" lon="8.181435065672408"><ele>151.0</ele><time>2026-04-18T13:26:46.001Z</time></trkpt><trkpt lat="45.0093165037539" lon="8.181231797801994"><ele>151.0</ele><time>2026-04-18T13:26:47.001Z</time></trkpt><trkpt lat="45.00937476107418" lon="8.181016316459377"><ele>151.0</ele><time>2026-04-18T13:26:48.001Z</time></trkpt><trkpt lat="45.00943809249384" lon="8.180790208518683"><ele>151.0</ele><time>2026-04-18T13:26:49.001Z</time></trkpt><trkpt lat="45.009504507082916" lon="8.18054951159375"><ele>151.0</ele><time>2026-04-18T13:26:50.001Z</time></trkpt><trkpt lat="45.009558274982616" lon="8.18032861988174"><ele>150.66666666666669</ele><time>2026-04-18T13:26:51.001Z</time></trkpt><trkpt lat="45.00961470832442" lon="8.180103453344804"><ele>150.33333333333334</ele><time>2026-04-18T13:26:52.001Z</time></trkpt><trkpt lat="45.00967752286738" lon="8.179871489916287"><ele>150.0</ele><time>2026-04-18T13:26:53.001Z</time></trkpt><trkpt lat="45.00974074340876" lon="8.17964455615216"><ele>150.0</ele><time>2026-04-18T13:26:54.001Z</time></trkpt><trkpt lat="45.00980729436045" lon="8.179399938985473"><ele>150.0</ele><time>2026-04-18T13:26:55.001Z</time></trkpt><trkpt lat="45.00987284254685" lon="8.179160027282718"><ele>150.0</ele><time>2026-04-18T13:26:56.001Z</time></trkpt><trkpt lat="45.009937974628976" lon="8.178907346246653"><ele>150.5</ele><time>2026-04-18T13:26:57.001Z</time></trkpt><trkpt lat="45.01000751565455" lon="8.178641863532935"><ele>151.0</ele><time>2026-04-18T13:26:58.001Z</time></trkpt><trkpt lat="45.01010522988941" lon="8.178301149235859"><ele>151.66666666666669</ele><time>2026-04-18T13:26:59.001Z</time></trkpt><trkpt lat="45.01018457917552" lon="8.178035122995244"><ele>152.33333333333334</ele><time>2026-04-18T13:27:00.001Z</time></trkpt><trkpt lat="45.01025639404907" lon="8.1777634623657"><ele>153.0</ele><time>2026-04-18T13:27:01.001Z</time></trkpt><trkpt lat="45.0103273100067" lon="8.177489127166094"><ele>153.33333333333334</ele><time>2026-04-18T13:27:02.001Z</time></trkpt><trkpt lat="45.01040140520026" lon="8.177212709431764"><ele>153.66666666666669</ele><time>2026-04-18T13:27:03.001Z</time></trkpt><trkpt lat="45.01047957951265" lon="8.176934521871594"><ele>154.0</ele><time>2026-04-18T13:27:04.001Z</time></trkpt><trkpt lat="45.01056030891223" lon="8.17665188616648"><ele>153.33333333333334</ele><time>2026-04-18T13:27:05.001Z</time></trkpt><trkpt lat="45.01063870674682" lon="8.176364241550619"><ele>152.66666666666666</ele><time>2026-04-18T13:27:06.001Z</time></trkpt><trkpt lat="45.010714878842386" lon="8.176070728092961"><ele>152.0</ele><time>2026-04-18T13:27:07.001Z</time></trkpt><trkpt lat="45.010795386321554" lon="8.175776393129656"><ele>152.66666666666666</ele><time>2026-04-18T13:27:08.001Z</time></trkpt><trkpt lat="45.010875158804836" lon="8.175480884413922"><ele>153.33333333333334</ele><time>2026-04-18T13:27:09.001Z</time></trkpt><trkpt lat="45.010954237770946" lon="8.175187269100546"><ele>154.0</ele><time>2026-04-18T13:27:10.001Z</time></trkpt><trkpt lat="45.01103257890609" lon="8.174894833402291"><ele>153.0</ele><time>2026-04-18T13:27:11.001Z</time></trkpt><trkpt lat="45.01111185014837" lon="8.174602189945745"><ele>152.0</ele><time>2026-04-18T13:27:12.001Z</time></trkpt><trkpt lat="45.01119026206894" lon="8.174315103643732"><ele>151.0</ele><time>2026-04-18T13:27:13.001Z</time></trkpt><trkpt lat="45.011268702100985" lon="8.174025928908371"><ele>151.0</ele><time>2026-04-18T13:27:14.001Z</time></trkpt><trkpt lat="45.01134819869937" lon="8.173737660522427"><ele>151.0</ele><time>2026-04-18T13:27:15.001Z</time></trkpt><trkpt lat="45.01143071230217" lon="8.173448697047135"><ele>151.0</ele><time>2026-04-18T13:27:16.001Z</time></trkpt><trkpt lat="45.011510916025784" lon="8.173158012772872"><ele>151.0</ele><time>2026-04-18T13:27:17.001Z</time></trkpt><trkpt lat="45.011590347959874" lon="8.172862394033078"><ele>151.0</ele><time>2026-04-18T13:27:18.001Z</time></trkpt><trkpt lat="45.011669386678776" lon="8.172567749393359"><ele>151.0</ele><time>2026-04-18T13:27:19.001Z</time></trkpt><trkpt lat="45.01174902904635" lon="8.172271890071753"><ele>151.0</ele><time>2026-04-18T13:27:20.001Z</time></trkpt><trkpt lat="45.01183166257962" lon="8.171972842906424"><ele>151.0</ele><time>2026-04-18T13:27:21.001Z</time></trkpt><trkpt lat="45.01191309935978" lon="8.171672589050313"><ele>151.0</ele><time>2026-04-18T13:27:22.001Z</time></trkpt><trkpt lat="45.01199306649876" lon="8.171370846202063"><ele>151.0</ele><time>2026-04-18T13:27:23.002Z</time></trkpt><trkpt lat="45.012076971642955" lon="8.171064738996543"><ele>151.0</ele><time>2026-04-18T13:27:24.002Z</time></trkpt><trkpt lat="45.01216251250664" lon="8.170747088963072"><ele>151.0</ele><time>2026-04-18T13:27:25.002Z</time></trkpt><trkpt lat="45.01224113380646" lon="8.170448563537901"><ele>151.0</ele><time>2026-04-18T13:27:26.002Z</time></trkpt><trkpt lat="45.012319617669974" lon="8.170157263538098"><ele>151.0</ele><time>2026-04-18T13:27:27.002Z</time></trkpt><trkpt lat="45.012398974270205" lon="8.169866470273655"><ele>151.0</ele><time>2026-04-18T13:27:28.002Z</time></trkpt><trkpt lat="45.012477578038364" lon="8.169571270346381"><ele>151.33333333333334</ele><time>2026-04-18T13:27:29.002Z</time></trkpt><trkpt lat="45.01255557167596" lon="8.169281267094387"><ele>151.66666666666666</ele><time>2026-04-18T13:27:30.002Z</time></trkpt><trkpt lat="45.01263611343835" lon="8.168991667291898"><ele>152.0</ele><time>2026-04-18T13:27:31.002Z</time></trkpt><trkpt lat="45.01271812969085" lon="8.168708854048356"><ele>152.0</ele><time>2026-04-18T13:27:32.002Z</time></trkpt><trkpt lat="45.01280079163155" lon="8.168430454266765"><ele>152.0</ele><time>2026-04-18T13:27:33.002Z</time></trkpt><trkpt lat="45.0128903364895" lon="8.168152571758153"><ele>152.0</ele><time>2026-04-18T13:27:34.002Z</time></trkpt><trkpt lat="45.01297437790838" lon="8.167919121290474"><ele>152.0</ele><time>2026-04-18T13:27:35.002Z</time></trkpt><trkpt lat="45.01301674133406" lon="8.16777410332257"><ele>152.0</ele><time>2026-04-18T13:27:36.002Z</time></trkpt><trkpt lat="45.01320778437301" lon="8.167376062284454"><ele>152.0</ele><time>2026-04-18T13:27:37.002Z</time></trkpt><trkpt lat="45.01334286746549" lon="8.16714585744909"><ele>152.0</ele><time>2026-04-18T13:27:38.002Z</time></trkpt><trkpt lat="45.01347704989339" lon="8.166910060781351"><ele>152.0</ele><time>2026-04-18T13:27:39.002Z</time></trkpt><trkpt lat="45.01360883031617" lon="8.166670249494713"><ele>153.0</ele><time>2026-04-18T13:27:40.002Z</time></trkpt><trkpt lat="45.013773268932084" lon="8.166470374811192"><ele>154.0</ele><time>2026-04-18T13:27:41.002Z</time></trkpt><trkpt lat="45.013921748947816" lon="8.166246065441763"><ele>155.0</ele><time>2026-04-18T13:27:42.002Z</time></trkpt><trkpt lat="45.014086609298076" lon="8.166041899159506"><ele>154.0</ele><time>2026-04-18T13:27:43.002Z</time></trkpt><trkpt lat="45.014250040560675" lon="8.165833913585603"><ele>153.0</ele><time>2026-04-18T13:27:44.002Z</time></trkpt><trkpt lat="45.014412402866256" lon="8.165621717335904"><ele>152.0</ele><time>2026-04-18T13:27:45.002Z</time></trkpt><trkpt lat="45.01457380651808" lon="8.165406405534881"><ele>151.66666666666666</ele><time>2026-04-18T13:27:46.002Z</time></trkpt><trkpt lat="45.01473524186996" lon="8.16519310543665"><ele>151.33333333333334</ele><time>2026-04-18T13:27:47.002Z</time></trkpt><trkpt lat="45.014899653958146" lon="8.164981451997342"><ele>151.0</ele><time>2026-04-18T13:27:48.002Z</time></trkpt><trkpt lat="45.01506462573237" lon="8.164768030101317"><ele>151.66666666666669</ele><time>2026-04-18T13:27:49.002Z</time></trkpt><trkpt lat="45.015229552752636" lon="8.164555593711722"><ele>152.33333333333334</ele><time>2026-04-18T13:27:50.002Z</time></trkpt><trkpt lat="45.01539336499014" lon="8.164340068538042"><ele>153.0</ele><time>2026-04-18T13:27:51.002Z</time></trkpt><trkpt lat="45.01555923062847" lon="8.164124148080122"><ele>153.0</ele><time>2026-04-18T13:27:52.002Z</time></trkpt><trkpt lat="45.0157238813551" lon="8.163912094521734"><ele>153.0</ele><time>2026-04-18T13:27:53.002Z</time></trkpt><trkpt lat="45.015888238052845" lon="8.163693233645118"><ele>153.0</ele><time>2026-04-18T13:27:54.002Z</time></trkpt><trkpt lat="45.016055723182504" lon="8.163478373541812"><ele>153.0</ele><time>2026-04-18T13:27:55.002Z</time></trkpt><trkpt lat="45.016224399713835" lon="8.163260474067933"><ele>153.0</ele><time>2026-04-18T13:27:56.002Z</time></trkpt><trkpt lat="45.01639262165433" lon="8.163038383451493"><ele>153.0</ele><time>2026-04-18T13:27:57.002Z</time></trkpt><trkpt lat="45.01655990047459" lon="8.162814197979788"><ele>153.0</ele><time>2026-04-18T13:27:58.002Z</time></trkpt><trkpt lat="45.01672411561538" lon="8.162590733553918"><ele>153.0</ele><time>2026-04-18T13:27:59.002Z</time></trkpt><trkpt lat="45.01688629779503" lon="8.162375190302898"><ele>153.0</ele><time>2026-04-18T13:28:00.003Z</time></trkpt><trkpt lat="45.0170433148983" lon="8.16216940056702"><ele>153.0</ele><time>2026-04-18T13:28:01.003Z</time></trkpt><trkpt lat="45.0172077637845" lon="8.161976333895394"><ele>153.33333333333334</ele><time>2026-04-18T13:28:02.003Z</time></trkpt><trkpt lat="45.017384235057406" lon="8.161793242445585"><ele>153.66666666666669</ele><time>2026-04-18T13:28:03.003Z</time></trkpt><trkpt lat="45.01755876569368" lon="8.161635015650738"><ele>154.0</ele><time>2026-04-18T13:28:04.003Z</time></trkpt><trkpt lat="45.01772890459442" lon="8.161479573918362"><ele>154.33333333333334</ele><time>2026-04-18T13:28:05.003Z</time></trkpt><trkpt lat="45.017909483923205" lon="8.16132392122695"><ele>154.66666666666666</ele><time>2026-04-18T13:28:06.003Z</time></trkpt><trkpt lat="45.018087166316484" lon="8.161157160147653"><ele>155.0</ele><time>2026-04-18T13:28:07.003Z</time></trkpt><trkpt lat="45.01826397692559" lon="8.160988146651585"><ele>155.33333333333331</ele><time>2026-04-18T13:28:08.003Z</time></trkpt><trkpt lat="45.01844316241499" lon="8.160819254685192"><ele>155.66666666666666</ele><time>2026-04-18T13:28:09.003Z</time></trkpt><trkpt lat="45.01862172670486" lon="8.160654391008178"><ele>156.0</ele><time>2026-04-18T13:28:10.003Z</time></trkpt><trkpt lat="45.01880499283333" lon="8.160490023180142"><ele>156.66666666666666</ele><time>2026-04-18T13:28:11.003Z</time></trkpt><trkpt lat="45.018984906328456" lon="8.160328284308052"><ele>157.33333333333331</ele><time>2026-04-18T13:28:12.003Z</time></trkpt><trkpt lat="45.01917371066821" lon="8.16015929581801"><ele>158.0</ele><time>2026-04-18T13:28:13.003Z</time></trkpt><trkpt lat="45.0193563661959" lon="8.159988146878014"><ele>158.33333333333331</ele><time>2026-04-18T13:28:14.003Z</time></trkpt><trkpt lat="45.01953762346683" lon="8.159815143365394"><ele>158.66666666666666</ele><time>2026-04-18T13:28:15.003Z</time></trkpt><trkpt lat="45.019721496098" lon="8.159645255764868"><ele>159.0</ele><time>2026-04-18T13:28:16.003Z</time></trkpt><trkpt lat="45.01990439101583" lon="8.15947864349645"><ele>159.0</ele><time>2026-04-18T13:28:17.003Z</time></trkpt><trkpt lat="45.020091066087176" lon="8.159310986655733"><ele>159.0</ele><time>2026-04-18T13:28:18.003Z</time></trkpt><trkpt lat="45.020279046256405" lon="8.159142322152555"><ele>159.0</ele><time>2026-04-18T13:28:19.003Z</time></trkpt><trkpt lat="45.020465745892345" lon="8.158969526570607"><ele>159.0</ele><time>2026-04-18T13:28:20.003Z</time></trkpt><trkpt lat="45.02065241649023" lon="8.158796340260897"><ele>159.0</ele><time>2026-04-18T13:28:21.003Z</time></trkpt><trkpt lat="45.02083311962714" lon="8.158621281022972"><ele>159.0</ele><time>2026-04-18T13:28:22.003Z</time></trkpt><trkpt lat="45.02101622956161" lon="8.158447070132562"><ele>159.0</ele><time>2026-04-18T13:28:23.003Z</time></trkpt><trkpt lat="45.02118335000205" lon="8.158255763703433"><ele>159.0</ele><time>2026-04-18T13:28:24.003Z</time></trkpt><trkpt lat="45.02134023352291" lon="8.158040627078263"><ele>159.0</ele><time>2026-04-18T13:28:25.003Z</time></trkpt><trkpt lat="45.02147996708095" lon="8.157811242278294"><ele>159.0</ele><time>2026-04-18T13:28:26.003Z</time></trkpt><trkpt lat="45.02160861405016" lon="8.157565089077874"><ele>159.0</ele><time>2026-04-18T13:28:27.001Z</time></trkpt><trkpt lat="45.021733046440325" lon="8.157296015342904"><ele>159.0</ele><time>2026-04-18T13:28:28.001Z</time></trkpt><trkpt lat="45.02184005654309" lon="8.157014519187106"><ele>162.5</ele><time>2026-04-18T13:28:29.001Z</time></trkpt><trkpt lat="45.021942173349515" lon="8.15673248352585"><ele>166.0</ele><time>2026-04-18T13:28:30.001Z</time></trkpt><trkpt lat="45.02205017764134" lon="8.156447436588444"><ele>166.0</ele><time>2026-04-18T13:28:31.001Z</time></trkpt><trkpt lat="45.02215169736133" lon="8.156168618849408"><ele>166.0</ele><time>2026-04-18T13:28:32.001Z</time></trkpt><trkpt lat="45.02225544006106" lon="8.155893446820409"><ele>166.0</ele><time>2026-04-18T13:28:33.001Z</time></trkpt><trkpt lat="45.02235048567574" lon="8.155606473778873"><ele>165.66666666666669</ele><time>2026-04-18T13:28:34Z</time></trkpt><trkpt lat="45.02244705383932" lon="8.155323044728105"><ele>165.33333333333334</ele><time>2026-04-18T13:28:35.001Z</time></trkpt><trkpt lat="45.02255237067579" lon="8.155044681930812"><ele>165.0</ele><time>2026-04-18T13:28:36Z</time></trkpt><trkpt lat="45.022656607646105" lon="8.154770524287079"><ele>165.0</ele><time>2026-04-18T13:28:37Z</time></trkpt><trkpt lat="45.02275948098065" lon="8.154505248190313"><ele>165.0</ele><time>2026-04-18T13:28:38Z</time></trkpt><trkpt lat="45.02285401513825" lon="8.15422910977411"><ele>165.0</ele><time>2026-04-18T13:28:39Z</time></trkpt><trkpt lat="45.02294018280539" lon="8.153947614065613"><ele>166.66666666666666</ele><time>2026-04-18T13:28:40Z</time></trkpt><trkpt lat="45.02301539737828" lon="8.153674985068982"><ele>168.33333333333331</ele><time>2026-04-18T13:28:41Z</time></trkpt><trkpt lat="45.02303218119213" lon="8.153417502923649"><ele>170.0</ele><time>2026-04-18T13:28:42Z</time></trkpt><trkpt lat="45.023053294342525" lon="8.153178674946345"><ele>171.0</ele><time>2026-04-18T13:28:43Z</time></trkpt><trkpt lat="45.023227473523725" lon="8.152804486895786"><ele>172.0</ele><time>2026-04-18T13:28:44Z</time></trkpt><trkpt lat="45.02328435840728" lon="8.15250808657472"><ele>169.66666666666669</ele><time>2026-04-18T13:28:45Z</time></trkpt><trkpt lat="45.0233334564521" lon="8.152201875722392"><ele>167.33333333333334</ele><time>2026-04-18T13:28:46Z</time></trkpt><trkpt lat="45.02338808713937" lon="8.15189430185621"><ele>165.0</ele><time>2026-04-18T13:28:47.001Z</time></trkpt><trkpt lat="45.02344397054464" lon="8.151580840923929"><ele>165.33333333333334</ele><time>2026-04-18T13:28:48.001Z</time></trkpt><trkpt lat="45.02350230830622" lon="8.151269962657029"><ele>165.66666666666669</ele><time>2026-04-18T13:28:49.001Z</time></trkpt><trkpt lat="45.02355362216227" lon="8.150964391925283"><ele>166.0</ele><time>2026-04-18T13:28:50.001Z</time></trkpt><trkpt lat="45.02361138153423" lon="8.150662347664719"><ele>166.66666666666669</ele><time>2026-04-18T13:28:51.001Z</time></trkpt><trkpt lat="45.02366636550861" lon="8.150365493865033"><ele>167.33333333333334</ele><time>2026-04-18T13:28:52.001Z</time></trkpt><trkpt lat="45.02371643478874" lon="8.150069556235637"><ele>168.0</ele><time>2026-04-18T13:28:53.001Z</time></trkpt><trkpt lat="45.023765703848824" lon="8.149776609134694"><ele>168.0</ele><time>2026-04-18T13:28:54.001Z</time></trkpt><trkpt lat="45.02381441597782" lon="8.149479335412291"><ele>168.0</ele><time>2026-04-18T13:28:55.001Z</time></trkpt><trkpt lat="45.02386633079781" lon="8.149184006545376"><ele>168.0</ele><time>2026-04-18T13:28:56.001Z</time></trkpt><trkpt lat="45.023918129714765" lon="8.14888792561636"><ele>168.0</ele><time>2026-04-18T13:28:57.001Z</time></trkpt><trkpt lat="45.023972509215824" lon="8.148588013723138"><ele>168.0</ele><time>2026-04-18T13:28:58.001Z</time></trkpt><trkpt lat="45.02402834954856" lon="8.148288413441428"><ele>168.0</ele><time>2026-04-18T13:28:59.001Z</time></trkpt><trkpt lat="45.02408006297851" lon="8.147988128373912"><ele>168.0</ele><time>2026-04-18T13:29:00.001Z</time></trkpt><trkpt lat="45.024132840657785" lon="8.147683539137883"><ele>168.0</ele><time>2026-04-18T13:29:01.001Z</time></trkpt><trkpt lat="45.024188416023016" lon="8.14738092653621"><ele>168.0</ele><time>2026-04-18T13:29:02.001Z</time></trkpt><trkpt lat="45.02424321467152" lon="8.147069526908256"><ele>165.5</ele><time>2026-04-18T13:29:03.001Z</time></trkpt><trkpt lat="45.02429565064369" lon="8.14675489427801"><ele>163.0</ele><time>2026-04-18T13:29:04.001Z</time></trkpt><trkpt lat="45.024353987211015" lon="8.146440003128685"><ele>163.0</ele><time>2026-04-18T13:29:05.001Z</time></trkpt><trkpt lat="45.024410095231964" lon="8.146125244516538"><ele>163.0</ele><time>2026-04-18T13:29:06.001Z</time></trkpt><trkpt lat="45.02446802320905" lon="8.145819944509169"><ele>167.0</ele><time>2026-04-18T13:29:07.001Z</time></trkpt><trkpt lat="45.0245252691409" lon="8.14550932553304"><ele>171.0</ele><time>2026-04-18T13:29:08.001Z</time></trkpt><trkpt lat="45.024584889057856" lon="8.145194569798761"><ele>171.0</ele><time>2026-04-18T13:29:09.001Z</time></trkpt><trkpt lat="45.02464070067782" lon="8.144891537775727"><ele>171.0</ele><time>2026-04-18T13:29:10.001Z</time></trkpt><trkpt lat="45.0246937527574" lon="8.144581590073015"><ele>171.0</ele><time>2026-04-18T13:29:11.001Z</time></trkpt><trkpt lat="45.02474386771807" lon="8.144270707498778"><ele>167.5</ele><time>2026-04-18T13:29:12.001Z</time></trkpt><trkpt lat="45.02479958907763" lon="8.143962654850778"><ele>164.0</ele><time>2026-04-18T13:29:13.001Z</time></trkpt><trkpt lat="45.024860002744035" lon="8.143650076135883"><ele>164.0</ele><time>2026-04-18T13:29:14.001Z</time></trkpt><trkpt lat="45.024916880344904" lon="8.143346289353683"><ele>164.0</ele><time>2026-04-18T13:29:15.001Z</time></trkpt><trkpt lat="45.02497225761913" lon="8.143040619375997"><ele>164.0</ele><time>2026-04-18T13:29:16.001Z</time></trkpt><trkpt lat="45.02502667580327" lon="8.14272672651237"><ele>163.66666666666666</ele><time>2026-04-18T13:29:17.001Z</time></trkpt><trkpt lat="45.02508171101997" lon="8.142423172922028"><ele>163.33333333333334</ele><time>2026-04-18T13:29:18.001Z</time></trkpt><trkpt lat="45.02513715721345" lon="8.142117456449057"><ele>163.0</ele><time>2026-04-18T13:29:19.001Z</time></trkpt><trkpt lat="45.02519147490285" lon="8.141816902332252"><ele>164.0</ele><time>2026-04-18T13:29:20.001Z</time></trkpt><trkpt lat="45.02524347483668" lon="8.141512012883174"><ele>165.0</ele><time>2026-04-18T13:29:21.001Z</time></trkpt><trkpt lat="45.02529270332747" lon="8.141208738623993"><ele>166.0</ele><time>2026-04-18T13:29:22.001Z</time></trkpt><trkpt lat="45.0253491710559" lon="8.140904138935195"><ele>164.66666666666669</ele><time>2026-04-18T13:29:23.001Z</time></trkpt><trkpt lat="45.02539863490125" lon="8.140601298946805"><ele>163.33333333333334</ele><time>2026-04-18T13:29:24.001Z</time></trkpt><trkpt lat="45.02545820964315" lon="8.140294597691383"><ele>162.0</ele><time>2026-04-18T13:29:25.001Z</time></trkpt><trkpt lat="45.02551193056176" lon="8.139990722542525"><ele>162.0</ele><time>2026-04-18T13:29:26.001Z</time></trkpt><trkpt lat="45.025562707557185" lon="8.13969083292088"><ele>162.0</ele><time>2026-04-18T13:29:27.001Z</time></trkpt><trkpt lat="45.02561555574511" lon="8.13938386204396"><ele>162.0</ele><time>2026-04-18T13:29:28.001Z</time></trkpt><trkpt lat="45.02566948432121" lon="8.139084029971103"><ele>162.0</ele><time>2026-04-18T13:29:29.001Z</time></trkpt><trkpt lat="45.02572196963157" lon="8.138784669692019"><ele>162.0</ele><time>2026-04-18T13:29:30.001Z</time></trkpt><trkpt lat="45.02577694129084" lon="8.138480754856673"><ele>162.0</ele><time>2026-04-18T13:29:31.001Z</time></trkpt><trkpt lat="45.025828200229554" lon="8.13817807752103"><ele>163.5</ele><time>2026-04-18T13:29:32.001Z</time></trkpt><trkpt lat="45.025879210219266" lon="8.137871037882793"><ele>165.0</ele><time>2026-04-18T13:29:33.002Z</time></trkpt><trkpt lat="45.025936356813624" lon="8.137559817304645"><ele>165.5</ele><time>2026-04-18T13:29:34.002Z</time></trkpt><trkpt lat="45.025992581957375" lon="8.137251710711825"><ele>166.0</ele><time>2026-04-18T13:29:35.002Z</time></trkpt><trkpt lat="45.026053625766174" lon="8.136942400644186"><ele>166.0</ele><time>2026-04-18T13:29:36.002Z</time></trkpt><trkpt lat="45.02612012734638" lon="8.136633968981945"><ele>166.0</ele><time>2026-04-18T13:29:37.002Z</time></trkpt><trkpt lat="45.02619546076998" lon="8.136329422108144"><ele>165.0</ele><time>2026-04-18T13:29:38.002Z</time></trkpt><trkpt lat="45.026273250214686" lon="8.136023941951535"><ele>164.0</ele><time>2026-04-18T13:29:39.002Z</time></trkpt><trkpt lat="45.02635373115589" lon="8.135724006773788"><ele>163.66666666666666</ele><time>2026-04-18T13:29:40.002Z</time></trkpt><trkpt lat="45.026429470346066" lon="8.135421608979971"><ele>163.33333333333334</ele><time>2026-04-18T13:29:41.002Z</time></trkpt><trkpt lat="45.02650964111704" lon="8.135131822735394"><ele>163.0</ele><time>2026-04-18T13:29:42.002Z</time></trkpt><trkpt lat="45.02658692103348" lon="8.134851449728078"><ele>164.0</ele><time>2026-04-18T13:29:43.002Z</time></trkpt><trkpt lat="45.02665583188649" lon="8.134595764381247"><ele>165.0</ele><time>2026-04-18T13:29:44.002Z</time></trkpt><trkpt lat="45.026718949597566" lon="8.134351908141651"><ele>166.0</ele><time>2026-04-18T13:29:45.002Z</time></trkpt><trkpt lat="45.02678142891204" lon="8.1341195344125"><ele>165.66666666666669</ele><time>2026-04-18T13:29:46.002Z</time></trkpt><trkpt lat="45.02684025132811" lon="8.133888952469867"><ele>165.33333333333334</ele><time>2026-04-18T13:29:47.002Z</time></trkpt><trkpt lat="45.0269000609646" lon="8.133661285289758"><ele>165.0</ele><time>2026-04-18T13:29:48.002Z</time></trkpt><trkpt lat="45.02696162650861" lon="8.133443599238472"><ele>165.0</ele><time>2026-04-18T13:29:49.002Z</time></trkpt><trkpt lat="45.027018224073764" lon="8.133232386734786"><ele>165.0</ele><time>2026-04-18T13:29:50.002Z</time></trkpt><trkpt lat="45.027070711667555" lon="8.133014799441954"><ele>165.0</ele><time>2026-04-18T13:29:51.002Z</time></trkpt><trkpt lat="45.02712918953889" lon="8.132798319379498"><ele>165.0</ele><time>2026-04-18T13:29:52.002Z</time></trkpt><trkpt lat="45.027186955160715" lon="8.132579297338822"><ele>165.0</ele><time>2026-04-18T13:29:53.002Z</time></trkpt><trkpt lat="45.02724607186846" lon="8.132358419229874"><ele>165.0</ele><time>2026-04-18T13:29:54.002Z</time></trkpt><trkpt lat="45.02730101715531" lon="8.13213830414119"><ele>165.33333333333334</ele><time>2026-04-18T13:29:55.002Z</time></trkpt><trkpt lat="45.02736468466685" lon="8.131914351573165"><ele>165.66666666666669</ele><time>2026-04-18T13:29:56.002Z</time></trkpt><trkpt lat="45.02741826268312" lon="8.131692639685753"><ele>166.0</ele><time>2026-04-18T13:29:57.002Z</time></trkpt><trkpt lat="45.02747627255483" lon="8.131470610751647"><ele>167.0</ele><time>2026-04-18T13:29:58.002Z</time></trkpt><trkpt lat="45.027539599224355" lon="8.131243600945966"><ele>168.0</ele><time>2026-04-18T13:29:59.002Z</time></trkpt><trkpt lat="45.02760191923321" lon="8.131016093453518"><ele>169.0</ele><time>2026-04-18T13:30:00.002Z</time></trkpt><trkpt lat="45.02766227089723" lon="8.130794524142713"><ele>168.66666666666669</ele><time>2026-04-18T13:30:01.002Z</time></trkpt><trkpt lat="45.02772170133819" lon="8.130571846204935"><ele>168.33333333333334</ele><time>2026-04-18T13:30:02.002Z</time></trkpt><trkpt lat="45.02778232970349" lon="8.130345915883504"><ele>168.0</ele><time>2026-04-18T13:30:03.002Z</time></trkpt><trkpt lat="45.02784331873119" lon="8.130109828801972"><ele>168.0</ele><time>2026-04-18T13:30:04.002Z</time></trkpt><trkpt lat="45.02790154759723" lon="8.129888148689968"><ele>168.0</ele><time>2026-04-18T13:30:05.002Z</time></trkpt><trkpt lat="45.02796290060746" lon="8.129654760049492"><ele>168.0</ele><time>2026-04-18T13:30:06.002Z</time></trkpt><trkpt lat="45.028023854412815" lon="8.129424480105993"><ele>168.0</ele><time>2026-04-18T13:30:07.002Z</time></trkpt><trkpt lat="45.02808435740229" lon="8.129197477979842"><ele>168.0</ele><time>2026-04-18T13:30:08.002Z</time></trkpt><trkpt lat="45.028145089326216" lon="8.128964235900042"><ele>168.0</ele><time>2026-04-18T13:30:09.002Z</time></trkpt><trkpt lat="45.0282074849143" lon="8.128735291414753"><ele>168.0</ele><time>2026-04-18T13:30:10.002Z</time></trkpt><trkpt lat="45.02826761574807" lon="8.128506317987588"><ele>168.0</ele><time>2026-04-18T13:30:11.002Z</time></trkpt><trkpt lat="45.028330318344736" lon="8.128275668498167"><ele>168.0</ele><time>2026-04-18T13:30:12.003Z</time></trkpt><trkpt lat="45.02838965534187" lon="8.128039797718625"><ele>168.0</ele><time>2026-04-18T13:30:13.003Z</time></trkpt><trkpt lat="45.02845105993537" lon="8.127813251163726"><ele>168.0</ele><time>2026-04-18T13:30:14.003Z</time></trkpt><trkpt lat="45.02851192620708" lon="8.12758118416149"><ele>168.0</ele><time>2026-04-18T13:30:15.003Z</time></trkpt><trkpt lat="45.02857024316108" lon="8.127347577759089"><ele>169.0</ele><time>2026-04-18T13:30:16.003Z</time></trkpt><trkpt lat="45.02863121519503" lon="8.127115216756664"><ele>170.0</ele><time>2026-04-18T13:30:17.003Z</time></trkpt><trkpt lat="45.028695329374834" lon="8.126881052340268"><ele>171.0</ele><time>2026-04-18T13:30:18.003Z</time></trkpt><trkpt lat="45.028756960642674" lon="8.126646095584226"><ele>171.33333333333334</ele><time>2026-04-18T13:30:19.003Z</time></trkpt><trkpt lat="45.02881985039214" lon="8.126412352746492"><ele>171.66666666666669</ele><time>2026-04-18T13:30:20.003Z</time></trkpt><trkpt lat="45.02888329966415" lon="8.126175131157302"><ele>172.0</ele><time>2026-04-18T13:30:21.003Z</time></trkpt><trkpt lat="45.02894711552996" lon="8.12593838223114"><ele>173.33333333333334</ele><time>2026-04-18T13:30:22.003Z</time></trkpt><trkpt lat="45.029006935239416" lon="8.125704956293893"><ele>174.66666666666666</ele><time>2026-04-18T13:30:23.003Z</time></trkpt><trkpt lat="45.029067242719414" lon="8.125468629058679"><ele>176.0</ele><time>2026-04-18T13:30:24.003Z</time></trkpt><trkpt lat="45.02912953903897" lon="8.125226572343848"><ele>176.0</ele><time>2026-04-18T13:30:25.003Z</time></trkpt><trkpt lat="45.02919165569305" lon="8.12498846900107"><ele>176.0</ele><time>2026-04-18T13:30:26.003Z</time></trkpt><trkpt lat="45.02924948026982" lon="8.124757080370529"><ele>176.0</ele><time>2026-04-18T13:30:27.003Z</time></trkpt><trkpt lat="45.02931537691731" lon="8.1245117772579"><ele>176.0</ele><time>2026-04-18T13:30:28.003Z</time></trkpt><trkpt lat="45.029381037833986" lon="8.124274667765231"><ele>176.0</ele><time>2026-04-18T13:30:29.003Z</time></trkpt><trkpt lat="45.02944492564494" lon="8.124038397916173"><ele>176.0</ele><time>2026-04-18T13:30:30.003Z</time></trkpt><trkpt lat="45.02950604642044" lon="8.123801855425738"><ele>175.33333333333331</ele><time>2026-04-18T13:30:31.003Z</time></trkpt><trkpt lat="45.02956696172925" lon="8.123575227205192"><ele>174.66666666666666</ele><time>2026-04-18T13:30:32.003Z</time></trkpt><trkpt lat="45.02962188132485" lon="8.123350043847097"><ele>174.0</ele><time>2026-04-18T13:30:33.001Z</time></trkpt><trkpt lat="45.02967985242214" lon="8.12312858472031"><ele>173.66666666666666</ele><time>2026-04-18T13:30:34.001Z</time></trkpt><trkpt lat="45.029734929368686" lon="8.122922988477734"><ele>173.33333333333331</ele><time>2026-04-18T13:30:35.001Z</time></trkpt><trkpt lat="45.02978938075034" lon="8.122715133407336"><ele>173.0</ele><time>2026-04-18T13:30:36.001Z</time></trkpt><trkpt lat="45.02983892412462" lon="8.12251643195951"><ele>172.25</ele><time>2026-04-18T13:30:37.001Z</time></trkpt><trkpt lat="45.02988533875413" lon="8.122334691693649"><ele>171.5</ele><time>2026-04-18T13:30:38.001Z</time></trkpt><trkpt lat="45.029935967245734" lon="8.122152512803877"><ele>170.75</ele><time>2026-04-18T13:30:39.001Z</time></trkpt><trkpt lat="45.029983566018004" lon="8.121974691188061"><ele>170.0</ele><time>2026-04-18T13:30:40.001Z</time></trkpt><trkpt lat="45.03002657655" lon="8.12179776024913"><ele>170.0</ele><time>2026-04-18T13:30:41.001Z</time></trkpt><trkpt lat="45.030065379492115" lon="8.12163204552132"><ele>170.0</ele><time>2026-04-18T13:30:42.001Z</time></trkpt><trkpt lat="45.03010467842384" lon="8.121480857777021"><ele>170.0</ele><time>2026-04-18T13:30:43.001Z</time></trkpt><trkpt lat="45.03014116450402" lon="8.121341797335319"><ele>170.0</ele><time>2026-04-18T13:30:44.001Z</time></trkpt><trkpt lat="45.03017633327626" lon="8.1212162039885"><ele>170.0</ele><time>2026-04-18T13:30:45.001Z</time></trkpt><trkpt lat="45.03020941251409" lon="8.121114948265593"><ele>170.0</ele><time>2026-04-18T13:30:46.001Z</time></trkpt><trkpt lat="45.03025092397332" lon="8.121040555758842"><ele>170.0</ele><time>2026-04-18T13:30:47.001Z</time></trkpt><trkpt lat="45.030364185390646" lon="8.121035444411724"><ele>170.0</ele><time>2026-04-18T13:30:49.001Z</time></trkpt><trkpt lat="45.030477558925284" lon="8.121145935884474"><ele>170.0</ele><time>2026-04-18T13:30:51.001Z</time></trkpt><trkpt lat="45.03056392075681" lon="8.12120006257692"><ele>170.0</ele><time>2026-04-18T13:30:52.001Z</time></trkpt><trkpt lat="45.03066584316194" lon="8.121251128045499"><ele>170.0</ele><time>2026-04-18T13:30:53.001Z</time></trkpt><trkpt lat="45.0307856583544" lon="8.121314272428542"><ele>170.0</ele><time>2026-04-18T13:30:54.001Z</time></trkpt><trkpt lat="45.03090753014996" lon="8.12138332314064"><ele>170.0</ele><time>2026-04-18T13:30:55.001Z</time></trkpt><trkpt lat="45.03101957865019" lon="8.121443163484766"><ele>170.0</ele><time>2026-04-18T13:30:56.001Z</time></trkpt><trkpt lat="45.03113513088606" lon="8.121502940122284"><ele>170.25</ele><time>2026-04-18T13:30:57.001Z</time></trkpt><trkpt lat="45.031246444788145" lon="8.121561875764435"><ele>170.5</ele><time>2026-04-18T13:30:58.001Z</time></trkpt><trkpt lat="45.03135528287136" lon="8.12161912308799"><ele>170.75</ele><time>2026-04-18T13:30:59.001Z</time></trkpt><trkpt lat="45.03145991371458" lon="8.121667763529539"><ele>171.0</ele><time>2026-04-18T13:31:00.001Z</time></trkpt><trkpt lat="45.03156359520142" lon="8.121699089940408"><ele>171.33333333333334</ele><time>2026-04-18T13:31:01.001Z</time></trkpt><trkpt lat="45.0316513559449" lon="8.121701936839465"><ele>171.66666666666666</ele><time>2026-04-18T13:31:02.001Z</time></trkpt><trkpt lat="45.03173111990562" lon="8.121681447646655"><ele>172.0</ele><time>2026-04-18T13:31:03.001Z</time></trkpt><trkpt lat="45.031797641384976" lon="8.121650389340932"><ele>172.33333333333331</ele><time>2026-04-18T13:31:04.001Z</time></trkpt><trkpt lat="45.03185657986811" lon="8.12180216677458"><ele>172.66666666666666</ele><time>2026-04-18T13:31:08.001Z</time></trkpt><trkpt lat="45.031839348868886" lon="8.121891963523888"><ele>173.0</ele><time>2026-04-18T13:31:09.001Z</time></trkpt><trkpt lat="45.03181224410375" lon="8.121984278964264"><ele>173.0</ele><time>2026-04-18T13:31:10.001Z</time></trkpt><trkpt lat="45.031790246462776" lon="8.122098194236653"><ele>173.0</ele><time>2026-04-18T13:31:11.001Z</time></trkpt><trkpt lat="45.031779578847924" lon="8.12220023388111"><ele>173.0</ele><time>2026-04-18T13:31:12.001Z</time></trkpt><trkpt lat="45.03177479819231" lon="8.122320404402629"><ele>173.0</ele><time>2026-04-18T13:31:13.001Z</time></trkpt><trkpt lat="45.03176146266482" lon="8.122433025270707"><ele>173.0</ele><time>2026-04-18T13:31:14.001Z</time></trkpt><trkpt lat="45.03172875998428" lon="8.122559156275294"><ele>173.0</ele><time>2026-04-18T13:31:15.001Z</time></trkpt><trkpt lat="45.03170244781237" lon="8.122660043314173"><ele>172.83333333333331</ele><time>2026-04-18T13:31:16.001Z</time></trkpt><trkpt lat="45.03166409187286" lon="8.122751008931571"><ele>172.66666666666666</ele><time>2026-04-18T13:31:17.001Z</time></trkpt><trkpt lat="45.0316300686678" lon="8.122836280064536"><ele>172.5</ele><time>2026-04-18T13:31:18.001Z</time></trkpt><trkpt lat="45.03159201610113" lon="8.122940139935984"><ele>172.33333333333334</ele><time>2026-04-18T13:31:19.001Z</time></trkpt><trkpt lat="45.03155512499209" lon="8.123063223039388"><ele>172.16666666666669</ele><time>2026-04-18T13:31:20.001Z</time></trkpt><trkpt lat="45.03151559817642" lon="8.123200727599382"><ele>172.0</ele><time>2026-04-18T13:31:21.001Z</time></trkpt><trkpt lat="45.03148518130739" lon="8.123323696234008"><ele>171.8</ele><time>2026-04-18T13:31:22.001Z</time></trkpt><trkpt lat="45.03144332694397" lon="8.123460884672369"><ele>171.6</ele><time>2026-04-18T13:31:23.001Z</time></trkpt><trkpt lat="45.03140272888899" lon="8.123582408303935"><ele>171.4</ele><time>2026-04-18T13:31:24.001Z</time></trkpt><trkpt lat="45.03136368424711" lon="8.123696815041765"><ele>171.20000000000002</ele><time>2026-04-18T13:31:25.001Z</time></trkpt><trkpt lat="45.03133862279832" lon="8.123814478051017"><ele>171.0</ele><time>2026-04-18T13:31:26.001Z</time></trkpt><trkpt lat="45.03133816841141" lon="8.123946416048273"><ele>171.0</ele><time>2026-04-18T13:31:27.001Z</time></trkpt><trkpt lat="45.03135385193085" lon="8.124057821935642"><ele>171.0</ele><time>2026-04-18T13:31:28.001Z</time></trkpt><trkpt lat="45.03136966042876" lon="8.124168615546646"><ele>171.0</ele><time>2026-04-18T13:31:29.001Z</time></trkpt><trkpt lat="45.031398887183705" lon="8.124274233971558"><ele>171.0</ele><time>2026-04-18T13:31:30.001Z</time></trkpt><trkpt lat="45.03143933418987" lon="8.12437455172085"><ele>171.0</ele><time>2026-04-18T13:31:31.001Z</time></trkpt><trkpt lat="45.03149505199606" lon="8.124488939252391"><ele>171.0</ele><time>2026-04-18T13:31:32.001Z</time></trkpt><trkpt lat="45.03154775570228" lon="8.124593323335757"><ele>171.0</ele><time>2026-04-18T13:31:33.001Z</time></trkpt><trkpt lat="45.03159732063215" lon="8.124704219228798"><ele>171.0</ele><time>2026-04-18T13:31:34.001Z</time></trkpt><trkpt lat="45.031655297650325" lon="8.124798799739935"><ele>171.0</ele><time>2026-04-18T13:31:35.002Z</time></trkpt><trkpt lat="45.03171382617723" lon="8.12488282742285"><ele>171.0</ele><time>2026-04-18T13:31:36.002Z</time></trkpt><trkpt lat="45.031767012862474" lon="8.124946787396365"><ele>171.0</ele><time>2026-04-18T13:31:37.002Z</time></trkpt><trkpt lat="45.03182635015268" lon="8.1249893052766"><ele>171.0</ele><time>2026-04-18T13:31:38.002Z</time></trkpt><trkpt lat="45.03190096058447" lon="8.12499496301025"><ele>170.83333333333334</ele><time>2026-04-18T13:31:39.002Z</time></trkpt><trkpt lat="45.03197503373831" lon="8.124998735372317"><ele>170.66666666666666</ele><time>2026-04-18T13:31:40.002Z</time></trkpt><trkpt lat="45.032050003965175" lon="8.125040448275678"><ele>170.5</ele><time>2026-04-18T13:31:41.002Z</time></trkpt><trkpt lat="45.03212947120319" lon="8.125096369733338"><ele>170.33333333333331</ele><time>2026-04-18T13:31:42.002Z</time></trkpt><trkpt lat="45.032212938843394" lon="8.125165455814987"><ele>170.16666666666666</ele><time>2026-04-18T13:31:43.002Z</time></trkpt><trkpt lat="45.032298872718584" lon="8.125236812074935"><ele>170.0</ele><time>2026-04-18T13:31:44.002Z</time></trkpt><trkpt lat="45.032379652291056" lon="8.125299883280592"><ele>170.0</ele><time>2026-04-18T13:31:45.002Z</time></trkpt><trkpt lat="45.032462706257476" lon="8.12536321766476"><ele>170.0</ele><time>2026-04-18T13:31:46.002Z</time></trkpt><trkpt lat="45.03254706032359" lon="8.125432191354982"><ele>170.0</ele><time>2026-04-18T13:31:47.002Z</time></trkpt><trkpt lat="45.03261386998848" lon="8.12549255447416"><ele>170.0</ele><time>2026-04-18T13:31:48.002Z</time></trkpt><trkpt lat="45.03268170995846" lon="8.125561165516196"><ele>170.0</ele><time>2026-04-18T13:31:49.002Z</time></trkpt><trkpt lat="45.03275931575118" lon="8.125693928683594"><ele>170.0</ele><time>2026-04-18T13:31:51.002Z</time></trkpt><trkpt lat="45.032823284720216" lon="8.125797108645695"><ele>170.0</ele><time>2026-04-18T13:31:53.002Z</time></trkpt><trkpt lat="45.03291840100026" lon="8.125847276979405"><ele>170.0</ele><time>2026-04-18T13:31:55.002Z</time></trkpt><trkpt lat="45.032994786685784" lon="8.125838056939074"><ele>170.0</ele><time>2026-04-18T13:31:57.002Z</time></trkpt><trkpt lat="45.03307326819717" lon="8.125819660815205"><ele>170.0</ele><time>2026-04-18T13:32:00.002Z</time></trkpt><trkpt lat="45.03315962997311" lon="8.125788500458722"><ele>170.0</ele><time>2026-04-18T13:32:02.002Z</time></trkpt><trkpt lat="45.03327714282433" lon="8.125752665465148"><ele>170.66666666666666</ele><time>2026-04-18T13:32:04.002Z</time></trkpt><trkpt lat="45.03337822170514" lon="8.125729613997606"><ele>171.33333333333331</ele><time>2026-04-18T13:32:06.002Z</time></trkpt><trkpt lat="45.03348584883728" lon="8.125725521715031"><ele>172.0</ele><time>2026-04-18T13:32:08.002Z</time></trkpt><trkpt lat="45.033557818937936" lon="8.12573433502333"><ele>172.66666666666666</ele><time>2026-04-18T13:32:09.002Z</time></trkpt><trkpt lat="45.03363939552529" lon="8.12574946352153"><ele>173.33333333333334</ele><time>2026-04-18T13:32:10.002Z</time></trkpt><trkpt lat="45.0337204280477" lon="8.125758854732952"><ele>174.0</ele><time>2026-04-18T13:32:11.002Z</time></trkpt><trkpt lat="45.03383463542713" lon="8.125789914795888"><ele>174.0</ele><time>2026-04-18T13:32:13.002Z</time></trkpt><trkpt lat="45.03388962944732" lon="8.125838900180076"><ele>174.0</ele><time>2026-04-18T13:32:14.002Z</time></trkpt><trkpt lat="45.03393269422429" lon="8.125921227401204"><ele>174.0</ele><time>2026-04-18T13:32:15.002Z</time></trkpt><trkpt lat="45.03396525840148" lon="8.126021947328876"><ele>174.0</ele><time>2026-04-18T13:32:16.002Z</time></trkpt><trkpt lat="45.0339926373386" lon="8.12612566106526"><ele>174.0</ele><time>2026-04-18T13:32:17.002Z</time></trkpt><trkpt lat="45.034025944738595" lon="8.126231968281637"><ele>174.0</ele><time>2026-04-18T13:32:18.003Z</time></trkpt><trkpt lat="45.03405915193091" lon="8.126334954177727"><ele>174.0</ele><time>2026-04-18T13:32:19.003Z</time></trkpt><trkpt lat="45.03409953591288" lon="8.126439117224045"><ele>174.0</ele><time>2026-04-18T13:32:20.003Z</time></trkpt><trkpt lat="45.034130913352165" lon="8.126546122853016"><ele>174.0</ele><time>2026-04-18T13:32:21.003Z</time></trkpt><trkpt lat="45.03416420614582" lon="8.126635190539409"><ele>174.0</ele><time>2026-04-18T13:32:22.003Z</time></trkpt><trkpt lat="45.03419571645632" lon="8.12671681418362"><ele>174.0</ele><time>2026-04-18T13:32:23.003Z</time></trkpt><trkpt lat="45.034233069088174" lon="8.126796647058761"><ele>174.0</ele><time>2026-04-18T13:32:24.003Z</time></trkpt><trkpt lat="45.034281777208925" lon="8.126868871844843"><ele>174.0</ele><time>2026-04-18T13:32:25.003Z</time></trkpt><trkpt lat="45.034340532941776" lon="8.126947418918304"><ele>174.66666666666666</ele><time>2026-04-18T13:32:26.003Z</time></trkpt><trkpt lat="45.034402002698805" lon="8.127029045104724"><ele>175.33333333333334</ele><time>2026-04-18T13:32:27.003Z</time></trkpt><trkpt lat="45.03446307703086" lon="8.12711589499291"><ele>176.0</ele><time>2026-04-18T13:32:28.003Z</time></trkpt><trkpt lat="45.03452324358879" lon="8.127200303796226"><ele>176.66666666666669</ele><time>2026-04-18T13:32:29.003Z</time></trkpt><trkpt lat="45.034577982204915" lon="8.127283702332699"><ele>177.33333333333334</ele><time>2026-04-18T13:32:30.003Z</time></trkpt><trkpt lat="45.03462243759467" lon="8.127365902006137"><ele>178.0</ele><time>2026-04-18T13:32:31.003Z</time></trkpt><trkpt lat="45.03464482134421" lon="8.12747146974208"><ele>178.83333333333334</ele><time>2026-04-18T13:32:33.003Z</time></trkpt><trkpt lat="45.03466128121427" lon="8.12758659598294"><ele>179.66666666666669</ele><time>2026-04-18T13:36:17.002Z</time></trkpt><trkpt lat="45.034677220910005" lon="8.127706347772374"><ele>180.5</ele><time>2026-04-18T13:36:20.002Z</time></trkpt><trkpt lat="45.03468446728441" lon="8.127805278186981"><ele>181.33333333333334</ele><time>2026-04-18T13:36:22.002Z</time></trkpt><trkpt lat="45.0346896847435" lon="8.127909024676226"><ele>182.16666666666666</ele><time>2026-04-18T13:36:24.002Z</time></trkpt><trkpt lat="45.034717930726245" lon="8.128006766295162"><ele>183.0</ele><time>2026-04-18T13:36:26.002Z</time></trkpt><trkpt lat="45.03477880016642" lon="8.128099275686392"><ele>183.0</ele><time>2026-04-18T13:36:28.002Z</time></trkpt><trkpt lat="45.034852317786296" lon="8.128169353465154"><ele>183.0</ele><time>2026-04-18T13:36:30.002Z</time></trkpt><trkpt lat="45.034925870989326" lon="8.128190413652012"><ele>183.0</ele><time>2026-04-18T13:36:32.002Z</time></trkpt><trkpt lat="45.03501509321498" lon="8.128233198208754"><ele>183.0</ele><time>2026-04-18T13:36:34.002Z</time></trkpt><trkpt lat="45.03510763149285" lon="8.128315166260819"><ele>183.0</ele><time>2026-04-18T13:36:37.002Z</time></trkpt><trkpt lat="45.03517168858529" lon="8.128397109371342"><ele>182.66666666666666</ele><time>2026-04-18T13:36:39.002Z</time></trkpt><trkpt lat="45.03521539257176" lon="8.12851669106524"><ele>182.33333333333334</ele><time>2026-04-18T13:36:41.002Z</time></trkpt><trkpt lat="45.03523783448325" lon="8.128657265407451"><ele>182.0</ele><time>2026-04-18T13:36:43.002Z</time></trkpt><trkpt lat="45.035248824791175" lon="8.128809434241335"><ele>181.66666666666669</ele><time>2026-04-18T13:36:45.003Z</time></trkpt><trkpt lat="45.03525225372533" lon="8.128901966554508"><ele>181.33333333333334</ele><time>2026-04-18T13:36:46.003Z</time></trkpt><trkpt lat="45.03525372464132" lon="8.128992641655547"><ele>181.0</ele><time>2026-04-18T13:36:47.003Z</time></trkpt><trkpt lat="45.03525581183338" lon="8.12908911864228"><ele>179.33333333333334</ele><time>2026-04-18T13:36:48.003Z</time></trkpt><trkpt lat="45.03524945051643" lon="8.129246972669149"><ele>177.66666666666669</ele><time>2026-04-18T13:36:50.003Z</time></trkpt><trkpt lat="45.035257121973686" lon="8.129371378860894"><ele>176.0</ele><time>2026-04-18T13:36:52Z</time></trkpt><trkpt lat="45.03526382099884" lon="8.129462227251107"><ele>174.33333333333334</ele><time>2026-04-18T13:36:53Z</time></trkpt><trkpt lat="45.03529716746464" lon="8.129570507022088"><ele>172.66666666666666</ele><time>2026-04-18T13:36:55Z</time></trkpt><trkpt lat="45.03530142398592" lon="8.129665346460774"><ele>171.0</ele><time>2026-04-18T13:36:57Z</time></trkpt><trkpt lat="45.035315473540244" lon="8.129798270815924"><ele>170.66666666666666</ele><time>2026-04-18T13:37:00Z</time></trkpt><trkpt lat="45.03533810304765" lon="8.129894280094"><ele>170.33333333333334</ele><time>2026-04-18T13:37:02Z</time></trkpt><trkpt lat="45.03539289445969" lon="8.129965150342118"><ele>170.0</ele><time>2026-04-18T13:37:04Z</time></trkpt><trkpt lat="45.03543989983345" lon="8.130054674956543"><ele>169.66666666666669</ele><time>2026-04-18T13:37:07Z</time></trkpt><trkpt lat="45.03548740474914" lon="8.130116145640127"><ele>169.33333333333334</ele><time>2026-04-18T13:37:10Z</time></trkpt><trkpt lat="45.03551447385637" lon="8.130217407066027"><ele>169.0</ele><time>2026-04-18T13:37:26.001Z</time></trkpt><trkpt lat="45.03558437409221" lon="8.13030777849911"><ele>169.0</ele><time>2026-04-18T13:37:28.001Z</time></trkpt><trkpt lat="45.035671432709364" lon="8.130413417700604"><ele>169.0</ele><time>2026-04-18T13:37:30.001Z</time></trkpt><trkpt lat="45.0357159233305" lon="8.130498725419063"><ele>169.0</ele><time>2026-04-18T13:37:31.001Z</time></trkpt><trkpt lat="45.03576440749511" lon="8.130570513763876"><ele>169.0</ele><time>2026-04-18T13:37:32.001Z</time></trkpt><trkpt lat="45.035810112677915" lon="8.130635795537508"><ele>169.0</ele><time>2026-04-18T13:37:33.001Z</time></trkpt><trkpt lat="45.03589030104156" lon="8.130752544807995"><ele>169.0</ele><time>2026-04-18T13:37:35.001Z</time></trkpt><trkpt lat="45.03597064511792" lon="8.130852944887526"><ele>169.66666666666669</ele><time>2026-04-18T13:37:37.001Z</time></trkpt><trkpt lat="45.03601884013513" lon="8.130915266437448"><ele>170.33333333333334</ele><time>2026-04-18T13:37:38.001Z</time></trkpt><trkpt lat="45.03606785633514" lon="8.130984626685319"><ele>171.0</ele><time>2026-04-18T13:37:39.001Z</time></trkpt><trkpt lat="45.03616639723605" lon="8.131044049578302"><ele>171.66666666666666</ele><time>2026-04-18T13:37:41.001Z</time></trkpt><trkpt lat="45.036226162694426" lon="8.131074928378649"><ele>172.33333333333331</ele><time>2026-04-18T13:37:42.001Z</time></trkpt><trkpt lat="45.036289135635" lon="8.13112566514297"><ele>173.0</ele><time>2026-04-18T13:37:43.001Z</time></trkpt><trkpt lat="45.03635628155289" lon="8.131188616888275"><ele>173.0</ele><time>2026-04-18T13:37:44.001Z</time></trkpt><trkpt lat="45.03642607412339" lon="8.131255424704685"><ele>173.0</ele><time>2026-04-18T13:37:45.001Z</time></trkpt><trkpt lat="45.036496054809916" lon="8.131321460571115"><ele>173.0</ele><time>2026-04-18T13:37:46.001Z</time></trkpt><trkpt lat="45.03656754598021" lon="8.131380967053962"><ele>173.0</ele><time>2026-04-18T13:37:47.001Z</time></trkpt><trkpt lat="45.03664224129625" lon="8.131440731739685"><ele>173.0</ele><time>2026-04-18T13:37:48.001Z</time></trkpt><trkpt lat="45.03671420865265" lon="8.13150360724643"><ele>173.0</ele><time>2026-04-18T13:37:49.001Z</time></trkpt><trkpt lat="45.036783231534024" lon="8.131568833497004"><ele>173.0</ele><time>2026-04-18T13:37:50.001Z</time></trkpt><trkpt lat="45.03685727954136" lon="8.13163202830597"><ele>173.0</ele><time>2026-04-18T13:37:51.001Z</time></trkpt><trkpt lat="45.03693732762467" lon="8.131685747136645"><ele>173.0</ele><time>2026-04-18T13:37:52.001Z</time></trkpt><trkpt lat="45.037005702598734" lon="8.131717718883776"><ele>173.0</ele><time>2026-04-18T13:37:53.001Z</time></trkpt><trkpt lat="45.03707488695801" lon="8.131742367723179"><ele>173.0</ele><time>2026-04-18T13:37:54.001Z</time></trkpt><trkpt lat="45.03714708777073" lon="8.131752166356463"><ele>173.0</ele><time>2026-04-18T13:37:55.001Z</time></trkpt><trkpt lat="45.037230685338066" lon="8.131766091965353"><ele>173.0</ele><time>2026-04-18T13:37:56.001Z</time></trkpt><trkpt lat="45.03730705272965" lon="8.13176176251168"><ele>173.0</ele><time>2026-04-18T13:37:57.001Z</time></trkpt><trkpt lat="45.0373937346635" lon="8.131760699346552"><ele>173.0</ele><time>2026-04-18T13:37:58.001Z</time></trkpt><trkpt lat="45.037482437864895" lon="8.131756601234704"><ele>173.0</ele><time>2026-04-18T13:37:59.001Z</time></trkpt><trkpt lat="45.03756277206151" lon="8.131743908494435"><ele>173.0</ele><time>2026-04-18T13:38:00.001Z</time></trkpt><trkpt lat="45.037632588097836" lon="8.131723327864265"><ele>173.0</ele><time>2026-04-18T13:38:01.001Z</time></trkpt><trkpt lat="45.037708118487394" lon="8.131698974787295"><ele>174.0</ele><time>2026-04-18T13:38:02.001Z</time></trkpt><trkpt lat="45.037791372206975" lon="8.131665993456417"><ele>175.0</ele><time>2026-04-18T13:38:03.001Z</time></trkpt><trkpt lat="45.03786097378168" lon="8.131626043534748"><ele>176.0</ele><time>2026-04-18T13:38:04.001Z</time></trkpt><trkpt lat="45.03793724847622" lon="8.13157579175522"><ele>177.0</ele><time>2026-04-18T13:38:05.001Z</time></trkpt><trkpt lat="45.038020369379154" lon="8.131532815151317"><ele>178.0</ele><time>2026-04-18T13:38:06.001Z</time></trkpt><trkpt lat="45.03811331274321" lon="8.131495005634928"><ele>179.0</ele><time>2026-04-18T13:38:07.001Z</time></trkpt><trkpt lat="45.03819110912683" lon="8.13146300237233"><ele>179.0</ele><time>2026-04-18T13:38:08.001Z</time></trkpt><trkpt lat="45.038269145591684" lon="8.131436127107776"><ele>179.0</ele><time>2026-04-18T13:38:09.002Z</time></trkpt><trkpt lat="45.03836280028697" lon="8.131409749117108"><ele>179.0</ele><time>2026-04-18T13:38:10.002Z</time></trkpt><trkpt lat="45.03846885873461" lon="8.131381870595204"><ele>179.0</ele><time>2026-04-18T13:38:11.002Z</time></trkpt><trkpt lat="45.03856374488378" lon="8.131357596536473"><ele>179.0</ele><time>2026-04-18T13:38:12.002Z</time></trkpt><trkpt lat="45.03863915612385" lon="8.131338987481932"><ele>180.16666666666666</ele><time>2026-04-18T13:38:13.002Z</time></trkpt><trkpt lat="45.03871290762278" lon="8.131322806957563"><ele>181.33333333333331</ele><time>2026-04-18T13:38:14.002Z</time></trkpt><trkpt lat="45.038785801112574" lon="8.131308523774868"><ele>182.5</ele><time>2026-04-18T13:38:15.002Z</time></trkpt><trkpt lat="45.03886382998547" lon="8.13130473057891"><ele>183.66666666666666</ele><time>2026-04-18T13:38:16.002Z</time></trkpt><trkpt lat="45.038940733546525" lon="8.13131363952661"><ele>184.83333333333334</ele><time>2026-04-18T13:38:17.002Z</time></trkpt><trkpt lat="45.03902276584188" lon="8.131330320686267"><ele>186.0</ele><time>2026-04-18T13:38:18.002Z</time></trkpt><trkpt lat="45.039100926589285" lon="8.131347929407221"><ele>187.16666666666666</ele><time>2026-04-18T13:38:19.002Z</time></trkpt><trkpt lat="45.03917418397893" lon="8.131375158887986"><ele>188.33333333333331</ele><time>2026-04-18T13:38:20.002Z</time></trkpt><trkpt lat="45.03923548634496" lon="8.131416687669882"><ele>189.5</ele><time>2026-04-18T13:38:21.002Z</time></trkpt><trkpt lat="45.039289549925066" lon="8.131472801346467"><ele>190.66666666666666</ele><time>2026-04-18T13:38:22.002Z</time></trkpt><trkpt lat="45.03935579636527" lon="8.131525355001024"><ele>191.83333333333331</ele><time>2026-04-18T13:38:23.002Z</time></trkpt><trkpt lat="45.03943432194585" lon="8.131564524218517"><ele>193.0</ele><time>2026-04-18T13:38:24.002Z</time></trkpt><trkpt lat="45.03951692259354" lon="8.131597126541843"><ele>194.14285714285717</ele><time>2026-04-18T13:38:25.002Z</time></trkpt><trkpt lat="45.03959459478587" lon="8.131618118410243"><ele>195.28571428571428</ele><time>2026-04-18T13:38:26.002Z</time></trkpt><trkpt lat="45.03966590894682" lon="8.131624811711188"><ele>196.42857142857144</ele><time>2026-04-18T13:38:27.002Z</time></trkpt><trkpt lat="45.039738933697826" lon="8.13163155347096"><ele>197.57142857142858</ele><time>2026-04-18T13:38:28.002Z</time></trkpt><trkpt lat="45.03980179496138" lon="8.131639487343726"><ele>198.71428571428572</ele><time>2026-04-18T13:38:29.002Z</time></trkpt><trkpt lat="45.03986973449978" lon="8.131646368195382"><ele>199.85714285714286</ele><time>2026-04-18T13:38:30.002Z</time></trkpt><trkpt lat="45.03994695124068" lon="8.131650577234273"><ele>201.0</ele><time>2026-04-18T13:38:31.002Z</time></trkpt><trkpt lat="45.04002461474291" lon="8.131656292067625"><ele>202.0</ele><time>2026-04-18T13:38:32.002Z</time></trkpt><trkpt lat="45.040109213544845" lon="8.131660314129629"><ele>203.0</ele><time>2026-04-18T13:38:33.002Z</time></trkpt><trkpt lat="45.040205703676634" lon="8.1316691456008"><ele>204.0</ele><time>2026-04-18T13:38:34.002Z</time></trkpt><trkpt lat="45.04030173572565" lon="8.131681444077154"><ele>205.0</ele><time>2026-04-18T13:38:35.002Z</time></trkpt><trkpt lat="45.04040146833539" lon="8.131687534826023"><ele>206.0</ele><time>2026-04-18T13:38:36.002Z</time></trkpt><trkpt lat="45.040501400450665" lon="8.131694319431942"><ele>206.0</ele><time>2026-04-18T13:38:37.002Z</time></trkpt><trkpt lat="45.04060299514509" lon="8.131702906120077"><ele>206.0</ele><time>2026-04-18T13:38:38.002Z</time></trkpt><trkpt lat="45.04069557932226" lon="8.131710464968874"><ele>206.0</ele><time>2026-04-18T13:38:39.002Z</time></trkpt><trkpt lat="45.04079404803591" lon="8.131720649846086"><ele>206.0</ele><time>2026-04-18T13:38:40.002Z</time></trkpt><trkpt lat="45.04088311101056" lon="8.131727272084204"><ele>206.0</ele><time>2026-04-18T13:38:41.002Z</time></trkpt><trkpt lat="45.040977146699454" lon="8.131729634844662"><ele>207.00000000000003</ele><time>2026-04-18T13:38:42.002Z</time></trkpt><trkpt lat="45.041065181059274" lon="8.13173947501917"><ele>208.0</ele><time>2026-04-18T13:38:43.002Z</time></trkpt><trkpt lat="45.04115034798912" lon="8.131746737107122"><ele>209.0</ele><time>2026-04-18T13:38:44.002Z</time></trkpt><trkpt lat="45.041239412197676" lon="8.131754517954796"><ele>210.0</ele><time>2026-04-18T13:38:45.002Z</time></trkpt><trkpt lat="45.041322430797244" lon="8.13175948010427"><ele>211.00000000000003</ele><time>2026-04-18T13:38:46.002Z</time></trkpt><trkpt lat="45.04139540095507" lon="8.131770008649989"><ele>212.0</ele><time>2026-04-18T13:38:47.002Z</time></trkpt><trkpt lat="45.0414662844734" lon="8.131782372686212"><ele>212.0</ele><time>2026-04-18T13:38:48.002Z</time></trkpt><trkpt lat="45.04160078278066" lon="8.13180248786885"><ele>212.0</ele><time>2026-04-18T13:38:50.002Z</time></trkpt><trkpt lat="45.04168012850779" lon="8.131809287256088"><ele>212.0</ele><time>2026-04-18T13:38:51.002Z</time></trkpt><trkpt lat="45.041756245841256" lon="8.131810998046177"><ele>212.0</ele><time>2026-04-18T13:38:52.002Z</time></trkpt><trkpt lat="45.041849020863516" lon="8.131833561274854"><ele>212.0</ele><time>2026-04-18T13:38:53.002Z</time></trkpt><trkpt lat="45.04192948440334" lon="8.131837361997812"><ele>213.00000000000003</ele><time>2026-04-18T13:38:54.002Z</time></trkpt><trkpt lat="45.04200955756725" lon="8.13186294347806"><ele>214.0</ele><time>2026-04-18T13:38:55.002Z</time></trkpt><trkpt lat="45.042087703403766" lon="8.13191187038611"><ele>215.0</ele><time>2026-04-18T13:38:56.002Z</time></trkpt><trkpt lat="45.04217332482864" lon="8.131929248673774"><ele>216.0</ele><time>2026-04-18T13:38:56.999Z</time></trkpt><trkpt lat="45.04225570003837" lon="8.131960572689923"><ele>217.00000000000003</ele><time>2026-04-18T13:38:57.999Z</time></trkpt><trkpt lat="45.042335562452365" lon="8.131995785146826"><ele>218.0</ele><time>2026-04-18T13:38:58.999Z</time></trkpt><trkpt lat="45.04241000840585" lon="8.132030212806896"><ele>218.66666666666669</ele><time>2026-04-18T13:38:59.999Z</time></trkpt><trkpt lat="45.042488484353406" lon="8.132068056999623"><ele>219.33333333333334</ele><time>2026-04-18T13:39:00.999Z</time></trkpt><trkpt lat="45.04257518329209" lon="8.132094660387391"><ele>220.0</ele><time>2026-04-18T13:39:01.999Z</time></trkpt><trkpt lat="45.04265847207327" lon="8.132123653235231"><ele>220.66666666666669</ele><time>2026-04-18T13:39:02.999Z</time></trkpt><trkpt lat="45.04273642910893" lon="8.132151786809676"><ele>221.33333333333334</ele><time>2026-04-18T13:39:03.999Z</time></trkpt><trkpt lat="45.04281797698839" lon="8.132182151068655"><ele>222.0</ele><time>2026-04-18T13:39:04.999Z</time></trkpt><trkpt lat="45.04290336883929" lon="8.132211296604833"><ele>222.0</ele><time>2026-04-18T13:39:05.999Z</time></trkpt><trkpt lat="45.04298534047529" lon="8.132235005469761"><ele>222.0</ele><time>2026-04-18T13:39:06.999Z</time></trkpt><trkpt lat="45.04306630882103" lon="8.132288040906896"><ele>222.0</ele><time>2026-04-18T13:39:07.999Z</time></trkpt><trkpt lat="45.04314690789125" lon="8.132316841431841"><ele>222.0</ele><time>2026-04-18T13:39:08.999Z</time></trkpt><trkpt lat="45.04323190150294" lon="8.132322462033917"><ele>222.0</ele><time>2026-04-18T13:39:09.999Z</time></trkpt><trkpt lat="45.04331078582447" lon="8.132354154786931"><ele>222.0</ele><time>2026-04-18T13:39:10.999Z</time></trkpt><trkpt lat="45.04339016348809" lon="8.132379081159595"><ele>222.83333333333334</ele><time>2026-04-18T13:39:12Z</time></trkpt><trkpt lat="45.0434713737925" lon="8.132404673152376"><ele>223.66666666666669</ele><time>2026-04-18T13:39:13Z</time></trkpt><trkpt lat="45.04355251163625" lon="8.132432883336193"><ele>224.5</ele><time>2026-04-18T13:39:14Z</time></trkpt><trkpt lat="45.04363941344062" lon="8.132463290979357"><ele>225.33333333333334</ele><time>2026-04-18T13:39:15Z</time></trkpt><trkpt lat="45.043726801681146" lon="8.132493492647558"><ele>226.16666666666669</ele><time>2026-04-18T13:39:16Z</time></trkpt><trkpt lat="45.04381743420684" lon="8.132522629365402"><ele>227.0</ele><time>2026-04-18T13:39:17Z</time></trkpt><trkpt lat="45.04390568787305" lon="8.132545302550723"><ele>227.00000000000003</ele><time>2026-04-18T13:39:18Z</time></trkpt><trkpt lat="45.04399243626169" lon="8.132568170293927"><ele>227.0</ele><time>2026-04-18T13:39:19Z</time></trkpt><trkpt lat="45.04408281122934" lon="8.13258587683586"><ele>227.0</ele><time>2026-04-18T13:39:20Z</time></trkpt><trkpt lat="45.04416847918989" lon="8.132604243280722"><ele>227.0</ele><time>2026-04-18T13:39:21Z</time></trkpt><trkpt lat="45.044251488138066" lon="8.132626115991492"><ele>227.00000000000003</ele><time>2026-04-18T13:39:22Z</time></trkpt><trkpt lat="45.04433667734629" lon="8.132640043765605"><ele>227.0</ele><time>2026-04-18T13:39:23Z</time></trkpt><trkpt lat="45.04442580739091" lon="8.13265833822826"><ele>227.33333333333334</ele><time>2026-04-18T13:39:24Z</time></trkpt><trkpt lat="45.0445072097713" lon="8.132706284552793"><ele>227.66666666666669</ele><time>2026-04-18T13:39:25Z</time></trkpt><trkpt lat="45.04459543900856" lon="8.132719929984493"><ele>228.0</ele><time>2026-04-18T13:39:26Z</time></trkpt><trkpt lat="45.04467770713318" lon="8.13277978673002"><ele>228.33333333333331</ele><time>2026-04-18T13:39:27Z</time></trkpt><trkpt lat="45.04476565438815" lon="8.132798305186114"><ele>228.66666666666666</ele><time>2026-04-18T13:39:28Z</time></trkpt><trkpt lat="45.04484663920715" lon="8.132842298523457"><ele>229.0</ele><time>2026-04-18T13:39:29Z</time></trkpt><trkpt lat="45.044926937140026" lon="8.132904822623725"><ele>230.49999999999997</ele><time>2026-04-18T13:39:30Z</time></trkpt><trkpt lat="45.04500758951267" lon="8.132946364692184"><ele>232.0</ele><time>2026-04-18T13:39:31Z</time></trkpt><trkpt lat="45.045084884105286" lon="8.132986893276302"><ele>233.5</ele><time>2026-04-18T13:39:32Z</time></trkpt><trkpt lat="45.04516740563506" lon="8.133032114400923"><ele>235.0</ele><time>2026-04-18T13:39:33Z</time></trkpt><trkpt lat="45.04525006530511" lon="8.133060277630866"><ele>236.49999999999997</ele><time>2026-04-18T13:39:34Z</time></trkpt><trkpt lat="45.04533137064517" lon="8.133102976650814"><ele>238.0</ele><time>2026-04-18T13:39:35Z</time></trkpt><trkpt lat="45.045400491108744" lon="8.133151999384863"><ele>237.99999999999997</ele><time>2026-04-18T13:39:36Z</time></trkpt><trkpt lat="45.04546689801919" lon="8.133202680967374"><ele>238.0</ele><time>2026-04-18T13:39:37Z</time></trkpt><trkpt lat="45.045544188545215" lon="8.133254972266574"><ele>238.0</ele><time>2026-04-18T13:39:38Z</time></trkpt><trkpt lat="45.045616635075866" lon="8.133331337761367"><ele>238.0</ele><time>2026-04-18T13:39:39Z</time></trkpt><trkpt lat="45.0456779960192" lon="8.133377834073764"><ele>237.99999999999997</ele><time>2026-04-18T13:39:40Z</time></trkpt><trkpt lat="45.045748359603245" lon="8.133433977311055"><ele>238.0</ele><time>2026-04-18T13:39:42Z</time></trkpt><trkpt lat="45.04575501080439" lon="8.133551108429888"><ele>238.4</ele><time>2026-04-18T13:39:45.001Z</time></trkpt><trkpt lat="45.04573269620586" lon="8.133639721338556"><ele>238.8</ele><time>2026-04-18T13:39:46.001Z</time></trkpt><trkpt lat="45.04570110230918" lon="8.13375404932105"><ele>239.2</ele><time>2026-04-18T13:39:47.001Z</time></trkpt><trkpt lat="45.045664684295936" lon="8.133894599041788"><ele>239.6</ele><time>2026-04-18T13:39:48.001Z</time></trkpt><trkpt lat="45.04562669978421" lon="8.134033303423152"><ele>240.0</ele><time>2026-04-18T13:39:49.001Z</time></trkpt><trkpt lat="45.045582901445414" lon="8.134185614711532"><ele>240.0</ele><time>2026-04-18T13:39:50.001Z</time></trkpt><trkpt lat="45.04555857913164" lon="8.13433714083093"><ele>240.0</ele><time>2026-04-18T13:39:51.001Z</time></trkpt><trkpt lat="45.04554646059527" lon="8.134489406615627"><ele>240.0</ele><time>2026-04-18T13:39:52.001Z</time></trkpt><trkpt lat="45.04553742625383" lon="8.13463647374095"><ele>240.0</ele><time>2026-04-18T13:39:53.001Z</time></trkpt><trkpt lat="45.045534516075264" lon="8.134759745218464"><ele>240.0</ele><time>2026-04-18T13:39:54.001Z</time></trkpt><trkpt lat="45.045533017868266" lon="8.134884842394351"><ele>240.0</ele><time>2026-04-18T13:39:55.001Z</time></trkpt><trkpt lat="45.045529140956845" lon="8.13499224626609"><ele>240.0</ele><time>2026-04-18T13:39:56.001Z</time></trkpt><trkpt lat="45.04553310013381" lon="8.135142192898897"><ele>240.0</ele><time>2026-04-18T13:39:58.001Z</time></trkpt><trkpt lat="45.04552188733854" lon="8.13529283876375"><ele>240.0</ele><time>2026-04-18T13:40:00.001Z</time></trkpt><trkpt lat="45.04555820613427" lon="8.135479248341996"><ele>240.0</ele><time>2026-04-18T13:40:02.001Z</time></trkpt><trkpt lat="45.04556875095173" lon="8.135593800246491"><ele>240.0</ele><time>2026-04-18T13:40:03.001Z</time></trkpt><trkpt lat="45.04558093075557" lon="8.135699671321337"><ele>240.0</ele><time>2026-04-18T13:40:04.001Z</time></trkpt><trkpt lat="45.04560567878443" lon="8.135806420982966"><ele>240.0</ele><time>2026-04-18T13:40:05.001Z</time></trkpt><trkpt lat="45.045622408433005" lon="8.135913912104945"><ele>240.0</ele><time>2026-04-18T13:40:06.001Z</time></trkpt><trkpt lat="45.045623987695784" lon="8.136021254160754"><ele>240.0</ele><time>2026-04-18T13:40:07.001Z</time></trkpt><trkpt lat="45.04561024059466" lon="8.136132602753108"><ele>240.0</ele><time>2026-04-18T13:40:08.001Z</time></trkpt><trkpt lat="45.04560462189742" lon="8.136232750854253"><ele>240.2</ele><time>2026-04-18T13:40:09.001Z</time></trkpt><trkpt lat="45.04562007518876" lon="8.13642010043107"><ele>240.4</ele><time>2026-04-18T13:40:11.001Z</time></trkpt><trkpt lat="45.04565764163985" lon="8.136549712313158"><ele>240.60000000000002</ele><time>2026-04-18T13:40:13.001Z</time></trkpt><trkpt lat="45.04569070952639" lon="8.136665597487173"><ele>240.8</ele><time>2026-04-18T13:40:16.001Z</time></trkpt><trkpt lat="45.04571998358025" lon="8.136775193872062"><ele>241.0</ele><time>2026-04-18T13:40:37.002Z</time></trkpt><trkpt lat="45.04574304650488" lon="8.136883689957225"><ele>241.60000000000002</ele><time>2026-04-18T13:40:59.002Z</time></trkpt><trkpt lat="45.04576522905263" lon="8.13699020837352"><ele>242.20000000000002</ele><time>2026-04-18T13:41:02.002Z</time></trkpt><trkpt lat="45.04580051006659" lon="8.137092744935678"><ele>242.79999999999998</ele><time>2026-04-18T13:41:04.999Z</time></trkpt><trkpt lat="45.04581802758858" lon="8.1371926346572"><ele>243.39999999999998</ele><time>2026-04-18T13:41:07.999Z</time></trkpt><trkpt lat="45.04591389569605" lon="8.137240086619753"><ele>244.0</ele><time>2026-04-18T13:41:09.999Z</time></trkpt><trkpt lat="45.046292015023376" lon="8.1372498062891"><ele>244.66666666666666</ele><time>2026-04-18T13:41:12.999Z</time></trkpt><trkpt lat="45.046354279065504" lon="8.137319398609812"><ele>245.33333333333331</ele><time>2026-04-18T13:41:15.999Z</time></trkpt><trkpt lat="45.04640937161018" lon="8.137379098544718"><ele>246.0</ele><time>2026-04-18T13:41:18.999Z</time></trkpt><trkpt lat="45.04646167231134" lon="8.137473093998658"><ele>246.66666666666669</ele><time>2026-04-18T13:41:21.999Z</time></trkpt><trkpt lat="45.04649210400676" lon="8.137582595392146"><ele>247.33333333333334</ele><time>2026-04-18T13:41:24Z</time></trkpt><trkpt lat="45.04654202481103" lon="8.137691602341446"><ele>248.0</ele><time>2026-04-18T13:41:26Z</time></trkpt><trkpt lat="45.04658713396767" lon="8.137776820768387"><ele>248.00000000000003</ele><time>2026-04-18T13:41:28Z</time></trkpt><trkpt lat="45.04662597061102" lon="8.137870048578284"><ele>248.0</ele><time>2026-04-18T13:41:30Z</time></trkpt><trkpt lat="45.04667149694811" lon="8.137950169843291"><ele>248.0</ele><time>2026-04-18T13:41:32Z</time></trkpt><trkpt lat="45.0467147065338" lon="8.138036469649649"><ele>248.0</ele><time>2026-04-18T13:41:34Z</time></trkpt><trkpt lat="45.0467575320247" lon="8.13810694008265"><ele>248.00000000000003</ele><time>2026-04-18T13:41:36Z</time></trkpt><trkpt lat="45.0468213635809" lon="8.138196268282359"><ele>248.0</ele><time>2026-04-18T13:41:39Z</time></trkpt><trkpt lat="45.046875411849086" lon="8.138266887153975"><ele>245.33333333333334</ele><time>2026-04-18T13:41:42Z</time></trkpt><trkpt lat="45.046940630223936" lon="8.138332082921876"><ele>242.66666666666669</ele><time>2026-04-18T13:41:45Z</time></trkpt><trkpt lat="45.046998644627564" lon="8.138410794651502"><ele>240.0</ele><time>2026-04-18T13:41:48Z</time></trkpt><trkpt lat="45.04706587486272" lon="8.138510964604448"><ele>237.33333333333331</ele><time>2026-04-18T13:41:51Z</time></trkpt><trkpt lat="45.0471345741912" lon="8.138609247529455"><ele>234.66666666666666</ele><time>2026-04-18T13:41:54.001Z</time></trkpt><trkpt lat="45.047189808885605" lon="8.138685723667747"><ele>232.0</ele><time>2026-04-18T13:41:57.001Z</time></trkpt><trkpt lat="45.04723839892321" lon="8.13874740626564"><ele>232.00000000000003</ele><time>2026-04-18T13:49:28Z</time></trkpt><trkpt lat="45.04729258036525" lon="8.138814401825783"><ele>232.0</ele><time>2026-04-18T13:49:41Z</time></trkpt><trkpt lat="45.047342918196584" lon="8.138883285990318"><ele>232.00000000000003</ele><time>2026-04-18T13:49:51Z</time></trkpt><trkpt lat="45.04738943186025" lon="8.138943581187236"><ele>232.00000000000003</ele><time>2026-04-18T13:50:26.001Z</time></trkpt><trkpt lat="45.04743501626745" lon="8.139008974454738"><ele>232.0</ele><time>2026-04-18T13:50:36.001Z</time></trkpt><trkpt lat="45.0474815139168" lon="8.139078326381126"><ele>232.00000000000003</ele><time>2026-04-18T13:50:52.002Z</time></trkpt><trkpt lat="45.04753374538172" lon="8.139138196754422"><ele>232.00000000000003</ele><time>2026-04-18T13:51:02.002Z</time></trkpt><trkpt lat="45.04758466222424" lon="8.139191283895173"><ele>228.42857142857147</ele><time>2026-04-18T13:51:12.002Z</time></trkpt><trkpt lat="45.047640657142416" lon="8.139238290237772"><ele>224.85714285714286</ele><time>2026-04-18T13:51:26.002Z</time></trkpt><trkpt lat="45.04769951281513" lon="8.1392812945355"><ele>221.2857142857143</ele><time>2026-04-18T13:51:54.999Z</time></trkpt><trkpt lat="45.047761885354724" lon="8.139308880255196"><ele>217.71428571428572</ele><time>2026-04-18T13:52:10Z</time></trkpt><trkpt lat="45.04782162368073" lon="8.139339150751676"><ele>214.14285714285717</ele><time>2026-04-18T13:52:23Z</time></trkpt><trkpt lat="45.04790560663176" lon="8.13939750562878"><ele>210.57142857142858</ele><time>2026-04-18T13:52:57.001Z</time></trkpt><trkpt lat="45.047965793974576" lon="8.139431163226734"><ele>207.0</ele><time>2026-04-18T13:53:16.002Z</time></trkpt><trkpt lat="45.048031316496655" lon="8.139472155835778"><ele>207.0</ele><time>2026-04-18T13:53:22.002Z</time></trkpt><trkpt lat="45.04811667242693" lon="8.139524401220086"><ele>207.0</ele><time>2026-04-18T13:53:25.002Z</time></trkpt><trkpt lat="45.048184797275425" lon="8.13956457916274"><ele>207.0</ele><time>2026-04-18T13:53:27.002Z</time></trkpt><trkpt lat="45.04825993174296" lon="8.139610897654899"><ele>207.0</ele><time>2026-04-18T13:53:30.002Z</time></trkpt><trkpt lat="45.048321308870904" lon="8.139644960546669"><ele>207.0</ele><time>2026-04-18T13:53:37.003Z</time></trkpt><trkpt lat="45.0483855868389" lon="8.13968655756086"><ele>207.0</ele><time>2026-04-18T13:53:41.998Z</time></trkpt><trkpt lat="45.04845202064792" lon="8.139735359356663"><ele>204.83333333333334</ele><time>2026-04-18T13:53:46.998Z</time></trkpt><trkpt lat="45.04851307264484" lon="8.139784555648406"><ele>202.66666666666669</ele><time>2026-04-18T13:53:53.999Z</time></trkpt><trkpt lat="45.048586946498595" lon="8.13982981211716"><ele>200.5</ele><time>2026-04-18T13:54:00.999Z</time></trkpt><trkpt lat="45.048666804001606" lon="8.13989031553832"><ele>198.33333333333334</ele><time>2026-04-18T13:54:03.999Z</time></trkpt><trkpt lat="45.04873528600696" lon="8.139943905962626"><ele>196.16666666666669</ele><time>2026-04-18T13:54:06.999Z</time></trkpt><trkpt lat="45.04880082508362" lon="8.139994317581614"><ele>194.0</ele><time>2026-04-18T13:54:10Z</time></trkpt><trkpt lat="45.04886770790772" lon="8.14004709088976"><ele>193.28571428571428</ele><time>2026-04-18T13:54:13Z</time></trkpt><trkpt lat="45.048932405122606" lon="8.140113166249822"><ele>192.57142857142858</ele><time>2026-04-18T13:54:16Z</time></trkpt><trkpt lat="45.04898471346141" lon="8.140188624458675"><ele>191.85714285714286</ele><time>2026-04-18T13:54:20Z</time></trkpt><trkpt lat="45.048939040284985" lon="8.140103783794668"><ele>191.14285714285714</ele><time>2026-04-18T13:55:55.999Z</time></trkpt><trkpt lat="45.0488844334423" lon="8.140048968753193"><ele>190.42857142857144</ele><time>2026-04-18T13:56:00.999Z</time></trkpt><trkpt lat="45.04880888091137" lon="8.140007181267023"><ele>189.71428571428572</ele><time>2026-04-18T13:56:06Z</time></trkpt><trkpt lat="45.048755594960646" lon="8.139948617208793"><ele>189.0</ele><time>2026-04-18T13:56:13Z</time></trkpt><trkpt lat="45.04868897647934" lon="8.139916142464093"><ele>189.0</ele><time>2026-04-18T13:56:19Z</time></trkpt></trkseg><trkseg><trkpt lat="45.04901260641114" lon="8.140279570725827"><ele>189.0</ele><time>2026-04-18T14:12:23Z</time></trkpt><trkpt lat="45.049030111815824" lon="8.140373099136692"><ele>189.0</ele><time>2026-04-18T14:12:25Z</time></trkpt><trkpt lat="45.04902147517736" lon="8.140503433455814"><ele>189.0</ele><time>2026-04-18T14:12:27Z</time></trkpt><trkpt lat="45.04898336253232" lon="8.140621836292487"><ele>189.0</ele><time>2026-04-18T14:12:29Z</time></trkpt><trkpt lat="45.04891963742392" lon="8.140731756868732"><ele>189.0</ele><time>2026-04-18T14:12:31Z</time></trkpt><trkpt lat="45.04881872145443" lon="8.140834654838502"><ele>187.83333333333334</ele><time>2026-04-18T14:12:33Z</time></trkpt><trkpt lat="45.04875409995414" lon="8.14088212417082"><ele>186.66666666666666</ele><time>2026-04-18T14:12:34Z</time></trkpt><trkpt lat="45.0486953358369" lon="8.140930584486984"><ele>185.5</ele><time>2026-04-18T14:12:35.001Z</time></trkpt><trkpt lat="45.04863423245497" lon="8.140977474750585"><ele>184.33333333333331</ele><time>2026-04-18T14:12:36.001Z</time></trkpt><trkpt lat="45.04857534589434" lon="8.141019075520449"><ele>183.16666666666666</ele><time>2026-04-18T14:12:37.001Z</time></trkpt><trkpt lat="45.04851450002856" lon="8.14106667609717"><ele>182.0</ele><time>2026-04-18T14:12:38.001Z</time></trkpt><trkpt lat="45.048422667893185" lon="8.14118463310375"><ele>182.0</ele><time>2026-04-18T14:12:40.001Z</time></trkpt><trkpt lat="45.0483854348323" lon="8.141265089048195"><ele>182.0</ele><time>2026-04-18T14:12:41.001Z</time></trkpt><trkpt lat="45.0483551057646" lon="8.141350265603327"><ele>182.0</ele><time>2026-04-18T14:12:42.001Z</time></trkpt><trkpt lat="45.04832834836948" lon="8.141441991751332"><ele>182.0</ele><time>2026-04-18T14:12:43.001Z</time></trkpt><trkpt lat="45.048296724163166" lon="8.141540831866736"><ele>182.0</ele><time>2026-04-18T14:12:44.001Z</time></trkpt><trkpt lat="45.04826726914911" lon="8.141644041876843"><ele>182.0</ele><time>2026-04-18T14:12:45.001Z</time></trkpt><trkpt lat="45.04824316654656" lon="8.141726710538057"><ele>182.0</ele><time>2026-04-18T14:12:46.001Z</time></trkpt><trkpt lat="45.048229076091566" lon="8.141862919845044"><ele>182.0</ele><time>2026-04-18T14:12:48.001Z</time></trkpt><trkpt lat="45.048256546294894" lon="8.142010090006947"><ele>182.0</ele><time>2026-04-18T14:12:50.001Z</time></trkpt><trkpt lat="45.048280354008554" lon="8.14210643463834"><ele>182.0</ele><time>2026-04-18T14:12:51.001Z</time></trkpt><trkpt lat="45.04830629081425" lon="8.142207715917188"><ele>182.0</ele><time>2026-04-18T14:12:52.001Z</time></trkpt><trkpt lat="45.04833116430191" lon="8.142300260454629"><ele>182.0</ele><time>2026-04-18T14:12:53.001Z</time></trkpt><trkpt lat="45.048363008779496" lon="8.142447636061627"><ele>182.0</ele><time>2026-04-18T14:12:55.001Z</time></trkpt><trkpt lat="45.04839164901915" lon="8.142581039851473"><ele>181.8</ele><time>2026-04-18T14:12:57.001Z</time></trkpt><trkpt lat="45.048425412914966" lon="8.14269581098607"><ele>181.6</ele><time>2026-04-18T14:12:59.001Z</time></trkpt><trkpt lat="45.04849834820312" lon="8.142813363951106"><ele>181.4</ele><time>2026-04-18T14:13:01.001Z</time></trkpt><trkpt lat="45.04854309544172" lon="8.142918714334797"><ele>181.20000000000002</ele><time>2026-04-18T14:13:03.001Z</time></trkpt><trkpt lat="45.04859499800866" lon="8.143040521896376"><ele>181.0</ele><time>2026-04-18T14:13:05.001Z</time></trkpt><trkpt lat="45.0486374521371" lon="8.143161673766254"><ele>180.8</ele><time>2026-04-18T14:13:07.001Z</time></trkpt><trkpt lat="45.048672272379136" lon="8.14329891530978"><ele>180.60000000000002</ele><time>2026-04-18T14:13:09.001Z</time></trkpt><trkpt lat="45.04869543255761" lon="8.143435894132681"><ele>180.4</ele><time>2026-04-18T14:13:11.001Z</time></trkpt><trkpt lat="45.04876803058455" lon="8.143484434918872"><ele>180.2</ele><time>2026-04-18T14:13:14.001Z</time></trkpt><trkpt lat="45.0488482720939" lon="8.143474845523226"><ele>180.0</ele><time>2026-04-18T14:13:16.001Z</time></trkpt><trkpt lat="45.04895181526774" lon="8.143468962132005"><ele>180.0</ele><time>2026-04-18T14:13:18.001Z</time></trkpt><trkpt lat="45.04906680521124" lon="8.143427727320068"><ele>180.0</ele><time>2026-04-18T14:13:20.001Z</time></trkpt><trkpt lat="45.04918227977372" lon="8.143368469930387"><ele>180.0</ele><time>2026-04-18T14:13:22.001Z</time></trkpt><trkpt lat="45.04924937995935" lon="8.143338220782503"><ele>180.0</ele><time>2026-04-18T14:13:23.001Z</time></trkpt><trkpt lat="45.04936790145379" lon="8.143289425518855"><ele>180.0</ele><time>2026-04-18T14:13:25.001Z</time></trkpt><trkpt lat="45.04943240271808" lon="8.143258335487385"><ele>179.83333333333334</ele><time>2026-04-18T14:13:26.001Z</time></trkpt><trkpt lat="45.0495292787234" lon="8.143215780080123"><ele>179.66666666666666</ele><time>2026-04-18T14:13:28.001Z</time></trkpt><trkpt lat="45.049607192596426" lon="8.143168116215055"><ele>179.5</ele><time>2026-04-18T14:13:30.001Z</time></trkpt><trkpt lat="45.04970454385103" lon="8.143123264856085"><ele>179.33333333333331</ele><time>2026-04-18T14:13:32.001Z</time></trkpt><trkpt lat="45.04976855606609" lon="8.143096053578347"><ele>179.16666666666666</ele><time>2026-04-18T14:13:32.998Z</time></trkpt><trkpt lat="45.049844230322456" lon="8.143061431545052"><ele>179.0</ele><time>2026-04-18T14:13:33.998Z</time></trkpt><trkpt lat="45.04992220876329" lon="8.143029194099272"><ele>179.33333333333331</ele><time>2026-04-18T14:13:34.998Z</time></trkpt><trkpt lat="45.04999523079923" lon="8.143007964206546"><ele>179.66666666666666</ele><time>2026-04-18T14:13:35.998Z</time></trkpt><trkpt lat="45.05006621601331" lon="8.142987443884623"><ele>180.0</ele><time>2026-04-18T14:13:36.998Z</time></trkpt><trkpt lat="45.05014010815147" lon="8.142968953057503"><ele>180.33333333333334</ele><time>2026-04-18T14:13:37.998Z</time></trkpt><trkpt lat="45.050222583649514" lon="8.14294757635413"><ele>180.66666666666669</ele><time>2026-04-18T14:13:38.998Z</time></trkpt><trkpt lat="45.05029925624985" lon="8.142911681164001"><ele>181.0</ele><time>2026-04-18T14:13:39.998Z</time></trkpt><trkpt lat="45.050363802057106" lon="8.142868567825866"><ele>181.0</ele><time>2026-04-18T14:13:40.998Z</time></trkpt><trkpt lat="45.05043175022045" lon="8.142821298743037"><ele>181.0</ele><time>2026-04-18T14:13:41.998Z</time></trkpt><trkpt lat="45.050503779021156" lon="8.14277580080502"><ele>181.0</ele><time>2026-04-18T14:13:42.998Z</time></trkpt><trkpt lat="45.05060284402904" lon="8.142707845818382"><ele>181.0</ele><time>2026-04-18T14:13:44.998Z</time></trkpt><trkpt lat="45.05069730317958" lon="8.142650584567214"><ele>181.0</ele><time>2026-04-18T14:13:46.998Z</time></trkpt><trkpt lat="45.050795741752545" lon="8.142631668774657"><ele>180.83333333333334</ele><time>2026-04-18T14:13:48.999Z</time></trkpt><trkpt lat="45.05086037147206" lon="8.142619792439328"><ele>180.66666666666669</ele><time>2026-04-18T14:13:49.999Z</time></trkpt><trkpt lat="45.05099173704637" lon="8.14261541901086"><ele>180.5</ele><time>2026-04-18T14:13:51.999Z</time></trkpt><trkpt lat="45.051054446372895" lon="8.142634093992744"><ele>180.33333333333334</ele><time>2026-04-18T14:13:52.999Z</time></trkpt><trkpt lat="45.05111968590363" lon="8.142657756942816"><ele>180.16666666666666</ele><time>2026-04-18T14:13:53.999Z</time></trkpt><trkpt lat="45.05118660986417" lon="8.142683544708717"><ele>180.0</ele><time>2026-04-18T14:13:54.999Z</time></trkpt><trkpt lat="45.05125013336305" lon="8.142718416533732"><ele>180.0</ele><time>2026-04-18T14:13:55.999Z</time></trkpt><trkpt lat="45.05131479091288" lon="8.142765804800558"><ele>180.0</ele><time>2026-04-18T14:13:56.999Z</time></trkpt><trkpt lat="45.05138232226132" lon="8.142823896265373"><ele>180.0</ele><time>2026-04-18T14:13:57.999Z</time></trkpt><trkpt lat="45.05145161969337" lon="8.14288372377387"><ele>180.0</ele><time>2026-04-18T14:13:58.999Z</time></trkpt><trkpt lat="45.051527726305686" lon="8.142940263046324"><ele>180.0</ele><time>2026-04-18T14:13:59.999Z</time></trkpt><trkpt lat="45.05159898213219" lon="8.142987299225535"><ele>180.0</ele><time>2026-04-18T14:14:00.999Z</time></trkpt><trkpt lat="45.051676364291986" lon="8.143026508922224"><ele>179.83333333333334</ele><time>2026-04-18T14:14:01.999Z</time></trkpt><trkpt lat="45.051755654490954" lon="8.143063093630643"><ele>179.66666666666666</ele><time>2026-04-18T14:14:02.999Z</time></trkpt><trkpt lat="45.05184081128461" lon="8.14310338532386"><ele>179.5</ele><time>2026-04-18T14:14:03.999Z</time></trkpt><trkpt lat="45.05193166648628" lon="8.143141921734356"><ele>179.33333333333331</ele><time>2026-04-18T14:14:04.999Z</time></trkpt><trkpt lat="45.052009738770266" lon="8.143172127448292"><ele>179.16666666666666</ele><time>2026-04-18T14:14:05.999Z</time></trkpt><trkpt lat="45.05207297199538" lon="8.143195100851296"><ele>179.0</ele><time>2026-04-18T14:14:06.999Z</time></trkpt><trkpt lat="45.05214562325261" lon="8.143222775667907"><ele>179.0</ele><time>2026-04-18T14:14:07.999Z</time></trkpt><trkpt lat="45.05222029568529" lon="8.143242595471982"><ele>179.0</ele><time>2026-04-18T14:14:08.999Z</time></trkpt><trkpt lat="45.05229596277971" lon="8.143266086989048"><ele>179.0</ele><time>2026-04-18T14:14:10Z</time></trkpt><trkpt lat="45.052370953127465" lon="8.1433016036524"><ele>179.0</ele><time>2026-04-18T14:14:11Z</time></trkpt><trkpt lat="45.052448566414384" lon="8.143337414312205"><ele>179.0</ele><time>2026-04-18T14:14:12Z</time></trkpt><trkpt lat="45.05253375096005" lon="8.143378222213274"><ele>179.0</ele><time>2026-04-18T14:14:13Z</time></trkpt><trkpt lat="45.05261958568096" lon="8.14341530556789"><ele>179.0</ele><time>2026-04-18T14:14:14Z</time></trkpt><trkpt lat="45.05269701988913" lon="8.14344417774887"><ele>179.0</ele><time>2026-04-18T14:14:15Z</time></trkpt><trkpt lat="45.05276578563314" lon="8.143470320910906"><ele>179.0</ele><time>2026-04-18T14:14:16Z</time></trkpt><trkpt lat="45.05283459469677" lon="8.143511599033195"><ele>179.0</ele><time>2026-04-18T14:14:17Z</time></trkpt><trkpt lat="45.05289607663178" lon="8.143581259121374"><ele>179.0</ele><time>2026-04-18T14:14:18Z</time></trkpt><trkpt lat="45.052950326044034" lon="8.143665630510384"><ele>179.0</ele><time>2026-04-18T14:14:19Z</time></trkpt><trkpt lat="45.0530124353559" lon="8.143754144810899"><ele>179.0</ele><time>2026-04-18T14:14:20Z</time></trkpt><trkpt lat="45.05308238232991" lon="8.143827729337898"><ele>179.0</ele><time>2026-04-18T14:14:21Z</time></trkpt><trkpt lat="45.053148982873495" lon="8.143878071014482"><ele>179.0</ele><time>2026-04-18T14:14:22Z</time></trkpt><trkpt lat="45.05322191409973" lon="8.143909018694334"><ele>179.0</ele><time>2026-04-18T14:14:23Z</time></trkpt><trkpt lat="45.05329957745378" lon="8.143924798083164"><ele>179.0</ele><time>2026-04-18T14:14:24Z</time></trkpt><trkpt lat="45.05337826056651" lon="8.143946837391367"><ele>179.0</ele><time>2026-04-18T14:14:25Z</time></trkpt><trkpt lat="45.05346096098115" lon="8.143969345376265"><ele>179.33333333333331</ele><time>2026-04-18T14:14:26Z</time></trkpt><trkpt lat="45.053547302170976" lon="8.1439958257907"><ele>179.66666666666666</ele><time>2026-04-18T14:14:27Z</time></trkpt><trkpt lat="45.05364164037264" lon="8.144021336734243"><ele>180.0</ele><time>2026-04-18T14:14:28Z</time></trkpt><trkpt lat="45.05372331826123" lon="8.144045048202917"><ele>180.33333333333334</ele><time>2026-04-18T14:14:29Z</time></trkpt><trkpt lat="45.0538056141095" lon="8.144072945605327"><ele>180.66666666666669</ele><time>2026-04-18T14:14:30Z</time></trkpt><trkpt lat="45.05389342563423" lon="8.144104365096668"><ele>181.0</ele><time>2026-04-18T14:14:31Z</time></trkpt><trkpt lat="45.05398091052284" lon="8.144139293724153"><ele>181.5</ele><time>2026-04-18T14:14:32Z</time></trkpt><trkpt lat="45.05407459846846" lon="8.144167399541244"><ele>182.0</ele><time>2026-04-18T14:14:33Z</time></trkpt><trkpt lat="45.0541631503622" lon="8.1441883198212"><ele>182.5</ele><time>2026-04-18T14:14:34Z</time></trkpt><trkpt lat="45.05424298800834" lon="8.14420816629457"><ele>183.0</ele><time>2026-04-18T14:14:35Z</time></trkpt><trkpt lat="45.05432448816235" lon="8.144229971482968"><ele>183.5</ele><time>2026-04-18T14:14:36Z</time></trkpt><trkpt lat="45.054412965757976" lon="8.144244086545177"><ele>184.0</ele><time>2026-04-18T14:14:37Z</time></trkpt><trkpt lat="45.05449935807974" lon="8.144263597582496"><ele>184.0</ele><time>2026-04-18T14:14:38Z</time></trkpt><trkpt lat="45.05458899475159" lon="8.14429126938249"><ele>184.0</ele><time>2026-04-18T14:14:39Z</time></trkpt><trkpt lat="45.05468170904532" lon="8.144322951596283"><ele>184.0</ele><time>2026-04-18T14:14:40Z</time></trkpt><trkpt lat="45.05477054500678" lon="8.14435150114307"><ele>184.0</ele><time>2026-04-18T14:14:41Z</time></trkpt><trkpt lat="45.054858984621944" lon="8.144379705751568"><ele>184.0</ele><time>2026-04-18T14:14:42Z</time></trkpt><trkpt lat="45.054953807011024" lon="8.144406276511004"><ele>183.39999999999998</ele><time>2026-04-18T14:14:43Z</time></trkpt><trkpt lat="45.055052163273025" lon="8.1444389454468"><ele>182.8</ele><time>2026-04-18T14:14:44Z</time></trkpt><trkpt lat="45.055164061403325" lon="8.144474459955656"><ele>182.2</ele><time>2026-04-18T14:14:45Z</time></trkpt><trkpt lat="45.05526077918301" lon="8.144503987092852"><ele>181.60000000000002</ele><time>2026-04-18T14:14:46Z</time></trkpt><trkpt lat="45.055338028037845" lon="8.144534198894812"><ele>181.0</ele><time>2026-04-18T14:14:47Z</time></trkpt><trkpt lat="45.0554172521659" lon="8.14457230071075"><ele>181.0</ele><time>2026-04-18T14:14:48Z</time></trkpt><trkpt lat="45.05548759651098" lon="8.144614051066771"><ele>181.0</ele><time>2026-04-18T14:14:49Z</time></trkpt><trkpt lat="45.05556281886072" lon="8.144655237285154"><ele>181.0</ele><time>2026-04-18T14:14:50Z</time></trkpt><trkpt lat="45.055633384393104" lon="8.144692558392661"><ele>181.0</ele><time>2026-04-18T14:14:51.001Z</time></trkpt><trkpt lat="45.05571194768645" lon="8.144727702108499"><ele>181.0</ele><time>2026-04-18T14:14:52.001Z</time></trkpt><trkpt lat="45.05579539630855" lon="8.144771040774316"><ele>181.0</ele><time>2026-04-18T14:14:53.001Z</time></trkpt><trkpt lat="45.05588170385486" lon="8.14481697907815"><ele>181.4</ele><time>2026-04-18T14:14:54.001Z</time></trkpt><trkpt lat="45.05597533084894" lon="8.144861720498866"><ele>181.8</ele><time>2026-04-18T14:14:55.001Z</time></trkpt><trkpt lat="45.0560618647801" lon="8.144913270196938"><ele>182.20000000000002</ele><time>2026-04-18T14:14:56.001Z</time></trkpt><trkpt lat="45.05614172924811" lon="8.144961213984123"><ele>182.60000000000002</ele><time>2026-04-18T14:14:57.001Z</time></trkpt><trkpt lat="45.05621798910345" lon="8.145013196046643"><ele>183.0</ele><time>2026-04-18T14:14:58.001Z</time></trkpt><trkpt lat="45.056306764862015" lon="8.145067934386814"><ele>183.0</ele><time>2026-04-18T14:14:59.001Z</time></trkpt><trkpt lat="45.05639069955764" lon="8.145129046325057"><ele>183.0</ele><time>2026-04-18T14:15:00.001Z</time></trkpt><trkpt lat="45.056477670514205" lon="8.145190303781723"><ele>183.0</ele><time>2026-04-18T14:15:01.001Z</time></trkpt><trkpt lat="45.0565583914669" lon="8.145247772177003"><ele>183.0</ele><time>2026-04-18T14:15:02.001Z</time></trkpt><trkpt lat="45.05664613842883" lon="8.145304042791963"><ele>183.0</ele><time>2026-04-18T14:15:03.001Z</time></trkpt><trkpt lat="45.05672103067777" lon="8.145342664867664"><ele>183.0</ele><time>2026-04-18T14:15:04.001Z</time></trkpt><trkpt lat="45.056794764399456" lon="8.1453651359058"><ele>183.0</ele><time>2026-04-18T14:15:05.001Z</time></trkpt><trkpt lat="45.05686545946803" lon="8.145360798264308"><ele>183.0</ele><time>2026-04-18T14:15:06.001Z</time></trkpt><trkpt lat="45.05693048804731" lon="8.145331772646504"><ele>183.0</ele><time>2026-04-18T14:15:07.001Z</time></trkpt><trkpt lat="45.057011369306224" lon="8.145282536528056"><ele>183.0</ele><time>2026-04-18T14:15:08.001Z</time></trkpt><trkpt lat="45.05709187788975" lon="8.145235273530224"><ele>183.0</ele><time>2026-04-18T14:15:09.001Z</time></trkpt><trkpt lat="45.05717514167681" lon="8.145189972552089"><ele>183.0</ele><time>2026-04-18T14:15:10.001Z</time></trkpt><trkpt lat="45.05726013603736" lon="8.145141633918197"><ele>183.0</ele><time>2026-04-18T14:15:11.001Z</time></trkpt><trkpt lat="45.057334824358826" lon="8.145101798659704"><ele>183.0</ele><time>2026-04-18T14:15:12.001Z</time></trkpt><trkpt lat="45.05740580350703" lon="8.14505630932966"><ele>183.0</ele><time>2026-04-18T14:15:13.001Z</time></trkpt><trkpt lat="45.057465258711154" lon="8.145014435955707"><ele>183.0</ele><time>2026-04-18T14:15:14.001Z</time></trkpt><trkpt lat="45.057560433928906" lon="8.144995613416409"><ele>183.0</ele><time>2026-04-18T14:15:15.001Z</time></trkpt><trkpt lat="45.05765327658984" lon="8.14495355443845"><ele>183.33333333333334</ele><time>2026-04-18T14:15:16.001Z</time></trkpt><trkpt lat="45.05772997201985" lon="8.144913583126014"><ele>183.66666666666666</ele><time>2026-04-18T14:15:17.001Z</time></trkpt><trkpt lat="45.05782034747099" lon="8.144866913841161"><ele>184.0</ele><time>2026-04-18T14:15:18.001Z</time></trkpt><trkpt lat="45.05790460893478" lon="8.144843476594103"><ele>184.33333333333331</ele><time>2026-04-18T14:15:19.001Z</time></trkpt><trkpt lat="45.05799379546005" lon="8.144809520356826"><ele>184.66666666666666</ele><time>2026-04-18T14:15:20.001Z</time></trkpt><trkpt lat="45.058072980069966" lon="8.144774057488105"><ele>185.0</ele><time>2026-04-18T14:15:21.001Z</time></trkpt><trkpt lat="45.05813699986903" lon="8.144745458284824"><ele>185.0</ele><time>2026-04-18T14:15:22.001Z</time></trkpt><trkpt lat="45.05820436381775" lon="8.144732523893813"><ele>185.0</ele><time>2026-04-18T14:15:23.001Z</time></trkpt><trkpt lat="45.05826737416999" lon="8.144745035487592"><ele>185.0</ele><time>2026-04-18T14:15:24.001Z</time></trkpt><trkpt lat="45.05832499839781" lon="8.144798866812016"><ele>185.0</ele><time>2026-04-18T14:15:25.001Z</time></trkpt><trkpt lat="45.05837787508534" lon="8.144877242153548"><ele>185.0</ele><time>2026-04-18T14:15:26.001Z</time></trkpt><trkpt lat="45.05842799169917" lon="8.144950002944073"><ele>185.0</ele><time>2026-04-18T14:15:27.001Z</time></trkpt><trkpt lat="45.05854601690239" lon="8.144985322483327"><ele>184.99999999999997</ele><time>2026-04-18T14:15:29.001Z</time></trkpt><trkpt lat="45.058609976429814" lon="8.144961740262598"><ele>185.0</ele><time>2026-04-18T14:15:30.001Z</time></trkpt><trkpt lat="45.058679442330835" lon="8.144922618958613"><ele>185.0</ele><time>2026-04-18T14:15:31.001Z</time></trkpt><trkpt lat="45.058751642038864" lon="8.144878747802728"><ele>185.0</ele><time>2026-04-18T14:15:32.001Z</time></trkpt><trkpt lat="45.05881550559273" lon="8.14484822541253"><ele>185.0</ele><time>2026-04-18T14:15:33.001Z</time></trkpt><trkpt lat="45.058886039903584" lon="8.144819716613448"><ele>184.99999999999997</ele><time>2026-04-18T14:15:34.001Z</time></trkpt><trkpt lat="45.058955163057995" lon="8.144793862796098"><ele>185.0</ele><time>2026-04-18T14:15:35.001Z</time></trkpt><trkpt lat="45.05903546596018" lon="8.14477142878267"><ele>185.0</ele><time>2026-04-18T14:15:36.001Z</time></trkpt><trkpt lat="45.05911573762889" lon="8.144752586705327"><ele>185.0</ele><time>2026-04-18T14:15:37.001Z</time></trkpt><trkpt lat="45.059202831989325" lon="8.14473942663426"><ele>185.0</ele><time>2026-04-18T14:15:38.001Z</time></trkpt><trkpt lat="45.059286092904166" lon="8.144736069455805"><ele>185.0</ele><time>2026-04-18T14:15:38.997Z</time></trkpt><trkpt lat="45.059362513143604" lon="8.144742576649339"><ele>185.0</ele><time>2026-04-18T14:15:39.997Z</time></trkpt><trkpt lat="45.05944416786069" lon="8.14475770956302"><ele>185.0</ele><time>2026-04-18T14:15:40.997Z</time></trkpt><trkpt lat="45.05953349621111" lon="8.144776547289759"><ele>185.16666666666666</ele><time>2026-04-18T14:15:41.997Z</time></trkpt><trkpt lat="45.05961145298783" lon="8.144802689721736"><ele>185.33333333333331</ele><time>2026-04-18T14:15:42.997Z</time></trkpt><trkpt lat="45.059684996965025" lon="8.144832179982945"><ele>185.5</ele><time>2026-04-18T14:15:43.997Z</time></trkpt><trkpt lat="45.05976071319017" lon="8.144864192939476"><ele>185.66666666666666</ele><time>2026-04-18T14:15:44.997Z</time></trkpt><trkpt lat="45.05984112171409" lon="8.144896417700132"><ele>185.83333333333334</ele><time>2026-04-18T14:15:45.997Z</time></trkpt><trkpt lat="45.05992296376387" lon="8.144932278215963"><ele>186.0</ele><time>2026-04-18T14:15:46.998Z</time></trkpt><trkpt lat="45.06000810542604" lon="8.144958749115052"><ele>186.5</ele><time>2026-04-18T14:15:47.998Z</time></trkpt><trkpt lat="45.06008841981306" lon="8.144962366092976"><ele>187.0</ele><time>2026-04-18T14:15:48.998Z</time></trkpt><trkpt lat="45.06015805227185" lon="8.144956838540866"><ele>187.5</ele><time>2026-04-18T14:15:49.998Z</time></trkpt><trkpt lat="45.06024180019939" lon="8.14496920055854"><ele>188.0</ele><time>2026-04-18T14:15:50.998Z</time></trkpt><trkpt lat="45.06033475865736" lon="8.144986252525795"><ele>188.5</ele><time>2026-04-18T14:15:51.998Z</time></trkpt><trkpt lat="45.06042732731778" lon="8.14499176723935"><ele>189.0</ele><time>2026-04-18T14:15:52.998Z</time></trkpt><trkpt lat="45.060523987173255" lon="8.144990616578898"><ele>189.0</ele><time>2026-04-18T14:15:53.998Z</time></trkpt><trkpt lat="45.060607852782766" lon="8.144979830259457"><ele>189.0</ele><time>2026-04-18T14:15:54.998Z</time></trkpt><trkpt lat="45.06067594909334" lon="8.144970025521825"><ele>189.0</ele><time>2026-04-18T14:15:55.998Z</time></trkpt><trkpt lat="45.06074582208492" lon="8.144954290378871"><ele>189.0</ele><time>2026-04-18T14:15:56.998Z</time></trkpt><trkpt lat="45.060819681645945" lon="8.14494752027391"><ele>189.0</ele><time>2026-04-18T14:15:57.998Z</time></trkpt><trkpt lat="45.06090374718635" lon="8.144943117341905"><ele>189.0</ele><time>2026-04-18T14:15:58.998Z</time></trkpt><trkpt lat="45.06098416143608" lon="8.144932786380286"><ele>189.0</ele><time>2026-04-18T14:15:59.998Z</time></trkpt><trkpt lat="45.06106760435206" lon="8.144923440423595"><ele>189.0</ele><time>2026-04-18T14:16:00.999Z</time></trkpt><trkpt lat="45.06114766590075" lon="8.144916871357363"><ele>189.0</ele><time>2026-04-18T14:16:01.999Z</time></trkpt><trkpt lat="45.0612287055371" lon="8.144911176562916"><ele>189.0</ele><time>2026-04-18T14:16:02.999Z</time></trkpt><trkpt lat="45.061312981314856" lon="8.144903835979736"><ele>189.0</ele><time>2026-04-18T14:16:03.999Z</time></trkpt><trkpt lat="45.06137608417258" lon="8.14489939172643"><ele>189.0</ele><time>2026-04-18T14:16:04.999Z</time></trkpt><trkpt lat="45.06147345660977" lon="8.144887791717613"><ele>189.2</ele><time>2026-04-18T14:16:06.999Z</time></trkpt><trkpt lat="45.061584807971464" lon="8.144875357723597"><ele>189.39999999999998</ele><time>2026-04-18T14:16:08.999Z</time></trkpt><trkpt lat="45.061703859351674" lon="8.144910970494458"><ele>189.6</ele><time>2026-04-18T14:16:10.999Z</time></trkpt><trkpt lat="45.061775031815735" lon="8.144938862204933"><ele>189.8</ele><time>2026-04-18T14:16:11.999Z</time></trkpt><trkpt lat="45.06185816061413" lon="8.144966071228467"><ele>190.0</ele><time>2026-04-18T14:16:12.999Z</time></trkpt><trkpt lat="45.06193920851658" lon="8.144976426069665"><ele>190.2</ele><time>2026-04-18T14:16:13.999Z</time></trkpt><trkpt lat="45.06200380755865" lon="8.144975642221981"><ele>190.4</ele><time>2026-04-18T14:16:14.999Z</time></trkpt><trkpt lat="45.06212757802558" lon="8.144940918920431"><ele>190.60000000000002</ele><time>2026-04-18T14:16:16.999Z</time></trkpt><trkpt lat="45.062238121390905" lon="8.144829634456329"><ele>190.8</ele><time>2026-04-18T14:16:18.999Z</time></trkpt><trkpt lat="45.06227576248575" lon="8.144740234165672"><ele>191.0</ele><time>2026-04-18T14:16:20Z</time></trkpt><trkpt lat="45.06230640262985" lon="8.144641932912258"><ele>191.0</ele><time>2026-04-18T14:16:21Z</time></trkpt><trkpt lat="45.06233852133116" lon="8.144548455551845"><ele>191.0</ele><time>2026-04-18T14:16:22Z</time></trkpt><trkpt lat="45.062376604766065" lon="8.144447591021407"><ele>191.0</ele><time>2026-04-18T14:16:23Z</time></trkpt><trkpt lat="45.06241828606452" lon="8.144345709602556"><ele>191.0</ele><time>2026-04-18T14:16:24Z</time></trkpt><trkpt lat="45.06246100026697" lon="8.144251017809403"><ele>191.0</ele><time>2026-04-18T14:16:25Z</time></trkpt><trkpt lat="45.062500783969725" lon="8.144153124827788"><ele>191.0</ele><time>2026-04-18T14:16:26Z</time></trkpt><trkpt lat="45.062547130512165" lon="8.144046028378757"><ele>191.0</ele><time>2026-04-18T14:16:27Z</time></trkpt><trkpt lat="45.06259256642283" lon="8.14394234390055"><ele>191.0</ele><time>2026-04-18T14:16:28Z</time></trkpt><trkpt lat="45.062634217729716" lon="8.143854682872114"><ele>191.0</ele><time>2026-04-18T14:16:29Z</time></trkpt><trkpt lat="45.062699646292884" lon="8.143757298413435"><ele>191.0</ele><time>2026-04-18T14:16:31Z</time></trkpt><trkpt lat="45.062804128075335" lon="8.143712734823197"><ele>191.0</ele><time>2026-04-18T14:16:33Z</time></trkpt><trkpt lat="45.06288380831154" lon="8.143682042380041"><ele>191.0</ele><time>2026-04-18T14:16:34Z</time></trkpt><trkpt lat="45.062967855076906" lon="8.143632884575197"><ele>191.0</ele><time>2026-04-18T14:16:35Z</time></trkpt><trkpt lat="45.06305128082581" lon="8.143580006117613"><ele>191.0</ele><time>2026-04-18T14:16:36Z</time></trkpt><trkpt lat="45.063146095367706" lon="8.143521105507817"><ele>191.0</ele><time>2026-04-18T14:16:37Z</time></trkpt><trkpt lat="45.063234247413135" lon="8.14345500863154"><ele>191.0</ele><time>2026-04-18T14:16:38Z</time></trkpt><trkpt lat="45.06331611363064" lon="8.143398929334777"><ele>191.0</ele><time>2026-04-18T14:16:39Z</time></trkpt><trkpt lat="45.06340161433249" lon="8.143338284487132"><ele>190.8</ele><time>2026-04-18T14:16:40Z</time></trkpt><trkpt lat="45.06348673886342" lon="8.143286785038763"><ele>190.60000000000002</ele><time>2026-04-18T14:16:41Z</time></trkpt><trkpt lat="45.063591943534135" lon="8.143233202054596"><ele>190.4</ele><time>2026-04-18T14:16:42Z</time></trkpt><trkpt lat="45.063691981747006" lon="8.143180930965192"><ele>190.2</ele><time>2026-04-18T14:16:43Z</time></trkpt><trkpt lat="45.063784206599536" lon="8.14313962362814"><ele>190.0</ele><time>2026-04-18T14:16:44Z</time></trkpt><trkpt lat="45.0638780929822" lon="8.143100677877031"><ele>190.0</ele><time>2026-04-18T14:16:45Z</time></trkpt><trkpt lat="45.063967094161484" lon="8.143061713774141"><ele>190.0</ele><time>2026-04-18T14:16:46Z</time></trkpt><trkpt lat="45.06404816306254" lon="8.14302841510071"><ele>190.0</ele><time>2026-04-18T14:16:47Z</time></trkpt><trkpt lat="45.06412634871833" lon="8.14299689179824"><ele>190.0</ele><time>2026-04-18T14:16:48Z</time></trkpt><trkpt lat="45.064201626384005" lon="8.142970829022486"><ele>190.0</ele><time>2026-04-18T14:16:49Z</time></trkpt><trkpt lat="45.06426399903843" lon="8.142950530342441"><ele>190.0</ele><time>2026-04-18T14:16:50Z</time></trkpt><trkpt lat="45.064327634014006" lon="8.142932306060137"><ele>190.42857142857144</ele><time>2026-04-18T14:16:51.001Z</time></trkpt><trkpt lat="45.0643967417454" lon="8.142909807034217"><ele>190.85714285714286</ele><time>2026-04-18T14:16:52.001Z</time></trkpt><trkpt lat="45.0644685563638" lon="8.142885194247217"><ele>191.28571428571428</ele><time>2026-04-18T14:16:53.001Z</time></trkpt><trkpt lat="45.06454047324033" lon="8.142854736267967"><ele>191.71428571428572</ele><time>2026-04-18T14:16:54.001Z</time></trkpt><trkpt lat="45.06460655604748" lon="8.142815808484604"><ele>192.14285714285714</ele><time>2026-04-18T14:16:55.001Z</time></trkpt><trkpt lat="45.06467274119059" lon="8.142772951669704"><ele>192.57142857142858</ele><time>2026-04-18T14:16:56.001Z</time></trkpt><trkpt lat="45.06473802866522" lon="8.142725381097133"><ele>193.0</ele><time>2026-04-18T14:16:57.001Z</time></trkpt><trkpt lat="45.06480582492058" lon="8.142676695904347"><ele>193.0</ele><time>2026-04-18T14:16:58.001Z</time></trkpt><trkpt lat="45.06491421721555" lon="8.142602371826412"><ele>193.0</ele><time>2026-04-18T14:17:00.001Z</time></trkpt><trkpt lat="45.06503259840086" lon="8.14251203327723"><ele>193.0</ele><time>2026-04-18T14:17:02.001Z</time></trkpt><trkpt lat="45.0650940251474" lon="8.14246035149664"><ele>193.0</ele><time>2026-04-18T14:17:03.001Z</time></trkpt><trkpt lat="45.06516121558228" lon="8.142405952177244"><ele>193.0</ele><time>2026-04-18T14:17:04.001Z</time></trkpt><trkpt lat="45.06524186313731" lon="8.142350270564242"><ele>193.16666666666666</ele><time>2026-04-18T14:17:05.001Z</time></trkpt><trkpt lat="45.065318782363896" lon="8.142306848109595"><ele>193.33333333333331</ele><time>2026-04-18T14:17:06.001Z</time></trkpt><trkpt lat="45.06540517398358" lon="8.14226884633329"><ele>193.5</ele><time>2026-04-18T14:17:07.001Z</time></trkpt><trkpt lat="45.06548952853113" lon="8.142244430657737"><ele>193.66666666666669</ele><time>2026-04-18T14:17:08.001Z</time></trkpt><trkpt lat="45.06556742495764" lon="8.14223155646706"><ele>193.83333333333334</ele><time>2026-04-18T14:17:09.001Z</time></trkpt><trkpt lat="45.065640968534275" lon="8.142238488255472"><ele>194.0</ele><time>2026-04-18T14:17:10.001Z</time></trkpt><trkpt lat="45.065718886261266" lon="8.14226497155991"><ele>194.83333333333334</ele><time>2026-04-18T14:17:11.001Z</time></trkpt><trkpt lat="45.06578754482839" lon="8.142307827004158"><ele>195.66666666666669</ele><time>2026-04-18T14:17:12.001Z</time></trkpt><trkpt lat="45.065860021348364" lon="8.14235952530003"><ele>196.5</ele><time>2026-04-18T14:17:13.001Z</time></trkpt><trkpt lat="45.065928133727255" lon="8.142413398229676"><ele>197.33333333333331</ele><time>2026-04-18T14:17:14.001Z</time></trkpt><trkpt lat="45.06600341557608" lon="8.142479166929432"><ele>198.16666666666666</ele><time>2026-04-18T14:17:15.001Z</time></trkpt><trkpt lat="45.066073693695834" lon="8.142546007491074"><ele>199.0</ele><time>2026-04-18T14:17:16.001Z</time></trkpt><trkpt lat="45.06613872203379" lon="8.142624971180268"><ele>199.49999999999997</ele><time>2026-04-18T14:17:17.001Z</time></trkpt><trkpt lat="45.06619008769138" lon="8.142693200968887"><ele>200.0</ele><time>2026-04-18T14:17:18.001Z</time></trkpt><trkpt lat="45.06623851489453" lon="8.142756565908591"><ele>200.5</ele><time>2026-04-18T14:17:19.001Z</time></trkpt><trkpt lat="45.06631849433444" lon="8.142853600318267"><ele>201.0</ele><time>2026-04-18T14:17:21.001Z</time></trkpt><trkpt lat="45.066414501769486" lon="8.142894247669252"><ele>201.49999999999997</ele><time>2026-04-18T14:17:23.001Z</time></trkpt><trkpt lat="45.066483637362" lon="8.142884492246228"><ele>202.0</ele><time>2026-04-18T14:17:24.001Z</time></trkpt><trkpt lat="45.06656327845714" lon="8.142852532232302"><ele>202.0</ele><time>2026-04-18T14:17:25.001Z</time></trkpt><trkpt lat="45.066648526192346" lon="8.142826353919336"><ele>202.0</ele><time>2026-04-18T14:17:26.002Z</time></trkpt><trkpt lat="45.06675054321545" lon="8.142803293394582"><ele>202.0</ele><time>2026-04-18T14:17:27.002Z</time></trkpt><trkpt lat="45.0668498047774" lon="8.142774720702684"><ele>202.0</ele><time>2026-04-18T14:17:28.002Z</time></trkpt><trkpt lat="45.06694072184008" lon="8.142747935623106"><ele>202.0</ele><time>2026-04-18T14:17:29.002Z</time></trkpt><trkpt lat="45.06702599491585" lon="8.142724284988267"><ele>202.0</ele><time>2026-04-18T14:17:30.002Z</time></trkpt><trkpt lat="45.06710705241217" lon="8.142695398964584"><ele>202.0</ele><time>2026-04-18T14:17:31.002Z</time></trkpt><trkpt lat="45.06718974680081" lon="8.142653984683422"><ele>202.0</ele><time>2026-04-18T14:17:32.002Z</time></trkpt><trkpt lat="45.06728543407824" lon="8.142610583539158"><ele>202.0</ele><time>2026-04-18T14:17:33.002Z</time></trkpt><trkpt lat="45.06738302848318" lon="8.142572884055626"><ele>202.0</ele><time>2026-04-18T14:17:34.002Z</time></trkpt><trkpt lat="45.067491888159395" lon="8.14253220112437"><ele>201.83333333333331</ele><time>2026-04-18T14:17:35.002Z</time></trkpt><trkpt lat="45.06758517257039" lon="8.142500356415828"><ele>201.66666666666666</ele><time>2026-04-18T14:17:36.002Z</time></trkpt><trkpt lat="45.06765957985203" lon="8.142484692201347"><ele>201.5</ele><time>2026-04-18T14:17:37.002Z</time></trkpt><trkpt lat="45.06778054981473" lon="8.142491491669874"><ele>201.33333333333331</ele><time>2026-04-18T14:17:39.002Z</time></trkpt><trkpt lat="45.06785099687944" lon="8.14249508643261"><ele>201.16666666666666</ele><time>2026-04-18T14:17:40.002Z</time></trkpt><trkpt lat="45.06792194172094" lon="8.142478407198823"><ele>201.0</ele><time>2026-04-18T14:17:41.002Z</time></trkpt><trkpt lat="45.068044701687946" lon="8.142407463786176"><ele>200.5</ele><time>2026-04-18T14:17:43.002Z</time></trkpt><trkpt lat="45.06811180316955" lon="8.142360634301715"><ele>200.0</ele><time>2026-04-18T14:17:44.002Z</time></trkpt><trkpt lat="45.06817173278302" lon="8.142316845902883"><ele>199.5</ele><time>2026-04-18T14:17:44.998Z</time></trkpt><trkpt lat="45.06825808576325" lon="8.142258408908253"><ele>199.0</ele><time>2026-04-18T14:17:46.998Z</time></trkpt><trkpt lat="45.06833203091863" lon="8.142201485196233"><ele>198.5</ele><time>2026-04-18T14:17:49.998Z</time></trkpt><trkpt lat="45.06842087009213" lon="8.14213602106868"><ele>198.0</ele><time>2026-04-18T14:18:17Z</time></trkpt><trkpt lat="45.068513344735436" lon="8.14209474177758"><ele>199.2</ele><time>2026-04-18T14:18:19Z</time></trkpt><trkpt lat="45.068596406359084" lon="8.142043949878062"><ele>200.4</ele><time>2026-04-18T14:18:21Z</time></trkpt><trkpt lat="45.06869558368271" lon="8.141994647337617"><ele>201.6</ele><time>2026-04-18T14:18:23Z</time></trkpt><trkpt lat="45.068795058537624" lon="8.141960365785096"><ele>202.79999999999998</ele><time>2026-04-18T14:18:25Z</time></trkpt><trkpt lat="45.068892322589875" lon="8.141963093920067"><ele>204.0</ele><time>2026-04-18T14:18:27Z</time></trkpt><trkpt lat="45.0690076161296" lon="8.142014325279243"><ele>204.0</ele><time>2026-04-18T14:18:29Z</time></trkpt><trkpt lat="45.06907084982645" lon="8.142045017264698"><ele>204.0</ele><time>2026-04-18T14:18:30Z</time></trkpt><trkpt lat="45.06913212942267" lon="8.142079081824532"><ele>204.0</ele><time>2026-04-18T14:18:31Z</time></trkpt><trkpt lat="45.06919301812795" lon="8.142107276208916"><ele>204.0</ele><time>2026-04-18T14:18:32Z</time></trkpt><trkpt lat="45.069262201227716" lon="8.142139470897996"><ele>204.0</ele><time>2026-04-18T14:18:33Z</time></trkpt><trkpt lat="45.06939192822976" lon="8.142182497009845"><ele>204.0</ele><time>2026-04-18T14:18:35Z</time></trkpt><trkpt lat="45.06946812673278" lon="8.142196571777152"><ele>204.28571428571428</ele><time>2026-04-18T14:18:36Z</time></trkpt><trkpt lat="45.06954267678468" lon="8.142214252076242"><ele>204.57142857142858</ele><time>2026-04-18T14:18:37Z</time></trkpt><trkpt lat="45.06961401917681" lon="8.142237552239541"><ele>204.85714285714283</ele><time>2026-04-18T14:18:38Z</time></trkpt><trkpt lat="45.06968430728327" lon="8.142259665027277"><ele>205.14285714285714</ele><time>2026-04-18T14:18:39Z</time></trkpt><trkpt lat="45.06975897710199" lon="8.142287130902204"><ele>205.42857142857142</ele><time>2026-04-18T14:18:40Z</time></trkpt><trkpt lat="45.069831159146176" lon="8.142318253936084"><ele>205.7142857142857</ele><time>2026-04-18T14:18:41.001Z</time></trkpt><trkpt lat="45.06990337441455" lon="8.142351610069742"><ele>206.0</ele><time>2026-04-18T14:18:42.001Z</time></trkpt><trkpt lat="45.06997618685824" lon="8.142384380396894"><ele>206.66666666666669</ele><time>2026-04-18T14:18:43.001Z</time></trkpt><trkpt lat="45.07004443865612" lon="8.14241882314506"><ele>207.33333333333334</ele><time>2026-04-18T14:18:44.001Z</time></trkpt><trkpt lat="45.07012011499181" lon="8.142460080850006"><ele>208.0</ele><time>2026-04-18T14:18:45.001Z</time></trkpt><trkpt lat="45.070182772369826" lon="8.14249168254472"><ele>208.66666666666669</ele><time>2026-04-18T14:18:46.001Z</time></trkpt><trkpt lat="45.070282761027144" lon="8.142538752850024"><ele>209.33333333333334</ele><time>2026-04-18T14:18:48.001Z</time></trkpt><trkpt lat="45.070347985935506" lon="8.142567319827386"><ele>210.0</ele><time>2026-04-18T14:18:49.001Z</time></trkpt><trkpt lat="45.07042132227512" lon="8.14260531204681"><ele>210.0</ele><time>2026-04-18T14:18:50.001Z</time></trkpt><trkpt lat="45.07049176481578" lon="8.14264318542366"><ele>210.0</ele><time>2026-04-18T14:18:51.001Z</time></trkpt><trkpt lat="45.07056815890101" lon="8.142678274992926"><ele>210.0</ele><time>2026-04-18T14:18:52.001Z</time></trkpt><trkpt lat="45.07064068946816" lon="8.14271090916416"><ele>210.0</ele><time>2026-04-18T14:18:53.001Z</time></trkpt><trkpt lat="45.07071057002927" lon="8.142742629073549"><ele>210.0</ele><time>2026-04-18T14:18:54.001Z</time></trkpt><trkpt lat="45.07078180605629" lon="8.1427773602819"><ele>210.0</ele><time>2026-04-18T14:18:55.001Z</time></trkpt><trkpt lat="45.07085753026408" lon="8.14281340640892"><ele>211.0</ele><time>2026-04-18T14:18:56.001Z</time></trkpt><trkpt lat="45.070933317763505" lon="8.142839902525896"><ele>212.0</ele><time>2026-04-18T14:18:57.001Z</time></trkpt><trkpt lat="45.071018699762305" lon="8.142874692680051"><ele>213.0</ele><time>2026-04-18T14:18:58.001Z</time></trkpt><trkpt lat="45.071097034884374" lon="8.14290517187527"><ele>214.0</ele><time>2026-04-18T14:18:59.001Z</time></trkpt><trkpt lat="45.071166024088555" lon="8.142935369766914"><ele>215.0</ele><time>2026-04-18T14:19:00.001Z</time></trkpt><trkpt lat="45.071226851755334" lon="8.142963849911565"><ele>216.0</ele><time>2026-04-18T14:19:01.001Z</time></trkpt><trkpt lat="45.071344863473435" lon="8.142939089636672"><ele>216.0</ele><time>2026-04-18T14:19:03.001Z</time></trkpt><trkpt lat="45.071401519201125" lon="8.142877230713081"><ele>216.0</ele><time>2026-04-18T14:19:04.001Z</time></trkpt><trkpt lat="45.07145364236312" lon="8.142823075239182"><ele>216.0</ele><time>2026-04-18T14:19:05.001Z</time></trkpt><trkpt lat="45.0715136581859" lon="8.142769101083333"><ele>216.0</ele><time>2026-04-18T14:19:06.001Z</time></trkpt><trkpt lat="45.0715824035418" lon="8.142716681099127"><ele>216.0</ele><time>2026-04-18T14:19:07.001Z</time></trkpt><trkpt lat="45.07164707553448" lon="8.142663199745643"><ele>216.0</ele><time>2026-04-18T14:19:08.001Z</time></trkpt><trkpt lat="45.0717100684448" lon="8.142609526904849"><ele>216.0</ele><time>2026-04-18T14:19:09.001Z</time></trkpt><trkpt lat="45.07177932670527" lon="8.142555230248888"><ele>215.33333333333334</ele><time>2026-04-18T14:19:10.001Z</time></trkpt><trkpt lat="45.0718509256006" lon="8.14250382841507"><ele>214.66666666666669</ele><time>2026-04-18T14:19:11.001Z</time></trkpt><trkpt lat="45.07192008675902" lon="8.142450087473803"><ele>214.0</ele><time>2026-04-18T14:19:12.001Z</time></trkpt><trkpt lat="45.07199219466472" lon="8.142399658446259"><ele>213.33333333333334</ele><time>2026-04-18T14:19:13.002Z</time></trkpt><trkpt lat="45.07206717830412" lon="8.142349981592712"><ele>212.66666666666669</ele><time>2026-04-18T14:19:14.002Z</time></trkpt><trkpt lat="45.072146984513296" lon="8.142300091816178"><ele>212.0</ele><time>2026-04-18T14:19:15.002Z</time></trkpt><trkpt lat="45.07222442053625" lon="8.142257294116925"><ele>212.00000000000003</ele><time>2026-04-18T14:19:16.002Z</time></trkpt><trkpt lat="45.07230081590021" lon="8.142218301747963"><ele>212.0</ele><time>2026-04-18T14:19:17.002Z</time></trkpt><trkpt lat="45.0723656175386" lon="8.142183653546216"><ele>212.0</ele><time>2026-04-18T14:19:18.002Z</time></trkpt><trkpt lat="45.072435188100584" lon="8.142149125603177"><ele>212.0</ele><time>2026-04-18T14:19:19.002Z</time></trkpt><trkpt lat="45.07250876472041" lon="8.142110912212559"><ele>212.00000000000003</ele><time>2026-04-18T14:19:20.002Z</time></trkpt><trkpt lat="45.07257857023011" lon="8.142073725210118"><ele>212.0</ele><time>2026-04-18T14:19:21.002Z</time></trkpt><trkpt lat="45.07268973021121" lon="8.14201158167401"><ele>213.39999999999998</ele><time>2026-04-18T14:19:23.002Z</time></trkpt><trkpt lat="45.072757460933545" lon="8.141973937805608"><ele>214.79999999999998</ele><time>2026-04-18T14:19:24.002Z</time></trkpt><trkpt lat="45.07282565665321" lon="8.141935928884207"><ele>216.2</ele><time>2026-04-18T14:19:25.002Z</time></trkpt><trkpt lat="45.07289518065745" lon="8.141896566411345"><ele>217.6</ele><time>2026-04-18T14:19:26.002Z</time></trkpt><trkpt lat="45.07300286914358" lon="8.141843068836572"><ele>219.0</ele><time>2026-04-18T14:19:28.002Z</time></trkpt><trkpt lat="45.07312724005433" lon="8.14177607220455"><ele>219.0</ele><time>2026-04-18T14:19:30.002Z</time></trkpt><trkpt lat="45.0732366538572" lon="8.141717986730203"><ele>219.0</ele><time>2026-04-18T14:19:32.002Z</time></trkpt><trkpt lat="45.07333294058622" lon="8.141661718809308"><ele>219.0</ele><time>2026-04-18T14:19:34.002Z</time></trkpt><trkpt lat="45.07341093250912" lon="8.141634077206925"><ele>219.0</ele><time>2026-04-18T14:19:36.002Z</time></trkpt><trkpt lat="45.073484327439296" lon="8.141629976886557"><ele>219.0</ele><time>2026-04-18T14:19:39.002Z</time></trkpt><trkpt lat="45.07354872769007" lon="8.141656435151853"><ele>219.0</ele><time>2026-04-18T14:20:20Z</time></trkpt><trkpt lat="45.073572815013264" lon="8.141754173802882"><ele>220.0</ele><time>2026-04-18T14:20:23Z</time></trkpt><trkpt lat="45.073581616351056" lon="8.14187271747443"><ele>220.99999999999997</ele><time>2026-04-18T14:20:25Z</time></trkpt><trkpt lat="45.07356955727404" lon="8.141994756777892"><ele>221.99999999999997</ele><time>2026-04-18T14:20:27.001Z</time></trkpt><trkpt lat="45.07356914233674" lon="8.142132771921755"><ele>223.0</ele><time>2026-04-18T14:20:29.001Z</time></trkpt><trkpt lat="45.073560701367555" lon="8.14229628153857"><ele>224.0</ele><time>2026-04-18T14:20:31.001Z</time></trkpt><trkpt lat="45.073558147485194" lon="8.142390165481123"><ele>225.6</ele><time>2026-04-18T14:20:32.001Z</time></trkpt><trkpt lat="45.073552040641296" lon="8.142556523053305"><ele>227.2</ele><time>2026-04-18T14:20:34.001Z</time></trkpt><trkpt lat="45.07354587813815" lon="8.14270082902265"><ele>228.79999999999998</ele><time>2026-04-18T14:20:36.001Z</time></trkpt><trkpt lat="45.07356877485208" lon="8.142819813617812"><ele>230.39999999999998</ele><time>2026-04-18T14:20:38.001Z</time></trkpt><trkpt lat="45.073569679925484" lon="8.142955643037052"><ele>232.0</ele><time>2026-04-18T14:20:41.001Z</time></trkpt><trkpt lat="45.07357941475168" lon="8.143093761330357"><ele>232.83333333333331</ele><time>2026-04-18T14:20:43.001Z</time></trkpt><trkpt lat="45.07361391552184" lon="8.143268520206576"><ele>233.66666666666666</ele><time>2026-04-18T14:20:45.001Z</time></trkpt><trkpt lat="45.07363659254962" lon="8.143369069328251"><ele>234.5</ele><time>2026-04-18T14:20:46.001Z</time></trkpt><trkpt lat="45.07366391082853" lon="8.143481790550126"><ele>235.33333333333331</ele><time>2026-04-18T14:20:47.001Z</time></trkpt><trkpt lat="45.07368910628893" lon="8.143586564213416"><ele>236.16666666666666</ele><time>2026-04-18T14:20:48.001Z</time></trkpt><trkpt lat="45.07372144553282" lon="8.143693840721156"><ele>237.0</ele><time>2026-04-18T14:20:49.001Z</time></trkpt><trkpt lat="45.073750030391295" lon="8.14377397289829"><ele>237.0</ele><time>2026-04-18T14:20:50.001Z</time></trkpt><trkpt lat="45.073781033498825" lon="8.14389544163306"><ele>237.0</ele><time>2026-04-18T14:20:52.001Z</time></trkpt><trkpt lat="45.073810610575904" lon="8.144012400340118"><ele>237.0</ele><time>2026-04-18T14:20:54.001Z</time></trkpt><trkpt lat="45.07384128767645" lon="8.144128108819848"><ele>237.0</ele><time>2026-04-18T14:21:14.002Z</time></trkpt><trkpt lat="45.07388955494799" lon="8.144285323820933"><ele>237.0</ele><time>2026-04-18T14:21:16.002Z</time></trkpt><trkpt lat="45.073948962318276" lon="8.14442227847373"><ele>238.33333333333334</ele><time>2026-04-18T14:21:18.002Z</time></trkpt><trkpt lat="45.07400566206492" lon="8.144522836040903"><ele>239.66666666666669</ele><time>2026-04-18T14:21:20.002Z</time></trkpt><trkpt lat="45.07398040834971" lon="8.14462587786014"><ele>241.0</ele><time>2026-04-18T14:21:22.002Z</time></trkpt><trkpt lat="45.07387950735444" lon="8.144709148768097"><ele>242.33333333333334</ele><time>2026-04-18T14:21:24.002Z</time></trkpt><trkpt lat="45.073824290554064" lon="8.144767132827022"><ele>243.66666666666669</ele><time>2026-04-18T14:21:25.002Z</time></trkpt><trkpt lat="45.07376831964949" lon="8.14484428559325"><ele>245.0</ele><time>2026-04-18T14:21:26.002Z</time></trkpt><trkpt lat="45.07370914571742" lon="8.144920811857878"><ele>246.00000000000003</ele><time>2026-04-18T14:21:27.002Z</time></trkpt><trkpt lat="45.073653882702715" lon="8.144985719770242"><ele>247.0</ele><time>2026-04-18T14:21:28.003Z</time></trkpt><trkpt lat="45.07358884528794" lon="8.145045729441419"><ele>248.0</ele><time>2026-04-18T14:21:29.003Z</time></trkpt><trkpt lat="45.07352528228977" lon="8.145095154472004"><ele>249.0</ele><time>2026-04-18T14:21:30.003Z</time></trkpt><trkpt lat="45.07346096379641" lon="8.145147923343528"><ele>250.00000000000003</ele><time>2026-04-18T14:21:31.003Z</time></trkpt><trkpt lat="45.07337488773583" lon="8.145230812001387"><ele>251.0</ele><time>2026-04-18T14:21:33.003Z</time></trkpt><trkpt lat="45.07329674127963" lon="8.145297920723989"><ele>251.0</ele><time>2026-04-18T14:21:35.003Z</time></trkpt><trkpt lat="45.07324602362644" lon="8.145396824154396"><ele>251.00000000000003</ele><time>2026-04-18T14:21:37.003Z</time></trkpt><trkpt lat="45.07325364406487" lon="8.145513268179624"><ele>251.00000000000003</ele><time>2026-04-18T14:21:39.003Z</time></trkpt><trkpt lat="45.073302850837536" lon="8.145631473649255"><ele>251.0</ele><time>2026-04-18T14:21:41.003Z</time></trkpt><trkpt lat="45.07336028636833" lon="8.145756727293447"><ele>251.0</ele><time>2026-04-18T14:21:43.003Z</time></trkpt><trkpt lat="45.07341447398363" lon="8.145896570659737"><ele>252.00000000000003</ele><time>2026-04-18T14:21:45.003Z</time></trkpt><trkpt lat="45.073446405819865" lon="8.145975527986522"><ele>253.0</ele><time>2026-04-18T14:21:46.003Z</time></trkpt><trkpt lat="45.073478111853376" lon="8.146056160360352"><ele>254.0</ele><time>2026-04-18T14:21:47.003Z</time></trkpt><trkpt lat="45.073541768956055" lon="8.146206659993625"><ele>255.0</ele><time>2026-04-18T14:21:49.003Z</time></trkpt><trkpt lat="45.073579758474224" lon="8.146281331373206"><ele>256.0</ele><time>2026-04-18T14:21:50.003Z</time></trkpt><trkpt lat="45.07362091088714" lon="8.146353315328918"><ele>257.0</ele><time>2026-04-18T14:21:51.003Z</time></trkpt><trkpt lat="45.07365793182926" lon="8.146433229781927"><ele>257.0</ele><time>2026-04-18T14:21:52.003Z</time></trkpt><trkpt lat="45.073694431085855" lon="8.146516473248045"><ele>257.0</ele><time>2026-04-18T14:21:53.003Z</time></trkpt><trkpt lat="45.07372900639327" lon="8.146609610054329"><ele>257.0</ele><time>2026-04-18T14:21:54.003Z</time></trkpt><trkpt lat="45.07375365986489" lon="8.146704932063797"><ele>257.0</ele><time>2026-04-18T14:21:55.003Z</time></trkpt><trkpt lat="45.073772693570184" lon="8.146797963551078"><ele>257.0</ele><time>2026-04-18T14:21:56.003Z</time></trkpt><trkpt lat="45.07378595527775" lon="8.146889649856236"><ele>257.0</ele><time>2026-04-18T14:21:57Z</time></trkpt><trkpt lat="45.07379704792797" lon="8.146991510508137"><ele>257.0</ele><time>2026-04-18T14:21:58Z</time></trkpt><trkpt lat="45.073803353068534" lon="8.147091031056378"><ele>265.0</ele><time>2026-04-18T14:21:59Z</time></trkpt><trkpt lat="45.07380945998923" lon="8.147225290663602"><ele>265.0</ele><time>2026-04-18T14:22:01Z</time></trkpt><trkpt lat="45.07381478240511" lon="8.147394827250432"><ele>270.0</ele><time>2026-04-18T14:22:04Z</time></trkpt><trkpt lat="45.0738197731939" lon="8.147485462277915"><ele>270.0</ele><time>2026-04-18T14:22:07Z</time></trkpt></trkseg></trk></gpx>